<?xml version='1.0' encoding='UTF-8'?><gpx version="1.1" creator="JPX - https://github.com/jenetics/jpx" xmlns="http://www.topografix.com/GPX/1/1"><trk><trkseg><trkpt lat="48.12346692893886" lon="11.620622246722556"><ele>536.0</ele><time>2026-04-18T07:17:44Z</time></trkpt><trkpt lat="48.12340189454769" lon="11.620621342834955"><ele>536.0</ele><time>2026-04-18T07:17:54Z</time></trkpt><trkpt lat="48.123339503286296" lon="11.620643187849154"><ele>536.0</ele><time>2026-04-18T07:17:56Z</time></trkpt><trkpt lat="48.12323527717574" lon="11.62068276271214"><ele>536.0</ele><time>2026-04-18T07:17:58Z</time></trkpt><trkpt lat="48.12316819020306" lon="11.62066484340105"><ele>536.0</ele><time>2026-04-18T07:17:59Z</time></trkpt><trkpt lat="48.123052513334784" lon="11.620629533158102"><ele>536.0</ele><time>2026-04-18T07:18:01Z</time></trkpt><trkpt lat="48.122987670442186" lon="11.620621465561277"><ele>536.6</ele><time>2026-04-18T07:18:02Z</time></trkpt><trkpt lat="48.12292107339696" lon="11.620612720616082"><ele>537.2</ele><time>2026-04-18T07:18:03Z</time></trkpt><trkpt lat="48.12285253808527" lon="11.620604213652053"><ele>537.8</ele><time>2026-04-18T07:18:04Z</time></trkpt><trkpt lat="48.12274161641487" lon="11.620596845898602"><ele>538.4</ele><time>2026-04-18T07:18:06Z</time></trkpt><trkpt lat="48.12259925979725" lon="11.620573679970418"><ele>539.0</ele><time>2026-04-18T07:18:08Z</time></trkpt><trkpt lat="48.12250787998228" lon="11.62055804879047"><ele>539.0</ele><time>2026-04-18T07:18:09Z</time></trkpt><trkpt lat="48.122406409065036" lon="11.62054713188619"><ele>539.0</ele><time>2026-04-18T07:18:10Z</time></trkpt><trkpt lat="48.122316251788924" lon="11.620535431702923"><ele>539.0</ele><time>2026-04-18T07:18:11Z</time></trkpt><trkpt lat="48.1222296870731" lon="11.620520260377189"><ele>539.0</ele><time>2026-04-18T07:18:12Z</time></trkpt><trkpt lat="48.12215034663619" lon="11.620503419789753"><ele>539.0</ele><time>2026-04-18T07:18:13Z</time></trkpt><trkpt lat="48.12207105308452" lon="11.62049041971507"><ele>539.0</ele><time>2026-04-18T07:18:14Z</time></trkpt><trkpt lat="48.121982255275874" lon="11.620470485906097"><ele>538.6</ele><time>2026-04-18T07:18:15Z</time></trkpt><trkpt lat="48.12188170539765" lon="11.6204464667799"><ele>538.2</ele><time>2026-04-18T07:18:16Z</time></trkpt><trkpt lat="48.12176945610211" lon="11.620423600131062"><ele>537.8000000000001</ele><time>2026-04-18T07:18:17Z</time></trkpt><trkpt lat="48.121660633679454" lon="11.620401978671559"><ele>537.4</ele><time>2026-04-18T07:18:18Z</time></trkpt><trkpt lat="48.121566875604046" lon="11.620380063674366"><ele>537.0</ele><time>2026-04-18T07:18:19Z</time></trkpt><trkpt lat="48.12148539791127" lon="11.62036664727434"><ele>536.2</ele><time>2026-04-18T07:18:20Z</time></trkpt><trkpt lat="48.12141650431689" lon="11.620347158234718"><ele>535.4000000000001</ele><time>2026-04-18T07:18:21Z</time></trkpt><trkpt lat="48.12129983675372" lon="11.620321074027125"><ele>534.5999999999999</ele><time>2026-04-18T07:18:23Z</time></trkpt><trkpt lat="48.121195975834496" lon="11.620300282785584"><ele>533.8</ele><time>2026-04-18T07:18:25Z</time></trkpt><trkpt lat="48.12111398782323" lon="11.620279538268345"><ele>533.0</ele><time>2026-04-18T07:18:27Z</time></trkpt><trkpt lat="48.12102485510038" lon="11.620253601974337"><ele>532.8333333333333</ele><time>2026-04-18T07:18:29Z</time></trkpt><trkpt lat="48.120944018947384" lon="11.620232415841162"><ele>532.6666666666666</ele><time>2026-04-18T07:18:31Z</time></trkpt><trkpt lat="48.12087282733004" lon="11.62020631129507"><ele>532.5</ele><time>2026-04-18T07:18:33Z</time></trkpt><trkpt lat="48.12080565932942" lon="11.620192282964352"><ele>532.3333333333334</ele><time>2026-04-18T07:18:35Z</time></trkpt><trkpt lat="48.12073403287419" lon="11.620175271236064"><ele>532.1666666666667</ele><time>2026-04-18T07:18:38Z</time></trkpt><trkpt lat="48.12062938494047" lon="11.620135469316539"><ele>532.0</ele><time>2026-04-18T07:19:10Z</time></trkpt><trkpt lat="48.12055687827374" lon="11.620114634210148"><ele>531.4</ele><time>2026-04-18T07:19:11Z</time></trkpt><trkpt lat="48.12048077291683" lon="11.620086022951856"><ele>530.8000000000001</ele><time>2026-04-18T07:19:12Z</time></trkpt><trkpt lat="48.12039708180661" lon="11.620053033756733"><ele>530.2</ele><time>2026-04-18T07:19:13Z</time></trkpt><trkpt lat="48.12029384423898" lon="11.620007480655822"><ele>529.6</ele><time>2026-04-18T07:19:14Z</time></trkpt><trkpt lat="48.12019447621737" lon="11.619965815608246"><ele>529.0</ele><time>2026-04-18T07:19:15Z</time></trkpt><trkpt lat="48.12010739661202" lon="11.619924876665696"><ele>529.0</ele><time>2026-04-18T07:19:16Z</time></trkpt><trkpt lat="48.12002230733525" lon="11.61987794736763"><ele>529.0</ele><time>2026-04-18T07:19:17Z</time></trkpt><trkpt lat="48.11993172697783" lon="11.619817042169457"><ele>529.0</ele><time>2026-04-18T07:19:18Z</time></trkpt><trkpt lat="48.11983630171675" lon="11.619765408432778"><ele>529.0</ele><time>2026-04-18T07:19:19Z</time></trkpt><trkpt lat="48.1197345075003" lon="11.619706883012135"><ele>529.0</ele><time>2026-04-18T07:19:20Z</time></trkpt><trkpt lat="48.11963037617405" lon="11.619649208640965"><ele>529.8</ele><time>2026-04-18T07:19:21Z</time></trkpt><trkpt lat="48.11953262007769" lon="11.619588997591842"><ele>530.5999999999999</ele><time>2026-04-18T07:19:22Z</time></trkpt><trkpt lat="48.11943827182751" lon="11.619531912494434"><ele>531.4</ele><time>2026-04-18T07:19:23Z</time></trkpt><trkpt lat="48.119337475593944" lon="11.619474388514867"><ele>532.1999999999999</ele><time>2026-04-18T07:19:24Z</time></trkpt><trkpt lat="48.119223798059615" lon="11.619411117783097"><ele>533.0</ele><time>2026-04-18T07:19:25Z</time></trkpt><trkpt lat="48.119100322634836" lon="11.619344850644307"><ele>533.75</ele><time>2026-04-18T07:19:26Z</time></trkpt><trkpt lat="48.11897566075669" lon="11.61927767169182"><ele>534.5</ele><time>2026-04-18T07:19:27Z</time></trkpt><trkpt lat="48.11885933229952" lon="11.619216801960105"><ele>535.25</ele><time>2026-04-18T07:19:28Z</time></trkpt><trkpt lat="48.11875063249857" lon="11.619159892022367"><ele>536.0</ele><time>2026-04-18T07:19:29Z</time></trkpt><trkpt lat="48.11864544825678" lon="11.619102895164795"><ele>536.0</ele><time>2026-04-18T07:19:30Z</time></trkpt><trkpt lat="48.1185386691155" lon="11.619049228053932"><ele>536.0</ele><time>2026-04-18T07:19:31Z</time></trkpt><trkpt lat="48.118431562022735" lon="11.6189966923057"><ele>536.0</ele><time>2026-04-18T07:19:32Z</time></trkpt><trkpt lat="48.11832336218781" lon="11.618945385299954"><ele>536.0</ele><time>2026-04-18T07:19:33Z</time></trkpt><trkpt lat="48.11821570748415" lon="11.618894409027316"><ele>535.2</ele><time>2026-04-18T07:19:34Z</time></trkpt><trkpt lat="48.11811296575072" lon="11.618846045660614"><ele>534.4000000000001</ele><time>2026-04-18T07:19:35Z</time></trkpt><trkpt lat="48.118018046850494" lon="11.61880079870659"><ele>533.6</ele><time>2026-04-18T07:19:36Z</time></trkpt><trkpt lat="48.11792261727528" lon="11.61876338078584"><ele>532.8000000000001</ele><time>2026-04-18T07:19:37Z</time></trkpt><trkpt lat="48.117822199927296" lon="11.61873955043636"><ele>532.0</ele><time>2026-04-18T07:19:38Z</time></trkpt><trkpt lat="48.11772041719161" lon="11.618702032690935"><ele>532.0</ele><time>2026-04-18T07:19:39Z</time></trkpt><trkpt lat="48.11761743444007" lon="11.618655999967684"><ele>532.0</ele><time>2026-04-18T07:19:40Z</time></trkpt><trkpt lat="48.117506981326585" lon="11.618612823750228"><ele>532.0</ele><time>2026-04-18T07:19:41Z</time></trkpt><trkpt lat="48.11739385027979" lon="11.618559602954601"><ele>532.0</ele><time>2026-04-18T07:19:42Z</time></trkpt><trkpt lat="48.11727670143177" lon="11.61850996852434"><ele>531.75</ele><time>2026-04-18T07:19:43Z</time></trkpt><trkpt lat="48.11715529004535" lon="11.618457064521927"><ele>531.5</ele><time>2026-04-18T07:19:44Z</time></trkpt><trkpt lat="48.11703006786751" lon="11.618402748143795"><ele>531.25</ele><time>2026-04-18T07:19:45Z</time></trkpt><trkpt lat="48.11690279820831" lon="11.618346778917362"><ele>531.0</ele><time>2026-04-18T07:19:46Z</time></trkpt><trkpt lat="48.116780726202535" lon="11.618290804033402"><ele>531.0</ele><time>2026-04-18T07:19:47Z</time></trkpt><trkpt lat="48.11666846721779" lon="11.618240271485961"><ele>531.0</ele><time>2026-04-18T07:19:48Z</time></trkpt><trkpt lat="48.11656547544192" lon="11.618202786482092"><ele>531.0</ele><time>2026-04-18T07:19:49Z</time></trkpt><trkpt lat="48.116477432497604" lon="11.618170888717701"><ele>531.0</ele><time>2026-04-18T07:19:50Z</time></trkpt><trkpt lat="48.11640473149904" lon="11.618131808472855"><ele>531.0</ele><time>2026-04-18T07:19:51Z</time></trkpt><trkpt lat="48.1163363524363" lon="11.618100872194654"><ele>531.6666666666666</ele><time>2026-04-18T07:19:52Z</time></trkpt><trkpt lat="48.11623209264303" lon="11.61804914320425"><ele>532.3333333333334</ele><time>2026-04-18T07:19:54Z</time></trkpt><trkpt lat="48.11615236650257" lon="11.618014779129798"><ele>533.0</ele><time>2026-04-18T07:19:56Z</time></trkpt><trkpt lat="48.116091235499745" lon="11.617983774391632"><ele>533.6666666666667</ele><time>2026-04-18T07:19:58Z</time></trkpt><trkpt lat="48.116028402041074" lon="11.61795128907055"><ele>534.3333333333334</ele><time>2026-04-18T07:20:01Z</time></trkpt><trkpt lat="48.11596686760231" lon="11.617924772848518"><ele>535.0</ele><time>2026-04-18T07:20:05Z</time></trkpt><trkpt lat="48.1158778722087" lon="11.61789096760204"><ele>535.0</ele><time>2026-04-18T07:20:09Z</time></trkpt><trkpt lat="48.115775167023926" lon="11.617847467889089"><ele>535.0</ele><time>2026-04-18T07:20:11Z</time></trkpt><trkpt lat="48.11569467252525" lon="11.617817616698805"><ele>535.0</ele><time>2026-04-18T07:20:12Z</time></trkpt><trkpt lat="48.11561683756971" lon="11.617780730859085"><ele>535.0</ele><time>2026-04-18T07:20:13Z</time></trkpt><trkpt lat="48.115522742278884" lon="11.617730923641679"><ele>535.0</ele><time>2026-04-18T07:20:14Z</time></trkpt><trkpt lat="48.11543594485204" lon="11.61768196184591"><ele>534.6</ele><time>2026-04-18T07:20:15Z</time></trkpt><trkpt lat="48.11535141049453" lon="11.617631131152715"><ele>534.2</ele><time>2026-04-18T07:20:16Z</time></trkpt><trkpt lat="48.1152677127749" lon="11.617585944683917"><ele>533.8</ele><time>2026-04-18T07:20:17Z</time></trkpt><trkpt lat="48.1151773295161" lon="11.61754012477547"><ele>533.4</ele><time>2026-04-18T07:20:18Z</time></trkpt><trkpt lat="48.11508074035834" lon="11.617489794563301"><ele>533.0</ele><time>2026-04-18T07:20:19Z</time></trkpt><trkpt lat="48.1149906894386" lon="11.617441914763136"><ele>533.0</ele><time>2026-04-18T07:20:20Z</time></trkpt><trkpt lat="48.114897768499326" lon="11.617392681612902"><ele>533.0</ele><time>2026-04-18T07:20:21Z</time></trkpt><trkpt lat="48.11480395738503" lon="11.617341128482586"><ele>533.0</ele><time>2026-04-18T07:20:22Z</time></trkpt><trkpt lat="48.114705359103425" lon="11.61728582330564"><ele>533.0</ele><time>2026-04-18T07:20:23Z</time></trkpt><trkpt lat="48.114617550000105" lon="11.617236771575445"><ele>533.0</ele><time>2026-04-18T07:20:24Z</time></trkpt><trkpt lat="48.1145283906582" lon="11.617184019927794"><ele>533.0</ele><time>2026-04-18T07:20:25Z</time></trkpt><trkpt lat="48.114428974219955" lon="11.617125875523746"><ele>533.0</ele><time>2026-04-18T07:20:26Z</time></trkpt><trkpt lat="48.114334036551845" lon="11.617066686589116"><ele>533.0</ele><time>2026-04-18T07:20:27Z</time></trkpt><trkpt lat="48.11424915338314" lon="11.617009715295444"><ele>533.0</ele><time>2026-04-18T07:20:28Z</time></trkpt><trkpt lat="48.11415977352717" lon="11.616950515853825"><ele>533.0</ele><time>2026-04-18T07:20:29Z</time></trkpt><trkpt lat="48.11407022589637" lon="11.616888260380074"><ele>533.8</ele><time>2026-04-18T07:20:30Z</time></trkpt><trkpt lat="48.11398170855044" lon="11.616825867057575"><ele>534.5999999999999</ele><time>2026-04-18T07:20:31Z</time></trkpt><trkpt lat="48.113887109384095" lon="11.616752936696098"><ele>535.4000000000001</ele><time>2026-04-18T07:20:32Z</time></trkpt><trkpt lat="48.11378574082942" lon="11.616672444240892"><ele>536.2</ele><time>2026-04-18T07:20:33Z</time></trkpt><trkpt lat="48.113677809948825" lon="11.616587392871178"><ele>537.0</ele><time>2026-04-18T07:20:34Z</time></trkpt><trkpt lat="48.11357933186777" lon="11.616505211081263"><ele>537.0</ele><time>2026-04-18T07:20:35Z</time></trkpt><trkpt lat="48.11348500053448" lon="11.61642480316385"><ele>537.0</ele><time>2026-04-18T07:20:36Z</time></trkpt><trkpt lat="48.11338950697865" lon="11.616341850773917"><ele>537.0</ele><time>2026-04-18T07:20:37Z</time></trkpt><trkpt lat="48.1132962633942" lon="11.616260254469934"><ele>537.0</ele><time>2026-04-18T07:20:38Z</time></trkpt><trkpt lat="48.113204811319534" lon="11.616185730621588"><ele>537.0</ele><time>2026-04-18T07:20:39Z</time></trkpt><trkpt lat="48.11311427814267" lon="11.616122879210637"><ele>536.5</ele><time>2026-04-18T07:20:40Z</time></trkpt><trkpt lat="48.113026530014004" lon="11.616064983175935"><ele>536.0</ele><time>2026-04-18T07:20:41Z</time></trkpt><trkpt lat="48.11294756769838" lon="11.61599710931113"><ele>535.5</ele><time>2026-04-18T07:20:42Z</time></trkpt><trkpt lat="48.11287712398636" lon="11.615930100812937"><ele>535.0</ele><time>2026-04-18T07:20:43Z</time></trkpt><trkpt lat="48.112811741956186" lon="11.615866853232934"><ele>534.5</ele><time>2026-04-18T07:20:44Z</time></trkpt><trkpt lat="48.11275548212928" lon="11.615810257344558"><ele>534.0</ele><time>2026-04-18T07:20:45Z</time></trkpt><trkpt lat="48.11266109664135" lon="11.615712722990525"><ele>534.0</ele><time>2026-04-18T07:20:47Z</time></trkpt><trkpt lat="48.112583767102066" lon="11.615631563528485"><ele>534.0</ele><time>2026-04-18T07:20:49Z</time></trkpt><trkpt lat="48.112526333764215" lon="11.615567420286846"><ele>534.0</ele><time>2026-04-18T07:20:51Z</time></trkpt><trkpt lat="48.11246764881988" lon="11.615496540173101"><ele>534.0</ele><time>2026-04-18T07:20:55Z</time></trkpt><trkpt lat="48.112415930504035" lon="11.615435359189552"><ele>534.0</ele><time>2026-04-18T07:21:15Z</time></trkpt><trkpt lat="48.112336138412616" lon="11.615346405773364"><ele>534.0</ele><time>2026-04-18T07:21:17Z</time></trkpt><trkpt lat="48.112239215791305" lon="11.61523226291914"><ele>534.5</ele><time>2026-04-18T07:21:19Z</time></trkpt><trkpt lat="48.112160278634164" lon="11.615141611269673"><ele>535.0</ele><time>2026-04-18T07:21:21Z</time></trkpt><trkpt lat="48.11209125692551" lon="11.615056293932366"><ele>535.5</ele><time>2026-04-18T07:21:23Z</time></trkpt><trkpt lat="48.11203859880124" lon="11.61498404486426"><ele>536.0</ele><time>2026-04-18T07:21:25Z</time></trkpt><trkpt lat="48.11197951538006" lon="11.614906587483757"><ele>536.5</ele><time>2026-04-18T07:21:28Z</time></trkpt><trkpt lat="48.11190069300004" lon="11.614797063213713"><ele>537.0</ele><time>2026-04-18T07:22:13Z</time></trkpt><trkpt lat="48.11185381474802" lon="11.61473044282007"><ele>537.0</ele><time>2026-04-18T07:22:14Z</time></trkpt><trkpt lat="48.11175724958667" lon="11.614605670312407"><ele>537.0</ele><time>2026-04-18T07:22:16Z</time></trkpt><trkpt lat="48.11170673571154" lon="11.614540455058506"><ele>537.0</ele><time>2026-04-18T07:22:17Z</time></trkpt><trkpt lat="48.11162726677297" lon="11.614435519027172"><ele>537.0</ele><time>2026-04-18T07:22:19Z</time></trkpt><trkpt lat="48.11153703233541" lon="11.614371087281427"><ele>537.0</ele><time>2026-04-18T07:22:21Z</time></trkpt><trkpt lat="48.11143757433719" lon="11.614463407242912"><ele>537.0</ele><time>2026-04-18T07:22:23Z</time></trkpt><trkpt lat="48.111353739381656" lon="11.614446464006521"><ele>537.0</ele><time>2026-04-18T07:22:24Z</time></trkpt><trkpt lat="48.11127426981843" lon="11.614532171177999"><ele>537.0</ele><time>2026-04-18T07:22:25Z</time></trkpt><trkpt lat="48.111176160576974" lon="11.614609700167893"><ele>537.0</ele><time>2026-04-18T07:22:26Z</time></trkpt><trkpt lat="48.11107598861778" lon="11.614682734180633"><ele>537.0</ele><time>2026-04-18T07:22:27Z</time></trkpt><trkpt lat="48.11096228186686" lon="11.614764161319668"><ele>537.0</ele><time>2026-04-18T07:22:28Z</time></trkpt><trkpt lat="48.11083445594676" lon="11.614846723321541"><ele>537.0</ele><time>2026-04-18T07:22:29Z</time></trkpt><trkpt lat="48.11069953184981" lon="11.614911819502673"><ele>537.0</ele><time>2026-04-18T07:22:30Z</time></trkpt><trkpt lat="48.110557005852655" lon="11.614956522926214"><ele>537.0</ele><time>2026-04-18T07:22:31Z</time></trkpt><trkpt lat="48.11040923688263" lon="11.614978592373253"><ele>537.3333333333334</ele><time>2026-04-18T07:22:32Z</time></trkpt><trkpt lat="48.11024788907164" lon="11.614981158712471"><ele>537.6666666666667</ele><time>2026-04-18T07:22:33Z</time></trkpt><trkpt lat="48.11007515938463" lon="11.614959837884859"><ele>538.0</ele><time>2026-04-18T07:22:34Z</time></trkpt><trkpt lat="48.109901606585545" lon="11.6149257017069"><ele>538.0</ele><time>2026-04-18T07:22:35Z</time></trkpt><trkpt lat="48.10972668954436" lon="11.614877664307041"><ele>538.0</ele><time>2026-04-18T07:22:36Z</time></trkpt><trkpt lat="48.109547657139494" lon="11.614838935424903"><ele>538.0</ele><time>2026-04-18T07:22:37Z</time></trkpt><trkpt lat="48.109372843824865" lon="11.614801059624092"><ele>538.0</ele><time>2026-04-18T07:22:38Z</time></trkpt><trkpt lat="48.10919909301459" lon="11.614758689573625"><ele>538.0</ele><time>2026-04-18T07:22:39Z</time></trkpt><trkpt lat="48.10902765051827" lon="11.614714959621992"><ele>538.0</ele><time>2026-04-18T07:22:40Z</time></trkpt><trkpt lat="48.108872008683626" lon="11.614675295856799"><ele>538.0</ele><time>2026-04-18T07:22:41Z</time></trkpt><trkpt lat="48.10871918418809" lon="11.61463835743385"><ele>538.0</ele><time>2026-04-18T07:22:42Z</time></trkpt><trkpt lat="48.10856123564963" lon="11.614603132554299"><ele>538.0</ele><time>2026-04-18T07:22:43Z</time></trkpt><trkpt lat="48.10838491789504" lon="11.614563291903199"><ele>537.3333333333334</ele><time>2026-04-18T07:22:44Z</time></trkpt><trkpt lat="48.10819685476804" lon="11.614516240023661"><ele>536.6666666666666</ele><time>2026-04-18T07:22:45Z</time></trkpt><trkpt lat="48.107998368772336" lon="11.61446460289961"><ele>536.0</ele><time>2026-04-18T07:22:46Z</time></trkpt><trkpt lat="48.10779311856907" lon="11.614415440175932"><ele>536.0</ele><time>2026-04-18T07:22:47Z</time></trkpt><trkpt lat="48.10758115950985" lon="11.614365982467593"><ele>536.0</ele><time>2026-04-18T07:22:48Z</time></trkpt><trkpt lat="48.107363431632145" lon="11.61431503792301"><ele>536.0</ele><time>2026-04-18T07:22:49Z</time></trkpt><trkpt lat="48.10713987338519" lon="11.614260859775316"><ele>537.0</ele><time>2026-04-18T07:22:50Z</time></trkpt><trkpt lat="48.10691234542049" lon="11.614205588329126"><ele>538.0</ele><time>2026-04-18T07:22:51Z</time></trkpt><trkpt lat="48.106680857159596" lon="11.61414998857348"><ele>539.0</ele><time>2026-04-18T07:22:52Z</time></trkpt><trkpt lat="48.106444497185564" lon="11.614094309811577"><ele>540.0</ele><time>2026-04-18T07:22:53Z</time></trkpt><trkpt lat="48.10620402274233" lon="11.61403812579008"><ele>540.0</ele><time>2026-04-18T07:22:54Z</time></trkpt><trkpt lat="48.10596252755067" lon="11.613982012846554"><ele>540.0</ele><time>2026-04-18T07:22:55Z</time></trkpt><trkpt lat="48.10572282578471" lon="11.61392383221547"><ele>538.5</ele><time>2026-04-18T07:22:56Z</time></trkpt><trkpt lat="48.10548642545792" lon="11.613865966540008"><ele>537.0</ele><time>2026-04-18T07:22:57Z</time></trkpt><trkpt lat="48.10525722163032" lon="11.613805723899036"><ele>537.0</ele><time>2026-04-18T07:22:58Z</time></trkpt><trkpt lat="48.10502512879349" lon="11.613745083654763"><ele>537.0</ele><time>2026-04-18T07:22:59Z</time></trkpt><trkpt lat="48.10480391072971" lon="11.61369944371998"><ele>539.0</ele><time>2026-04-18T07:23:00Z</time></trkpt><trkpt lat="48.10458317571233" lon="11.613649755656084"><ele>541.0</ele><time>2026-04-18T07:23:01Z</time></trkpt><trkpt lat="48.10435913203037" lon="11.613598104056484"><ele>541.0</ele><time>2026-04-18T07:23:02Z</time></trkpt><trkpt lat="48.104131832854584" lon="11.613552671821676"><ele>541.0</ele><time>2026-04-18T07:23:03Z</time></trkpt><trkpt lat="48.10390076070178" lon="11.613513676433032"><ele>540.0</ele><time>2026-04-18T07:23:04Z</time></trkpt><trkpt lat="48.10366523755841" lon="11.613478746256815"><ele>539.0</ele><time>2026-04-18T07:23:05Z</time></trkpt><trkpt lat="48.103425839819664" lon="11.613445299932161"><ele>538.5</ele><time>2026-04-18T07:23:06Z</time></trkpt><trkpt lat="48.103183532130394" lon="11.613413450051125"><ele>538.0</ele><time>2026-04-18T07:23:07Z</time></trkpt><trkpt lat="48.10293961270933" lon="11.613387234005511"><ele>538.0</ele><time>2026-04-18T07:23:08Z</time></trkpt><trkpt lat="48.10269533465894" lon="11.613366221140842"><ele>538.0</ele><time>2026-04-18T07:23:09Z</time></trkpt><trkpt lat="48.10246108737048" lon="11.61335220709073"><ele>540.0</ele><time>2026-04-18T07:23:10Z</time></trkpt><trkpt lat="48.10223268095186" lon="11.613339637224936"><ele>542.0</ele><time>2026-04-18T07:23:11Z</time></trkpt><trkpt lat="48.10200575129515" lon="11.61333160332157"><ele>542.0</ele><time>2026-04-18T07:23:12Z</time></trkpt><trkpt lat="48.101782647424855" lon="11.613330365238891"><ele>542.0</ele><time>2026-04-18T07:23:13Z</time></trkpt><trkpt lat="48.101563811985756" lon="11.613336143952024"><ele>542.0</ele><time>2026-04-18T07:23:14Z</time></trkpt><trkpt lat="48.10134608346745" lon="11.613345943378537"><ele>542.0</ele><time>2026-04-18T07:23:15Z</time></trkpt><trkpt lat="48.1011289944857" lon="11.613359262918587"><ele>542.0</ele><time>2026-04-18T07:23:16Z</time></trkpt><trkpt lat="48.100914521686285" lon="11.613372790165908"><ele>542.0</ele><time>2026-04-18T07:23:17Z</time></trkpt><trkpt lat="48.10070156381743" lon="11.613388536226035"><ele>542.0</ele><time>2026-04-18T07:23:18Z</time></trkpt><trkpt lat="48.10049659020752" lon="11.613407729770179"><ele>542.0</ele><time>2026-04-18T07:23:19Z</time></trkpt><trkpt lat="48.100295470487055" lon="11.613429974947689"><ele>542.0</ele><time>2026-04-18T07:23:20Z</time></trkpt><trkpt lat="48.100093425901726" lon="11.613453722836441"><ele>541.6666666666666</ele><time>2026-04-18T07:23:21Z</time></trkpt><trkpt lat="48.09988119991501" lon="11.613480213079095"><ele>541.3333333333334</ele><time>2026-04-18T07:23:22Z</time></trkpt><trkpt lat="48.09968023537251" lon="11.61351845763162"><ele>541.0</ele><time>2026-04-18T07:23:23Z</time></trkpt><trkpt lat="48.09948157774188" lon="11.61356347774922"><ele>541.0</ele><time>2026-04-18T07:23:24Z</time></trkpt><trkpt lat="48.09927789062231" lon="11.613609313289329"><ele>541.0</ele><time>2026-04-18T07:23:25Z</time></trkpt><trkpt lat="48.09906960704058" lon="11.61365771718832"><ele>541.0</ele><time>2026-04-18T07:23:26Z</time></trkpt><trkpt lat="48.09885882375548" lon="11.613706740394829"><ele>540.6666666666667</ele><time>2026-04-18T07:23:27Z</time></trkpt><trkpt lat="48.098639363061174" lon="11.613751627311824"><ele>540.3333333333334</ele><time>2026-04-18T07:23:28Z</time></trkpt><trkpt lat="48.09841602706066" lon="11.613806462238257"><ele>540.0</ele><time>2026-04-18T07:23:29Z</time></trkpt><trkpt lat="48.09819552474244" lon="11.613861613130283"><ele>540.6666666666666</ele><time>2026-04-18T07:23:30Z</time></trkpt><trkpt lat="48.0979732376302" lon="11.613917864364385"><ele>541.3333333333333</ele><time>2026-04-18T07:23:31Z</time></trkpt><trkpt lat="48.097754799531536" lon="11.613973688648537"><ele>542.0</ele><time>2026-04-18T07:23:32Z</time></trkpt><trkpt lat="48.09753655693784" lon="11.61403152120642"><ele>541.6666666666666</ele><time>2026-04-18T07:23:33Z</time></trkpt><trkpt lat="48.09731886103468" lon="11.614090064455352"><ele>541.3333333333334</ele><time>2026-04-18T07:23:34Z</time></trkpt><trkpt lat="48.09710344253881" lon="11.614150676047407"><ele>541.0</ele><time>2026-04-18T07:23:35Z</time></trkpt><trkpt lat="48.09688839793345" lon="11.614213275222482"><ele>541.0</ele><time>2026-04-18T07:23:36Z</time></trkpt><trkpt lat="48.09668273523334" lon="11.61427454865271"><ele>541.0</ele><time>2026-04-18T07:23:37Z</time></trkpt><trkpt lat="48.096483076470506" lon="11.614334173316898"><ele>541.0</ele><time>2026-04-18T07:23:38Z</time></trkpt><trkpt lat="48.09629651271621" lon="11.614385520236228"><ele>540.6666666666667</ele><time>2026-04-18T07:23:39Z</time></trkpt><trkpt lat="48.09611711788504" lon="11.614435367073447"><ele>540.3333333333334</ele><time>2026-04-18T07:23:40Z</time></trkpt><trkpt lat="48.095929958000454" lon="11.614496428841806"><ele>540.0</ele><time>2026-04-18T07:23:41Z</time></trkpt><trkpt lat="48.0957361467744" lon="11.6145634439612"><ele>540.6666666666666</ele><time>2026-04-18T07:23:42Z</time></trkpt><trkpt lat="48.09553756259936" lon="11.614621192659804"><ele>541.3333333333333</ele><time>2026-04-18T07:23:43Z</time></trkpt><trkpt lat="48.095334139898554" lon="11.614674283567302"><ele>542.0</ele><time>2026-04-18T07:23:44Z</time></trkpt><trkpt lat="48.09512645785526" lon="11.61472839048077"><ele>542.3333333333333</ele><time>2026-04-18T07:23:45Z</time></trkpt><trkpt lat="48.094916021778516" lon="11.614784046733297"><ele>542.6666666666666</ele><time>2026-04-18T07:23:46Z</time></trkpt><trkpt lat="48.09470699150493" lon="11.614839907156778"><ele>543.0</ele><time>2026-04-18T07:23:47Z</time></trkpt><trkpt lat="48.09449543554923" lon="11.614894277983534"><ele>543.0</ele><time>2026-04-18T07:23:48Z</time></trkpt><trkpt lat="48.09427827437577" lon="11.614949336580315"><ele>543.0</ele><time>2026-04-18T07:23:49Z</time></trkpt><trkpt lat="48.094057634967896" lon="11.615007675517806"><ele>543.0</ele><time>2026-04-18T07:23:50Z</time></trkpt><trkpt lat="48.0938334564053" lon="11.615065444634148"><ele>541.0</ele><time>2026-04-18T07:23:51Z</time></trkpt><trkpt lat="48.0936084871406" lon="11.615117430784876"><ele>539.0</ele><time>2026-04-18T07:23:52Z</time></trkpt><trkpt lat="48.09338004539251" lon="11.61518313055118"><ele>541.0</ele><time>2026-04-18T07:23:53Z</time></trkpt><trkpt lat="48.093150729238054" lon="11.61524508922915"><ele>543.0</ele><time>2026-04-18T07:23:54Z</time></trkpt><trkpt lat="48.09292629633551" lon="11.61530286529395"><ele>542.6666666666666</ele><time>2026-04-18T07:23:55Z</time></trkpt><trkpt lat="48.092704755853134" lon="11.615357047767832"><ele>542.3333333333333</ele><time>2026-04-18T07:23:56Z</time></trkpt><trkpt lat="48.092488771590126" lon="11.615409841334758"><ele>542.0</ele><time>2026-04-18T07:23:57Z</time></trkpt><trkpt lat="48.09227528790959" lon="11.615465221293992"><ele>543.0</ele><time>2026-04-18T07:23:58Z</time></trkpt><trkpt lat="48.09206347831407" lon="11.615516991207247"><ele>544.0</ele><time>2026-04-18T07:23:59Z</time></trkpt><trkpt lat="48.09185406196385" lon="11.615573430990123"><ele>545.0</ele><time>2026-04-18T07:24:00Z</time></trkpt><trkpt lat="48.09164857115455" lon="11.615631471039832"><ele>544.6666666666666</ele><time>2026-04-18T07:24:01Z</time></trkpt><trkpt lat="48.09144605051137" lon="11.615685699318245"><ele>544.3333333333334</ele><time>2026-04-18T07:24:02Z</time></trkpt><trkpt lat="48.09124800146757" lon="11.615736388762008"><ele>544.0</ele><time>2026-04-18T07:24:03Z</time></trkpt><trkpt lat="48.09104950868663" lon="11.615787836342582"><ele>544.0</ele><time>2026-04-18T07:24:04Z</time></trkpt><trkpt lat="48.0908528536502" lon="11.615838931081798"><ele>544.0</ele><time>2026-04-18T07:24:05Z</time></trkpt><trkpt lat="48.09065062732064" lon="11.615891971686668"><ele>544.0</ele><time>2026-04-18T07:24:06Z</time></trkpt><trkpt lat="48.09044297061258" lon="11.615945766561742"><ele>544.3333333333334</ele><time>2026-04-18T07:24:07Z</time></trkpt><trkpt lat="48.090231900638905" lon="11.6159989938511"><ele>544.6666666666666</ele><time>2026-04-18T07:24:08Z</time></trkpt><trkpt lat="48.0900195078729" lon="11.6160542069989"><ele>545.0</ele><time>2026-04-18T07:24:09Z</time></trkpt><trkpt lat="48.08980864347705" lon="11.616112432803062"><ele>545.0</ele><time>2026-04-18T07:24:10Z</time></trkpt><trkpt lat="48.08959150916945" lon="11.61616193159391"><ele>545.0</ele><time>2026-04-18T07:24:11Z</time></trkpt><trkpt lat="48.08937904044053" lon="11.616206274853598"><ele>545.0</ele><time>2026-04-18T07:24:12Z</time></trkpt><trkpt lat="48.089168060026736" lon="11.616256423091082"><ele>545.0</ele><time>2026-04-18T07:24:13Z</time></trkpt><trkpt lat="48.08895885083307" lon="11.616310355533303"><ele>545.0</ele><time>2026-04-18T07:24:14Z</time></trkpt><trkpt lat="48.08874565412265" lon="11.61636656482998"><ele>545.0</ele><time>2026-04-18T07:24:15Z</time></trkpt><trkpt lat="48.08852782848288" lon="11.616414998245201"><ele>545.0</ele><time>2026-04-18T07:24:16Z</time></trkpt><trkpt lat="48.08830893300116" lon="11.616472039928132"><ele>545.0</ele><time>2026-04-18T07:24:17Z</time></trkpt><trkpt lat="48.088088422892795" lon="11.616529693192113"><ele>545.0</ele><time>2026-04-18T07:24:18Z</time></trkpt><trkpt lat="48.0878578874159" lon="11.616588814298112"><ele>545.5</ele><time>2026-04-18T07:24:19Z</time></trkpt><trkpt lat="48.087623924659376" lon="11.616651909565816"><ele>546.0</ele><time>2026-04-18T07:24:20Z</time></trkpt><trkpt lat="48.08738951038106" lon="11.616715003560202"><ele>543.5</ele><time>2026-04-18T07:24:21Z</time></trkpt><trkpt lat="48.08715466296454" lon="11.61677600631495"><ele>541.0</ele><time>2026-04-18T07:24:22Z</time></trkpt><trkpt lat="48.08693290723772" lon="11.616831763504353"><ele>541.0</ele><time>2026-04-18T07:24:23Z</time></trkpt><trkpt lat="48.08672107624781" lon="11.616882450110428"><ele>541.0</ele><time>2026-04-18T07:24:24Z</time></trkpt><trkpt lat="48.08651111430116" lon="11.616933287374108"><ele>541.0</ele><time>2026-04-18T07:24:25Z</time></trkpt><trkpt lat="48.08630250199836" lon="11.616980760904283"><ele>542.0</ele><time>2026-04-18T07:24:26Z</time></trkpt><trkpt lat="48.08609214943319" lon="11.617033780632703"><ele>543.0</ele><time>2026-04-18T07:24:27Z</time></trkpt><trkpt lat="48.08587695397373" lon="11.617088281283854"><ele>544.0</ele><time>2026-04-18T07:24:28Z</time></trkpt><trkpt lat="48.08565503536377" lon="11.617145042319358"><ele>545.0</ele><time>2026-04-18T07:24:29Z</time></trkpt><trkpt lat="48.085430089512954" lon="11.617204684725577"><ele>546.0</ele><time>2026-04-18T07:24:30Z</time></trkpt><trkpt lat="48.08520264118757" lon="11.61726468858212"><ele>546.0</ele><time>2026-04-18T07:24:31Z</time></trkpt><trkpt lat="48.08497401542707" lon="11.617322939443214"><ele>546.0</ele><time>2026-04-18T07:24:32Z</time></trkpt><trkpt lat="48.08474619357527" lon="11.61738118605458"><ele>545.5</ele><time>2026-04-18T07:24:33Z</time></trkpt><trkpt lat="48.08452218692578" lon="11.617438473021354"><ele>545.0</ele><time>2026-04-18T07:24:34Z</time></trkpt><trkpt lat="48.08430143913268" lon="11.61749637266566"><ele>545.0</ele><time>2026-04-18T07:24:35Z</time></trkpt><trkpt lat="48.08408282213784" lon="11.617557116053206"><ele>545.0</ele><time>2026-04-18T07:24:36Z</time></trkpt><trkpt lat="48.08386102117548" lon="11.617621746896317"><ele>545.0</ele><time>2026-04-18T07:24:37Z</time></trkpt><trkpt lat="48.083638133974404" lon="11.617689456383923"><ele>545.0</ele><time>2026-04-18T07:24:38Z</time></trkpt><trkpt lat="48.08341620713316" lon="11.617766944942653"><ele>545.0</ele><time>2026-04-18T07:24:39Z</time></trkpt><trkpt lat="48.083193206825754" lon="11.617852323634947"><ele>545.5</ele><time>2026-04-18T07:24:40Z</time></trkpt><trkpt lat="48.08296830972629" lon="11.617939473638039"><ele>546.0</ele><time>2026-04-18T07:24:41Z</time></trkpt><trkpt lat="48.0827391912843" lon="11.618031938486643"><ele>546.0</ele><time>2026-04-18T07:24:42Z</time></trkpt><trkpt lat="48.082511264308835" lon="11.618125467244456"><ele>546.0</ele><time>2026-04-18T07:24:43Z</time></trkpt><trkpt lat="48.08229175957305" lon="11.61821950005634"><ele>546.6666666666666</ele><time>2026-04-18T07:24:44Z</time></trkpt><trkpt lat="48.08207883227209" lon="11.618316434265425"><ele>547.3333333333333</ele><time>2026-04-18T07:24:45Z</time></trkpt><trkpt lat="48.081863673311354" lon="11.618419893599494"><ele>548.0</ele><time>2026-04-18T07:24:46Z</time></trkpt><trkpt lat="48.081644141241895" lon="11.61853415929558"><ele>547.5</ele><time>2026-04-18T07:24:47Z</time></trkpt><trkpt lat="48.081425885796605" lon="11.618654515374127"><ele>547.0</ele><time>2026-04-18T07:24:48Z</time></trkpt><trkpt lat="48.081207746506394" lon="11.618777265160286"><ele>547.0</ele><time>2026-04-18T07:24:49Z</time></trkpt><trkpt lat="48.08098932488659" lon="11.618903449287938"><ele>547.0</ele><time>2026-04-18T07:24:50Z</time></trkpt><trkpt lat="48.08077488132316" lon="11.6190349924007"><ele>547.0</ele><time>2026-04-18T07:24:51Z</time></trkpt><trkpt lat="48.08055658370772" lon="11.619174462135522"><ele>547.0</ele><time>2026-04-18T07:24:52Z</time></trkpt><trkpt lat="48.08034272923368" lon="11.619313236488226"><ele>547.0</ele><time>2026-04-18T07:24:53Z</time></trkpt><trkpt lat="48.080121395031185" lon="11.619458721577628"><ele>547.0</ele><time>2026-04-18T07:24:54Z</time></trkpt><trkpt lat="48.07988690370309" lon="11.619616339924285"><ele>547.0</ele><time>2026-04-18T07:24:55Z</time></trkpt><trkpt lat="48.07964308388398" lon="11.619790167884627"><ele>547.0</ele><time>2026-04-18T07:24:56Z</time></trkpt><trkpt lat="48.07940687718459" lon="11.619961386255069"><ele>547.0</ele><time>2026-04-18T07:24:57Z</time></trkpt><trkpt lat="48.07918224068638" lon="11.620138368123147"><ele>547.0</ele><time>2026-04-18T07:24:58Z</time></trkpt><trkpt lat="48.07895614881812" lon="11.620319798012513"><ele>546.0</ele><time>2026-04-18T07:24:59Z</time></trkpt><trkpt lat="48.078727567489906" lon="11.620509124631868"><ele>545.0</ele><time>2026-04-18T07:25:00Z</time></trkpt><trkpt lat="48.078498918072654" lon="11.620709674922873"><ele>545.0</ele><time>2026-04-18T07:25:01Z</time></trkpt><trkpt lat="48.07827141295236" lon="11.620916182547699"><ele>545.0</ele><time>2026-04-18T07:25:02Z</time></trkpt><trkpt lat="48.078044249761355" lon="11.62112004222497"><ele>547.5</ele><time>2026-04-18T07:25:03Z</time></trkpt><trkpt lat="48.07782022591323" lon="11.621319893792144"><ele>550.0</ele><time>2026-04-18T07:25:04Z</time></trkpt><trkpt lat="48.077599984169844" lon="11.621525169326025"><ele>550.0</ele><time>2026-04-18T07:25:05Z</time></trkpt><trkpt lat="48.07739426740358" lon="11.621729843527628"><ele>550.0</ele><time>2026-04-18T07:25:06Z</time></trkpt><trkpt lat="48.07719441271741" lon="11.621926111100368"><ele>550.5</ele><time>2026-04-18T07:25:07Z</time></trkpt><trkpt lat="48.07699445149391" lon="11.622120381108335"><ele>551.0</ele><time>2026-04-18T07:25:08Z</time></trkpt><trkpt lat="48.07679251456198" lon="11.622312492134279"><ele>550.5</ele><time>2026-04-18T07:25:09Z</time></trkpt><trkpt lat="48.07659198472137" lon="11.622503953038587"><ele>550.0</ele><time>2026-04-18T07:25:10Z</time></trkpt><trkpt lat="48.076386632357824" lon="11.62269861292783"><ele>549.5</ele><time>2026-04-18T07:25:11Z</time></trkpt><trkpt lat="48.07617948233414" lon="11.622895684712041"><ele>549.0</ele><time>2026-04-18T07:25:12Z</time></trkpt><trkpt lat="48.075975168746346" lon="11.623096092554125"><ele>548.5</ele><time>2026-04-18T07:25:13Z</time></trkpt><trkpt lat="48.07576847669341" lon="11.623288158129002"><ele>548.0</ele><time>2026-04-18T07:25:14Z</time></trkpt><trkpt lat="48.07556087441588" lon="11.623487169744239"><ele>549.0</ele><time>2026-04-18T07:25:15Z</time></trkpt><trkpt lat="48.07535201115727" lon="11.623685428907672"><ele>550.0</ele><time>2026-04-18T07:25:16Z</time></trkpt><trkpt lat="48.075145685336786" lon="11.623884859226298"><ele>550.0</ele><time>2026-04-18T07:25:17Z</time></trkpt><trkpt lat="48.07494640182818" lon="11.624079186668775"><ele>550.0</ele><time>2026-04-18T07:25:18Z</time></trkpt><trkpt lat="48.07475157026122" lon="11.624264933717704"><ele>550.0</ele><time>2026-04-18T07:25:19Z</time></trkpt><trkpt lat="48.07456505003255" lon="11.62444439351206"><ele>550.0</ele><time>2026-04-18T07:25:20Z</time></trkpt><trkpt lat="48.0743798333236" lon="11.624622642921201"><ele>550.0</ele><time>2026-04-18T07:25:21Z</time></trkpt><trkpt lat="48.074203239571034" lon="11.624793791818199"><ele>550.0</ele><time>2026-04-18T07:25:22Z</time></trkpt><trkpt lat="48.074033843548655" lon="11.624955439125879"><ele>550.0</ele><time>2026-04-18T07:25:23Z</time></trkpt><trkpt lat="48.07386602834188" lon="11.625114204777985"><ele>550.0</ele><time>2026-04-18T07:25:24Z</time></trkpt><trkpt lat="48.0737027988415" lon="11.625269816220843"><ele>550.0</ele><time>2026-04-18T07:25:25Z</time></trkpt><trkpt lat="48.07354349590557" lon="11.625423542377948"><ele>550.0</ele><time>2026-04-18T07:25:26Z</time></trkpt><trkpt lat="48.07338596851734" lon="11.625577510102934"><ele>550.0</ele><time>2026-04-18T07:25:27Z</time></trkpt><trkpt lat="48.07322611048528" lon="11.625730950266176"><ele>550.0</ele><time>2026-04-18T07:25:28Z</time></trkpt><trkpt lat="48.07306593749072" lon="11.62588425482989"><ele>550.0</ele><time>2026-04-18T07:25:29Z</time></trkpt><trkpt lat="48.07290722243526" lon="11.626036212275507"><ele>550.0</ele><time>2026-04-18T07:25:30Z</time></trkpt><trkpt lat="48.072749140705845" lon="11.62619183465891"><ele>549.3333333333334</ele><time>2026-04-18T07:25:31Z</time></trkpt><trkpt lat="48.07259092666483" lon="11.626352818786712"><ele>548.6666666666666</ele><time>2026-04-18T07:25:32Z</time></trkpt><trkpt lat="48.07243162604896" lon="11.62651591246927"><ele>548.0</ele><time>2026-04-18T07:25:33Z</time></trkpt><trkpt lat="48.072257615123924" lon="11.626684238965979"><ele>547.6666666666666</ele><time>2026-04-18T07:25:34Z</time></trkpt><trkpt lat="48.07208280576485" lon="11.626852932071841"><ele>547.3333333333334</ele><time>2026-04-18T07:25:35Z</time></trkpt><trkpt lat="48.07189860035415" lon="11.627034773017193"><ele>547.0</ele><time>2026-04-18T07:25:36Z</time></trkpt><trkpt lat="48.0717047380061" lon="11.627227129024257"><ele>547.5</ele><time>2026-04-18T07:25:37Z</time></trkpt><trkpt lat="48.07151228114509" lon="11.627415210717098"><ele>548.0</ele><time>2026-04-18T07:25:38Z</time></trkpt><trkpt lat="48.07132435503075" lon="11.627604933663866"><ele>548.0</ele><time>2026-04-18T07:25:39.057Z</time></trkpt><trkpt lat="48.07115541021705" lon="11.627779060051063"><ele>548.0</ele><time>2026-04-18T07:25:40.047Z</time></trkpt><trkpt lat="48.07099021718751" lon="11.62794864775293"><ele>548.0</ele><time>2026-04-18T07:25:41.045Z</time></trkpt><trkpt lat="48.070828700656115" lon="11.628113975640497"><ele>550.0</ele><time>2026-04-18T07:25:42.045Z</time></trkpt><trkpt lat="48.06985858611409" lon="11.628924779793707"><ele>550.0</ele><time>2026-04-18T07:25:49Z</time></trkpt><trkpt lat="48.0697151716849" lon="11.629044348824289"><ele>550.0</ele><time>2026-04-18T07:25:50Z</time></trkpt><trkpt lat="48.069555555816315" lon="11.629272098900325"><ele>550.0</ele><time>2026-04-18T07:25:51Z</time></trkpt><trkpt lat="48.06936802686192" lon="11.62944487109083"><ele>550.0</ele><time>2026-04-18T07:25:52Z</time></trkpt><trkpt lat="48.069203573625025" lon="11.629627569037458"><ele>550.0</ele><time>2026-04-18T07:25:53Z</time></trkpt><trkpt lat="48.069022646144006" lon="11.629796628655775"><ele>550.0</ele><time>2026-04-18T07:25:54Z</time></trkpt><trkpt lat="48.06884842037893" lon="11.629977370257196"><ele>551.5</ele><time>2026-04-18T07:25:55Z</time></trkpt><trkpt lat="48.068667425163014" lon="11.63016622013466"><ele>553.0</ele><time>2026-04-18T07:25:56Z</time></trkpt><trkpt lat="48.068458215752386" lon="11.630387939883818"><ele>556.0</ele><time>2026-04-18T07:25:57Z</time></trkpt><trkpt lat="48.068228487628986" lon="11.63058956548806"><ele>559.0</ele><time>2026-04-18T07:25:58Z</time></trkpt><trkpt lat="48.06796294837447" lon="11.630823018949469"><ele>559.0</ele><time>2026-04-18T07:25:59Z</time></trkpt><trkpt lat="48.067702179308796" lon="11.63105073077378"><ele>559.0</ele><time>2026-04-18T07:26:00Z</time></trkpt><trkpt lat="48.06746893844991" lon="11.631283564608085"><ele>557.5</ele><time>2026-04-18T07:26:01Z</time></trkpt><trkpt lat="48.06723609524553" lon="11.631516269956418"><ele>556.0</ele><time>2026-04-18T07:26:02Z</time></trkpt><trkpt lat="48.067004201268915" lon="11.631741116555173"><ele>556.0</ele><time>2026-04-18T07:26:03Z</time></trkpt><trkpt lat="48.066778548964" lon="11.631966063031596"><ele>556.0</ele><time>2026-04-18T07:26:04Z</time></trkpt><trkpt lat="48.066551300951254" lon="11.632183206035972"><ele>555.0</ele><time>2026-04-18T07:26:05Z</time></trkpt><trkpt lat="48.06632404779336" lon="11.632402547932475"><ele>554.0</ele><time>2026-04-18T07:26:06Z</time></trkpt><trkpt lat="48.06610132918791" lon="11.632618626282355"><ele>554.0</ele><time>2026-04-18T07:26:07Z</time></trkpt><trkpt lat="48.065881770205976" lon="11.632832280203623"><ele>554.0</ele><time>2026-04-18T07:26:08Z</time></trkpt><trkpt lat="48.06566384722961" lon="11.63303878009644"><ele>553.5</ele><time>2026-04-18T07:26:09Z</time></trkpt><trkpt lat="48.06545033322375" lon="11.633242423616988"><ele>553.0</ele><time>2026-04-18T07:26:10Z</time></trkpt><trkpt lat="48.06524091194215" lon="11.633443890070716"><ele>553.5</ele><time>2026-04-18T07:26:11Z</time></trkpt><trkpt lat="48.06503671341603" lon="11.633643794744367"><ele>554.0</ele><time>2026-04-18T07:26:12Z</time></trkpt><trkpt lat="48.06483370640971" lon="11.633841918230742"><ele>554.0</ele><time>2026-04-18T07:26:13Z</time></trkpt><trkpt lat="48.06463093100374" lon="11.634027075197261"><ele>554.0</ele><time>2026-04-18T07:26:14Z</time></trkpt><trkpt lat="48.064427097329386" lon="11.634233260618823"><ele>554.0</ele><time>2026-04-18T07:26:15Z</time></trkpt><trkpt lat="48.06422066945223" lon="11.634433864270825"><ele>554.0</ele><time>2026-04-18T07:26:16Z</time></trkpt><trkpt lat="48.064011157298815" lon="11.634634968789713"><ele>555.0</ele><time>2026-04-18T07:26:17Z</time></trkpt><trkpt lat="48.06379867714909" lon="11.634838697558935"><ele>556.0</ele><time>2026-04-18T07:26:18Z</time></trkpt><trkpt lat="48.06358467478527" lon="11.635044550275463"><ele>556.0</ele><time>2026-04-18T07:26:19Z</time></trkpt><trkpt lat="48.06336787686085" lon="11.635250910749422"><ele>556.0</ele><time>2026-04-18T07:26:20Z</time></trkpt><trkpt lat="48.063151242988475" lon="11.635459106280024"><ele>555.5</ele><time>2026-04-18T07:26:21Z</time></trkpt><trkpt lat="48.062934568357875" lon="11.635668812483472"><ele>555.0</ele><time>2026-04-18T07:26:22Z</time></trkpt><trkpt lat="48.062718762925265" lon="11.63587504392251"><ele>555.0</ele><time>2026-04-18T07:26:23Z</time></trkpt><trkpt lat="48.06250404006737" lon="11.636079626029149"><ele>555.0</ele><time>2026-04-18T07:26:24Z</time></trkpt><trkpt lat="48.06229170770953" lon="11.636283434117836"><ele>555.0</ele><time>2026-04-18T07:26:25Z</time></trkpt><trkpt lat="48.06208158567033" lon="11.636489005448508"><ele>555.0</ele><time>2026-04-18T07:26:26Z</time></trkpt><trkpt lat="48.06187454783339" lon="11.636690688447526"><ele>555.0</ele><time>2026-04-18T07:26:27Z</time></trkpt><trkpt lat="48.061671075340165" lon="11.6368867281947"><ele>555.0</ele><time>2026-04-18T07:26:28Z</time></trkpt><trkpt lat="48.06147129630141" lon="11.637081567268984"><ele>555.5</ele><time>2026-04-18T07:26:29Z</time></trkpt><trkpt lat="48.06127290274453" lon="11.637270373243407"><ele>556.0</ele><time>2026-04-18T07:26:30Z</time></trkpt><trkpt lat="48.061075237122445" lon="11.637458945718393"><ele>556.0</ele><time>2026-04-18T07:26:31Z</time></trkpt><trkpt lat="48.06087880915156" lon="11.637647029872788"><ele>556.0</ele><time>2026-04-18T07:26:32Z</time></trkpt><trkpt lat="48.06068395043844" lon="11.637831078417726"><ele>555.5</ele><time>2026-04-18T07:26:33Z</time></trkpt><trkpt lat="48.060491513811286" lon="11.638015519914278"><ele>555.0</ele><time>2026-04-18T07:26:34Z</time></trkpt><trkpt lat="48.06029722440937" lon="11.638206330892176"><ele>555.0</ele><time>2026-04-18T07:26:35Z</time></trkpt><trkpt lat="48.06009180277881" lon="11.638406573848277"><ele>555.0</ele><time>2026-04-18T07:26:36Z</time></trkpt><trkpt lat="48.059883515940285" lon="11.63860556996725"><ele>555.5</ele><time>2026-04-18T07:26:37Z</time></trkpt><trkpt lat="48.059676115810966" lon="11.638805494470237"><ele>556.0</ele><time>2026-04-18T07:26:38Z</time></trkpt><trkpt lat="48.05947093328601" lon="11.639002037309139"><ele>556.0</ele><time>2026-04-18T07:26:39Z</time></trkpt><trkpt lat="48.05926652449823" lon="11.639199685500202"><ele>556.0</ele><time>2026-04-18T07:26:40Z</time></trkpt><trkpt lat="48.0590637875143" lon="11.639393136323086"><ele>555.5</ele><time>2026-04-18T07:26:41Z</time></trkpt><trkpt lat="48.058863692047744" lon="11.639586106688766"><ele>555.0</ele><time>2026-04-18T07:26:42Z</time></trkpt><trkpt lat="48.058660938976296" lon="11.63978194330559"><ele>555.0</ele><time>2026-04-18T07:26:43Z</time></trkpt><trkpt lat="48.05845216641238" lon="11.639981591167633"><ele>555.0</ele><time>2026-04-18T07:26:44Z</time></trkpt><trkpt lat="48.05824366458339" lon="11.640179972684287"><ele>555.0</ele><time>2026-04-18T07:26:45Z</time></trkpt><trkpt lat="48.05803596807061" lon="11.64038075323803"><ele>555.0</ele><time>2026-04-18T07:26:46Z</time></trkpt><trkpt lat="48.05782981377758" lon="11.64058092119527"><ele>555.0</ele><time>2026-04-18T07:26:47Z</time></trkpt><trkpt lat="48.05762327472135" lon="11.640775962192832"><ele>555.0</ele><time>2026-04-18T07:26:48Z</time></trkpt><trkpt lat="48.05741825605807" lon="11.640969807605368"><ele>556.0</ele><time>2026-04-18T07:26:49Z</time></trkpt><trkpt lat="48.05721550164604" lon="11.641165819635498"><ele>557.0</ele><time>2026-04-18T07:26:50Z</time></trkpt><trkpt lat="48.05700916807302" lon="11.641365418093459"><ele>557.0</ele><time>2026-04-18T07:26:51Z</time></trkpt><trkpt lat="48.05679844685877" lon="11.641565354499303"><ele>557.0</ele><time>2026-04-18T07:26:52Z</time></trkpt><trkpt lat="48.05658503878194" lon="11.641762411652183"><ele>557.0</ele><time>2026-04-18T07:26:53Z</time></trkpt><trkpt lat="48.0563684825832" lon="11.6419677173003"><ele>557.0</ele><time>2026-04-18T07:26:54Z</time></trkpt><trkpt lat="48.05614804910094" lon="11.642173012424042"><ele>557.0</ele><time>2026-04-18T07:26:55Z</time></trkpt><trkpt lat="48.055928098524404" lon="11.64239000090995"><ele>557.0</ele><time>2026-04-18T07:26:56Z</time></trkpt><trkpt lat="48.05570432605225" lon="11.642598941526566"><ele>556.5</ele><time>2026-04-18T07:26:57Z</time></trkpt><trkpt lat="48.055471789456035" lon="11.642807172531958"><ele>556.0</ele><time>2026-04-18T07:26:58Z</time></trkpt><trkpt lat="48.055231988628044" lon="11.643009990374058"><ele>556.0</ele><time>2026-04-18T07:26:59Z</time></trkpt><trkpt lat="48.05498627569239" lon="11.643207723567073"><ele>556.0</ele><time>2026-04-18T07:27:00Z</time></trkpt><trkpt lat="48.0547398704221" lon="11.643401888911821"><ele>557.0</ele><time>2026-04-18T07:27:01Z</time></trkpt><trkpt lat="48.054490818036236" lon="11.643588460160553"><ele>558.0</ele><time>2026-04-18T07:27:02Z</time></trkpt><trkpt lat="48.054243723086984" lon="11.643768931539372"><ele>558.5</ele><time>2026-04-18T07:27:03Z</time></trkpt><trkpt lat="48.053999541186485" lon="11.643942478538618"><ele>559.0</ele><time>2026-04-18T07:27:04Z</time></trkpt><trkpt lat="48.05375590191342" lon="11.644108269711344"><ele>559.0</ele><time>2026-04-18T07:27:05Z</time></trkpt><trkpt lat="48.053513129094334" lon="11.64426756131788"><ele>559.0</ele><time>2026-04-18T07:27:06Z</time></trkpt><trkpt lat="48.05326970322855" lon="11.644417986932705"><ele>559.0</ele><time>2026-04-18T07:27:07Z</time></trkpt><trkpt lat="48.05302891605952" lon="11.644559532548062"><ele>559.0</ele><time>2026-04-18T07:27:08Z</time></trkpt><trkpt lat="48.05278861313961" lon="11.64469537606863"><ele>559.0</ele><time>2026-04-18T07:27:09Z</time></trkpt><trkpt lat="48.05254722188701" lon="11.644825363486127"><ele>559.0</ele><time>2026-04-18T07:27:10Z</time></trkpt><trkpt lat="48.052305578138956" lon="11.644952273243954"><ele>558.0</ele><time>2026-04-18T07:27:11Z</time></trkpt><trkpt lat="48.052065065286044" lon="11.645070686519153"><ele>557.0</ele><time>2026-04-18T07:27:12Z</time></trkpt><trkpt lat="48.05182648729732" lon="11.645187288204832"><ele>557.5</ele><time>2026-04-18T07:27:13Z</time></trkpt><trkpt lat="48.05158711695567" lon="11.645305503277708"><ele>558.0</ele><time>2026-04-18T07:27:14Z</time></trkpt><trkpt lat="48.051347111240354" lon="11.645424527580335"><ele>558.0</ele><time>2026-04-18T07:27:15Z</time></trkpt><trkpt lat="48.05110563214977" lon="11.645545195557798"><ele>558.0</ele><time>2026-04-18T07:27:16Z</time></trkpt><trkpt lat="48.05086474779302" lon="11.645664548383394"><ele>559.5</ele><time>2026-04-18T07:27:17Z</time></trkpt><trkpt lat="48.05062069037067" lon="11.645785353269265"><ele>561.0</ele><time>2026-04-18T07:27:18Z</time></trkpt><trkpt lat="48.05037513779739" lon="11.645906635320351"><ele>561.0</ele><time>2026-04-18T07:27:19Z</time></trkpt><trkpt lat="48.05012616224188" lon="11.646027792699693"><ele>561.0</ele><time>2026-04-18T07:27:20Z</time></trkpt><trkpt lat="48.049876474334546" lon="11.646148787429992"><ele>560.5</ele><time>2026-04-18T07:27:21Z</time></trkpt><trkpt lat="48.04962569359942" lon="11.646274640458742"><ele>560.0</ele><time>2026-04-18T07:27:22Z</time></trkpt><trkpt lat="48.04936918925332" lon="11.646403725407403"><ele>560.0</ele><time>2026-04-18T07:27:23Z</time></trkpt><trkpt lat="48.049106616282735" lon="11.64653430612204"><ele>560.0</ele><time>2026-04-18T07:27:24Z</time></trkpt><trkpt lat="48.04884153759116" lon="11.646666187595152"><ele>560.0</ele><time>2026-04-18T07:27:25Z</time></trkpt><trkpt lat="48.04857561827914" lon="11.646801387785382"><ele>560.0</ele><time>2026-04-18T07:27:26Z</time></trkpt><trkpt lat="48.048308641233184" lon="11.646935507241318"><ele>560.0</ele><time>2026-04-18T07:27:27Z</time></trkpt><trkpt lat="48.04804484056531" lon="11.647067392964622"><ele>560.0</ele><time>2026-04-18T07:27:28Z</time></trkpt><trkpt lat="48.04778140765691" lon="11.647197914621193"><ele>560.0</ele><time>2026-04-18T07:27:29Z</time></trkpt><trkpt lat="48.04751647440747" lon="11.647330261869891"><ele>560.0</ele><time>2026-04-18T07:27:30Z</time></trkpt><trkpt lat="48.047247274242075" lon="11.647461614751213"><ele>561.5</ele><time>2026-04-18T07:27:31Z</time></trkpt><trkpt lat="48.0469822975904" lon="11.647595160596095"><ele>563.0</ele><time>2026-04-18T07:27:32Z</time></trkpt><trkpt lat="48.04670632776714" lon="11.647732564744226"><ele>563.0</ele><time>2026-04-18T07:27:33Z</time></trkpt><trkpt lat="48.046413568831845" lon="11.647880963339231"><ele>563.0</ele><time>2026-04-18T07:27:34Z</time></trkpt><trkpt lat="48.0461139933553" lon="11.648029784715865"><ele>563.0</ele><time>2026-04-18T07:27:35Z</time></trkpt><trkpt lat="48.04581539723327" lon="11.64817573228028"><ele>563.0</ele><time>2026-04-18T07:27:36Z</time></trkpt><trkpt lat="48.04552004929151" lon="11.648320056171253"><ele>563.0</ele><time>2026-04-18T07:27:37Z</time></trkpt><trkpt lat="48.04522898026906" lon="11.648461710470832"><ele>563.0</ele><time>2026-04-18T07:27:38Z</time></trkpt><trkpt lat="48.04494054214433" lon="11.648604219442152"><ele>563.5</ele><time>2026-04-18T07:27:39Z</time></trkpt><trkpt lat="48.044655406996434" lon="11.648744987509222"><ele>564.0</ele><time>2026-04-18T07:27:40Z</time></trkpt><trkpt lat="48.04437777696035" lon="11.648877848247123"><ele>564.0</ele><time>2026-04-18T07:27:41Z</time></trkpt><trkpt lat="48.0441144170308" lon="11.649002831701784"><ele>564.0</ele><time>2026-04-18T07:27:42Z</time></trkpt><trkpt lat="48.04385998468159" lon="11.649129390293032"><ele>564.0</ele><time>2026-04-18T07:27:43Z</time></trkpt><trkpt lat="48.04361179934372" lon="11.649250362127795"><ele>564.0</ele><time>2026-04-18T07:27:44Z</time></trkpt><trkpt lat="48.04336751978387" lon="11.649371014030415"><ele>564.5</ele><time>2026-04-18T07:27:45Z</time></trkpt><trkpt lat="48.04312803093356" lon="11.649494085777294"><ele>565.0</ele><time>2026-04-18T07:27:46Z</time></trkpt><trkpt lat="48.042886133904084" lon="11.64961631829327"><ele>565.0</ele><time>2026-04-18T07:27:47Z</time></trkpt><trkpt lat="48.042640325365355" lon="11.649739766704435"><ele>565.0</ele><time>2026-04-18T07:27:48Z</time></trkpt><trkpt lat="48.04239492487051" lon="11.64986203179411"><ele>565.5</ele><time>2026-04-18T07:27:49Z</time></trkpt><trkpt lat="48.042148634864304" lon="11.64998394654041"><ele>566.0</ele><time>2026-04-18T07:27:50Z</time></trkpt><trkpt lat="48.041902577062096" lon="11.650104491422802"><ele>566.0</ele><time>2026-04-18T07:27:51Z</time></trkpt><trkpt lat="48.04165439816249" lon="11.650228309924778"><ele>566.0</ele><time>2026-04-18T07:27:52Z</time></trkpt><trkpt lat="48.04140409741027" lon="11.650349401460808"><ele>566.0</ele><time>2026-04-18T07:27:53Z</time></trkpt><trkpt lat="48.04115498023914" lon="11.650473255494518"><ele>566.0</ele><time>2026-04-18T07:27:54Z</time></trkpt><trkpt lat="48.04090645116574" lon="11.650598552341906"><ele>568.0</ele><time>2026-04-18T07:27:55Z</time></trkpt><trkpt lat="48.0406539651139" lon="11.650723659754817"><ele>570.0</ele><time>2026-04-18T07:27:56Z</time></trkpt><trkpt lat="48.04039905608641" lon="11.650850041670397"><ele>570.0</ele><time>2026-04-18T07:27:57Z</time></trkpt><trkpt lat="48.04014392394468" lon="11.65097664258848"><ele>570.0</ele><time>2026-04-18T07:27:58Z</time></trkpt><trkpt lat="48.0398857935461" lon="11.651106116119145"><ele>571.5</ele><time>2026-04-18T07:27:59Z</time></trkpt><trkpt lat="48.03961909233499" lon="11.651240045428201"><ele>573.0</ele><time>2026-04-18T07:28:00Z</time></trkpt><trkpt lat="48.03934429748327" lon="11.651375888736643"><ele>574.0</ele><time>2026-04-18T07:28:01Z</time></trkpt><trkpt lat="48.03906456855991" lon="11.651514212032758"><ele>575.0</ele><time>2026-04-18T07:28:02Z</time></trkpt><trkpt lat="48.03878117148522" lon="11.651656157008205"><ele>575.0</ele><time>2026-04-18T07:28:03Z</time></trkpt><trkpt lat="48.03849686066819" lon="11.651800460894462"><ele>575.0</ele><time>2026-04-18T07:28:04Z</time></trkpt><trkpt lat="48.03821158720254" lon="11.651949553034997"><ele>574.5</ele><time>2026-04-18T07:28:05Z</time></trkpt><trkpt lat="48.037927605288004" lon="11.652092849403587"><ele>574.0</ele><time>2026-04-18T07:28:06Z</time></trkpt><trkpt lat="48.037656308389465" lon="11.65223031952183"><ele>575.5</ele><time>2026-04-18T07:28:07Z</time></trkpt><trkpt lat="48.03738917048444" lon="11.652362588119823"><ele>577.0</ele><time>2026-04-18T07:28:08Z</time></trkpt><trkpt lat="48.037122713900104" lon="11.6524958348711"><ele>577.0</ele><time>2026-04-18T07:28:09Z</time></trkpt><trkpt lat="48.036858889336266" lon="11.652626345564242"><ele>577.0</ele><time>2026-04-18T07:28:10Z</time></trkpt><trkpt lat="48.0365965360314" lon="11.652756303673279"><ele>576.0</ele><time>2026-04-18T07:28:11Z</time></trkpt><trkpt lat="48.0363366686993" lon="11.652887235300863"><ele>575.0</ele><time>2026-04-18T07:28:12Z</time></trkpt><trkpt lat="48.03607721580944" lon="11.653014715434953"><ele>575.0</ele><time>2026-04-18T07:28:13Z</time></trkpt><trkpt lat="48.03582082985613" lon="11.653142638438036"><ele>575.0</ele><time>2026-04-18T07:28:14Z</time></trkpt><trkpt lat="48.035567599522636" lon="11.653270809750655"><ele>573.0</ele><time>2026-04-18T07:28:15Z</time></trkpt><trkpt lat="48.03531505762626" lon="11.653397834010198"><ele>571.0</ele><time>2026-04-18T07:28:16Z</time></trkpt><trkpt lat="48.03506303211072" lon="11.653524473543259"><ele>572.0</ele><time>2026-04-18T07:28:17Z</time></trkpt><trkpt lat="48.034817763925176" lon="11.653646484905057"><ele>573.0</ele><time>2026-04-18T07:28:18Z</time></trkpt><trkpt lat="48.03457725336048" lon="11.653765272597822"><ele>573.0</ele><time>2026-04-18T07:28:19Z</time></trkpt><trkpt lat="48.03433694483428" lon="11.653883748292769"><ele>573.0</ele><time>2026-04-18T07:28:20Z</time></trkpt><trkpt lat="48.034097178569105" lon="11.654002793820348"><ele>574.0</ele><time>2026-04-18T07:28:21Z</time></trkpt><trkpt lat="48.03385310556324" lon="11.654114343748521"><ele>575.0</ele><time>2026-04-18T07:28:22Z</time></trkpt><trkpt lat="48.033610417910594" lon="11.654226401375158"><ele>575.0</ele><time>2026-04-18T07:28:23Z</time></trkpt><trkpt lat="48.03336944205327" lon="11.654349119671402"><ele>575.0</ele><time>2026-04-18T07:28:24Z</time></trkpt><trkpt lat="48.033126347262446" lon="11.654468732527073"><ele>576.0</ele><time>2026-04-18T07:28:25Z</time></trkpt><trkpt lat="48.032880159785584" lon="11.654590675202186"><ele>577.0</ele><time>2026-04-18T07:28:26Z</time></trkpt><trkpt lat="48.032630211188774" lon="11.65471883375076"><ele>577.5</ele><time>2026-04-18T07:28:27Z</time></trkpt><trkpt lat="48.03237616587242" lon="11.654846396567173"><ele>578.0</ele><time>2026-04-18T07:28:28Z</time></trkpt><trkpt lat="48.0321204825164" lon="11.654973978847446"><ele>578.0</ele><time>2026-04-18T07:28:29Z</time></trkpt><trkpt lat="48.03186118009257" lon="11.655100922478704"><ele>578.0</ele><time>2026-04-18T07:28:30Z</time></trkpt><trkpt lat="48.031600885601854" lon="11.655229499320876"><ele>577.0</ele><time>2026-04-18T07:28:31Z</time></trkpt><trkpt lat="48.03133796605104" lon="11.655362086955604"><ele>576.0</ele><time>2026-04-18T07:28:32Z</time></trkpt><trkpt lat="48.03107213150073" lon="11.655492135416972"><ele>579.5</ele><time>2026-04-18T07:28:33Z</time></trkpt><trkpt lat="48.03080429072608" lon="11.655624626261323"><ele>583.0</ele><time>2026-04-18T07:28:34Z</time></trkpt><trkpt lat="48.03053750220281" lon="11.655759282739531"><ele>583.0</ele><time>2026-04-18T07:28:35Z</time></trkpt><trkpt lat="48.030272257759755" lon="11.655892354054792"><ele>583.0</ele><time>2026-04-18T07:28:36Z</time></trkpt><trkpt lat="48.030008491006306" lon="11.656023275867495"><ele>580.5</ele><time>2026-04-18T07:28:37Z</time></trkpt><trkpt lat="48.02974767942159" lon="11.656155535097039"><ele>578.0</ele><time>2026-04-18T07:28:38Z</time></trkpt><trkpt lat="48.02948962601139" lon="11.65628663704522"><ele>578.0</ele><time>2026-04-18T07:28:39Z</time></trkpt><trkpt lat="48.029232263598466" lon="11.65641429035969"><ele>578.0</ele><time>2026-04-18T07:28:40Z</time></trkpt><trkpt lat="48.028974283992596" lon="11.656542613471998"><ele>578.0</ele><time>2026-04-18T07:28:41Z</time></trkpt><trkpt lat="48.0287157465851" lon="11.656670473947798"><ele>578.0</ele><time>2026-04-18T07:28:42Z</time></trkpt><trkpt lat="48.028452004796804" lon="11.656801435643615"><ele>579.0</ele><time>2026-04-18T07:28:43Z</time></trkpt><trkpt lat="48.02818112638745" lon="11.6569351996762"><ele>580.0</ele><time>2026-04-18T07:28:44Z</time></trkpt><trkpt lat="48.02790519643796" lon="11.657072326380105"><ele>580.0</ele><time>2026-04-18T07:28:45Z</time></trkpt><trkpt lat="48.02762736795991" lon="11.657211552640756"><ele>580.0</ele><time>2026-04-18T07:28:46Z</time></trkpt><trkpt lat="48.02734910971824" lon="11.657352313316634"><ele>579.5</ele><time>2026-04-18T07:28:47Z</time></trkpt><trkpt lat="48.027073474936856" lon="11.657491432562685"><ele>579.0</ele><time>2026-04-18T07:28:48Z</time></trkpt><trkpt lat="48.02680619296647" lon="11.657628755116761"><ele>579.0</ele><time>2026-04-18T07:28:49Z</time></trkpt><trkpt lat="48.02654292656997" lon="11.657759068323724"><ele>579.0</ele><time>2026-04-18T07:28:50Z</time></trkpt><trkpt lat="48.02628422925197" lon="11.65788245693506"><ele>578.5</ele><time>2026-04-18T07:28:51Z</time></trkpt><trkpt lat="48.02602851807783" lon="11.65801059303279"><ele>578.0</ele><time>2026-04-18T07:28:52Z</time></trkpt><trkpt lat="48.02577158609404" lon="11.658146593177245"><ele>578.0</ele><time>2026-04-18T07:28:53Z</time></trkpt><trkpt lat="48.02549428197112" lon="11.65828506889052"><ele>578.0</ele><time>2026-04-18T07:28:54Z</time></trkpt><trkpt lat="48.02520588346838" lon="11.658427409613575"><ele>577.5</ele><time>2026-04-18T07:28:55Z</time></trkpt><trkpt lat="48.02490797684586" lon="11.658573030085087"><ele>577.0</ele><time>2026-04-18T07:28:56Z</time></trkpt><trkpt lat="48.024601917015815" lon="11.658725360900629"><ele>578.0</ele><time>2026-04-18T07:28:57Z</time></trkpt><trkpt lat="48.02428190726817" lon="11.658883687018397"><ele>579.0</ele><time>2026-04-18T07:28:58Z</time></trkpt><trkpt lat="48.02396391224833" lon="11.659033690965451"><ele>580.0</ele><time>2026-04-18T07:28:59Z</time></trkpt><trkpt lat="48.023649222045165" lon="11.659187311334467"><ele>581.0</ele><time>2026-04-18T07:29:00Z</time></trkpt><trkpt lat="48.023355700558355" lon="11.659333160993064"><ele>580.5</ele><time>2026-04-18T07:29:01Z</time></trkpt><trkpt lat="48.023070501472" lon="11.659481980465978"><ele>580.0</ele><time>2026-04-18T07:29:02Z</time></trkpt><trkpt lat="48.02279370195492" lon="11.659627874857167"><ele>580.0</ele><time>2026-04-18T07:29:03Z</time></trkpt><trkpt lat="48.02252002105914" lon="11.65977003328087"><ele>580.0</ele><time>2026-04-18T07:29:04Z</time></trkpt><trkpt lat="48.02224489414013" lon="11.659898410665656"><ele>581.5</ele><time>2026-04-18T07:29:05Z</time></trkpt><trkpt lat="48.02197458368714" lon="11.660029434189092"><ele>583.0</ele><time>2026-04-18T07:29:06Z</time></trkpt><trkpt lat="48.02170374475079" lon="11.660157247464296"><ele>581.0</ele><time>2026-04-18T07:29:07Z</time></trkpt><trkpt lat="48.02143405887942" lon="11.660300987427975"><ele>579.0</ele><time>2026-04-18T07:29:08Z</time></trkpt><trkpt lat="48.021165884654536" lon="11.66044198532937"><ele>579.0</ele><time>2026-04-18T07:29:09Z</time></trkpt><trkpt lat="48.020895764023116" lon="11.660585237360623"><ele>579.0</ele><time>2026-04-18T07:29:10Z</time></trkpt><trkpt lat="48.020623221640946" lon="11.660732641118951"><ele>581.0</ele><time>2026-04-18T07:29:11Z</time></trkpt><trkpt lat="48.020350581492686" lon="11.660884405356502"><ele>583.0</ele><time>2026-04-18T07:29:12Z</time></trkpt><trkpt lat="48.020078743983376" lon="11.661038699211595"><ele>583.5</ele><time>2026-04-18T07:29:13Z</time></trkpt><trkpt lat="48.01980677048716" lon="11.661199510126602"><ele>584.0</ele><time>2026-04-18T07:29:14Z</time></trkpt><trkpt lat="48.01953228549875" lon="11.66136697760028"><ele>584.0</ele><time>2026-04-18T07:29:15Z</time></trkpt><trkpt lat="48.0192506705769" lon="11.661535737824725"><ele>584.0</ele><time>2026-04-18T07:29:16Z</time></trkpt><trkpt lat="48.01897006489389" lon="11.66170659574379"><ele>584.5</ele><time>2026-04-18T07:29:17Z</time></trkpt><trkpt lat="48.01868888803461" lon="11.661881182134254"><ele>585.0</ele><time>2026-04-18T07:29:18Z</time></trkpt><trkpt lat="48.018408013374724" lon="11.662056216181153"><ele>585.0</ele><time>2026-04-18T07:29:19Z</time></trkpt><trkpt lat="48.018128963438386" lon="11.662236671816565"><ele>585.0</ele><time>2026-04-18T07:29:20Z</time></trkpt><trkpt lat="48.01785250005966" lon="11.66242412395398"><ele>585.0</ele><time>2026-04-18T07:29:21Z</time></trkpt><trkpt lat="48.017576226137216" lon="11.66261009118627"><ele>585.0</ele><time>2026-04-18T07:29:22Z</time></trkpt><trkpt lat="48.01730024478215" lon="11.662794005087195"><ele>585.0</ele><time>2026-04-18T07:29:23Z</time></trkpt><trkpt lat="48.01702873653203" lon="11.66298040110145"><ele>585.0</ele><time>2026-04-18T07:29:24Z</time></trkpt><trkpt lat="48.016760817979375" lon="11.663167677732032"><ele>586.5</ele><time>2026-04-18T07:29:25Z</time></trkpt><trkpt lat="48.01649601706591" lon="11.663351314396316"><ele>588.0</ele><time>2026-04-18T07:29:26Z</time></trkpt><trkpt lat="48.01624314194977" lon="11.663527726171496"><ele>588.0</ele><time>2026-04-18T07:29:27Z</time></trkpt><trkpt lat="48.01601073426306" lon="11.663688198532501"><ele>588.0</ele><time>2026-04-18T07:29:28Z</time></trkpt><trkpt lat="48.015801720957" lon="11.663831288240132"><ele>587.5</ele><time>2026-04-18T07:29:29Z</time></trkpt><trkpt lat="48.01559239925789" lon="11.663973155245086"><ele>587.0</ele><time>2026-04-18T07:29:30Z</time></trkpt><trkpt lat="48.01537355840699" lon="11.664121532895631"><ele>587.0</ele><time>2026-04-18T07:29:31Z</time></trkpt><trkpt lat="48.01515226599229" lon="11.664272479071737"><ele>587.0</ele><time>2026-04-18T07:29:32Z</time></trkpt><trkpt lat="48.01492946135371" lon="11.664425558695916"><ele>587.5</ele><time>2026-04-18T07:29:33Z</time></trkpt><trkpt lat="48.01470829397619" lon="11.664578713239324"><ele>588.0</ele><time>2026-04-18T07:29:34Z</time></trkpt><trkpt lat="48.01449371606051" lon="11.66472743365313"><ele>588.0</ele><time>2026-04-18T07:29:35Z</time></trkpt><trkpt lat="48.01428790383944" lon="11.664870355110539"><ele>588.0</ele><time>2026-04-18T07:29:36Z</time></trkpt><trkpt lat="48.0140793294841" lon="11.665013607246268"><ele>588.0</ele><time>2026-04-18T07:29:37Z</time></trkpt><trkpt lat="48.0138647886974" lon="11.665157078589914"><ele>588.0</ele><time>2026-04-18T07:29:38Z</time></trkpt><trkpt lat="48.013648632347106" lon="11.665303860338792"><ele>587.0</ele><time>2026-04-18T07:29:39Z</time></trkpt><trkpt lat="48.01343020946202" lon="11.665453196929793"><ele>586.0</ele><time>2026-04-18T07:29:40Z</time></trkpt><trkpt lat="48.01320864646521" lon="11.665607023900005"><ele>589.0</ele><time>2026-04-18T07:29:41Z</time></trkpt><trkpt lat="48.01298660524745" lon="11.665760829245592"><ele>592.0</ele><time>2026-04-18T07:29:42Z</time></trkpt><trkpt lat="48.01277001778871" lon="11.665910341414794"><ele>592.0</ele><time>2026-04-18T07:29:43Z</time></trkpt><trkpt lat="48.01255584491888" lon="11.66605408909085"><ele>592.0</ele><time>2026-04-18T07:29:44Z</time></trkpt><trkpt lat="48.01234489059954" lon="11.666196100975837"><ele>591.0</ele><time>2026-04-18T07:29:45Z</time></trkpt><trkpt lat="48.01213274525367" lon="11.666345148563552"><ele>590.0</ele><time>2026-04-18T07:29:46Z</time></trkpt><trkpt lat="48.011917887610586" lon="11.66649623763231"><ele>590.0</ele><time>2026-04-18T07:29:47Z</time></trkpt><trkpt lat="48.01169960927278" lon="11.666647024602037"><ele>590.0</ele><time>2026-04-18T07:29:48Z</time></trkpt><trkpt lat="48.01148038225735" lon="11.66679846950247"><ele>590.0</ele><time>2026-04-18T07:29:49Z</time></trkpt><trkpt lat="48.011260346214655" lon="11.666950409661775"><ele>590.0</ele><time>2026-04-18T07:29:50Z</time></trkpt><trkpt lat="48.011040611139315" lon="11.667101228188407"><ele>592.0</ele><time>2026-04-18T07:29:51Z</time></trkpt><trkpt lat="48.01082142664619" lon="11.667252696292579"><ele>594.0</ele><time>2026-04-18T07:29:52Z</time></trkpt><trkpt lat="48.01060567392664" lon="11.66739864176354"><ele>594.0</ele><time>2026-04-18T07:29:53Z</time></trkpt><trkpt lat="48.010392624667226" lon="11.667543395053938"><ele>594.0</ele><time>2026-04-18T07:29:54Z</time></trkpt><trkpt lat="48.01018199352601" lon="11.6676890204484"><ele>594.5</ele><time>2026-04-18T07:29:55Z</time></trkpt><trkpt lat="48.009962295324556" lon="11.667839615948438"><ele>595.0</ele><time>2026-04-18T07:29:56Z</time></trkpt><trkpt lat="48.0097461642233" lon="11.66798759582255"><ele>595.0</ele><time>2026-04-18T07:29:57Z</time></trkpt><trkpt lat="48.009546136313496" lon="11.668126213901807"><ele>595.0</ele><time>2026-04-18T07:29:58Z</time></trkpt><trkpt lat="48.00935043951379" lon="11.668263373713284"><ele>595.0</ele><time>2026-04-18T07:29:59Z</time></trkpt><trkpt lat="48.00917147399628" lon="11.668378868836403"><ele>594.3333333333334</ele><time>2026-04-18T07:30:00Z</time></trkpt><trkpt lat="48.00899901309217" lon="11.668494005788146"><ele>593.6666666666666</ele><time>2026-04-18T07:30:01Z</time></trkpt><trkpt lat="48.00883034911273" lon="11.668605255221461"><ele>593.0</ele><time>2026-04-18T07:30:02Z</time></trkpt><trkpt lat="48.008661573063556" lon="11.668720186273191"><ele>593.0</ele><time>2026-04-18T07:30:03Z</time></trkpt><trkpt lat="48.00849946576504" lon="11.668832573120566"><ele>593.0</ele><time>2026-04-18T07:30:04Z</time></trkpt><trkpt lat="48.00834610974049" lon="11.66893615068469"><ele>593.0</ele><time>2026-04-18T07:30:05Z</time></trkpt><trkpt lat="48.00819868789748" lon="11.669036023071289"><ele>594.6666666666666</ele><time>2026-04-18T07:30:06Z</time></trkpt><trkpt lat="48.008053686223455" lon="11.669135642401907"><ele>596.3333333333334</ele><time>2026-04-18T07:30:07Z</time></trkpt><trkpt lat="48.00790976785884" lon="11.669234949915799"><ele>598.0</ele><time>2026-04-18T07:30:08Z</time></trkpt><trkpt lat="48.007766737872245" lon="11.66933218818"><ele>598.0</ele><time>2026-04-18T07:30:09Z</time></trkpt><trkpt lat="48.00762176155103" lon="11.669431631789513"><ele>598.0</ele><time>2026-04-18T07:30:10Z</time></trkpt><trkpt lat="48.00747613814588" lon="11.66953065036978"><ele>598.0</ele><time>2026-04-18T07:30:11Z</time></trkpt><trkpt lat="48.00733040258812" lon="11.669629863650291"><ele>596.75</ele><time>2026-04-18T07:30:12Z</time></trkpt><trkpt lat="48.00719299896334" lon="11.669723883261389"><ele>595.5</ele><time>2026-04-18T07:30:13Z</time></trkpt><trkpt lat="48.00706482127271" lon="11.66981111944765"><ele>594.25</ele><time>2026-04-18T07:30:14Z</time></trkpt><trkpt lat="48.00694139949107" lon="11.669894072858936"><ele>593.0</ele><time>2026-04-18T07:30:15Z</time></trkpt><trkpt lat="48.00682073650811" lon="11.669976143245751"><ele>593.0</ele><time>2026-04-18T07:30:16Z</time></trkpt><trkpt lat="48.00671009388166" lon="11.670051798927258"><ele>593.0</ele><time>2026-04-18T07:30:17Z</time></trkpt><trkpt lat="48.00660384781161" lon="11.670124923326371"><ele>593.0</ele><time>2026-04-18T07:30:18Z</time></trkpt><trkpt lat="48.00648972829423" lon="11.670201745658627"><ele>593.0</ele><time>2026-04-18T07:30:19Z</time></trkpt><trkpt lat="48.00637923736329" lon="11.670276640666097"><ele>593.25</ele><time>2026-04-18T07:30:20Z</time></trkpt><trkpt lat="48.00626344326734" lon="11.670354487513457"><ele>593.5</ele><time>2026-04-18T07:30:21Z</time></trkpt><trkpt lat="48.006156739805895" lon="11.670429422625375"><ele>593.75</ele><time>2026-04-18T07:30:22Z</time></trkpt><trkpt lat="48.00605767172807" lon="11.670498821553906"><ele>594.0</ele><time>2026-04-18T07:30:23Z</time></trkpt><trkpt lat="48.005957579878356" lon="11.670566937650978"><ele>594.0</ele><time>2026-04-18T07:30:24Z</time></trkpt><trkpt lat="48.00585134440426" lon="11.670637158083549"><ele>594.0</ele><time>2026-04-18T07:30:25Z</time></trkpt><trkpt lat="48.00574524640184" lon="11.670709682119291"><ele>594.0</ele><time>2026-04-18T07:30:26Z</time></trkpt><trkpt lat="48.00563999726562" lon="11.670781224670863"><ele>594.0</ele><time>2026-04-18T07:30:27Z</time></trkpt><trkpt lat="48.00553859958207" lon="11.670844411603952"><ele>593.0</ele><time>2026-04-18T07:30:28Z</time></trkpt><trkpt lat="48.00543727109031" lon="11.67090929834446"><ele>592.0</ele><time>2026-04-18T07:30:29Z</time></trkpt><trkpt lat="48.00533184957367" lon="11.670958151998398"><ele>591.0</ele><time>2026-04-18T07:30:30Z</time></trkpt><trkpt lat="48.00522416294689" lon="11.671012296319189"><ele>590.0</ele><time>2026-04-18T07:30:31Z</time></trkpt><trkpt lat="48.00511174464291" lon="11.671083930371665"><ele>590.75</ele><time>2026-04-18T07:30:32Z</time></trkpt><trkpt lat="48.00498738213498" lon="11.671170802620757"><ele>591.5</ele><time>2026-04-18T07:30:33Z</time></trkpt><trkpt lat="48.00485576458229" lon="11.671262835577371"><ele>592.25</ele><time>2026-04-18T07:30:34Z</time></trkpt><trkpt lat="48.00471681373484" lon="11.671348898115843"><ele>593.0</ele><time>2026-04-18T07:30:35Z</time></trkpt><trkpt lat="48.004573440579904" lon="11.671422432233955"><ele>593.0</ele><time>2026-04-18T07:30:36Z</time></trkpt><trkpt lat="48.00443734522817" lon="11.671496835432581"><ele>593.0</ele><time>2026-04-18T07:30:37Z</time></trkpt><trkpt lat="48.00430903839462" lon="11.671579953941135"><ele>593.0</ele><time>2026-04-18T07:30:38Z</time></trkpt><trkpt lat="48.00418287823354" lon="11.67166684790931"><ele>593.0</ele><time>2026-04-18T07:30:39Z</time></trkpt><trkpt lat="48.004052818191184" lon="11.671757947190672"><ele>592.75</ele><time>2026-04-18T07:30:40Z</time></trkpt><trkpt lat="48.00392220249369" lon="11.671846564825032"><ele>592.5</ele><time>2026-04-18T07:30:41Z</time></trkpt><trkpt lat="48.003789540201026" lon="11.671935742555672"><ele>592.25</ele><time>2026-04-18T07:30:42Z</time></trkpt><trkpt lat="48.00365532493032" lon="11.672025722923166"><ele>592.0</ele><time>2026-04-18T07:30:43Z</time></trkpt><trkpt lat="48.00352127601606" lon="11.672118971452688"><ele>592.0</ele><time>2026-04-18T07:30:44Z</time></trkpt><trkpt lat="48.003386642994265" lon="11.672212488670077"><ele>592.0</ele><time>2026-04-18T07:30:45Z</time></trkpt><trkpt lat="48.003252552136885" lon="11.672304072141083"><ele>592.0</ele><time>2026-04-18T07:30:46Z</time></trkpt><trkpt lat="48.003119439235896" lon="11.672394282321536"><ele>592.0</ele><time>2026-04-18T07:30:47Z</time></trkpt><trkpt lat="48.00298703561603" lon="11.672481908453733"><ele>592.0</ele><time>2026-04-18T07:30:48Z</time></trkpt><trkpt lat="48.00284224999292" lon="11.672579401503041"><ele>592.0</ele><time>2026-04-18T07:30:49Z</time></trkpt><trkpt lat="48.00268254310156" lon="11.672694966739188"><ele>592.0</ele><time>2026-04-18T07:30:50Z</time></trkpt><trkpt lat="48.002523797010156" lon="11.67280152828334"><ele>592.5</ele><time>2026-04-18T07:30:51Z</time></trkpt><trkpt lat="48.00237920062995" lon="11.672892726510081"><ele>593.0</ele><time>2026-04-18T07:30:52Z</time></trkpt><trkpt lat="48.00224459640705" lon="11.67298419828525"><ele>593.5</ele><time>2026-04-18T07:30:53Z</time></trkpt><trkpt lat="48.00211947503043" lon="11.673071004557555"><ele>594.0</ele><time>2026-04-18T07:30:54Z</time></trkpt><trkpt lat="48.001998788657765" lon="11.673152956362829"><ele>594.0</ele><time>2026-04-18T07:30:55Z</time></trkpt><trkpt lat="48.001878271841015" lon="11.673235145176033"><ele>594.0</ele><time>2026-04-18T07:30:56Z</time></trkpt><trkpt lat="48.0017536928173" lon="11.673318618097456"><ele>594.0</ele><time>2026-04-18T07:30:57Z</time></trkpt><trkpt lat="48.00162713396032" lon="11.673404373877752"><ele>594.0</ele><time>2026-04-18T07:30:58Z</time></trkpt><trkpt lat="48.001498018840415" lon="11.673495305869793"><ele>594.25</ele><time>2026-04-18T07:30:59Z</time></trkpt><trkpt lat="48.001367109347235" lon="11.673583949459942"><ele>594.5</ele><time>2026-04-18T07:31:00Z</time></trkpt><trkpt lat="48.00123643157474" lon="11.673670761368783"><ele>594.75</ele><time>2026-04-18T07:31:01Z</time></trkpt><trkpt lat="48.00110454950691" lon="11.673759768747216"><ele>595.0</ele><time>2026-04-18T07:31:02Z</time></trkpt><trkpt lat="48.00097404372088" lon="11.673853364263044"><ele>595.25</ele><time>2026-04-18T07:31:03Z</time></trkpt><trkpt lat="48.000843245801676" lon="11.673943919069117"><ele>595.5</ele><time>2026-04-18T07:31:04Z</time></trkpt><trkpt lat="48.00071387787806" lon="11.674030929118118"><ele>595.75</ele><time>2026-04-18T07:31:05Z</time></trkpt><trkpt lat="48.00058263293132" lon="11.674117157999374"><ele>596.0</ele><time>2026-04-18T07:31:06Z</time></trkpt><trkpt lat="48.00045256617526" lon="11.674207219258308"><ele>595.75</ele><time>2026-04-18T07:31:07Z</time></trkpt><trkpt lat="48.0003235347188" lon="11.674299807294261"><ele>595.5</ele><time>2026-04-18T07:31:08Z</time></trkpt><trkpt lat="48.000193131956735" lon="11.674389903882606"><ele>595.25</ele><time>2026-04-18T07:31:09Z</time></trkpt><trkpt lat="48.00006020624497" lon="11.674480073285018"><ele>595.0</ele><time>2026-04-18T07:31:10Z</time></trkpt><trkpt lat="47.99992663257742" lon="11.674573215529167"><ele>595.0</ele><time>2026-04-18T07:31:11Z</time></trkpt><trkpt lat="47.999792984388584" lon="11.674666658495983"><ele>595.0</ele><time>2026-04-18T07:31:12Z</time></trkpt><trkpt lat="47.999659434978376" lon="11.674758662412522"><ele>595.0</ele><time>2026-04-18T07:31:13Z</time></trkpt><trkpt lat="47.99952968294337" lon="11.67484710273192"><ele>595.0</ele><time>2026-04-18T07:31:14Z</time></trkpt><trkpt lat="47.99940251734725" lon="11.67493179034101"><ele>595.0</ele><time>2026-04-18T07:31:15Z</time></trkpt><trkpt lat="47.99927469283762" lon="11.675014761171164"><ele>595.0</ele><time>2026-04-18T07:31:16Z</time></trkpt><trkpt lat="47.99915025393227" lon="11.675095557764982"><ele>595.0</ele><time>2026-04-18T07:31:17Z</time></trkpt><trkpt lat="47.9990265669502" lon="11.675179068225832"><ele>595.0</ele><time>2026-04-18T07:31:18Z</time></trkpt><trkpt lat="47.99890330221093" lon="11.675266733523873"><ele>595.25</ele><time>2026-04-18T07:31:19Z</time></trkpt><trkpt lat="47.998781240036415" lon="11.675353253575414"><ele>595.5</ele><time>2026-04-18T07:31:20Z</time></trkpt><trkpt lat="47.998652692851095" lon="11.675443863517726"><ele>595.75</ele><time>2026-04-18T07:31:21Z</time></trkpt><trkpt lat="47.99852536168145" lon="11.67553023642023"><ele>596.0</ele><time>2026-04-18T07:31:22Z</time></trkpt><trkpt lat="47.99839809717019" lon="11.675619285988372"><ele>596.25</ele><time>2026-04-18T07:31:23Z</time></trkpt><trkpt lat="47.998273664831984" lon="11.675711162517668"><ele>596.5</ele><time>2026-04-18T07:31:24Z</time></trkpt><trkpt lat="47.99814532871333" lon="11.675795403412206"><ele>596.75</ele><time>2026-04-18T07:31:25Z</time></trkpt><trkpt lat="47.99801339136376" lon="11.675879724906725"><ele>597.0</ele><time>2026-04-18T07:31:26Z</time></trkpt><trkpt lat="47.99788393862286" lon="11.675970640917058"><ele>597.0</ele><time>2026-04-18T07:31:27Z</time></trkpt><trkpt lat="47.997746960109126" lon="11.67606607754961"><ele>597.0</ele><time>2026-04-18T07:31:28Z</time></trkpt><trkpt lat="47.997601397433925" lon="11.676161544275962"><ele>597.0</ele><time>2026-04-18T07:31:29Z</time></trkpt><trkpt lat="47.997453430616034" lon="11.676261009442976"><ele>597.25</ele><time>2026-04-18T07:31:30Z</time></trkpt><trkpt lat="47.99730831934726" lon="11.676357145298459"><ele>597.5</ele><time>2026-04-18T07:31:31Z</time></trkpt><trkpt lat="47.99717540016908" lon="11.676447860392113"><ele>597.75</ele><time>2026-04-18T07:31:32Z</time></trkpt><trkpt lat="47.99704853276658" lon="11.676538944976366"><ele>598.0</ele><time>2026-04-18T07:31:33Z</time></trkpt><trkpt lat="47.9969285576842" lon="11.676627866410955"><ele>598.0</ele><time>2026-04-18T07:31:34Z</time></trkpt><trkpt lat="47.996810075520045" lon="11.676712769982188"><ele>598.0</ele><time>2026-04-18T07:31:35Z</time></trkpt><trkpt lat="47.996689191348665" lon="11.676793796229392"><ele>598.0</ele><time>2026-04-18T07:31:36Z</time></trkpt><trkpt lat="47.996557580486545" lon="11.676875426150646"><ele>598.0</ele><time>2026-04-18T07:31:37Z</time></trkpt><trkpt lat="47.99641915409102" lon="11.676967857446607"><ele>599.0</ele><time>2026-04-18T07:31:38Z</time></trkpt><trkpt lat="47.99627550142709" lon="11.677063509921354"><ele>600.0</ele><time>2026-04-18T07:31:39Z</time></trkpt><trkpt lat="47.99613013427807" lon="11.677165406723699"><ele>601.0</ele><time>2026-04-18T07:31:40Z</time></trkpt><trkpt lat="47.995987512101046" lon="11.677271714649573"><ele>601.0</ele><time>2026-04-18T07:31:41Z</time></trkpt><trkpt lat="47.9958446699138" lon="11.67737712373703"><ele>601.0</ele><time>2026-04-18T07:31:42Z</time></trkpt><trkpt lat="47.995708623640716" lon="11.677469758353313"><ele>601.0</ele><time>2026-04-18T07:31:43Z</time></trkpt><trkpt lat="47.99558147020552" lon="11.677555419456034"><ele>601.0</ele><time>2026-04-18T07:31:44Z</time></trkpt><trkpt lat="47.99545558038161" lon="11.677643830431348"><ele>601.25</ele><time>2026-04-18T07:31:45Z</time></trkpt><trkpt lat="47.995329838585626" lon="11.67773057677348"><ele>601.5</ele><time>2026-04-18T07:31:46Z</time></trkpt><trkpt lat="47.995204216962186" lon="11.677809908764317"><ele>601.75</ele><time>2026-04-18T07:31:47Z</time></trkpt><trkpt lat="47.99507454273278" lon="11.677892281257144"><ele>602.0</ele><time>2026-04-18T07:31:48Z</time></trkpt><trkpt lat="47.99494580964025" lon="11.677978646216971"><ele>602.0</ele><time>2026-04-18T07:31:49Z</time></trkpt><trkpt lat="47.99481848558148" lon="11.678067057735275"><ele>602.0</ele><time>2026-04-18T07:31:50Z</time></trkpt><trkpt lat="47.99469249486011" lon="11.678157887688071"><ele>602.0</ele><time>2026-04-18T07:31:51Z</time></trkpt><trkpt lat="47.994565335563564" lon="11.678246585107125"><ele>602.0</ele><time>2026-04-18T07:31:52Z</time></trkpt><trkpt lat="47.99443840269187" lon="11.678333483177315"><ele>602.0</ele><time>2026-04-18T07:31:53Z</time></trkpt><trkpt lat="47.99430840930023" lon="11.678421582334163"><ele>602.0</ele><time>2026-04-18T07:31:54Z</time></trkpt><trkpt lat="47.994176877712256" lon="11.678510779338364"><ele>602.0</ele><time>2026-04-18T07:31:55Z</time></trkpt><trkpt lat="47.99404351218434" lon="11.678603065075501"><ele>602.0</ele><time>2026-04-18T07:31:56Z</time></trkpt><trkpt lat="47.99391013707772" lon="11.678697470404021"><ele>603.25</ele><time>2026-04-18T07:31:57Z</time></trkpt><trkpt lat="47.993776738480356" lon="11.678788450530128"><ele>604.5</ele><time>2026-04-18T07:31:58Z</time></trkpt><trkpt lat="47.99364444501498" lon="11.67887306264813"><ele>605.75</ele><time>2026-04-18T07:31:59Z</time></trkpt><trkpt lat="47.99351586581679" lon="11.678954882457399"><ele>607.0</ele><time>2026-04-18T07:32:00Z</time></trkpt><trkpt lat="47.993387622597" lon="11.679035872958416"><ele>607.0</ele><time>2026-04-18T07:32:01Z</time></trkpt><trkpt lat="47.99325781111179" lon="11.679114993244024"><ele>607.0</ele><time>2026-04-18T07:32:02Z</time></trkpt><trkpt lat="47.993128382122" lon="11.67919383722368"><ele>607.0</ele><time>2026-04-18T07:32:03Z</time></trkpt><trkpt lat="47.9929988134446" lon="11.67927264208085"><ele>607.0</ele><time>2026-04-18T07:32:04Z</time></trkpt><trkpt lat="47.99286704949957" lon="11.679348491723294"><ele>607.0</ele><time>2026-04-18T07:32:05Z</time></trkpt><trkpt lat="47.99273397174077" lon="11.67942205768892"><ele>607.0</ele><time>2026-04-18T07:32:06Z</time></trkpt><trkpt lat="47.99259844689715" lon="11.679494490175589"><ele>607.0</ele><time>2026-04-18T07:32:07Z</time></trkpt><trkpt lat="47.99246181915791" lon="11.67956690595811"><ele>607.0</ele><time>2026-04-18T07:32:08Z</time></trkpt><trkpt lat="47.99232344416824" lon="11.67963943084393"><ele>607.25</ele><time>2026-04-18T07:32:09Z</time></trkpt><trkpt lat="47.992185742017845" lon="11.679713138775911"><ele>607.5</ele><time>2026-04-18T07:32:10Z</time></trkpt><trkpt lat="47.99205144786923" lon="11.679783802867188"><ele>607.75</ele><time>2026-04-18T07:32:11Z</time></trkpt><trkpt lat="47.99192370741786" lon="11.679851395662405"><ele>608.0</ele><time>2026-04-18T07:32:12Z</time></trkpt><trkpt lat="47.99179828318849" lon="11.67991877737632"><ele>608.75</ele><time>2026-04-18T07:32:13Z</time></trkpt><trkpt lat="47.99167156427788" lon="11.679985595715776"><ele>609.5</ele><time>2026-04-18T07:32:14Z</time></trkpt><trkpt lat="47.99154259735593" lon="11.680053489245521"><ele>610.25</ele><time>2026-04-18T07:32:15Z</time></trkpt><trkpt lat="47.99140982164189" lon="11.68012009184906"><ele>611.0</ele><time>2026-04-18T07:32:16Z</time></trkpt><trkpt lat="47.99127464289281" lon="11.680186922953292"><ele>611.0</ele><time>2026-04-18T07:32:17Z</time></trkpt><trkpt lat="47.991135609919674" lon="11.680253365048458"><ele>611.0</ele><time>2026-04-18T07:32:18Z</time></trkpt><trkpt lat="47.99099506209641" lon="11.680319984989165"><ele>611.0</ele><time>2026-04-18T07:32:19Z</time></trkpt><trkpt lat="47.990852559343864" lon="11.680385167474647"><ele>611.0</ele><time>2026-04-18T07:32:20Z</time></trkpt><trkpt lat="47.990710687019195" lon="11.680451975741407"><ele>610.0</ele><time>2026-04-18T07:32:21Z</time></trkpt><trkpt lat="47.99056733035391" lon="11.680518328661991"><ele>609.0</ele><time>2026-04-18T07:32:22Z</time></trkpt><trkpt lat="47.99042355534415" lon="11.680585296015492"><ele>608.0</ele><time>2026-04-18T07:32:23Z</time></trkpt><trkpt lat="47.99028101499024" lon="11.680648197879501"><ele>607.0</ele><time>2026-04-18T07:32:24Z</time></trkpt><trkpt lat="47.99013944515083" lon="11.680701119706702"><ele>608.5</ele><time>2026-04-18T07:32:25Z</time></trkpt><trkpt lat="47.990000844098056" lon="11.680753063958832"><ele>610.0</ele><time>2026-04-18T07:32:26Z</time></trkpt><trkpt lat="47.989869251951156" lon="11.680802500200246"><ele>611.5</ele><time>2026-04-18T07:32:27Z</time></trkpt><trkpt lat="47.98974302575522" lon="11.680856421586098"><ele>613.0</ele><time>2026-04-18T07:32:28Z</time></trkpt><trkpt lat="47.98961719743874" lon="11.680897972866749"><ele>613.0</ele><time>2026-04-18T07:32:29Z</time></trkpt><trkpt lat="47.98949154778024" lon="11.680968395612126"><ele>613.0</ele><time>2026-04-18T07:32:30Z</time></trkpt><trkpt lat="47.989353711317854" lon="11.681041034380636"><ele>613.0</ele><time>2026-04-18T07:32:31Z</time></trkpt><trkpt lat="47.98921112376625" lon="11.681098423784587"><ele>613.0</ele><time>2026-04-18T07:32:32Z</time></trkpt><trkpt lat="47.98906385563488" lon="11.681144066700144"><ele>613.0</ele><time>2026-04-18T07:32:33Z</time></trkpt><trkpt lat="47.98891701756761" lon="11.681188948166268"><ele>613.0</ele><time>2026-04-18T07:32:34Z</time></trkpt><trkpt lat="47.98876967382154" lon="11.681232330760155"><ele>613.0</ele><time>2026-04-18T07:32:35Z</time></trkpt><trkpt lat="47.98862413372785" lon="11.681278265631923"><ele>613.0</ele><time>2026-04-18T07:32:36Z</time></trkpt><trkpt lat="47.98847744951957" lon="11.681323399049111"><ele>612.6666666666667</ele><time>2026-04-18T07:32:37Z</time></trkpt><trkpt lat="47.98833019863827" lon="11.681368806410596"><ele>612.3333333333334</ele><time>2026-04-18T07:32:38Z</time></trkpt><trkpt lat="47.98818195052404" lon="11.681415198916087"><ele>612.0</ele><time>2026-04-18T07:32:39Z</time></trkpt><trkpt lat="47.988032749317185" lon="11.681458570961095"><ele>612.0</ele><time>2026-04-18T07:32:40Z</time></trkpt><trkpt lat="47.98788284208727" lon="11.681499630103371"><ele>612.0</ele><time>2026-04-18T07:32:41Z</time></trkpt><trkpt lat="47.987733436137205" lon="11.68154644904135"><ele>612.0</ele><time>2026-04-18T07:32:42Z</time></trkpt><trkpt lat="47.9875800747258" lon="11.681586317891288"><ele>612.0</ele><time>2026-04-18T07:32:43Z</time></trkpt><trkpt lat="47.98742838906684" lon="11.681627709280923"><ele>612.0</ele><time>2026-04-18T07:32:44Z</time></trkpt><trkpt lat="47.987276184456725" lon="11.681668883365422"><ele>612.0</ele><time>2026-04-18T07:32:45Z</time></trkpt><trkpt lat="47.98712342170548" lon="11.681711060738726"><ele>612.0</ele><time>2026-04-18T07:32:46Z</time></trkpt><trkpt lat="47.98696802211761" lon="11.681755583720607"><ele>612.0</ele><time>2026-04-18T07:32:47Z</time></trkpt><trkpt lat="47.98681052665748" lon="11.681801761132204"><ele>612.0</ele><time>2026-04-18T07:32:48Z</time></trkpt><trkpt lat="47.98664918783284" lon="11.681849257710725"><ele>612.0</ele><time>2026-04-18T07:32:49Z</time></trkpt><trkpt lat="47.986487177725614" lon="11.681898655560603"><ele>612.0</ele><time>2026-04-18T07:32:50Z</time></trkpt><trkpt lat="47.98632454515919" lon="11.681945410330739"><ele>612.0</ele><time>2026-04-18T07:32:51Z</time></trkpt><trkpt lat="47.98617260476392" lon="11.681989786128455"><ele>612.0</ele><time>2026-04-18T07:32:52Z</time></trkpt><trkpt lat="47.98602584230251" lon="11.682030022072402"><ele>612.0</ele><time>2026-04-18T07:32:53Z</time></trkpt><trkpt lat="47.9858758986132" lon="11.682072440129257"><ele>612.0</ele><time>2026-04-18T07:32:54Z</time></trkpt><trkpt lat="47.985729308037264" lon="11.682113048695275"><ele>612.0</ele><time>2026-04-18T07:32:55Z</time></trkpt><trkpt lat="47.98558424407301" lon="11.682154860738011"><ele>612.0</ele><time>2026-04-18T07:32:56Z</time></trkpt><trkpt lat="47.98543687573938" lon="11.682194420021734"><ele>612.0</ele><time>2026-04-18T07:32:57Z</time></trkpt><trkpt lat="47.985290747475354" lon="11.682233449760608"><ele>612.0</ele><time>2026-04-18T07:32:58Z</time></trkpt><trkpt lat="47.985144154760704" lon="11.682276453068006"><ele>612.0</ele><time>2026-04-18T07:32:59Z</time></trkpt><trkpt lat="47.985000034548335" lon="11.682321361814314"><ele>612.0</ele><time>2026-04-18T07:33:00Z</time></trkpt><trkpt lat="47.984852052839805" lon="11.682364184568744"><ele>612.0</ele><time>2026-04-18T07:33:01Z</time></trkpt><trkpt lat="47.98470275419669" lon="11.682404047309538"><ele>612.0</ele><time>2026-04-18T07:33:02Z</time></trkpt><trkpt lat="47.984566067395754" lon="11.682439527329214"><ele>612.0</ele><time>2026-04-18T07:33:03Z</time></trkpt><trkpt lat="47.9844326120461" lon="11.682475198211232"><ele>612.0</ele><time>2026-04-18T07:33:04Z</time></trkpt><trkpt lat="47.98429591469028" lon="11.68250998678904"><ele>612.0</ele><time>2026-04-18T07:33:05Z</time></trkpt><trkpt lat="47.984151867655505" lon="11.682548820308625"><ele>612.6666666666666</ele><time>2026-04-18T07:33:06Z</time></trkpt><trkpt lat="47.98400540253646" lon="11.682591763761526"><ele>613.3333333333333</ele><time>2026-04-18T07:33:07Z</time></trkpt><trkpt lat="47.983858195746585" lon="11.682632368029074"><ele>614.0</ele><time>2026-04-18T07:33:08Z</time></trkpt><trkpt lat="47.9837095958741" lon="11.682671745071172"><ele>614.0</ele><time>2026-04-18T07:33:09Z</time></trkpt><trkpt lat="47.983563747210894" lon="11.682713591600384"><ele>614.0</ele><time>2026-04-18T07:33:10Z</time></trkpt><trkpt lat="47.98342006151192" lon="11.68275642012663"><ele>614.0</ele><time>2026-04-18T07:33:11Z</time></trkpt><trkpt lat="47.98327827219692" lon="11.682799554525307"><ele>614.0</ele><time>2026-04-18T07:33:12Z</time></trkpt><trkpt lat="47.983136109656726" lon="11.682842207290753"><ele>614.25</ele><time>2026-04-18T07:33:13Z</time></trkpt><trkpt lat="47.98299794266307" lon="11.682879108590726"><ele>614.5</ele><time>2026-04-18T07:33:14Z</time></trkpt><trkpt lat="47.982861473736996" lon="11.68291747879744"><ele>614.75</ele><time>2026-04-18T07:33:15Z</time></trkpt><trkpt lat="47.98272380717563" lon="11.68295448165934"><ele>615.0</ele><time>2026-04-18T07:33:16Z</time></trkpt><trkpt lat="47.982584265040835" lon="11.682992713580637"><ele>615.3333333333334</ele><time>2026-04-18T07:33:17Z</time></trkpt><trkpt lat="47.9824385482958" lon="11.683033238280748"><ele>615.6666666666667</ele><time>2026-04-18T07:33:18Z</time></trkpt><trkpt lat="47.98227749552848" lon="11.683078511658726"><ele>616.0</ele><time>2026-04-18T07:33:19Z</time></trkpt><trkpt lat="47.98209958663057" lon="11.6831135064785"><ele>616.0</ele><time>2026-04-18T07:33:20Z</time></trkpt><trkpt lat="47.981906109391325" lon="11.683143697378062"><ele>616.0</ele><time>2026-04-18T07:33:21Z</time></trkpt><trkpt lat="47.98172568320976" lon="11.683173193213262"><ele>616.0</ele><time>2026-04-18T07:33:22Z</time></trkpt><trkpt lat="47.981562903432895" lon="11.683206536117538"><ele>616.0</ele><time>2026-04-18T07:33:23Z</time></trkpt><trkpt lat="47.98140439725193" lon="11.683248307431324"><ele>616.0</ele><time>2026-04-18T07:33:24Z</time></trkpt><trkpt lat="47.98124711742978" lon="11.683293557660672"><ele>616.0</ele><time>2026-04-18T07:33:25Z</time></trkpt><trkpt lat="47.98109102409431" lon="11.683340347917943"><ele>616.0</ele><time>2026-04-18T07:33:26Z</time></trkpt><trkpt lat="47.980935367977025" lon="11.683384730558531"><ele>616.0</ele><time>2026-04-18T07:33:27Z</time></trkpt><trkpt lat="47.98078018936432" lon="11.683430861849022"><ele>616.0</ele><time>2026-04-18T07:33:28Z</time></trkpt><trkpt lat="47.98062888052225" lon="11.68347437000412"><ele>615.6666666666667</ele><time>2026-04-18T07:33:29Z</time></trkpt><trkpt lat="47.98047946528603" lon="11.68351642512188"><ele>615.3333333333334</ele><time>2026-04-18T07:33:30Z</time></trkpt><trkpt lat="47.98033134104833" lon="11.683558686734411"><ele>615.0</ele><time>2026-04-18T07:33:31Z</time></trkpt><trkpt lat="47.98018440255508" lon="11.683601074149113"><ele>615.0</ele><time>2026-04-18T07:33:32Z</time></trkpt><trkpt lat="47.98003905403032" lon="11.683642629231908"><ele>615.0</ele><time>2026-04-18T07:33:33Z</time></trkpt><trkpt lat="47.97989618390962" lon="11.683682684056706"><ele>615.0</ele><time>2026-04-18T07:33:34Z</time></trkpt><trkpt lat="47.97975456291025" lon="11.68372250019361"><ele>615.0</ele><time>2026-04-18T07:33:35Z</time></trkpt><trkpt lat="47.97961283168688" lon="11.683761205368995"><ele>615.0</ele><time>2026-04-18T07:33:36Z</time></trkpt><trkpt lat="47.97946830343006" lon="11.68380204125826"><ele>615.0</ele><time>2026-04-18T07:33:37Z</time></trkpt><trkpt lat="47.97932249878651" lon="11.683846092410548"><ele>615.0</ele><time>2026-04-18T07:33:38Z</time></trkpt><trkpt lat="47.97917865649589" lon="11.683885430122084"><ele>615.0</ele><time>2026-04-18T07:33:39Z</time></trkpt><trkpt lat="47.97903387753515" lon="11.683925268032642"><ele>615.0</ele><time>2026-04-18T07:33:40Z</time></trkpt><trkpt lat="47.97888934867349" lon="11.683964622801556"><ele>615.0</ele><time>2026-04-18T07:33:41Z</time></trkpt><trkpt lat="47.97874564939396" lon="11.684004738655062"><ele>615.0</ele><time>2026-04-18T07:33:42Z</time></trkpt><trkpt lat="47.97860212160529" lon="11.684045266047125"><ele>615.0</ele><time>2026-04-18T07:33:43Z</time></trkpt><trkpt lat="47.97845943570451" lon="11.684085417108417"><ele>616.25</ele><time>2026-04-18T07:33:44Z</time></trkpt><trkpt lat="47.978315059987516" lon="11.68412560151056"><ele>617.5</ele><time>2026-04-18T07:33:45Z</time></trkpt><trkpt lat="47.978172132944344" lon="11.6841679696042"><ele>618.75</ele><time>2026-04-18T07:33:46Z</time></trkpt><trkpt lat="47.978028882615" lon="11.684211229655125"><ele>620.0</ele><time>2026-04-18T07:33:47Z</time></trkpt><trkpt lat="47.97788537770941" lon="11.684251007551069"><ele>620.0</ele><time>2026-04-18T07:33:48Z</time></trkpt><trkpt lat="47.97774171480126" lon="11.684289805514275"><ele>620.0</ele><time>2026-04-18T07:33:49Z</time></trkpt><trkpt lat="47.9775965094381" lon="11.684330169210885"><ele>620.0</ele><time>2026-04-18T07:33:50Z</time></trkpt><trkpt lat="47.97745041071543" lon="11.68437907464272"><ele>620.0</ele><time>2026-04-18T07:33:51Z</time></trkpt><trkpt lat="47.97730409007161" lon="11.684426191789454"><ele>619.5</ele><time>2026-04-18T07:33:52Z</time></trkpt><trkpt lat="47.97715741369603" lon="11.684464765960747"><ele>619.0</ele><time>2026-04-18T07:33:53Z</time></trkpt><trkpt lat="47.97701209406777" lon="11.68450009976949"><ele>618.5</ele><time>2026-04-18T07:33:54Z</time></trkpt><trkpt lat="47.9768639631107" lon="11.684543120833911"><ele>618.0</ele><time>2026-04-18T07:33:55Z</time></trkpt><trkpt lat="47.976715137585714" lon="11.684585538835163"><ele>618.25</ele><time>2026-04-18T07:33:56Z</time></trkpt><trkpt lat="47.9765662086873" lon="11.6846268848207"><ele>618.5</ele><time>2026-04-18T07:33:57Z</time></trkpt><trkpt lat="47.97642014936265" lon="11.684667426857946"><ele>618.75</ele><time>2026-04-18T07:33:58Z</time></trkpt><trkpt lat="47.976276044135865" lon="11.684708712510595"><ele>619.0</ele><time>2026-04-18T07:33:59Z</time></trkpt><trkpt lat="47.976137970920405" lon="11.684748219489823"><ele>619.0</ele><time>2026-04-18T07:34:00Z</time></trkpt><trkpt lat="47.976001547561424" lon="11.684785288846056"><ele>619.0</ele><time>2026-04-18T07:34:01Z</time></trkpt><trkpt lat="47.9758631178705" lon="11.684824862235432"><ele>619.0</ele><time>2026-04-18T07:34:02Z</time></trkpt><trkpt lat="47.97572285317588" lon="11.684865716987925"><ele>619.0</ele><time>2026-04-18T07:34:03Z</time></trkpt><trkpt lat="47.975582465344786" lon="11.684903741148311"><ele>620.5</ele><time>2026-04-18T07:34:04Z</time></trkpt><trkpt lat="47.975444138588244" lon="11.684941656674036"><ele>622.0</ele><time>2026-04-18T07:34:05Z</time></trkpt><trkpt lat="47.97530571635305" lon="11.68497779670558"><ele>623.5</ele><time>2026-04-18T07:34:06Z</time></trkpt><trkpt lat="47.975169653478396" lon="11.685014714738061"><ele>625.0</ele><time>2026-04-18T07:34:07Z</time></trkpt><trkpt lat="47.97503282584047" lon="11.685057798596231"><ele>626.0</ele><time>2026-04-18T07:34:08Z</time></trkpt><trkpt lat="47.9748966307066" lon="11.685098930227264"><ele>627.0</ele><time>2026-04-18T07:34:09Z</time></trkpt><trkpt lat="47.974761794337915" lon="11.68513920549986"><ele>628.0</ele><time>2026-04-18T07:34:10Z</time></trkpt><trkpt lat="47.97462845913768" lon="11.685177910609314"><ele>629.0</ele><time>2026-04-18T07:34:11Z</time></trkpt><trkpt lat="47.97449754185444" lon="11.685213073596321"><ele>629.0</ele><time>2026-04-18T07:34:12Z</time></trkpt><trkpt lat="47.974374144676354" lon="11.685247163987091"><ele>629.0</ele><time>2026-04-18T07:34:13Z</time></trkpt><trkpt lat="47.97425467032158" lon="11.685278766851415"><ele>629.0</ele><time>2026-04-18T07:34:14Z</time></trkpt><trkpt lat="47.97414215220315" lon="11.6853091656845"><ele>629.0</ele><time>2026-04-18T07:34:15Z</time></trkpt><trkpt lat="47.97403716576646" lon="11.685339882056358"><ele>629.0</ele><time>2026-04-18T07:34:16Z</time></trkpt><trkpt lat="47.97393645563212" lon="11.685366650368334"><ele>629.0</ele><time>2026-04-18T07:34:17Z</time></trkpt><trkpt lat="47.97384412354903" lon="11.685393462459325"><ele>629.0</ele><time>2026-04-18T07:34:18Z</time></trkpt><trkpt lat="47.973755061223535" lon="11.685422665838212"><ele>629.0</ele><time>2026-04-18T07:34:19Z</time></trkpt><trkpt lat="47.97366603116009" lon="11.685447921418087"><ele>629.0</ele><time>2026-04-18T07:34:20Z</time></trkpt><trkpt lat="47.97357597438065" lon="11.685473099699134"><ele>629.0</ele><time>2026-04-18T07:34:21Z</time></trkpt><trkpt lat="47.97348481590898" lon="11.685498061978878"><ele>629.0</ele><time>2026-04-18T07:34:22Z</time></trkpt><trkpt lat="47.97338747201137" lon="11.685527126729053"><ele>629.0</ele><time>2026-04-18T07:34:23Z</time></trkpt><trkpt lat="47.973283545721806" lon="11.685555860999068"><ele>629.0</ele><time>2026-04-18T07:34:24Z</time></trkpt><trkpt lat="47.97317481337203" lon="11.685588042179528"><ele>629.0</ele><time>2026-04-18T07:34:25Z</time></trkpt><trkpt lat="47.97306494760269" lon="11.685618520721029"><ele>627.6</ele><time>2026-04-18T07:34:26Z</time></trkpt><trkpt lat="47.97295467925951" lon="11.685648809132806"><ele>626.2</ele><time>2026-04-18T07:34:27Z</time></trkpt><trkpt lat="47.972843499918184" lon="11.685680367647647"><ele>624.8000000000001</ele><time>2026-04-18T07:34:28Z</time></trkpt><trkpt lat="47.97273602320863" lon="11.685709064536173"><ele>623.4</ele><time>2026-04-18T07:34:29Z</time></trkpt><trkpt lat="47.972634604526164" lon="11.685738940555874"><ele>622.0</ele><time>2026-04-18T07:34:30Z</time></trkpt><trkpt lat="47.97253805864767" lon="11.685763138427381"><ele>621.8000000000001</ele><time>2026-04-18T07:34:31Z</time></trkpt><trkpt lat="47.97244394917044" lon="11.68578972061505"><ele>621.6</ele><time>2026-04-18T07:34:32Z</time></trkpt><trkpt lat="47.97235191015653" lon="11.68581509396084"><ele>621.4000000000001</ele><time>2026-04-18T07:34:33Z</time></trkpt><trkpt lat="47.97225929531886" lon="11.685844325349002"><ele>621.2</ele><time>2026-04-18T07:34:34Z</time></trkpt><trkpt lat="47.97216622859009" lon="11.685873249693197"><ele>621.0</ele><time>2026-04-18T07:34:35Z</time></trkpt><trkpt lat="47.97206944439477" lon="11.685900286571082"><ele>621.0</ele><time>2026-04-18T07:34:36Z</time></trkpt><trkpt lat="47.97197135583142" lon="11.685939435127453"><ele>621.0</ele><time>2026-04-18T07:34:37Z</time></trkpt><trkpt lat="47.97187154330048" lon="11.685955783728932"><ele>621.0</ele><time>2026-04-18T07:34:38Z</time></trkpt><trkpt lat="47.97177514787848" lon="11.685984230821253"><ele>621.0</ele><time>2026-04-18T07:34:39Z</time></trkpt><trkpt lat="47.971682138469575" lon="11.686012294086403"><ele>621.0</ele><time>2026-04-18T07:34:40Z</time></trkpt><trkpt lat="47.9715890019151" lon="11.686041282817111"><ele>621.4</ele><time>2026-04-18T07:34:41Z</time></trkpt><trkpt lat="47.971495294567646" lon="11.68606763853021"><ele>621.8</ele><time>2026-04-18T07:34:42Z</time></trkpt><trkpt lat="47.97140256496864" lon="11.686093069195511"><ele>622.1999999999999</ele><time>2026-04-18T07:34:43Z</time></trkpt><trkpt lat="47.97130835992593" lon="11.68612232796965"><ele>622.6</ele><time>2026-04-18T07:34:44Z</time></trkpt><trkpt lat="47.97119955929916" lon="11.686156203818102"><ele>623.0</ele><time>2026-04-18T07:34:45Z</time></trkpt><trkpt lat="47.971072949444164" lon="11.686200702662724"><ele>623.0</ele><time>2026-04-18T07:34:46Z</time></trkpt><trkpt lat="47.97092495727926" lon="11.686262579953226"><ele>623.0</ele><time>2026-04-18T07:34:47Z</time></trkpt><trkpt lat="47.97076118269947" lon="11.686328930220228"><ele>623.0</ele><time>2026-04-18T07:34:48Z</time></trkpt><trkpt lat="47.970584695397825" lon="11.686389880599702"><ele>623.0</ele><time>2026-04-18T07:34:49Z</time></trkpt><trkpt lat="47.970418341338764" lon="11.686436678399124"><ele>623.0</ele><time>2026-04-18T07:34:50Z</time></trkpt><trkpt lat="47.970255200957965" lon="11.68648273419081"><ele>623.0</ele><time>2026-04-18T07:34:51Z</time></trkpt><trkpt lat="47.970096671493636" lon="11.686526246986764"><ele>623.0</ele><time>2026-04-18T07:34:52Z</time></trkpt><trkpt lat="47.969941200739626" lon="11.686569413867769"><ele>623.0</ele><time>2026-04-18T07:34:53Z</time></trkpt><trkpt lat="47.96978384476087" lon="11.686616314271507"><ele>623.0</ele><time>2026-04-18T07:34:54Z</time></trkpt><trkpt lat="47.96962860629461" lon="11.686661349166355"><ele>623.0</ele><time>2026-04-18T07:34:55Z</time></trkpt><trkpt lat="47.969477904229194" lon="11.686705327818622"><ele>623.0</ele><time>2026-04-18T07:34:56Z</time></trkpt><trkpt lat="47.96933388978836" lon="11.686746054219217"><ele>623.0</ele><time>2026-04-18T07:34:57Z</time></trkpt><trkpt lat="47.969182779283706" lon="11.686788658773143"><ele>623.0</ele><time>2026-04-18T07:34:58Z</time></trkpt><trkpt lat="47.96902933658577" lon="11.686829539394592"><ele>623.0</ele><time>2026-04-18T07:34:59Z</time></trkpt><trkpt lat="47.96887899562607" lon="11.68686972955256"><ele>623.0</ele><time>2026-04-18T07:35:00Z</time></trkpt><trkpt lat="47.968735384565385" lon="11.686909353244014"><ele>623.25</ele><time>2026-04-18T07:35:01Z</time></trkpt><trkpt lat="47.9685971937558" lon="11.686948962539372"><ele>623.5</ele><time>2026-04-18T07:35:02Z</time></trkpt><trkpt lat="47.96845752942026" lon="11.68699071635776"><ele>623.75</ele><time>2026-04-18T07:35:03Z</time></trkpt><trkpt lat="47.968317304460086" lon="11.687031971249116"><ele>624.0</ele><time>2026-04-18T07:35:04Z</time></trkpt><trkpt lat="47.968174455611475" lon="11.68707088924975"><ele>624.0</ele><time>2026-04-18T07:35:05Z</time></trkpt><trkpt lat="47.968023526206274" lon="11.687112331978737"><ele>624.0</ele><time>2026-04-18T07:35:06Z</time></trkpt><trkpt lat="47.96786788032988" lon="11.687154681544728"><ele>624.0</ele><time>2026-04-18T07:35:07Z</time></trkpt><trkpt lat="47.96771033886989" lon="11.68719611591873"><ele>624.0</ele><time>2026-04-18T07:35:08Z</time></trkpt><trkpt lat="47.967557813572334" lon="11.687242330835558"><ele>624.0</ele><time>2026-04-18T07:35:09Z</time></trkpt><trkpt lat="47.96740646332774" lon="11.687287132182702"><ele>624.0</ele><time>2026-04-18T07:35:10Z</time></trkpt><trkpt lat="47.96725561672465" lon="11.687329464932464"><ele>624.6666666666666</ele><time>2026-04-18T07:35:11Z</time></trkpt><trkpt lat="47.9671037284543" lon="11.687369982823418"><ele>625.3333333333333</ele><time>2026-04-18T07:35:12Z</time></trkpt><trkpt lat="47.96695074795487" lon="11.687413706983957"><ele>626.0</ele><time>2026-04-18T07:35:13Z</time></trkpt><trkpt lat="47.96679900493725" lon="11.687457357956097"><ele>626.3333333333333</ele><time>2026-04-18T07:35:14Z</time></trkpt><trkpt lat="47.96664110743543" lon="11.687501089798513"><ele>626.6666666666666</ele><time>2026-04-18T07:35:15Z</time></trkpt><trkpt lat="47.9664842218059" lon="11.687541955291376"><ele>627.0</ele><time>2026-04-18T07:35:16Z</time></trkpt><trkpt lat="47.9663353961879" lon="11.687581561954303"><ele>627.0</ele><time>2026-04-18T07:35:17Z</time></trkpt><trkpt lat="47.96619182011327" lon="11.68762352281495"><ele>627.0</ele><time>2026-04-18T07:35:18Z</time></trkpt><trkpt lat="47.966053619796035" lon="11.687663479705048"><ele>627.0</ele><time>2026-04-18T07:35:19Z</time></trkpt><trkpt lat="47.96592031427705" lon="11.687704235923144"><ele>627.0</ele><time>2026-04-18T07:35:20Z</time></trkpt><trkpt lat="47.965790391828115" lon="11.687743507949214"><ele>627.75</ele><time>2026-04-18T07:35:21Z</time></trkpt><trkpt lat="47.96566374131336" lon="11.68778277120562"><ele>628.5</ele><time>2026-04-18T07:35:22Z</time></trkpt><trkpt lat="47.965529751871344" lon="11.687820519906046"><ele>629.25</ele><time>2026-04-18T07:35:23Z</time></trkpt><trkpt lat="47.96537976286858" lon="11.687861301930477"><ele>630.0</ele><time>2026-04-18T07:35:24Z</time></trkpt><trkpt lat="47.96521602781939" lon="11.68790891729595"><ele>630.0</ele><time>2026-04-18T07:35:25Z</time></trkpt><trkpt lat="47.965035463651105" lon="11.68796849551131"><ele>630.0</ele><time>2026-04-18T07:35:26Z</time></trkpt><trkpt lat="47.96483720923549" lon="11.688025208933206"><ele>630.0</ele><time>2026-04-18T07:35:27Z</time></trkpt><trkpt lat="47.96464628865785" lon="11.688061911947386"><ele>630.3333333333334</ele><time>2026-04-18T07:35:28Z</time></trkpt><trkpt lat="47.964474725617286" lon="11.688106841410503"><ele>630.6666666666667</ele><time>2026-04-18T07:35:29Z</time></trkpt><trkpt lat="47.96432241060981" lon="11.68815268102465"><ele>631.0</ele><time>2026-04-18T07:35:30Z</time></trkpt><trkpt lat="47.964172993417556" lon="11.688197061713849"><ele>631.0</ele><time>2026-04-18T07:35:31Z</time></trkpt><trkpt lat="47.964032264787015" lon="11.688236609972966"><ele>631.0</ele><time>2026-04-18T07:35:32Z</time></trkpt><trkpt lat="47.96388957137411" lon="11.688280323363363"><ele>631.0</ele><time>2026-04-18T07:35:33Z</time></trkpt><trkpt lat="47.96374616409271" lon="11.688329235305103"><ele>631.0</ele><time>2026-04-18T07:35:34Z</time></trkpt><trkpt lat="47.963605880012665" lon="11.688375660701965"><ele>631.0</ele><time>2026-04-18T07:35:35Z</time></trkpt><trkpt lat="47.96347319980565" lon="11.688416095415544"><ele>631.0</ele><time>2026-04-18T07:35:36Z</time></trkpt><trkpt lat="47.963342091206506" lon="11.688450761059258"><ele>631.0</ele><time>2026-04-18T07:35:37Z</time></trkpt><trkpt lat="47.96320775064392" lon="11.688492272568515"><ele>631.0</ele><time>2026-04-18T07:35:38Z</time></trkpt><trkpt lat="47.96307322957502" lon="11.688539305693787"><ele>630.75</ele><time>2026-04-18T07:35:39Z</time></trkpt><trkpt lat="47.96293616307378" lon="11.68858797521059"><ele>630.5</ele><time>2026-04-18T07:35:40Z</time></trkpt><trkpt lat="47.962798522049134" lon="11.68863504390325"><ele>630.25</ele><time>2026-04-18T07:35:41Z</time></trkpt><trkpt lat="47.962660245593646" lon="11.688676012607225"><ele>630.0</ele><time>2026-04-18T07:35:42Z</time></trkpt><trkpt lat="47.96252175325588" lon="11.688722704164663"><ele>630.0</ele><time>2026-04-18T07:35:43Z</time></trkpt><trkpt lat="47.96238354918351" lon="11.688771903580776"><ele>630.0</ele><time>2026-04-18T07:35:44Z</time></trkpt><trkpt lat="47.962246067902875" lon="11.688820203553751"><ele>630.0</ele><time>2026-04-18T07:35:45Z</time></trkpt><trkpt lat="47.96211074662373" lon="11.688868060041418"><ele>630.0</ele><time>2026-04-18T07:35:46Z</time></trkpt><trkpt lat="47.96197334019158" lon="11.688921078933202"><ele>630.0</ele><time>2026-04-18T07:35:47Z</time></trkpt><trkpt lat="47.96183487503417" lon="11.68897600512318"><ele>630.0</ele><time>2026-04-18T07:35:48Z</time></trkpt><trkpt lat="47.96169384380739" lon="11.689029364991681"><ele>630.0</ele><time>2026-04-18T07:35:49Z</time></trkpt><trkpt lat="47.96154849724755" lon="11.689078975052924"><ele>630.0</ele><time>2026-04-18T07:35:50Z</time></trkpt><trkpt lat="47.96140290759346" lon="11.689133332021948"><ele>630.0</ele><time>2026-04-18T07:35:51Z</time></trkpt><trkpt lat="47.961257823870675" lon="11.6891891441652"><ele>630.0</ele><time>2026-04-18T07:35:52Z</time></trkpt><trkpt lat="47.96110946636188" lon="11.689249485775157"><ele>630.0</ele><time>2026-04-18T07:35:53Z</time></trkpt><trkpt lat="47.96095952699917" lon="11.68931144784427"><ele>630.3333333333334</ele><time>2026-04-18T07:35:54Z</time></trkpt><trkpt lat="47.96080719452406" lon="11.689374323303959"><ele>630.6666666666667</ele><time>2026-04-18T07:35:55Z</time></trkpt><trkpt lat="47.960654930940585" lon="11.689440051490674"><ele>631.0</ele><time>2026-04-18T07:35:56Z</time></trkpt><trkpt lat="47.96050259387485" lon="11.689505036847024"><ele>632.3333333333334</ele><time>2026-04-18T07:35:57Z</time></trkpt><trkpt lat="47.960349837589575" lon="11.689570708831516"><ele>633.6666666666666</ele><time>2026-04-18T07:35:58Z</time></trkpt><trkpt lat="47.9601986032797" lon="11.689634986059461"><ele>635.0</ele><time>2026-04-18T07:35:59Z</time></trkpt><trkpt lat="47.960048616883554" lon="11.689701194277212"><ele>633.6666666666666</ele><time>2026-04-18T07:36:00Z</time></trkpt><trkpt lat="47.959899557047024" lon="11.689767620471589"><ele>632.3333333333334</ele><time>2026-04-18T07:36:01Z</time></trkpt><trkpt lat="47.95975250613966" lon="11.689835032669762"><ele>631.0</ele><time>2026-04-18T07:36:02Z</time></trkpt><trkpt lat="47.95960867778812" lon="11.689901096399005"><ele>631.0</ele><time>2026-04-18T07:36:03Z</time></trkpt><trkpt lat="47.95947180556259" lon="11.689963020757377"><ele>631.0</ele><time>2026-04-18T07:36:04Z</time></trkpt><trkpt lat="47.95933474576027" lon="11.69002815018353"><ele>631.0</ele><time>2026-04-18T07:36:05Z</time></trkpt><trkpt lat="47.959194181474935" lon="11.690091625048401"><ele>631.0</ele><time>2026-04-18T07:36:06Z</time></trkpt><trkpt lat="47.95905298886588" lon="11.690158648873837"><ele>631.5</ele><time>2026-04-18T07:36:07Z</time></trkpt><trkpt lat="47.95891198974907" lon="11.690226133659005"><ele>632.0</ele><time>2026-04-18T07:36:08Z</time></trkpt><trkpt lat="47.958771433627284" lon="11.690293602165553"><ele>632.5</ele><time>2026-04-18T07:36:09Z</time></trkpt><trkpt lat="47.95863295367601" lon="11.690361657766987"><ele>633.0</ele><time>2026-04-18T07:36:10Z</time></trkpt><trkpt lat="47.95849472286859" lon="11.690428975741671"><ele>632.75</ele><time>2026-04-18T07:36:11Z</time></trkpt><trkpt lat="47.95835695803942" lon="11.690496698966058"><ele>632.5</ele><time>2026-04-18T07:36:12Z</time></trkpt><trkpt lat="47.95822130134966" lon="11.69056688257433"><ele>632.25</ele><time>2026-04-18T07:36:13Z</time></trkpt><trkpt lat="47.95808590290328" lon="11.690637267167645"><ele>632.0</ele><time>2026-04-18T07:36:14Z</time></trkpt><trkpt lat="47.95795086928316" lon="11.690709141212851"><ele>632.0</ele><time>2026-04-18T07:36:15Z</time></trkpt><trkpt lat="47.95781356407895" lon="11.690780538187264"><ele>632.0</ele><time>2026-04-18T07:36:16Z</time></trkpt><trkpt lat="47.957675341210965" lon="11.690852995559522"><ele>632.0</ele><time>2026-04-18T07:36:17Z</time></trkpt><trkpt lat="47.957536100251836" lon="11.690927239681455"><ele>632.0</ele><time>2026-04-18T07:36:18Z</time></trkpt><trkpt lat="47.957391131437355" lon="11.691008802165205"><ele>632.6666666666666</ele><time>2026-04-18T07:36:19Z</time></trkpt><trkpt lat="47.95723910216595" lon="11.691092386237312"><ele>633.3333333333334</ele><time>2026-04-18T07:36:20Z</time></trkpt><trkpt lat="47.95709223420785" lon="11.691173786942507"><ele>634.0</ele><time>2026-04-18T07:36:21Z</time></trkpt><trkpt lat="47.95694593028792" lon="11.691254219382294"><ele>634.0</ele><time>2026-04-18T07:36:22Z</time></trkpt><trkpt lat="47.95679887354355" lon="11.691336924225043"><ele>634.0</ele><time>2026-04-18T07:36:23Z</time></trkpt><trkpt lat="47.95665078208331" lon="11.69142027560688"><ele>634.0</ele><time>2026-04-18T07:36:24Z</time></trkpt><trkpt lat="47.95650477830804" lon="11.69150583648502"><ele>633.6666666666667</ele><time>2026-04-18T07:36:25Z</time></trkpt><trkpt lat="47.95635876129252" lon="11.69159226626157"><ele>633.3333333333334</ele><time>2026-04-18T07:36:26Z</time></trkpt><trkpt lat="47.95621390000503" lon="11.691677804237163"><ele>633.0</ele><time>2026-04-18T07:36:27Z</time></trkpt><trkpt lat="47.95607008599044" lon="11.691761892627202"><ele>633.0</ele><time>2026-04-18T07:36:28Z</time></trkpt><trkpt lat="47.95592701869898" lon="11.69184675844565"><ele>633.0</ele><time>2026-04-18T07:36:29Z</time></trkpt><trkpt lat="47.95578469560068" lon="11.691931142640918"><ele>633.0</ele><time>2026-04-18T07:36:30Z</time></trkpt><trkpt lat="47.95564175747126" lon="11.692016074898618"><ele>633.0</ele><time>2026-04-18T07:36:31Z</time></trkpt><trkpt lat="47.95549943658439" lon="11.692103493373436"><ele>633.0</ele><time>2026-04-18T07:36:32Z</time></trkpt><trkpt lat="47.955358444003856" lon="11.692191509455231"><ele>633.0</ele><time>2026-04-18T07:36:33Z</time></trkpt><trkpt lat="47.9552181021062" lon="11.692281240770187"><ele>633.0</ele><time>2026-04-18T07:36:34Z</time></trkpt><trkpt lat="47.95507899496767" lon="11.692368558105105"><ele>633.0</ele><time>2026-04-18T07:36:35Z</time></trkpt><trkpt lat="47.954940729078764" lon="11.692457458120591"><ele>633.0</ele><time>2026-04-18T07:36:36Z</time></trkpt><trkpt lat="47.954802097729235" lon="11.692548530562702"><ele>633.0</ele><time>2026-04-18T07:36:37Z</time></trkpt><trkpt lat="47.954663564736535" lon="11.692639283194339"><ele>633.0</ele><time>2026-04-18T07:36:38Z</time></trkpt><trkpt lat="47.95452379906634" lon="11.692729707464094"><ele>633.0</ele><time>2026-04-18T07:36:39Z</time></trkpt><trkpt lat="47.954385404262744" lon="11.69282205554611"><ele>633.0</ele><time>2026-04-18T07:36:40Z</time></trkpt><trkpt lat="47.954245584132266" lon="11.692913872042723"><ele>633.0</ele><time>2026-04-18T07:36:41Z</time></trkpt><trkpt lat="47.95410550965763" lon="11.693007011799196"><ele>633.0</ele><time>2026-04-18T07:36:42Z</time></trkpt><trkpt lat="47.95396598237841" lon="11.693098085454846"><ele>632.75</ele><time>2026-04-18T07:36:43Z</time></trkpt><trkpt lat="47.95382684388529" lon="11.69318344338435"><ele>632.5</ele><time>2026-04-18T07:36:44Z</time></trkpt><trkpt lat="47.9536948483814" lon="11.693267094995754"><ele>632.25</ele><time>2026-04-18T07:36:45Z</time></trkpt><trkpt lat="47.95356201555293" lon="11.693354510285593"><ele>632.0</ele><time>2026-04-18T07:36:46Z</time></trkpt><trkpt lat="47.95342243986532" lon="11.693446319208276"><ele>633.0</ele><time>2026-04-18T07:36:47Z</time></trkpt><trkpt lat="47.953280113291974" lon="11.693540687581763"><ele>634.0</ele><time>2026-04-18T07:36:48Z</time></trkpt><trkpt lat="47.953136101579" lon="11.693633342428747"><ele>635.0</ele><time>2026-04-18T07:36:49Z</time></trkpt><trkpt lat="47.952985863564756" lon="11.69372689933122"><ele>635.0</ele><time>2026-04-18T07:36:50Z</time></trkpt><trkpt lat="47.95283350862689" lon="11.693824070068906"><ele>635.0</ele><time>2026-04-18T07:36:51Z</time></trkpt><trkpt lat="47.95266319759793" lon="11.693933941452855"><ele>635.0</ele><time>2026-04-18T07:36:52Z</time></trkpt><trkpt lat="47.95248318859713" lon="11.694049444469186"><ele>636.0</ele><time>2026-04-18T07:36:53Z</time></trkpt><trkpt lat="47.95229362370875" lon="11.694172479732218"><ele>637.0</ele><time>2026-04-18T07:36:54Z</time></trkpt><trkpt lat="47.95209659979118" lon="11.694304163692832"><ele>638.0</ele><time>2026-04-18T07:36:55Z</time></trkpt><trkpt lat="47.95189179520501" lon="11.694439911163109"><ele>637.0</ele><time>2026-04-18T07:36:56Z</time></trkpt><trkpt lat="47.951681099915305" lon="11.694577838888424"><ele>636.0</ele><time>2026-04-18T07:36:57Z</time></trkpt><trkpt lat="47.95146808664283" lon="11.694716923946203"><ele>636.0</ele><time>2026-04-18T07:36:58Z</time></trkpt><trkpt lat="47.95125877398276" lon="11.694850764503785"><ele>636.0</ele><time>2026-04-18T07:36:59Z</time></trkpt><trkpt lat="47.95105205660216" lon="11.694985126080573"><ele>635.5</ele><time>2026-04-18T07:37:00Z</time></trkpt><trkpt lat="47.95084212703528" lon="11.695120832029799"><ele>635.0</ele><time>2026-04-18T07:37:01Z</time></trkpt><trkpt lat="47.95062424465497" lon="11.69526117533852"><ele>635.0</ele><time>2026-04-18T07:37:02Z</time></trkpt><trkpt lat="47.95039936918314" lon="11.695404720721635"><ele>635.0</ele><time>2026-04-18T07:37:03Z</time></trkpt><trkpt lat="47.9501669391498" lon="11.695555134818308"><ele>636.0</ele><time>2026-04-18T07:37:04Z</time></trkpt><trkpt lat="47.94992511000264" lon="11.695712132896746"><ele>637.0</ele><time>2026-04-18T07:37:05Z</time></trkpt><trkpt lat="47.94967878944092" lon="11.695871745421773"><ele>637.0</ele><time>2026-04-18T07:37:06Z</time></trkpt><trkpt lat="47.949436351493986" lon="11.696027656147425"><ele>637.0</ele><time>2026-04-18T07:37:07Z</time></trkpt><trkpt lat="47.94919737396081" lon="11.696180806824616"><ele>637.5</ele><time>2026-04-18T07:37:08Z</time></trkpt><trkpt lat="47.94896294870967" lon="11.696331481079557"><ele>638.0</ele><time>2026-04-18T07:37:09Z</time></trkpt><trkpt lat="47.948732217863856" lon="11.696480650394246"><ele>638.0</ele><time>2026-04-18T07:37:10Z</time></trkpt><trkpt lat="47.948501737531394" lon="11.696629956047996"><ele>638.0</ele><time>2026-04-18T07:37:11Z</time></trkpt><trkpt lat="47.94827194467114" lon="11.696777192215755"><ele>641.0</ele><time>2026-04-18T07:37:12Z</time></trkpt><trkpt lat="47.94804952758225" lon="11.696919637224044"><ele>644.0</ele><time>2026-04-18T07:37:13Z</time></trkpt><trkpt lat="47.94783947447833" lon="11.6970531345679"><ele>644.0</ele><time>2026-04-18T07:37:14Z</time></trkpt><trkpt lat="47.947634177430864" lon="11.697184407687379"><ele>644.0</ele><time>2026-04-18T07:37:15Z</time></trkpt><trkpt lat="47.94743243193115" lon="11.69731415333104"><ele>644.0</ele><time>2026-04-18T07:37:16Z</time></trkpt><trkpt lat="47.947235589646915" lon="11.697445261741668"><ele>644.3333333333333</ele><time>2026-04-18T07:37:17Z</time></trkpt><trkpt lat="47.94705237280272" lon="11.697562868014439"><ele>644.6666666666666</ele><time>2026-04-18T07:37:18Z</time></trkpt><trkpt lat="47.94686914001336" lon="11.697680511957156"><ele>645.0</ele><time>2026-04-18T07:37:19Z</time></trkpt><trkpt lat="47.94668447638965" lon="11.69780106072811"><ele>645.0</ele><time>2026-04-18T07:37:20Z</time></trkpt><trkpt lat="47.94649605825329" lon="11.697925954005761"><ele>645.0</ele><time>2026-04-18T07:37:21Z</time></trkpt><trkpt lat="47.94629981919512" lon="11.698052426443068"><ele>645.0</ele><time>2026-04-18T07:37:22Z</time></trkpt><trkpt lat="47.94609832742394" lon="11.698181527957889"><ele>645.0</ele><time>2026-04-18T07:37:23Z</time></trkpt><trkpt lat="47.945892410426644" lon="11.698315624040392"><ele>645.0</ele><time>2026-04-18T07:37:24Z</time></trkpt><trkpt lat="47.94568336031722" lon="11.698448757296495"><ele>644.3333333333334</ele><time>2026-04-18T07:37:25Z</time></trkpt><trkpt lat="47.945476928313944" lon="11.698581815223596"><ele>643.6666666666667</ele><time>2026-04-18T07:37:26Z</time></trkpt><trkpt lat="47.945273702458" lon="11.698710187733663"><ele>643.0</ele><time>2026-04-18T07:37:27Z</time></trkpt><trkpt lat="47.94507428170573" lon="11.698840884232286"><ele>644.0</ele><time>2026-04-18T07:37:28Z</time></trkpt><trkpt lat="47.944875036318045" lon="11.698973180991292"><ele>645.0</ele><time>2026-04-18T07:37:29Z</time></trkpt><trkpt lat="47.94467692108955" lon="11.699103492615285"><ele>646.0</ele><time>2026-04-18T07:37:30Z</time></trkpt><trkpt lat="47.94447493000765" lon="11.699231473188602"><ele>646.0</ele><time>2026-04-18T07:37:31Z</time></trkpt><trkpt lat="47.944270782831126" lon="11.699361338004575"><ele>646.0</ele><time>2026-04-18T07:37:32Z</time></trkpt><trkpt lat="47.944062173961896" lon="11.699496351733655"><ele>646.0</ele><time>2026-04-18T07:37:33Z</time></trkpt><trkpt lat="47.94385373730065" lon="11.69963314327607"><ele>647.0</ele><time>2026-04-18T07:37:34Z</time></trkpt><trkpt lat="47.943642114244696" lon="11.699769887556391"><ele>648.0</ele><time>2026-04-18T07:37:35Z</time></trkpt><trkpt lat="47.943431842704435" lon="11.699911217816288"><ele>645.0</ele><time>2026-04-18T07:37:36Z</time></trkpt><trkpt lat="47.9432155915882" lon="11.700051189674259"><ele>642.0</ele><time>2026-04-18T07:37:37Z</time></trkpt><trkpt lat="47.942996309914584" lon="11.700195383905589"><ele>645.0</ele><time>2026-04-18T07:37:38Z</time></trkpt><trkpt lat="47.94277433026665" lon="11.70033814343332"><ele>648.0</ele><time>2026-04-18T07:37:39Z</time></trkpt><trkpt lat="47.94255260988927" lon="11.700479833276638"><ele>647.0</ele><time>2026-04-18T07:37:40Z</time></trkpt><trkpt lat="47.94233051107747" lon="11.700625877136327"><ele>646.0</ele><time>2026-04-18T07:37:41Z</time></trkpt><trkpt lat="47.942105575305575" lon="11.700772939852149"><ele>646.0</ele><time>2026-04-18T07:37:42Z</time></trkpt><trkpt lat="47.94188004884471" lon="11.70091798561239"><ele>646.0</ele><time>2026-04-18T07:37:43Z</time></trkpt><trkpt lat="47.94165156649633" lon="11.701064955353274"><ele>648.0</ele><time>2026-04-18T07:37:44Z</time></trkpt><trkpt lat="47.94142069829834" lon="11.701216385632392"><ele>650.0</ele><time>2026-04-18T07:37:45Z</time></trkpt><trkpt lat="47.94118789842657" lon="11.701366968197492"><ele>650.0</ele><time>2026-04-18T07:37:46Z</time></trkpt><trkpt lat="47.94095149102741" lon="11.701512935154533"><ele>650.0</ele><time>2026-04-18T07:37:47Z</time></trkpt><trkpt lat="47.94073135891959" lon="11.701671211921823"><ele>651.0</ele><time>2026-04-18T07:37:48Z</time></trkpt><trkpt lat="47.940491877607755" lon="11.701830234416141"><ele>652.0</ele><time>2026-04-18T07:37:49Z</time></trkpt><trkpt lat="47.94027245765166" lon="11.701996986134667"><ele>652.5</ele><time>2026-04-18T07:37:50Z</time></trkpt><trkpt lat="47.9400506261706" lon="11.702155923183302"><ele>653.0</ele><time>2026-04-18T07:37:51Z</time></trkpt><trkpt lat="47.93982196713455" lon="11.702305946140346"><ele>653.0</ele><time>2026-04-18T07:37:52Z</time></trkpt><trkpt lat="47.93958793614705" lon="11.702458297378529"><ele>653.0</ele><time>2026-04-18T07:37:53Z</time></trkpt><trkpt lat="47.939350734871" lon="11.702609695968514"><ele>650.5</ele><time>2026-04-18T07:37:54Z</time></trkpt><trkpt lat="47.939115037167305" lon="11.702758526129468"><ele>648.0</ele><time>2026-04-18T07:37:55Z</time></trkpt><trkpt lat="47.938879219786855" lon="11.702900464756983"><ele>648.0</ele><time>2026-04-18T07:37:56Z</time></trkpt><trkpt lat="47.93864288006913" lon="11.703036787320958"><ele>648.0</ele><time>2026-04-18T07:37:57Z</time></trkpt><trkpt lat="47.938413397939044" lon="11.703169813813446"><ele>647.5</ele><time>2026-04-18T07:37:58Z</time></trkpt><trkpt lat="47.938185946199006" lon="11.70331366129393"><ele>647.0</ele><time>2026-04-18T07:37:59Z</time></trkpt><trkpt lat="47.93795362389883" lon="11.703465034718716"><ele>648.5</ele><time>2026-04-18T07:38:00Z</time></trkpt><trkpt lat="47.93772040821294" lon="11.703616299654472"><ele>650.0</ele><time>2026-04-18T07:38:01Z</time></trkpt><trkpt lat="47.937487400326276" lon="11.703765119551889"><ele>650.0</ele><time>2026-04-18T07:38:02Z</time></trkpt><trkpt lat="47.93725054616683" lon="11.703917725536405"><ele>650.0</ele><time>2026-04-18T07:38:03Z</time></trkpt><trkpt lat="47.93701095939872" lon="11.704073081712217"><ele>650.0</ele><time>2026-04-18T07:38:04Z</time></trkpt><trkpt lat="47.93676243456036" lon="11.704236031782111"><ele>650.0</ele><time>2026-04-18T07:38:05Z</time></trkpt><trkpt lat="47.93650709237064" lon="11.704400569960587"><ele>652.5</ele><time>2026-04-18T07:38:06Z</time></trkpt><trkpt lat="47.93625113622901" lon="11.704564869467564"><ele>655.0</ele><time>2026-04-18T07:38:07Z</time></trkpt><trkpt lat="47.93599396556861" lon="11.704730416445322"><ele>654.5</ele><time>2026-04-18T07:38:08Z</time></trkpt><trkpt lat="47.93573916416816" lon="11.704893319615273"><ele>654.0</ele><time>2026-04-18T07:38:09Z</time></trkpt><trkpt lat="47.93548780574112" lon="11.705053903554509"><ele>654.0</ele><time>2026-04-18T07:38:10Z</time></trkpt><trkpt lat="47.9352387577147" lon="11.705216609377315"><ele>654.0</ele><time>2026-04-18T07:38:11Z</time></trkpt><trkpt lat="47.93499227942295" lon="11.705376028019536"><ele>655.5</ele><time>2026-04-18T07:38:12Z</time></trkpt><trkpt lat="47.93474538999699" lon="11.705538131475047"><ele>657.0</ele><time>2026-04-18T07:38:13Z</time></trkpt><trkpt lat="47.9344985066797" lon="11.705700134019546"><ele>657.0</ele><time>2026-04-18T07:38:14Z</time></trkpt><trkpt lat="47.93425021772619" lon="11.705865681488174"><ele>657.0</ele><time>2026-04-18T07:38:15Z</time></trkpt><trkpt lat="47.93400407076449" lon="11.706025602314206"><ele>656.5</ele><time>2026-04-18T07:38:16Z</time></trkpt><trkpt lat="47.93376034639588" lon="11.706179856001025"><ele>656.0</ele><time>2026-04-18T07:38:17Z</time></trkpt><trkpt lat="47.93351662336545" lon="11.70633483435191"><ele>656.0</ele><time>2026-04-18T07:38:18Z</time></trkpt><trkpt lat="47.93327857142275" lon="11.706492568440519"><ele>656.0</ele><time>2026-04-18T07:38:19Z</time></trkpt><trkpt lat="47.9330483931077" lon="11.7066560017169"><ele>656.0</ele><time>2026-04-18T07:38:20Z</time></trkpt><trkpt lat="47.932822457205944" lon="11.706821191013153"><ele>656.0</ele><time>2026-04-18T07:38:21Z</time></trkpt><trkpt lat="47.932599919090876" lon="11.706982908926676"><ele>657.0</ele><time>2026-04-18T07:38:22Z</time></trkpt><trkpt lat="47.93238327232388" lon="11.707130466096832"><ele>658.0</ele><time>2026-04-18T07:38:23Z</time></trkpt><trkpt lat="47.93217964129925" lon="11.707259361981599"><ele>658.0</ele><time>2026-04-18T07:38:24Z</time></trkpt><trkpt lat="47.931981810149836" lon="11.707380125364661"><ele>658.0</ele><time>2026-04-18T07:38:25Z</time></trkpt><trkpt lat="47.93178127263929" lon="11.707503886405094"><ele>658.0</ele><time>2026-04-18T07:38:26Z</time></trkpt><trkpt lat="47.93157451805166" lon="11.707636669346902"><ele>658.0</ele><time>2026-04-18T07:38:27Z</time></trkpt><trkpt lat="47.931366568350896" lon="11.707773655237851"><ele>658.0</ele><time>2026-04-18T07:38:28Z</time></trkpt><trkpt lat="47.93115796068599" lon="11.707910335367075"><ele>658.0</ele><time>2026-04-18T07:38:29Z</time></trkpt><trkpt lat="47.93094908900542" lon="11.708043549346792"><ele>658.0</ele><time>2026-04-18T07:38:30Z</time></trkpt><trkpt lat="47.93073803936677" lon="11.70817325985398"><ele>658.0</ele><time>2026-04-18T07:38:31Z</time></trkpt><trkpt lat="47.93052327052748" lon="11.708291381797983"><ele>658.0</ele><time>2026-04-18T07:38:32Z</time></trkpt><trkpt lat="47.9303034799724" lon="11.70840479800945"><ele>658.0</ele><time>2026-04-18T07:38:33Z</time></trkpt><trkpt lat="47.93008440887514" lon="11.708526215031101"><ele>658.0</ele><time>2026-04-18T07:38:34Z</time></trkpt><trkpt lat="47.92986773042009" lon="11.708651497027343"><ele>658.0</ele><time>2026-04-18T07:38:35Z</time></trkpt><trkpt lat="47.92964601414653" lon="11.708773343741969"><ele>658.0</ele><time>2026-04-18T07:38:36Z</time></trkpt><trkpt lat="47.92942003530162" lon="11.70889509695763"><ele>657.5</ele><time>2026-04-18T07:38:37Z</time></trkpt><trkpt lat="47.929179023398696" lon="11.709022368078095"><ele>657.0</ele><time>2026-04-18T07:38:38Z</time></trkpt><trkpt lat="47.92892700797532" lon="11.70915046932104"><ele>657.0</ele><time>2026-04-18T07:38:39Z</time></trkpt><trkpt lat="47.92866899496548" lon="11.709277874500614"><ele>657.0</ele><time>2026-04-18T07:38:40Z</time></trkpt><trkpt lat="47.92840620031435" lon="11.709404436501167"><ele>658.0</ele><time>2026-04-18T07:38:41Z</time></trkpt><trkpt lat="47.92814075370099" lon="11.709529216168386"><ele>659.0</ele><time>2026-04-18T07:38:42Z</time></trkpt><trkpt lat="47.92787457574035" lon="11.709650600239302"><ele>659.0</ele><time>2026-04-18T07:38:43Z</time></trkpt><trkpt lat="47.927616996542326" lon="11.709760776237896"><ele>659.0</ele><time>2026-04-18T07:38:44Z</time></trkpt><trkpt lat="47.92737104965771" lon="11.709860874840983"><ele>659.0</ele><time>2026-04-18T07:38:45Z</time></trkpt><trkpt lat="47.92712928254378" lon="11.709957749643081"><ele>659.0</ele><time>2026-04-18T07:38:46Z</time></trkpt><trkpt lat="47.92688240438049" lon="11.710055341786155"><ele>659.0</ele><time>2026-04-18T07:38:47Z</time></trkpt><trkpt lat="47.92662854962838" lon="11.71015282634986"><ele>659.0</ele><time>2026-04-18T07:38:48Z</time></trkpt><trkpt lat="47.92637248884905" lon="11.710253211276802"><ele>659.0</ele><time>2026-04-18T07:38:49Z</time></trkpt><trkpt lat="47.92611247940317" lon="11.71035434644522"><ele>659.0</ele><time>2026-04-18T07:38:50Z</time></trkpt><trkpt lat="47.925851795395424" lon="11.710458196761918"><ele>659.0</ele><time>2026-04-18T07:38:51Z</time></trkpt><trkpt lat="47.92558934785176" lon="11.710561618634005"><ele>659.0</ele><time>2026-04-18T07:38:52Z</time></trkpt><trkpt lat="47.925328847921435" lon="11.710664580625542"><ele>659.0</ele><time>2026-04-18T07:38:53Z</time></trkpt><trkpt lat="47.92506882023292" lon="11.710770852012395"><ele>659.0</ele><time>2026-04-18T07:38:54Z</time></trkpt><trkpt lat="47.92481093809086" lon="11.710879072817107"><ele>658.5</ele><time>2026-04-18T07:38:55Z</time></trkpt><trkpt lat="47.92455176768908" lon="11.710991615545682"><ele>658.0</ele><time>2026-04-18T07:38:56Z</time></trkpt><trkpt lat="47.92428739577983" lon="11.711109518335876"><ele>659.0</ele><time>2026-04-18T07:38:57Z</time></trkpt><trkpt lat="47.92401683003706" lon="11.7112327903987"><ele>660.0</ele><time>2026-04-18T07:38:58Z</time></trkpt><trkpt lat="47.92374389018632" lon="11.711348418970003"><ele>660.0</ele><time>2026-04-18T07:38:59Z</time></trkpt><trkpt lat="47.923473039270725" lon="11.711452384938557"><ele>660.0</ele><time>2026-04-18T07:39:00Z</time></trkpt><trkpt lat="47.923213042289206" lon="11.711555163409132"><ele>659.0</ele><time>2026-04-18T07:39:01Z</time></trkpt><trkpt lat="47.92296074899619" lon="11.711656866777982"><ele>658.0</ele><time>2026-04-18T07:39:02Z</time></trkpt><trkpt lat="47.922717516303386" lon="11.71175501180868"><ele>658.5</ele><time>2026-04-18T07:39:03Z</time></trkpt><trkpt lat="47.92247308201898" lon="11.711850636858765"><ele>659.0</ele><time>2026-04-18T07:39:04Z</time></trkpt><trkpt lat="47.92222928555415" lon="11.711946330993953"><ele>657.5</ele><time>2026-04-18T07:39:05Z</time></trkpt><trkpt lat="47.92198506426154" lon="11.71204459480636"><ele>656.0</ele><time>2026-04-18T07:39:06Z</time></trkpt><trkpt lat="47.92173677949828" lon="11.712145003139105"><ele>657.5</ele><time>2026-04-18T07:39:07Z</time></trkpt><trkpt lat="47.92148533956322" lon="11.71224553953214"><ele>659.0</ele><time>2026-04-18T07:39:08Z</time></trkpt><trkpt lat="47.92123167528559" lon="11.712347702603108"><ele>659.0</ele><time>2026-04-18T07:39:09Z</time></trkpt><trkpt lat="47.92097627039761" lon="11.712449829706307"><ele>659.0</ele><time>2026-04-18T07:39:10Z</time></trkpt><trkpt lat="47.920721681651614" lon="11.712550770520258"><ele>660.0</ele><time>2026-04-18T07:39:11Z</time></trkpt><trkpt lat="47.920467777590886" lon="11.712652976874018"><ele>661.0</ele><time>2026-04-18T07:39:12Z</time></trkpt><trkpt lat="47.92021486147267" lon="11.712754596711838"><ele>661.5</ele><time>2026-04-18T07:39:13Z</time></trkpt><trkpt lat="47.91996648114515" lon="11.712855387197171"><ele>662.0</ele><time>2026-04-18T07:39:14Z</time></trkpt><trkpt lat="47.919717689090874" lon="11.712953872227057"><ele>662.0</ele><time>2026-04-18T07:39:15Z</time></trkpt><trkpt lat="47.91946890360686" lon="11.713054906531697"><ele>662.0</ele><time>2026-04-18T07:39:16Z</time></trkpt><trkpt lat="47.91922274936541" lon="11.713157100158128"><ele>661.0</ele><time>2026-04-18T07:39:17Z</time></trkpt><trkpt lat="47.9189773273286" lon="11.713259609646721"><ele>660.0</ele><time>2026-04-18T07:39:18Z</time></trkpt><trkpt lat="47.918730560781675" lon="11.713356712856912"><ele>660.0</ele><time>2026-04-18T07:39:19Z</time></trkpt><trkpt lat="47.91848454261019" lon="11.713451487670241"><ele>660.0</ele><time>2026-04-18T07:39:20Z</time></trkpt><trkpt lat="47.91824727790078" lon="11.713545073992458"><ele>662.5</ele><time>2026-04-18T07:39:21Z</time></trkpt><trkpt lat="47.91801068993525" lon="11.713633652393906"><ele>665.0</ele><time>2026-04-18T07:39:22Z</time></trkpt><trkpt lat="47.917768665063534" lon="11.713718958634988"><ele>663.5</ele><time>2026-04-18T07:39:23Z</time></trkpt><trkpt lat="47.91753301762426" lon="11.713799997841372"><ele>662.0</ele><time>2026-04-18T07:39:24Z</time></trkpt><trkpt lat="47.91730114709995" lon="11.713880007097972"><ele>662.0</ele><time>2026-04-18T07:39:25Z</time></trkpt><trkpt lat="47.91706069628187" lon="11.713969728528676"><ele>662.0</ele><time>2026-04-18T07:39:26Z</time></trkpt><trkpt lat="47.91681136753144" lon="11.714062087740187"><ele>663.5</ele><time>2026-04-18T07:39:27Z</time></trkpt><trkpt lat="47.91655509850117" lon="11.714163000193595"><ele>665.0</ele><time>2026-04-18T07:39:27.999Z</time></trkpt><trkpt lat="47.9162934919613" lon="11.714269994994027"><ele>665.0</ele><time>2026-04-18T07:39:28.999Z</time></trkpt><trkpt lat="47.91603149587946" lon="11.714375913004645"><ele>665.0</ele><time>2026-04-18T07:39:29.999Z</time></trkpt><trkpt lat="47.9157796098562" lon="11.714475390675245"><ele>665.0</ele><time>2026-04-18T07:39:30.999Z</time></trkpt><trkpt lat="47.91552810603875" lon="11.71457545224555"><ele>665.0</ele><time>2026-04-18T07:39:31.999Z</time></trkpt><trkpt lat="47.91527843457409" lon="11.714677499138459"><ele>663.5</ele><time>2026-04-18T07:39:32.999Z</time></trkpt><trkpt lat="47.915032010433684" lon="11.714779939523282"><ele>662.0</ele><time>2026-04-18T07:39:33.999Z</time></trkpt><trkpt lat="47.914788905885736" lon="11.714880626407796"><ele>662.0</ele><time>2026-04-18T07:39:34.999Z</time></trkpt><trkpt lat="47.91454533405771" lon="11.71497977319617"><ele>662.0</ele><time>2026-04-18T07:39:35.999Z</time></trkpt><trkpt lat="47.91429972061224" lon="11.715078389848763"><ele>662.0</ele><time>2026-04-18T07:39:36.999Z</time></trkpt><trkpt lat="47.914056338560314" lon="11.71517262369601"><ele>662.0</ele><time>2026-04-18T07:39:37.999Z</time></trkpt><trkpt lat="47.91381400687573" lon="11.715267444719917"><ele>662.5</ele><time>2026-04-18T07:39:38.999Z</time></trkpt><trkpt lat="47.91357150231795" lon="11.715364403301836"><ele>663.0</ele><time>2026-04-18T07:39:39.999Z</time></trkpt><trkpt lat="47.91332830476299" lon="11.715463041988606"><ele>661.0</ele><time>2026-04-18T07:39:40.999Z</time></trkpt><trkpt lat="47.913081405213696" lon="11.715559817881081"><ele>659.0</ele><time>2026-04-18T07:39:41.999Z</time></trkpt><trkpt lat="47.91283187829133" lon="11.715659436012517"><ele>659.0</ele><time>2026-04-18T07:39:42.999Z</time></trkpt><trkpt lat="47.912579810024766" lon="11.715759731819551"><ele>659.0</ele><time>2026-04-18T07:39:43.999Z</time></trkpt><trkpt lat="47.91232036880654" lon="11.715865577555975"><ele>657.5</ele><time>2026-04-18T07:39:44.999Z</time></trkpt><trkpt lat="47.91206450116097" lon="11.71596466467695"><ele>656.0</ele><time>2026-04-18T07:39:45.999Z</time></trkpt><trkpt lat="47.911814185386234" lon="11.71605957264908"><ele>654.5</ele><time>2026-04-18T07:39:46.999Z</time></trkpt><trkpt lat="47.911567596074605" lon="11.71615647691097"><ele>653.0</ele><time>2026-04-18T07:39:47.999Z</time></trkpt><trkpt lat="47.91132326851096" lon="11.716253945195833"><ele>653.0</ele><time>2026-04-18T07:39:48.999Z</time></trkpt><trkpt lat="47.91108050631421" lon="11.716352392074022"><ele>653.0</ele><time>2026-04-18T07:39:49.999Z</time></trkpt><trkpt lat="47.91084365120395" lon="11.716449318851273"><ele>651.0</ele><time>2026-04-18T07:39:50.999Z</time></trkpt><trkpt lat="47.91061092618135" lon="11.716543877989293"><ele>649.0</ele><time>2026-04-18T07:39:51.999Z</time></trkpt><trkpt lat="47.91037917133433" lon="11.716637252561442"><ele>649.0</ele><time>2026-04-18T07:39:52.999Z</time></trkpt><trkpt lat="47.91015134813931" lon="11.71672555101918"><ele>649.0</ele><time>2026-04-18T07:39:53.999Z</time></trkpt><trkpt lat="47.90992192514516" lon="11.716815126448012"><ele>649.5</ele><time>2026-04-18T07:39:54.999Z</time></trkpt><trkpt lat="47.909694465309215" lon="11.716905788121437"><ele>650.0</ele><time>2026-04-18T07:39:55.999Z</time></trkpt><trkpt lat="47.90946779724101" lon="11.717000146895193"><ele>650.0</ele><time>2026-04-18T07:39:56.999Z</time></trkpt><trkpt lat="47.909238752974744" lon="11.71709494827167"><ele>650.0</ele><time>2026-04-18T07:39:57.999Z</time></trkpt><trkpt lat="47.909011535967856" lon="11.717188775724942"><ele>650.0</ele><time>2026-04-18T07:39:58.999Z</time></trkpt><trkpt lat="47.908790258822755" lon="11.717276210130782"><ele>650.0</ele><time>2026-04-18T07:39:59.999Z</time></trkpt><trkpt lat="47.90856522007989" lon="11.717366758568192"><ele>650.0</ele><time>2026-04-18T07:40:00.999Z</time></trkpt><trkpt lat="47.90834259900218" lon="11.717455396703109"><ele>650.0</ele><time>2026-04-18T07:40:01.999Z</time></trkpt><trkpt lat="47.90812155545092" lon="11.71754081854523"><ele>650.0</ele><time>2026-04-18T07:40:02.999Z</time></trkpt><trkpt lat="47.90790134173657" lon="11.71762957946519"><ele>650.0</ele><time>2026-04-18T07:40:03.999Z</time></trkpt><trkpt lat="47.90768346137711" lon="11.717719690569641"><ele>652.5</ele><time>2026-04-18T07:40:04.999Z</time></trkpt><trkpt lat="47.90746002904158" lon="11.717805711673481"><ele>655.0</ele><time>2026-04-18T07:40:05.999Z</time></trkpt><trkpt lat="47.90722590511771" lon="11.717895559926621"><ele>655.0</ele><time>2026-04-18T07:40:06.999Z</time></trkpt><trkpt lat="47.9069838904895" lon="11.717991417432568"><ele>655.0</ele><time>2026-04-18T07:40:07.999Z</time></trkpt><trkpt lat="47.90674237253844" lon="11.718085552171274"><ele>655.0</ele><time>2026-04-18T07:40:08.999Z</time></trkpt><trkpt lat="47.90650619732663" lon="11.718177779157227"><ele>655.0</ele><time>2026-04-18T07:40:10Z</time></trkpt><trkpt lat="47.906274934741326" lon="11.718270415678486"><ele>655.0</ele><time>2026-04-18T07:40:11Z</time></trkpt><trkpt lat="47.90604795781264" lon="11.718359490505595"><ele>655.0</ele><time>2026-04-18T07:40:12Z</time></trkpt><trkpt lat="47.90582654240436" lon="11.718447028640899"><ele>654.5</ele><time>2026-04-18T07:40:13Z</time></trkpt><trkpt lat="47.90560397381335" lon="11.718532449823185"><ele>654.0</ele><time>2026-04-18T07:40:14Z</time></trkpt><trkpt lat="47.90538186609408" lon="11.718619474003612"><ele>654.0</ele><time>2026-04-18T07:40:15Z</time></trkpt><trkpt lat="47.90516415937515" lon="11.718708871633298"><ele>654.0</ele><time>2026-04-18T07:40:16Z</time></trkpt><trkpt lat="47.90494352747808" lon="11.718796748478857"><ele>654.0</ele><time>2026-04-18T07:40:17Z</time></trkpt><trkpt lat="47.90472212812624" lon="11.718890073307962"><ele>654.0</ele><time>2026-04-18T07:40:18Z</time></trkpt><trkpt lat="47.90449978696121" lon="11.718982865107451"><ele>654.0</ele><time>2026-04-18T07:40:19Z</time></trkpt><trkpt lat="47.90426658137657" lon="11.71907609548504"><ele>654.0</ele><time>2026-04-18T07:40:20Z</time></trkpt><trkpt lat="47.90402833386304" lon="11.71916720793571"><ele>653.5</ele><time>2026-04-18T07:40:21Z</time></trkpt><trkpt lat="47.90378300813325" lon="11.71926023498271"><ele>653.0</ele><time>2026-04-18T07:40:22Z</time></trkpt><trkpt lat="47.903535319832685" lon="11.719357591021211"><ele>657.5</ele><time>2026-04-18T07:40:23Z</time></trkpt><trkpt lat="47.90328709974693" lon="11.7194550656107"><ele>662.0</ele><time>2026-04-18T07:40:24Z</time></trkpt><trkpt lat="47.903041229701614" lon="11.719553340480442"><ele>662.0</ele><time>2026-04-18T07:40:25Z</time></trkpt><trkpt lat="47.90279893312067" lon="11.719650661352054"><ele>662.0</ele><time>2026-04-18T07:40:26Z</time></trkpt><trkpt lat="47.902560452488814" lon="11.719750124158827"><ele>662.5</ele><time>2026-04-18T07:40:27Z</time></trkpt><trkpt lat="47.90232629108555" lon="11.719843763320517"><ele>663.0</ele><time>2026-04-18T07:40:28Z</time></trkpt><trkpt lat="47.90209516344937" lon="11.71993770351106"><ele>663.0</ele><time>2026-04-18T07:40:29Z</time></trkpt><trkpt lat="47.90186591843005" lon="11.720027292905643"><ele>663.0</ele><time>2026-04-18T07:40:30Z</time></trkpt><trkpt lat="47.901635640381215" lon="11.720113666169814"><ele>662.5</ele><time>2026-04-18T07:40:31Z</time></trkpt><trkpt lat="47.90140625093691" lon="11.72020313102155"><ele>662.0</ele><time>2026-04-18T07:40:32Z</time></trkpt><trkpt lat="47.90118752024513" lon="11.72029724788615"><ele>662.0</ele><time>2026-04-18T07:40:33Z</time></trkpt><trkpt lat="47.90097472602451" lon="11.720392052713601"><ele>662.0</ele><time>2026-04-18T07:40:34Z</time></trkpt><trkpt lat="47.90076730833689" lon="11.720489523516674"><ele>662.0</ele><time>2026-04-18T07:40:35Z</time></trkpt><trkpt lat="47.90055848393142" lon="11.720591786124146"><ele>662.0</ele><time>2026-04-18T07:40:36Z</time></trkpt><trkpt lat="47.90034638969253" lon="11.720698350880127"><ele>662.0</ele><time>2026-04-18T07:40:37Z</time></trkpt><trkpt lat="47.90013420255732" lon="11.720805822880267"><ele>662.0</ele><time>2026-04-18T07:40:38Z</time></trkpt><trkpt lat="47.89991794497068" lon="11.720915471891074"><ele>663.0</ele><time>2026-04-18T07:40:39Z</time></trkpt><trkpt lat="47.89970792018426" lon="11.721039172331936"><ele>664.0</ele><time>2026-04-18T07:40:40Z</time></trkpt><trkpt lat="47.89949162007056" lon="11.721159848225748"><ele>664.0</ele><time>2026-04-18T07:40:41Z</time></trkpt><trkpt lat="47.899268821157555" lon="11.72128909161569"><ele>664.0</ele><time>2026-04-18T07:40:42Z</time></trkpt><trkpt lat="47.899048497426016" lon="11.721423606178579"><ele>664.3333333333334</ele><time>2026-04-18T07:40:43Z</time></trkpt><trkpt lat="47.898840392837485" lon="11.72155973508018"><ele>664.6666666666666</ele><time>2026-04-18T07:40:44Z</time></trkpt><trkpt lat="47.89864433013937" lon="11.721686300872976"><ele>665.0</ele><time>2026-04-18T07:40:45Z</time></trkpt><trkpt lat="47.89845967118826" lon="11.721819748213418"><ele>664.6666666666666</ele><time>2026-04-18T07:40:46Z</time></trkpt><trkpt lat="47.89826862932247" lon="11.721957236272289"><ele>664.3333333333334</ele><time>2026-04-18T07:40:47Z</time></trkpt><trkpt lat="47.898072332703606" lon="11.722100101551757"><ele>664.0</ele><time>2026-04-18T07:40:48Z</time></trkpt><trkpt lat="47.897872323749226" lon="11.722249783716157"><ele>664.0</ele><time>2026-04-18T07:40:49Z</time></trkpt><trkpt lat="47.89766794956056" lon="11.722405750594474"><ele>664.0</ele><time>2026-04-18T07:40:50Z</time></trkpt><trkpt lat="47.8974637743441" lon="11.722567697117919"><ele>662.0</ele><time>2026-04-18T07:40:51Z</time></trkpt><trkpt lat="47.89726011158473" lon="11.722737049008723"><ele>660.0</ele><time>2026-04-18T07:40:52Z</time></trkpt><trkpt lat="47.89706199221561" lon="11.722909576139417"><ele>660.0</ele><time>2026-04-18T07:40:53Z</time></trkpt><trkpt lat="47.89686221037962" lon="11.723082874246128"><ele>660.0</ele><time>2026-04-18T07:40:54Z</time></trkpt><trkpt lat="47.89665284181022" lon="11.723273114232198"><ele>660.0</ele><time>2026-04-18T07:40:55Z</time></trkpt><trkpt lat="47.896439917688745" lon="11.723467454676246"><ele>660.0</ele><time>2026-04-18T07:40:56Z</time></trkpt><trkpt lat="47.896227434242256" lon="11.723666075974965"><ele>660.0</ele><time>2026-04-18T07:40:57Z</time></trkpt><trkpt lat="47.89601925763165" lon="11.72387457310076"><ele>660.0</ele><time>2026-04-18T07:40:58Z</time></trkpt><trkpt lat="47.89582734730676" lon="11.72407296463373"><ele>662.0</ele><time>2026-04-18T07:40:59Z</time></trkpt><trkpt lat="47.89563651225859" lon="11.724275301397885"><ele>664.0</ele><time>2026-04-18T07:41:00Z</time></trkpt><trkpt lat="47.89544225525465" lon="11.724483561587167"><ele>664.0</ele><time>2026-04-18T07:41:01Z</time></trkpt><trkpt lat="47.895247912417695" lon="11.724700052072219"><ele>664.0</ele><time>2026-04-18T07:41:02Z</time></trkpt><trkpt lat="47.895055263997364" lon="11.724919744294194"><ele>664.0</ele><time>2026-04-18T07:41:03Z</time></trkpt><trkpt lat="47.89486122766872" lon="11.725144211082744"><ele>664.0</ele><time>2026-04-18T07:41:04Z</time></trkpt><trkpt lat="47.89466623476123" lon="11.725373613219883"><ele>664.0</ele><time>2026-04-18T07:41:05Z</time></trkpt><trkpt lat="47.894473181226374" lon="11.725614342187312"><ele>664.0</ele><time>2026-04-18T07:41:06Z</time></trkpt><trkpt lat="47.89428014924125" lon="11.725854262481926"><ele>665.0</ele><time>2026-04-18T07:41:07Z</time></trkpt><trkpt lat="47.894092104376064" lon="11.726104633194456"><ele>666.0</ele><time>2026-04-18T07:41:08Z</time></trkpt><trkpt lat="47.89390532346032" lon="11.726356629205208"><ele>666.0</ele><time>2026-04-18T07:41:09Z</time></trkpt><trkpt lat="47.89372509416331" lon="11.726609131432193"><ele>666.0</ele><time>2026-04-18T07:41:10Z</time></trkpt><trkpt lat="47.893543738025656" lon="11.726866703874817"><ele>667.0</ele><time>2026-04-18T07:41:11Z</time></trkpt><trkpt lat="47.89336786517218" lon="11.727123372133999"><ele>668.0</ele><time>2026-04-18T07:41:12Z</time></trkpt><trkpt lat="47.89319569644472" lon="11.727387223329082"><ele>668.0</ele><time>2026-04-18T07:41:13Z</time></trkpt><trkpt lat="47.893023449742635" lon="11.727657657836838"><ele>668.0</ele><time>2026-04-18T07:41:14Z</time></trkpt><trkpt lat="47.89285102565099" lon="11.727925685651938"><ele>668.0</ele><time>2026-04-18T07:41:15Z</time></trkpt><trkpt lat="47.89268242215079" lon="11.728191822274391"><ele>668.0</ele><time>2026-04-18T07:41:16Z</time></trkpt><trkpt lat="47.89251433770983" lon="11.728465482264363"><ele>668.0</ele><time>2026-04-18T07:41:17Z</time></trkpt><trkpt lat="47.89234916332477" lon="11.728744584821953"><ele>668.0</ele><time>2026-04-18T07:41:18Z</time></trkpt><trkpt lat="47.89218927352844" lon="11.729027364539853"><ele>668.0</ele><time>2026-04-18T07:41:19Z</time></trkpt><trkpt lat="47.89203198647925" lon="11.729316028097823"><ele>668.0</ele><time>2026-04-18T07:41:20Z</time></trkpt><trkpt lat="47.89187360023582" lon="11.72961596812747"><ele>671.0</ele><time>2026-04-18T07:41:21Z</time></trkpt><trkpt lat="47.8917204710691" lon="11.729912736466698"><ele>674.0</ele><time>2026-04-18T07:41:22Z</time></trkpt><trkpt lat="47.891567802442744" lon="11.730216495582358"><ele>672.0</ele><time>2026-04-18T07:41:23Z</time></trkpt><trkpt lat="47.89141447904887" lon="11.730532717516397"><ele>670.0</ele><time>2026-04-18T07:41:24Z</time></trkpt><trkpt lat="47.89126680690774" lon="11.730842833694876"><ele>669.0</ele><time>2026-04-18T07:41:25Z</time></trkpt><trkpt lat="47.891117230101756" lon="11.731166790226936"><ele>668.0</ele><time>2026-04-18T07:41:26Z</time></trkpt><trkpt lat="47.890972894831506" lon="11.731493441421401"><ele>669.5</ele><time>2026-04-18T07:41:27Z</time></trkpt><trkpt lat="47.89082703685405" lon="11.731837833020093"><ele>671.0</ele><time>2026-04-18T07:41:28Z</time></trkpt><trkpt lat="47.890690949295966" lon="11.732181112333137"><ele>671.0</ele><time>2026-04-18T07:41:29Z</time></trkpt><trkpt lat="47.89055867630606" lon="11.732518351477625"><ele>671.0</ele><time>2026-04-18T07:41:30Z</time></trkpt><trkpt lat="47.89042639057092" lon="11.732855686886891"><ele>672.0</ele><time>2026-04-18T07:41:31Z</time></trkpt><trkpt lat="47.890293610573906" lon="11.733191846017158"><ele>673.0</ele><time>2026-04-18T07:41:32Z</time></trkpt><trkpt lat="47.89016239065017" lon="11.73353114950873"><ele>675.0</ele><time>2026-04-18T07:41:33Z</time></trkpt><trkpt lat="47.89003070137686" lon="11.733872286052232"><ele>677.0</ele><time>2026-04-18T07:41:34Z</time></trkpt><trkpt lat="47.889900893360554" lon="11.734223343885086"><ele>678.0</ele><time>2026-04-18T07:41:35Z</time></trkpt><trkpt lat="47.88977136383083" lon="11.734578073122467"><ele>679.0</ele><time>2026-04-18T07:41:36Z</time></trkpt><trkpt lat="47.88964108229246" lon="11.7349309179787"><ele>679.5</ele><time>2026-04-18T07:41:37Z</time></trkpt><trkpt lat="47.889508391794585" lon="11.735281596349848"><ele>680.0</ele><time>2026-04-18T07:41:38Z</time></trkpt><trkpt lat="47.889372963116834" lon="11.735634642172055"><ele>677.0</ele><time>2026-04-18T07:41:39Z</time></trkpt><trkpt lat="47.889238906566234" lon="11.73598236371552"><ele>674.0</ele><time>2026-04-18T07:41:40Z</time></trkpt><trkpt lat="47.88910470774032" lon="11.73632240034463"><ele>673.5</ele><time>2026-04-18T07:41:41Z</time></trkpt><trkpt lat="47.88896659550698" lon="11.736664582228583"><ele>673.0</ele><time>2026-04-18T07:41:42Z</time></trkpt><trkpt lat="47.888828676493056" lon="11.737007698148167"><ele>673.0</ele><time>2026-04-18T07:41:43Z</time></trkpt><trkpt lat="47.88869069107837" lon="11.737351332899202"><ele>673.0</ele><time>2026-04-18T07:41:44Z</time></trkpt><trkpt lat="47.888552356809214" lon="11.737694058652146"><ele>672.5</ele><time>2026-04-18T07:41:45Z</time></trkpt><trkpt lat="47.88841211909063" lon="11.738033937639846"><ele>672.0</ele><time>2026-04-18T07:41:46Z</time></trkpt><trkpt lat="47.88827241156562" lon="11.738377022146883"><ele>673.5</ele><time>2026-04-18T07:41:47Z</time></trkpt><trkpt lat="47.88813304497645" lon="11.738722088286245"><ele>675.0</ele><time>2026-04-18T07:41:48Z</time></trkpt><trkpt lat="47.8879929610884" lon="11.739071564107986"><ele>678.0</ele><time>2026-04-18T07:41:49Z</time></trkpt><trkpt lat="47.88785241903107" lon="11.739416848905023"><ele>681.0</ele><time>2026-04-18T07:41:50Z</time></trkpt><trkpt lat="47.88771488682115" lon="11.739753536611635"><ele>681.5</ele><time>2026-04-18T07:41:51Z</time></trkpt><trkpt lat="47.88757792732763" lon="11.740091368085075"><ele>682.0</ele><time>2026-04-18T07:41:52Z</time></trkpt><trkpt lat="47.88744189846085" lon="11.740424526176445"><ele>678.5</ele><time>2026-04-18T07:41:53Z</time></trkpt><trkpt lat="47.88730624739686" lon="11.74075727801847"><ele>675.0</ele><time>2026-04-18T07:41:54Z</time></trkpt><trkpt lat="47.887172097825044" lon="11.74108955445472"><ele>675.0</ele><time>2026-04-18T07:41:55Z</time></trkpt><trkpt lat="47.88703885132012" lon="11.741419154614695"><ele>675.0</ele><time>2026-04-18T07:41:56Z</time></trkpt><trkpt lat="47.886907987894894" lon="11.7417445795131"><ele>676.0</ele><time>2026-04-18T07:41:57Z</time></trkpt><trkpt lat="47.886776818576536" lon="11.742067558246823"><ele>677.0</ele><time>2026-04-18T07:41:58Z</time></trkpt><trkpt lat="47.8866442188664" lon="11.742394130498147"><ele>675.0</ele><time>2026-04-18T07:41:59Z</time></trkpt><trkpt lat="47.88651178360792" lon="11.742719993049182"><ele>673.0</ele><time>2026-04-18T07:42:00Z</time></trkpt><trkpt lat="47.886378117764586" lon="11.743050749732198"><ele>673.0</ele><time>2026-04-18T07:42:01Z</time></trkpt><trkpt lat="47.886243122013596" lon="11.743384377811587"><ele>673.0</ele><time>2026-04-18T07:42:02Z</time></trkpt><trkpt lat="47.88610527197655" lon="11.743721846392145"><ele>671.5</ele><time>2026-04-18T07:42:03Z</time></trkpt><trkpt lat="47.88596654894384" lon="11.744063008439651"><ele>670.0</ele><time>2026-04-18T07:42:04Z</time></trkpt><trkpt lat="47.885828541898725" lon="11.744400857851765"><ele>670.0</ele><time>2026-04-18T07:42:05Z</time></trkpt><trkpt lat="47.88569008874044" lon="11.744739965342402"><ele>670.0</ele><time>2026-04-18T07:42:06Z</time></trkpt><trkpt lat="47.88555263906121" lon="11.745077885421356"><ele>670.0</ele><time>2026-04-18T07:42:07Z</time></trkpt><trkpt lat="47.88541293307305" lon="11.745417322380904"><ele>670.0</ele><time>2026-04-18T07:42:08Z</time></trkpt><trkpt lat="47.885273935741125" lon="11.74575491156149"><ele>669.0</ele><time>2026-04-18T07:42:09Z</time></trkpt><trkpt lat="47.885137217583434" lon="11.746090988861651"><ele>668.0</ele><time>2026-04-18T07:42:10Z</time></trkpt><trkpt lat="47.8850010633222" lon="11.746423259026749"><ele>667.0</ele><time>2026-04-18T07:42:11Z</time></trkpt><trkpt lat="47.884867499935645" lon="11.746750712852888"><ele>666.0</ele><time>2026-04-18T07:42:12Z</time></trkpt><trkpt lat="47.884734312560035" lon="11.747079702939907"><ele>666.0</ele><time>2026-04-18T07:42:13Z</time></trkpt><trkpt lat="47.88460219556442" lon="11.74740410703199"><ele>666.0</ele><time>2026-04-18T07:42:14Z</time></trkpt><trkpt lat="47.884469529798594" lon="11.747729485325655"><ele>665.0</ele><time>2026-04-18T07:42:15Z</time></trkpt><trkpt lat="47.88433518973217" lon="11.748058370363427"><ele>664.0</ele><time>2026-04-18T07:42:16Z</time></trkpt><trkpt lat="47.88419788477893" lon="11.74839318204248"><ele>663.5</ele><time>2026-04-18T07:42:17Z</time></trkpt><trkpt lat="47.88406022132529" lon="11.748731669150889"><ele>663.0</ele><time>2026-04-18T07:42:18Z</time></trkpt><trkpt lat="47.883921990142454" lon="11.749069770176595"><ele>663.5</ele><time>2026-04-18T07:42:19Z</time></trkpt><trkpt lat="47.88378466358529" lon="11.749409721933436"><ele>664.0</ele><time>2026-04-18T07:42:20Z</time></trkpt><trkpt lat="47.88364624749141" lon="11.749750609156994"><ele>664.0</ele><time>2026-04-18T07:42:21Z</time></trkpt><trkpt lat="47.88350613599551" lon="11.750093060116312"><ele>664.0</ele><time>2026-04-18T07:42:22Z</time></trkpt><trkpt lat="47.88336780062672" lon="11.750431025481236"><ele>664.0</ele><time>2026-04-18T07:42:23Z</time></trkpt><trkpt lat="47.883232340123655" lon="11.750768997174195"><ele>664.0</ele><time>2026-04-18T07:42:24Z</time></trkpt><trkpt lat="47.88309758222435" lon="11.751107090091322"><ele>664.0</ele><time>2026-04-18T07:42:25Z</time></trkpt><trkpt lat="47.88296222820423" lon="11.751442716363186"><ele>664.0</ele><time>2026-04-18T07:42:26Z</time></trkpt><trkpt lat="47.88282446630698" lon="11.751777626093244"><ele>664.0</ele><time>2026-04-18T07:42:27Z</time></trkpt><trkpt lat="47.882685832507995" lon="11.752113259793115"><ele>664.0</ele><time>2026-04-18T07:42:28Z</time></trkpt><trkpt lat="47.882549442837785" lon="11.75244960973352"><ele>664.0</ele><time>2026-04-18T07:42:29Z</time></trkpt><trkpt lat="47.882414755664875" lon="11.752785081160326"><ele>664.0</ele><time>2026-04-18T07:42:30Z</time></trkpt><trkpt lat="47.88227954330405" lon="11.753119703537557"><ele>664.0</ele><time>2026-04-18T07:42:31Z</time></trkpt><trkpt lat="47.88214264237101" lon="11.75345738772804"><ele>664.0</ele><time>2026-04-18T07:42:32Z</time></trkpt><trkpt lat="47.882004605490515" lon="11.753795886768591"><ele>663.5</ele><time>2026-04-18T07:42:33Z</time></trkpt><trkpt lat="47.881867408051995" lon="11.754133798270097"><ele>663.0</ele><time>2026-04-18T07:42:34Z</time></trkpt><trkpt lat="47.88173427864736" lon="11.754471924089898"><ele>664.0</ele><time>2026-04-18T07:42:35Z</time></trkpt><trkpt lat="47.88160495715928" lon="11.754813255792415"><ele>665.0</ele><time>2026-04-18T07:42:36Z</time></trkpt><trkpt lat="47.881474605689824" lon="11.755150249793077"><ele>666.0</ele><time>2026-04-18T07:42:37Z</time></trkpt><trkpt lat="47.881342948128086" lon="11.755481262634461"><ele>667.0</ele><time>2026-04-18T07:42:38Z</time></trkpt><trkpt lat="47.88121027332896" lon="11.75580684169515"><ele>666.5</ele><time>2026-04-18T07:42:39Z</time></trkpt><trkpt lat="47.88107820967998" lon="11.756135094865495"><ele>666.0</ele><time>2026-04-18T07:42:40Z</time></trkpt><trkpt lat="47.88094462417174" lon="11.756464139952485"><ele>666.0</ele><time>2026-04-18T07:42:41Z</time></trkpt><trkpt lat="47.880810262132755" lon="11.756796804967808"><ele>666.0</ele><time>2026-04-18T07:42:42Z</time></trkpt><trkpt lat="47.88067352343995" lon="11.757132832774987"><ele>666.0</ele><time>2026-04-18T07:42:43Z</time></trkpt><trkpt lat="47.88053613050855" lon="11.757472617897404"><ele>666.0</ele><time>2026-04-18T07:42:44Z</time></trkpt><trkpt lat="47.88039760959145" lon="11.757812940134661"><ele>666.0</ele><time>2026-04-18T07:42:45Z</time></trkpt><trkpt lat="47.88025663526296" lon="11.758157637398513"><ele>666.0</ele><time>2026-04-18T07:42:46Z</time></trkpt><trkpt lat="47.880113818967814" lon="11.758505946679435"><ele>665.5</ele><time>2026-04-18T07:42:47Z</time></trkpt><trkpt lat="47.87997217458756" lon="11.758858602713426"><ele>665.0</ele><time>2026-04-18T07:42:48Z</time></trkpt><trkpt lat="47.87983242144656" lon="11.759215216650029"><ele>664.5</ele><time>2026-04-18T07:42:49Z</time></trkpt><trkpt lat="47.8796931683074" lon="11.759572651203502"><ele>664.0</ele><time>2026-04-18T07:42:50Z</time></trkpt><trkpt lat="47.87955121202744" lon="11.75992857926536"><ele>663.0</ele><time>2026-04-18T07:42:51Z</time></trkpt><trkpt lat="47.879408936461" lon="11.760281149919425"><ele>662.0</ele><time>2026-04-18T07:42:52Z</time></trkpt><trkpt lat="47.8792707992573" lon="11.760626878621563"><ele>662.0</ele><time>2026-04-18T07:42:53Z</time></trkpt><trkpt lat="47.87913304110847" lon="11.760963713282898"><ele>662.0</ele><time>2026-04-18T07:42:54Z</time></trkpt><trkpt lat="47.87899439780213" lon="11.761302775810444"><ele>662.0</ele><time>2026-04-18T07:42:55Z</time></trkpt><trkpt lat="47.878853017499125" lon="11.761650472785082"><ele>662.0</ele><time>2026-04-18T07:42:56Z</time></trkpt><trkpt lat="47.87871141983248" lon="11.761998650408286"><ele>661.5</ele><time>2026-04-18T07:42:57Z</time></trkpt><trkpt lat="47.878569118682435" lon="11.762347378999843"><ele>661.0</ele><time>2026-04-18T07:42:58Z</time></trkpt><trkpt lat="47.87842264116258" lon="11.762698223863753"><ele>661.0</ele><time>2026-04-18T07:42:59Z</time></trkpt><trkpt lat="47.878272841175495" lon="11.763046887283723"><ele>661.0</ele><time>2026-04-18T07:43:00Z</time></trkpt><trkpt lat="47.8781198175441" lon="11.76339533769994"><ele>661.0</ele><time>2026-04-18T07:43:01Z</time></trkpt><trkpt lat="47.8779676965433" lon="11.763738995273622"><ele>661.0</ele><time>2026-04-18T07:43:02Z</time></trkpt><trkpt lat="47.877816126787245" lon="11.764088117679094"><ele>660.5</ele><time>2026-04-18T07:43:03Z</time></trkpt><trkpt lat="47.87766914629239" lon="11.764437352296286"><ele>660.0</ele><time>2026-04-18T07:43:04Z</time></trkpt><trkpt lat="47.87752748699209" lon="11.764786789719539"><ele>660.0</ele><time>2026-04-18T07:43:05Z</time></trkpt><trkpt lat="47.87738834185343" lon="11.76513597383168"><ele>660.0</ele><time>2026-04-18T07:43:06Z</time></trkpt><trkpt lat="47.87725014850524" lon="11.765478085955342"><ele>660.0</ele><time>2026-04-18T07:43:07Z</time></trkpt><trkpt lat="47.87711442951612" lon="11.765809556307477"><ele>660.0</ele><time>2026-04-18T07:43:08Z</time></trkpt><trkpt lat="47.876979583364125" lon="11.76613956190098"><ele>660.0</ele><time>2026-04-18T07:43:09Z</time></trkpt><trkpt lat="47.87684562486545" lon="11.766468841655167"><ele>660.0</ele><time>2026-04-18T07:43:10Z</time></trkpt><trkpt lat="47.876708476170684" lon="11.766804787545091"><ele>660.0</ele><time>2026-04-18T07:43:11Z</time></trkpt><trkpt lat="47.876570341980305" lon="11.767140653257522"><ele>660.0</ele><time>2026-04-18T07:43:12Z</time></trkpt><trkpt lat="47.87643346691782" lon="11.767480765426491"><ele>659.0</ele><time>2026-04-18T07:43:13Z</time></trkpt><trkpt lat="47.876297662246785" lon="11.767820901552641"><ele>658.0</ele><time>2026-04-18T07:43:14Z</time></trkpt><trkpt lat="47.876162575833284" lon="11.768155683736676"><ele>658.0</ele><time>2026-04-18T07:43:15Z</time></trkpt><trkpt lat="47.87603158870708" lon="11.768483653049392"><ele>658.0</ele><time>2026-04-18T07:43:16Z</time></trkpt><trkpt lat="47.8758985673934" lon="11.76880882191231"><ele>658.5</ele><time>2026-04-18T07:43:17Z</time></trkpt><trkpt lat="47.875765707221305" lon="11.769125993792041"><ele>659.0</ele><time>2026-04-18T07:43:18Z</time></trkpt><trkpt lat="47.87563251962787" lon="11.769451670805745"><ele>660.0</ele><time>2026-04-18T07:43:19Z</time></trkpt><trkpt lat="47.87549707248061" lon="11.76978619775621"><ele>661.0</ele><time>2026-04-18T07:43:20Z</time></trkpt><trkpt lat="47.875360287722835" lon="11.77012110538933"><ele>660.5</ele><time>2026-04-18T07:43:21Z</time></trkpt><trkpt lat="47.87522368716173" lon="11.770453289126"><ele>660.0</ele><time>2026-04-18T07:43:22Z</time></trkpt><trkpt lat="47.8750892198554" lon="11.770783484186357"><ele>660.0</ele><time>2026-04-18T07:43:23Z</time></trkpt><trkpt lat="47.874956734440964" lon="11.771106869235913"><ele>660.0</ele><time>2026-04-18T07:43:24Z</time></trkpt><trkpt lat="47.87482671299599" lon="11.771425477866723"><ele>660.0</ele><time>2026-04-18T07:43:25Z</time></trkpt><trkpt lat="47.874698787178694" lon="11.771740774660598"><ele>660.0</ele><time>2026-04-18T07:43:26Z</time></trkpt><trkpt lat="47.8745724690406" lon="11.7720540401532"><ele>660.5</ele><time>2026-04-18T07:43:27Z</time></trkpt><trkpt lat="47.87444769295832" lon="11.772362829291419"><ele>661.0</ele><time>2026-04-18T07:43:28Z</time></trkpt><trkpt lat="47.87431973913412" lon="11.772681225595136"><ele>661.0</ele><time>2026-04-18T07:43:29Z</time></trkpt><trkpt lat="47.87418906404331" lon="11.773008372499438"><ele>661.0</ele><time>2026-04-18T07:43:30Z</time></trkpt><trkpt lat="47.87405773802589" lon="11.773334319002991"><ele>660.5</ele><time>2026-04-18T07:43:31Z</time></trkpt><trkpt lat="47.87392502893122" lon="11.773660052685473"><ele>660.0</ele><time>2026-04-18T07:43:32Z</time></trkpt><trkpt lat="47.87379300425309" lon="11.773984630250037"><ele>660.0</ele><time>2026-04-18T07:43:33Z</time></trkpt><trkpt lat="47.873662413191724" lon="11.774306426690774"><ele>660.0</ele><time>2026-04-18T07:43:34Z</time></trkpt><trkpt lat="47.87352983612573" lon="11.774629969653912"><ele>661.0</ele><time>2026-04-18T07:43:35Z</time></trkpt><trkpt lat="47.87339673601676" lon="11.774955472717915"><ele>662.0</ele><time>2026-04-18T07:43:36Z</time></trkpt><trkpt lat="47.873263818346686" lon="11.775277484198869"><ele>662.5</ele><time>2026-04-18T07:43:37Z</time></trkpt><trkpt lat="47.87313180044802" lon="11.77559932459031"><ele>663.0</ele><time>2026-04-18T07:43:38Z</time></trkpt><trkpt lat="47.87299816298828" lon="11.77592405660463"><ele>663.0</ele><time>2026-04-18T07:43:39Z</time></trkpt><trkpt lat="47.872864127756046" lon="11.77625359646691"><ele>663.0</ele><time>2026-04-18T07:43:40Z</time></trkpt><trkpt lat="47.87272993603313" lon="11.776584611041567"><ele>662.5</ele><time>2026-04-18T07:43:41Z</time></trkpt><trkpt lat="47.872597158935655" lon="11.77691208504993"><ele>662.0</ele><time>2026-04-18T07:43:42Z</time></trkpt><trkpt lat="47.872466628718016" lon="11.777234341506553"><ele>662.0</ele><time>2026-04-18T07:43:43Z</time></trkpt><trkpt lat="47.87233885813255" lon="11.777552954637326"><ele>662.0</ele><time>2026-04-18T07:43:44Z</time></trkpt><trkpt lat="47.87221176930969" lon="11.77786833537583"><ele>661.5</ele><time>2026-04-18T07:43:45Z</time></trkpt><trkpt lat="47.87208477040726" lon="11.77818122250952"><ele>661.0</ele><time>2026-04-18T07:43:46Z</time></trkpt><trkpt lat="47.87195723692035" lon="11.778492592939172"><ele>661.5</ele><time>2026-04-18T07:43:47Z</time></trkpt><trkpt lat="47.87183130523371" lon="11.778800797694046"><ele>662.0</ele><time>2026-04-18T07:43:48Z</time></trkpt><trkpt lat="47.87170552693586" lon="11.779111172668635"><ele>663.0</ele><time>2026-04-18T07:43:49Z</time></trkpt><trkpt lat="47.871578089120646" lon="11.779425529762312"><ele>664.0</ele><time>2026-04-18T07:43:50Z</time></trkpt><trkpt lat="47.871451664103525" lon="11.779737531277643"><ele>664.0</ele><time>2026-04-18T07:43:51Z</time></trkpt><trkpt lat="47.87132705087591" lon="11.780043470461282"><ele>664.0</ele><time>2026-04-18T07:43:52Z</time></trkpt><trkpt lat="47.87120191503139" lon="11.780347876508669"><ele>663.0</ele><time>2026-04-18T07:43:53Z</time></trkpt><trkpt lat="47.87107847952177" lon="11.780649482277715"><ele>662.0</ele><time>2026-04-18T07:43:54Z</time></trkpt><trkpt lat="47.870956409795774" lon="11.78095292770138"><ele>662.5</ele><time>2026-04-18T07:43:55Z</time></trkpt><trkpt lat="47.87083272032124" lon="11.781262107447748"><ele>663.0</ele><time>2026-04-18T07:43:56Z</time></trkpt><trkpt lat="47.87070725840447" lon="11.781569718495078"><ele>661.5</ele><time>2026-04-18T07:43:57Z</time></trkpt><trkpt lat="47.87058604738859" lon="11.781868396924883"><ele>660.0</ele><time>2026-04-18T07:43:58Z</time></trkpt><trkpt lat="47.87046349772713" lon="11.782177582998559"><ele>660.0</ele><time>2026-04-18T07:43:59Z</time></trkpt><trkpt lat="47.870335796616104" lon="11.782501061823007"><ele>660.0</ele><time>2026-04-18T07:44:00Z</time></trkpt><trkpt lat="47.87020884631232" lon="11.782826344878416"><ele>661.0</ele><time>2026-04-18T07:44:01Z</time></trkpt><trkpt lat="47.870086211518014" lon="11.783149319788702"><ele>662.0</ele><time>2026-04-18T07:44:02Z</time></trkpt><trkpt lat="47.86996478465916" lon="11.78347377765212"><ele>662.0</ele><time>2026-04-18T07:44:03Z</time></trkpt><trkpt lat="47.869842370832494" lon="11.783797649697405"><ele>662.0</ele><time>2026-04-18T07:44:04Z</time></trkpt><trkpt lat="47.86971537232943" lon="11.784122740842998"><ele>661.5</ele><time>2026-04-18T07:44:05Z</time></trkpt><trkpt lat="47.869584037510876" lon="11.784454487562186"><ele>661.0</ele><time>2026-04-18T07:44:06Z</time></trkpt><trkpt lat="47.869450387958565" lon="11.784793145964615"><ele>661.0</ele><time>2026-04-18T07:44:07Z</time></trkpt><trkpt lat="47.86931758558" lon="11.785126208837726"><ele>661.0</ele><time>2026-04-18T07:44:08Z</time></trkpt><trkpt lat="47.86918343173428" lon="11.785454183643894"><ele>646.5</ele><time>2026-04-18T07:44:09Z</time></trkpt><trkpt lat="47.869050514312185" lon="11.785778995490858"><ele>632.0</ele><time>2026-04-18T07:44:10Z</time></trkpt><trkpt lat="47.86891750978998" lon="11.786106641015287"><ele>625.5</ele><time>2026-04-18T07:44:11Z</time></trkpt><trkpt lat="47.868781849823336" lon="11.786438401512678"><ele>619.0</ele><time>2026-04-18T07:44:12Z</time></trkpt><trkpt lat="47.868646752542034" lon="11.786777807055351"><ele>622.5</ele><time>2026-04-18T07:44:13Z</time></trkpt><trkpt lat="47.868508373526794" lon="11.787120777512612"><ele>626.0</ele><time>2026-04-18T07:44:14Z</time></trkpt><trkpt lat="47.86836796756863" lon="11.78746428730031"><ele>644.5</ele><time>2026-04-18T07:44:15Z</time></trkpt><trkpt lat="47.86822632415615" lon="11.787821320407929"><ele>663.0</ele><time>2026-04-18T07:44:16Z</time></trkpt><trkpt lat="47.8680819259695" lon="11.788191231095816"><ele>667.5</ele><time>2026-04-18T07:44:17Z</time></trkpt><trkpt lat="47.867932495433685" lon="11.788585075514176"><ele>672.0</ele><time>2026-04-18T07:44:18Z</time></trkpt><trkpt lat="47.86777828308599" lon="11.78899330242352"><ele>675.0</ele><time>2026-04-18T07:44:19Z</time></trkpt><trkpt lat="47.86761845440242" lon="11.789393407285768"><ele>678.0</ele><time>2026-04-18T07:44:20Z</time></trkpt><trkpt lat="47.86745519682472" lon="11.789784948363842"><ele>678.0</ele><time>2026-04-18T07:44:21Z</time></trkpt><trkpt lat="47.86730202247048" lon="11.79016423253937"><ele>678.0</ele><time>2026-04-18T07:44:22Z</time></trkpt><trkpt lat="47.86714853680785" lon="11.790541288320497"><ele>678.5</ele><time>2026-04-18T07:44:23Z</time></trkpt><trkpt lat="47.866999759705344" lon="11.790911445951018"><ele>679.0</ele><time>2026-04-18T07:44:24Z</time></trkpt><trkpt lat="47.86685876139503" lon="11.791281439355716"><ele>680.0</ele><time>2026-04-18T07:44:25Z</time></trkpt><trkpt lat="47.866721029809966" lon="11.791648468626263"><ele>681.0</ele><time>2026-04-18T07:44:26Z</time></trkpt><trkpt lat="47.86658490707422" lon="11.792006749258174"><ele>681.0</ele><time>2026-04-18T07:44:27Z</time></trkpt><trkpt lat="47.86645547650864" lon="11.792366438793835"><ele>681.0</ele><time>2026-04-18T07:44:28Z</time></trkpt><trkpt lat="47.866328432894925" lon="11.792732613279938"><ele>680.5</ele><time>2026-04-18T07:44:29Z</time></trkpt><trkpt lat="47.866208048573135" lon="11.79310180069136"><ele>680.0</ele><time>2026-04-18T07:44:30Z</time></trkpt><trkpt lat="47.86609149915131" lon="11.793481775249242"><ele>677.5</ele><time>2026-04-18T07:44:31Z</time></trkpt><trkpt lat="47.865978872243105" lon="11.793862691947703"><ele>675.0</ele><time>2026-04-18T07:44:32Z</time></trkpt><trkpt lat="47.86587304653478" lon="11.794251133233253"><ele>673.5</ele><time>2026-04-18T07:44:33Z</time></trkpt><trkpt lat="47.86577196585132" lon="11.794636238398505"><ele>672.0</ele><time>2026-04-18T07:44:34Z</time></trkpt><trkpt lat="47.86567591479776" lon="11.795024843724155"><ele>671.0</ele><time>2026-04-18T07:44:35Z</time></trkpt><trkpt lat="47.86558216527573" lon="11.79541487355581"><ele>670.0</ele><time>2026-04-18T07:44:36Z</time></trkpt><trkpt lat="47.86548994101648" lon="11.79580891365207"><ele>669.0</ele><time>2026-04-18T07:44:37Z</time></trkpt><trkpt lat="47.86539971043989" lon="11.796206038439054"><ele>668.0</ele><time>2026-04-18T07:44:38Z</time></trkpt><trkpt lat="47.865311976247085" lon="11.796614626442159"><ele>668.5</ele><time>2026-04-18T07:44:39Z</time></trkpt><trkpt lat="47.86522937136988" lon="11.797035523441545"><ele>669.0</ele><time>2026-04-18T07:44:40Z</time></trkpt><trkpt lat="47.86515208252187" lon="11.797458849954342"><ele>669.0</ele><time>2026-04-18T07:44:41Z</time></trkpt><trkpt lat="47.86507922032949" lon="11.797878738193262"><ele>669.0</ele><time>2026-04-18T07:44:42Z</time></trkpt><trkpt lat="47.86500906532186" lon="11.79829926020344"><ele>668.5</ele><time>2026-04-18T07:44:43Z</time></trkpt><trkpt lat="47.86494564910145" lon="11.798718038153089"><ele>668.0</ele><time>2026-04-18T07:44:44Z</time></trkpt><trkpt lat="47.86488883843053" lon="11.799130381679745"><ele>668.0</ele><time>2026-04-18T07:44:45Z</time></trkpt><trkpt lat="47.86483859401711" lon="11.799532679509408"><ele>668.0</ele><time>2026-04-18T07:44:46Z</time></trkpt><trkpt lat="47.86479410313491" lon="11.7999403757278"><ele>667.0</ele><time>2026-04-18T07:44:47Z</time></trkpt><trkpt lat="47.864752248235845" lon="11.800357565570666"><ele>666.0</ele><time>2026-04-18T07:44:48Z</time></trkpt><trkpt lat="47.86471271818308" lon="11.800773726865243"><ele>664.0</ele><time>2026-04-18T07:44:49Z</time></trkpt><trkpt lat="47.86467724495026" lon="11.801191172419243"><ele>662.0</ele><time>2026-04-18T07:44:50Z</time></trkpt><trkpt lat="47.864647450513594" lon="11.801606318639513"><ele>661.5</ele><time>2026-04-18T07:44:51Z</time></trkpt><trkpt lat="47.864622835495936" lon="11.802020071590265"><ele>661.0</ele><time>2026-04-18T07:44:52Z</time></trkpt><trkpt lat="47.86460077496528" lon="11.802431123226313"><ele>660.0</ele><time>2026-04-18T07:44:53Z</time></trkpt><trkpt lat="47.8645840931662" lon="11.80284147153079"><ele>659.0</ele><time>2026-04-18T07:44:54Z</time></trkpt><trkpt lat="47.86457094004927" lon="11.803249166183775"><ele>658.5</ele><time>2026-04-18T07:44:55Z</time></trkpt><trkpt lat="47.86456191937416" lon="11.803654036550007"><ele>658.0</ele><time>2026-04-18T07:44:56Z</time></trkpt><trkpt lat="47.86455766048904" lon="11.804054517239447"><ele>657.5</ele><time>2026-04-18T07:44:57Z</time></trkpt><trkpt lat="47.864558097520245" lon="11.80445719827308"><ele>657.0</ele><time>2026-04-18T07:44:58Z</time></trkpt><trkpt lat="47.86456236407784" lon="11.804861084576853"><ele>659.5</ele><time>2026-04-18T07:44:59Z</time></trkpt><trkpt lat="47.86457017993683" lon="11.8052628807267"><ele>662.0</ele><time>2026-04-18T07:45:00Z</time></trkpt><trkpt lat="47.864581759271346" lon="11.805661672264728"><ele>662.0</ele><time>2026-04-18T07:45:01Z</time></trkpt><trkpt lat="47.86459845982949" lon="11.806061252749235"><ele>662.0</ele><time>2026-04-18T07:45:02Z</time></trkpt><trkpt lat="47.86461633433698" lon="11.806460578538045"><ele>662.0</ele><time>2026-04-18T07:45:03Z</time></trkpt><trkpt lat="47.86463781308556" lon="11.806856156013556"><ele>662.0</ele><time>2026-04-18T07:45:04Z</time></trkpt><trkpt lat="47.86465886558251" lon="11.807246735103158"><ele>662.0</ele><time>2026-04-18T07:45:05Z</time></trkpt><trkpt lat="47.86468024598846" lon="11.807627973195611"><ele>662.0</ele><time>2026-04-18T07:45:06Z</time></trkpt><trkpt lat="47.86470549845914" lon="11.808017284211816"><ele>661.5</ele><time>2026-04-18T07:45:07Z</time></trkpt><trkpt lat="47.864739862219814" lon="11.808416797701978"><ele>661.0</ele><time>2026-04-18T07:45:08Z</time></trkpt><trkpt lat="47.86478348251508" lon="11.808827431094"><ele>660.0</ele><time>2026-04-18T07:45:09Z</time></trkpt><trkpt lat="47.86483309584371" lon="11.809250867219905"><ele>659.0</ele><time>2026-04-18T07:45:10Z</time></trkpt><trkpt lat="47.864883463628644" lon="11.80968149567044"><ele>658.5</ele><time>2026-04-18T07:45:11Z</time></trkpt><trkpt lat="47.864933181164474" lon="11.810114056454701"><ele>658.0</ele><time>2026-04-18T07:45:12Z</time></trkpt><trkpt lat="47.86497962446556" lon="11.810549525610796"><ele>656.0</ele><time>2026-04-18T07:45:13Z</time></trkpt><trkpt lat="47.86502546143381" lon="11.81098415737279"><ele>654.0</ele><time>2026-04-18T07:45:14Z</time></trkpt><trkpt lat="47.86507393184856" lon="11.811420451372785"><ele>652.5</ele><time>2026-04-18T07:45:15Z</time></trkpt><trkpt lat="47.86512265063233" lon="11.811853594083582"><ele>651.0</ele><time>2026-04-18T07:45:16Z</time></trkpt><trkpt lat="47.86516975939356" lon="11.812288099895053"><ele>653.0</ele><time>2026-04-18T07:45:17Z</time></trkpt><trkpt lat="47.86521732726631" lon="11.812721187835125"><ele>655.0</ele><time>2026-04-18T07:45:18Z</time></trkpt><trkpt lat="47.86526400251491" lon="11.813152058470319"><ele>656.5</ele><time>2026-04-18T07:45:19Z</time></trkpt><trkpt lat="47.865310124560644" lon="11.81357773235822"><ele>658.0</ele><time>2026-04-18T07:45:20Z</time></trkpt><trkpt lat="47.865353956987576" lon="11.813997844098402"><ele>658.5</ele><time>2026-04-18T07:45:21Z</time></trkpt><trkpt lat="47.865395214855596" lon="11.814411993966058"><ele>659.0</ele><time>2026-04-18T07:45:22Z</time></trkpt><trkpt lat="47.86543364370211" lon="11.814826076825549"><ele>660.5</ele><time>2026-04-18T07:45:23Z</time></trkpt><trkpt lat="47.86546715273824" lon="11.815246938207132"><ele>662.0</ele><time>2026-04-18T07:45:24Z</time></trkpt><trkpt lat="47.865493226806876" lon="11.815666018177696"><ele>663.0</ele><time>2026-04-18T07:45:25Z</time></trkpt><trkpt lat="47.8655150413813" lon="11.816079997302664"><ele>664.0</ele><time>2026-04-18T07:45:26Z</time></trkpt><trkpt lat="47.86553063056513" lon="11.816487614976072"><ele>664.5</ele><time>2026-04-18T07:45:27Z</time></trkpt><trkpt lat="47.865543449556164" lon="11.816891213488473"><ele>665.0</ele><time>2026-04-18T07:45:28Z</time></trkpt><trkpt lat="47.86554659904546" lon="11.817276966132646"><ele>663.5</ele><time>2026-04-18T07:45:29Z</time></trkpt><trkpt lat="47.865549680555" lon="11.817663973448548"><ele>662.0</ele><time>2026-04-18T07:45:30Z</time></trkpt><trkpt lat="47.865551923817236" lon="11.818048388092224"><ele>662.0</ele><time>2026-04-18T07:45:31Z</time></trkpt><trkpt lat="47.86554901047319" lon="11.818431497975986"><ele>662.0</ele><time>2026-04-18T07:45:32Z</time></trkpt><trkpt lat="47.865543397478426" lon="11.818815965519839"><ele>661.5</ele><time>2026-04-18T07:45:33Z</time></trkpt><trkpt lat="47.86553335408398" lon="11.819205275064927"><ele>661.0</ele><time>2026-04-18T07:45:34Z</time></trkpt><trkpt lat="47.86551846192833" lon="11.819591655688086"><ele>661.0</ele><time>2026-04-18T07:45:35Z</time></trkpt><trkpt lat="47.86550285500153" lon="11.819979433508895"><ele>661.0</ele><time>2026-04-18T07:45:36Z</time></trkpt><trkpt lat="47.86548225458219" lon="11.820365517855961"><ele>661.0</ele><time>2026-04-18T07:45:37Z</time></trkpt><trkpt lat="47.86545748751314" lon="11.82075840088043"><ele>661.0</ele><time>2026-04-18T07:45:38Z</time></trkpt><trkpt lat="47.8654276110512" lon="11.821151225902925"><ele>661.5</ele><time>2026-04-18T07:45:39Z</time></trkpt><trkpt lat="47.8653932536791" lon="11.821544499937714"><ele>662.0</ele><time>2026-04-18T07:45:40Z</time></trkpt><trkpt lat="47.86535554812118" lon="11.821935567096101"><ele>662.0</ele><time>2026-04-18T07:45:41Z</time></trkpt><trkpt lat="47.86531320004464" lon="11.822323886151421"><ele>662.0</ele><time>2026-04-18T07:45:42Z</time></trkpt><trkpt lat="47.865268272596055" lon="11.82271138947633"><ele>662.5</ele><time>2026-04-18T07:45:43Z</time></trkpt><trkpt lat="47.86521789765026" lon="11.82309806350103"><ele>663.0</ele><time>2026-04-18T07:45:44Z</time></trkpt><trkpt lat="47.86516716202944" lon="11.8234876208603"><ele>663.0</ele><time>2026-04-18T07:45:45Z</time></trkpt><trkpt lat="47.86511364886361" lon="11.823875395477843"><ele>663.0</ele><time>2026-04-18T07:45:46Z</time></trkpt><trkpt lat="47.86506168534499" lon="11.824262710961934"><ele>664.0</ele><time>2026-04-18T07:45:47Z</time></trkpt><trkpt lat="47.865013710683655" lon="11.8246496778198"><ele>665.0</ele><time>2026-04-18T07:45:48Z</time></trkpt><trkpt lat="47.8649740288217" lon="11.82504644727203"><ele>665.5</ele><time>2026-04-18T07:45:49Z</time></trkpt><trkpt lat="47.86493503680112" lon="11.82542705365114"><ele>666.0</ele><time>2026-04-18T07:45:50Z</time></trkpt><trkpt lat="47.864893992135336" lon="11.825787638312205"><ele>664.0</ele><time>2026-04-18T07:45:51Z</time></trkpt><trkpt lat="47.86485000024079" lon="11.826133232751385"><ele>662.0</ele><time>2026-04-18T07:45:52Z</time></trkpt><trkpt lat="47.86480297066669" lon="11.826467106949751"><ele>662.0</ele><time>2026-04-18T07:45:53Z</time></trkpt><trkpt lat="47.864760477968" lon="11.826795901600496"><ele>662.0</ele><time>2026-04-18T07:45:54Z</time></trkpt><trkpt lat="47.864718069917224" lon="11.82713724971131"><ele>660.5</ele><time>2026-04-18T07:45:55Z</time></trkpt><trkpt lat="47.86467146490169" lon="11.827487239391102"><ele>659.0</ele><time>2026-04-18T07:45:56Z</time></trkpt><trkpt lat="47.86461878492742" lon="11.827854961890266"><ele>659.0</ele><time>2026-04-18T07:45:57Z</time></trkpt><trkpt lat="47.86456340234436" lon="11.828228405050883"><ele>659.0</ele><time>2026-04-18T07:45:58Z</time></trkpt><trkpt lat="47.864503694141426" lon="11.828608827690063"><ele>657.5</ele><time>2026-04-18T07:45:59Z</time></trkpt><trkpt lat="47.86444171285443" lon="11.82899130713355"><ele>656.0</ele><time>2026-04-18T07:46:00Z</time></trkpt><trkpt lat="47.86437655654565" lon="11.829375417916163"><ele>656.0</ele><time>2026-04-18T07:46:01Z</time></trkpt><trkpt lat="47.86430712430756" lon="11.829767382472218"><ele>656.0</ele><time>2026-04-18T07:46:02Z</time></trkpt><trkpt lat="47.864230166618995" lon="11.830156675817857"><ele>655.5</ele><time>2026-04-18T07:46:03Z</time></trkpt><trkpt lat="47.864151962617136" lon="11.830540787660716"><ele>655.0</ele><time>2026-04-18T07:46:04Z</time></trkpt><trkpt lat="47.8640703454202" lon="11.830917167204237"><ele>657.0</ele><time>2026-04-18T07:46:05Z</time></trkpt><trkpt lat="47.86398558529892" lon="11.83129181630577"><ele>659.0</ele><time>2026-04-18T07:46:06Z</time></trkpt><trkpt lat="47.86390352842104" lon="11.83166091792418"><ele>660.0</ele><time>2026-04-18T07:46:07Z</time></trkpt><trkpt lat="47.86382364680907" lon="11.832021581163781"><ele>661.0</ele><time>2026-04-18T07:46:08Z</time></trkpt><trkpt lat="47.863742726810045" lon="11.832377769555007"><ele>663.5</ele><time>2026-04-18T07:46:09Z</time></trkpt><trkpt lat="47.863659751109296" lon="11.832730037271713"><ele>666.0</ele><time>2026-04-18T07:46:10Z</time></trkpt><trkpt lat="47.863575654021815" lon="11.83307580439703"><ele>666.0</ele><time>2026-04-18T07:46:11Z</time></trkpt><trkpt lat="47.86348923459441" lon="11.833418247416825"><ele>666.0</ele><time>2026-04-18T07:46:12Z</time></trkpt><trkpt lat="47.863404117024174" lon="11.833764062319585"><ele>669.0</ele><time>2026-04-18T07:46:13Z</time></trkpt><trkpt lat="47.86331867166137" lon="11.834113292753578"><ele>672.0</ele><time>2026-04-18T07:46:14Z</time></trkpt><trkpt lat="47.86323226854983" lon="11.834464882058844"><ele>672.0</ele><time>2026-04-18T07:46:15Z</time></trkpt><trkpt lat="47.86314095225748" lon="11.834815275161652"><ele>672.0</ele><time>2026-04-18T07:46:16Z</time></trkpt><trkpt lat="47.863051219035526" lon="11.835169061280471"><ele>672.0</ele><time>2026-04-18T07:46:17Z</time></trkpt><trkpt lat="47.862960599529174" lon="11.835528336727354"><ele>672.0</ele><time>2026-04-18T07:46:18Z</time></trkpt><trkpt lat="47.8628691597766" lon="11.835890998931403"><ele>670.0</ele><time>2026-04-18T07:46:19Z</time></trkpt><trkpt lat="47.86277758832726" lon="11.836256499902735"><ele>668.0</ele><time>2026-04-18T07:46:20Z</time></trkpt><trkpt lat="47.86268495907389" lon="11.836627271830029"><ele>667.5</ele><time>2026-04-18T07:46:21Z</time></trkpt><trkpt lat="47.86259371682755" lon="11.836998182465905"><ele>667.0</ele><time>2026-04-18T07:46:22Z</time></trkpt><trkpt lat="47.86250267855718" lon="11.83736442121692"><ele>669.0</ele><time>2026-04-18T07:46:23Z</time></trkpt><trkpt lat="47.86241263881034" lon="11.837727392831336"><ele>671.0</ele><time>2026-04-18T07:46:24Z</time></trkpt><trkpt lat="47.86232733530043" lon="11.838089929260079"><ele>671.0</ele><time>2026-04-18T07:46:25Z</time></trkpt><trkpt lat="47.86225025477093" lon="11.838456683032154"><ele>671.0</ele><time>2026-04-18T07:46:26Z</time></trkpt><trkpt lat="47.86218439189371" lon="11.838824098120012"><ele>674.0</ele><time>2026-04-18T07:46:27Z</time></trkpt><trkpt lat="47.86212683805491" lon="11.839191842855087"><ele>677.0</ele><time>2026-04-18T07:46:28Z</time></trkpt><trkpt lat="47.86207829012209" lon="11.839560447349651"><ele>679.5</ele><time>2026-04-18T07:46:29Z</time></trkpt><trkpt lat="47.86203512370306" lon="11.839930911765762"><ele>682.0</ele><time>2026-04-18T07:46:30Z</time></trkpt><trkpt lat="47.86200230819646" lon="11.84030035909616"><ele>682.5</ele><time>2026-04-18T07:46:31Z</time></trkpt><trkpt lat="47.86197586927051" lon="11.840670466274464"><ele>683.0</ele><time>2026-04-18T07:46:32Z</time></trkpt><trkpt lat="47.861950132589286" lon="11.84103972436494"><ele>683.5</ele><time>2026-04-18T07:46:33Z</time></trkpt><trkpt lat="47.86192204913306" lon="11.841411084340187"><ele>684.0</ele><time>2026-04-18T07:46:34Z</time></trkpt><trkpt lat="47.86189314287917" lon="11.84178546382661"><ele>682.0</ele><time>2026-04-18T07:46:35Z</time></trkpt><trkpt lat="47.86186521338463" lon="11.842159934250972"><ele>680.0</ele><time>2026-04-18T07:46:36Z</time></trkpt><trkpt lat="47.86183371028977" lon="11.842531814063765"><ele>677.5</ele><time>2026-04-18T07:46:37Z</time></trkpt><trkpt lat="47.861796943479284" lon="11.842887715078653"><ele>675.0</ele><time>2026-04-18T07:46:38Z</time></trkpt><trkpt lat="47.86175623683714" lon="11.843255166001"><ele>672.0</ele><time>2026-04-18T07:46:39Z</time></trkpt><trkpt lat="47.86171454632992" lon="11.843622355910952"><ele>669.0</ele><time>2026-04-18T07:46:40Z</time></trkpt><trkpt lat="47.861662494214706" lon="11.843990117216538"><ele>668.0</ele><time>2026-04-18T07:46:41Z</time></trkpt><trkpt lat="47.861603083806294" lon="11.844357288866362"><ele>667.0</ele><time>2026-04-18T07:46:42Z</time></trkpt><trkpt lat="47.86153631840612" lon="11.844724697164988"><ele>667.0</ele><time>2026-04-18T07:46:43Z</time></trkpt><trkpt lat="47.86146024014494" lon="11.845096609489769"><ele>667.0</ele><time>2026-04-18T07:46:44Z</time></trkpt><trkpt lat="47.86137383811573" lon="11.845465214588469"><ele>666.0</ele><time>2026-04-18T07:46:45Z</time></trkpt><trkpt lat="47.86127917885716" lon="11.845832008830627"><ele>665.0</ele><time>2026-04-18T07:46:46Z</time></trkpt><trkpt lat="47.86117764013351" lon="11.846195179220441"><ele>664.0</ele><time>2026-04-18T07:46:47Z</time></trkpt><trkpt lat="47.861068145200335" lon="11.846551501579905"><ele>663.0</ele><time>2026-04-18T07:46:48Z</time></trkpt><trkpt lat="47.86094849300472" lon="11.846902164075308"><ele>660.0</ele><time>2026-04-18T07:46:49Z</time></trkpt><trkpt lat="47.86082088147352" lon="11.847245438335042"><ele>657.0</ele><time>2026-04-18T07:46:50Z</time></trkpt><trkpt lat="47.86068552368023" lon="11.847580376749772"><ele>656.0</ele><time>2026-04-18T07:46:51Z</time></trkpt><trkpt lat="47.860543535030565" lon="11.847907648506151"><ele>655.0</ele><time>2026-04-18T07:46:52Z</time></trkpt><trkpt lat="47.86040797973543" lon="11.848223476780136"><ele>655.0</ele><time>2026-04-18T07:46:53Z</time></trkpt><trkpt lat="47.86027907898957" lon="11.848520998302469"><ele>655.0</ele><time>2026-04-18T07:46:54Z</time></trkpt><trkpt lat="47.86015631605184" lon="11.848804487934784"><ele>654.6666666666667</ele><time>2026-04-18T07:46:55Z</time></trkpt><trkpt lat="47.86003711489059" lon="11.849084038036116"><ele>654.3333333333334</ele><time>2026-04-18T07:46:56Z</time></trkpt><trkpt lat="47.859918714794254" lon="11.849362512013922"><ele>654.0</ele><time>2026-04-18T07:46:57Z</time></trkpt><trkpt lat="47.85979982141599" lon="11.84964556821722"><ele>654.0</ele><time>2026-04-18T07:46:58Z</time></trkpt><trkpt lat="47.85967956275897" lon="11.849926638013633"><ele>654.0</ele><time>2026-04-18T07:46:59Z</time></trkpt><trkpt lat="47.859559994553855" lon="11.850206838598773"><ele>654.0</ele><time>2026-04-18T07:47:00Z</time></trkpt><trkpt lat="47.85943939578304" lon="11.850492289935541"><ele>653.0</ele><time>2026-04-18T07:47:01Z</time></trkpt><trkpt lat="47.85931537138631" lon="11.850785169224665"><ele>652.0</ele><time>2026-04-18T07:47:02Z</time></trkpt><trkpt lat="47.85919308841347" lon="11.851079554253069"><ele>654.0</ele><time>2026-04-18T07:47:03Z</time></trkpt><trkpt lat="47.859070757171615" lon="11.851377969612896"><ele>656.0</ele><time>2026-04-18T07:47:04Z</time></trkpt><trkpt lat="47.85894562733407" lon="11.8516769155169"><ele>656.5</ele><time>2026-04-18T07:47:05Z</time></trkpt><trkpt lat="47.85881940097061" lon="11.851982129461458"><ele>657.0</ele><time>2026-04-18T07:47:06Z</time></trkpt><trkpt lat="47.85868862031013" lon="11.85229732955386"><ele>657.5</ele><time>2026-04-18T07:47:07Z</time></trkpt><trkpt lat="47.8585492914193" lon="11.852629044701303"><ele>658.0</ele><time>2026-04-18T07:47:08Z</time></trkpt><trkpt lat="47.85840761947603" lon="11.85296724735271"><ele>658.5</ele><time>2026-04-18T07:47:09Z</time></trkpt><trkpt lat="47.858264898246766" lon="11.853305968666948"><ele>659.0</ele><time>2026-04-18T07:47:10Z</time></trkpt><trkpt lat="47.85812352956015" lon="11.853642374603922"><ele>659.0</ele><time>2026-04-18T07:47:11Z</time></trkpt><trkpt lat="47.85798235690237" lon="11.85398013434122"><ele>659.0</ele><time>2026-04-18T07:47:12Z</time></trkpt><trkpt lat="47.85784129447665" lon="11.854317390800555"><ele>659.5</ele><time>2026-04-18T07:47:13Z</time></trkpt><trkpt lat="47.85770035188741" lon="11.854655233373526"><ele>660.0</ele><time>2026-04-18T07:47:14Z</time></trkpt><trkpt lat="47.85755565642272" lon="11.854998043663121"><ele>661.0</ele><time>2026-04-18T07:47:15Z</time></trkpt><trkpt lat="47.85741110932588" lon="11.855355421582809"><ele>662.0</ele><time>2026-04-18T07:47:16Z</time></trkpt><trkpt lat="47.85726528424969" lon="11.855711971752621"><ele>662.5</ele><time>2026-04-18T07:47:17Z</time></trkpt><trkpt lat="47.85711497764178" lon="11.856066962180458"><ele>663.0</ele><time>2026-04-18T07:47:18Z</time></trkpt><trkpt lat="47.85696029115294" lon="11.856421127462216"><ele>663.0</ele><time>2026-04-18T07:47:19Z</time></trkpt><trkpt lat="47.85679704931301" lon="11.856771802213649"><ele>663.0</ele><time>2026-04-18T07:47:20Z</time></trkpt><trkpt lat="47.85662706799845" lon="11.85711246532361"><ele>663.5</ele><time>2026-04-18T07:47:21Z</time></trkpt><trkpt lat="47.85645116267082" lon="11.857438890927304"><ele>664.0</ele><time>2026-04-18T07:47:22Z</time></trkpt><trkpt lat="47.85627421866689" lon="11.857750901804566"><ele>664.0</ele><time>2026-04-18T07:47:23Z</time></trkpt><trkpt lat="47.85609406447188" lon="11.858056326752584"><ele>664.0</ele><time>2026-04-18T07:47:24Z</time></trkpt><trkpt lat="47.8559078904558" lon="11.858353310080783"><ele>662.5</ele><time>2026-04-18T07:47:25Z</time></trkpt><trkpt lat="47.85573164881939" lon="11.858632726856689"><ele>661.0</ele><time>2026-04-18T07:47:26Z</time></trkpt><trkpt lat="47.8555543744392" lon="11.858896120135238"><ele>661.0</ele><time>2026-04-18T07:47:27Z</time></trkpt><trkpt lat="47.8553684632894" lon="11.859152746550901"><ele>661.0</ele><time>2026-04-18T07:47:28Z</time></trkpt><trkpt lat="47.85517937710941" lon="11.859402776479532"><ele>661.5</ele><time>2026-04-18T07:47:29Z</time></trkpt><trkpt lat="47.85499008688002" lon="11.859639331296064"><ele>662.0</ele><time>2026-04-18T07:47:30Z</time></trkpt><trkpt lat="47.854801139013674" lon="11.859870616842828"><ele>662.0</ele><time>2026-04-18T07:47:31Z</time></trkpt><trkpt lat="47.85461377087339" lon="11.860090034245816"><ele>662.0</ele><time>2026-04-18T07:47:32Z</time></trkpt><trkpt lat="47.85442153729014" lon="11.860297547809912"><ele>663.0</ele><time>2026-04-18T07:47:33Z</time></trkpt><trkpt lat="47.85422467656157" lon="11.860508953825375"><ele>664.0</ele><time>2026-04-18T07:47:34Z</time></trkpt><trkpt lat="47.85402936267234" lon="11.86072320113352"><ele>664.0</ele><time>2026-04-18T07:47:35Z</time></trkpt><trkpt lat="47.85384431247673" lon="11.860923732224103"><ele>664.0</ele><time>2026-04-18T07:47:36Z</time></trkpt><trkpt lat="47.853660372215806" lon="11.861126282906008"><ele>665.0</ele><time>2026-04-18T07:47:37Z</time></trkpt><trkpt lat="47.85347208675163" lon="11.861328956188522"><ele>666.0</ele><time>2026-04-18T07:47:38Z</time></trkpt><trkpt lat="47.85328000674605" lon="11.861534431861662"><ele>664.0</ele><time>2026-04-18T07:47:39Z</time></trkpt><trkpt lat="47.8530851458065" lon="11.86174696985979"><ele>662.0</ele><time>2026-04-18T07:47:40Z</time></trkpt><trkpt lat="47.85288654747228" lon="11.861963152002813"><ele>662.0</ele><time>2026-04-18T07:47:41Z</time></trkpt><trkpt lat="47.85268777782577" lon="11.862180192366315"><ele>662.0</ele><time>2026-04-18T07:47:42Z</time></trkpt><trkpt lat="47.85248758624739" lon="11.862394840579427"><ele>661.0</ele><time>2026-04-18T07:47:43Z</time></trkpt><trkpt lat="47.852290853416825" lon="11.862607033913092"><ele>660.0</ele><time>2026-04-18T07:47:44Z</time></trkpt><trkpt lat="47.85210006902359" lon="11.862812734918807"><ele>658.5</ele><time>2026-04-18T07:47:45Z</time></trkpt><trkpt lat="47.851913043361606" lon="11.863009283805424"><ele>657.0</ele><time>2026-04-18T07:47:46Z</time></trkpt><trkpt lat="47.85173022399273" lon="11.86320725872146"><ele>657.0</ele><time>2026-04-18T07:47:47Z</time></trkpt><trkpt lat="47.85154473469799" lon="11.863409649955003"><ele>657.0</ele><time>2026-04-18T07:47:48Z</time></trkpt><trkpt lat="47.851354822239124" lon="11.863612458334991"><ele>657.0</ele><time>2026-04-18T07:47:49Z</time></trkpt><trkpt lat="47.851159308125936" lon="11.863814261261851"><ele>657.0</ele><time>2026-04-18T07:47:50Z</time></trkpt><trkpt lat="47.850960227529995" lon="11.864010009055088"><ele>658.0</ele><time>2026-04-18T07:47:51Z</time></trkpt><trkpt lat="47.85075583495883" lon="11.864199837255509"><ele>659.0</ele><time>2026-04-18T07:47:52Z</time></trkpt><trkpt lat="47.85054415116417" lon="11.864392751282512"><ele>660.5</ele><time>2026-04-18T07:47:53Z</time></trkpt><trkpt lat="47.85032547177287" lon="11.864581746180837"><ele>662.0</ele><time>2026-04-18T07:47:54Z</time></trkpt><trkpt lat="47.85010387704137" lon="11.864763977828613"><ele>662.0</ele><time>2026-04-18T07:47:55Z</time></trkpt><trkpt lat="47.84987670490084" lon="11.864944076546358"><ele>662.0</ele><time>2026-04-18T07:47:56Z</time></trkpt><trkpt lat="47.84965301711259" lon="11.865122196050583"><ele>662.0</ele><time>2026-04-18T07:47:57Z</time></trkpt><trkpt lat="47.84943037504511" lon="11.865283964044277"><ele>662.0</ele><time>2026-04-18T07:47:58Z</time></trkpt><trkpt lat="47.84921045067042" lon="11.865436881904783"><ele>662.0</ele><time>2026-04-18T07:47:59Z</time></trkpt><trkpt lat="47.848988766300145" lon="11.865582140728035"><ele>662.0</ele><time>2026-04-18T07:48:00Z</time></trkpt><trkpt lat="47.84877821175407" lon="11.865713203102205"><ele>662.0</ele><time>2026-04-18T07:48:01Z</time></trkpt><trkpt lat="47.8485816688622" lon="11.86583508621745"><ele>662.0</ele><time>2026-04-18T07:48:02Z</time></trkpt><trkpt lat="47.84839617446077" lon="11.865949901716872"><ele>662.0</ele><time>2026-04-18T07:48:03Z</time></trkpt><trkpt lat="47.84821129790501" lon="11.866060084854976"><ele>662.5</ele><time>2026-04-18T07:48:04Z</time></trkpt><trkpt lat="47.8480087697233" lon="11.866178421736159"><ele>663.0</ele><time>2026-04-18T07:48:05Z</time></trkpt><trkpt lat="47.84778824932885" lon="11.866296783047085"><ele>662.5</ele><time>2026-04-18T07:48:06Z</time></trkpt><trkpt lat="47.847552625470804" lon="11.866414748624232"><ele>662.0</ele><time>2026-04-18T07:48:07Z</time></trkpt><trkpt lat="47.84732909083662" lon="11.866516208615895"><ele>662.0</ele><time>2026-04-18T07:48:08Z</time></trkpt><trkpt lat="47.84709224911098" lon="11.86662200812356"><ele>662.0</ele><time>2026-04-18T07:48:09Z</time></trkpt><trkpt lat="47.84683788599104" lon="11.866747673205195"><ele>668.0</ele><time>2026-04-18T07:48:10Z</time></trkpt><trkpt lat="47.84656875981962" lon="11.866868274346695"><ele>674.0</ele><time>2026-04-18T07:48:11Z</time></trkpt><trkpt lat="47.84629652826558" lon="11.866971663439596"><ele>674.0</ele><time>2026-04-18T07:48:12Z</time></trkpt><trkpt lat="47.84601858110978" lon="11.86707548997903"><ele>674.0</ele><time>2026-04-18T07:48:13Z</time></trkpt><trkpt lat="47.845754311517794" lon="11.867169218057233"><ele>670.0</ele><time>2026-04-18T07:48:14Z</time></trkpt><trkpt lat="47.84549605618355" lon="11.867253007438462"><ele>666.0</ele><time>2026-04-18T07:48:15Z</time></trkpt><trkpt lat="47.84524487388589" lon="11.867349269754673"><ele>664.0</ele><time>2026-04-18T07:48:16Z</time></trkpt><trkpt lat="47.8449995255402" lon="11.867454270630432"><ele>662.0</ele><time>2026-04-18T07:48:17Z</time></trkpt><trkpt lat="47.844747331668486" lon="11.867565934646631"><ele>662.5</ele><time>2026-04-18T07:48:18Z</time></trkpt><trkpt lat="47.84448676278369" lon="11.867687661423375"><ele>663.0</ele><time>2026-04-18T07:48:19Z</time></trkpt><trkpt lat="47.84422886034624" lon="11.867812794803125"><ele>656.0</ele><time>2026-04-18T07:48:20Z</time></trkpt><trkpt lat="47.84398218152823" lon="11.867946635405408"><ele>649.0</ele><time>2026-04-18T07:48:21Z</time></trkpt><trkpt lat="47.84374211158491" lon="11.868087618108817"><ele>649.0</ele><time>2026-04-18T07:48:22Z</time></trkpt><trkpt lat="47.84350860621759" lon="11.868231015302582"><ele>649.0</ele><time>2026-04-18T07:48:23Z</time></trkpt><trkpt lat="47.84327605937586" lon="11.868384687221285"><ele>651.0</ele><time>2026-04-18T07:48:24Z</time></trkpt><trkpt lat="47.84304562077063" lon="11.868546153969485"><ele>653.0</ele><time>2026-04-18T07:48:25Z</time></trkpt><trkpt lat="47.84282015362342" lon="11.86871514836741"><ele>650.5</ele><time>2026-04-18T07:48:26Z</time></trkpt><trkpt lat="47.8425901213267" lon="11.868894781056886"><ele>648.0</ele><time>2026-04-18T07:48:27Z</time></trkpt><trkpt lat="47.84235950150275" lon="11.86908484572531"><ele>645.5</ele><time>2026-04-18T07:48:28Z</time></trkpt><trkpt lat="47.842129667684745" lon="11.869288800879149"><ele>643.0</ele><time>2026-04-18T07:48:29Z</time></trkpt><trkpt lat="47.84189858289599" lon="11.869503370826159"><ele>645.0</ele><time>2026-04-18T07:48:30Z</time></trkpt><trkpt lat="47.841667721209696" lon="11.8697298339312"><ele>647.0</ele><time>2026-04-18T07:48:31Z</time></trkpt><trkpt lat="47.841439700093744" lon="11.869958521890062"><ele>643.5</ele><time>2026-04-18T07:48:32Z</time></trkpt><trkpt lat="47.841212736645375" lon="11.87018563844583"><ele>640.0</ele><time>2026-04-18T07:48:33Z</time></trkpt><trkpt lat="47.84099143546999" lon="11.870399493496729"><ele>640.0</ele><time>2026-04-18T07:48:34Z</time></trkpt><trkpt lat="47.84076779491796" lon="11.870616746715754"><ele>640.0</ele><time>2026-04-18T07:48:35Z</time></trkpt><trkpt lat="47.84054742307994" lon="11.870837880282444"><ele>638.5</ele><time>2026-04-18T07:48:36Z</time></trkpt><trkpt lat="47.84032880500774" lon="11.871054287226954"><ele>637.0</ele><time>2026-04-18T07:48:37Z</time></trkpt><trkpt lat="47.8401123509305" lon="11.871264881580332"><ele>637.0</ele><time>2026-04-18T07:48:38Z</time></trkpt><trkpt lat="47.839897794611076" lon="11.871476158177494"><ele>637.0</ele><time>2026-04-18T07:48:39Z</time></trkpt><trkpt lat="47.839684992443786" lon="11.871690363429124"><ele>637.0</ele><time>2026-04-18T07:48:40Z</time></trkpt><trkpt lat="47.839476752810995" lon="11.871898776867328"><ele>637.0</ele><time>2026-04-18T07:48:41Z</time></trkpt><trkpt lat="47.83927318483372" lon="11.872105339146485"><ele>637.0</ele><time>2026-04-18T07:48:42Z</time></trkpt><trkpt lat="47.83907166961658" lon="11.872312203144782"><ele>637.0</ele><time>2026-04-18T07:48:43Z</time></trkpt><trkpt lat="47.838872071475755" lon="11.872534627518649"><ele>634.0</ele><time>2026-04-18T07:48:44Z</time></trkpt><trkpt lat="47.838673332638876" lon="11.872778067437945"><ele>631.0</ele><time>2026-04-18T07:48:45Z</time></trkpt><trkpt lat="47.838477633066184" lon="11.873029284541047"><ele>631.5</ele><time>2026-04-18T07:48:46Z</time></trkpt><trkpt lat="47.83828673716145" lon="11.873290980507841"><ele>632.0</ele><time>2026-04-18T07:48:47Z</time></trkpt><trkpt lat="47.83810442845369" lon="11.873566954174395"><ele>628.5</ele><time>2026-04-18T07:48:48Z</time></trkpt><trkpt lat="47.837928809325284" lon="11.87384565823306"><ele>625.0</ele><time>2026-04-18T07:48:49Z</time></trkpt><trkpt lat="47.83776078591401" lon="11.874135316324953"><ele>623.0</ele><time>2026-04-18T07:48:50Z</time></trkpt><trkpt lat="47.837602075742474" lon="11.874419427502398"><ele>621.0</ele><time>2026-04-18T07:48:51Z</time></trkpt><trkpt lat="47.83744783018122" lon="11.874702382921534"><ele>621.0</ele><time>2026-04-18T07:48:52Z</time></trkpt><trkpt lat="47.83729794825162" lon="11.874983919855735"><ele>621.0</ele><time>2026-04-18T07:48:53Z</time></trkpt><trkpt lat="47.83714948987254" lon="11.875264984045401"><ele>617.5</ele><time>2026-04-18T07:48:54Z</time></trkpt><trkpt lat="47.83699648053361" lon="11.87554649899207"><ele>614.0</ele><time>2026-04-18T07:48:55Z</time></trkpt><trkpt lat="47.83683923817722" lon="11.87583675676858"><ele>613.0</ele><time>2026-04-18T07:48:56Z</time></trkpt><trkpt lat="47.83667918091013" lon="11.876129886112459"><ele>612.0</ele><time>2026-04-18T07:48:57Z</time></trkpt><trkpt lat="47.8365159651989" lon="11.876429375484387"><ele>612.0</ele><time>2026-04-18T07:48:58Z</time></trkpt><trkpt lat="47.83635090564427" lon="11.87673399148797"><ele>612.0</ele><time>2026-04-18T07:48:59Z</time></trkpt><trkpt lat="47.83618840055611" lon="11.877033727091934"><ele>611.5</ele><time>2026-04-18T07:49:00Z</time></trkpt><trkpt lat="47.83602483969525" lon="11.877334523634122"><ele>611.0</ele><time>2026-04-18T07:49:01Z</time></trkpt><trkpt lat="47.83586100230177" lon="11.87763639301274"><ele>611.0</ele><time>2026-04-18T07:49:02Z</time></trkpt><trkpt lat="47.8357002437172" lon="11.877934981865678"><ele>611.0</ele><time>2026-04-18T07:49:03Z</time></trkpt><trkpt lat="47.83553908043162" lon="11.878231328526212"><ele>610.5</ele><time>2026-04-18T07:49:04Z</time></trkpt><trkpt lat="47.835376640019874" lon="11.878531552912781"><ele>610.0</ele><time>2026-04-18T07:49:05Z</time></trkpt><trkpt lat="47.83521563827485" lon="11.87883083581114"><ele>610.0</ele><time>2026-04-18T07:49:06Z</time></trkpt><trkpt lat="47.835057618330566" lon="11.879127262012622"><ele>610.0</ele><time>2026-04-18T07:49:07Z</time></trkpt><trkpt lat="47.834901729410156" lon="11.87942109590578"><ele>609.0</ele><time>2026-04-18T07:49:08Z</time></trkpt><trkpt lat="47.83474255452148" lon="11.87971263991394"><ele>608.0</ele><time>2026-04-18T07:49:09Z</time></trkpt><trkpt lat="47.83458320023732" lon="11.880003588629041"><ele>608.5</ele><time>2026-04-18T07:49:10Z</time></trkpt><trkpt lat="47.8344242915095" lon="11.880296629503512"><ele>609.0</ele><time>2026-04-18T07:49:11Z</time></trkpt><trkpt lat="47.83426639432167" lon="11.88058689762841"><ele>609.0</ele><time>2026-04-18T07:49:12Z</time></trkpt><trkpt lat="47.834113035897445" lon="11.880869995416099"><ele>609.0</ele><time>2026-04-18T07:49:13Z</time></trkpt><trkpt lat="47.83396797524071" lon="11.88113430505595"><ele>609.6666666666666</ele><time>2026-04-18T07:49:14Z</time></trkpt><trkpt lat="47.83383303837731" lon="11.881384084855402"><ele>610.3333333333333</ele><time>2026-04-18T07:49:15Z</time></trkpt><trkpt lat="47.83370657170881" lon="11.881622294334292"><ele>611.0</ele><time>2026-04-18T07:49:16Z</time></trkpt><trkpt lat="47.83357730239017" lon="11.881868116844686"><ele>611.5</ele><time>2026-04-18T07:49:17Z</time></trkpt><trkpt lat="47.83343589134693" lon="11.882131345140753"><ele>612.0</ele><time>2026-04-18T07:49:18Z</time></trkpt><trkpt lat="47.83329272245874" lon="11.882395885288544"><ele>612.0</ele><time>2026-04-18T07:49:19Z</time></trkpt><trkpt lat="47.833159093940964" lon="11.882645773628742"><ele>612.0</ele><time>2026-04-18T07:49:20Z</time></trkpt><trkpt lat="47.83302821416513" lon="11.88288753465899"><ele>612.0</ele><time>2026-04-18T07:49:21Z</time></trkpt><trkpt lat="47.83289492334905" lon="11.88312933925048"><ele>612.0</ele><time>2026-04-18T07:49:22Z</time></trkpt><trkpt lat="47.83276622034367" lon="11.883363248508433"><ele>612.0</ele><time>2026-04-18T07:49:23Z</time></trkpt><trkpt lat="47.832648426611335" lon="11.883578690439766"><ele>612.0</ele><time>2026-04-18T07:49:24Z</time></trkpt><trkpt lat="47.832539016371044" lon="11.88378551356756"><ele>612.6666666666666</ele><time>2026-04-18T07:49:25Z</time></trkpt><trkpt lat="47.83243258864533" lon="11.883982627264501"><ele>613.3333333333333</ele><time>2026-04-18T07:49:26Z</time></trkpt><trkpt lat="47.832327718078524" lon="11.88417465246019"><ele>614.0</ele><time>2026-04-18T07:49:27Z</time></trkpt><trkpt lat="47.83222176464873" lon="11.88436376453423"><ele>614.6666666666666</ele><time>2026-04-18T07:49:28Z</time></trkpt><trkpt lat="47.83212710627124" lon="11.884547637955732"><ele>615.3333333333334</ele><time>2026-04-18T07:49:29Z</time></trkpt><trkpt lat="47.8320234143927" lon="11.884741668708282"><ele>616.0</ele><time>2026-04-18T07:49:30Z</time></trkpt><trkpt lat="47.83191416317132" lon="11.884938424198099"><ele>616.0</ele><time>2026-04-18T07:49:31Z</time></trkpt><trkpt lat="47.83180749884559" lon="11.885130980419289"><ele>616.0</ele><time>2026-04-18T07:49:32Z</time></trkpt><trkpt lat="47.83168880832978" lon="11.885348421615632"><ele>616.0</ele><time>2026-04-18T07:49:33Z</time></trkpt><trkpt lat="47.831576463400744" lon="11.885564324420127"><ele>617.3333333333334</ele><time>2026-04-18T07:49:34Z</time></trkpt><trkpt lat="47.83145868016564" lon="11.885779906797321"><ele>618.6666666666666</ele><time>2026-04-18T07:49:35Z</time></trkpt><trkpt lat="47.83134193192445" lon="11.885992808545698"><ele>620.0</ele><time>2026-04-18T07:49:36Z</time></trkpt><trkpt lat="47.8312097795742" lon="11.8862318977278"><ele>620.3333333333333</ele><time>2026-04-18T07:49:37Z</time></trkpt><trkpt lat="47.83107809660216" lon="11.886479571727952"><ele>620.6666666666666</ele><time>2026-04-18T07:49:38Z</time></trkpt><trkpt lat="47.83094909643637" lon="11.88672180670014"><ele>621.0</ele><time>2026-04-18T07:49:39Z</time></trkpt><trkpt lat="47.83081680837839" lon="11.886960094602783"><ele>623.6666666666666</ele><time>2026-04-18T07:49:40Z</time></trkpt><trkpt lat="47.83069835523242" lon="11.88718016705732"><ele>626.3333333333333</ele><time>2026-04-18T07:49:41Z</time></trkpt><trkpt lat="47.830569746058586" lon="11.887404138837466"><ele>629.0</ele><time>2026-04-18T07:49:42Z</time></trkpt><trkpt lat="47.830438287367876" lon="11.88762003818825"><ele>630.3333333333333</ele><time>2026-04-18T07:49:43Z</time></trkpt><trkpt lat="47.830300807265814" lon="11.887836296224236"><ele>631.6666666666666</ele><time>2026-04-18T07:49:44Z</time></trkpt><trkpt lat="47.830170045241424" lon="11.888068710914231"><ele>633.0</ele><time>2026-04-18T07:49:45Z</time></trkpt><trkpt lat="47.8300537093942" lon="11.888288723511085"><ele>639.0</ele><time>2026-04-18T07:49:46Z</time></trkpt><trkpt lat="47.82992887745142" lon="11.888521223494443"><ele>645.0</ele><time>2026-04-18T07:49:47Z</time></trkpt><trkpt lat="47.82980013892206" lon="11.888759947437261"><ele>651.0</ele><time>2026-04-18T07:49:48Z</time></trkpt><trkpt lat="47.82967998854415" lon="11.888985905229072"><ele>651.0</ele><time>2026-04-18T07:49:49Z</time></trkpt><trkpt lat="47.82955179907022" lon="11.889227418898093"><ele>651.0</ele><time>2026-04-18T07:49:50Z</time></trkpt><trkpt lat="47.82942208151547" lon="11.889469311514175"><ele>651.0</ele><time>2026-04-18T07:49:51Z</time></trkpt><trkpt lat="47.82929608129857" lon="11.889695319792141"><ele>651.6666666666666</ele><time>2026-04-18T07:49:52Z</time></trkpt><trkpt lat="47.82918137249565" lon="11.889914141785477"><ele>652.3333333333333</ele><time>2026-04-18T07:49:53Z</time></trkpt><trkpt lat="47.82906490573986" lon="11.890133011037626"><ele>653.0</ele><time>2026-04-18T07:49:54Z</time></trkpt><trkpt lat="47.8289526360311" lon="11.890341612912499"><ele>655.0</ele><time>2026-04-18T07:49:55Z</time></trkpt><trkpt lat="47.828847009323546" lon="11.890557412351349"><ele>657.0</ele><time>2026-04-18T07:49:56Z</time></trkpt><trkpt lat="47.8287422009645" lon="11.890795467543406"><ele>659.0</ele><time>2026-04-18T07:49:57Z</time></trkpt><trkpt lat="47.828646338968596" lon="11.89104070186457"><ele>660.3333333333333</ele><time>2026-04-18T07:49:58Z</time></trkpt><trkpt lat="47.82856214654783" lon="11.891293533791568"><ele>661.6666666666666</ele><time>2026-04-18T07:49:59Z</time></trkpt><trkpt lat="47.82848649576666" lon="11.891555762468176"><ele>663.0</ele><time>2026-04-18T07:50:00Z</time></trkpt><trkpt lat="47.828416930175145" lon="11.891815992217452"><ele>665.3333333333334</ele><time>2026-04-18T07:50:01Z</time></trkpt><trkpt lat="47.82835993158836" lon="11.89201976030121"><ele>667.6666666666667</ele><time>2026-04-18T07:50:02Z</time></trkpt><trkpt lat="47.828300239439784" lon="11.892222290482056"><ele>670.0</ele><time>2026-04-18T07:50:03Z</time></trkpt><trkpt lat="47.82823827873678" lon="11.892447730843166"><ele>670.3333333333334</ele><time>2026-04-18T07:50:04Z</time></trkpt><trkpt lat="47.8281804865304" lon="11.892693820377207"><ele>670.6666666666666</ele><time>2026-04-18T07:50:05Z</time></trkpt><trkpt lat="47.82812611922033" lon="11.892954583662668"><ele>671.0</ele><time>2026-04-18T07:50:06Z</time></trkpt><trkpt lat="47.82807501167918" lon="11.893236211005712"><ele>671.3333333333333</ele><time>2026-04-18T07:50:07Z</time></trkpt><trkpt lat="47.82802470692152" lon="11.893534056412637"><ele>671.6666666666666</ele><time>2026-04-18T07:50:08Z</time></trkpt><trkpt lat="47.82797758423816" lon="11.893852285314768"><ele>672.0</ele><time>2026-04-18T07:50:09Z</time></trkpt><trkpt lat="47.8279412919735" lon="11.894191581113244"><ele>672.5</ele><time>2026-04-18T07:50:10Z</time></trkpt><trkpt lat="47.827916482475295" lon="11.894541793477183"><ele>673.0</ele><time>2026-04-18T07:50:11Z</time></trkpt><trkpt lat="47.82790359855671" lon="11.894904515787708"><ele>675.5</ele><time>2026-04-18T07:50:12Z</time></trkpt><trkpt lat="47.8279004684835" lon="11.895259031294565"><ele>678.0</ele><time>2026-04-18T07:50:13Z</time></trkpt><trkpt lat="47.827904073503056" lon="11.895593625078822"><ele>678.0</ele><time>2026-04-18T07:50:14Z</time></trkpt><trkpt lat="47.82791319856718" lon="11.89591796483246"><ele>678.0</ele><time>2026-04-18T07:50:15Z</time></trkpt><trkpt lat="47.82793013724587" lon="11.896239591255936"><ele>678.0</ele><time>2026-04-18T07:50:16Z</time></trkpt><trkpt lat="47.827957329670376" lon="11.89655736165324"><ele>678.6666666666666</ele><time>2026-04-18T07:50:17Z</time></trkpt><trkpt lat="47.82799443054887" lon="11.89687434131868"><ele>679.3333333333333</ele><time>2026-04-18T07:50:18Z</time></trkpt><trkpt lat="47.82803610235285" lon="11.897187453353979"><ele>680.0</ele><time>2026-04-18T07:50:19Z</time></trkpt><trkpt lat="47.82808353843835" lon="11.897480159392947"><ele>680.6666666666666</ele><time>2026-04-18T07:50:20Z</time></trkpt><trkpt lat="47.82814053022131" lon="11.897779161634501"><ele>681.3333333333334</ele><time>2026-04-18T07:50:21Z</time></trkpt><trkpt lat="47.82820937480571" lon="11.89808592186884"><ele>682.0</ele><time>2026-04-18T07:50:22Z</time></trkpt><trkpt lat="47.82828629402849" lon="11.898389529144062"><ele>683.0</ele><time>2026-04-18T07:50:23Z</time></trkpt><trkpt lat="47.8283656718958" lon="11.89868147391049"><ele>684.0</ele><time>2026-04-18T07:50:24Z</time></trkpt><trkpt lat="47.82845567570528" lon="11.898972552173808"><ele>685.0</ele><time>2026-04-18T07:50:25Z</time></trkpt><trkpt lat="47.828557122824044" lon="11.899269816457945"><ele>689.0</ele><time>2026-04-18T07:50:26Z</time></trkpt><trkpt lat="47.82865415626226" lon="11.899574728599825"><ele>693.0</ele><time>2026-04-18T07:50:27Z</time></trkpt><trkpt lat="47.828751603076164" lon="11.899876850075572"><ele>693.6666666666666</ele><time>2026-04-18T07:50:28Z</time></trkpt><trkpt lat="47.828847979325396" lon="11.900159196341201"><ele>694.3333333333333</ele><time>2026-04-18T07:50:29Z</time></trkpt><trkpt lat="47.82895083510567" lon="11.900444094314444"><ele>695.0</ele><time>2026-04-18T07:50:30Z</time></trkpt><trkpt lat="47.82905721645034" lon="11.90072101372421"><ele>695.3333333333333</ele><time>2026-04-18T07:50:31Z</time></trkpt><trkpt lat="47.829163204837926" lon="11.900983360554982"><ele>695.6666666666666</ele><time>2026-04-18T07:50:32Z</time></trkpt><trkpt lat="47.82925631071267" lon="11.901248887259994"><ele>696.0</ele><time>2026-04-18T07:50:33Z</time></trkpt><trkpt lat="47.82935193441419" lon="11.901529471984661"><ele>698.3333333333334</ele><time>2026-04-18T07:50:34Z</time></trkpt><trkpt lat="47.82944616538922" lon="11.901812255247567"><ele>700.6666666666667</ele><time>2026-04-18T07:50:35Z</time></trkpt><trkpt lat="47.82953641854187" lon="11.902083352255966"><ele>703.0</ele><time>2026-04-18T07:50:36Z</time></trkpt><trkpt lat="47.829628397512856" lon="11.902361399348676"><ele>704.0</ele><time>2026-04-18T07:50:37Z</time></trkpt><trkpt lat="47.82972097231547" lon="11.902643030760627"><ele>705.0</ele><time>2026-04-18T07:50:38Z</time></trkpt><trkpt lat="47.82981259418777" lon="11.90292217597757"><ele>706.0</ele><time>2026-04-18T07:50:39Z</time></trkpt><trkpt lat="47.8298996458372" lon="11.903191637584767"><ele>706.3333333333334</ele><time>2026-04-18T07:50:40Z</time></trkpt><trkpt lat="47.82997028622007" lon="11.903442067378272"><ele>706.6666666666666</ele><time>2026-04-18T07:50:41Z</time></trkpt><trkpt lat="47.83003807155979" lon="11.9037030724443"><ele>707.0</ele><time>2026-04-18T07:50:42Z</time></trkpt><trkpt lat="47.830104714610584" lon="11.903968197931949"><ele>707.6666666666666</ele><time>2026-04-18T07:50:43Z</time></trkpt><trkpt lat="47.83016645886764" lon="11.904235983386153"><ele>708.3333333333334</ele><time>2026-04-18T07:50:44Z</time></trkpt><trkpt lat="47.8302199645086" lon="11.904512422357516"><ele>709.0</ele><time>2026-04-18T07:50:45Z</time></trkpt><trkpt lat="47.83027155320074" lon="11.904808444700432"><ele>710.6666666666667</ele><time>2026-04-18T07:50:46Z</time></trkpt><trkpt lat="47.830320040882384" lon="11.905116014886518"><ele>712.3333333333334</ele><time>2026-04-18T07:50:47Z</time></trkpt><trkpt lat="47.83036635004256" lon="11.905435493712563"><ele>714.0</ele><time>2026-04-18T07:50:48Z</time></trkpt><trkpt lat="47.83040774182366" lon="11.905767995459806"><ele>715.5</ele><time>2026-04-18T07:50:49Z</time></trkpt><trkpt lat="47.830444473543736" lon="11.90612028974004"><ele>717.0</ele><time>2026-04-18T07:50:50Z</time></trkpt><trkpt lat="47.83047459588868" lon="11.906484476341925"><ele>717.0</ele><time>2026-04-18T07:50:51Z</time></trkpt><trkpt lat="47.83049295114616" lon="11.906862932435283"><ele>717.0</ele><time>2026-04-18T07:50:52Z</time></trkpt><trkpt lat="47.830502190868216" lon="11.907253689616779"><ele>717.0</ele><time>2026-04-18T07:50:53Z</time></trkpt><trkpt lat="47.830504880500015" lon="11.907636712708369"><ele>717.0</ele><time>2026-04-18T07:50:54Z</time></trkpt><trkpt lat="47.83050091749936" lon="11.907998651560801"><ele>717.0</ele><time>2026-04-18T07:50:55Z</time></trkpt><trkpt lat="47.83048619237817" lon="11.908340914514769"><ele>717.0</ele><time>2026-04-18T07:50:56Z</time></trkpt><trkpt lat="47.830476660955064" lon="11.90869877914901"><ele>717.5</ele><time>2026-04-18T07:50:57Z</time></trkpt><trkpt lat="47.83045775174429" lon="11.909062736460243"><ele>718.0</ele><time>2026-04-18T07:50:58Z</time></trkpt><trkpt lat="47.830428207614645" lon="11.909434196775234"><ele>718.0</ele><time>2026-04-18T07:50:59Z</time></trkpt><trkpt lat="47.830378475387164" lon="11.909785617850444"><ele>718.0</ele><time>2026-04-18T07:51:00Z</time></trkpt><trkpt lat="47.83032842449043" lon="11.910142366462775"><ele>718.5</ele><time>2026-04-18T07:51:01Z</time></trkpt><trkpt lat="47.83026728586394" lon="11.910487387022686"><ele>719.0</ele><time>2026-04-18T07:51:02Z</time></trkpt><trkpt lat="47.83018284244751" lon="11.910835123792895"><ele>718.0</ele><time>2026-04-18T07:51:03Z</time></trkpt><trkpt lat="47.83009962028947" lon="11.911151193066463"><ele>717.0</ele><time>2026-04-18T07:51:04Z</time></trkpt><trkpt lat="47.830025279893725" lon="11.911467331099155"><ele>719.0</ele><time>2026-04-18T07:51:05Z</time></trkpt><trkpt lat="47.82994361780369" lon="11.911786943841149"><ele>721.0</ele><time>2026-04-18T07:51:06Z</time></trkpt><trkpt lat="47.82984985223183" lon="11.912102231418634"><ele>721.0</ele><time>2026-04-18T07:51:07Z</time></trkpt><trkpt lat="47.829749353404424" lon="11.912411609208199"><ele>721.0</ele><time>2026-04-18T07:51:08Z</time></trkpt><trkpt lat="47.82963698618654" lon="11.912709915242587"><ele>722.0</ele><time>2026-04-18T07:51:09Z</time></trkpt><trkpt lat="47.82951615848454" lon="11.913009364054838"><ele>723.0</ele><time>2026-04-18T07:51:10Z</time></trkpt><trkpt lat="47.82937751517445" lon="11.91331385436346"><ele>718.0</ele><time>2026-04-18T07:51:11Z</time></trkpt><trkpt lat="47.82922834742853" lon="11.913606658111997"><ele>713.0</ele><time>2026-04-18T07:51:12Z</time></trkpt><trkpt lat="47.82907039467389" lon="11.913900925901634"><ele>713.0</ele><time>2026-04-18T07:51:13Z</time></trkpt><trkpt lat="47.8289124606213" lon="11.914176248367452"><ele>713.0</ele><time>2026-04-18T07:51:14Z</time></trkpt><trkpt lat="47.82875714912898" lon="11.914446606879482"><ele>714.0</ele><time>2026-04-18T07:51:15Z</time></trkpt><trkpt lat="47.828604939882545" lon="11.914726084153811"><ele>715.0</ele><time>2026-04-18T07:51:16Z</time></trkpt><trkpt lat="47.828452059928885" lon="11.915005554249857"><ele>711.5</ele><time>2026-04-18T07:51:17Z</time></trkpt><trkpt lat="47.828299603880424" lon="11.915284041860572"><ele>708.0</ele><time>2026-04-18T07:51:18Z</time></trkpt><trkpt lat="47.82815060834667" lon="11.915560265847857"><ele>708.0</ele><time>2026-04-18T07:51:19Z</time></trkpt><trkpt lat="47.82800577304926" lon="11.915832079360573"><ele>708.0</ele><time>2026-04-18T07:51:20Z</time></trkpt><trkpt lat="47.82786229327064" lon="11.91609749294594"><ele>707.3333333333334</ele><time>2026-04-18T07:51:21Z</time></trkpt><trkpt lat="47.82772050950978" lon="11.916357583035303"><ele>706.6666666666667</ele><time>2026-04-18T07:51:22Z</time></trkpt><trkpt lat="47.82758272894822" lon="11.916614326358234"><ele>706.0</ele><time>2026-04-18T07:51:23Z</time></trkpt><trkpt lat="47.82744895632073" lon="11.916868522696534"><ele>706.0</ele><time>2026-04-18T07:51:24Z</time></trkpt><trkpt lat="47.82731116973601" lon="11.917127578754632"><ele>706.0</ele><time>2026-04-18T07:51:25Z</time></trkpt><trkpt lat="47.8271695898673" lon="11.917389373633402"><ele>706.0</ele><time>2026-04-18T07:51:26Z</time></trkpt><trkpt lat="47.82702786246398" lon="11.917650484494246"><ele>708.0</ele><time>2026-04-18T07:51:27Z</time></trkpt><trkpt lat="47.82688589227714" lon="11.917914358408037"><ele>710.0</ele><time>2026-04-18T07:51:28Z</time></trkpt><trkpt lat="47.826742305274934" lon="11.918173939200106"><ele>706.0</ele><time>2026-04-18T07:51:29Z</time></trkpt><trkpt lat="47.82660002431535" lon="11.918416435733603"><ele>702.0</ele><time>2026-04-18T07:51:30Z</time></trkpt><trkpt lat="47.826454438335816" lon="11.918654448964935"><ele>698.0</ele><time>2026-04-18T07:51:31Z</time></trkpt><trkpt lat="47.82631387530451" lon="11.918905359549447"><ele>698.0</ele><time>2026-04-18T07:51:32Z</time></trkpt><trkpt lat="47.82617936697049" lon="11.919160564589808"><ele>698.0</ele><time>2026-04-18T07:51:33Z</time></trkpt><trkpt lat="47.82604297821651" lon="11.919413174346893"><ele>698.0</ele><time>2026-04-18T07:51:34Z</time></trkpt><trkpt lat="47.8259076077722" lon="11.91966231237416"><ele>697.3333333333333</ele><time>2026-04-18T07:51:35Z</time></trkpt><trkpt lat="47.8257736004099" lon="11.919909672216088"><ele>696.6666666666666</ele><time>2026-04-18T07:51:36Z</time></trkpt><trkpt lat="47.82563450661943" lon="11.920162108587409"><ele>696.0</ele><time>2026-04-18T07:51:37Z</time></trkpt><trkpt lat="47.82550018490927" lon="11.920408272102055"><ele>696.0</ele><time>2026-04-18T07:51:38Z</time></trkpt><trkpt lat="47.82536837916461" lon="11.92065427637809"><ele>696.0</ele><time>2026-04-18T07:51:39Z</time></trkpt><trkpt lat="47.82523151038723" lon="11.920905570933172"><ele>696.0</ele><time>2026-04-18T07:51:40Z</time></trkpt><trkpt lat="47.825094116204696" lon="11.921158268420522"><ele>694.3333333333334</ele><time>2026-04-18T07:51:41Z</time></trkpt><trkpt lat="47.82495666141476" lon="11.921413679169573"><ele>692.6666666666667</ele><time>2026-04-18T07:51:42Z</time></trkpt><trkpt lat="47.82482046554202" lon="11.921669079145595"><ele>691.0</ele><time>2026-04-18T07:51:43Z</time></trkpt><trkpt lat="47.82468820848279" lon="11.921921068700374"><ele>690.3333333333334</ele><time>2026-04-18T07:51:44Z</time></trkpt><trkpt lat="47.82455782030823" lon="11.922164331562978"><ele>689.6666666666666</ele><time>2026-04-18T07:51:45Z</time></trkpt><trkpt lat="47.82442746690321" lon="11.922409278868445"><ele>689.0</ele><time>2026-04-18T07:51:46Z</time></trkpt><trkpt lat="47.824295461179545" lon="11.92265811927186"><ele>687.0</ele><time>2026-04-18T07:51:47Z</time></trkpt><trkpt lat="47.8241645486717" lon="11.922905508966892"><ele>685.0</ele><time>2026-04-18T07:51:48Z</time></trkpt><trkpt lat="47.82403001388306" lon="11.923161085658856"><ele>683.0</ele><time>2026-04-18T07:51:49Z</time></trkpt><trkpt lat="47.823895909708696" lon="11.92340977537833"><ele>683.0</ele><time>2026-04-18T07:51:50Z</time></trkpt><trkpt lat="47.82376333707786" lon="11.923653317000719"><ele>683.0</ele><time>2026-04-18T07:51:51Z</time></trkpt><trkpt lat="47.8236298600132" lon="11.923899688074023"><ele>683.0</ele><time>2026-04-18T07:51:52Z</time></trkpt><trkpt lat="47.82349773768128" lon="11.924146898335673"><ele>679.0</ele><time>2026-04-18T07:51:53Z</time></trkpt><trkpt lat="47.82336684522938" lon="11.924397146384278"><ele>675.0</ele><time>2026-04-18T07:51:54Z</time></trkpt><trkpt lat="47.823241953648086" lon="11.92465173045156"><ele>671.0</ele><time>2026-04-18T07:51:55Z</time></trkpt><trkpt lat="47.82312106249912" lon="11.92491610442802"><ele>671.0</ele><time>2026-04-18T07:51:56Z</time></trkpt><trkpt lat="47.823007712883545" lon="11.925187177834093"><ele>671.0</ele><time>2026-04-18T07:51:57Z</time></trkpt><trkpt lat="47.82289894612692" lon="11.925457930335227"><ele>671.0</ele><time>2026-04-18T07:51:58Z</time></trkpt><trkpt lat="47.82279483937129" lon="11.925730173413788"><ele>671.6666666666666</ele><time>2026-04-18T07:51:59Z</time></trkpt><trkpt lat="47.82269692199069" lon="11.926015105909562"><ele>672.3333333333334</ele><time>2026-04-18T07:52:00Z</time></trkpt><trkpt lat="47.82260197071124" lon="11.926306671409003"><ele>673.0</ele><time>2026-04-18T07:52:01Z</time></trkpt><trkpt lat="47.8225138468298" lon="11.926602241951326"><ele>668.0</ele><time>2026-04-18T07:52:02Z</time></trkpt><trkpt lat="47.82242944965622" lon="11.926905642997282"><ele>663.0</ele><time>2026-04-18T07:52:03Z</time></trkpt><trkpt lat="47.82235303895952" lon="11.927216558031919"><ele>658.0</ele><time>2026-04-18T07:52:04Z</time></trkpt><trkpt lat="47.82228073634453" lon="11.927528659297842"><ele>657.0</ele><time>2026-04-18T07:52:05Z</time></trkpt><trkpt lat="47.822214136669245" lon="11.92784307883882"><ele>656.0</ele><time>2026-04-18T07:52:06Z</time></trkpt><trkpt lat="47.82215392700211" lon="11.928157457066611"><ele>655.0</ele><time>2026-04-18T07:52:07Z</time></trkpt><trkpt lat="47.822101391949865" lon="11.92847077783282"><ele>654.3333333333334</ele><time>2026-04-18T07:52:08Z</time></trkpt><trkpt lat="47.82205587510366" lon="11.928784749829399"><ele>653.6666666666666</ele><time>2026-04-18T07:52:09Z</time></trkpt><trkpt lat="47.82201620884391" lon="11.929112591897903"><ele>653.0</ele><time>2026-04-18T07:52:10Z</time></trkpt><trkpt lat="47.82198420788964" lon="11.929446638786791"><ele>651.5</ele><time>2026-04-18T07:52:11Z</time></trkpt><trkpt lat="47.82195693237124" lon="11.929786998777068"><ele>650.0</ele><time>2026-04-18T07:52:12Z</time></trkpt><trkpt lat="47.82193749731495" lon="11.930133551463788"><ele>649.0</ele><time>2026-04-18T07:52:13Z</time></trkpt><trkpt lat="47.82192716282786" lon="11.930482094284876"><ele>648.0</ele><time>2026-04-18T07:52:14Z</time></trkpt><trkpt lat="47.82192255687744" lon="11.930816987989294"><ele>646.0</ele><time>2026-04-18T07:52:15Z</time></trkpt><trkpt lat="47.821926443308456" lon="11.931144671589028"><ele>644.0</ele><time>2026-04-18T07:52:16Z</time></trkpt><trkpt lat="47.82193613196945" lon="11.931468127682509"><ele>642.0</ele><time>2026-04-18T07:52:17Z</time></trkpt><trkpt lat="47.82195105825401" lon="11.931783305769171"><ele>640.6666666666666</ele><time>2026-04-18T07:52:18Z</time></trkpt><trkpt lat="47.821972631079774" lon="11.932089581845883"><ele>639.3333333333333</ele><time>2026-04-18T07:52:19Z</time></trkpt><trkpt lat="47.821998606617214" lon="11.932390637805456"><ele>638.0</ele><time>2026-04-18T07:52:20Z</time></trkpt><trkpt lat="47.82202976352062" lon="11.932695260243138"><ele>637.0</ele><time>2026-04-18T07:52:21Z</time></trkpt><trkpt lat="47.82207351029362" lon="11.933007318476545"><ele>636.0</ele><time>2026-04-18T07:52:22Z</time></trkpt><trkpt lat="47.82212335652303" lon="11.93332578176031"><ele>635.0</ele><time>2026-04-18T07:52:23Z</time></trkpt><trkpt lat="47.82217847878927" lon="11.933652495515085"><ele>633.5</ele><time>2026-04-18T07:52:24Z</time></trkpt><trkpt lat="47.822243844536" lon="11.933986822348894"><ele>632.0</ele><time>2026-04-18T07:52:25Z</time></trkpt><trkpt lat="47.82231957410803" lon="11.934326243022102"><ele>628.5</ele><time>2026-04-18T07:52:26Z</time></trkpt><trkpt lat="47.82240228619712" lon="11.934663789751697"><ele>625.0</ele><time>2026-04-18T07:52:27Z</time></trkpt><trkpt lat="47.822489698491594" lon="11.93499260873102"><ele>624.0</ele><time>2026-04-18T07:52:28Z</time></trkpt><trkpt lat="47.82258327061039" lon="11.93531473420864"><ele>623.0</ele><time>2026-04-18T07:52:29Z</time></trkpt><trkpt lat="47.8226782540039" lon="11.93562638255627"><ele>617.5</ele><time>2026-04-18T07:52:30Z</time></trkpt><trkpt lat="47.82278530762724" lon="11.935921758522484"><ele>612.0</ele><time>2026-04-18T07:52:31Z</time></trkpt><trkpt lat="47.82289106460561" lon="11.936218280088957"><ele>612.0</ele><time>2026-04-18T07:52:32Z</time></trkpt><trkpt lat="47.82300656913147" lon="11.936512506748706"><ele>612.0</ele><time>2026-04-18T07:52:33Z</time></trkpt><trkpt lat="47.82312962749416" lon="11.936803794480165"><ele>608.5</ele><time>2026-04-18T07:52:34Z</time></trkpt><trkpt lat="47.82326267423114" lon="11.937086234216038"><ele>605.0</ele><time>2026-04-18T07:52:35Z</time></trkpt><trkpt lat="47.82339915438003" lon="11.937362120898714"><ele>602.0</ele><time>2026-04-18T07:52:36Z</time></trkpt><trkpt lat="47.823540356871455" lon="11.93762757190454"><ele>599.0</ele><time>2026-04-18T07:52:37Z</time></trkpt><trkpt lat="47.82368862193178" lon="11.937883561715811"><ele>599.0</ele><time>2026-04-18T07:52:38Z</time></trkpt><trkpt lat="47.82384051402068" lon="11.938135955356696"><ele>599.0</ele><time>2026-04-18T07:52:39Z</time></trkpt><trkpt lat="47.82399470566022" lon="11.938383843191025"><ele>595.5</ele><time>2026-04-18T07:52:40Z</time></trkpt><trkpt lat="47.824148422204374" lon="11.938629740416966"><ele>592.0</ele><time>2026-04-18T07:52:41Z</time></trkpt><trkpt lat="47.824301706701384" lon="11.938876168282638"><ele>592.0</ele><time>2026-04-18T07:52:42Z</time></trkpt><trkpt lat="47.82445181068331" lon="11.939125171322386"><ele>592.0</ele><time>2026-04-18T07:52:43Z</time></trkpt><trkpt lat="47.824602197333185" lon="11.939371854279958"><ele>592.0</ele><time>2026-04-18T07:52:44Z</time></trkpt><trkpt lat="47.82475454567229" lon="11.939619995301447"><ele>592.0</ele><time>2026-04-18T07:52:45Z</time></trkpt><trkpt lat="47.82491163058856" lon="11.939868923269643"><ele>592.0</ele><time>2026-04-18T07:52:46Z</time></trkpt><trkpt lat="47.825066147652116" lon="11.940119892842652"><ele>588.6666666666667</ele><time>2026-04-18T07:52:47Z</time></trkpt><trkpt lat="47.82521596601723" lon="11.940362175882777"><ele>585.3333333333334</ele><time>2026-04-18T07:52:48Z</time></trkpt><trkpt lat="47.82535999749564" lon="11.940600794419293"><ele>582.0</ele><time>2026-04-18T07:52:49Z</time></trkpt><trkpt lat="47.82550113444307" lon="11.94083762988632"><ele>581.3333333333334</ele><time>2026-04-18T07:52:50Z</time></trkpt><trkpt lat="47.82565135487683" lon="11.941072332822042"><ele>580.6666666666667</ele><time>2026-04-18T07:52:51Z</time></trkpt><trkpt lat="47.82578485038308" lon="11.941343205944227"><ele>580.0</ele><time>2026-04-18T07:52:52Z</time></trkpt><trkpt lat="47.82591657624377" lon="11.941621923828308"><ele>576.5</ele><time>2026-04-18T07:52:53Z</time></trkpt><trkpt lat="47.826044087911974" lon="11.941907917789349"><ele>573.0</ele><time>2026-04-18T07:52:54Z</time></trkpt><trkpt lat="47.82616605343211" lon="11.942205280240916"><ele>573.0</ele><time>2026-04-18T07:52:55Z</time></trkpt><trkpt lat="47.82627812414706" lon="11.942502639985776"><ele>573.0</ele><time>2026-04-18T07:52:56Z</time></trkpt><trkpt lat="47.826386975918844" lon="11.942801735408203"><ele>572.5</ele><time>2026-04-18T07:52:57Z</time></trkpt><trkpt lat="47.82648871469661" lon="11.943107728098223"><ele>572.0</ele><time>2026-04-18T07:52:58Z</time></trkpt><trkpt lat="47.82658433413611" lon="11.94341524789795"><ele>570.5</ele><time>2026-04-18T07:52:59Z</time></trkpt><trkpt lat="47.82667228321904" lon="11.943726478934988"><ele>569.0</ele><time>2026-04-18T07:53:00Z</time></trkpt><trkpt lat="47.82675268237054" lon="11.944038461086006"><ele>569.3333333333333</ele><time>2026-04-18T07:53:01Z</time></trkpt><trkpt lat="47.826828606652434" lon="11.944352394388485"><ele>569.6666666666666</ele><time>2026-04-18T07:53:02Z</time></trkpt><trkpt lat="47.82689546297124" lon="11.944670094283055"><ele>570.0</ele><time>2026-04-18T07:53:03Z</time></trkpt><trkpt lat="47.82695539030253" lon="11.944983781691244"><ele>570.0</ele><time>2026-04-18T07:53:04Z</time></trkpt><trkpt lat="47.827005881538966" lon="11.945289592334854"><ele>570.0</ele><time>2026-04-18T07:53:05Z</time></trkpt><trkpt lat="47.82704850139564" lon="11.945591754641203"><ele>570.0</ele><time>2026-04-18T07:53:06Z</time></trkpt><trkpt lat="47.8270850655634" lon="11.94589362387099"><ele>570.0</ele><time>2026-04-18T07:53:07Z</time></trkpt><trkpt lat="47.82711689210388" lon="11.94620240675382"><ele>570.0</ele><time>2026-04-18T07:53:08Z</time></trkpt><trkpt lat="47.827143461201196" lon="11.946532866951777"><ele>570.0</ele><time>2026-04-18T07:53:09Z</time></trkpt><trkpt lat="47.827166129957476" lon="11.946883576157559"><ele>567.5</ele><time>2026-04-18T07:53:10Z</time></trkpt><trkpt lat="47.827181559051475" lon="11.947235510746095"><ele>565.0</ele><time>2026-04-18T07:53:11Z</time></trkpt><trkpt lat="47.82718633745854" lon="11.947579717337625"><ele>562.0</ele><time>2026-04-18T07:53:12Z</time></trkpt><trkpt lat="47.82718168830344" lon="11.947928779195092"><ele>559.0</ele><time>2026-04-18T07:53:13Z</time></trkpt><trkpt lat="47.82717282777647" lon="11.948274944795974"><ele>557.0</ele><time>2026-04-18T07:53:14Z</time></trkpt><trkpt lat="47.82715563598389" lon="11.948615384713063"><ele>555.0</ele><time>2026-04-18T07:53:15Z</time></trkpt><trkpt lat="47.82713158330088" lon="11.94895053535918"><ele>555.3333333333334</ele><time>2026-04-18T07:53:16Z</time></trkpt><trkpt lat="47.82709942810678" lon="11.94927786810811"><ele>555.6666666666667</ele><time>2026-04-18T07:53:17Z</time></trkpt><trkpt lat="47.82706278777013" lon="11.949598523303678"><ele>556.0</ele><time>2026-04-18T07:53:18Z</time></trkpt><trkpt lat="47.82701983501833" lon="11.949914967143648"><ele>556.0</ele><time>2026-04-18T07:53:19Z</time></trkpt><trkpt lat="47.82697930909659" lon="11.950229870982886"><ele>556.0</ele><time>2026-04-18T07:53:20Z</time></trkpt><trkpt lat="47.82693671746723" lon="11.950548655163542"><ele>556.0</ele><time>2026-04-18T07:53:21Z</time></trkpt><trkpt lat="47.826893969167024" lon="11.950865145921627"><ele>555.6666666666667</ele><time>2026-04-18T07:53:22Z</time></trkpt><trkpt lat="47.82684964784008" lon="11.951181842584312"><ele>555.3333333333334</ele><time>2026-04-18T07:53:23Z</time></trkpt><trkpt lat="47.82680652469948" lon="11.951496526788556"><ele>555.0</ele><time>2026-04-18T07:53:24Z</time></trkpt><trkpt lat="47.826765940867354" lon="11.951813442278427"><ele>554.0</ele><time>2026-04-18T07:53:25Z</time></trkpt><trkpt lat="47.826726698253964" lon="11.952129930338986"><ele>553.0</ele><time>2026-04-18T07:53:26Z</time></trkpt><trkpt lat="47.82668522374892" lon="11.95245226211177"><ele>552.0</ele><time>2026-04-18T07:53:27Z</time></trkpt><trkpt lat="47.826641860385415" lon="11.952780396648702"><ele>551.6666666666666</ele><time>2026-04-18T07:53:28Z</time></trkpt><trkpt lat="47.82659612516477" lon="11.953108534227196"><ele>551.3333333333333</ele><time>2026-04-18T07:53:29Z</time></trkpt><trkpt lat="47.82655223309964" lon="11.953429497588344"><ele>551.0</ele><time>2026-04-18T07:53:30Z</time></trkpt><trkpt lat="47.82650756957462" lon="11.953747296268109"><ele>550.3333333333333</ele><time>2026-04-18T07:53:31Z</time></trkpt><trkpt lat="47.82647006575866" lon="11.954055045501251"><ele>549.6666666666666</ele><time>2026-04-18T07:53:32Z</time></trkpt><trkpt lat="47.826440174896206" lon="11.9543711290613"><ele>549.0</ele><time>2026-04-18T07:53:33Z</time></trkpt><trkpt lat="47.826415434308366" lon="11.954680791539067"><ele>548.6666666666666</ele><time>2026-04-18T07:53:34Z</time></trkpt><trkpt lat="47.82638421119192" lon="11.954996764387356"><ele>548.3333333333333</ele><time>2026-04-18T07:53:35Z</time></trkpt><trkpt lat="47.82634527909128" lon="11.955317854420931"><ele>548.0</ele><time>2026-04-18T07:53:36Z</time></trkpt><trkpt lat="47.826299002967346" lon="11.95565430653111"><ele>546.5</ele><time>2026-04-18T07:53:37Z</time></trkpt><trkpt lat="47.82625417415954" lon="11.955996387482061"><ele>545.0</ele><time>2026-04-18T07:53:38Z</time></trkpt><trkpt lat="47.82620930606048" lon="11.956344762687435"><ele>545.0</ele><time>2026-04-18T07:53:39Z</time></trkpt><trkpt lat="47.826163242166594" lon="11.95669900638025"><ele>545.0</ele><time>2026-04-18T07:53:40Z</time></trkpt><trkpt lat="47.8261173821581" lon="11.957053192062588"><ele>543.5</ele><time>2026-04-18T07:53:41Z</time></trkpt><trkpt lat="47.82607041035336" lon="11.957393499507072"><ele>542.0</ele><time>2026-04-18T07:53:42Z</time></trkpt><trkpt lat="47.82602612882907" lon="11.957723906919416"><ele>541.6666666666666</ele><time>2026-04-18T07:53:43Z</time></trkpt><trkpt lat="47.82597741319574" lon="11.958045244955207"><ele>541.3333333333334</ele><time>2026-04-18T07:53:44Z</time></trkpt><trkpt lat="47.82592391677002" lon="11.95836236246937"><ele>541.0</ele><time>2026-04-18T07:53:45Z</time></trkpt><trkpt lat="47.82586267706998" lon="11.958681850837028"><ele>539.6666666666667</ele><time>2026-04-18T07:53:46Z</time></trkpt><trkpt lat="47.82579421846485" lon="11.958994964918555"><ele>538.3333333333334</ele><time>2026-04-18T07:53:47Z</time></trkpt><trkpt lat="47.82571977798462" lon="11.959301554072892"><ele>537.0</ele><time>2026-04-18T07:53:48Z</time></trkpt><trkpt lat="47.82563082676965" lon="11.95962633281931"><ele>533.0</ele><time>2026-04-18T07:53:49Z</time></trkpt><trkpt lat="47.82553598285927" lon="11.959946510065908"><ele>529.0</ele><time>2026-04-18T07:53:50Z</time></trkpt><trkpt lat="47.82543665862549" lon="11.960257424134637"><ele>524.5</ele><time>2026-04-18T07:53:51Z</time></trkpt><trkpt lat="47.82532870967165" lon="11.960576234006616"><ele>520.0</ele><time>2026-04-18T07:53:52Z</time></trkpt><trkpt lat="47.82521159000493" lon="11.960888311109867"><ele>519.0</ele><time>2026-04-18T07:53:53Z</time></trkpt><trkpt lat="47.82508415881176" lon="11.961201529364036"><ele>518.0</ele><time>2026-04-18T07:53:54Z</time></trkpt><trkpt lat="47.82495188367929" lon="11.961509750777322"><ele>518.5</ele><time>2026-04-18T07:53:55Z</time></trkpt><trkpt lat="47.82481560232932" lon="11.961819359208516"><ele>519.0</ele><time>2026-04-18T07:53:56Z</time></trkpt><trkpt lat="47.824679159474" lon="11.96212031161853"><ele>519.0</ele><time>2026-04-18T07:53:57Z</time></trkpt><trkpt lat="47.82453924710874" lon="11.962421008819573"><ele>519.0</ele><time>2026-04-18T07:53:58Z</time></trkpt><trkpt lat="47.82439997793579" lon="11.962722950246096"><ele>516.5</ele><time>2026-04-18T07:53:59Z</time></trkpt><trkpt lat="47.82425673886055" lon="11.96303489106479"><ele>514.0</ele><time>2026-04-18T07:54:00Z</time></trkpt><trkpt lat="47.82411053357137" lon="11.963353500886148"><ele>516.0</ele><time>2026-04-18T07:54:01Z</time></trkpt><trkpt lat="47.82396638908708" lon="11.96367333624072"><ele>518.0</ele><time>2026-04-18T07:54:02Z</time></trkpt><trkpt lat="47.82382600755086" lon="11.963989714496838"><ele>519.0</ele><time>2026-04-18T07:54:03Z</time></trkpt><trkpt lat="47.82368706189658" lon="11.964298579446027"><ele>520.0</ele><time>2026-04-18T07:54:04Z</time></trkpt><trkpt lat="47.82354894213799" lon="11.964607706863971"><ele>518.5</ele><time>2026-04-18T07:54:05Z</time></trkpt><trkpt lat="47.8234114136942" lon="11.964915801728184"><ele>517.0</ele><time>2026-04-18T07:54:06Z</time></trkpt><trkpt lat="47.823276250364984" lon="11.965229824903282"><ele>517.0</ele><time>2026-04-18T07:54:07Z</time></trkpt><trkpt lat="47.82314617562075" lon="11.965546858663508"><ele>517.0</ele><time>2026-04-18T07:54:08Z</time></trkpt><trkpt lat="47.823019990371094" lon="11.96587425334163"><ele>517.5</ele><time>2026-04-18T07:54:09Z</time></trkpt><trkpt lat="47.822898004139105" lon="11.966205021617387"><ele>518.0</ele><time>2026-04-18T07:54:10Z</time></trkpt><trkpt lat="47.82278435719542" lon="11.96652769977059"><ele>517.5</ele><time>2026-04-18T07:54:11Z</time></trkpt><trkpt lat="47.82267747671942" lon="11.966848508431"><ele>517.0</ele><time>2026-04-18T07:54:12Z</time></trkpt><trkpt lat="47.82257703891327" lon="11.9671654538518"><ele>514.5</ele><time>2026-04-18T07:54:13Z</time></trkpt><trkpt lat="47.82247855833031" lon="11.967494984669594"><ele>512.0</ele><time>2026-04-18T07:54:14Z</time></trkpt><trkpt lat="47.82238218096521" lon="11.967833673897816"><ele>511.0</ele><time>2026-04-18T07:54:15Z</time></trkpt><trkpt lat="47.822292972765204" lon="11.968182025393755"><ele>510.0</ele><time>2026-04-18T07:54:16Z</time></trkpt><trkpt lat="47.82221280093291" lon="11.968521092117525"><ele>509.0</ele><time>2026-04-18T07:54:17Z</time></trkpt><trkpt lat="47.82213725432583" lon="11.968878025070046"><ele>508.0</ele><time>2026-04-18T07:54:18Z</time></trkpt><trkpt lat="47.822064235965165" lon="11.969250433969131"><ele>507.0</ele><time>2026-04-18T07:54:19Z</time></trkpt><trkpt lat="47.82199502823593" lon="11.969626444234105"><ele>506.0</ele><time>2026-04-18T07:54:20Z</time></trkpt><trkpt lat="47.82193266450297" lon="11.970013153131198"><ele>505.0</ele><time>2026-04-18T07:54:21Z</time></trkpt><trkpt lat="47.82187460608439" lon="11.970407612144234"><ele>504.0</ele><time>2026-04-18T07:54:22Z</time></trkpt><trkpt lat="47.821819476236485" lon="11.9708021937523"><ele>503.5</ele><time>2026-04-18T07:54:23Z</time></trkpt><trkpt lat="47.82177181639874" lon="11.97119353013865"><ele>503.0</ele><time>2026-04-18T07:54:24Z</time></trkpt><trkpt lat="47.82173478971292" lon="11.971581549324789"><ele>503.0</ele><time>2026-04-18T07:54:25Z</time></trkpt><trkpt lat="47.821708785789504" lon="11.97197062613359"><ele>503.0</ele><time>2026-04-18T07:54:26Z</time></trkpt><trkpt lat="47.82168754360279" lon="11.972358759749815"><ele>502.5</ele><time>2026-04-18T07:54:27Z</time></trkpt><trkpt lat="47.82166809182152" lon="11.972747232230155"><ele>502.0</ele><time>2026-04-18T07:54:28Z</time></trkpt><trkpt lat="47.82165252120208" lon="11.973134938543994"><ele>502.0</ele><time>2026-04-18T07:54:29Z</time></trkpt><trkpt lat="47.821646307690514" lon="11.973526022645808"><ele>502.0</ele><time>2026-04-18T07:54:30Z</time></trkpt><trkpt lat="47.82164683970467" lon="11.97391542169945"><ele>503.5</ele><time>2026-04-18T07:54:31Z</time></trkpt><trkpt lat="47.82164900767005" lon="11.974302937486287"><ele>505.0</ele><time>2026-04-18T07:54:32Z</time></trkpt><trkpt lat="47.82164918854619" lon="11.974698299686255"><ele>504.5</ele><time>2026-04-18T07:54:33Z</time></trkpt><trkpt lat="47.82164598657689" lon="11.975088750543971"><ele>504.0</ele><time>2026-04-18T07:54:34Z</time></trkpt><trkpt lat="47.82164237818448" lon="11.975463218905876"><ele>504.0</ele><time>2026-04-18T07:54:35Z</time></trkpt><trkpt lat="47.82163913036806" lon="11.975838411006897"><ele>504.0</ele><time>2026-04-18T07:54:36Z</time></trkpt><trkpt lat="47.82163938767874" lon="11.97621667871281"><ele>502.5</ele><time>2026-04-18T07:54:37Z</time></trkpt><trkpt lat="47.82164624547932" lon="11.976601513888443"><ele>501.0</ele><time>2026-04-18T07:54:38Z</time></trkpt><trkpt lat="47.82165503622803" lon="11.976997735840259"><ele>499.5</ele><time>2026-04-18T07:54:39Z</time></trkpt><trkpt lat="47.8216618792963" lon="11.97739900950568"><ele>498.0</ele><time>2026-04-18T07:54:40Z</time></trkpt><trkpt lat="47.82167074629821" lon="11.977807075038221"><ele>496.5</ele><time>2026-04-18T07:54:41Z</time></trkpt><trkpt lat="47.82167959286683" lon="11.978213320012843"><ele>495.0</ele><time>2026-04-18T07:54:42Z</time></trkpt><trkpt lat="47.82168646228556" lon="11.978614730540777"><ele>494.5</ele><time>2026-04-18T07:54:43Z</time></trkpt><trkpt lat="47.821695032286584" lon="11.979013901162672"><ele>494.0</ele><time>2026-04-18T07:54:44Z</time></trkpt><trkpt lat="47.82170294323179" lon="11.979414152332247"><ele>494.0</ele><time>2026-04-18T07:54:45Z</time></trkpt><trkpt lat="47.82171022452199" lon="11.979819099551968"><ele>494.0</ele><time>2026-04-18T07:54:46Z</time></trkpt><trkpt lat="47.82171701886842" lon="11.980225831047107"><ele>492.0</ele><time>2026-04-18T07:54:47Z</time></trkpt><trkpt lat="47.82172515155195" lon="11.980632861814588"><ele>490.0</ele><time>2026-04-18T07:54:48Z</time></trkpt><trkpt lat="47.82173634054369" lon="11.981039102607"><ele>490.0</ele><time>2026-04-18T07:54:49Z</time></trkpt><trkpt lat="47.8217464012865" lon="11.981443008605066"><ele>490.0</ele><time>2026-04-18T07:54:50Z</time></trkpt><trkpt lat="47.821755308985736" lon="11.981840572127131"><ele>489.5</ele><time>2026-04-18T07:54:51Z</time></trkpt><trkpt lat="47.821761312902254" lon="11.9822367529718"><ele>489.0</ele><time>2026-04-18T07:54:52Z</time></trkpt><trkpt lat="47.82177079021622" lon="11.982634940051181"><ele>488.0</ele><time>2026-04-18T07:54:53Z</time></trkpt><trkpt lat="47.82178198779428" lon="11.983036330530949"><ele>487.0</ele><time>2026-04-18T07:54:54Z</time></trkpt><trkpt lat="47.82179016057009" lon="11.983435115444307"><ele>486.0</ele><time>2026-04-18T07:54:55Z</time></trkpt><trkpt lat="47.82179534366595" lon="11.983828142229537"><ele>485.0</ele><time>2026-04-18T07:54:56Z</time></trkpt><trkpt lat="47.82180127370469" lon="11.984228321482378"><ele>485.0</ele><time>2026-04-18T07:54:57Z</time></trkpt><trkpt lat="47.821809910969066" lon="11.984631765795557"><ele>485.0</ele><time>2026-04-18T07:54:58Z</time></trkpt><trkpt lat="47.82181974944342" lon="11.98503934701341"><ele>486.0</ele><time>2026-04-18T07:54:59Z</time></trkpt><trkpt lat="47.82183270163406" lon="11.985439994119384"><ele>487.0</ele><time>2026-04-18T07:55:00Z</time></trkpt><trkpt lat="47.82184703510862" lon="11.985830147274465"><ele>486.5</ele><time>2026-04-18T07:55:01Z</time></trkpt><trkpt lat="47.82186371461795" lon="11.986211713108208"><ele>486.0</ele><time>2026-04-18T07:55:02Z</time></trkpt><trkpt lat="47.821872872025516" lon="11.986594095819095"><ele>485.5</ele><time>2026-04-18T07:55:03Z</time></trkpt><trkpt lat="47.82187782320461" lon="11.986988110317037"><ele>485.0</ele><time>2026-04-18T07:55:04Z</time></trkpt><trkpt lat="47.82188343944534" lon="11.987384496437484"><ele>483.5</ele><time>2026-04-18T07:55:05Z</time></trkpt><trkpt lat="47.82188961414739" lon="11.987779525763242"><ele>482.0</ele><time>2026-04-18T07:55:06Z</time></trkpt><trkpt lat="47.82189360806267" lon="11.988173826713156"><ele>481.0</ele><time>2026-04-18T07:55:07Z</time></trkpt><trkpt lat="47.8218959754069" lon="11.98856584627643"><ele>480.0</ele><time>2026-04-18T07:55:08Z</time></trkpt><trkpt lat="47.82189746927554" lon="11.988952922598916"><ele>480.0</ele><time>2026-04-18T07:55:09Z</time></trkpt><trkpt lat="47.821895908702295" lon="11.989341217300588"><ele>480.0</ele><time>2026-04-18T07:55:10Z</time></trkpt><trkpt lat="47.821888891676664" lon="11.98972606662246"><ele>480.0</ele><time>2026-04-18T07:55:11Z</time></trkpt><trkpt lat="47.82187786784779" lon="11.990108582433551"><ele>480.0</ele><time>2026-04-18T07:55:12Z</time></trkpt><trkpt lat="47.82186213391269" lon="11.990491241290961"><ele>480.0</ele><time>2026-04-18T07:55:13Z</time></trkpt><trkpt lat="47.8218434241195" lon="11.990878582250009"><ele>480.0</ele><time>2026-04-18T07:55:14Z</time></trkpt><trkpt lat="47.82182241510606" lon="11.991272665794478"><ele>480.0</ele><time>2026-04-18T07:55:15Z</time></trkpt><trkpt lat="47.82179547644285" lon="11.991673320976615"><ele>480.0</ele><time>2026-04-18T07:55:16Z</time></trkpt><trkpt lat="47.821768447924214" lon="11.992079044373837"><ele>479.0</ele><time>2026-04-18T07:55:17Z</time></trkpt><trkpt lat="47.82174176970402" lon="11.992486154973314"><ele>478.0</ele><time>2026-04-18T07:55:18Z</time></trkpt><trkpt lat="47.82171431444332" lon="11.99287874524702"><ele>478.0</ele><time>2026-04-18T07:55:19Z</time></trkpt><trkpt lat="47.8216869059876" lon="11.99326449781092"><ele>478.0</ele><time>2026-04-18T07:55:20Z</time></trkpt><trkpt lat="47.8216583609074" lon="11.993678151604033"><ele>477.5</ele><time>2026-04-18T07:55:21Z</time></trkpt><trkpt lat="47.82163021167227" lon="11.99409828275613"><ele>477.0</ele><time>2026-04-18T07:55:22Z</time></trkpt><trkpt lat="47.82160259480988" lon="11.994486708034625"><ele>476.5</ele><time>2026-04-18T07:55:23Z</time></trkpt><trkpt lat="47.821579170714536" lon="11.994863366280455"><ele>476.0</ele><time>2026-04-18T07:55:24Z</time></trkpt><trkpt lat="47.82155825509475" lon="11.995249320802754"><ele>476.0</ele><time>2026-04-18T07:55:25Z</time></trkpt><trkpt lat="47.82153449907371" lon="11.9956342013758"><ele>476.0</ele><time>2026-04-18T07:55:26Z</time></trkpt><trkpt lat="47.821510383398845" lon="11.996016555688893"><ele>476.0</ele><time>2026-04-18T07:55:27Z</time></trkpt><trkpt lat="47.8214838404274" lon="11.996403104058247"><ele>476.0</ele><time>2026-04-18T07:55:28Z</time></trkpt><trkpt lat="47.821458597277775" lon="11.996791313311599"><ele>476.0</ele><time>2026-04-18T07:55:29Z</time></trkpt><trkpt lat="47.821433575810175" lon="11.997183043359641"><ele>476.0</ele><time>2026-04-18T07:55:30Z</time></trkpt><trkpt lat="47.821407884657525" lon="11.997577690448162"><ele>475.0</ele><time>2026-04-18T07:55:31Z</time></trkpt><trkpt lat="47.8213812387013" lon="11.997973512071335"><ele>474.0</ele><time>2026-04-18T07:55:32Z</time></trkpt><trkpt lat="47.8213560421668" lon="11.99836993229536"><ele>474.0</ele><time>2026-04-18T07:55:33Z</time></trkpt><trkpt lat="47.821331864584856" lon="11.998769639157864"><ele>474.0</ele><time>2026-04-18T07:55:34Z</time></trkpt><trkpt lat="47.82130889658494" lon="11.999169998352851"><ele>474.0</ele><time>2026-04-18T07:55:35Z</time></trkpt><trkpt lat="47.82128369737572" lon="11.999571032550095"><ele>474.0</ele><time>2026-04-18T07:55:36Z</time></trkpt><trkpt lat="47.8212583233119" lon="11.999970696222547"><ele>474.0</ele><time>2026-04-18T07:55:37Z</time></trkpt><trkpt lat="47.8212327523439" lon="12.000367700067088"><ele>474.0</ele><time>2026-04-18T07:55:38Z</time></trkpt><trkpt lat="47.82120908078261" lon="12.000761554561324"><ele>474.0</ele><time>2026-04-18T07:55:39Z</time></trkpt><trkpt lat="47.82118672412392" lon="12.00115242419497"><ele>474.0</ele><time>2026-04-18T07:55:40Z</time></trkpt><trkpt lat="47.82116163389383" lon="12.001542888361222"><ele>473.5</ele><time>2026-04-18T07:55:41Z</time></trkpt><trkpt lat="47.821133385639165" lon="12.001937296356678"><ele>473.0</ele><time>2026-04-18T07:55:42Z</time></trkpt><trkpt lat="47.821106196468705" lon="12.002334813891617"><ele>473.5</ele><time>2026-04-18T07:55:43Z</time></trkpt><trkpt lat="47.821076631900674" lon="12.002731319136503"><ele>474.0</ele><time>2026-04-18T07:55:44Z</time></trkpt><trkpt lat="47.8210500305836" lon="12.00313136540372"><ele>474.0</ele><time>2026-04-18T07:55:45Z</time></trkpt><trkpt lat="47.82102632522057" lon="12.003532091699896"><ele>474.0</ele><time>2026-04-18T07:55:46Z</time></trkpt><trkpt lat="47.82100203581322" lon="12.003932898122518"><ele>473.5</ele><time>2026-04-18T07:55:47Z</time></trkpt><trkpt lat="47.820976011721925" lon="12.00433210003772"><ele>473.0</ele><time>2026-04-18T07:55:48Z</time></trkpt><trkpt lat="47.82094970132485" lon="12.004727521966972"><ele>473.0</ele><time>2026-04-18T07:55:49Z</time></trkpt><trkpt lat="47.8209232442716" lon="12.005118987110878"><ele>473.0</ele><time>2026-04-18T07:55:50Z</time></trkpt><trkpt lat="47.82089953718049" lon="12.005511608697223"><ele>473.0</ele><time>2026-04-18T07:55:51Z</time></trkpt><trkpt lat="47.82087510526628" lon="12.00590402787865"><ele>473.0</ele><time>2026-04-18T07:55:52Z</time></trkpt><trkpt lat="47.820848550573785" lon="12.006293397870026"><ele>473.0</ele><time>2026-04-18T07:55:53Z</time></trkpt><trkpt lat="47.820820949329104" lon="12.0066868745761"><ele>473.0</ele><time>2026-04-18T07:55:54Z</time></trkpt><trkpt lat="47.82079557863208" lon="12.007083223054682"><ele>473.0</ele><time>2026-04-18T07:55:55Z</time></trkpt><trkpt lat="47.8207709113379" lon="12.007479176750243"><ele>473.0</ele><time>2026-04-18T07:55:56Z</time></trkpt><trkpt lat="47.8207472602808" lon="12.0078764642812"><ele>473.5</ele><time>2026-04-18T07:55:57Z</time></trkpt><trkpt lat="47.82072243277306" lon="12.00827369580172"><ele>474.0</ele><time>2026-04-18T07:55:58Z</time></trkpt><trkpt lat="47.820696830699454" lon="12.008670735154311"><ele>474.0</ele><time>2026-04-18T07:55:59Z</time></trkpt><trkpt lat="47.820672505736454" lon="12.009063624249604"><ele>474.0</ele><time>2026-04-18T07:56:00Z</time></trkpt><trkpt lat="47.8206501890124" lon="12.009456544904385"><ele>472.5</ele><time>2026-04-18T07:56:01Z</time></trkpt><trkpt lat="47.82062602988678" lon="12.009851051315383"><ele>471.0</ele><time>2026-04-18T07:56:02Z</time></trkpt><trkpt lat="47.82060332463092" lon="12.01024707456012"><ele>471.0</ele><time>2026-04-18T07:56:03Z</time></trkpt><trkpt lat="47.82057261816653" lon="12.010644646348709"><ele>471.0</ele><time>2026-04-18T07:56:04Z</time></trkpt><trkpt lat="47.820546233200446" lon="12.011041167938954"><ele>471.0</ele><time>2026-04-18T07:56:05Z</time></trkpt><trkpt lat="47.82052385199696" lon="12.011435664544742"><ele>471.0</ele><time>2026-04-18T07:56:06Z</time></trkpt><trkpt lat="47.820498753692746" lon="12.011821756025174"><ele>470.5</ele><time>2026-04-18T07:56:07Z</time></trkpt><trkpt lat="47.82047666416546" lon="12.012192677482417"><ele>470.0</ele><time>2026-04-18T07:56:08Z</time></trkpt><trkpt lat="47.82046045934809" lon="12.012553902937514"><ele>470.0</ele><time>2026-04-18T07:56:09Z</time></trkpt><trkpt lat="47.82043276288747" lon="12.012931951246031"><ele>470.0</ele><time>2026-04-18T07:56:10Z</time></trkpt><trkpt lat="47.82040493613934" lon="12.013294360706501"><ele>470.5</ele><time>2026-04-18T07:56:11Z</time></trkpt><trkpt lat="47.8203812228439" lon="12.013672846048513"><ele>471.0</ele><time>2026-04-18T07:56:12Z</time></trkpt><trkpt lat="47.82035585117252" lon="12.014053860676556"><ele>471.5</ele><time>2026-04-18T07:56:13Z</time></trkpt><trkpt lat="47.8203296273379" lon="12.014439574354718"><ele>472.0</ele><time>2026-04-18T07:56:14Z</time></trkpt><trkpt lat="47.820304064728944" lon="12.014840244335623"><ele>471.0</ele><time>2026-04-18T07:56:15Z</time></trkpt><trkpt lat="47.82027807489162" lon="12.015242930635397"><ele>470.0</ele><time>2026-04-18T07:56:16Z</time></trkpt><trkpt lat="47.82024908130649" lon="12.01564916529654"><ele>470.0</ele><time>2026-04-18T07:56:17Z</time></trkpt><trkpt lat="47.820215179918115" lon="12.016054369039905"><ele>470.0</ele><time>2026-04-18T07:56:18Z</time></trkpt><trkpt lat="47.82017329232178" lon="12.016457160185011"><ele>469.5</ele><time>2026-04-18T07:56:19Z</time></trkpt><trkpt lat="47.820128471286104" lon="12.016856093133413"><ele>469.0</ele><time>2026-04-18T07:56:20Z</time></trkpt><trkpt lat="47.82007935486645" lon="12.017250808975723"><ele>468.5</ele><time>2026-04-18T07:56:21Z</time></trkpt><trkpt lat="47.820028588674795" lon="12.017645081168912"><ele>468.0</ele><time>2026-04-18T07:56:22Z</time></trkpt><trkpt lat="47.81997459717252" lon="12.018034863358256"><ele>468.0</ele><time>2026-04-18T07:56:23Z</time></trkpt><trkpt lat="47.81991461062639" lon="12.018421335349467"><ele>468.0</ele><time>2026-04-18T07:56:24Z</time></trkpt><trkpt lat="47.819851049101786" lon="12.018803111933083"><ele>468.0</ele><time>2026-04-18T07:56:25Z</time></trkpt><trkpt lat="47.819785199469024" lon="12.01917944148578"><ele>468.0</ele><time>2026-04-18T07:56:26Z</time></trkpt><trkpt lat="47.81971815760816" lon="12.019550903209101"><ele>468.0</ele><time>2026-04-18T07:56:27Z</time></trkpt><trkpt lat="47.81964762632907" lon="12.019920682754273"><ele>468.0</ele><time>2026-04-18T07:56:28Z</time></trkpt><trkpt lat="47.819576896204055" lon="12.020282377552657"><ele>468.5</ele><time>2026-04-18T07:56:29Z</time></trkpt><trkpt lat="47.819504444563364" lon="12.020650295595077"><ele>469.0</ele><time>2026-04-18T07:56:30Z</time></trkpt><trkpt lat="47.819430134859275" lon="12.021018262181238"><ele>469.0</ele><time>2026-04-18T07:56:31Z</time></trkpt><trkpt lat="47.819354776678395" lon="12.021389123274341"><ele>469.0</ele><time>2026-04-18T07:56:32Z</time></trkpt><trkpt lat="47.81927594961354" lon="12.021760628248291"><ele>469.0</ele><time>2026-04-18T07:56:33Z</time></trkpt><trkpt lat="47.81919628420452" lon="12.022137860325904"><ele>469.0</ele><time>2026-04-18T07:56:34Z</time></trkpt><trkpt lat="47.819109923669025" lon="12.02252932166064"><ele>469.0</ele><time>2026-04-18T07:56:35Z</time></trkpt><trkpt lat="47.81901918596511" lon="12.022944268122329"><ele>469.0</ele><time>2026-04-18T07:56:36Z</time></trkpt><trkpt lat="47.81893640116023" lon="12.023349109238028"><ele>468.5</ele><time>2026-04-18T07:56:37Z</time></trkpt><trkpt lat="47.8188544611017" lon="12.023781502210994"><ele>468.0</ele><time>2026-04-18T07:56:38Z</time></trkpt><trkpt lat="47.818776339385145" lon="12.024208523535368"><ele>468.0</ele><time>2026-04-18T07:56:39Z</time></trkpt><trkpt lat="47.81868552622265" lon="12.024643963881173"><ele>468.0</ele><time>2026-04-18T07:56:40Z</time></trkpt><trkpt lat="47.818591915793455" lon="12.025086884760663"><ele>468.0</ele><time>2026-04-18T07:56:41Z</time></trkpt><trkpt lat="47.81849771207006" lon="12.025535976022919"><ele>468.0</ele><time>2026-04-18T07:56:42Z</time></trkpt><trkpt lat="47.818416388400536" lon="12.025974471037342"><ele>468.5</ele><time>2026-04-18T07:56:43Z</time></trkpt><trkpt lat="47.818339731883725" lon="12.026376360416215"><ele>469.0</ele><time>2026-04-18T07:56:44Z</time></trkpt><trkpt lat="47.81825469424994" lon="12.026743485001967"><ele>469.0</ele><time>2026-04-18T07:56:45Z</time></trkpt><trkpt lat="47.81818312580035" lon="12.027126806644118"><ele>469.0</ele><time>2026-04-18T07:56:46Z</time></trkpt><trkpt lat="47.81811232240095" lon="12.027525777701538"><ele>469.5</ele><time>2026-04-18T07:56:47Z</time></trkpt><trkpt lat="47.81804473352717" lon="12.027930205857873"><ele>470.0</ele><time>2026-04-18T07:56:48Z</time></trkpt><trkpt lat="47.81797599363888" lon="12.028337189411019"><ele>471.5</ele><time>2026-04-18T07:56:49Z</time></trkpt><trkpt lat="47.81790337713448" lon="12.028745732566268"><ele>473.0</ele><time>2026-04-18T07:56:50Z</time></trkpt><trkpt lat="47.81783695524135" lon="12.029141534766113"><ele>474.0</ele><time>2026-04-18T07:56:51Z</time></trkpt><trkpt lat="47.81778690706162" lon="12.029531717594478"><ele>475.0</ele><time>2026-04-18T07:56:52Z</time></trkpt><trkpt lat="47.81774688714809" lon="12.029928127017316"><ele>476.0</ele><time>2026-04-18T07:56:53Z</time></trkpt><trkpt lat="47.81770757476976" lon="12.030313246513986"><ele>477.0</ele><time>2026-04-18T07:56:54Z</time></trkpt><trkpt lat="47.81767245818203" lon="12.030698409853741"><ele>473.0</ele><time>2026-04-18T07:56:55Z</time></trkpt><trkpt lat="47.817641315324984" lon="12.03108815644575"><ele>469.0</ele><time>2026-04-18T07:56:56Z</time></trkpt><trkpt lat="47.817610068632625" lon="12.031489319576735"><ele>470.0</ele><time>2026-04-18T07:56:57Z</time></trkpt><trkpt lat="47.81758430497107" lon="12.031901285655149"><ele>471.0</ele><time>2026-04-18T07:56:58Z</time></trkpt><trkpt lat="47.8175610491744" lon="12.032308827081057"><ele>471.0</ele><time>2026-04-18T07:56:59Z</time></trkpt><trkpt lat="47.81754178277569" lon="12.032717659809768"><ele>471.0</ele><time>2026-04-18T07:57:00Z</time></trkpt><trkpt lat="47.81752296023677" lon="12.033123202822889"><ele>470.5</ele><time>2026-04-18T07:57:01Z</time></trkpt><trkpt lat="47.81750077772087" lon="12.03353314552266"><ele>470.0</ele><time>2026-04-18T07:57:02Z</time></trkpt><trkpt lat="47.81747749363101" lon="12.033945386828718"><ele>470.0</ele><time>2026-04-18T07:57:03Z</time></trkpt><trkpt lat="47.81745889804083" lon="12.034360051871705"><ele>470.0</ele><time>2026-04-18T07:57:04Z</time></trkpt><trkpt lat="47.81743998251095" lon="12.034774782869016"><ele>470.5</ele><time>2026-04-18T07:57:05Z</time></trkpt><trkpt lat="47.81742557197588" lon="12.03517817355138"><ele>471.0</ele><time>2026-04-18T07:57:06Z</time></trkpt><trkpt lat="47.817405704306005" lon="12.035579968544111"><ele>470.0</ele><time>2026-04-18T07:57:07Z</time></trkpt><trkpt lat="47.817384953301634" lon="12.035980896092008"><ele>469.0</ele><time>2026-04-18T07:57:08Z</time></trkpt><trkpt lat="47.81736573137261" lon="12.036382135861075"><ele>469.0</ele><time>2026-04-18T07:57:09Z</time></trkpt><trkpt lat="47.817343957832115" lon="12.036786037864294"><ele>469.0</ele><time>2026-04-18T07:57:10Z</time></trkpt><trkpt lat="47.81732390389925" lon="12.037187464213043"><ele>468.5</ele><time>2026-04-18T07:57:11Z</time></trkpt><trkpt lat="47.81730517770295" lon="12.037586254787676"><ele>468.0</ele><time>2026-04-18T07:57:12Z</time></trkpt><trkpt lat="47.817285820705" lon="12.03799181886087"><ele>467.5</ele><time>2026-04-18T07:57:13Z</time></trkpt><trkpt lat="47.817264990085505" lon="12.038395607185544"><ele>467.0</ele><time>2026-04-18T07:57:14Z</time></trkpt><trkpt lat="47.81724430170968" lon="12.03878959009475"><ele>468.0</ele><time>2026-04-18T07:57:15Z</time></trkpt><trkpt lat="47.81722372592973" lon="12.039181651998826"><ele>469.0</ele><time>2026-04-18T07:57:16Z</time></trkpt><trkpt lat="47.817204571331835" lon="12.039570947637353"><ele>469.0</ele><time>2026-04-18T07:57:17Z</time></trkpt><trkpt lat="47.81718565163803" lon="12.039955870596959"><ele>469.0</ele><time>2026-04-18T07:57:18Z</time></trkpt><trkpt lat="47.8171680810559" lon="12.040344737943752"><ele>471.0</ele><time>2026-04-18T07:57:19Z</time></trkpt><trkpt lat="47.81715139269323" lon="12.040734936931509"><ele>473.0</ele><time>2026-04-18T07:57:20Z</time></trkpt><trkpt lat="47.817132359915206" lon="12.041128525091521"><ele>473.0</ele><time>2026-04-18T07:57:21Z</time></trkpt><trkpt lat="47.81711472216543" lon="12.041519117997108"><ele>473.0</ele><time>2026-04-18T07:57:22Z</time></trkpt><trkpt lat="47.81709347525011" lon="12.041910348403876"><ele>473.0</ele><time>2026-04-18T07:57:23Z</time></trkpt><trkpt lat="47.81707155418172" lon="12.04230118507017"><ele>473.0</ele><time>2026-04-18T07:57:24Z</time></trkpt><trkpt lat="47.81705197165811" lon="12.042695248613056"><ele>473.0</ele><time>2026-04-18T07:57:25Z</time></trkpt><trkpt lat="47.81703512581698" lon="12.043090791287307"><ele>473.0</ele><time>2026-04-18T07:57:26Z</time></trkpt><trkpt lat="47.817018054536874" lon="12.04348910878512"><ele>471.0</ele><time>2026-04-18T07:57:27Z</time></trkpt><trkpt lat="47.816997202183195" lon="12.043886876938771"><ele>469.0</ele><time>2026-04-18T07:57:28Z</time></trkpt><trkpt lat="47.8169741137945" lon="12.044284319261175"><ele>469.0</ele><time>2026-04-18T07:57:29Z</time></trkpt><trkpt lat="47.81694686825662" lon="12.044684050724308"><ele>469.0</ele><time>2026-04-18T07:57:30Z</time></trkpt><trkpt lat="47.816919376965025" lon="12.045094984134998"><ele>468.0</ele><time>2026-04-18T07:57:31Z</time></trkpt><trkpt lat="47.816887828157725" lon="12.045489124449345"><ele>467.0</ele><time>2026-04-18T07:57:32Z</time></trkpt><trkpt lat="47.81686163822827" lon="12.045890688911761"><ele>466.0</ele><time>2026-04-18T07:57:33Z</time></trkpt><trkpt lat="47.8168316382745" lon="12.046296334415123"><ele>465.0</ele><time>2026-04-18T07:57:34Z</time></trkpt><trkpt lat="47.81679327554467" lon="12.04669441756331"><ele>464.5</ele><time>2026-04-18T07:57:35Z</time></trkpt><trkpt lat="47.81675163394771" lon="12.04708212005453"><ele>464.0</ele><time>2026-04-18T07:57:36Z</time></trkpt><trkpt lat="47.81670835202735" lon="12.047465551667603"><ele>464.0</ele><time>2026-04-18T07:57:37Z</time></trkpt><trkpt lat="47.8166666435919" lon="12.047840156656408"><ele>464.0</ele><time>2026-04-18T07:57:38Z</time></trkpt><trkpt lat="47.816624191047815" lon="12.04820730012907"><ele>464.5</ele><time>2026-04-18T07:57:39Z</time></trkpt><trkpt lat="47.81658165705893" lon="12.048566683226657"><ele>465.0</ele><time>2026-04-18T07:57:40Z</time></trkpt><trkpt lat="47.81653770503053" lon="12.04892376449755"><ele>465.5</ele><time>2026-04-18T07:57:41Z</time></trkpt><trkpt lat="47.81649357597645" lon="12.04927877947896"><ele>466.0</ele><time>2026-04-18T07:57:42Z</time></trkpt><trkpt lat="47.81644989471707" lon="12.04963332696684"><ele>465.0</ele><time>2026-04-18T07:57:43Z</time></trkpt><trkpt lat="47.81640590994879" lon="12.049986904015114"><ele>464.0</ele><time>2026-04-18T07:57:44Z</time></trkpt><trkpt lat="47.816362190451926" lon="12.050338886420443"><ele>464.0</ele><time>2026-04-18T07:57:45Z</time></trkpt><trkpt lat="47.81631673332104" lon="12.050698926704317"><ele>464.0</ele><time>2026-04-18T07:57:46Z</time></trkpt><trkpt lat="47.81627136100384" lon="12.051064694990618"><ele>463.0</ele><time>2026-04-18T07:57:47Z</time></trkpt><trkpt lat="47.81622832755577" lon="12.051429769754797"><ele>462.0</ele><time>2026-04-18T07:57:48Z</time></trkpt><trkpt lat="47.816185254178514" lon="12.05179473369935"><ele>461.0</ele><time>2026-04-18T07:57:49Z</time></trkpt><trkpt lat="47.816138416926236" lon="12.052154282363407"><ele>460.0</ele><time>2026-04-18T07:57:50Z</time></trkpt><trkpt lat="47.81609284504066" lon="12.052512136395153"><ele>460.0</ele><time>2026-04-18T07:57:51Z</time></trkpt><trkpt lat="47.81604636287055" lon="12.052869974792202"><ele>460.0</ele><time>2026-04-18T07:57:52Z</time></trkpt><trkpt lat="47.81600439129274" lon="12.053231081983919"><ele>462.5</ele><time>2026-04-18T07:57:53Z</time></trkpt><trkpt lat="47.81596010282933" lon="12.0535967947448"><ele>465.0</ele><time>2026-04-18T07:57:54Z</time></trkpt><trkpt lat="47.81591376891712" lon="12.053966406306492"><ele>465.5</ele><time>2026-04-18T07:57:55Z</time></trkpt><trkpt lat="47.81586743382714" lon="12.054339342284067"><ele>466.0</ele><time>2026-04-18T07:57:56Z</time></trkpt><trkpt lat="47.815823679265776" lon="12.054713713763979"><ele>464.5</ele><time>2026-04-18T07:57:57Z</time></trkpt><trkpt lat="47.81577893757869" lon="12.055083782290218"><ele>463.0</ele><time>2026-04-18T07:57:58Z</time></trkpt><trkpt lat="47.81573181439465" lon="12.055457638787306"><ele>464.0</ele><time>2026-04-18T07:57:59Z</time></trkpt><trkpt lat="47.81568750314983" lon="12.055830881027081"><ele>465.0</ele><time>2026-04-18T07:58:00Z</time></trkpt><trkpt lat="47.81564340869968" lon="12.056200284337146"><ele>465.0</ele><time>2026-04-18T07:58:01Z</time></trkpt><trkpt lat="47.815597966472104" lon="12.056565447556492"><ele>465.0</ele><time>2026-04-18T07:58:02Z</time></trkpt><trkpt lat="47.81555045854629" lon="12.056928483420412"><ele>466.5</ele><time>2026-04-18T07:58:03Z</time></trkpt><trkpt lat="47.8155047528636" lon="12.057289494623907"><ele>468.0</ele><time>2026-04-18T07:58:04Z</time></trkpt><trkpt lat="47.815461788675705" lon="12.057646860117906"><ele>468.5</ele><time>2026-04-18T07:58:05Z</time></trkpt><trkpt lat="47.81541931827947" lon="12.058006902722145"><ele>469.0</ele><time>2026-04-18T07:58:06Z</time></trkpt><trkpt lat="47.81537695923289" lon="12.058374873933511"><ele>470.5</ele><time>2026-04-18T07:58:07Z</time></trkpt><trkpt lat="47.8153328287338" lon="12.05874930488507"><ele>472.0</ele><time>2026-04-18T07:58:08Z</time></trkpt><trkpt lat="47.81528533546508" lon="12.059133750836356"><ele>474.5</ele><time>2026-04-18T07:58:09Z</time></trkpt><trkpt lat="47.815237336055375" lon="12.05952305355675"><ele>477.0</ele><time>2026-04-18T07:58:10Z</time></trkpt><trkpt lat="47.8151882081235" lon="12.059916606862805"><ele>476.0</ele><time>2026-04-18T07:58:11Z</time></trkpt><trkpt lat="47.81513848308129" lon="12.060313661018839"><ele>475.0</ele><time>2026-04-18T07:58:12Z</time></trkpt><trkpt lat="47.81508937205446" lon="12.060711541561481"><ele>474.0</ele><time>2026-04-18T07:58:13Z</time></trkpt><trkpt lat="47.81504245017729" lon="12.061107106239389"><ele>473.0</ele><time>2026-04-18T07:58:14Z</time></trkpt><trkpt lat="47.814995262908205" lon="12.061502971194546"><ele>473.5</ele><time>2026-04-18T07:58:15Z</time></trkpt><trkpt lat="47.81494817349556" lon="12.061897779753416"><ele>474.0</ele><time>2026-04-18T07:58:16Z</time></trkpt><trkpt lat="47.81490057889315" lon="12.062286333256584"><ele>475.0</ele><time>2026-04-18T07:58:17Z</time></trkpt><trkpt lat="47.81485323262262" lon="12.0626652031424"><ele>476.0</ele><time>2026-04-18T07:58:18Z</time></trkpt><trkpt lat="47.814809498964955" lon="12.06301992284726"><ele>476.5</ele><time>2026-04-18T07:58:19Z</time></trkpt><trkpt lat="47.814762788678706" lon="12.063373821947366"><ele>477.0</ele><time>2026-04-18T07:58:20Z</time></trkpt><trkpt lat="47.814714351326344" lon="12.063733488608946"><ele>477.0</ele><time>2026-04-18T07:58:21Z</time></trkpt><trkpt lat="47.81466508537381" lon="12.064091307152822"><ele>477.0</ele><time>2026-04-18T07:58:22Z</time></trkpt><trkpt lat="47.81461315064131" lon="12.064449097083969"><ele>476.5</ele><time>2026-04-18T07:58:23Z</time></trkpt><trkpt lat="47.81455655263365" lon="12.064803828050781"><ele>476.0</ele><time>2026-04-18T07:58:24Z</time></trkpt><trkpt lat="47.81450398994132" lon="12.065156291414217"><ele>476.0</ele><time>2026-04-18T07:58:25Z</time></trkpt><trkpt lat="47.814448490027466" lon="12.065506130840758"><ele>476.0</ele><time>2026-04-18T07:58:26Z</time></trkpt><trkpt lat="47.814393900544445" lon="12.065851783518925"><ele>476.0</ele><time>2026-04-18T07:58:27Z</time></trkpt><trkpt lat="47.81433866255216" lon="12.066199889482146"><ele>476.0</ele><time>2026-04-18T07:58:28Z</time></trkpt><trkpt lat="47.81428427207794" lon="12.06654461608516"><ele>476.0</ele><time>2026-04-18T07:58:29Z</time></trkpt><trkpt lat="47.8142284124017" lon="12.066896170875356"><ele>476.0</ele><time>2026-04-18T07:58:30Z</time></trkpt><trkpt lat="47.81416884822502" lon="12.067251344551206"><ele>475.0</ele><time>2026-04-18T07:58:31Z</time></trkpt><trkpt lat="47.814112270402575" lon="12.067611185362821"><ele>474.0</ele><time>2026-04-18T07:58:32Z</time></trkpt><trkpt lat="47.81405372031104" lon="12.067973517223566"><ele>473.5</ele><time>2026-04-18T07:58:33Z</time></trkpt><trkpt lat="47.813999682581894" lon="12.068320625528605"><ele>473.0</ele><time>2026-04-18T07:58:34Z</time></trkpt><trkpt lat="47.813951554701575" lon="12.068658950066634"><ele>473.0</ele><time>2026-04-18T07:58:35Z</time></trkpt><trkpt lat="47.813903046855955" lon="12.068990590186898"><ele>473.0</ele><time>2026-04-18T07:58:36Z</time></trkpt><trkpt lat="47.81385508047509" lon="12.069321600771602"><ele>474.0</ele><time>2026-04-18T07:58:37Z</time></trkpt><trkpt lat="47.8138064687794" lon="12.06965184357609"><ele>475.0</ele><time>2026-04-18T07:58:38Z</time></trkpt><trkpt lat="47.813759809303534" lon="12.069979058342264"><ele>475.0</ele><time>2026-04-18T07:58:39Z</time></trkpt><trkpt lat="47.81371249129051" lon="12.070297813580083"><ele>475.0</ele><time>2026-04-18T07:58:40Z</time></trkpt><trkpt lat="47.813664276210524" lon="12.070613579789278"><ele>475.0</ele><time>2026-04-18T07:58:41Z</time></trkpt><trkpt lat="47.81361767763935" lon="12.070929982835587"><ele>475.0</ele><time>2026-04-18T07:58:42Z</time></trkpt><trkpt lat="47.81357199342063" lon="12.071248270114706"><ele>475.0</ele><time>2026-04-18T07:58:43Z</time></trkpt><trkpt lat="47.813527115232695" lon="12.07156662143044"><ele>475.0</ele><time>2026-04-18T07:58:44Z</time></trkpt><trkpt lat="47.81348259582773" lon="12.07188504263579"><ele>475.0</ele><time>2026-04-18T07:58:45Z</time></trkpt><trkpt lat="47.813432777318155" lon="12.072222895421792"><ele>475.0</ele><time>2026-04-18T07:58:46Z</time></trkpt><trkpt lat="47.813378849196255" lon="12.072581567452474"><ele>473.0</ele><time>2026-04-18T07:58:47Z</time></trkpt><trkpt lat="47.81332460105176" lon="12.07294374583965"><ele>471.0</ele><time>2026-04-18T07:58:48Z</time></trkpt><trkpt lat="47.81327219007074" lon="12.07330902345376"><ele>470.5</ele><time>2026-04-18T07:58:49Z</time></trkpt><trkpt lat="47.81322084043343" lon="12.073654980096919"><ele>470.0</ele><time>2026-04-18T07:58:50Z</time></trkpt><trkpt lat="47.81316862274672" lon="12.07399154216773"><ele>469.5</ele><time>2026-04-18T07:58:51Z</time></trkpt><trkpt lat="47.81311672841991" lon="12.074324450556917"><ele>469.0</ele><time>2026-04-18T07:58:52Z</time></trkpt><trkpt lat="47.813068112998515" lon="12.074648054443657"><ele>468.6666666666667</ele><time>2026-04-18T07:58:53Z</time></trkpt><trkpt lat="47.81302155837792" lon="12.074971222017805"><ele>468.33333333333337</ele><time>2026-04-18T07:58:54Z</time></trkpt><trkpt lat="47.812975323945615" lon="12.075290134733184"><ele>468.0</ele><time>2026-04-18T07:58:55Z</time></trkpt><trkpt lat="47.81292634566783" lon="12.07561742864112"><ele>469.0</ele><time>2026-04-18T07:58:56Z</time></trkpt><trkpt lat="47.8128781971974" lon="12.075956068498002"><ele>470.0</ele><time>2026-04-18T07:58:57Z</time></trkpt><trkpt lat="47.81283047456392" lon="12.07629827531088"><ele>469.5</ele><time>2026-04-18T07:58:58Z</time></trkpt><trkpt lat="47.81278127900688" lon="12.076643806758298"><ele>469.0</ele><time>2026-04-18T07:58:59Z</time></trkpt><trkpt lat="47.812724877091355" lon="12.07698735350486"><ele>469.0</ele><time>2026-04-18T07:59:00Z</time></trkpt><trkpt lat="47.81265925300411" lon="12.077331870845004"><ele>469.0</ele><time>2026-04-18T07:59:01Z</time></trkpt><trkpt lat="47.812597604328225" lon="12.077665619647567"><ele>468.33333333333337</ele><time>2026-04-18T07:59:02Z</time></trkpt><trkpt lat="47.812545191220686" lon="12.077988344276461"><ele>467.66666666666663</ele><time>2026-04-18T07:59:03Z</time></trkpt><trkpt lat="47.81249673834701" lon="12.078308712344267"><ele>467.0</ele><time>2026-04-18T07:59:04Z</time></trkpt><trkpt lat="47.81245043736594" lon="12.078628513783075"><ele>467.0</ele><time>2026-04-18T07:59:05Z</time></trkpt><trkpt lat="47.81240542108706" lon="12.078947302161012"><ele>467.0</ele><time>2026-04-18T07:59:06Z</time></trkpt><trkpt lat="47.81235718393097" lon="12.079269957435693"><ele>467.0</ele><time>2026-04-18T07:59:07Z</time></trkpt><trkpt lat="47.81230845357548" lon="12.07959781644438"><ele>467.5</ele><time>2026-04-18T07:59:08Z</time></trkpt><trkpt lat="47.81226246823758" lon="12.079927619255075"><ele>468.0</ele><time>2026-04-18T07:59:09Z</time></trkpt><trkpt lat="47.81221478740632" lon="12.080264134849411"><ele>467.5</ele><time>2026-04-18T07:59:10Z</time></trkpt><trkpt lat="47.812164577573775" lon="12.080601596121378"><ele>467.0</ele><time>2026-04-18T07:59:11Z</time></trkpt><trkpt lat="47.81211375418524" lon="12.080941587736321"><ele>467.0</ele><time>2026-04-18T07:59:12Z</time></trkpt><trkpt lat="47.812064364774784" lon="12.081283708386596"><ele>467.0</ele><time>2026-04-18T07:59:13Z</time></trkpt><trkpt lat="47.812014379810115" lon="12.08162535944569"><ele>467.0</ele><time>2026-04-18T07:59:14Z</time></trkpt><trkpt lat="47.811962589134815" lon="12.08197436143592"><ele>467.0</ele><time>2026-04-18T07:59:15Z</time></trkpt><trkpt lat="47.81191091148874" lon="12.082326620896781"><ele>467.0</ele><time>2026-04-18T07:59:16Z</time></trkpt><trkpt lat="47.81185867537184" lon="12.08268164314938"><ele>467.0</ele><time>2026-04-18T07:59:17Z</time></trkpt><trkpt lat="47.81180708063298" lon="12.083037669074447"><ele>467.0</ele><time>2026-04-18T07:59:18Z</time></trkpt><trkpt lat="47.81175372395461" lon="12.083393873317661"><ele>467.0</ele><time>2026-04-18T07:59:19Z</time></trkpt><trkpt lat="47.811701826127376" lon="12.083746303537913"><ele>467.0</ele><time>2026-04-18T07:59:20Z</time></trkpt><trkpt lat="47.81165289182036" lon="12.084095922148078"><ele>467.0</ele><time>2026-04-18T07:59:21Z</time></trkpt><trkpt lat="47.81160140016016" lon="12.084451970291138"><ele>467.5</ele><time>2026-04-18T07:59:22Z</time></trkpt><trkpt lat="47.811547356256526" lon="12.08480902762308"><ele>468.0</ele><time>2026-04-18T07:59:23Z</time></trkpt><trkpt lat="47.81149404022729" lon="12.085167444154832"><ele>468.0</ele><time>2026-04-18T07:59:24Z</time></trkpt><trkpt lat="47.81143842765958" lon="12.085526639043302"><ele>468.0</ele><time>2026-04-18T07:59:25Z</time></trkpt><trkpt lat="47.81138384595259" lon="12.08588480337306"><ele>467.5</ele><time>2026-04-18T07:59:26Z</time></trkpt><trkpt lat="47.81133078248534" lon="12.08623834319745"><ele>467.0</ele><time>2026-04-18T07:59:27Z</time></trkpt><trkpt lat="47.81128021459104" lon="12.08658873663258"><ele>467.5</ele><time>2026-04-18T07:59:28Z</time></trkpt><trkpt lat="47.811228697945495" lon="12.086935305694523"><ele>468.0</ele><time>2026-04-18T07:59:29Z</time></trkpt><trkpt lat="47.81117785620429" lon="12.087277590755283"><ele>467.5</ele><time>2026-04-18T07:59:30Z</time></trkpt><trkpt lat="47.811127505511436" lon="12.087617077329613"><ele>467.0</ele><time>2026-04-18T07:59:31Z</time></trkpt><trkpt lat="47.81107721317552" lon="12.087953105932433"><ele>467.5</ele><time>2026-04-18T07:59:32Z</time></trkpt><trkpt lat="47.81102832984453" lon="12.088285755998065"><ele>468.0</ele><time>2026-04-18T07:59:33Z</time></trkpt><trkpt lat="47.8109798868539" lon="12.088618089918599"><ele>468.0</ele><time>2026-04-18T07:59:34Z</time></trkpt><trkpt lat="47.81093125154444" lon="12.088949959334755"><ele>468.0</ele><time>2026-04-18T07:59:35Z</time></trkpt><trkpt lat="47.810883744566304" lon="12.089285711953677"><ele>468.0</ele><time>2026-04-18T07:59:36Z</time></trkpt><trkpt lat="47.81083417313756" lon="12.089625043227354"><ele>468.0</ele><time>2026-04-18T07:59:37Z</time></trkpt><trkpt lat="47.8107834332033" lon="12.089963922177978"><ele>468.5</ele><time>2026-04-18T07:59:38Z</time></trkpt><trkpt lat="47.81073146881628" lon="12.090303071171858"><ele>469.0</ele><time>2026-04-18T07:59:39Z</time></trkpt><trkpt lat="47.810681608531524" lon="12.09064334763872"><ele>468.0</ele><time>2026-04-18T07:59:40Z</time></trkpt><trkpt lat="47.8106332725463" lon="12.090974965836232"><ele>467.0</ele><time>2026-04-18T07:59:41Z</time></trkpt><trkpt lat="47.81058346235729" lon="12.091296629167983"><ele>467.0</ele><time>2026-04-18T07:59:42Z</time></trkpt><trkpt lat="47.810537596977454" lon="12.091622560846064"><ele>467.0</ele><time>2026-04-18T07:59:43Z</time></trkpt><trkpt lat="47.81048358321987" lon="12.091948521632263"><ele>467.0</ele><time>2026-04-18T07:59:44Z</time></trkpt><trkpt lat="47.810415376921505" lon="12.092265030752937"><ele>467.66666666666663</ele><time>2026-04-18T07:59:45Z</time></trkpt><trkpt lat="47.81034502892539" lon="12.092568965303405"><ele>468.33333333333337</ele><time>2026-04-18T07:59:46Z</time></trkpt><trkpt lat="47.810267810160646" lon="12.092855625757409"><ele>469.0</ele><time>2026-04-18T07:59:47Z</time></trkpt><trkpt lat="47.81018402297586" lon="12.093128459470936"><ele>468.6666666666667</ele><time>2026-04-18T07:59:48Z</time></trkpt><trkpt lat="47.810093795663526" lon="12.093385787809972"><ele>468.33333333333337</ele><time>2026-04-18T07:59:49Z</time></trkpt><trkpt lat="47.80999722569766" lon="12.09362705023221"><ele>468.0</ele><time>2026-04-18T07:59:50Z</time></trkpt><trkpt lat="47.80988757087625" lon="12.093855125704259"><ele>468.0</ele><time>2026-04-18T07:59:51Z</time></trkpt><trkpt lat="47.80977194272459" lon="12.094056790421549"><ele>468.0</ele><time>2026-04-18T07:59:52Z</time></trkpt><trkpt lat="47.80965082113183" lon="12.09423647805252"><ele>468.0</ele><time>2026-04-18T07:59:53Z</time></trkpt><trkpt lat="47.80951986154083" lon="12.094392305729246"><ele>468.0</ele><time>2026-04-18T07:59:54Z</time></trkpt><trkpt lat="47.809377884427136" lon="12.094550445748853"><ele>468.0</ele><time>2026-04-18T07:59:55Z</time></trkpt><trkpt lat="47.80922172598345" lon="12.094678267078825"><ele>468.0</ele><time>2026-04-18T07:59:56Z</time></trkpt><trkpt lat="47.80907198469876" lon="12.094785680900804"><ele>468.0</ele><time>2026-04-18T07:59:57Z</time></trkpt><trkpt lat="47.80891819076748" lon="12.094874536368348"><ele>468.0</ele><time>2026-04-18T07:59:58Z</time></trkpt><trkpt lat="47.80876164318675" lon="12.09495147843855"><ele>468.0</ele><time>2026-04-18T07:59:59Z</time></trkpt><trkpt lat="47.808591522820215" lon="12.095011733476795"><ele>467.66666666666663</ele><time>2026-04-18T08:00:00Z</time></trkpt><trkpt lat="47.80840786141936" lon="12.095046188427986"><ele>467.3333333333333</ele><time>2026-04-18T08:00:01Z</time></trkpt><trkpt lat="47.80821513177771" lon="12.095061987658578"><ele>467.0</ele><time>2026-04-18T08:00:02Z</time></trkpt><trkpt lat="47.80801489014487" lon="12.095061955967338"><ele>467.0</ele><time>2026-04-18T08:00:03Z</time></trkpt><trkpt lat="47.8078171469423" lon="12.09503529954187"><ele>467.0</ele><time>2026-04-18T08:00:04Z</time></trkpt><trkpt lat="47.80761485466273" lon="12.094975117662436"><ele>467.0</ele><time>2026-04-18T08:00:05Z</time></trkpt><trkpt lat="47.807412607671374" lon="12.094893331072731"><ele>467.0</ele><time>2026-04-18T08:00:06Z</time></trkpt><trkpt lat="47.80720789091019" lon="12.09479003271919"><ele>467.0</ele><time>2026-04-18T08:00:07Z</time></trkpt><trkpt lat="47.80701316112824" lon="12.094674746360791"><ele>467.0</ele><time>2026-04-18T08:00:08Z</time></trkpt><trkpt lat="47.80681871413025" lon="12.09453980237497"><ele>466.3333333333333</ele><time>2026-04-18T08:00:09Z</time></trkpt><trkpt lat="47.80662786123561" lon="12.09439410987089"><ele>465.66666666666663</ele><time>2026-04-18T08:00:10Z</time></trkpt><trkpt lat="47.80643518069294" lon="12.094235034936437"><ele>465.0</ele><time>2026-04-18T08:00:11Z</time></trkpt><trkpt lat="47.80625293209659" lon="12.094053734398374"><ele>465.0</ele><time>2026-04-18T08:00:12Z</time></trkpt><trkpt lat="47.80606741118904" lon="12.093862170681115"><ele>465.0</ele><time>2026-04-18T08:00:13Z</time></trkpt><trkpt lat="47.80587501455524" lon="12.093673141168368"><ele>465.5</ele><time>2026-04-18T08:00:14Z</time></trkpt><trkpt lat="47.8056839017752" lon="12.093485331634183"><ele>466.0</ele><time>2026-04-18T08:00:15Z</time></trkpt><trkpt lat="47.80549201443765" lon="12.093293710188929"><ele>466.0</ele><time>2026-04-18T08:00:16Z</time></trkpt><trkpt lat="47.805294712522084" lon="12.093104726460615"><ele>466.0</ele><time>2026-04-18T08:00:17Z</time></trkpt><trkpt lat="47.80508767452919" lon="12.092912399664032"><ele>466.0</ele><time>2026-04-18T08:00:18Z</time></trkpt><trkpt lat="47.8048715510521" lon="12.092711893230017"><ele>466.0</ele><time>2026-04-18T08:00:19Z</time></trkpt><trkpt lat="47.8046518088843" lon="12.092517475191425"><ele>464.5</ele><time>2026-04-18T08:00:20Z</time></trkpt><trkpt lat="47.804432115043376" lon="12.092329806293735"><ele>463.0</ele><time>2026-04-18T08:00:21Z</time></trkpt><trkpt lat="47.8042203329898" lon="12.09215340936435"><ele>463.0</ele><time>2026-04-18T08:00:22Z</time></trkpt><trkpt lat="47.80401395440919" lon="12.091988215536905"><ele>463.0</ele><time>2026-04-18T08:00:23Z</time></trkpt><trkpt lat="47.80381677524093" lon="12.091840332150399"><ele>463.0</ele><time>2026-04-18T08:00:24Z</time></trkpt><trkpt lat="47.803629498625675" lon="12.091706871455314"><ele>463.0</ele><time>2026-04-18T08:00:25Z</time></trkpt><trkpt lat="47.80345146081466" lon="12.091584737297042"><ele>463.0</ele><time>2026-04-18T08:00:26Z</time></trkpt><trkpt lat="47.80327455556419" lon="12.091464638751656"><ele>463.6666666666667</ele><time>2026-04-18T08:00:27Z</time></trkpt><trkpt lat="47.803098315550386" lon="12.091349470010682"><ele>464.33333333333337</ele><time>2026-04-18T08:00:28Z</time></trkpt><trkpt lat="47.80292065992755" lon="12.091237871001681"><ele>465.0</ele><time>2026-04-18T08:00:29Z</time></trkpt><trkpt lat="47.80273714087071" lon="12.09112786519269"><ele>464.66666666666663</ele><time>2026-04-18T08:00:30Z</time></trkpt><trkpt lat="47.802548311565296" lon="12.091019738259089"><ele>464.3333333333333</ele><time>2026-04-18T08:00:31Z</time></trkpt><trkpt lat="47.802362838786856" lon="12.090916420202992"><ele>464.0</ele><time>2026-04-18T08:00:32Z</time></trkpt><trkpt lat="47.8021736185483" lon="12.090816924787978"><ele>463.3333333333333</ele><time>2026-04-18T08:00:33Z</time></trkpt><trkpt lat="47.80198050452447" lon="12.090719595013873"><ele>462.66666666666663</ele><time>2026-04-18T08:00:34Z</time></trkpt><trkpt lat="47.80178035987304" lon="12.090622710523464"><ele>462.0</ele><time>2026-04-18T08:00:35Z</time></trkpt><trkpt lat="47.80157097784631" lon="12.090527069435202"><ele>462.0</ele><time>2026-04-18T08:00:36Z</time></trkpt><trkpt lat="47.801354501589586" lon="12.090435650528006"><ele>462.0</ele><time>2026-04-18T08:00:37Z</time></trkpt><trkpt lat="47.801133218221565" lon="12.090357022183937"><ele>462.5</ele><time>2026-04-18T08:00:38Z</time></trkpt><trkpt lat="47.8009042305579" lon="12.090289736810073"><ele>463.0</ele><time>2026-04-18T08:00:39Z</time></trkpt><trkpt lat="47.80067104406116" lon="12.090226096706521"><ele>463.0</ele><time>2026-04-18T08:00:40Z</time></trkpt><trkpt lat="47.800432134099935" lon="12.090154559742839"><ele>463.0</ele><time>2026-04-18T08:00:41Z</time></trkpt><trkpt lat="47.800191199447376" lon="12.090087153934384"><ele>465.0</ele><time>2026-04-18T08:00:42Z</time></trkpt><trkpt lat="47.799949938707556" lon="12.090024333430716"><ele>467.0</ele><time>2026-04-18T08:00:43Z</time></trkpt><trkpt lat="47.79970899518422" lon="12.08996842533498"><ele>466.0</ele><time>2026-04-18T08:00:44Z</time></trkpt><trkpt lat="47.799456746899025" lon="12.089916873530552"><ele>465.0</ele><time>2026-04-18T08:00:45Z</time></trkpt><trkpt lat="47.79919928200723" lon="12.089875864274882"><ele>464.5</ele><time>2026-04-18T08:00:46Z</time></trkpt><trkpt lat="47.79894272068761" lon="12.08983655200086"><ele>464.0</ele><time>2026-04-18T08:00:47Z</time></trkpt><trkpt lat="47.79869206241392" lon="12.089804325263303"><ele>467.5</ele><time>2026-04-18T08:00:48Z</time></trkpt><trkpt lat="47.798446548349816" lon="12.08978291133438"><ele>471.0</ele><time>2026-04-18T08:00:49Z</time></trkpt><trkpt lat="47.79820450899641" lon="12.089771278179702"><ele>471.0</ele><time>2026-04-18T08:00:50Z</time></trkpt><trkpt lat="47.7979612232169" lon="12.089768176404284"><ele>471.0</ele><time>2026-04-18T08:00:51Z</time></trkpt><trkpt lat="47.797711183238924" lon="12.089766249032277"><ele>471.5</ele><time>2026-04-18T08:00:52Z</time></trkpt><trkpt lat="47.797462412967676" lon="12.089771039171948"><ele>472.0</ele><time>2026-04-18T08:00:53Z</time></trkpt><trkpt lat="47.79721012894162" lon="12.089782831702198"><ele>472.0</ele><time>2026-04-18T08:00:54Z</time></trkpt><trkpt lat="47.796955778752924" lon="12.089795763261943"><ele>472.0</ele><time>2026-04-18T08:00:55Z</time></trkpt><trkpt lat="47.79670833432219" lon="12.08979738010763"><ele>473.5</ele><time>2026-04-18T08:00:56Z</time></trkpt><trkpt lat="47.79645843321521" lon="12.089804711610423"><ele>475.0</ele><time>2026-04-18T08:00:57Z</time></trkpt><trkpt lat="47.796205879178366" lon="12.089810757626466"><ele>473.0</ele><time>2026-04-18T08:00:58Z</time></trkpt><trkpt lat="47.79595276350051" lon="12.089817516467162"><ele>471.0</ele><time>2026-04-18T08:00:59Z</time></trkpt><trkpt lat="47.79569721771624" lon="12.089838882151497"><ele>471.0</ele><time>2026-04-18T08:01:00Z</time></trkpt><trkpt lat="47.79543593659683" lon="12.089863614352568"><ele>471.0</ele><time>2026-04-18T08:01:01Z</time></trkpt><trkpt lat="47.79518612749242" lon="12.089876933222122"><ele>472.5</ele><time>2026-04-18T08:01:02Z</time></trkpt><trkpt lat="47.794938283286015" lon="12.089891150785869"><ele>474.0</ele><time>2026-04-18T08:01:03Z</time></trkpt><trkpt lat="47.794690533471986" lon="12.089905279708088"><ele>474.0</ele><time>2026-04-18T08:01:04Z</time></trkpt><trkpt lat="47.794442123998564" lon="12.089919706935925"><ele>474.0</ele><time>2026-04-18T08:01:05Z</time></trkpt><trkpt lat="47.794194764567386" lon="12.089933671898017"><ele>470.5</ele><time>2026-04-18T08:01:06Z</time></trkpt><trkpt lat="47.79394886056551" lon="12.089948788409659"><ele>467.0</ele><time>2026-04-18T08:01:07Z</time></trkpt><trkpt lat="47.79369790301126" lon="12.089963754942685"><ele>466.0</ele><time>2026-04-18T08:01:08Z</time></trkpt><trkpt lat="47.79344227751802" lon="12.0899841123275"><ele>465.0</ele><time>2026-04-18T08:01:09Z</time></trkpt><trkpt lat="47.79318855252937" lon="12.089999397790915"><ele>465.0</ele><time>2026-04-18T08:01:10Z</time></trkpt><trkpt lat="47.79293466590241" lon="12.090019585825"><ele>465.0</ele><time>2026-04-18T08:01:11Z</time></trkpt><trkpt lat="47.792673909103655" lon="12.090041078693497"><ele>466.5</ele><time>2026-04-18T08:01:12Z</time></trkpt><trkpt lat="47.79240885621791" lon="12.090060023794324"><ele>468.0</ele><time>2026-04-18T08:01:13Z</time></trkpt><trkpt lat="47.7921347275067" lon="12.090081782790064"><ele>468.0</ele><time>2026-04-18T08:01:14Z</time></trkpt><trkpt lat="47.791859371586284" lon="12.090108472049046"><ele>468.0</ele><time>2026-04-18T08:01:15Z</time></trkpt><trkpt lat="47.79158003862429" lon="12.090147734016814"><ele>469.0</ele><time>2026-04-18T08:01:16Z</time></trkpt><trkpt lat="47.79129733565235" lon="12.090189454719974"><ele>470.0</ele><time>2026-04-18T08:01:17Z</time></trkpt><trkpt lat="47.791018064626705" lon="12.090226127812"><ele>471.0</ele><time>2026-04-18T08:01:18Z</time></trkpt><trkpt lat="47.79074552133819" lon="12.090258165787914"><ele>472.0</ele><time>2026-04-18T08:01:19Z</time></trkpt><trkpt lat="47.790477017896265" lon="12.090290284095937"><ele>472.0</ele><time>2026-04-18T08:01:20Z</time></trkpt><trkpt lat="47.79020712814472" lon="12.090323041126425"><ele>472.0</ele><time>2026-04-18T08:01:21Z</time></trkpt><trkpt lat="47.78993663805032" lon="12.09035567399287"><ele>471.5</ele><time>2026-04-18T08:01:22Z</time></trkpt><trkpt lat="47.789664686265645" lon="12.090390114696204"><ele>471.0</ele><time>2026-04-18T08:01:23Z</time></trkpt><trkpt lat="47.78938681784515" lon="12.090426543386654"><ele>472.0</ele><time>2026-04-18T08:01:24Z</time></trkpt><trkpt lat="47.78910925609012" lon="12.090465207179813"><ele>473.0</ele><time>2026-04-18T08:01:25Z</time></trkpt><trkpt lat="47.78883361283051" lon="12.090510574385604"><ele>473.0</ele><time>2026-04-18T08:01:26Z</time></trkpt><trkpt lat="47.78856066405413" lon="12.090556966202588"><ele>473.0</ele><time>2026-04-18T08:01:27Z</time></trkpt><trkpt lat="47.788290797872804" lon="12.090604131911507"><ele>472.0</ele><time>2026-04-18T08:01:28Z</time></trkpt><trkpt lat="47.78802407733965" lon="12.090650372900212"><ele>471.0</ele><time>2026-04-18T08:01:29Z</time></trkpt><trkpt lat="47.787761997339906" lon="12.090694729356914"><ele>470.5</ele><time>2026-04-18T08:01:30Z</time></trkpt><trkpt lat="47.78750345069782" lon="12.090740096992395"><ele>470.0</ele><time>2026-04-18T08:01:31Z</time></trkpt><trkpt lat="47.78724272743752" lon="12.090788173476536"><ele>470.0</ele><time>2026-04-18T08:01:32Z</time></trkpt><trkpt lat="47.78698208003394" lon="12.090840917811434"><ele>470.0</ele><time>2026-04-18T08:01:33Z</time></trkpt><trkpt lat="47.78672494864989" lon="12.09089430048487"><ele>470.0</ele><time>2026-04-18T08:01:34Z</time></trkpt><trkpt lat="47.78646737058158" lon="12.09095058480186"><ele>470.0</ele><time>2026-04-18T08:01:35Z</time></trkpt><trkpt lat="47.78620918384108" lon="12.09101279701515"><ele>469.5</ele><time>2026-04-18T08:01:36Z</time></trkpt><trkpt lat="47.785950080553405" lon="12.091072215839901"><ele>469.0</ele><time>2026-04-18T08:01:37Z</time></trkpt><trkpt lat="47.785695966473874" lon="12.091135888771346"><ele>469.0</ele><time>2026-04-18T08:01:38Z</time></trkpt><trkpt lat="47.78543875301334" lon="12.09119716266977"><ele>469.0</ele><time>2026-04-18T08:01:39Z</time></trkpt><trkpt lat="47.78518757239696" lon="12.091259550031143"><ele>469.5</ele><time>2026-04-18T08:01:40Z</time></trkpt><trkpt lat="47.78494156951955" lon="12.09132291469883"><ele>470.0</ele><time>2026-04-18T08:01:41Z</time></trkpt><trkpt lat="47.784699553377244" lon="12.091386911559871"><ele>470.0</ele><time>2026-04-18T08:01:42Z</time></trkpt><trkpt lat="47.78446304866072" lon="12.091449960009975"><ele>470.0</ele><time>2026-04-18T08:01:43Z</time></trkpt><trkpt lat="47.78423019897529" lon="12.091514604781272"><ele>470.5</ele><time>2026-04-18T08:01:44Z</time></trkpt><trkpt lat="47.78399940656777" lon="12.091580403602455"><ele>471.0</ele><time>2026-04-18T08:01:45Z</time></trkpt><trkpt lat="47.7837653309046" lon="12.09164911143626"><ele>470.0</ele><time>2026-04-18T08:01:46Z</time></trkpt><trkpt lat="47.783514926629294" lon="12.09172238029331"><ele>469.0</ele><time>2026-04-18T08:01:47Z</time></trkpt><trkpt lat="47.78326657581106" lon="12.09179637824228"><ele>469.0</ele><time>2026-04-18T08:01:48Z</time></trkpt><trkpt lat="47.78302079571782" lon="12.091873021826506"><ele>469.0</ele><time>2026-04-18T08:01:49Z</time></trkpt><trkpt lat="47.78277945050833" lon="12.091951609986424"><ele>469.0</ele><time>2026-04-18T08:01:50Z</time></trkpt><trkpt lat="47.782536719276706" lon="12.092029795886045"><ele>469.0</ele><time>2026-04-18T08:01:51Z</time></trkpt><trkpt lat="47.78228850806786" lon="12.092110911938201"><ele>469.0</ele><time>2026-04-18T08:01:52Z</time></trkpt><trkpt lat="47.78203633789979" lon="12.092190928288511"><ele>469.0</ele><time>2026-04-18T08:01:53Z</time></trkpt><trkpt lat="47.781781511384736" lon="12.092279464590934"><ele>470.0</ele><time>2026-04-18T08:01:54Z</time></trkpt><trkpt lat="47.78152318454864" lon="12.092372777137355"><ele>471.0</ele><time>2026-04-18T08:01:55Z</time></trkpt><trkpt lat="47.78126551982195" lon="12.092465138629704"><ele>472.0</ele><time>2026-04-18T08:01:56Z</time></trkpt><trkpt lat="47.78100973573565" lon="12.092557150036733"><ele>473.0</ele><time>2026-04-18T08:01:57Z</time></trkpt><trkpt lat="47.78075385622006" lon="12.092650322005058"><ele>473.0</ele><time>2026-04-18T08:01:58Z</time></trkpt><trkpt lat="47.78050584449961" lon="12.092743544503817"><ele>473.0</ele><time>2026-04-18T08:01:59Z</time></trkpt><trkpt lat="47.780272123532555" lon="12.09283457227579"><ele>472.5</ele><time>2026-04-18T08:02:00Z</time></trkpt><trkpt lat="47.78004003262738" lon="12.092921969090632"><ele>472.0</ele><time>2026-04-18T08:02:01Z</time></trkpt><trkpt lat="47.77981625592432" lon="12.09300857068782"><ele>472.0</ele><time>2026-04-18T08:02:02Z</time></trkpt><trkpt lat="47.77959854789841" lon="12.09309559734765"><ele>472.0</ele><time>2026-04-18T08:02:03Z</time></trkpt><trkpt lat="47.779379972937186" lon="12.093185993004422"><ele>471.5</ele><time>2026-04-18T08:02:04Z</time></trkpt><trkpt lat="47.77915876053877" lon="12.093280616140248"><ele>471.0</ele><time>2026-04-18T08:02:05Z</time></trkpt><trkpt lat="47.77893806769674" lon="12.093375677341607"><ele>471.0</ele><time>2026-04-18T08:02:06Z</time></trkpt><trkpt lat="47.778721577092504" lon="12.093465948065841"><ele>471.0</ele><time>2026-04-18T08:02:07Z</time></trkpt><trkpt lat="47.77850953240641" lon="12.093561879815114"><ele>471.0</ele><time>2026-04-18T08:02:08Z</time></trkpt><trkpt lat="47.77829702893867" lon="12.093656818634729"><ele>471.0</ele><time>2026-04-18T08:02:09Z</time></trkpt><trkpt lat="47.778089777395294" lon="12.093748121001067"><ele>471.0</ele><time>2026-04-18T08:02:10Z</time></trkpt><trkpt lat="47.77788205481082" lon="12.09384128842152"><ele>471.0</ele><time>2026-04-18T08:02:11Z</time></trkpt><trkpt lat="47.77766781216492" lon="12.093940266626275"><ele>470.33333333333337</ele><time>2026-04-18T08:02:12Z</time></trkpt><trkpt lat="47.77745329012863" lon="12.09404069195017"><ele>469.6666666666667</ele><time>2026-04-18T08:02:13Z</time></trkpt><trkpt lat="47.77724087251758" lon="12.094143241361543"><ele>469.0</ele><time>2026-04-18T08:02:14Z</time></trkpt><trkpt lat="47.77703956696557" lon="12.094240911756943"><ele>467.6666666666667</ele><time>2026-04-18T08:02:15Z</time></trkpt><trkpt lat="47.77684651032241" lon="12.094335296623749"><ele>466.33333333333337</ele><time>2026-04-18T08:02:16Z</time></trkpt><trkpt lat="47.77665450543531" lon="12.094427287626813"><ele>465.0</ele><time>2026-04-18T08:02:17Z</time></trkpt><trkpt lat="47.77646818190246" lon="12.094520006181842"><ele>465.0</ele><time>2026-04-18T08:02:18Z</time></trkpt><trkpt lat="47.77628348527322" lon="12.094611982190553"><ele>465.0</ele><time>2026-04-18T08:02:19Z</time></trkpt><trkpt lat="47.776095362051144" lon="12.094701624613247"><ele>465.0</ele><time>2026-04-18T08:02:20Z</time></trkpt><trkpt lat="47.775908233458736" lon="12.094798106951652"><ele>464.33333333333337</ele><time>2026-04-18T08:02:21Z</time></trkpt><trkpt lat="47.77572675121755" lon="12.094890390459438"><ele>463.6666666666667</ele><time>2026-04-18T08:02:22Z</time></trkpt><trkpt lat="47.77556307906273" lon="12.094976780623963"><ele>463.0</ele><time>2026-04-18T08:02:23Z</time></trkpt><trkpt lat="47.77540622717177" lon="12.095057827744727"><ele>462.6666666666667</ele><time>2026-04-18T08:02:24Z</time></trkpt><trkpt lat="47.7752566180953" lon="12.095133163500343"><ele>462.33333333333337</ele><time>2026-04-18T08:02:25Z</time></trkpt><trkpt lat="47.775122086787164" lon="12.095205308969247"><ele>462.0</ele><time>2026-04-18T08:02:26Z</time></trkpt><trkpt lat="47.774977377008895" lon="12.095292084855"><ele>462.66666666666663</ele><time>2026-04-18T08:02:27Z</time></trkpt><trkpt lat="47.77482950166728" lon="12.095380789722372"><ele>463.3333333333333</ele><time>2026-04-18T08:02:28Z</time></trkpt><trkpt lat="47.774679188774314" lon="12.095470071216265"><ele>464.0</ele><time>2026-04-18T08:02:29Z</time></trkpt><trkpt lat="47.77452823063084" lon="12.095550561310324"><ele>464.0</ele><time>2026-04-18T08:02:30Z</time></trkpt><trkpt lat="47.77438941531595" lon="12.095632508126117"><ele>464.0</ele><time>2026-04-18T08:02:31Z</time></trkpt><trkpt lat="47.77425739029376" lon="12.095710356621039"><ele>464.0</ele><time>2026-04-18T08:02:32Z</time></trkpt><trkpt lat="47.77412632379492" lon="12.095785128172965"><ele>464.0</ele><time>2026-04-18T08:02:33Z</time></trkpt><trkpt lat="47.77399334505349" lon="12.095866363076205"><ele>463.75</ele><time>2026-04-18T08:02:34Z</time></trkpt><trkpt lat="47.773858534400325" lon="12.095945619112726"><ele>463.5</ele><time>2026-04-18T08:02:35Z</time></trkpt><trkpt lat="47.773720124351954" lon="12.096029030805099"><ele>463.25</ele><time>2026-04-18T08:02:36Z</time></trkpt><trkpt lat="47.77357932617933" lon="12.09611021127551"><ele>463.0</ele><time>2026-04-18T08:02:37Z</time></trkpt><trkpt lat="47.7734435025126" lon="12.096186281245677"><ele>463.6666666666667</ele><time>2026-04-18T08:02:38Z</time></trkpt><trkpt lat="47.77330269341516" lon="12.096270344966179"><ele>464.33333333333337</ele><time>2026-04-18T08:02:39Z</time></trkpt><trkpt lat="47.77315506285083" lon="12.09636085481437"><ele>465.0</ele><time>2026-04-18T08:02:40Z</time></trkpt><trkpt lat="47.77300222689878" lon="12.09645729520035"><ele>465.0</ele><time>2026-04-18T08:02:41Z</time></trkpt><trkpt lat="47.77285382559271" lon="12.096545651796628"><ele>465.0</ele><time>2026-04-18T08:02:42Z</time></trkpt><trkpt lat="47.772712586432704" lon="12.096633342218588"><ele>465.0</ele><time>2026-04-18T08:02:43Z</time></trkpt><trkpt lat="47.77257783077175" lon="12.096718197456218"><ele>464.0</ele><time>2026-04-18T08:02:44Z</time></trkpt><trkpt lat="47.7724448497485" lon="12.096799494603708"><ele>463.0</ele><time>2026-04-18T08:02:45Z</time></trkpt><trkpt lat="47.77230131379668" lon="12.09689065567914"><ele>462.0</ele><time>2026-04-18T08:02:46Z</time></trkpt><trkpt lat="47.7721488958924" lon="12.096987370976597"><ele>462.0</ele><time>2026-04-18T08:02:47Z</time></trkpt><trkpt lat="47.771994822558725" lon="12.09709431962436"><ele>462.0</ele><time>2026-04-18T08:02:48Z</time></trkpt><trkpt lat="47.77184545034938" lon="12.097194884359729"><ele>462.0</ele><time>2026-04-18T08:02:49Z</time></trkpt><trkpt lat="47.77170677589205" lon="12.097288347130515"><ele>462.25</ele><time>2026-04-18T08:02:50Z</time></trkpt><trkpt lat="47.771570379082554" lon="12.097379624614032"><ele>462.5</ele><time>2026-04-18T08:02:51Z</time></trkpt><trkpt lat="47.771436487597036" lon="12.097467954108916"><ele>462.75</ele><time>2026-04-18T08:02:52Z</time></trkpt><trkpt lat="47.77130976705435" lon="12.097545477337372"><ele>463.0</ele><time>2026-04-18T08:02:53Z</time></trkpt><trkpt lat="47.77118222212568" lon="12.097630455832933"><ele>463.0</ele><time>2026-04-18T08:02:54Z</time></trkpt><trkpt lat="47.77105068837683" lon="12.097714821906438"><ele>463.0</ele><time>2026-04-18T08:02:55Z</time></trkpt><trkpt lat="47.77092317745677" lon="12.09780009366566"><ele>463.0</ele><time>2026-04-18T08:02:56Z</time></trkpt><trkpt lat="47.77079981262366" lon="12.09788611273807"><ele>463.0</ele><time>2026-04-18T08:02:57Z</time></trkpt><trkpt lat="47.77067784881667" lon="12.097973618739884"><ele>463.0</ele><time>2026-04-18T08:02:58Z</time></trkpt><trkpt lat="47.77054743484539" lon="12.098053844778441"><ele>463.0</ele><time>2026-04-18T08:02:59Z</time></trkpt><trkpt lat="47.770422513835925" lon="12.098137456201421"><ele>463.0</ele><time>2026-04-18T08:03:00Z</time></trkpt><trkpt lat="47.77029890467369" lon="12.098205076271748"><ele>463.0</ele><time>2026-04-18T08:03:01Z</time></trkpt><trkpt lat="47.770171965767474" lon="12.098287621197388"><ele>463.75</ele><time>2026-04-18T08:03:02Z</time></trkpt><trkpt lat="47.77003776803939" lon="12.098370919399354"><ele>464.5</ele><time>2026-04-18T08:03:03Z</time></trkpt><trkpt lat="47.76991161273284" lon="12.09846643507436"><ele>465.25</ele><time>2026-04-18T08:03:04Z</time></trkpt><trkpt lat="47.769788525330085" lon="12.098553725271499"><ele>466.0</ele><time>2026-04-18T08:03:05Z</time></trkpt><trkpt lat="47.7696638493462" lon="12.098651136667394"><ele>466.0</ele><time>2026-04-18T08:03:06Z</time></trkpt><trkpt lat="47.769536459759976" lon="12.098745233121372"><ele>466.0</ele><time>2026-04-18T08:03:07Z</time></trkpt><trkpt lat="47.76940504990909" lon="12.098841690092959"><ele>466.0</ele><time>2026-04-18T08:03:08Z</time></trkpt><trkpt lat="47.76927404044224" lon="12.098935686394348"><ele>466.0</ele><time>2026-04-18T08:03:09Z</time></trkpt><trkpt lat="47.76915231572323" lon="12.099030487162757"><ele>467.5</ele><time>2026-04-18T08:03:10Z</time></trkpt><trkpt lat="47.76902321113375" lon="12.099128370856278"><ele>469.0</ele><time>2026-04-18T08:03:11Z</time></trkpt><trkpt lat="47.76889836862006" lon="12.099216600276991"><ele>470.5</ele><time>2026-04-18T08:03:12Z</time></trkpt><trkpt lat="47.76877998599831" lon="12.0993071057489"><ele>472.0</ele><time>2026-04-18T08:03:13Z</time></trkpt><trkpt lat="47.76864363422292" lon="12.09940208323238"><ele>472.5</ele><time>2026-04-18T08:03:14Z</time></trkpt><trkpt lat="47.76850289719336" lon="12.099510529778438"><ele>473.0</ele><time>2026-04-18T08:03:15Z</time></trkpt><trkpt lat="47.76837466903295" lon="12.099610202402431"><ele>473.5</ele><time>2026-04-18T08:03:16Z</time></trkpt><trkpt lat="47.76824804801482" lon="12.099708941292883"><ele>474.0</ele><time>2026-04-18T08:03:17Z</time></trkpt><trkpt lat="47.768119282579256" lon="12.099807010629565"><ele>474.0</ele><time>2026-04-18T08:03:18Z</time></trkpt><trkpt lat="47.76799113200437" lon="12.099907257292424"><ele>474.0</ele><time>2026-04-18T08:03:19Z</time></trkpt><trkpt lat="47.767863881442715" lon="12.10000749219791"><ele>474.0</ele><time>2026-04-18T08:03:20Z</time></trkpt><trkpt lat="47.76773576331274" lon="12.100109836132985"><ele>474.0</ele><time>2026-04-18T08:03:21Z</time></trkpt><trkpt lat="47.767608105473556" lon="12.1002132407989"><ele>473.75</ele><time>2026-04-18T08:03:22Z</time></trkpt><trkpt lat="47.76748000488966" lon="12.100313560301899"><ele>473.5</ele><time>2026-04-18T08:03:23Z</time></trkpt><trkpt lat="47.767350255204725" lon="12.100411304181137"><ele>473.25</ele><time>2026-04-18T08:03:24Z</time></trkpt><trkpt lat="47.76721917085335" lon="12.100504441969733"><ele>473.0</ele><time>2026-04-18T08:03:25Z</time></trkpt><trkpt lat="47.76707355038223" lon="12.100604019000851"><ele>473.0</ele><time>2026-04-18T08:03:26Z</time></trkpt><trkpt lat="47.766925750616686" lon="12.100709454889993"><ele>473.0</ele><time>2026-04-18T08:03:27Z</time></trkpt><trkpt lat="47.766791321958614" lon="12.100808934259597"><ele>473.0</ele><time>2026-04-18T08:03:28Z</time></trkpt><trkpt lat="47.76666267634147" lon="12.100907640639234"><ele>473.5</ele><time>2026-04-18T08:03:29Z</time></trkpt><trkpt lat="47.76653207781643" lon="12.101007718067324"><ele>474.0</ele><time>2026-04-18T08:03:30Z</time></trkpt><trkpt lat="47.7663992194822" lon="12.101114516620068"><ele>474.5</ele><time>2026-04-18T08:03:31Z</time></trkpt><trkpt lat="47.7662682166315" lon="12.101224466552157"><ele>475.0</ele><time>2026-04-18T08:03:32Z</time></trkpt><trkpt lat="47.76614325015971" lon="12.101331285582717"><ele>474.75</ele><time>2026-04-18T08:03:33Z</time></trkpt><trkpt lat="47.76601531275999" lon="12.101437475071721"><ele>474.5</ele><time>2026-04-18T08:03:34Z</time></trkpt><trkpt lat="47.76588417955412" lon="12.10154680646927"><ele>474.25</ele><time>2026-04-18T08:03:35Z</time></trkpt><trkpt lat="47.76576175991992" lon="12.10165189450554"><ele>474.0</ele><time>2026-04-18T08:03:36Z</time></trkpt><trkpt lat="47.765646104345294" lon="12.1017493392395"><ele>473.25</ele><time>2026-04-18T08:03:37Z</time></trkpt><trkpt lat="47.76552910880642" lon="12.101853270443964"><ele>472.5</ele><time>2026-04-18T08:03:38Z</time></trkpt><trkpt lat="47.765409470415435" lon="12.101960599613026"><ele>471.75</ele><time>2026-04-18T08:03:39Z</time></trkpt><trkpt lat="47.76529238644765" lon="12.102066191141326"><ele>471.0</ele><time>2026-04-18T08:03:40Z</time></trkpt><trkpt lat="47.76518051172911" lon="12.10216784872715"><ele>470.75</ele><time>2026-04-18T08:03:41Z</time></trkpt><trkpt lat="47.7650625478207" lon="12.102273841114249"><ele>470.5</ele><time>2026-04-18T08:03:42Z</time></trkpt><trkpt lat="47.764941483695324" lon="12.102377512202294"><ele>470.25</ele><time>2026-04-18T08:03:43Z</time></trkpt><trkpt lat="47.764829183391825" lon="12.102474129857853"><ele>470.0</ele><time>2026-04-18T08:03:44Z</time></trkpt><trkpt lat="47.76471743355299" lon="12.10257514436267"><ele>469.0</ele><time>2026-04-18T08:03:45Z</time></trkpt><trkpt lat="47.7645967290699" lon="12.102685966743907"><ele>468.0</ele><time>2026-04-18T08:03:46Z</time></trkpt><trkpt lat="47.76446910583884" lon="12.102800943885281"><ele>467.0</ele><time>2026-04-18T08:03:47Z</time></trkpt><trkpt lat="47.764325607568225" lon="12.102926692476307"><ele>466.0</ele><time>2026-04-18T08:03:48Z</time></trkpt><trkpt lat="47.764174215507445" lon="12.103067825911657"><ele>465.0</ele><time>2026-04-18T08:03:49Z</time></trkpt><trkpt lat="47.76402669353029" lon="12.103207968493896"><ele>464.0</ele><time>2026-04-18T08:03:50Z</time></trkpt><trkpt lat="47.76388002892757" lon="12.103344209113459"><ele>464.0</ele><time>2026-04-18T08:03:51Z</time></trkpt><trkpt lat="47.76373429432784" lon="12.103485585912892"><ele>464.0</ele><time>2026-04-18T08:03:52Z</time></trkpt><trkpt lat="47.76358798085951" lon="12.103622077975896"><ele>464.0</ele><time>2026-04-18T08:03:53Z</time></trkpt><trkpt lat="47.76344050524447" lon="12.103761857980837"><ele>463.66666666666663</ele><time>2026-04-18T08:03:54Z</time></trkpt><trkpt lat="47.76328785624237" lon="12.10390689717571"><ele>463.33333333333337</ele><time>2026-04-18T08:03:55Z</time></trkpt><trkpt lat="47.763131121485266" lon="12.104058354673601"><ele>463.0</ele><time>2026-04-18T08:03:56Z</time></trkpt><trkpt lat="47.76297996156345" lon="12.104199216780232"><ele>462.6666666666667</ele><time>2026-04-18T08:03:57Z</time></trkpt><trkpt lat="47.76282882107216" lon="12.104341776944903"><ele>462.33333333333337</ele><time>2026-04-18T08:03:58Z</time></trkpt><trkpt lat="47.76266921144436" lon="12.104498465678578"><ele>462.0</ele><time>2026-04-18T08:03:59Z</time></trkpt><trkpt lat="47.76250760472191" lon="12.104678138500054"><ele>464.0</ele><time>2026-04-18T08:04:00Z</time></trkpt><trkpt lat="47.76232771457415" lon="12.104866660755736"><ele>466.0</ele><time>2026-04-18T08:04:01Z</time></trkpt><trkpt lat="47.7621386734823" lon="12.105078993245106"><ele>466.0</ele><time>2026-04-18T08:04:02Z</time></trkpt><trkpt lat="47.76193638882492" lon="12.105301987607225"><ele>466.0</ele><time>2026-04-18T08:04:03Z</time></trkpt><trkpt lat="47.76172041423481" lon="12.105530363735257"><ele>465.0</ele><time>2026-04-18T08:04:04Z</time></trkpt><trkpt lat="47.76148932951803" lon="12.105767699823044"><ele>464.0</ele><time>2026-04-18T08:04:05Z</time></trkpt><trkpt lat="47.76125257987738" lon="12.106018932604197"><ele>467.0</ele><time>2026-04-18T08:04:06Z</time></trkpt><trkpt lat="47.76100684711291" lon="12.106280674646856"><ele>470.0</ele><time>2026-04-18T08:04:07Z</time></trkpt><trkpt lat="47.7607676075375" lon="12.106533419320911"><ele>466.5</ele><time>2026-04-18T08:04:08Z</time></trkpt><trkpt lat="47.76054736555269" lon="12.106767712225032"><ele>463.0</ele><time>2026-04-18T08:04:09Z</time></trkpt><trkpt lat="47.76032348371003" lon="12.107001518821386"><ele>461.5</ele><time>2026-04-18T08:04:10Z</time></trkpt><trkpt lat="47.76010492492515" lon="12.107233339469849"><ele>460.0</ele><time>2026-04-18T08:04:11Z</time></trkpt><trkpt lat="47.759888512649546" lon="12.10746618837196"><ele>460.0</ele><time>2026-04-18T08:04:12Z</time></trkpt><trkpt lat="47.75967320810067" lon="12.107697488665247"><ele>460.0</ele><time>2026-04-18T08:04:13Z</time></trkpt><trkpt lat="47.759457948873624" lon="12.10792539753728"><ele>460.5</ele><time>2026-04-18T08:04:14Z</time></trkpt><trkpt lat="47.75924461085489" lon="12.108149167730877"><ele>461.0</ele><time>2026-04-18T08:04:15Z</time></trkpt><trkpt lat="47.75903247256116" lon="12.108371966282185"><ele>459.5</ele><time>2026-04-18T08:04:16Z</time></trkpt><trkpt lat="47.758818477896206" lon="12.108603487368427"><ele>458.0</ele><time>2026-04-18T08:04:17Z</time></trkpt><trkpt lat="47.75860585208563" lon="12.108835502205636"><ele>458.5</ele><time>2026-04-18T08:04:18Z</time></trkpt><trkpt lat="47.75838984491186" lon="12.10906312555963"><ele>459.0</ele><time>2026-04-18T08:04:19Z</time></trkpt><trkpt lat="47.7581708519649" lon="12.10929577103849"><ele>459.0</ele><time>2026-04-18T08:04:20Z</time></trkpt><trkpt lat="47.75795039543491" lon="12.109537325137598"><ele>459.0</ele><time>2026-04-18T08:04:21Z</time></trkpt><trkpt lat="47.75772806551584" lon="12.10978406351794"><ele>457.5</ele><time>2026-04-18T08:04:22Z</time></trkpt><trkpt lat="47.757505809915266" lon="12.110024757401268"><ele>456.0</ele><time>2026-04-18T08:04:23Z</time></trkpt><trkpt lat="47.75728594117555" lon="12.110261205561512"><ele>456.0</ele><time>2026-04-18T08:04:24Z</time></trkpt><trkpt lat="47.7570679160995" lon="12.110497414327929"><ele>456.0</ele><time>2026-04-18T08:04:25Z</time></trkpt><trkpt lat="47.75684950916358" lon="12.110734320120764"><ele>458.0</ele><time>2026-04-18T08:04:26Z</time></trkpt><trkpt lat="47.75662270167668" lon="12.11096924787287"><ele>460.0</ele><time>2026-04-18T08:04:27Z</time></trkpt><trkpt lat="47.75638989918597" lon="12.11119469803812"><ele>460.0</ele><time>2026-04-18T08:04:28Z</time></trkpt><trkpt lat="47.75615778616287" lon="12.111422895907827"><ele>460.0</ele><time>2026-04-18T08:04:29Z</time></trkpt><trkpt lat="47.75593187652293" lon="12.111659061850403"><ele>460.5</ele><time>2026-04-18T08:04:30Z</time></trkpt><trkpt lat="47.755714972260456" lon="12.111893859593803"><ele>461.0</ele><time>2026-04-18T08:04:31Z</time></trkpt><trkpt lat="47.75549379949919" lon="12.112112582911564"><ele>461.0</ele><time>2026-04-18T08:04:32Z</time></trkpt><trkpt lat="47.755271866129426" lon="12.112332839589056"><ele>461.0</ele><time>2026-04-18T08:04:33Z</time></trkpt><trkpt lat="47.75505976481558" lon="12.112539549911464"><ele>462.0</ele><time>2026-04-18T08:04:34Z</time></trkpt><trkpt lat="47.75485378210356" lon="12.112762710764862"><ele>463.0</ele><time>2026-04-18T08:04:35Z</time></trkpt><trkpt lat="47.75464304898784" lon="12.11297889855342"><ele>463.0</ele><time>2026-04-18T08:04:36Z</time></trkpt><trkpt lat="47.75443681445199" lon="12.113193587235365"><ele>463.0</ele><time>2026-04-18T08:04:37Z</time></trkpt><trkpt lat="47.754228847527" lon="12.11340972846753"><ele>462.0</ele><time>2026-04-18T08:04:38Z</time></trkpt><trkpt lat="47.75402189303699" lon="12.113633671865404"><ele>461.0</ele><time>2026-04-18T08:04:39Z</time></trkpt><trkpt lat="47.7538110554025" lon="12.113852634593815"><ele>461.5</ele><time>2026-04-18T08:04:40Z</time></trkpt><trkpt lat="47.75359556098612" lon="12.114080991175436"><ele>462.0</ele><time>2026-04-18T08:04:41Z</time></trkpt><trkpt lat="47.75337976900711" lon="12.114300546164118"><ele>462.0</ele><time>2026-04-18T08:04:42Z</time></trkpt><trkpt lat="47.75316290785239" lon="12.114524734040364"><ele>462.0</ele><time>2026-04-18T08:04:43Z</time></trkpt><trkpt lat="47.7529388609723" lon="12.114749370394359"><ele>461.5</ele><time>2026-04-18T08:04:44Z</time></trkpt><trkpt lat="47.75271760312398" lon="12.1149708074173"><ele>461.0</ele><time>2026-04-18T08:04:45Z</time></trkpt><trkpt lat="47.7524944465391" lon="12.115191785885422"><ele>459.5</ele><time>2026-04-18T08:04:46Z</time></trkpt><trkpt lat="47.7522767979331" lon="12.115419843011386"><ele>458.0</ele><time>2026-04-18T08:04:47Z</time></trkpt><trkpt lat="47.75206137419826" lon="12.115648285704507"><ele>458.5</ele><time>2026-04-18T08:04:48Z</time></trkpt><trkpt lat="47.75184337020585" lon="12.11585645056398"><ele>459.0</ele><time>2026-04-18T08:04:49Z</time></trkpt><trkpt lat="47.75162542840587" lon="12.11605521995316"><ele>459.0</ele><time>2026-04-18T08:04:50Z</time></trkpt><trkpt lat="47.75141858379744" lon="12.116256173577142"><ele>459.0</ele><time>2026-04-18T08:04:51Z</time></trkpt><trkpt lat="47.75121810412809" lon="12.116454030314918"><ele>458.0</ele><time>2026-04-18T08:04:52Z</time></trkpt><trkpt lat="47.7510219509086" lon="12.116646256433198"><ele>457.0</ele><time>2026-04-18T08:04:53Z</time></trkpt><trkpt lat="47.750823831627" lon="12.11683302734332"><ele>457.0</ele><time>2026-04-18T08:04:54Z</time></trkpt><trkpt lat="47.75062834067822" lon="12.117022312821893"><ele>457.0</ele><time>2026-04-18T08:04:55Z</time></trkpt><trkpt lat="47.75042720166938" lon="12.117220944775212"><ele>458.0</ele><time>2026-04-18T08:04:56Z</time></trkpt><trkpt lat="47.75021889058308" lon="12.117425170469614"><ele>459.0</ele><time>2026-04-18T08:04:57Z</time></trkpt><trkpt lat="47.75000347252565" lon="12.117631728900204"><ele>459.5</ele><time>2026-04-18T08:04:58Z</time></trkpt><trkpt lat="47.74979207580335" lon="12.11783371149333"><ele>460.0</ele><time>2026-04-18T08:04:59Z</time></trkpt><trkpt lat="47.74957851736903" lon="12.118026076391594"><ele>458.5</ele><time>2026-04-18T08:05:00Z</time></trkpt><trkpt lat="47.74936408239023" lon="12.118219628541388"><ele>457.0</ele><time>2026-04-18T08:05:01Z</time></trkpt><trkpt lat="47.749144010016146" lon="12.118420938259653"><ele>456.5</ele><time>2026-04-18T08:05:02Z</time></trkpt><trkpt lat="47.748926494279615" lon="12.118620160172416"><ele>456.0</ele><time>2026-04-18T08:05:03Z</time></trkpt><trkpt lat="47.74871186577758" lon="12.118814858029301"><ele>456.5</ele><time>2026-04-18T08:05:04Z</time></trkpt><trkpt lat="47.74850442618451" lon="12.119003011312609"><ele>457.0</ele><time>2026-04-18T08:05:05Z</time></trkpt><trkpt lat="47.74830122667702" lon="12.119191586348888"><ele>457.0</ele><time>2026-04-18T08:05:06Z</time></trkpt><trkpt lat="47.748090090528464" lon="12.119383826976694"><ele>457.0</ele><time>2026-04-18T08:05:07Z</time></trkpt><trkpt lat="47.74791242295016" lon="12.11955559898031"><ele>457.0</ele><time>2026-04-18T08:05:08Z</time></trkpt><trkpt lat="47.747712339091656" lon="12.119736155528734"><ele>457.0</ele><time>2026-04-18T08:05:09Z</time></trkpt><trkpt lat="47.747506894929835" lon="12.119925631998687"><ele>456.5</ele><time>2026-04-18T08:05:10Z</time></trkpt><trkpt lat="47.74730067857814" lon="12.120120007724294"><ele>456.0</ele><time>2026-04-18T08:05:11Z</time></trkpt><trkpt lat="47.74709897227345" lon="12.120303464533592"><ele>456.0</ele><time>2026-04-18T08:05:12Z</time></trkpt><trkpt lat="47.74689580039001" lon="12.120482750064618"><ele>456.0</ele><time>2026-04-18T08:05:13Z</time></trkpt><trkpt lat="47.746693424008676" lon="12.120668868438338"><ele>456.0</ele><time>2026-04-18T08:05:14Z</time></trkpt><trkpt lat="47.74649175765335" lon="12.120851145990645"><ele>456.0</ele><time>2026-04-18T08:05:15Z</time></trkpt><trkpt lat="47.746290658462456" lon="12.12102964307965"><ele>456.0</ele><time>2026-04-18T08:05:16Z</time></trkpt><trkpt lat="47.74608468527775" lon="12.121212263636009"><ele>456.0</ele><time>2026-04-18T08:05:17Z</time></trkpt><trkpt lat="47.74587640058644" lon="12.121400348461032"><ele>457.0</ele><time>2026-04-18T08:05:18Z</time></trkpt><trkpt lat="47.745664088306846" lon="12.121588322824385"><ele>458.0</ele><time>2026-04-18T08:05:19Z</time></trkpt><trkpt lat="47.74544746316573" lon="12.121776919051733"><ele>458.0</ele><time>2026-04-18T08:05:20Z</time></trkpt><trkpt lat="47.74522966864293" lon="12.12196304405442"><ele>458.0</ele><time>2026-04-18T08:05:21Z</time></trkpt><trkpt lat="47.745010304139846" lon="12.122155849954627"><ele>457.0</ele><time>2026-04-18T08:05:22Z</time></trkpt><trkpt lat="47.74477033009225" lon="12.122372830210963"><ele>456.0</ele><time>2026-04-18T08:05:23Z</time></trkpt><trkpt lat="47.74453430017598" lon="12.122578625195288"><ele>457.0</ele><time>2026-04-18T08:05:24Z</time></trkpt><trkpt lat="47.74431640638546" lon="12.122770790501054"><ele>458.0</ele><time>2026-04-18T08:05:25Z</time></trkpt><trkpt lat="47.74410271577016" lon="12.122951940662194"><ele>458.0</ele><time>2026-04-18T08:05:26Z</time></trkpt><trkpt lat="47.743903911344226" lon="12.123120304027244"><ele>458.0</ele><time>2026-04-18T08:05:27Z</time></trkpt><trkpt lat="47.74370641365713" lon="12.123287782058"><ele>457.3333333333333</ele><time>2026-04-18T08:05:28Z</time></trkpt><trkpt lat="47.74351215869084" lon="12.123454212879722"><ele>456.66666666666663</ele><time>2026-04-18T08:05:29Z</time></trkpt><trkpt lat="47.74331721689348" lon="12.123612649747683"><ele>456.0</ele><time>2026-04-18T08:05:30Z</time></trkpt><trkpt lat="47.743127799553896" lon="12.12377241178358"><ele>456.0</ele><time>2026-04-18T08:05:31Z</time></trkpt><trkpt lat="47.742943711224825" lon="12.12392358722212"><ele>456.0</ele><time>2026-04-18T08:05:32Z</time></trkpt><trkpt lat="47.742752877563305" lon="12.124076475292044"><ele>456.0</ele><time>2026-04-18T08:05:33Z</time></trkpt><trkpt lat="47.74256531222596" lon="12.12421809450006"><ele>457.0</ele><time>2026-04-18T08:05:34Z</time></trkpt><trkpt lat="47.74237172854657" lon="12.124372782551799"><ele>458.0</ele><time>2026-04-18T08:05:35Z</time></trkpt><trkpt lat="47.74216656219734" lon="12.124545430494953"><ele>458.0</ele><time>2026-04-18T08:05:36Z</time></trkpt><trkpt lat="47.74195048271236" lon="12.124721809945141"><ele>458.0</ele><time>2026-04-18T08:05:37Z</time></trkpt><trkpt lat="47.741724263907166" lon="12.124911064678967"><ele>457.5</ele><time>2026-04-18T08:05:38Z</time></trkpt><trkpt lat="47.74149551107" lon="12.125094801846618"><ele>457.0</ele><time>2026-04-18T08:05:39Z</time></trkpt><trkpt lat="47.741272691756514" lon="12.125262823116945"><ele>457.0</ele><time>2026-04-18T08:05:40Z</time></trkpt><trkpt lat="47.74106833805971" lon="12.125426197294223"><ele>457.0</ele><time>2026-04-18T08:05:41Z</time></trkpt><trkpt lat="47.74086417420014" lon="12.125590888126418"><ele>456.5</ele><time>2026-04-18T08:05:42Z</time></trkpt><trkpt lat="47.740662446993" lon="12.125755779483194"><ele>456.0</ele><time>2026-04-18T08:05:43Z</time></trkpt><trkpt lat="47.7404658417441" lon="12.125914705080215"><ele>456.0</ele><time>2026-04-18T08:05:44Z</time></trkpt><trkpt lat="47.74026898264954" lon="12.126068095874176"><ele>456.0</ele><time>2026-04-18T08:05:45Z</time></trkpt><trkpt lat="47.74006958971694" lon="12.1262339032002"><ele>456.33333333333337</ele><time>2026-04-18T08:05:46Z</time></trkpt><trkpt lat="47.73988053238073" lon="12.126381464208075"><ele>456.6666666666667</ele><time>2026-04-18T08:05:47Z</time></trkpt><trkpt lat="47.73969303843327" lon="12.12653238739341"><ele>457.0</ele><time>2026-04-18T08:05:48Z</time></trkpt><trkpt lat="47.73951235106538" lon="12.126678504908922"><ele>457.6666666666667</ele><time>2026-04-18T08:05:49Z</time></trkpt><trkpt lat="47.73934278625172" lon="12.1268124284858"><ele>458.33333333333337</ele><time>2026-04-18T08:05:50Z</time></trkpt><trkpt lat="47.739180803587324" lon="12.126921411900343"><ele>459.0</ele><time>2026-04-18T08:05:51Z</time></trkpt><trkpt lat="47.739018333860294" lon="12.127029137203696"><ele>459.0</ele><time>2026-04-18T08:05:52Z</time></trkpt><trkpt lat="47.73886688666032" lon="12.127135840078413"><ele>459.0</ele><time>2026-04-18T08:05:53Z</time></trkpt><trkpt lat="47.73870696943657" lon="12.127259518622925"><ele>459.0</ele><time>2026-04-18T08:05:54Z</time></trkpt><trkpt lat="47.73855193745955" lon="12.127379915285742"><ele>460.0</ele><time>2026-04-18T08:05:55Z</time></trkpt><trkpt lat="47.7383999963189" lon="12.127496877245951"><ele>461.0</ele><time>2026-04-18T08:05:56Z</time></trkpt><trkpt lat="47.73826456803422" lon="12.127601440108657"><ele>462.0</ele><time>2026-04-18T08:05:57Z</time></trkpt><trkpt lat="47.73812642137941" lon="12.127709133304412"><ele>462.0</ele><time>2026-04-18T08:05:58Z</time></trkpt><trkpt lat="47.73798894268213" lon="12.12781593524661"><ele>462.0</ele><time>2026-04-18T08:05:59Z</time></trkpt><trkpt lat="47.73786403427431" lon="12.127915190131018"><ele>462.0</ele><time>2026-04-18T08:06:00Z</time></trkpt><trkpt lat="47.73774848646814" lon="12.128004815278336"><ele>462.0</ele><time>2026-04-18T08:06:01Z</time></trkpt><trkpt lat="47.737641157963715" lon="12.128090330380164"><ele>462.0</ele><time>2026-04-18T08:06:02Z</time></trkpt><trkpt lat="47.73753723595298" lon="12.128166550855136"><ele>462.00000000000006</ele><time>2026-04-18T08:06:03Z</time></trkpt><trkpt lat="47.73743476574512" lon="12.128236261575767"><ele>462.00000000000006</ele><time>2026-04-18T08:06:04Z</time></trkpt><trkpt lat="47.737338596174325" lon="12.128284841759674"><ele>462.0</ele><time>2026-04-18T08:06:05Z</time></trkpt><trkpt lat="47.73724045292824" lon="12.128277552261508"><ele>462.0</ele><time>2026-04-18T08:06:06Z</time></trkpt><trkpt lat="47.73713462434944" lon="12.128245346426608"><ele>462.25</ele><time>2026-04-18T08:06:07Z</time></trkpt><trkpt lat="47.73703276794687" lon="12.12818129551611"><ele>462.5</ele><time>2026-04-18T08:06:08Z</time></trkpt><trkpt lat="47.736957476709414" lon="12.128045650199493"><ele>462.75</ele><time>2026-04-18T08:06:09Z</time></trkpt><trkpt lat="47.736871571192005" lon="12.127938424892049"><ele>463.0</ele><time>2026-04-18T08:06:10Z</time></trkpt><trkpt lat="47.73682433911747" lon="12.127775201853295"><ele>463.0</ele><time>2026-04-18T08:06:11Z</time></trkpt><trkpt lat="47.73679867276992" lon="12.127590931080439"><ele>463.0</ele><time>2026-04-18T08:06:12Z</time></trkpt><trkpt lat="47.73680391732471" lon="12.127398462313959"><ele>463.0</ele><time>2026-04-18T08:06:13Z</time></trkpt><trkpt lat="47.736841628506724" lon="12.127204008734049"><ele>463.0</ele><time>2026-04-18T08:06:14Z</time></trkpt><trkpt lat="47.73692303874035" lon="12.127023856072835"><ele>463.0</ele><time>2026-04-18T08:06:15Z</time></trkpt><trkpt lat="47.73697909283896" lon="12.1268265919186"><ele>463.0</ele><time>2026-04-18T08:06:16Z</time></trkpt><trkpt lat="47.73703614308901" lon="12.126663493314771"><ele>463.0</ele><time>2026-04-18T08:06:17Z</time></trkpt><trkpt lat="47.7370876751738" lon="12.126523648962444"><ele>463.0</ele><time>2026-04-18T08:06:18Z</time></trkpt><trkpt lat="47.737134159535415" lon="12.126398356737075"><ele>462.83333333333337</ele><time>2026-04-18T08:06:19Z</time></trkpt><trkpt lat="47.737170433206636" lon="12.126292918918613"><ele>462.6666666666667</ele><time>2026-04-18T08:06:20Z</time></trkpt><trkpt lat="47.73721064233679" lon="12.12620656388257"><ele>462.5</ele><time>2026-04-18T08:06:21Z</time></trkpt><trkpt lat="47.73725950212506" lon="12.126140800688026"><ele>462.33333333333337</ele><time>2026-04-18T08:06:22Z</time></trkpt><trkpt lat="47.73736709854877" lon="12.126079579094185"><ele>462.1666666666667</ele><time>2026-04-18T08:06:24Z</time></trkpt><trkpt lat="47.73744398568682" lon="12.126068269909467"><ele>462.0</ele><time>2026-04-18T08:06:26Z</time></trkpt><trkpt lat="47.73752429269198" lon="12.126045696173195"><ele>462.0</ele><time>2026-04-18T08:06:32Z</time></trkpt><trkpt lat="47.737594226695535" lon="12.125875675437367"><ele>462.00000000000006</ele><time>2026-04-18T08:06:34Z</time></trkpt><trkpt lat="47.73760735582157" lon="12.125753321237799"><ele>462.00000000000006</ele><time>2026-04-18T08:06:35Z</time></trkpt><trkpt lat="47.73761765618365" lon="12.125644520589058"><ele>462.0</ele><time>2026-04-18T08:06:36Z</time></trkpt><trkpt lat="47.73762300716755" lon="12.125501153945313"><ele>462.0</ele><time>2026-04-18T08:06:37Z</time></trkpt><trkpt lat="47.73762676838896" lon="12.125344519046632"><ele>461.8333333333333</ele><time>2026-04-18T08:06:38Z</time></trkpt><trkpt lat="47.73763299017216" lon="12.125207004695898"><ele>461.66666666666663</ele><time>2026-04-18T08:06:39Z</time></trkpt><trkpt lat="47.73763476719435" lon="12.125085099663599"><ele>461.5</ele><time>2026-04-18T08:06:40Z</time></trkpt><trkpt lat="47.73763395348892" lon="12.124973619063937"><ele>461.3333333333333</ele><time>2026-04-18T08:06:41Z</time></trkpt><trkpt lat="47.73762695105727" lon="12.124864974626943"><ele>461.16666666666663</ele><time>2026-04-18T08:06:42Z</time></trkpt><trkpt lat="47.73761795085169" lon="12.124756714256668"><ele>461.0</ele><time>2026-04-18T08:06:43Z</time></trkpt><trkpt lat="47.73760922286471" lon="12.124647626301822"><ele>460.8333333333333</ele><time>2026-04-18T08:06:44Z</time></trkpt><trkpt lat="47.73759832372724" lon="12.124534497422387"><ele>460.66666666666663</ele><time>2026-04-18T08:06:45Z</time></trkpt><trkpt lat="47.73758467546667" lon="12.124403259996532"><ele>460.5</ele><time>2026-04-18T08:06:46Z</time></trkpt><trkpt lat="47.737569718860996" lon="12.124263518541486"><ele>460.33333333333337</ele><time>2026-04-18T08:06:47Z</time></trkpt><trkpt lat="47.73755142909623" lon="12.124121133326144"><ele>460.1666666666667</ele><time>2026-04-18T08:06:48Z</time></trkpt><trkpt lat="47.73753341672409" lon="12.123989514272624"><ele>460.0</ele><time>2026-04-18T08:06:49Z</time></trkpt><trkpt lat="47.73751064305907" lon="12.123861291975732"><ele>460.00000000000006</ele><time>2026-04-18T08:06:50Z</time></trkpt><trkpt lat="47.73748354403468" lon="12.123752375945951"><ele>460.0</ele><time>2026-04-18T08:06:51Z</time></trkpt><trkpt lat="47.737453559404834" lon="12.12363510855409"><ele>460.0</ele><time>2026-04-18T08:06:52Z</time></trkpt><trkpt lat="47.737424817569305" lon="12.123518552033849"><ele>460.0</ele><time>2026-04-18T08:06:53Z</time></trkpt><trkpt lat="47.73739035711877" lon="12.123392469108557"><ele>460.00000000000006</ele><time>2026-04-18T08:06:54Z</time></trkpt><trkpt lat="47.73734919293144" lon="12.123246353642353"><ele>460.0</ele><time>2026-04-18T08:06:55Z</time></trkpt><trkpt lat="47.73730009598968" lon="12.123088965186387"><ele>459.75</ele><time>2026-04-18T08:06:56Z</time></trkpt><trkpt lat="47.737242627719674" lon="12.122919542779671"><ele>459.5</ele><time>2026-04-18T08:06:57Z</time></trkpt><trkpt lat="47.737182342115894" lon="12.122742241119404"><ele>459.25</ele><time>2026-04-18T08:06:58Z</time></trkpt><trkpt lat="47.737119641756614" lon="12.122568585518614"><ele>459.0</ele><time>2026-04-18T08:06:59Z</time></trkpt><trkpt lat="47.73705447341568" lon="12.122395701028035"><ele>459.0</ele><time>2026-04-18T08:07:00Z</time></trkpt><trkpt lat="47.7369857916966" lon="12.122222654046196"><ele>459.0</ele><time>2026-04-18T08:07:01Z</time></trkpt><trkpt lat="47.73691953175227" lon="12.12206340265631"><ele>459.0</ele><time>2026-04-18T08:07:02Z</time></trkpt><trkpt lat="47.73686057733712" lon="12.121920482874092"><ele>459.0</ele><time>2026-04-18T08:07:03Z</time></trkpt><trkpt lat="47.736805834595074" lon="12.121790434344899"><ele>459.0</ele><time>2026-04-18T08:07:04Z</time></trkpt><trkpt lat="47.7367548255016" lon="12.121673740945292"><ele>459.0</ele><time>2026-04-18T08:07:05Z</time></trkpt><trkpt lat="47.73670672843101" lon="12.121564310914072"><ele>459.0</ele><time>2026-04-18T08:07:06Z</time></trkpt><trkpt lat="47.73665957976099" lon="12.121457834782762"><ele>459.0</ele><time>2026-04-18T08:07:07Z</time></trkpt><trkpt lat="47.7366165221363" lon="12.121357400110584"><ele>459.0</ele><time>2026-04-18T08:07:08Z</time></trkpt><trkpt lat="47.73657337634781" lon="12.121261823912526"><ele>459.0</ele><time>2026-04-18T08:07:09Z</time></trkpt><trkpt lat="47.736533959649805" lon="12.121177270055634"><ele>459.5</ele><time>2026-04-18T08:07:10Z</time></trkpt><trkpt lat="47.73647972695548" lon="12.121044073750205"><ele>460.0</ele><time>2026-04-18T08:07:12Z</time></trkpt><trkpt lat="47.73644923121949" lon="12.12095480683967"><ele>460.5</ele><time>2026-04-18T08:07:14Z</time></trkpt><trkpt lat="47.7364243225699" lon="12.12086211122271"><ele>461.0</ele><time>2026-04-18T08:07:17Z</time></trkpt><trkpt lat="47.73639648042282" lon="12.120767774723989"><ele>461.5</ele><time>2026-04-18T08:07:22Z</time></trkpt><trkpt lat="47.73636134801594" lon="12.120669874582795"><ele>462.0</ele><time>2026-04-18T08:09:39Z</time></trkpt><trkpt lat="47.73629104449887" lon="12.120533677962802"><ele>462.3333333333333</ele><time>2026-04-18T08:09:58Z</time></trkpt><trkpt lat="47.73624099393502" lon="12.120455910608788"><ele>462.66666666666663</ele><time>2026-04-18T08:09:59Z</time></trkpt><trkpt lat="47.736193633972405" lon="12.12035643674204"><ele>463.0</ele><time>2026-04-18T08:10:00Z</time></trkpt><trkpt lat="47.73616658613658" lon="12.120268856922879"><ele>463.3333333333333</ele><time>2026-04-18T08:10:00.999Z</time></trkpt><trkpt lat="47.736138916714836" lon="12.120182511312192"><ele>463.66666666666663</ele><time>2026-04-18T08:10:01.999Z</time></trkpt><trkpt lat="47.73610132990102" lon="12.120073546266122"><ele>464.0</ele><time>2026-04-18T08:10:03Z</time></trkpt><trkpt lat="47.7360537378996" lon="12.119946299495638"><ele>464.5</ele><time>2026-04-18T08:10:04Z</time></trkpt><trkpt lat="47.73600421511543" lon="12.11980535415031"><ele>465.0</ele><time>2026-04-18T08:10:05Z</time></trkpt><trkpt lat="47.73595095669382" lon="12.119650948841985"><ele>465.5</ele><time>2026-04-18T08:10:06Z</time></trkpt><trkpt lat="47.73589540814914" lon="12.11948707440328"><ele>466.0</ele><time>2026-04-18T08:10:07Z</time></trkpt><trkpt lat="47.735845530486465" lon="12.119315948620441"><ele>466.0</ele><time>2026-04-18T08:10:08Z</time></trkpt><trkpt lat="47.73579288024438" lon="12.1191218304265"><ele>466.0</ele><time>2026-04-18T08:10:09Z</time></trkpt><trkpt lat="47.735737394730066" lon="12.118919472463004"><ele>466.0</ele><time>2026-04-18T08:10:10Z</time></trkpt><trkpt lat="47.73567965722466" lon="12.118715841556313"><ele>466.0</ele><time>2026-04-18T08:10:11Z</time></trkpt><trkpt lat="47.73563028630807" lon="12.118530595477012"><ele>466.5</ele><time>2026-04-18T08:10:12Z</time></trkpt><trkpt lat="47.73558848676081" lon="12.118356292379087"><ele>467.0</ele><time>2026-04-18T08:10:13Z</time></trkpt><trkpt lat="47.73555354342737" lon="12.118186100639274"><ele>467.5</ele><time>2026-04-18T08:10:14Z</time></trkpt><trkpt lat="47.73551574332188" lon="12.118001381567606"><ele>468.0</ele><time>2026-04-18T08:10:15Z</time></trkpt><trkpt lat="47.735477250371986" lon="12.117808797291165"><ele>468.0</ele><time>2026-04-18T08:10:16Z</time></trkpt><trkpt lat="47.73543660752152" lon="12.117592321393655"><ele>468.0</ele><time>2026-04-18T08:10:17Z</time></trkpt><trkpt lat="47.735399395886745" lon="12.117367860446441"><ele>468.0</ele><time>2026-04-18T08:10:18Z</time></trkpt><trkpt lat="47.73536426162884" lon="12.11713646357697"><ele>468.0</ele><time>2026-04-18T08:10:19Z</time></trkpt><trkpt lat="47.73532816220005" lon="12.116905562336706"><ele>468.0</ele><time>2026-04-18T08:10:20Z</time></trkpt><trkpt lat="47.73529699017723" lon="12.11669490820771"><ele>468.0</ele><time>2026-04-18T08:10:21Z</time></trkpt><trkpt lat="47.73527658037406" lon="12.116504796720067"><ele>468.0</ele><time>2026-04-18T08:10:22Z</time></trkpt><trkpt lat="47.735254871019876" lon="12.116307820486522"><ele>468.0</ele><time>2026-04-18T08:10:23Z</time></trkpt><trkpt lat="47.73523659145283" lon="12.116114332729042"><ele>468.0</ele><time>2026-04-18T08:10:24Z</time></trkpt><trkpt lat="47.735222464045286" lon="12.11591762731512"><ele>468.0</ele><time>2026-04-18T08:10:25Z</time></trkpt><trkpt lat="47.73520999248882" lon="12.115714067761889"><ele>468.0</ele><time>2026-04-18T08:10:26Z</time></trkpt><trkpt lat="47.7351982276692" lon="12.115501875406595"><ele>469.5</ele><time>2026-04-18T08:10:27Z</time></trkpt><trkpt lat="47.73519217092892" lon="12.115289848296705"><ele>471.0</ele><time>2026-04-18T08:10:28Z</time></trkpt><trkpt lat="47.73518662454279" lon="12.115077898877722"><ele>472.5</ele><time>2026-04-18T08:10:29Z</time></trkpt><trkpt lat="47.73518434623182" lon="12.114876282425621"><ele>474.0</ele><time>2026-04-18T08:10:30Z</time></trkpt><trkpt lat="47.73517925487101" lon="12.114690273954464"><ele>474.25</ele><time>2026-04-18T08:10:31Z</time></trkpt><trkpt lat="47.73517879616382" lon="12.114501585404824"><ele>474.5</ele><time>2026-04-18T08:10:32Z</time></trkpt><trkpt lat="47.73518537004182" lon="12.11431041196446"><ele>474.75</ele><time>2026-04-18T08:10:33Z</time></trkpt><trkpt lat="47.73519595344248" lon="12.114104123555553"><ele>475.0</ele><time>2026-04-18T08:10:34Z</time></trkpt><trkpt lat="47.735204536311116" lon="12.113899969858851"><ele>475.0</ele><time>2026-04-18T08:10:35Z</time></trkpt><trkpt lat="47.73521526562144" lon="12.113696413170183"><ele>475.0</ele><time>2026-04-18T08:10:36Z</time></trkpt><trkpt lat="47.735227266803605" lon="12.113492600209758"><ele>475.0</ele><time>2026-04-18T08:10:37Z</time></trkpt><trkpt lat="47.735239921251996" lon="12.113297509346955"><ele>475.0</ele><time>2026-04-18T08:10:38Z</time></trkpt><trkpt lat="47.73525762654671" lon="12.113117594644947"><ele>474.75</ele><time>2026-04-18T08:10:39Z</time></trkpt><trkpt lat="47.73527388964455" lon="12.112942344476195"><ele>474.5</ele><time>2026-04-18T08:10:40Z</time></trkpt><trkpt lat="47.73529495200964" lon="12.112770606770438"><ele>474.25</ele><time>2026-04-18T08:10:41Z</time></trkpt><trkpt lat="47.73532050245575" lon="12.11260481043302"><ele>474.0</ele><time>2026-04-18T08:10:42Z</time></trkpt><trkpt lat="47.735342649462964" lon="12.112441543389826"><ele>474.4</ele><time>2026-04-18T08:10:43Z</time></trkpt><trkpt lat="47.73536114864868" lon="12.112266147297598"><ele>474.79999999999995</ele><time>2026-04-18T08:10:44Z</time></trkpt><trkpt lat="47.73538045411131" lon="12.112111044888929"><ele>475.20000000000005</ele><time>2026-04-18T08:10:45Z</time></trkpt><trkpt lat="47.73539713876318" lon="12.111994972381863"><ele>475.6</ele><time>2026-04-18T08:10:46Z</time></trkpt><trkpt lat="47.73540905665262" lon="12.111879156781102"><ele>476.0</ele><time>2026-04-18T08:10:48Z</time></trkpt><trkpt lat="47.73541143882376" lon="12.111754065175003"><ele>476.6</ele><time>2026-04-18T08:11:18Z</time></trkpt><trkpt lat="47.73542049229228" lon="12.111570928710158"><ele>477.20000000000005</ele><time>2026-04-18T08:11:20Z</time></trkpt><trkpt lat="47.73542966821924" lon="12.111469402445827"><ele>477.79999999999995</ele><time>2026-04-18T08:11:21Z</time></trkpt><trkpt lat="47.73543059307891" lon="12.111336415697899"><ele>478.4</ele><time>2026-04-18T08:11:22Z</time></trkpt><trkpt lat="47.735426009675365" lon="12.111192940838867"><ele>479.0</ele><time>2026-04-18T08:11:23Z</time></trkpt><trkpt lat="47.73541553667709" lon="12.111029356872724"><ele>479.0</ele><time>2026-04-18T08:11:24Z</time></trkpt><trkpt lat="47.7354111721517" lon="12.110856941773276"><ele>479.0</ele><time>2026-04-18T08:11:25Z</time></trkpt><trkpt lat="47.735407647379155" lon="12.110681170389633"><ele>479.0</ele><time>2026-04-18T08:11:26Z</time></trkpt><trkpt lat="47.73540259174132" lon="12.110516719883877"><ele>479.0</ele><time>2026-04-18T08:11:27Z</time></trkpt><trkpt lat="47.73539693081648" lon="12.110363433819762"><ele>479.0</ele><time>2026-04-18T08:11:28Z</time></trkpt><trkpt lat="47.735381379731415" lon="12.110210495961221"><ele>479.0</ele><time>2026-04-18T08:11:29Z</time></trkpt><trkpt lat="47.73536720155911" lon="12.110048839614505"><ele>479.0</ele><time>2026-04-18T08:11:30Z</time></trkpt><trkpt lat="47.73534967439451" lon="12.109891571955515"><ele>479.0</ele><time>2026-04-18T08:11:31Z</time></trkpt><trkpt lat="47.73532484835282" lon="12.109723381780777"><ele>479.0</ele><time>2026-04-18T08:11:32Z</time></trkpt><trkpt lat="47.735298598229775" lon="12.109551163331522"><ele>479.0</ele><time>2026-04-18T08:11:33Z</time></trkpt><trkpt lat="47.73527445352952" lon="12.109373452002947"><ele>479.0</ele><time>2026-04-18T08:11:34Z</time></trkpt><trkpt lat="47.735244368842096" lon="12.109213994800198"><ele>479.0</ele><time>2026-04-18T08:11:35Z</time></trkpt><trkpt lat="47.73521399012561" lon="12.10906635211388"><ele>479.0</ele><time>2026-04-18T08:11:36Z</time></trkpt><trkpt lat="47.73517442592536" lon="12.10893167724949"><ele>479.0</ele><time>2026-04-18T08:11:37Z</time></trkpt><trkpt lat="47.73513638686598" lon="12.108800170490822"><ele>478.99999999999994</ele><time>2026-04-18T08:11:38Z</time></trkpt><trkpt lat="47.73510387143737" lon="12.108685005730466"><ele>479.0</ele><time>2026-04-18T08:11:39Z</time></trkpt><trkpt lat="47.735070954048986" lon="12.10857523214208"><ele>479.0</ele><time>2026-04-18T08:11:40Z</time></trkpt><trkpt lat="47.73503719523049" lon="12.108463118287137"><ele>479.0</ele><time>2026-04-18T08:11:41Z</time></trkpt><trkpt lat="47.73500593755843" lon="12.108360734143533"><ele>478.99999999999994</ele><time>2026-04-18T08:11:42Z</time></trkpt><trkpt lat="47.734977424425075" lon="12.108270054750992"><ele>479.0</ele><time>2026-04-18T08:11:43Z</time></trkpt><trkpt lat="47.734949084554714" lon="12.108176826983918"><ele>479.2</ele><time>2026-04-18T08:11:44Z</time></trkpt><trkpt lat="47.73493071663514" lon="12.108080692408343"><ele>479.4</ele><time>2026-04-18T08:11:45Z</time></trkpt><trkpt lat="47.73488201597282" lon="12.107964682104313"><ele>479.6</ele><time>2026-04-18T08:11:47Z</time></trkpt><trkpt lat="47.73482351184202" lon="12.107861736032891"><ele>479.8</ele><time>2026-04-18T08:12:35Z</time></trkpt><trkpt lat="47.73476664153202" lon="12.107715944883605"><ele>480.0</ele><time>2026-04-18T08:12:37Z</time></trkpt><trkpt lat="47.73471318682405" lon="12.107532675601679"><ele>480.0</ele><time>2026-04-18T08:12:39.001Z</time></trkpt><trkpt lat="47.73466190363728" lon="12.107430478707931"><ele>480.0</ele><time>2026-04-18T08:12:40.001Z</time></trkpt><trkpt lat="47.73459856221542" lon="12.107316785745493"><ele>480.0</ele><time>2026-04-18T08:12:41.001Z</time></trkpt><trkpt lat="47.73453064400579" lon="12.107196483010378"><ele>480.0</ele><time>2026-04-18T08:12:42.001Z</time></trkpt><trkpt lat="47.73446807697521" lon="12.107079288765537"><ele>480.0</ele><time>2026-04-18T08:12:43.001Z</time></trkpt><trkpt lat="47.734417243603595" lon="12.106965291723366"><ele>480.2</ele><time>2026-04-18T08:12:44.001Z</time></trkpt><trkpt lat="47.734365893859874" lon="12.106851897245908"><ele>480.4</ele><time>2026-04-18T08:12:45.001Z</time></trkpt><trkpt lat="47.73431747515842" lon="12.106727868243858"><ele>480.6</ele><time>2026-04-18T08:12:46.001Z</time></trkpt><trkpt lat="47.734262495724344" lon="12.106611447099382"><ele>480.8</ele><time>2026-04-18T08:12:47.001Z</time></trkpt><trkpt lat="47.73420462466559" lon="12.106492181234358"><ele>481.0</ele><time>2026-04-18T08:12:48.001Z</time></trkpt><trkpt lat="47.73415625033276" lon="12.106381891003679"><ele>481.50000000000006</ele><time>2026-04-18T08:12:49Z</time></trkpt><trkpt lat="47.7341121412078" lon="12.106285799600984"><ele>482.0</ele><time>2026-04-18T08:12:50Z</time></trkpt><trkpt lat="47.73406814048476" lon="12.106191948012032"><ele>482.5</ele><time>2026-04-18T08:12:51Z</time></trkpt><trkpt lat="47.73402476029919" lon="12.10609878020705"><ele>483.0</ele><time>2026-04-18T08:12:52Z</time></trkpt><trkpt lat="47.733978826213914" lon="12.105997628441967"><ele>483.50000000000006</ele><time>2026-04-18T08:12:53Z</time></trkpt><trkpt lat="47.73393320807006" lon="12.105898515265409"><ele>484.0</ele><time>2026-04-18T08:12:54Z</time></trkpt><trkpt lat="47.73388459606447" lon="12.105801370995966"><ele>484.1428571428571</ele><time>2026-04-18T08:12:55Z</time></trkpt><trkpt lat="47.73384041914533" lon="12.105704806778574"><ele>484.2857142857142</ele><time>2026-04-18T08:12:56Z</time></trkpt><trkpt lat="47.73379867632885" lon="12.105622179300239"><ele>484.42857142857144</ele><time>2026-04-18T08:12:57Z</time></trkpt><trkpt lat="47.733760807660715" lon="12.105546476364651"><ele>484.57142857142856</ele><time>2026-04-18T08:12:58Z</time></trkpt><trkpt lat="47.733710080862004" lon="12.105443561053281"><ele>484.7142857142857</ele><time>2026-04-18T08:13:00Z</time></trkpt><trkpt lat="47.733674264023406" lon="12.105359652735244"><ele>484.8571428571429</ele><time>2026-04-18T08:13:03Z</time></trkpt><trkpt lat="47.733626814359226" lon="12.10526518790419"><ele>485.00000000000006</ele><time>2026-04-18T08:13:14Z</time></trkpt><trkpt lat="47.73356367180502" lon="12.105134535941225"><ele>484.66666666666663</ele><time>2026-04-18T08:13:16Z</time></trkpt><trkpt lat="47.73352096000069" lon="12.105055038841515"><ele>484.3333333333333</ele><time>2026-04-18T08:13:17Z</time></trkpt><trkpt lat="47.733437619049724" lon="12.104898425553547"><ele>484.0</ele><time>2026-04-18T08:13:19Z</time></trkpt><trkpt lat="47.733394663281636" lon="12.104798048061909"><ele>483.66666666666663</ele><time>2026-04-18T08:13:20Z</time></trkpt><trkpt lat="47.733347695842006" lon="12.104708490817503"><ele>483.3333333333333</ele><time>2026-04-18T08:13:21Z</time></trkpt><trkpt lat="47.73329876646135" lon="12.104621745106593"><ele>483.0</ele><time>2026-04-18T08:13:22Z</time></trkpt><trkpt lat="47.733251863928736" lon="12.104527788938691"><ele>483.0</ele><time>2026-04-18T08:13:23Z</time></trkpt><trkpt lat="47.73320579912348" lon="12.104428750689465"><ele>483.0</ele><time>2026-04-18T08:13:24Z</time></trkpt><trkpt lat="47.73315440100528" lon="12.10433001078709"><ele>483.0</ele><time>2026-04-18T08:13:25Z</time></trkpt><trkpt lat="47.73310262135424" lon="12.104225768758248"><ele>483.0</ele><time>2026-04-18T08:13:26Z</time></trkpt><trkpt lat="47.733059215764456" lon="12.104117291791809"><ele>483.0</ele><time>2026-04-18T08:13:27Z</time></trkpt><trkpt lat="47.73301898644561" lon="12.1040038438363"><ele>483.0</ele><time>2026-04-18T08:13:28Z</time></trkpt><trkpt lat="47.73298749833085" lon="12.103886921815155"><ele>483.5</ele><time>2026-04-18T08:13:29Z</time></trkpt><trkpt lat="47.732961621591" lon="12.10377731702967"><ele>484.0</ele><time>2026-04-18T08:13:30Z</time></trkpt><trkpt lat="47.73293602925877" lon="12.103664252203009"><ele>484.5</ele><time>2026-04-18T08:13:31Z</time></trkpt><trkpt lat="47.73290677807521" lon="12.1035374982234"><ele>485.0</ele><time>2026-04-18T08:13:32Z</time></trkpt><trkpt lat="47.732912326871045" lon="12.103395408473327"><ele>485.5</ele><time>2026-04-18T08:13:33Z</time></trkpt><trkpt lat="47.732889016475575" lon="12.103247201525802"><ele>486.0</ele><time>2026-04-18T08:13:34Z</time></trkpt><trkpt lat="47.732890510505534" lon="12.103106848655406"><ele>486.20000000000005</ele><time>2026-04-18T08:13:35Z</time></trkpt><trkpt lat="47.73288273898113" lon="12.10296973223799"><ele>486.40000000000003</ele><time>2026-04-18T08:13:36Z</time></trkpt><trkpt lat="47.73286304199155" lon="12.10282654364067"><ele>486.6</ele><time>2026-04-18T08:13:37Z</time></trkpt><trkpt lat="47.732837635919864" lon="12.102671666786867"><ele>486.8</ele><time>2026-04-18T08:13:38Z</time></trkpt><trkpt lat="47.732813169842224" lon="12.102518796695211"><ele>487.0</ele><time>2026-04-18T08:13:39Z</time></trkpt><trkpt lat="47.73278645140098" lon="12.102376773543176"><ele>487.6</ele><time>2026-04-18T08:13:40Z</time></trkpt><trkpt lat="47.7327625987289" lon="12.102228883560349"><ele>488.20000000000005</ele><time>2026-04-18T08:13:41Z</time></trkpt><trkpt lat="47.73273951437278" lon="12.102072996867943"><ele>488.8</ele><time>2026-04-18T08:13:42Z</time></trkpt><trkpt lat="47.73271242652027" lon="12.10192062425469"><ele>489.4</ele><time>2026-04-18T08:13:43Z</time></trkpt><trkpt lat="47.73267729518813" lon="12.10177246348707"><ele>490.0</ele><time>2026-04-18T08:13:44Z</time></trkpt><trkpt lat="47.732638197326466" lon="12.101628008149538"><ele>490.2</ele><time>2026-04-18T08:13:45Z</time></trkpt><trkpt lat="47.73259790659926" lon="12.101481621921268"><ele>490.4</ele><time>2026-04-18T08:13:46Z</time></trkpt><trkpt lat="47.73253687315905" lon="12.1013431364661"><ele>490.6</ele><time>2026-04-18T08:13:47Z</time></trkpt><trkpt lat="47.73246862948435" lon="12.101209333103245"><ele>490.8</ele><time>2026-04-18T08:13:48Z</time></trkpt><trkpt lat="47.7324148355263" lon="12.101070887847095"><ele>491.0</ele><time>2026-04-18T08:13:49Z</time></trkpt><trkpt lat="47.73236314012549" lon="12.100939676572246"><ele>491.0</ele><time>2026-04-18T08:13:50Z</time></trkpt><trkpt lat="47.732307621175806" lon="12.100804764401428"><ele>491.0</ele><time>2026-04-18T08:13:51Z</time></trkpt><trkpt lat="47.732253730770836" lon="12.10067237630843"><ele>491.0</ele><time>2026-04-18T08:13:52Z</time></trkpt><trkpt lat="47.73220410059719" lon="12.100538171474756"><ele>491.0</ele><time>2026-04-18T08:13:53Z</time></trkpt><trkpt lat="47.732151000749845" lon="12.100406746064511"><ele>491.0</ele><time>2026-04-18T08:13:54Z</time></trkpt><trkpt lat="47.732085762247564" lon="12.10028497922011"><ele>491.20000000000005</ele><time>2026-04-18T08:13:55Z</time></trkpt><trkpt lat="47.73201849712658" lon="12.10016020938896"><ele>491.40000000000003</ele><time>2026-04-18T08:13:56Z</time></trkpt><trkpt lat="47.731952871740035" lon="12.100034109265026"><ele>491.6</ele><time>2026-04-18T08:13:57Z</time></trkpt><trkpt lat="47.73188437133945" lon="12.099904938201528"><ele>491.8</ele><time>2026-04-18T08:13:58Z</time></trkpt><trkpt lat="47.73181268786983" lon="12.099773816221667"><ele>492.0</ele><time>2026-04-18T08:13:59Z</time></trkpt><trkpt lat="47.731737128085214" lon="12.099642746869806"><ele>492.0</ele><time>2026-04-18T08:14:00Z</time></trkpt><trkpt lat="47.73165892615133" lon="12.099512320738034"><ele>492.0</ele><time>2026-04-18T08:14:01Z</time></trkpt><trkpt lat="47.731575927586114" lon="12.099376140999043"><ele>492.0</ele><time>2026-04-18T08:14:02Z</time></trkpt><trkpt lat="47.73148348760215" lon="12.099228744335644"><ele>492.0</ele><time>2026-04-18T08:14:03Z</time></trkpt><trkpt lat="47.73139023779566" lon="12.09909286727135"><ele>492.40000000000003</ele><time>2026-04-18T08:14:04Z</time></trkpt><trkpt lat="47.7312993599041" lon="12.098970725225941"><ele>492.80000000000007</ele><time>2026-04-18T08:14:05Z</time></trkpt><trkpt lat="47.73121267119816" lon="12.098861100272671"><ele>493.2</ele><time>2026-04-18T08:14:06Z</time></trkpt><trkpt lat="47.73113010687511" lon="12.098762933230827"><ele>493.6</ele><time>2026-04-18T08:14:07Z</time></trkpt><trkpt lat="47.731050033361036" lon="12.098674299683074"><ele>494.0</ele><time>2026-04-18T08:14:08Z</time></trkpt><trkpt lat="47.73096859917334" lon="12.098588127018129"><ele>494.2</ele><time>2026-04-18T08:14:09Z</time></trkpt><trkpt lat="47.73088544653532" lon="12.098498181373875"><ele>494.4</ele><time>2026-04-18T08:14:10Z</time></trkpt><trkpt lat="47.73079966837397" lon="12.0984071810414"><ele>494.6</ele><time>2026-04-18T08:14:11Z</time></trkpt><trkpt lat="47.730710683531925" lon="12.098314023454712"><ele>494.8</ele><time>2026-04-18T08:14:12Z</time></trkpt><trkpt lat="47.73062104126345" lon="12.098218043587618"><ele>495.0</ele><time>2026-04-18T08:14:13Z</time></trkpt><trkpt lat="47.73053502548296" lon="12.098128891614248"><ele>495.0</ele><time>2026-04-18T08:14:14Z</time></trkpt><trkpt lat="47.730453813590444" lon="12.09805004230808"><ele>495.0</ele><time>2026-04-18T08:14:15Z</time></trkpt><trkpt lat="47.73037082887957" lon="12.097972234406871"><ele>495.0</ele><time>2026-04-18T08:14:16Z</time></trkpt><trkpt lat="47.730283358207764" lon="12.097892170339541"><ele>495.0</ele><time>2026-04-18T08:14:17Z</time></trkpt><trkpt lat="47.73019130428781" lon="12.097813505947471"><ele>495.0</ele><time>2026-04-18T08:14:18Z</time></trkpt><trkpt lat="47.73008975309294" lon="12.097739828791633"><ele>495.25</ele><time>2026-04-18T08:14:19Z</time></trkpt><trkpt lat="47.7299755723893" lon="12.097674846602988"><ele>495.5</ele><time>2026-04-18T08:14:20Z</time></trkpt><trkpt lat="47.729849637590334" lon="12.097618700150814"><ele>495.75</ele><time>2026-04-18T08:14:21Z</time></trkpt><trkpt lat="47.72972968042205" lon="12.097566957358078"><ele>496.0</ele><time>2026-04-18T08:14:22Z</time></trkpt><trkpt lat="47.72962099624363" lon="12.09751587860869"><ele>496.0</ele><time>2026-04-18T08:14:23Z</time></trkpt><trkpt lat="47.72951178969877" lon="12.097482720131225"><ele>496.0</ele><time>2026-04-18T08:14:24Z</time></trkpt><trkpt lat="47.729401952689585" lon="12.097447448170751"><ele>496.0</ele><time>2026-04-18T08:14:25Z</time></trkpt><trkpt lat="47.72929543387597" lon="12.097401717509651"><ele>496.0</ele><time>2026-04-18T08:14:26Z</time></trkpt><trkpt lat="47.72918464933971" lon="12.097369722090846"><ele>496.0</ele><time>2026-04-18T08:14:27Z</time></trkpt><trkpt lat="47.72907360502555" lon="12.097344229469217"><ele>495.75</ele><time>2026-04-18T08:14:28Z</time></trkpt><trkpt lat="47.728963873207256" lon="12.09731687673821"><ele>495.5</ele><time>2026-04-18T08:14:29Z</time></trkpt><trkpt lat="47.72885001597733" lon="12.09729120225849"><ele>495.25</ele><time>2026-04-18T08:14:30Z</time></trkpt><trkpt lat="47.72873219330018" lon="12.097264689482845"><ele>495.0</ele><time>2026-04-18T08:14:31Z</time></trkpt><trkpt lat="47.72862298726058" lon="12.097232196939776"><ele>495.2</ele><time>2026-04-18T08:14:32Z</time></trkpt><trkpt lat="47.728519049819056" lon="12.097202144606976"><ele>495.4</ele><time>2026-04-18T08:14:33Z</time></trkpt><trkpt lat="47.72841977354603" lon="12.09716695762731"><ele>495.6</ele><time>2026-04-18T08:14:34Z</time></trkpt><trkpt lat="47.728322957382396" lon="12.097122575167768"><ele>495.8</ele><time>2026-04-18T08:14:35Z</time></trkpt><trkpt lat="47.7282226114094" lon="12.097080984384394"><ele>496.0</ele><time>2026-04-18T08:14:36Z</time></trkpt><trkpt lat="47.72812341492271" lon="12.097038323289581"><ele>496.0</ele><time>2026-04-18T08:14:37Z</time></trkpt><trkpt lat="47.728027418448086" lon="12.096974836976166"><ele>496.0</ele><time>2026-04-18T08:14:38Z</time></trkpt><trkpt lat="47.727934228493844" lon="12.096888374985356"><ele>496.0</ele><time>2026-04-18T08:14:39Z</time></trkpt><trkpt lat="47.72784535907255" lon="12.096784975625798"><ele>496.0</ele><time>2026-04-18T08:14:40Z</time></trkpt><trkpt lat="47.72776868057182" lon="12.096655293286242"><ele>496.0</ele><time>2026-04-18T08:14:41Z</time></trkpt><trkpt lat="47.7277037104587" lon="12.096527031194245"><ele>496.0</ele><time>2026-04-18T08:14:42Z</time></trkpt><trkpt lat="47.7276490294323" lon="12.096408551949574"><ele>496.0</ele><time>2026-04-18T08:14:43Z</time></trkpt><trkpt lat="47.72759644788849" lon="12.096291451910812"><ele>496.0</ele><time>2026-04-18T08:14:44Z</time></trkpt><trkpt lat="47.72754354478202" lon="12.096167189953729"><ele>496.0</ele><time>2026-04-18T08:14:45Z</time></trkpt><trkpt lat="47.72749023321351" lon="12.096039174553125"><ele>496.0</ele><time>2026-04-18T08:14:46Z</time></trkpt><trkpt lat="47.72743679469798" lon="12.095906932586049"><ele>496.0</ele><time>2026-04-18T08:14:47Z</time></trkpt><trkpt lat="47.72738052443319" lon="12.095774326878193"><ele>496.0</ele><time>2026-04-18T08:14:48Z</time></trkpt><trkpt lat="47.727322382336574" lon="12.095643504262336"><ele>496.0</ele><time>2026-04-18T08:14:49Z</time></trkpt><trkpt lat="47.72726059100046" lon="12.095507120351904"><ele>496.0</ele><time>2026-04-18T08:14:50Z</time></trkpt><trkpt lat="47.72719474794372" lon="12.095376904999046"><ele>496.0</ele><time>2026-04-18T08:14:51Z</time></trkpt><trkpt lat="47.72712217916858" lon="12.095252133476443"><ele>496.25</ele><time>2026-04-18T08:14:52Z</time></trkpt><trkpt lat="47.72704372715503" lon="12.095133456899779"><ele>496.5</ele><time>2026-04-18T08:14:53Z</time></trkpt><trkpt lat="47.72695566838253" lon="12.095026933232234"><ele>496.75</ele><time>2026-04-18T08:14:54Z</time></trkpt><trkpt lat="47.72686124148481" lon="12.094930680490247"><ele>497.0</ele><time>2026-04-18T08:14:55Z</time></trkpt><trkpt lat="47.72676675902479" lon="12.094839562100146"><ele>498.8</ele><time>2026-04-18T08:14:56Z</time></trkpt><trkpt lat="47.72667173131081" lon="12.094755127846224"><ele>500.6</ele><time>2026-04-18T08:14:57Z</time></trkpt><trkpt lat="47.72658322634687" lon="12.094678696854487"><ele>502.40000000000003</ele><time>2026-04-18T08:14:58Z</time></trkpt><trkpt lat="47.7264977631937" lon="12.094608444778718"><ele>504.20000000000005</ele><time>2026-04-18T08:14:59Z</time></trkpt><trkpt lat="47.72641441029913" lon="12.09453869740819"><ele>506.0</ele><time>2026-04-18T08:15:00Z</time></trkpt><trkpt lat="47.72633112583251" lon="12.094472939447106"><ele>505.99999999999994</ele><time>2026-04-18T08:15:01Z</time></trkpt><trkpt lat="47.7262476391549" lon="12.09441182683747"><ele>506.0</ele><time>2026-04-18T08:15:02Z</time></trkpt><trkpt lat="47.7261622882873" lon="12.094353344464919"><ele>506.0</ele><time>2026-04-18T08:15:03Z</time></trkpt><trkpt lat="47.72608455306466" lon="12.094302891266638"><ele>506.0</ele><time>2026-04-18T08:15:04Z</time></trkpt><trkpt lat="47.726008241080535" lon="12.094278009929875"><ele>505.99999999999994</ele><time>2026-04-18T08:15:05Z</time></trkpt><trkpt lat="47.725931768746406" lon="12.094269653411864"><ele>506.0</ele><time>2026-04-18T08:15:06Z</time></trkpt><trkpt lat="47.725861963666" lon="12.094263399900225"><ele>505.66666666666663</ele><time>2026-04-18T08:15:07Z</time></trkpt><trkpt lat="47.72574516559159" lon="12.094252031704269"><ele>505.3333333333333</ele><time>2026-04-18T08:15:09Z</time></trkpt><trkpt lat="47.7256170218874" lon="12.094237956188524"><ele>505.0</ele><time>2026-04-18T08:15:11Z</time></trkpt><trkpt lat="47.72555012645705" lon="12.0942288337304"><ele>504.66666666666663</ele><time>2026-04-18T08:15:12Z</time></trkpt><trkpt lat="47.725482266175646" lon="12.094217894820707"><ele>504.3333333333333</ele><time>2026-04-18T08:15:13Z</time></trkpt><trkpt lat="47.725417017626526" lon="12.094208561726182"><ele>504.0</ele><time>2026-04-18T08:15:14Z</time></trkpt><trkpt lat="47.725351464114866" lon="12.094202417403867"><ele>504.0</ele><time>2026-04-18T08:15:15Z</time></trkpt><trkpt lat="47.725286669386605" lon="12.094194810331812"><ele>504.0</ele><time>2026-04-18T08:15:16Z</time></trkpt><trkpt lat="47.7252218008019" lon="12.094182343179884"><ele>504.0</ele><time>2026-04-18T08:15:17Z</time></trkpt><trkpt lat="47.725152247245205" lon="12.094168145597143"><ele>504.0</ele><time>2026-04-18T08:15:18Z</time></trkpt><trkpt lat="47.72508447016169" lon="12.094162309005501"><ele>504.0</ele><time>2026-04-18T08:15:19Z</time></trkpt><trkpt lat="47.725015746044306" lon="12.09418177625589"><ele>504.0</ele><time>2026-04-18T08:15:20Z</time></trkpt><trkpt lat="47.72494799525731" lon="12.094227487337804"><ele>504.0</ele><time>2026-04-18T08:15:21Z</time></trkpt><trkpt lat="47.724892213005965" lon="12.094278822776053"><ele>503.8333333333333</ele><time>2026-04-18T08:15:22Z</time></trkpt><trkpt lat="47.724833912565195" lon="12.094341828976173"><ele>503.66666666666663</ele><time>2026-04-18T08:15:23Z</time></trkpt><trkpt lat="47.72477651574473" lon="12.094410778954762"><ele>503.5</ele><time>2026-04-18T08:15:24Z</time></trkpt><trkpt lat="47.724726106455975" lon="12.094473767330268"><ele>503.3333333333333</ele><time>2026-04-18T08:15:25Z</time></trkpt><trkpt lat="47.7246304552296" lon="12.094585735976509"><ele>503.16666666666663</ele><time>2026-04-18T08:15:27Z</time></trkpt><trkpt lat="47.72451646266015" lon="12.094602293287583"><ele>503.0</ele><time>2026-04-18T08:15:29Z</time></trkpt><trkpt lat="47.72445799020667" lon="12.09454246114082"><ele>503.0</ele><time>2026-04-18T08:15:30Z</time></trkpt><trkpt lat="47.72440892437493" lon="12.0944391256938"><ele>502.99999999999994</ele><time>2026-04-18T08:15:31Z</time></trkpt><trkpt lat="47.72435517032664" lon="12.094347102548586"><ele>502.99999999999994</ele><time>2026-04-18T08:15:32Z</time></trkpt><trkpt lat="47.72429466019937" lon="12.094244998529943"><ele>503.0</ele><time>2026-04-18T08:15:33Z</time></trkpt><trkpt lat="47.724233900953855" lon="12.094139505467732"><ele>503.0</ele><time>2026-04-18T08:15:34Z</time></trkpt><trkpt lat="47.724170259547115" lon="12.094024332437469"><ele>504.4</ele><time>2026-04-18T08:15:35Z</time></trkpt><trkpt lat="47.72410778300509" lon="12.093918245655194"><ele>505.79999999999995</ele><time>2026-04-18T08:15:36Z</time></trkpt><trkpt lat="47.72404009927827" lon="12.09381896172001"><ele>507.2</ele><time>2026-04-18T08:15:37Z</time></trkpt><trkpt lat="47.72395791470329" lon="12.093724578201021"><ele>508.6</ele><time>2026-04-18T08:15:38Z</time></trkpt><trkpt lat="47.723878934348264" lon="12.093610722524026"><ele>510.0</ele><time>2026-04-18T08:15:39Z</time></trkpt><trkpt lat="47.72378124283603" lon="12.093515621151075"><ele>510.0</ele><time>2026-04-18T08:15:40Z</time></trkpt><trkpt lat="47.723694523696956" lon="12.093401616465787"><ele>510.0</ele><time>2026-04-18T08:15:41Z</time></trkpt><trkpt lat="47.72361014647311" lon="12.093294081819424"><ele>510.0</ele><time>2026-04-18T08:15:42Z</time></trkpt><trkpt lat="47.7235237764233" lon="12.093194033088292"><ele>510.0</ele><time>2026-04-18T08:15:43Z</time></trkpt><trkpt lat="47.723436968906555" lon="12.093094732308709"><ele>510.0</ele><time>2026-04-18T08:15:44Z</time></trkpt><trkpt lat="47.72335283697715" lon="12.092997727174064"><ele>511.5</ele><time>2026-04-18T08:15:45Z</time></trkpt><trkpt lat="47.72326471609159" lon="12.092896482598425"><ele>513.0</ele><time>2026-04-18T08:15:46Z</time></trkpt><trkpt lat="47.72317418900938" lon="12.092785692325931"><ele>514.5</ele><time>2026-04-18T08:15:47Z</time></trkpt><trkpt lat="47.7230961021488" lon="12.092654967987874"><ele>516.0</ele><time>2026-04-18T08:15:48Z</time></trkpt><trkpt lat="47.72302735529004" lon="12.092513284552261"><ele>517.4</ele><time>2026-04-18T08:15:49Z</time></trkpt><trkpt lat="47.7229692096847" lon="12.092374581647796"><ele>518.8</ele><time>2026-04-18T08:15:50Z</time></trkpt><trkpt lat="47.722921016120495" lon="12.092248024592529"><ele>520.1999999999999</ele><time>2026-04-18T08:15:51Z</time></trkpt><trkpt lat="47.72287205850423" lon="12.092137388469759"><ele>521.6</ele><time>2026-04-18T08:15:52Z</time></trkpt><trkpt lat="47.72282005804987" lon="12.092051329747413"><ele>523.0</ele><time>2026-04-18T08:15:53Z</time></trkpt><trkpt lat="47.722764095206834" lon="12.09197214287518"><ele>522.1666666666667</ele><time>2026-04-18T08:15:54Z</time></trkpt><trkpt lat="47.722704755282095" lon="12.091896923420435"><ele>521.3333333333334</ele><time>2026-04-18T08:15:55Z</time></trkpt><trkpt lat="47.722652921110374" lon="12.09183781856694"><ele>520.5</ele><time>2026-04-18T08:15:56Z</time></trkpt><trkpt lat="47.722566079283666" lon="12.091749075119882"><ele>519.6666666666666</ele><time>2026-04-18T08:15:58Z</time></trkpt><trkpt lat="47.722485336594794" lon="12.091681774150167"><ele>518.8333333333333</ele><time>2026-04-18T08:16:00Z</time></trkpt><trkpt lat="47.72241453072336" lon="12.091641671582872"><ele>518.0</ele><time>2026-04-18T08:16:02Z</time></trkpt><trkpt lat="47.72233903934281" lon="12.091602224405678"><ele>518.0</ele><time>2026-04-18T08:16:05Z</time></trkpt><trkpt lat="47.72227483773778" lon="12.09155764570649"><ele>518.0</ele><time>2026-04-18T08:16:10Z</time></trkpt><trkpt lat="47.722210088737405" lon="12.091509574954918"><ele>518.0</ele><time>2026-04-18T08:16:28Z</time></trkpt><trkpt lat="47.72210067685028" lon="12.091434827544699"><ele>518.0</ele><time>2026-04-18T08:16:30Z</time></trkpt><trkpt lat="47.72202982686132" lon="12.091377312813412"><ele>518.0</ele><time>2026-04-18T08:16:31Z</time></trkpt><trkpt lat="47.72194624749997" lon="12.091317857365214"><ele>518.0</ele><time>2026-04-18T08:16:32Z</time></trkpt><trkpt lat="47.721858684928826" lon="12.09125572199834"><ele>518.0</ele><time>2026-04-18T08:16:33Z</time></trkpt><trkpt lat="47.721774675743234" lon="12.091199714899869"><ele>518.0</ele><time>2026-04-18T08:16:34Z</time></trkpt><trkpt lat="47.72169428751795" lon="12.09114262171266"><ele>518.0</ele><time>2026-04-18T08:16:35Z</time></trkpt><trkpt lat="47.721599937786756" lon="12.091076527959073"><ele>518.0</ele><time>2026-04-18T08:16:36Z</time></trkpt><trkpt lat="47.721492025359865" lon="12.090998930566093"><ele>518.0</ele><time>2026-04-18T08:16:37Z</time></trkpt><trkpt lat="47.72138078900861" lon="12.090896305705757"><ele>518.0</ele><time>2026-04-18T08:16:38Z</time></trkpt><trkpt lat="47.72127478957547" lon="12.090766866595036"><ele>518.0</ele><time>2026-04-18T08:16:39Z</time></trkpt><trkpt lat="47.72117137621126" lon="12.090635892432307"><ele>518.0</ele><time>2026-04-18T08:16:40Z</time></trkpt><trkpt lat="47.72105359397423" lon="12.090526831467557"><ele>518.0</ele><time>2026-04-18T08:16:41Z</time></trkpt><trkpt lat="47.72092841886244" lon="12.090437983549387"><ele>520.0</ele><time>2026-04-18T08:16:42Z</time></trkpt><trkpt lat="47.72079319877347" lon="12.09037756160419"><ele>522.0</ele><time>2026-04-18T08:16:43Z</time></trkpt><trkpt lat="47.72065597681524" lon="12.090337386345448"><ele>524.0</ele><time>2026-04-18T08:16:44Z</time></trkpt><trkpt lat="47.72050984995593" lon="12.09030804781725"><ele>526.0</ele><time>2026-04-18T08:16:45Z</time></trkpt><trkpt lat="47.72036352710133" lon="12.090267297011199"><ele>528.5</ele><time>2026-04-18T08:16:46Z</time></trkpt><trkpt lat="47.72022827419827" lon="12.090222805074932"><ele>531.0</ele><time>2026-04-18T08:16:47Z</time></trkpt><trkpt lat="47.72009980853187" lon="12.090183027807992"><ele>533.5</ele><time>2026-04-18T08:16:48Z</time></trkpt><trkpt lat="47.719975771217655" lon="12.090122942252641"><ele>536.0</ele><time>2026-04-18T08:16:49Z</time></trkpt><trkpt lat="47.719868439332124" lon="12.090030937803611"><ele>537.0</ele><time>2026-04-18T08:16:50Z</time></trkpt><trkpt lat="47.71977454478092" lon="12.089888480200495"><ele>538.0</ele><time>2026-04-18T08:16:51Z</time></trkpt><trkpt lat="47.719700525476824" lon="12.089743418741305"><ele>539.0</ele><time>2026-04-18T08:16:52Z</time></trkpt><trkpt lat="47.719622800812864" lon="12.089565267241413"><ele>540.0</ele><time>2026-04-18T08:16:53Z</time></trkpt><trkpt lat="47.719555743082324" lon="12.089407366609162"><ele>540.0</ele><time>2026-04-18T08:16:54Z</time></trkpt><trkpt lat="47.71948600114477" lon="12.089252846491434"><ele>540.0</ele><time>2026-04-18T08:16:55Z</time></trkpt><trkpt lat="47.71939945071593" lon="12.089124964643291"><ele>540.0</ele><time>2026-04-18T08:16:56Z</time></trkpt><trkpt lat="47.71929819890437" lon="12.08901740828287"><ele>540.0</ele><time>2026-04-18T08:16:57Z</time></trkpt><trkpt lat="47.71917827083091" lon="12.088928378574995"><ele>541.25</ele><time>2026-04-18T08:16:58Z</time></trkpt><trkpt lat="47.71904724888545" lon="12.088869540003943"><ele>542.5</ele><time>2026-04-18T08:16:59Z</time></trkpt><trkpt lat="47.71890981907042" lon="12.08883068673053"><ele>543.75</ele><time>2026-04-18T08:17:00Z</time></trkpt><trkpt lat="47.718766796555485" lon="12.088804747087238"><ele>545.0</ele><time>2026-04-18T08:17:01Z</time></trkpt><trkpt lat="47.718620126113635" lon="12.088791894959696"><ele>542.75</ele><time>2026-04-18T08:17:02Z</time></trkpt><trkpt lat="47.71848457065281" lon="12.088763254538721"><ele>540.5</ele><time>2026-04-18T08:17:03Z</time></trkpt><trkpt lat="47.71835616722146" lon="12.088723749916307"><ele>538.25</ele><time>2026-04-18T08:17:04Z</time></trkpt><trkpt lat="47.718235417199836" lon="12.088663789588065"><ele>536.0</ele><time>2026-04-18T08:17:05Z</time></trkpt><trkpt lat="47.71811137672943" lon="12.088588198173571"><ele>536.0</ele><time>2026-04-18T08:17:06Z</time></trkpt><trkpt lat="47.717978557702104" lon="12.088484499648883"><ele>536.0</ele><time>2026-04-18T08:17:07Z</time></trkpt><trkpt lat="47.71785285598115" lon="12.088367236678684"><ele>536.0</ele><time>2026-04-18T08:17:08Z</time></trkpt><trkpt lat="47.71773693108436" lon="12.08823482289886"><ele>536.0</ele><time>2026-04-18T08:17:09Z</time></trkpt><trkpt lat="47.7176258056346" lon="12.088075700565996"><ele>537.0</ele><time>2026-04-18T08:17:10Z</time></trkpt><trkpt lat="47.717520362142594" lon="12.087907764011556"><ele>538.0</ele><time>2026-04-18T08:17:11Z</time></trkpt><trkpt lat="47.71741788670861" lon="12.087720650464727"><ele>539.0</ele><time>2026-04-18T08:17:12Z</time></trkpt><trkpt lat="47.71731756393561" lon="12.087528877239983"><ele>546.6666666666666</ele><time>2026-04-18T08:17:13Z</time></trkpt><trkpt lat="47.717223204243204" lon="12.087336398488908"><ele>554.3333333333334</ele><time>2026-04-18T08:17:14Z</time></trkpt><trkpt lat="47.71713480793563" lon="12.087149823474087"><ele>562.0</ele><time>2026-04-18T08:17:15Z</time></trkpt><trkpt lat="47.71704516640616" lon="12.08696388572147"><ele>562.0</ele><time>2026-04-18T08:17:16Z</time></trkpt><trkpt lat="47.71694971352924" lon="12.086778360198991"><ele>562.0</ele><time>2026-04-18T08:17:17Z</time></trkpt><trkpt lat="47.7168505493295" lon="12.086593301901477"><ele>562.0</ele><time>2026-04-18T08:17:18Z</time></trkpt><trkpt lat="47.71675868592311" lon="12.086426780524656"><ele>564.75</ele><time>2026-04-18T08:17:19Z</time></trkpt><trkpt lat="47.71666262763087" lon="12.086261432804312"><ele>567.5</ele><time>2026-04-18T08:17:20Z</time></trkpt><trkpt lat="47.71656564729635" lon="12.086108372623567"><ele>570.25</ele><time>2026-04-18T08:17:21Z</time></trkpt><trkpt lat="47.7164741305142" lon="12.085991637762643"><ele>573.0</ele><time>2026-04-18T08:17:22Z</time></trkpt><trkpt lat="47.716370969823636" lon="12.085905755113005"><ele>573.0</ele><time>2026-04-18T08:17:23Z</time></trkpt><trkpt lat="47.7162502628265" lon="12.085828766233924"><ele>573.0</ele><time>2026-04-18T08:17:24Z</time></trkpt><trkpt lat="47.716104306321455" lon="12.085831008299467"><ele>573.0</ele><time>2026-04-18T08:17:25Z</time></trkpt><trkpt lat="47.71596868450278" lon="12.085805311126505"><ele>573.0</ele><time>2026-04-18T08:17:26Z</time></trkpt><trkpt lat="47.71584322359612" lon="12.085738849719373"><ele>572.5</ele><time>2026-04-18T08:17:27Z</time></trkpt><trkpt lat="47.715737389670814" lon="12.085617252018826"><ele>572.0</ele><time>2026-04-18T08:17:28Z</time></trkpt><trkpt lat="47.71562591987762" lon="12.08547568579472"><ele>571.5</ele><time>2026-04-18T08:17:29Z</time></trkpt><trkpt lat="47.71551463437591" lon="12.085325470318436"><ele>571.0</ele><time>2026-04-18T08:17:30Z</time></trkpt><trkpt lat="47.71539955239722" lon="12.085185269721535"><ele>571.0</ele><time>2026-04-18T08:17:31Z</time></trkpt><trkpt lat="47.715299276487485" lon="12.085074895969594"><ele>571.0</ele><time>2026-04-18T08:17:32Z</time></trkpt><trkpt lat="47.715198694680986" lon="12.08498676130805"><ele>571.0</ele><time>2026-04-18T08:17:33Z</time></trkpt><trkpt lat="47.715093429731134" lon="12.084929981618687"><ele>571.0</ele><time>2026-04-18T08:17:34Z</time></trkpt><trkpt lat="47.71497206809157" lon="12.084914421642006"><ele>570.5</ele><time>2026-04-18T08:17:35Z</time></trkpt><trkpt lat="47.71482951287839" lon="12.084935144551093"><ele>570.0</ele><time>2026-04-18T08:17:36Z</time></trkpt><trkpt lat="47.714677829895564" lon="12.084976604331938"><ele>569.5</ele><time>2026-04-18T08:17:37Z</time></trkpt><trkpt lat="47.71454431869134" lon="12.085000430406803"><ele>569.0</ele><time>2026-04-18T08:17:38Z</time></trkpt><trkpt lat="47.71442695569533" lon="12.085005070014754"><ele>572.5</ele><time>2026-04-18T08:17:39Z</time></trkpt><trkpt lat="47.71431646553647" lon="12.084979430129339"><ele>576.0</ele><time>2026-04-18T08:17:40Z</time></trkpt><trkpt lat="47.71421019427476" lon="12.084920265185216"><ele>579.5</ele><time>2026-04-18T08:17:41Z</time></trkpt><trkpt lat="47.71411774949432" lon="12.084811502281045"><ele>583.0</ele><time>2026-04-18T08:17:42Z</time></trkpt><trkpt lat="47.71403322905154" lon="12.08464376817208"><ele>583.0</ele><time>2026-04-18T08:17:43Z</time></trkpt><trkpt lat="47.713952279839376" lon="12.084461609077863"><ele>583.0</ele><time>2026-04-18T08:17:44Z</time></trkpt><trkpt lat="47.713889261803644" lon="12.084267042476496"><ele>583.0</ele><time>2026-04-18T08:17:45Z</time></trkpt><trkpt lat="47.71384119732916" lon="12.084091414164904"><ele>583.0</ele><time>2026-04-18T08:17:46Z</time></trkpt><trkpt lat="47.71378785310958" lon="12.083938451279323"><ele>582.8</ele><time>2026-04-18T08:17:47Z</time></trkpt><trkpt lat="47.71373515109701" lon="12.083807615835822"><ele>582.5999999999999</ele><time>2026-04-18T08:17:48Z</time></trkpt><trkpt lat="47.713677391693" lon="12.083695695734571"><ele>582.4000000000001</ele><time>2026-04-18T08:17:49Z</time></trkpt><trkpt lat="47.713619118183495" lon="12.083614793402887"><ele>582.2</ele><time>2026-04-18T08:17:50Z</time></trkpt><trkpt lat="47.71354410820819" lon="12.083565414610236"><ele>582.0</ele><time>2026-04-18T08:17:51Z</time></trkpt><trkpt lat="47.71344552448691" lon="12.083548281585617"><ele>585.5</ele><time>2026-04-18T08:17:52Z</time></trkpt><trkpt lat="47.71332481502376" lon="12.083586528398472"><ele>589.0</ele><time>2026-04-18T08:17:53Z</time></trkpt><trkpt lat="47.71319349567397" lon="12.083617514960569"><ele>592.5</ele><time>2026-04-18T08:17:54Z</time></trkpt><trkpt lat="47.71306457579531" lon="12.083604261683478"><ele>596.0</ele><time>2026-04-18T08:17:55Z</time></trkpt><trkpt lat="47.712931499080504" lon="12.083558791885"><ele>596.0</ele><time>2026-04-18T08:17:56Z</time></trkpt><trkpt lat="47.712792251128" lon="12.08350363336091"><ele>596.0</ele><time>2026-04-18T08:17:57Z</time></trkpt><trkpt lat="47.712664338107324" lon="12.083440770395413"><ele>596.0</ele><time>2026-04-18T08:17:58Z</time></trkpt><trkpt lat="47.712548501911094" lon="12.083361616925098"><ele>596.0</ele><time>2026-04-18T08:17:59Z</time></trkpt><trkpt lat="47.71244109595862" lon="12.083249077377433"><ele>597.5</ele><time>2026-04-18T08:18:00Z</time></trkpt><trkpt lat="47.712339707878606" lon="12.083131117443388"><ele>599.0</ele><time>2026-04-18T08:18:01Z</time></trkpt><trkpt lat="47.712250941992025" lon="12.083011784797893"><ele>600.5</ele><time>2026-04-18T08:18:02Z</time></trkpt><trkpt lat="47.712164991169416" lon="12.082867294182996"><ele>602.0</ele><time>2026-04-18T08:18:03Z</time></trkpt><trkpt lat="47.71209110753018" lon="12.082709941545101"><ele>602.0</ele><time>2026-04-18T08:18:04Z</time></trkpt><trkpt lat="47.712039179246155" lon="12.082583716257355"><ele>602.0</ele><time>2026-04-18T08:18:05Z</time></trkpt><trkpt lat="47.711979441531106" lon="12.082451076128665"><ele>602.0</ele><time>2026-04-18T08:18:06Z</time></trkpt><trkpt lat="47.71192281352793" lon="12.082338400615335"><ele>602.0</ele><time>2026-04-18T08:18:07Z</time></trkpt><trkpt lat="47.711848879453925" lon="12.082221006004701"><ele>602.0</ele><time>2026-04-18T08:18:08Z</time></trkpt><trkpt lat="47.71177149322997" lon="12.082119216929275"><ele>609.5</ele><time>2026-04-18T08:18:09Z</time></trkpt><trkpt lat="47.71171172519521" lon="12.082037048337497"><ele>617.0</ele><time>2026-04-18T08:18:10Z</time></trkpt><trkpt lat="47.7116511795986" lon="12.081966083523733"><ele>624.5</ele><time>2026-04-18T08:18:11Z</time></trkpt><trkpt lat="47.7116040498807" lon="12.081859417875117"><ele>632.0</ele><time>2026-04-18T08:18:12Z</time></trkpt><trkpt lat="47.71154588996299" lon="12.081772509232893"><ele>639.5</ele><time>2026-04-18T08:18:13Z</time></trkpt><trkpt lat="47.71148923559229" lon="12.081675637564778"><ele>647.0</ele><time>2026-04-18T08:18:14Z</time></trkpt><trkpt lat="47.71143287821509" lon="12.081576272858198"><ele>646.2</ele><time>2026-04-18T08:18:15Z</time></trkpt><trkpt lat="47.71137466080311" lon="12.081475134473928"><ele>645.4000000000001</ele><time>2026-04-18T08:18:16Z</time></trkpt><trkpt lat="47.71129931388642" lon="12.081394580276779"><ele>644.5999999999999</ele><time>2026-04-18T08:18:17.041Z</time></trkpt><trkpt lat="47.71123164101111" lon="12.081325889590369"><ele>643.8</ele><time>2026-04-18T08:18:18.04Z</time></trkpt><trkpt lat="47.71117301186671" lon="12.081233605464849"><ele>643.0</ele><time>2026-04-18T08:18:19.039Z</time></trkpt><trkpt lat="47.71081293119579" lon="12.080811955610312"><ele>643.0</ele><time>2026-04-18T08:18:25Z</time></trkpt><trkpt lat="47.71076160952588" lon="12.080723608659307"><ele>643.0</ele><time>2026-04-18T08:18:32Z</time></trkpt><trkpt lat="47.71079715383738" lon="12.080825828801498"><ele>643.0</ele><time>2026-04-18T08:18:59Z</time></trkpt><trkpt lat="47.710841889116594" lon="12.080900602405686"><ele>643.0</ele><time>2026-04-18T08:19:05Z</time></trkpt><trkpt lat="47.71090405761687" lon="12.080992716919337"><ele>643.0</ele><time>2026-04-18T08:19:11Z</time></trkpt><trkpt lat="47.71095492405077" lon="12.08106029216655"><ele>643.0</ele><time>2026-04-18T08:19:13Z</time></trkpt><trkpt lat="47.71100360647104" lon="12.081136791551222"><ele>643.0</ele><time>2026-04-18T08:19:17Z</time></trkpt><trkpt lat="47.710924308479484" lon="12.081134080623377"><ele>643.0</ele><time>2026-04-18T08:19:25Z</time></trkpt><trkpt lat="47.71099523272825" lon="12.081122732329563"><ele>643.0</ele><time>2026-04-18T08:20:05Z</time></trkpt><trkpt lat="47.711019991126285" lon="12.081211406940836"><ele>643.0</ele><time>2026-04-18T08:20:08Z</time></trkpt><trkpt lat="47.71105043860651" lon="12.081314742178353"><ele>643.0</ele><time>2026-04-18T08:20:12Z</time></trkpt><trkpt lat="47.71107097924195" lon="12.081411359582736"><ele>643.0</ele><time>2026-04-18T08:20:14Z</time></trkpt><trkpt lat="47.71113148512472" lon="12.081485688197846"><ele>643.0</ele><time>2026-04-18T08:20:18Z</time></trkpt><trkpt lat="47.711096680983324" lon="12.081402465285183"><ele>643.0</ele><time>2026-04-18T08:20:21.05Z</time></trkpt><trkpt lat="47.71109516356478" lon="12.081532022641126"><ele>643.0</ele><time>2026-04-18T08:20:38.919Z</time></trkpt><trkpt lat="47.71083861467722" lon="12.081437352299488"><ele>643.0</ele><time>2026-04-18T08:20:57.024Z</time></trkpt><trkpt lat="47.710851384474346" lon="12.081317140978841"><ele>643.0</ele><time>2026-04-18T08:20:58Z</time></trkpt><trkpt lat="47.71086958888285" lon="12.081195240264496"><ele>643.0</ele><time>2026-04-18T08:20:59Z</time></trkpt><trkpt lat="47.71092703231242" lon="12.081101283949502"><ele>643.0</ele><time>2026-04-18T08:21:01Z</time></trkpt><trkpt lat="47.71090432597705" lon="12.080996314107908"><ele>643.0</ele><time>2026-04-18T08:21:03.999Z</time></trkpt><trkpt lat="47.710857983055334" lon="12.080921228593095"><ele>643.0</ele><time>2026-04-18T08:21:09.999Z</time></trkpt><trkpt lat="47.71081775002646" lon="12.080823030668972"><ele>643.0</ele><time>2026-04-18T08:21:14Z</time></trkpt><trkpt lat="47.710748716381154" lon="12.080738407025816"><ele>643.0</ele><time>2026-04-18T08:21:46Z</time></trkpt><trkpt lat="47.71067344948092" lon="12.080711502566826"><ele>643.5999999999999</ele><time>2026-04-18T08:21:48Z</time></trkpt><trkpt lat="47.710550489614455" lon="12.080664724018726"><ele>644.1999999999999</ele><time>2026-04-18T08:21:50Z</time></trkpt><trkpt lat="47.71048491722806" lon="12.080633887870494"><ele>644.8</ele><time>2026-04-18T08:21:51Z</time></trkpt><trkpt lat="47.71040449885799" lon="12.080622073487394"><ele>645.4</ele><time>2026-04-18T08:21:52Z</time></trkpt><trkpt lat="47.71029723688043" lon="12.08060487728843"><ele>646.0</ele><time>2026-04-18T08:21:53Z</time></trkpt><trkpt lat="47.71017249503165" lon="12.080610773359556"><ele>644.0</ele><time>2026-04-18T08:21:54Z</time></trkpt><trkpt lat="47.71002745935123" lon="12.08060040581926"><ele>642.0</ele><time>2026-04-18T08:21:55Z</time></trkpt><trkpt lat="47.709868960817346" lon="12.080542890825395"><ele>640.0</ele><time>2026-04-18T08:21:56Z</time></trkpt><trkpt lat="47.70970549067566" lon="12.08050969796311"><ele>640.0</ele><time>2026-04-18T08:21:57Z</time></trkpt><trkpt lat="47.70956491896689" lon="12.080443921971135"><ele>640.0</ele><time>2026-04-18T08:21:58Z</time></trkpt><trkpt lat="47.70943844884434" lon="12.08038796059002"><ele>640.0</ele><time>2026-04-18T08:21:59Z</time></trkpt><trkpt lat="47.70930712573774" lon="12.08036072138782"><ele>640.0</ele><time>2026-04-18T08:22:00Z</time></trkpt><trkpt lat="47.709172800116356" lon="12.080352434477117"><ele>641.25</ele><time>2026-04-18T08:22:01Z</time></trkpt><trkpt lat="47.70904474167002" lon="12.080341560769217"><ele>642.5</ele><time>2026-04-18T08:22:02Z</time></trkpt><trkpt lat="47.708908778704405" lon="12.080365613562103"><ele>643.75</ele><time>2026-04-18T08:22:03Z</time></trkpt><trkpt lat="47.70878211956555" lon="12.080429495461498"><ele>645.0</ele><time>2026-04-18T08:22:04Z</time></trkpt><trkpt lat="47.70862456357175" lon="12.08048038605975"><ele>644.75</ele><time>2026-04-18T08:22:05Z</time></trkpt><trkpt lat="47.70847340102364" lon="12.080500113113011"><ele>644.5</ele><time>2026-04-18T08:22:06Z</time></trkpt><trkpt lat="47.7083443483301" lon="12.080517527883236"><ele>644.25</ele><time>2026-04-18T08:22:07Z</time></trkpt><trkpt lat="47.708215811895975" lon="12.080486214488662"><ele>644.0</ele><time>2026-04-18T08:22:08Z</time></trkpt><trkpt lat="47.70810016717455" lon="12.08046062146906"><ele>644.0</ele><time>2026-04-18T08:22:09Z</time></trkpt><trkpt lat="47.70799268753294" lon="12.080437305539359"><ele>644.0</ele><time>2026-04-18T08:22:10Z</time></trkpt><trkpt lat="47.7078940056906" lon="12.080338038576473"><ele>644.0</ele><time>2026-04-18T08:22:11Z</time></trkpt><trkpt lat="47.70779604321317" lon="12.080184538082813"><ele>644.0</ele><time>2026-04-18T08:22:12Z</time></trkpt><trkpt lat="47.70768361351564" lon="12.08003890483391"><ele>644.0</ele><time>2026-04-18T08:22:13Z</time></trkpt><trkpt lat="47.70759057256554" lon="12.079928834915211"><ele>644.0</ele><time>2026-04-18T08:22:14Z</time></trkpt><trkpt lat="47.707496088324106" lon="12.079807698477886"><ele>644.0</ele><time>2026-04-18T08:22:15Z</time></trkpt><trkpt lat="47.707387243045424" lon="12.07970286731015"><ele>644.0</ele><time>2026-04-18T08:22:16Z</time></trkpt><trkpt lat="47.70728322546761" lon="12.079631427652096"><ele>644.0</ele><time>2026-04-18T08:22:17Z</time></trkpt><trkpt lat="47.707172756238684" lon="12.079593006800453"><ele>644.0</ele><time>2026-04-18T08:22:18Z</time></trkpt><trkpt lat="47.70702731518566" lon="12.07956266786637"><ele>644.0</ele><time>2026-04-18T08:22:19Z</time></trkpt><trkpt lat="47.70686816167003" lon="12.079577781150753"><ele>644.0</ele><time>2026-04-18T08:22:20Z</time></trkpt><trkpt lat="47.7067109173844" lon="12.079590711828091"><ele>644.5</ele><time>2026-04-18T08:22:21Z</time></trkpt><trkpt lat="47.70657399497809" lon="12.079574166526262"><ele>645.0</ele><time>2026-04-18T08:22:22Z</time></trkpt><trkpt lat="47.70644846310071" lon="12.079553615437163"><ele>645.5</ele><time>2026-04-18T08:22:23Z</time></trkpt><trkpt lat="47.70632661428021" lon="12.079492651318322"><ele>646.0</ele><time>2026-04-18T08:22:24Z</time></trkpt><trkpt lat="47.70621024712329" lon="12.079483138144658"><ele>646.0</ele><time>2026-04-18T08:22:25Z</time></trkpt><trkpt lat="47.706101191911515" lon="12.07951399368153"><ele>646.0</ele><time>2026-04-18T08:22:26Z</time></trkpt><trkpt lat="47.70599748959504" lon="12.079552025205647"><ele>646.0</ele><time>2026-04-18T08:22:27Z</time></trkpt><trkpt lat="47.70590067793631" lon="12.079645525496275"><ele>646.0</ele><time>2026-04-18T08:22:28Z</time></trkpt><trkpt lat="47.70580262536745" lon="12.079782547435238"><ele>649.6666666666667</ele><time>2026-04-18T08:22:29Z</time></trkpt><trkpt lat="47.705705964906784" lon="12.079960554870024"><ele>653.3333333333334</ele><time>2026-04-18T08:22:30Z</time></trkpt><trkpt lat="47.70561214020838" lon="12.080168504981646"><ele>657.0</ele><time>2026-04-18T08:22:31Z</time></trkpt><trkpt lat="47.70551247159662" lon="12.080410727577833"><ele>657.0</ele><time>2026-04-18T08:22:32Z</time></trkpt><trkpt lat="47.70538959916454" lon="12.080651748136503"><ele>657.0</ele><time>2026-04-18T08:22:33Z</time></trkpt><trkpt lat="47.705257152917824" lon="12.080888031415226"><ele>657.0</ele><time>2026-04-18T08:22:34Z</time></trkpt><trkpt lat="47.70511561779403" lon="12.081125602012863"><ele>658.3333333333334</ele><time>2026-04-18T08:22:35Z</time></trkpt><trkpt lat="47.70496630209965" lon="12.081353145017255"><ele>659.6666666666667</ele><time>2026-04-18T08:22:36Z</time></trkpt><trkpt lat="47.70482680714975" lon="12.081558656618517"><ele>661.0</ele><time>2026-04-18T08:22:37Z</time></trkpt><trkpt lat="47.704695430144604" lon="12.081744959056081"><ele>660.6666666666667</ele><time>2026-04-18T08:22:38Z</time></trkpt><trkpt lat="47.70455816903847" lon="12.081919297831844"><ele>660.3333333333334</ele><time>2026-04-18T08:22:39Z</time></trkpt><trkpt lat="47.704439774059146" lon="12.082105578213035"><ele>660.0</ele><time>2026-04-18T08:22:40Z</time></trkpt><trkpt lat="47.70433345719401" lon="12.082317386901249"><ele>662.0</ele><time>2026-04-18T08:22:41Z</time></trkpt><trkpt lat="47.70423166911979" lon="12.082526861746084"><ele>664.0</ele><time>2026-04-18T08:22:42Z</time></trkpt><trkpt lat="47.70412302047575" lon="12.082721473168698"><ele>666.0</ele><time>2026-04-18T08:22:43Z</time></trkpt><trkpt lat="47.70401089155424" lon="12.08292214642365"><ele>666.0</ele><time>2026-04-18T08:22:44Z</time></trkpt><trkpt lat="47.70388375943522" lon="12.083101235584028"><ele>666.0</ele><time>2026-04-18T08:22:45Z</time></trkpt><trkpt lat="47.70373587985284" lon="12.08326521900965"><ele>666.0</ele><time>2026-04-18T08:22:46Z</time></trkpt><trkpt lat="47.70359684765673" lon="12.083436107694904"><ele>667.6666666666666</ele><time>2026-04-18T08:22:47Z</time></trkpt><trkpt lat="47.7034460863148" lon="12.083600628867849"><ele>669.3333333333333</ele><time>2026-04-18T08:22:48Z</time></trkpt><trkpt lat="47.70328438119343" lon="12.08373773321687"><ele>671.0</ele><time>2026-04-18T08:22:49Z</time></trkpt><trkpt lat="47.70310703882758" lon="12.083861700178842"><ele>671.0</ele><time>2026-04-18T08:22:50Z</time></trkpt><trkpt lat="47.702923148578826" lon="12.08396244070242"><ele>671.0</ele><time>2026-04-18T08:22:51Z</time></trkpt><trkpt lat="47.70274302708422" lon="12.084053315838597"><ele>671.0</ele><time>2026-04-18T08:22:52Z</time></trkpt><trkpt lat="47.702570184533" lon="12.084137028593839"><ele>671.3333333333333</ele><time>2026-04-18T08:22:53Z</time></trkpt><trkpt lat="47.702409675297154" lon="12.084228169151643"><ele>671.6666666666666</ele><time>2026-04-18T08:22:54Z</time></trkpt><trkpt lat="47.70225636288921" lon="12.08428175727305"><ele>672.0</ele><time>2026-04-18T08:22:55Z</time></trkpt><trkpt lat="47.70211214800561" lon="12.08432932007282"><ele>672.0</ele><time>2026-04-18T08:22:56Z</time></trkpt><trkpt lat="47.70196062139972" lon="12.084369077698753"><ele>672.0</ele><time>2026-04-18T08:22:57Z</time></trkpt><trkpt lat="47.70180547622988" lon="12.084474518670122"><ele>672.0</ele><time>2026-04-18T08:22:58Z</time></trkpt><trkpt lat="47.70165226831279" lon="12.084546801860027"><ele>677.3333333333334</ele><time>2026-04-18T08:22:59Z</time></trkpt><trkpt lat="47.70150480244362" lon="12.084630935323933"><ele>682.6666666666667</ele><time>2026-04-18T08:23:00Z</time></trkpt><trkpt lat="47.701356606929" lon="12.084740146056836"><ele>688.0</ele><time>2026-04-18T08:23:01Z</time></trkpt><trkpt lat="47.701221693769064" lon="12.084853120323476"><ele>683.6666666666667</ele><time>2026-04-18T08:23:02Z</time></trkpt><trkpt lat="47.70108750422269" lon="12.084989456036611"><ele>679.3333333333334</ele><time>2026-04-18T08:23:03Z</time></trkpt><trkpt lat="47.70094307453196" lon="12.08514966831146"><ele>675.0</ele><time>2026-04-18T08:23:04Z</time></trkpt><trkpt lat="47.700790208062756" lon="12.085319980673965"><ele>683.0</ele><time>2026-04-18T08:23:05Z</time></trkpt><trkpt lat="47.70064016130032" lon="12.085505265860633"><ele>691.0</ele><time>2026-04-18T08:23:06Z</time></trkpt><trkpt lat="47.70047854259194" lon="12.08570575436613"><ele>699.0</ele><time>2026-04-18T08:23:07Z</time></trkpt><trkpt lat="47.7003287845558" lon="12.085905320842265"><ele>701.3333333333334</ele><time>2026-04-18T08:23:08Z</time></trkpt><trkpt lat="47.70017810350574" lon="12.086109328303415"><ele>703.6666666666667</ele><time>2026-04-18T08:23:09Z</time></trkpt><trkpt lat="47.70000631722089" lon="12.08628797172274"><ele>706.0</ele><time>2026-04-18T08:23:10Z</time></trkpt><trkpt lat="47.699839818328755" lon="12.086469456002849"><ele>704.0</ele><time>2026-04-18T08:23:11Z</time></trkpt><trkpt lat="47.69967895801401" lon="12.08665775037645"><ele>702.0</ele><time>2026-04-18T08:23:12Z</time></trkpt><trkpt lat="47.69952072387798" lon="12.08685302294616"><ele>700.0</ele><time>2026-04-18T08:23:13Z</time></trkpt><trkpt lat="47.69937473671163" lon="12.087044641521565"><ele>700.0</ele><time>2026-04-18T08:23:14Z</time></trkpt><trkpt lat="47.69922861581253" lon="12.087234639364016"><ele>700.0</ele><time>2026-04-18T08:23:15Z</time></trkpt><trkpt lat="47.69908548696447" lon="12.087408470114699"><ele>700.0</ele><time>2026-04-18T08:23:16Z</time></trkpt><trkpt lat="47.698944748312115" lon="12.087568980715307"><ele>699.3333333333334</ele><time>2026-04-18T08:23:17Z</time></trkpt><trkpt lat="47.69881768219422" lon="12.08770580708278"><ele>698.6666666666666</ele><time>2026-04-18T08:23:18Z</time></trkpt><trkpt lat="47.6987039602338" lon="12.087832653468057"><ele>698.0</ele><time>2026-04-18T08:23:19Z</time></trkpt><trkpt lat="47.6985964154035" lon="12.087999919346135"><ele>700.0</ele><time>2026-04-18T08:23:20Z</time></trkpt><trkpt lat="47.69850193512003" lon="12.088217283282082"><ele>702.0</ele><time>2026-04-18T08:23:21Z</time></trkpt><trkpt lat="47.698402716951584" lon="12.0884582527245"><ele>704.0</ele><time>2026-04-18T08:23:22Z</time></trkpt><trkpt lat="47.69828240423969" lon="12.088691654415555"><ele>704.0</ele><time>2026-04-18T08:23:23Z</time></trkpt><trkpt lat="47.69814688856106" lon="12.08891333120852"><ele>704.0</ele><time>2026-04-18T08:23:24Z</time></trkpt><trkpt lat="47.697991928866735" lon="12.089111329016392"><ele>704.0</ele><time>2026-04-18T08:23:25Z</time></trkpt><trkpt lat="47.697850773358994" lon="12.08929042000286"><ele>706.6666666666666</ele><time>2026-04-18T08:23:26Z</time></trkpt><trkpt lat="47.69771020726903" lon="12.089453039166978"><ele>709.3333333333334</ele><time>2026-04-18T08:23:27Z</time></trkpt><trkpt lat="47.69758083478544" lon="12.08966534073754"><ele>712.0</ele><time>2026-04-18T08:23:28Z</time></trkpt><trkpt lat="47.69745824429533" lon="12.089900967499592"><ele>711.0</ele><time>2026-04-18T08:23:29Z</time></trkpt><trkpt lat="47.69733747799964" lon="12.090149039336321"><ele>710.0</ele><time>2026-04-18T08:23:30Z</time></trkpt><trkpt lat="47.69720549234375" lon="12.090390786844006"><ele>709.0</ele><time>2026-04-18T08:23:31Z</time></trkpt><trkpt lat="47.697083546175755" lon="12.09059964626895"><ele>709.3333333333334</ele><time>2026-04-18T08:23:32Z</time></trkpt><trkpt lat="47.69694588623388" lon="12.090766708452731"><ele>709.6666666666666</ele><time>2026-04-18T08:23:33Z</time></trkpt><trkpt lat="47.69679051583608" lon="12.090907519513753"><ele>710.0</ele><time>2026-04-18T08:23:34Z</time></trkpt><trkpt lat="47.69661947083968" lon="12.091003644727587"><ele>710.0</ele><time>2026-04-18T08:23:35Z</time></trkpt><trkpt lat="47.69645383919727" lon="12.091076166916887"><ele>710.0</ele><time>2026-04-18T08:23:36Z</time></trkpt><trkpt lat="47.69629704301342" lon="12.09112925400418"><ele>710.0</ele><time>2026-04-18T08:23:37Z</time></trkpt><trkpt lat="47.69616994687072" lon="12.091168821858528"><ele>710.25</ele><time>2026-04-18T08:23:38Z</time></trkpt><trkpt lat="47.69606072486893" lon="12.091195960382521"><ele>710.5</ele><time>2026-04-18T08:23:39Z</time></trkpt><trkpt lat="47.69592378779682" lon="12.091224970128431"><ele>710.75</ele><time>2026-04-18T08:23:40Z</time></trkpt><trkpt lat="47.695801215232315" lon="12.091237671669536"><ele>711.0</ele><time>2026-04-18T08:23:41Z</time></trkpt><trkpt lat="47.69567394103124" lon="12.091237840401226"><ele>711.0</ele><time>2026-04-18T08:23:42Z</time></trkpt><trkpt lat="47.695548396744044" lon="12.091220957411032"><ele>711.0</ele><time>2026-04-18T08:23:43Z</time></trkpt><trkpt lat="47.69543663620436" lon="12.091179956263169"><ele>711.0</ele><time>2026-04-18T08:23:44Z</time></trkpt><trkpt lat="47.69533120868931" lon="12.091104290520915"><ele>711.0</ele><time>2026-04-18T08:23:45Z</time></trkpt><trkpt lat="47.695227253579965" lon="12.091010309176994"><ele>711.75</ele><time>2026-04-18T08:23:46Z</time></trkpt><trkpt lat="47.695117608499565" lon="12.090909748384357"><ele>712.5</ele><time>2026-04-18T08:23:47Z</time></trkpt><trkpt lat="47.69502312838335" lon="12.090819228990886"><ele>713.25</ele><time>2026-04-18T08:23:48Z</time></trkpt><trkpt lat="47.694932139533776" lon="12.090738197149303"><ele>714.0</ele><time>2026-04-18T08:23:49Z</time></trkpt><trkpt lat="47.69483269660527" lon="12.090648954287024"><ele>715.25</ele><time>2026-04-18T08:23:50Z</time></trkpt><trkpt lat="47.694740743706184" lon="12.090552422429965"><ele>716.5</ele><time>2026-04-18T08:23:51Z</time></trkpt><trkpt lat="47.694649134802354" lon="12.090427997427026"><ele>717.75</ele><time>2026-04-18T08:23:52Z</time></trkpt><trkpt lat="47.69458222406322" lon="12.090302405144541"><ele>719.0</ele><time>2026-04-18T08:23:53Z</time></trkpt><trkpt lat="47.69452511569412" lon="12.090164463867072"><ele>719.0</ele><time>2026-04-18T08:23:54Z</time></trkpt><trkpt lat="47.69447568121407" lon="12.090039720515797"><ele>719.0</ele><time>2026-04-18T08:23:55Z</time></trkpt><trkpt lat="47.694415904617195" lon="12.089937630299135"><ele>719.0</ele><time>2026-04-18T08:23:56Z</time></trkpt><trkpt lat="47.69433730288235" lon="12.089857388963882"><ele>719.0</ele><time>2026-04-18T08:23:57Z</time></trkpt><trkpt lat="47.69426226416804" lon="12.089812755179109"><ele>719.0</ele><time>2026-04-18T08:23:58Z</time></trkpt><trkpt lat="47.694192971202845" lon="12.089774529733447"><ele>719.0</ele><time>2026-04-18T08:23:59Z</time></trkpt><trkpt lat="47.694115174141295" lon="12.089734143197076"><ele>721.2</ele><time>2026-04-18T08:24:00Z</time></trkpt><trkpt lat="47.69403880943101" lon="12.089693289429908"><ele>723.4000000000001</ele><time>2026-04-18T08:24:01Z</time></trkpt><trkpt lat="47.69394544972233" lon="12.08961002625632"><ele>725.6</ele><time>2026-04-18T08:24:03Z</time></trkpt><trkpt lat="47.69387438188259" lon="12.089510976214527"><ele>727.8</ele><time>2026-04-18T08:24:05Z</time></trkpt><trkpt lat="47.69380545453069" lon="12.089485053355142"><ele>730.0</ele><time>2026-04-18T08:24:07Z</time></trkpt><trkpt lat="47.693685428588815" lon="12.08947708383115"><ele>730.0</ele><time>2026-04-18T08:24:09Z</time></trkpt><trkpt lat="47.69361645888936" lon="12.089482933255555"><ele>730.0</ele><time>2026-04-18T08:24:10Z</time></trkpt><trkpt lat="47.693547476486" lon="12.089484071802547"><ele>730.0</ele><time>2026-04-18T08:24:11Z</time></trkpt><trkpt lat="47.6934727778403" lon="12.089493492321557"><ele>730.0</ele><time>2026-04-18T08:24:12Z</time></trkpt><trkpt lat="47.69341069148109" lon="12.089534627959567"><ele>730.0</ele><time>2026-04-18T08:24:13Z</time></trkpt><trkpt lat="47.6933479204437" lon="12.089597703676898"><ele>730.0</ele><time>2026-04-18T08:24:14Z</time></trkpt><trkpt lat="47.69326804977625" lon="12.0896694986478"><ele>731.0</ele><time>2026-04-18T08:24:15Z</time></trkpt><trkpt lat="47.69317304688184" lon="12.08973360183036"><ele>732.0</ele><time>2026-04-18T08:24:16Z</time></trkpt><trkpt lat="47.69307499283655" lon="12.089784882437142"><ele>733.0</ele><time>2026-04-18T08:24:17Z</time></trkpt><trkpt lat="47.69295783199818" lon="12.089819861202491"><ele>734.0</ele><time>2026-04-18T08:24:18Z</time></trkpt><trkpt lat="47.692852434907955" lon="12.089798958807911"><ele>735.0</ele><time>2026-04-18T08:24:19Z</time></trkpt><trkpt lat="47.6927548139025" lon="12.08973331050542"><ele>737.8</ele><time>2026-04-18T08:24:20Z</time></trkpt><trkpt lat="47.6926697909328" lon="12.0896478024701"><ele>740.6</ele><time>2026-04-18T08:24:21Z</time></trkpt><trkpt lat="47.69259230160564" lon="12.089588971597694"><ele>743.4000000000001</ele><time>2026-04-18T08:24:22Z</time></trkpt><trkpt lat="47.692491033966945" lon="12.089565237033087"><ele>746.2</ele><time>2026-04-18T08:24:23Z</time></trkpt><trkpt lat="47.69239244086754" lon="12.08956196405892"><ele>749.0</ele><time>2026-04-18T08:24:24Z</time></trkpt><trkpt lat="47.69230362439029" lon="12.08954717229302"><ele>749.0</ele><time>2026-04-18T08:24:25Z</time></trkpt><trkpt lat="47.69221361487817" lon="12.089510001175817"><ele>749.0</ele><time>2026-04-18T08:24:26Z</time></trkpt><trkpt lat="47.69212433385516" lon="12.089477949863829"><ele>749.0</ele><time>2026-04-18T08:24:27Z</time></trkpt><trkpt lat="47.69203400593465" lon="12.089434097398195"><ele>749.0</ele><time>2026-04-18T08:24:28Z</time></trkpt><trkpt lat="47.691957263753075" lon="12.089397147218683"><ele>749.0</ele><time>2026-04-18T08:24:29Z</time></trkpt><trkpt lat="47.69188313504763" lon="12.089368950230657"><ele>749.0</ele><time>2026-04-18T08:24:30Z</time></trkpt><trkpt lat="47.691797978075826" lon="12.089361752463708"><ele>748.2</ele><time>2026-04-18T08:24:31Z</time></trkpt><trkpt lat="47.69170152366947" lon="12.08938248485825"><ele>747.4000000000001</ele><time>2026-04-18T08:24:32Z</time></trkpt><trkpt lat="47.691605224729805" lon="12.089417279946167"><ele>746.6</ele><time>2026-04-18T08:24:33Z</time></trkpt><trkpt lat="47.69151168116606" lon="12.089460700329129"><ele>745.8</ele><time>2026-04-18T08:24:34Z</time></trkpt><trkpt lat="47.69141470070315" lon="12.08949163804721"><ele>745.0</ele><time>2026-04-18T08:24:35Z</time></trkpt><trkpt lat="47.69131651574563" lon="12.089491052696207"><ele>745.0</ele><time>2026-04-18T08:24:36Z</time></trkpt><trkpt lat="47.69121945348622" lon="12.089458081543167"><ele>745.0</ele><time>2026-04-18T08:24:37Z</time></trkpt><trkpt lat="47.69112406645626" lon="12.089397365864905"><ele>745.0</ele><time>2026-04-18T08:24:38Z</time></trkpt><trkpt lat="47.691035336656334" lon="12.089300316830455"><ele>745.0</ele><time>2026-04-18T08:24:39Z</time></trkpt><trkpt lat="47.69096192687083" lon="12.089161234370264"><ele>745.0</ele><time>2026-04-18T08:24:40Z</time></trkpt><trkpt lat="47.6908952728422" lon="12.088991888119653"><ele>746.0</ele><time>2026-04-18T08:24:41Z</time></trkpt><trkpt lat="47.690828570215764" lon="12.088818955475258"><ele>747.0</ele><time>2026-04-18T08:24:42Z</time></trkpt><trkpt lat="47.690760725920384" lon="12.088663998380031"><ele>748.0</ele><time>2026-04-18T08:24:43Z</time></trkpt><trkpt lat="47.69068812847386" lon="12.088531728292931"><ele>749.0</ele><time>2026-04-18T08:24:44Z</time></trkpt><trkpt lat="47.69059728659117" lon="12.08838636121019"><ele>749.0</ele><time>2026-04-18T08:24:45Z</time></trkpt><trkpt lat="47.690516298566166" lon="12.088266724767873"><ele>749.0</ele><time>2026-04-18T08:24:46Z</time></trkpt><trkpt lat="47.69044255294846" lon="12.088161105500063"><ele>749.0</ele><time>2026-04-18T08:24:47Z</time></trkpt><trkpt lat="47.690378018067854" lon="12.088074061509817"><ele>749.0</ele><time>2026-04-18T08:24:48Z</time></trkpt><trkpt lat="47.690315790514624" lon="12.087998399232957"><ele>749.0</ele><time>2026-04-18T08:24:49Z</time></trkpt><trkpt lat="47.690251339781206" lon="12.087917822419886"><ele>748.5</ele><time>2026-04-18T08:24:50Z</time></trkpt><trkpt lat="47.69017649690208" lon="12.087834685758654"><ele>748.0</ele><time>2026-04-18T08:24:51Z</time></trkpt><trkpt lat="47.69007411548624" lon="12.087750585456398"><ele>747.5</ele><time>2026-04-18T08:24:52Z</time></trkpt><trkpt lat="47.68993976116623" lon="12.087646672427624"><ele>747.0</ele><time>2026-04-18T08:24:53Z</time></trkpt><trkpt lat="47.68978401056562" lon="12.08751648763234"><ele>747.6666666666666</ele><time>2026-04-18T08:24:54Z</time></trkpt><trkpt lat="47.68961997554439" lon="12.087395303722955"><ele>748.3333333333333</ele><time>2026-04-18T08:24:55Z</time></trkpt><trkpt lat="47.68946119742096" lon="12.087291278203109"><ele>749.0</ele><time>2026-04-18T08:24:56Z</time></trkpt><trkpt lat="47.68929613607312" lon="12.087167189310117"><ele>749.0</ele><time>2026-04-18T08:24:57Z</time></trkpt><trkpt lat="47.68916432365267" lon="12.087053311235712"><ele>749.0</ele><time>2026-04-18T08:24:58Z</time></trkpt><trkpt lat="47.689050356493084" lon="12.086946388524924"><ele>749.0</ele><time>2026-04-18T08:24:59Z</time></trkpt><trkpt lat="47.688961210476556" lon="12.086846670284924"><ele>749.0</ele><time>2026-04-18T08:25:00Z</time></trkpt><trkpt lat="47.688884276059724" lon="12.0867692159729"><ele>749.0</ele><time>2026-04-18T08:25:01Z</time></trkpt><trkpt lat="47.68878919494358" lon="12.086675652232726"><ele>749.0</ele><time>2026-04-18T08:25:02Z</time></trkpt><trkpt lat="47.68868198089258" lon="12.086591030995224"><ele>749.0</ele><time>2026-04-18T08:25:03Z</time></trkpt><trkpt lat="47.688567397706464" lon="12.086510493802274"><ele>749.0</ele><time>2026-04-18T08:25:04Z</time></trkpt><trkpt lat="47.688452703753285" lon="12.086443616640608"><ele>751.2</ele><time>2026-04-18T08:25:05Z</time></trkpt><trkpt lat="47.68834018383164" lon="12.08639116986815"><ele>753.4000000000001</ele><time>2026-04-18T08:25:06Z</time></trkpt><trkpt lat="47.6882485344972" lon="12.08634622467249"><ele>755.6</ele><time>2026-04-18T08:25:07Z</time></trkpt><trkpt lat="47.688171353540284" lon="12.086289897250241"><ele>757.8</ele><time>2026-04-18T08:25:08Z</time></trkpt><trkpt lat="47.68809303555541" lon="12.086236078721548"><ele>760.0</ele><time>2026-04-18T08:25:09Z</time></trkpt><trkpt lat="47.688014697964896" lon="12.0861704165146"><ele>760.0</ele><time>2026-04-18T08:25:10Z</time></trkpt><trkpt lat="47.68791861645982" lon="12.086110798392149"><ele>760.0</ele><time>2026-04-18T08:25:11Z</time></trkpt><trkpt lat="47.68781522481405" lon="12.086054350522199"><ele>760.0</ele><time>2026-04-18T08:25:12Z</time></trkpt><trkpt lat="47.68772905435788" lon="12.085999711267535"><ele>760.0</ele><time>2026-04-18T08:25:13Z</time></trkpt><trkpt lat="47.687652848199754" lon="12.085946519275092"><ele>760.0</ele><time>2026-04-18T08:25:14Z</time></trkpt><trkpt lat="47.68758978326628" lon="12.085888097750416"><ele>761.5</ele><time>2026-04-18T08:25:15Z</time></trkpt><trkpt lat="47.68753876997861" lon="12.085789235790834"><ele>763.0</ele><time>2026-04-18T08:25:16Z</time></trkpt><trkpt lat="47.68750663577401" lon="12.085671807381535"><ele>764.5</ele><time>2026-04-18T08:25:17Z</time></trkpt><trkpt lat="47.68747904281688" lon="12.085583726838369"><ele>766.0</ele><time>2026-04-18T08:25:18Z</time></trkpt><trkpt lat="47.68744242361037" lon="12.085483816893616"><ele>767.4999999999999</ele><time>2026-04-18T08:25:19Z</time></trkpt><trkpt lat="47.68737652099651" lon="12.085354927108007"><ele>769.0</ele><time>2026-04-18T08:25:20Z</time></trkpt><trkpt lat="47.687301991345336" lon="12.085232870649563"><ele>769.0</ele><time>2026-04-18T08:25:21Z</time></trkpt><trkpt lat="47.68721900634862" lon="12.085115835670537"><ele>769.0</ele><time>2026-04-18T08:25:22Z</time></trkpt><trkpt lat="47.687113157668115" lon="12.085017180621227"><ele>769.0</ele><time>2026-04-18T08:25:23Z</time></trkpt><trkpt lat="47.687020522131164" lon="12.084954298836905"><ele>769.0</ele><time>2026-04-18T08:25:24Z</time></trkpt><trkpt lat="47.68692309727386" lon="12.084912884966768"><ele>769.0</ele><time>2026-04-18T08:25:25Z</time></trkpt><trkpt lat="47.686821346861656" lon="12.084903414300445"><ele>770.2</ele><time>2026-04-18T08:25:26Z</time></trkpt><trkpt lat="47.686715714969125" lon="12.084903550212394"><ele>771.4000000000001</ele><time>2026-04-18T08:25:27Z</time></trkpt><trkpt lat="47.686613199132566" lon="12.084903114346698"><ele>772.6</ele><time>2026-04-18T08:25:28Z</time></trkpt><trkpt lat="47.686498277492994" lon="12.084919674248884"><ele>773.8</ele><time>2026-04-18T08:25:29Z</time></trkpt><trkpt lat="47.68638620162251" lon="12.084941206010145"><ele>775.0</ele><time>2026-04-18T08:25:30Z</time></trkpt><trkpt lat="47.6862910542493" lon="12.084963238772662"><ele>771.6</ele><time>2026-04-18T08:25:31Z</time></trkpt><trkpt lat="47.686185485559875" lon="12.084986533470346"><ele>768.2</ele><time>2026-04-18T08:25:32Z</time></trkpt><trkpt lat="47.68607915770648" lon="12.085024088524287"><ele>764.8</ele><time>2026-04-18T08:25:33Z</time></trkpt><trkpt lat="47.68597360480398" lon="12.08506492701709"><ele>761.4</ele><time>2026-04-18T08:25:34Z</time></trkpt><trkpt lat="47.685869618410166" lon="12.085095258207897"><ele>758.0</ele><time>2026-04-18T08:25:35Z</time></trkpt><trkpt lat="47.68576262036184" lon="12.08512743088177"><ele>758.0</ele><time>2026-04-18T08:25:36Z</time></trkpt><trkpt lat="47.685653207779964" lon="12.085162461298921"><ele>758.0</ele><time>2026-04-18T08:25:37Z</time></trkpt><trkpt lat="47.68554532413223" lon="12.085197715966192"><ele>758.0</ele><time>2026-04-18T08:25:38Z</time></trkpt><trkpt lat="47.68544552017556" lon="12.085231483508537"><ele>758.0</ele><time>2026-04-18T08:25:39Z</time></trkpt><trkpt lat="47.685343183457654" lon="12.085263120765738"><ele>758.0</ele><time>2026-04-18T08:25:40Z</time></trkpt><trkpt lat="47.68523426619168" lon="12.085268409253791"><ele>758.0</ele><time>2026-04-18T08:25:41Z</time></trkpt><trkpt lat="47.68513282698903" lon="12.085248375703289"><ele>758.0</ele><time>2026-04-18T08:25:42Z</time></trkpt><trkpt lat="47.68502855005606" lon="12.085210530531608"><ele>758.0</ele><time>2026-04-18T08:25:43Z</time></trkpt><trkpt lat="47.684918838161344" lon="12.085159090799193"><ele>758.0</ele><time>2026-04-18T08:25:44Z</time></trkpt><trkpt lat="47.68482316571417" lon="12.085111304960389"><ele>758.0</ele><time>2026-04-18T08:25:45Z</time></trkpt><trkpt lat="47.68474321809009" lon="12.085066607227848"><ele>758.0</ele><time>2026-04-18T08:25:46Z</time></trkpt><trkpt lat="47.68465290720475" lon="12.085016387791196"><ele>758.0</ele><time>2026-04-18T08:25:47Z</time></trkpt><trkpt lat="47.68456497729559" lon="12.084965588345206"><ele>758.0</ele><time>2026-04-18T08:25:48Z</time></trkpt><trkpt lat="47.68447533682404" lon="12.084918008540253"><ele>758.0</ele><time>2026-04-18T08:25:49Z</time></trkpt><trkpt lat="47.684393583865955" lon="12.084863675339157"><ele>758.0</ele><time>2026-04-18T08:25:50Z</time></trkpt><trkpt lat="47.68430517337345" lon="12.08478268596444"><ele>760.25</ele><time>2026-04-18T08:25:51Z</time></trkpt><trkpt lat="47.68421059547299" lon="12.084679670924658"><ele>762.5</ele><time>2026-04-18T08:25:52Z</time></trkpt><trkpt lat="47.684114297912025" lon="12.084572917723479"><ele>764.75</ele><time>2026-04-18T08:25:53Z</time></trkpt><trkpt lat="47.68402515223806" lon="12.084461439004631"><ele>767.0</ele><time>2026-04-18T08:25:54Z</time></trkpt><trkpt lat="47.68392827874548" lon="12.084340594901906"><ele>767.0</ele><time>2026-04-18T08:25:55Z</time></trkpt><trkpt lat="47.683837683062826" lon="12.084223624610186"><ele>767.0</ele><time>2026-04-18T08:25:56Z</time></trkpt><trkpt lat="47.68374212057271" lon="12.084109819766267"><ele>767.0</ele><time>2026-04-18T08:25:57Z</time></trkpt><trkpt lat="47.683625824532314" lon="12.083976136068332"><ele>767.0</ele><time>2026-04-18T08:25:58Z</time></trkpt><trkpt lat="47.68349543532456" lon="12.08381292836855"><ele>766.5</ele><time>2026-04-18T08:25:59Z</time></trkpt><trkpt lat="47.683382148128615" lon="12.0836655936357"><ele>766.0</ele><time>2026-04-18T08:26:00Z</time></trkpt><trkpt lat="47.683276932311934" lon="12.083534615169787"><ele>765.5</ele><time>2026-04-18T08:26:01Z</time></trkpt><trkpt lat="47.683172080800986" lon="12.083418404302163"><ele>765.0</ele><time>2026-04-18T08:26:02Z</time></trkpt><trkpt lat="47.68307090469437" lon="12.083306155003536"><ele>766.75</ele><time>2026-04-18T08:26:03Z</time></trkpt><trkpt lat="47.68296740462507" lon="12.08318717417543"><ele>768.5</ele><time>2026-04-18T08:26:04Z</time></trkpt><trkpt lat="47.68286122956002" lon="12.083068817885623"><ele>770.25</ele><time>2026-04-18T08:26:05Z</time></trkpt><trkpt lat="47.68275297354054" lon="12.082955597920769"><ele>772.0</ele><time>2026-04-18T08:26:06Z</time></trkpt><trkpt lat="47.6826474648593" lon="12.082843598966702"><ele>773.8</ele><time>2026-04-18T08:26:07Z</time></trkpt><trkpt lat="47.68253930672301" lon="12.08275068419506"><ele>775.6</ele><time>2026-04-18T08:26:08Z</time></trkpt><trkpt lat="47.68243944396355" lon="12.082678838679696"><ele>777.4</ele><time>2026-04-18T08:26:09Z</time></trkpt><trkpt lat="47.68234607636867" lon="12.082614700181667"><ele>779.1999999999999</ele><time>2026-04-18T08:26:10Z</time></trkpt><trkpt lat="47.682243904969894" lon="12.082567147906664"><ele>781.0</ele><time>2026-04-18T08:26:11Z</time></trkpt><trkpt lat="47.68213633530301" lon="12.082543526098966"><ele>781.0</ele><time>2026-04-18T08:26:12Z</time></trkpt><trkpt lat="47.68203795573854" lon="12.082536067472793"><ele>781.0</ele><time>2026-04-18T08:26:13Z</time></trkpt><trkpt lat="47.681932412779844" lon="12.082545899347936"><ele>781.0</ele><time>2026-04-18T08:26:14Z</time></trkpt><trkpt lat="47.68181617313513" lon="12.082570761804652"><ele>781.0</ele><time>2026-04-18T08:26:15Z</time></trkpt><trkpt lat="47.681696326049014" lon="12.082586964178406"><ele>781.0</ele><time>2026-04-18T08:26:16Z</time></trkpt><trkpt lat="47.68157935483404" lon="12.082559146623709"><ele>782.25</ele><time>2026-04-18T08:26:17Z</time></trkpt><trkpt lat="47.681468150060546" lon="12.082531894064763"><ele>783.5</ele><time>2026-04-18T08:26:18Z</time></trkpt><trkpt lat="47.68136150298003" lon="12.082502259418474"><ele>784.75</ele><time>2026-04-18T08:26:19Z</time></trkpt><trkpt lat="47.68125921734151" lon="12.082470499352013"><ele>786.0</ele><time>2026-04-18T08:26:20Z</time></trkpt><trkpt lat="47.68113145501922" lon="12.082449026799935"><ele>794.6666666666667</ele><time>2026-04-18T08:26:21Z</time></trkpt><trkpt lat="47.68097965003911" lon="12.082424631605399"><ele>803.3333333333334</ele><time>2026-04-18T08:26:22Z</time></trkpt><trkpt lat="47.68080775695218" lon="12.082396105961703"><ele>812.0</ele><time>2026-04-18T08:26:23Z</time></trkpt><trkpt lat="47.680613702070374" lon="12.0823568826359"><ele>812.0</ele><time>2026-04-18T08:26:24Z</time></trkpt><trkpt lat="47.680414553415325" lon="12.082308496220143"><ele>812.0</ele><time>2026-04-18T08:26:25Z</time></trkpt><trkpt lat="47.68024328190554" lon="12.082267227853912"><ele>812.0</ele><time>2026-04-18T08:26:26Z</time></trkpt><trkpt lat="47.6800642030139" lon="12.08224174101501"><ele>812.25</ele><time>2026-04-18T08:26:27Z</time></trkpt><trkpt lat="47.679894671977884" lon="12.082239198555513"><ele>812.5</ele><time>2026-04-18T08:26:28Z</time></trkpt><trkpt lat="47.679753027077346" lon="12.082251468153379"><ele>812.75</ele><time>2026-04-18T08:26:29Z</time></trkpt><trkpt lat="47.67962940823066" lon="12.082272549946685"><ele>813.0</ele><time>2026-04-18T08:26:30Z</time></trkpt><trkpt lat="47.67951872934833" lon="12.082282304270805"><ele>816.0</ele><time>2026-04-18T08:26:31Z</time></trkpt><trkpt lat="47.679404796466045" lon="12.08228793288796"><ele>819.0</ele><time>2026-04-18T08:26:32Z</time></trkpt><trkpt lat="47.67928978858621" lon="12.082286777806983"><ele>822.0</ele><time>2026-04-18T08:26:33Z</time></trkpt><trkpt lat="47.67917366477691" lon="12.082283336174006"><ele>825.0</ele><time>2026-04-18T08:26:34Z</time></trkpt><trkpt lat="47.67905622418875" lon="12.082275990931251"><ele>825.0</ele><time>2026-04-18T08:26:35Z</time></trkpt><trkpt lat="47.67894370225234" lon="12.082267201404505"><ele>825.0</ele><time>2026-04-18T08:26:36Z</time></trkpt><trkpt lat="47.678834645029504" lon="12.082268315920572"><ele>825.0</ele><time>2026-04-18T08:26:37Z</time></trkpt><trkpt lat="47.6787258865297" lon="12.082293847907545"><ele>825.0</ele><time>2026-04-18T08:26:38Z</time></trkpt><trkpt lat="47.678620041020906" lon="12.082341497838929"><ele>825.0</ele><time>2026-04-18T08:26:39Z</time></trkpt><trkpt lat="47.678510407677805" lon="12.082407825516533"><ele>817.75</ele><time>2026-04-18T08:26:40Z</time></trkpt><trkpt lat="47.67839316757885" lon="12.082492811696111"><ele>810.5</ele><time>2026-04-18T08:26:41Z</time></trkpt><trkpt lat="47.67827899246292" lon="12.082581866853056"><ele>803.25</ele><time>2026-04-18T08:26:42Z</time></trkpt><trkpt lat="47.67818015690487" lon="12.082667192539882"><ele>796.0</ele><time>2026-04-18T08:26:43Z</time></trkpt><trkpt lat="47.678083711205566" lon="12.08274331084216"><ele>796.0</ele><time>2026-04-18T08:26:44Z</time></trkpt><trkpt lat="47.67798451772351" lon="12.08282352783624"><ele>796.0</ele><time>2026-04-18T08:26:45Z</time></trkpt><trkpt lat="47.67788798545188" lon="12.082896020599573"><ele>796.0</ele><time>2026-04-18T08:26:46Z</time></trkpt><trkpt lat="47.67779257398859" lon="12.082963347835262"><ele>796.0</ele><time>2026-04-18T08:26:47Z</time></trkpt><trkpt lat="47.677695564893526" lon="12.083022086648109"><ele>796.0</ele><time>2026-04-18T08:26:48Z</time></trkpt><trkpt lat="47.677595804788524" lon="12.083071459635955"><ele>795.5999999999999</ele><time>2026-04-18T08:26:49Z</time></trkpt><trkpt lat="47.67749472155393" lon="12.083115737303869"><ele>795.2</ele><time>2026-04-18T08:26:50Z</time></trkpt><trkpt lat="47.67739224191819" lon="12.08316770793339"><ele>794.8</ele><time>2026-04-18T08:26:51Z</time></trkpt><trkpt lat="47.67728868703564" lon="12.083216022604796"><ele>794.4000000000001</ele><time>2026-04-18T08:26:52Z</time></trkpt><trkpt lat="47.677184349030526" lon="12.083264985526833"><ele>794.0</ele><time>2026-04-18T08:26:53Z</time></trkpt><trkpt lat="47.677079888227155" lon="12.08331671340434"><ele>794.0</ele><time>2026-04-18T08:26:54Z</time></trkpt><trkpt lat="47.676975952689524" lon="12.083367669645662"><ele>794.0</ele><time>2026-04-18T08:26:55Z</time></trkpt><trkpt lat="47.67687951043525" lon="12.083413029878843"><ele>794.0</ele><time>2026-04-18T08:26:56Z</time></trkpt><trkpt lat="47.67679473609348" lon="12.08345311436039"><ele>794.0</ele><time>2026-04-18T08:26:57Z</time></trkpt><trkpt lat="47.67670528946465" lon="12.083501496213392"><ele>794.0</ele><time>2026-04-18T08:26:58Z</time></trkpt><trkpt lat="47.67660917808793" lon="12.083539117512538"><ele>795.6</ele><time>2026-04-18T08:26:59Z</time></trkpt><trkpt lat="47.67649752757612" lon="12.083536513679483"><ele>797.2</ele><time>2026-04-18T08:27:00Z</time></trkpt><trkpt lat="47.67638788311657" lon="12.083501044129644"><ele>798.8000000000001</ele><time>2026-04-18T08:27:01Z</time></trkpt><trkpt lat="47.676283549003" lon="12.083447287361322"><ele>800.4000000000001</ele><time>2026-04-18T08:27:02Z</time></trkpt><trkpt lat="47.67618340021388" lon="12.08340859363562"><ele>802.0</ele><time>2026-04-18T08:27:03Z</time></trkpt><trkpt lat="47.676095777479844" lon="12.083389425925715"><ele>802.0</ele><time>2026-04-18T08:27:04Z</time></trkpt><trkpt lat="47.67600987460145" lon="12.083374304437712"><ele>802.0</ele><time>2026-04-18T08:27:05Z</time></trkpt><trkpt lat="47.675914581609604" lon="12.083369068925727"><ele>802.0</ele><time>2026-04-18T08:27:06Z</time></trkpt><trkpt lat="47.67581838020082" lon="12.083374715022893"><ele>802.0</ele><time>2026-04-18T08:27:07Z</time></trkpt><trkpt lat="47.67572142663224" lon="12.083381486060945"><ele>802.0</ele><time>2026-04-18T08:27:08Z</time></trkpt><trkpt lat="47.67562657927187" lon="12.083394426974076"><ele>802.0</ele><time>2026-04-18T08:27:09Z</time></trkpt><trkpt lat="47.67552487844365" lon="12.083416299506824"><ele>802.0</ele><time>2026-04-18T08:27:10Z</time></trkpt><trkpt lat="47.675417903586585" lon="12.083453855469678"><ele>802.0</ele><time>2026-04-18T08:27:11Z</time></trkpt><trkpt lat="47.67530968829745" lon="12.083492541913532"><ele>802.0</ele><time>2026-04-18T08:27:12Z</time></trkpt><trkpt lat="47.67520057844547" lon="12.083528708383403"><ele>802.0</ele><time>2026-04-18T08:27:13Z</time></trkpt><trkpt lat="47.675078196672175" lon="12.083567999642495"><ele>804.25</ele><time>2026-04-18T08:27:14Z</time></trkpt><trkpt lat="47.67493835014624" lon="12.083608320691667"><ele>806.5</ele><time>2026-04-18T08:27:15Z</time></trkpt><trkpt lat="47.67481348842913" lon="12.083644685031661"><ele>808.75</ele><time>2026-04-18T08:27:16Z</time></trkpt><trkpt lat="47.67469910244583" lon="12.08368424799604"><ele>811.0</ele><time>2026-04-18T08:27:17Z</time></trkpt><trkpt lat="47.67458210758421" lon="12.083728890764366"><ele>811.0</ele><time>2026-04-18T08:27:18Z</time></trkpt><trkpt lat="47.674469464545716" lon="12.083768904467739"><ele>811.0</ele><time>2026-04-18T08:27:19Z</time></trkpt><trkpt lat="47.67436205895819" lon="12.083774421111865"><ele>811.0</ele><time>2026-04-18T08:27:20Z</time></trkpt><trkpt lat="47.674252853029955" lon="12.083732370132946"><ele>811.0</ele><time>2026-04-18T08:27:21Z</time></trkpt><trkpt lat="47.67415099084713" lon="12.08365238732866"><ele>812.0</ele><time>2026-04-18T08:27:22Z</time></trkpt><trkpt lat="47.674065286373974" lon="12.08354374209656"><ele>813.0</ele><time>2026-04-18T08:27:23Z</time></trkpt><trkpt lat="47.67400260903435" lon="12.083416562100538"><ele>814.0</ele><time>2026-04-18T08:27:24Z</time></trkpt><trkpt lat="47.67393393606991" lon="12.08329972896715"><ele>815.0</ele><time>2026-04-18T08:27:25Z</time></trkpt><trkpt lat="47.67384501464282" lon="12.083192931152862"><ele>816.0</ele><time>2026-04-18T08:27:26Z</time></trkpt><trkpt lat="47.67373447350717" lon="12.08310898630902"><ele>817.5</ele><time>2026-04-18T08:27:27Z</time></trkpt><trkpt lat="47.67361106984107" lon="12.083052687069378"><ele>819.0</ele><time>2026-04-18T08:27:28Z</time></trkpt><trkpt lat="47.67349373438814" lon="12.083020474430588"><ele>820.5</ele><time>2026-04-18T08:27:29Z</time></trkpt><trkpt lat="47.67337835177038" lon="12.082983154012254"><ele>822.0</ele><time>2026-04-18T08:27:30Z</time></trkpt><trkpt lat="47.673264394336066" lon="12.082920222186203"><ele>822.0</ele><time>2026-04-18T08:27:31Z</time></trkpt><trkpt lat="47.67315109161964" lon="12.082831851102311"><ele>822.0</ele><time>2026-04-18T08:27:32Z</time></trkpt><trkpt lat="47.67304406877573" lon="12.082701890883783"><ele>822.0</ele><time>2026-04-18T08:27:33Z</time></trkpt><trkpt lat="47.67295034529339" lon="12.08255782155657"><ele>822.0</ele><time>2026-04-18T08:27:34Z</time></trkpt><trkpt lat="47.672861509556974" lon="12.082413989552519"><ele>822.25</ele><time>2026-04-18T08:27:35Z</time></trkpt><trkpt lat="47.67277856335307" lon="12.082292732724689"><ele>822.5</ele><time>2026-04-18T08:27:36Z</time></trkpt><trkpt lat="47.67268912008857" lon="12.082173690088094"><ele>822.75</ele><time>2026-04-18T08:27:37Z</time></trkpt><trkpt lat="47.67260885806747" lon="12.082063689699009"><ele>823.0</ele><time>2026-04-18T08:27:38Z</time></trkpt><trkpt lat="47.67253314664024" lon="12.08195146808594"><ele>823.0</ele><time>2026-04-18T08:27:39Z</time></trkpt><trkpt lat="47.672443596783424" lon="12.08183751611268"><ele>823.0</ele><time>2026-04-18T08:27:40Z</time></trkpt><trkpt lat="47.67234591702536" lon="12.081739893634609"><ele>823.0</ele><time>2026-04-18T08:27:41Z</time></trkpt><trkpt lat="47.672243415066866" lon="12.081683827319061"><ele>823.0</ele><time>2026-04-18T08:27:42Z</time></trkpt><trkpt lat="47.67213288322621" lon="12.08163760781929"><ele>825.0</ele><time>2026-04-18T08:27:43Z</time></trkpt><trkpt lat="47.67202413322278" lon="12.081575089337008"><ele>827.0</ele><time>2026-04-18T08:27:44Z</time></trkpt><trkpt lat="47.67192554975337" lon="12.081486458002898"><ele>829.0</ele><time>2026-04-18T08:27:45Z</time></trkpt><trkpt lat="47.67183822731799" lon="12.08137797522723"><ele>831.0</ele><time>2026-04-18T08:27:46Z</time></trkpt><trkpt lat="47.671765984171664" lon="12.081236219815429"><ele>831.0</ele><time>2026-04-18T08:27:47Z</time></trkpt><trkpt lat="47.671723182797564" lon="12.081057546523613"><ele>831.0</ele><time>2026-04-18T08:27:48Z</time></trkpt><trkpt lat="47.67170370310427" lon="12.080872447268973"><ele>831.0</ele><time>2026-04-18T08:27:49Z</time></trkpt><trkpt lat="47.671676614819916" lon="12.08070119818393"><ele>831.0</ele><time>2026-04-18T08:27:50Z</time></trkpt><trkpt lat="47.671647515413134" lon="12.080540321365582"><ele>833.5</ele><time>2026-04-18T08:27:51Z</time></trkpt><trkpt lat="47.67162391649189" lon="12.0803638362902"><ele>836.0</ele><time>2026-04-18T08:27:52Z</time></trkpt><trkpt lat="47.67160168452013" lon="12.080178345286601"><ele>838.5</ele><time>2026-04-18T08:27:53Z</time></trkpt><trkpt lat="47.671593857884936" lon="12.080001514040115"><ele>841.0</ele><time>2026-04-18T08:27:54Z</time></trkpt><trkpt lat="47.671599655208" lon="12.079831205797696"><ele>844.5</ele><time>2026-04-18T08:27:55Z</time></trkpt><trkpt lat="47.67159735472653" lon="12.079661168056086"><ele>848.0</ele><time>2026-04-18T08:27:56Z</time></trkpt><trkpt lat="47.67158269799812" lon="12.079486958424699"><ele>851.5</ele><time>2026-04-18T08:27:57Z</time></trkpt><trkpt lat="47.671540577926756" lon="12.07931329232198"><ele>855.0</ele><time>2026-04-18T08:27:58Z</time></trkpt><trkpt lat="47.67148730120602" lon="12.079131422789468"><ele>857.25</ele><time>2026-04-18T08:27:59Z</time></trkpt><trkpt lat="47.67142245539437" lon="12.078955188184997"><ele>859.5</ele><time>2026-04-18T08:28:00Z</time></trkpt><trkpt lat="47.67136654255135" lon="12.078790410310175"><ele>861.75</ele><time>2026-04-18T08:28:01Z</time></trkpt><trkpt lat="47.67130910675065" lon="12.078622055213954"><ele>864.0</ele><time>2026-04-18T08:28:02Z</time></trkpt><trkpt lat="47.671250557943566" lon="12.078454320778837"><ele>864.0</ele><time>2026-04-18T08:28:03Z</time></trkpt><trkpt lat="47.671192565298455" lon="12.078296753109996"><ele>864.0000000000001</ele><time>2026-04-18T08:28:04Z</time></trkpt><trkpt lat="47.671145331471536" lon="12.078155165029553"><ele>864.0000000000001</ele><time>2026-04-18T08:28:05Z</time></trkpt><trkpt lat="47.67110387343373" lon="12.078012346598657"><ele>864.0</ele><time>2026-04-18T08:28:06Z</time></trkpt><trkpt lat="47.67107319069044" lon="12.07785960713147"><ele>864.0</ele><time>2026-04-18T08:28:07Z</time></trkpt><trkpt lat="47.671069777537916" lon="12.077699465324066"><ele>865.0</ele><time>2026-04-18T08:28:08Z</time></trkpt><trkpt lat="47.67109424436186" lon="12.077548622104919"><ele>866.0000000000001</ele><time>2026-04-18T08:28:09Z</time></trkpt><trkpt lat="47.67113969606759" lon="12.077397373738929"><ele>867.0000000000001</ele><time>2026-04-18T08:28:10Z</time></trkpt><trkpt lat="47.671204318271386" lon="12.077252023471539"><ele>868.0</ele><time>2026-04-18T08:28:11Z</time></trkpt><trkpt lat="47.67126597059809" lon="12.07713932479831"><ele>869.0</ele><time>2026-04-18T08:28:12Z</time></trkpt><trkpt lat="47.671318271459825" lon="12.077030662176726"><ele>869.0</ele><time>2026-04-18T08:28:13Z</time></trkpt><trkpt lat="47.6713591394951" lon="12.076906249912309"><ele>869.0000000000001</ele><time>2026-04-18T08:28:14Z</time></trkpt><trkpt lat="47.67138747792027" lon="12.076762416437791"><ele>869.0000000000001</ele><time>2026-04-18T08:28:15Z</time></trkpt><trkpt lat="47.67140441048038" lon="12.076619862636136"><ele>869.0</ele><time>2026-04-18T08:28:16Z</time></trkpt><trkpt lat="47.67139501698437" lon="12.076463794392376"><ele>869.0</ele><time>2026-04-18T08:28:17Z</time></trkpt><trkpt lat="47.671335115775655" lon="12.076294476282355"><ele>871.6666666666667</ele><time>2026-04-18T08:28:18Z</time></trkpt><trkpt lat="47.67124526454922" lon="12.076127990643482"><ele>874.3333333333333</ele><time>2026-04-18T08:28:19Z</time></trkpt><trkpt lat="47.671128079721825" lon="12.075950773567435"><ele>877.0</ele><time>2026-04-18T08:28:20Z</time></trkpt><trkpt lat="47.671011086213646" lon="12.075785564298696"><ele>873.5</ele><time>2026-04-18T08:28:21Z</time></trkpt><trkpt lat="47.67091833821054" lon="12.075646526941922"><ele>870.0</ele><time>2026-04-18T08:28:22Z</time></trkpt><trkpt lat="47.67083398332182" lon="12.075519192210702"><ele>866.5</ele><time>2026-04-18T08:28:23Z</time></trkpt><trkpt lat="47.67074961705156" lon="12.075388525855786"><ele>863.0</ele><time>2026-04-18T08:28:24Z</time></trkpt><trkpt lat="47.67066904922278" lon="12.075263862838701"><ele>863.0</ele><time>2026-04-18T08:28:25Z</time></trkpt><trkpt lat="47.670578206414554" lon="12.07515012407069"><ele>863.0</ele><time>2026-04-18T08:28:26Z</time></trkpt><trkpt lat="47.67049432925516" lon="12.075028636008767"><ele>863.0</ele><time>2026-04-18T08:28:27Z</time></trkpt><trkpt lat="47.67041798587637" lon="12.0749046198598"><ele>863.0</ele><time>2026-04-18T08:28:28Z</time></trkpt><trkpt lat="47.670345114075566" lon="12.07478725658342"><ele>861.0</ele><time>2026-04-18T08:28:29Z</time></trkpt><trkpt lat="47.670274191389126" lon="12.074676364041958"><ele>859.0</ele><time>2026-04-18T08:28:30Z</time></trkpt><trkpt lat="47.67019902256407" lon="12.0745586566075"><ele>857.0</ele><time>2026-04-18T08:28:31Z</time></trkpt><trkpt lat="47.67013369243004" lon="12.074460839007708"><ele>855.0</ele><time>2026-04-18T08:28:32Z</time></trkpt><trkpt lat="47.670079248825594" lon="12.074351594495718"><ele>853.0</ele><time>2026-04-18T08:28:33Z</time></trkpt><trkpt lat="47.670046774767826" lon="12.074222079526347"><ele>854.2</ele><time>2026-04-18T08:28:34Z</time></trkpt><trkpt lat="47.670046536337274" lon="12.074078875765435"><ele>855.4</ele><time>2026-04-18T08:28:35Z</time></trkpt><trkpt lat="47.67008055259786" lon="12.07394454995239"><ele>856.6000000000001</ele><time>2026-04-18T08:28:36Z</time></trkpt><trkpt lat="47.670150729765574" lon="12.073843988791628"><ele>857.8000000000001</ele><time>2026-04-18T08:28:37Z</time></trkpt><trkpt lat="47.670245711488526" lon="12.07378590927482"><ele>859.0</ele><time>2026-04-18T08:28:38Z</time></trkpt><trkpt lat="47.67035171747605" lon="12.073789789546632"><ele>862.5</ele><time>2026-04-18T08:28:39Z</time></trkpt><trkpt lat="47.67044092635666" lon="12.073887044472388"><ele>866.0</ele><time>2026-04-18T08:28:40Z</time></trkpt><trkpt lat="47.67052628047287" lon="12.074019986331944"><ele>869.5</ele><time>2026-04-18T08:28:41Z</time></trkpt><trkpt lat="47.67062954782077" lon="12.074164027739227"><ele>873.0</ele><time>2026-04-18T08:28:42Z</time></trkpt><trkpt lat="47.670715229306815" lon="12.074315391797457"><ele>873.0</ele><time>2026-04-18T08:28:43Z</time></trkpt><trkpt lat="47.67079694017043" lon="12.07444654439421"><ele>873.0</ele><time>2026-04-18T08:28:44Z</time></trkpt><trkpt lat="47.67087153231041" lon="12.074588269541392"><ele>873.0</ele><time>2026-04-18T08:28:45Z</time></trkpt><trkpt lat="47.67095574110985" lon="12.074728943887123"><ele>873.0</ele><time>2026-04-18T08:28:46Z</time></trkpt><trkpt lat="47.67103975231252" lon="12.07487297644247"><ele>877.75</ele><time>2026-04-18T08:28:47Z</time></trkpt><trkpt lat="47.67112178515432" lon="12.075020994960097"><ele>882.5</ele><time>2026-04-18T08:28:48Z</time></trkpt><trkpt lat="47.67120544175975" lon="12.075168293810732"><ele>887.25</ele><time>2026-04-18T08:28:49Z</time></trkpt><trkpt lat="47.67128941913688" lon="12.075316330869876"><ele>892.0</ele><time>2026-04-18T08:28:50Z</time></trkpt><trkpt lat="47.67137712242398" lon="12.0754570552335"><ele>892.0</ele><time>2026-04-18T08:28:51Z</time></trkpt><trkpt lat="47.67147238012953" lon="12.075593864912774"><ele>892.0</ele><time>2026-04-18T08:28:52Z</time></trkpt><trkpt lat="47.671576258449974" lon="12.075729231177249"><ele>892.0</ele><time>2026-04-18T08:28:53Z</time></trkpt><trkpt lat="47.67168845028858" lon="12.075857597039573"><ele>892.0</ele><time>2026-04-18T08:28:54Z</time></trkpt><trkpt lat="47.67179870820409" lon="12.075965700682694"><ele>888.25</ele><time>2026-04-18T08:28:55Z</time></trkpt><trkpt lat="47.67190178004454" lon="12.07606460756037"><ele>884.5</ele><time>2026-04-18T08:28:56Z</time></trkpt><trkpt lat="47.67199110213603" lon="12.07615232720789"><ele>880.75</ele><time>2026-04-18T08:28:57Z</time></trkpt><trkpt lat="47.672057287568926" lon="12.076281425961252"><ele>877.0</ele><time>2026-04-18T08:28:58Z</time></trkpt><trkpt lat="47.67212508245598" lon="12.076414706649055"><ele>881.0</ele><time>2026-04-18T08:28:59Z</time></trkpt><trkpt lat="47.67215487708243" lon="12.07656428605274"><ele>885.0</ele><time>2026-04-18T08:29:00Z</time></trkpt><trkpt lat="47.67216824870482" lon="12.076725952950703"><ele>889.0</ele><time>2026-04-18T08:29:01Z</time></trkpt><trkpt lat="47.672152681291585" lon="12.07686688031631"><ele>893.0</ele><time>2026-04-18T08:29:02Z</time></trkpt><trkpt lat="47.6721331408649" lon="12.077022095769095"><ele>897.0</ele><time>2026-04-18T08:29:03Z</time></trkpt><trkpt lat="47.67211332008218" lon="12.077150645893264"><ele>897.0</ele><time>2026-04-18T08:29:04Z</time></trkpt><trkpt lat="47.67210616319413" lon="12.077306454781473"><ele>897.0</ele><time>2026-04-18T08:29:05Z</time></trkpt><trkpt lat="47.67212739342167" lon="12.077465549672795"><ele>897.0</ele><time>2026-04-18T08:29:06Z</time></trkpt><trkpt lat="47.672192169330714" lon="12.077587384398814"><ele>897.0</ele><time>2026-04-18T08:29:07Z</time></trkpt><trkpt lat="47.67225449082117" lon="12.07770942371707"><ele>897.0</ele><time>2026-04-18T08:29:08Z</time></trkpt><trkpt lat="47.672336977787715" lon="12.077802584987984"><ele>896.2</ele><time>2026-04-18T08:29:09Z</time></trkpt><trkpt lat="47.67244803231906" lon="12.077838506122832"><ele>895.4000000000001</ele><time>2026-04-18T08:29:10Z</time></trkpt><trkpt lat="47.67255729790909" lon="12.077836888054529"><ele>894.5999999999999</ele><time>2026-04-18T08:29:11Z</time></trkpt><trkpt lat="47.67265093413326" lon="12.077812612372798"><ele>893.8</ele><time>2026-04-18T08:29:12Z</time></trkpt><trkpt lat="47.672730081326954" lon="12.077747622284903"><ele>893.0</ele><time>2026-04-18T08:29:13Z</time></trkpt><trkpt lat="47.67280237335675" lon="12.07764426781355"><ele>898.5</ele><time>2026-04-18T08:29:14Z</time></trkpt><trkpt lat="47.67286318889853" lon="12.077519171400255"><ele>904.0</ele><time>2026-04-18T08:29:15Z</time></trkpt><trkpt lat="47.672900932934716" lon="12.077372609173278"><ele>909.5</ele><time>2026-04-18T08:29:16Z</time></trkpt><trkpt lat="47.67287979955245" lon="12.077169143030547"><ele>915.0</ele><time>2026-04-18T08:29:17Z</time></trkpt><trkpt lat="47.67282320083642" lon="12.07697212443654"><ele>913.6666666666667</ele><time>2026-04-18T08:29:18Z</time></trkpt><trkpt lat="47.67273232992224" lon="12.076779541186042"><ele>912.3333333333334</ele><time>2026-04-18T08:29:19Z</time></trkpt><trkpt lat="47.67264219057041" lon="12.076571172871619"><ele>911.0</ele><time>2026-04-18T08:29:20Z</time></trkpt><trkpt lat="47.672570600744166" lon="12.076387809782641"><ele>911.0</ele><time>2026-04-18T08:29:21Z</time></trkpt><trkpt lat="47.672498086924584" lon="12.076211728868794"><ele>911.0</ele><time>2026-04-18T08:29:22Z</time></trkpt><trkpt lat="47.67243304316382" lon="12.07604026964229"><ele>911.0</ele><time>2026-04-18T08:29:23Z</time></trkpt><trkpt lat="47.67237650241777" lon="12.075884745141542"><ele>911.0</ele><time>2026-04-18T08:29:24Z</time></trkpt><trkpt lat="47.67232690902662" lon="12.075733565618549"><ele>917.5</ele><time>2026-04-18T08:29:25Z</time></trkpt><trkpt lat="47.67229790196854" lon="12.075569068355295"><ele>924.0</ele><time>2026-04-18T08:29:26Z</time></trkpt><trkpt lat="47.67227415045552" lon="12.075396779210648"><ele>930.5</ele><time>2026-04-18T08:29:27Z</time></trkpt><trkpt lat="47.672229891953506" lon="12.07522899955394"><ele>937.0</ele><time>2026-04-18T08:29:28Z</time></trkpt><trkpt lat="47.67216014169466" lon="12.075070763993894"><ele>943.5</ele><time>2026-04-18T08:29:29Z</time></trkpt><trkpt lat="47.67207225972253" lon="12.074918192686422"><ele>950.0</ele><time>2026-04-18T08:29:30Z</time></trkpt><trkpt lat="47.672001223939915" lon="12.074769123444177"><ele>956.5</ele><time>2026-04-18T08:29:31Z</time></trkpt><trkpt lat="47.671939950332316" lon="12.074628569023448"><ele>963.0</ele><time>2026-04-18T08:29:32Z</time></trkpt><trkpt lat="47.6718776335583" lon="12.0744813530518"><ele>953.5</ele><time>2026-04-18T08:29:33Z</time></trkpt><trkpt lat="47.67182190057662" lon="12.074333301300888"><ele>944.0</ele><time>2026-04-18T08:29:34Z</time></trkpt><trkpt lat="47.67177656945966" lon="12.074170275962956"><ele>934.5</ele><time>2026-04-18T08:29:35Z</time></trkpt><trkpt lat="47.67173918101237" lon="12.073996463829527"><ele>925.0</ele><time>2026-04-18T08:29:36Z</time></trkpt><trkpt lat="47.671708940583855" lon="12.073813429340017"><ele>925.0</ele><time>2026-04-18T08:29:37Z</time></trkpt><trkpt lat="47.67169592821759" lon="12.073624741418511"><ele>925.0</ele><time>2026-04-18T08:29:38Z</time></trkpt><trkpt lat="47.67169721256488" lon="12.073433105031187"><ele>925.0</ele><time>2026-04-18T08:29:39Z</time></trkpt><trkpt lat="47.671709480676476" lon="12.07324836953497"><ele>925.0</ele><time>2026-04-18T08:29:40Z</time></trkpt><trkpt lat="47.67171196169126" lon="12.073053481651602"><ele>926.5</ele><time>2026-04-18T08:29:41Z</time></trkpt><trkpt lat="47.671710937037695" lon="12.072857316544187"><ele>928.0</ele><time>2026-04-18T08:29:42Z</time></trkpt><trkpt lat="47.67171003759468" lon="12.072664729580369"><ele>929.5</ele><time>2026-04-18T08:29:43Z</time></trkpt><trkpt lat="47.67170673576533" lon="12.072483378256152"><ele>931.0</ele><time>2026-04-18T08:29:44Z</time></trkpt><trkpt lat="47.67170199001953" lon="12.072302363332769"><ele>932.25</ele><time>2026-04-18T08:29:45Z</time></trkpt><trkpt lat="47.6716924300655" lon="12.072118706815331"><ele>933.5</ele><time>2026-04-18T08:29:46Z</time></trkpt><trkpt lat="47.6716682417421" lon="12.071933208904094"><ele>934.75</ele><time>2026-04-18T08:29:47Z</time></trkpt><trkpt lat="47.67163243201346" lon="12.071755067354609"><ele>936.0</ele><time>2026-04-18T08:29:48Z</time></trkpt><trkpt lat="47.67159630341599" lon="12.071579647480874"><ele>938.25</ele><time>2026-04-18T08:29:49Z</time></trkpt><trkpt lat="47.671566570793544" lon="12.071427805189417"><ele>940.5</ele><time>2026-04-18T08:29:50Z</time></trkpt><trkpt lat="47.671537715803346" lon="12.071265513120464"><ele>942.75</ele><time>2026-04-18T08:29:51Z</time></trkpt><trkpt lat="47.67149271779138" lon="12.071109196600577"><ele>945.0</ele><time>2026-04-18T08:29:52Z</time></trkpt><trkpt lat="47.67146547831832" lon="12.070939591257428"><ele>945.0</ele><time>2026-04-18T08:29:53Z</time></trkpt><trkpt lat="47.67144689462641" lon="12.070759054001659"><ele>945.0</ele><time>2026-04-18T08:29:54Z</time></trkpt><trkpt lat="47.67143604753324" lon="12.070579222113382"><ele>945.0</ele><time>2026-04-18T08:29:55Z</time></trkpt><trkpt lat="47.67144210423724" lon="12.07042398094043"><ele>945.0</ele><time>2026-04-18T08:29:56Z</time></trkpt><trkpt lat="47.67145303405104" lon="12.070282899883464"><ele>945.0</ele><time>2026-04-18T08:29:57Z</time></trkpt><trkpt lat="47.67146264123532" lon="12.070149466296376"><ele>945.0</ele><time>2026-04-18T08:29:58Z</time></trkpt><trkpt lat="47.6714887742208" lon="12.070007600176414"><ele>945.0</ele><time>2026-04-18T08:29:59Z</time></trkpt><trkpt lat="47.67151429520055" lon="12.069873555896029"><ele>945.0</ele><time>2026-04-18T08:30:00Z</time></trkpt><trkpt lat="47.6715529679914" lon="12.06971834423062"><ele>945.0</ele><time>2026-04-18T08:30:01Z</time></trkpt><trkpt lat="47.671623799290515" lon="12.069566733077247"><ele>945.0</ele><time>2026-04-18T08:30:02Z</time></trkpt><trkpt lat="47.67172218955425" lon="12.069439208150746"><ele>943.25</ele><time>2026-04-18T08:30:03Z</time></trkpt><trkpt lat="47.671833235715845" lon="12.06935087246917"><ele>941.5</ele><time>2026-04-18T08:30:04Z</time></trkpt><trkpt lat="47.67194837141449" lon="12.069311225351782"><ele>939.75</ele><time>2026-04-18T08:30:05Z</time></trkpt><trkpt lat="47.672065883718815" lon="12.069312435554538"><ele>938.0</ele><time>2026-04-18T08:30:06Z</time></trkpt><trkpt lat="47.67217891429249" lon="12.069350479336233"><ele>943.5</ele><time>2026-04-18T08:30:07Z</time></trkpt><trkpt lat="47.67228733399695" lon="12.069423506201083"><ele>949.0</ele><time>2026-04-18T08:30:08Z</time></trkpt><trkpt lat="47.67238637856088" lon="12.069531218760103"><ele>954.5</ele><time>2026-04-18T08:30:09Z</time></trkpt><trkpt lat="47.67245065539809" lon="12.06968885108035"><ele>960.0</ele><time>2026-04-18T08:30:10Z</time></trkpt><trkpt lat="47.67249865557092" lon="12.06984298123002"><ele>959.5</ele><time>2026-04-18T08:30:11Z</time></trkpt><trkpt lat="47.67252193418509" lon="12.070011100116606"><ele>959.0</ele><time>2026-04-18T08:30:12Z</time></trkpt><trkpt lat="47.67254807740414" lon="12.070180032780248"><ele>958.5</ele><time>2026-04-18T08:30:13Z</time></trkpt><trkpt lat="47.67255677557309" lon="12.070356964710362"><ele>958.0</ele><time>2026-04-18T08:30:14Z</time></trkpt><trkpt lat="47.67257134401921" lon="12.070547231113284"><ele>958.0</ele><time>2026-04-18T08:30:15Z</time></trkpt><trkpt lat="47.6725855985342" lon="12.07073164142338"><ele>958.0</ele><time>2026-04-18T08:30:16Z</time></trkpt><trkpt lat="47.67259347961042" lon="12.07087173543992"><ele>958.0</ele><time>2026-04-18T08:30:17Z</time></trkpt><trkpt lat="47.67260104934866" lon="12.070992570588642"><ele>958.0</ele><time>2026-04-18T08:30:18Z</time></trkpt><trkpt lat="47.67261219906574" lon="12.071112257106176"><ele>958.0</ele><time>2026-04-18T08:30:19Z</time></trkpt><trkpt lat="47.6726314569522" lon="12.071222817576777"><ele>958.4999999999999</ele><time>2026-04-18T08:30:20Z</time></trkpt><trkpt lat="47.67266615058005" lon="12.071332110072989"><ele>959.0</ele><time>2026-04-18T08:30:21Z</time></trkpt><trkpt lat="47.67271675647256" lon="12.071431926590868"><ele>959.5</ele><time>2026-04-18T08:30:22Z</time></trkpt><trkpt lat="47.6727861048931" lon="12.071506142729719"><ele>960.0</ele><time>2026-04-18T08:30:23Z</time></trkpt><trkpt lat="47.672872146352454" lon="12.07153809825133"><ele>960.4999999999999</ele><time>2026-04-18T08:30:24Z</time></trkpt><trkpt lat="47.672976247133526" lon="12.07150047423173"><ele>961.0</ele><time>2026-04-18T08:30:25Z</time></trkpt><trkpt lat="47.67307164214627" lon="12.071403495333152"><ele>966.0</ele><time>2026-04-18T08:30:26Z</time></trkpt><trkpt lat="47.67314205939355" lon="12.071246192450756"><ele>971.0</ele><time>2026-04-18T08:30:27Z</time></trkpt><trkpt lat="47.67319098614652" lon="12.071045740496524"><ele>976.0</ele><time>2026-04-18T08:30:28Z</time></trkpt><trkpt lat="47.673231149139404" lon="12.07081560319906"><ele>981.0</ele><time>2026-04-18T08:30:29Z</time></trkpt><trkpt lat="47.673275359223815" lon="12.070579602527019"><ele>981.0</ele><time>2026-04-18T08:30:30Z</time></trkpt><trkpt lat="47.67332365534811" lon="12.070343811366758"><ele>981.0</ele><time>2026-04-18T08:30:31Z</time></trkpt><trkpt lat="47.67337218274924" lon="12.070124890220487"><ele>981.0</ele><time>2026-04-18T08:30:32Z</time></trkpt><trkpt lat="47.673413313878356" lon="12.069945471007445"><ele>981.0</ele><time>2026-04-18T08:30:33Z</time></trkpt><trkpt lat="47.673451382840355" lon="12.069782656880696"><ele>982.25</ele><time>2026-04-18T08:30:34Z</time></trkpt><trkpt lat="47.67348995176886" lon="12.069617015853623"><ele>983.5</ele><time>2026-04-18T08:30:35Z</time></trkpt><trkpt lat="47.673532863472836" lon="12.069449067479052"><ele>984.75</ele><time>2026-04-18T08:30:36Z</time></trkpt><trkpt lat="47.67358586190357" lon="12.069281267606293"><ele>986.0</ele><time>2026-04-18T08:30:37Z</time></trkpt><trkpt lat="47.673646712926086" lon="12.069108645418138"><ele>990.25</ele><time>2026-04-18T08:30:38Z</time></trkpt><trkpt lat="47.67371145726144" lon="12.068933114077348"><ele>994.5</ele><time>2026-04-18T08:30:39Z</time></trkpt><trkpt lat="47.6737906873752" lon="12.068757622475133"><ele>998.75</ele><time>2026-04-18T08:30:40Z</time></trkpt><trkpt lat="47.67388107218335" lon="12.068583481850062"><ele>1003.0</ele><time>2026-04-18T08:30:41Z</time></trkpt><trkpt lat="47.67398149551875" lon="12.068418404134311"><ele>1003.0</ele><time>2026-04-18T08:30:42Z</time></trkpt><trkpt lat="47.6740857661806" lon="12.06827974174748"><ele>1003.0</ele><time>2026-04-18T08:30:43Z</time></trkpt><trkpt lat="47.674189106777" lon="12.068168399934489"><ele>1003.0</ele><time>2026-04-18T08:30:44Z</time></trkpt><trkpt lat="47.67430089843777" lon="12.06806422625258"><ele>1003.0</ele><time>2026-04-18T08:30:45Z</time></trkpt><trkpt lat="47.674409964372785" lon="12.067948837496157"><ele>1006.0</ele><time>2026-04-18T08:30:46Z</time></trkpt><trkpt lat="47.674518369163" lon="12.06782502672799"><ele>1009.0</ele><time>2026-04-18T08:30:47Z</time></trkpt><trkpt lat="47.674620063229234" lon="12.067709611942842"><ele>1012.0</ele><time>2026-04-18T08:30:48Z</time></trkpt><trkpt lat="47.674715008375195" lon="12.067586434489494"><ele>1015.0</ele><time>2026-04-18T08:30:49Z</time></trkpt><trkpt lat="47.674799094110334" lon="12.067442646218291"><ele>1015.0</ele><time>2026-04-18T08:30:50Z</time></trkpt><trkpt lat="47.67487138440117" lon="12.067275435649313"><ele>1015.0</ele><time>2026-04-18T08:30:51Z</time></trkpt><trkpt lat="47.67492874291554" lon="12.067086450665212"><ele>1015.0</ele><time>2026-04-18T08:30:52Z</time></trkpt><trkpt lat="47.674970138109835" lon="12.06689488929339"><ele>1015.0</ele><time>2026-04-18T08:30:53Z</time></trkpt><trkpt lat="47.67499075321971" lon="12.066713908655084"><ele>1013.6</ele><time>2026-04-18T08:30:54Z</time></trkpt><trkpt lat="47.67500190591195" lon="12.06653348184308"><ele>1012.2</ele><time>2026-04-18T08:30:55Z</time></trkpt><trkpt lat="47.675017595225604" lon="12.066371684105965"><ele>1010.8</ele><time>2026-04-18T08:30:56Z</time></trkpt><trkpt lat="47.67503930364455" lon="12.066227080958562"><ele>1009.4</ele><time>2026-04-18T08:30:57Z</time></trkpt><trkpt lat="47.67507321646149" lon="12.06607298705551"><ele>1008.0</ele><time>2026-04-18T08:30:58Z</time></trkpt><trkpt lat="47.67512489558047" lon="12.065936448826351"><ele>1008.0</ele><time>2026-04-18T08:30:59Z</time></trkpt><trkpt lat="47.67519745551618" lon="12.06581611514252"><ele>1008.0</ele><time>2026-04-18T08:31:00Z</time></trkpt><trkpt lat="47.67528573956916" lon="12.065715738371956"><ele>1008.0</ele><time>2026-04-18T08:31:01Z</time></trkpt><trkpt lat="47.67539815412008" lon="12.065633815632417"><ele>1008.0</ele><time>2026-04-18T08:31:02Z</time></trkpt><trkpt lat="47.675525899620034" lon="12.065577051442471"><ele>1007.0</ele><time>2026-04-18T08:31:03Z</time></trkpt><trkpt lat="47.67567013844501" lon="12.065549502606414"><ele>1006.0</ele><time>2026-04-18T08:31:04Z</time></trkpt><trkpt lat="47.67582349975699" lon="12.065528918184949"><ele>1005.0</ele><time>2026-04-18T08:31:05Z</time></trkpt><trkpt lat="47.67597121752356" lon="12.065496131789326"><ele>1004.0</ele><time>2026-04-18T08:31:06Z</time></trkpt><trkpt lat="47.676110878638745" lon="12.065449111189665"><ele>1006.6666666666667</ele><time>2026-04-18T08:31:07Z</time></trkpt><trkpt lat="47.67624889169063" lon="12.065378260687929"><ele>1009.3333333333333</ele><time>2026-04-18T08:31:08Z</time></trkpt><trkpt lat="47.67638857340941" lon="12.065296676574148"><ele>1012.0</ele><time>2026-04-18T08:31:09Z</time></trkpt><trkpt lat="47.67653620798925" lon="12.06519429108955"><ele>1012.0</ele><time>2026-04-18T08:31:10Z</time></trkpt><trkpt lat="47.6766742053613" lon="12.065085271643818"><ele>1012.0</ele><time>2026-04-18T08:31:11Z</time></trkpt><trkpt lat="47.6767935522077" lon="12.064965394475243"><ele>1012.0</ele><time>2026-04-18T08:31:12Z</time></trkpt><trkpt lat="47.67690615934986" lon="12.064846454667236"><ele>1012.0</ele><time>2026-04-18T08:31:13Z</time></trkpt><trkpt lat="47.67702264201435" lon="12.064727106035933"><ele>1012.75</ele><time>2026-04-18T08:31:14Z</time></trkpt><trkpt lat="47.67714092434194" lon="12.064598199665872"><ele>1013.5</ele><time>2026-04-18T08:31:15Z</time></trkpt><trkpt lat="47.67726162237358" lon="12.064469148293314"><ele>1014.25</ele><time>2026-04-18T08:31:16Z</time></trkpt><trkpt lat="47.677387293341425" lon="12.06434290983197"><ele>1015.0</ele><time>2026-04-18T08:31:17Z</time></trkpt><trkpt lat="47.6775162523416" lon="12.064217011489243"><ele>1014.25</ele><time>2026-04-18T08:31:18Z</time></trkpt><trkpt lat="47.67764715608261" lon="12.064093326592435"><ele>1013.5</ele><time>2026-04-18T08:31:19Z</time></trkpt><trkpt lat="47.67776922318223" lon="12.06398095645705"><ele>1012.75</ele><time>2026-04-18T08:31:20Z</time></trkpt><trkpt lat="47.677883280981504" lon="12.063878434352803"><ele>1012.0</ele><time>2026-04-18T08:31:21Z</time></trkpt><trkpt lat="47.67799507483817" lon="12.063772477969655"><ele>1012.0</ele><time>2026-04-18T08:31:22Z</time></trkpt><trkpt lat="47.67810852562235" lon="12.063664789754043"><ele>1012.0</ele><time>2026-04-18T08:31:23Z</time></trkpt><trkpt lat="47.67821805312408" lon="12.063539678241101"><ele>1012.0</ele><time>2026-04-18T08:31:24Z</time></trkpt><trkpt lat="47.67832040955107" lon="12.063399203454274"><ele>1012.0</ele><time>2026-04-18T08:31:25Z</time></trkpt><trkpt lat="47.67841570899771" lon="12.063245235012362"><ele>1007.6666666666666</ele><time>2026-04-18T08:31:26Z</time></trkpt><trkpt lat="47.67850409976335" lon="12.063069181502"><ele>1003.3333333333333</ele><time>2026-04-18T08:31:27Z</time></trkpt><trkpt lat="47.678582425903485" lon="12.06287705971238"><ele>999.0</ele><time>2026-04-18T08:31:28Z</time></trkpt><trkpt lat="47.678647534166444" lon="12.062663965987591"><ele>1004.3333333333333</ele><time>2026-04-18T08:31:29Z</time></trkpt><trkpt lat="47.678706686098145" lon="12.062444512416839"><ele>1009.6666666666666</ele><time>2026-04-18T08:31:30Z</time></trkpt><trkpt lat="47.678766015223864" lon="12.062237003991822"><ele>1015.0</ele><time>2026-04-18T08:31:31Z</time></trkpt><trkpt lat="47.67882714208542" lon="12.062044770885606"><ele>1015.0</ele><time>2026-04-18T08:31:32Z</time></trkpt><trkpt lat="47.678882843445464" lon="12.061864383434468"><ele>1015.0</ele><time>2026-04-18T08:31:33Z</time></trkpt><trkpt lat="47.67894103168607" lon="12.061689292210092"><ele>1015.0</ele><time>2026-04-18T08:31:34Z</time></trkpt><trkpt lat="47.679014949935315" lon="12.061521859721239"><ele>1015.0</ele><time>2026-04-18T08:31:35Z</time></trkpt><trkpt lat="47.67911780561708" lon="12.06136649193616"><ele>1013.6666666666666</ele><time>2026-04-18T08:31:36Z</time></trkpt><trkpt lat="47.67923736958972" lon="12.061230404452843"><ele>1012.3333333333333</ele><time>2026-04-18T08:31:37Z</time></trkpt><trkpt lat="47.67937123156237" lon="12.061116693843983"><ele>1011.0</ele><time>2026-04-18T08:31:38Z</time></trkpt><trkpt lat="47.67951664213619" lon="12.061006945901886"><ele>1011.0</ele><time>2026-04-18T08:31:39Z</time></trkpt><trkpt lat="47.6796575893967" lon="12.060891671127957"><ele>1011.0</ele><time>2026-04-18T08:31:40Z</time></trkpt><trkpt lat="47.67979017748217" lon="12.060781552596474"><ele>1011.0</ele><time>2026-04-18T08:31:41Z</time></trkpt><trkpt lat="47.679919151888555" lon="12.060677204916718"><ele>1006.0</ele><time>2026-04-18T08:31:42Z</time></trkpt><trkpt lat="47.68005666595804" lon="12.06056618143072"><ele>1001.0</ele><time>2026-04-18T08:31:43Z</time></trkpt><trkpt lat="47.68019795654446" lon="12.060452379180825"><ele>996.0</ele><time>2026-04-18T08:31:44Z</time></trkpt><trkpt lat="47.68033476167973" lon="12.060344223494324"><ele>996.0</ele><time>2026-04-18T08:31:45Z</time></trkpt><trkpt lat="47.68047069675659" lon="12.060238221036581"><ele>996.0</ele><time>2026-04-18T08:31:46Z</time></trkpt><trkpt lat="47.680598337064446" lon="12.060136403608732"><ele>996.0</ele><time>2026-04-18T08:31:47Z</time></trkpt><trkpt lat="47.680733943549406" lon="12.060027201964198"><ele>992.6666666666667</ele><time>2026-04-18T08:31:48Z</time></trkpt><trkpt lat="47.68088075115501" lon="12.059909975913218"><ele>989.3333333333334</ele><time>2026-04-18T08:31:49Z</time></trkpt><trkpt lat="47.681024152199775" lon="12.05979931568306"><ele>986.0</ele><time>2026-04-18T08:31:50Z</time></trkpt><trkpt lat="47.681154351323556" lon="12.059698205305326"><ele>986.0</ele><time>2026-04-18T08:31:51Z</time></trkpt><trkpt lat="47.681275973860004" lon="12.05960176009458"><ele>986.0</ele><time>2026-04-18T08:31:52Z</time></trkpt><trkpt lat="47.681393979140815" lon="12.059505526260393"><ele>986.0</ele><time>2026-04-18T08:31:53Z</time></trkpt><trkpt lat="47.68150738794812" lon="12.05941403233473"><ele>986.0</ele><time>2026-04-18T08:31:54Z</time></trkpt><trkpt lat="47.681616474692774" lon="12.059327801011817"><ele>986.0</ele><time>2026-04-18T08:31:55Z</time></trkpt><trkpt lat="47.681722256570026" lon="12.059245637288404"><ele>985.9999999999999</ele><time>2026-04-18T08:31:56Z</time></trkpt><trkpt lat="47.681818942192585" lon="12.059170355430798"><ele>985.9999999999999</ele><time>2026-04-18T08:31:57Z</time></trkpt><trkpt lat="47.68190851146253" lon="12.059104892408287"><ele>986.0</ele><time>2026-04-18T08:31:58Z</time></trkpt><trkpt lat="47.68199393213425" lon="12.059040760720602"><ele>986.0</ele><time>2026-04-18T08:31:59Z</time></trkpt><trkpt lat="47.682077765969005" lon="12.058980179328755"><ele>985.5000000000001</ele><time>2026-04-18T08:32:00Z</time></trkpt><trkpt lat="47.68215064661332" lon="12.058927915852331"><ele>985.0</ele><time>2026-04-18T08:32:01Z</time></trkpt><trkpt lat="47.68222164230994" lon="12.058879454274559"><ele>984.5</ele><time>2026-04-18T08:32:02Z</time></trkpt><trkpt lat="47.682279450771674" lon="12.058839497848467"><ele>984.0</ele><time>2026-04-18T08:32:03Z</time></trkpt><trkpt lat="47.682364800282045" lon="12.058782286408649"><ele>983.5000000000001</ele><time>2026-04-18T08:32:05Z</time></trkpt><trkpt lat="47.68245520005633" lon="12.058717796138266"><ele>983.0</ele><time>2026-04-18T08:32:15Z</time></trkpt><trkpt lat="47.68251736512522" lon="12.058663846138138"><ele>983.0</ele><time>2026-04-18T08:32:16Z</time></trkpt><trkpt lat="47.682590238762174" lon="12.058620975748928"><ele>983.0</ele><time>2026-04-18T08:32:17Z</time></trkpt><trkpt lat="47.682683211224095" lon="12.05856867628173"><ele>983.0</ele><time>2026-04-18T08:32:18Z</time></trkpt><trkpt lat="47.68280056863707" lon="12.058502299363376"><ele>983.0</ele><time>2026-04-18T08:32:19Z</time></trkpt><trkpt lat="47.68292351198498" lon="12.058430045558959"><ele>983.0</ele><time>2026-04-18T08:32:20Z</time></trkpt><trkpt lat="47.683066500465785" lon="12.058355873324798"><ele>983.0</ele><time>2026-04-18T08:32:21Z</time></trkpt><trkpt lat="47.68322800330644" lon="12.058271658143857"><ele>983.0</ele><time>2026-04-18T08:32:22Z</time></trkpt><trkpt lat="47.683397485412854" lon="12.058177324008549"><ele>983.0</ele><time>2026-04-18T08:32:23Z</time></trkpt><trkpt lat="47.683579003800865" lon="12.058074442771499"><ele>986.0</ele><time>2026-04-18T08:32:24Z</time></trkpt><trkpt lat="47.68376800181705" lon="12.05797218158963"><ele>989.0</ele><time>2026-04-18T08:32:25Z</time></trkpt><trkpt lat="47.68396737317795" lon="12.057866937566624"><ele>992.0</ele><time>2026-04-18T08:32:26Z</time></trkpt><trkpt lat="47.684185792396676" lon="12.05774844607993"><ele>992.0</ele><time>2026-04-18T08:32:27Z</time></trkpt><trkpt lat="47.684392444720004" lon="12.057643206599002"><ele>992.0</ele><time>2026-04-18T08:32:28Z</time></trkpt><trkpt lat="47.68457476964688" lon="12.057551867183381"><ele>992.0</ele><time>2026-04-18T08:32:29Z</time></trkpt><trkpt lat="47.68474329265095" lon="12.057473854110164"><ele>992.3333333333334</ele><time>2026-04-18T08:32:30Z</time></trkpt><trkpt lat="47.684910169654906" lon="12.0574097935963"><ele>992.6666666666667</ele><time>2026-04-18T08:32:31Z</time></trkpt><trkpt lat="47.685078597127884" lon="12.057379676758336"><ele>993.0</ele><time>2026-04-18T08:32:32Z</time></trkpt><trkpt lat="47.68523026704095" lon="12.057368142755827"><ele>993.75</ele><time>2026-04-18T08:32:33Z</time></trkpt><trkpt lat="47.68537613832777" lon="12.057356508807622"><ele>994.5</ele><time>2026-04-18T08:32:34Z</time></trkpt><trkpt lat="47.685523060424536" lon="12.0573357123579"><ele>995.25</ele><time>2026-04-18T08:32:35Z</time></trkpt><trkpt lat="47.685657242632864" lon="12.05731756660172"><ele>996.0</ele><time>2026-04-18T08:32:36Z</time></trkpt><trkpt lat="47.68578182340878" lon="12.057298854971807"><ele>996.0</ele><time>2026-04-18T08:32:37Z</time></trkpt><trkpt lat="47.685902845571185" lon="12.057263369216649"><ele>996.0</ele><time>2026-04-18T08:32:38Z</time></trkpt><trkpt lat="47.68602469350435" lon="12.057197101236097"><ele>996.0</ele><time>2026-04-18T08:32:39Z</time></trkpt><trkpt lat="47.68614426264245" lon="12.057104264051974"><ele>996.0</ele><time>2026-04-18T08:32:40Z</time></trkpt><trkpt lat="47.68625299916233" lon="12.05699013409304"><ele>996.0</ele><time>2026-04-18T08:32:41Z</time></trkpt><trkpt lat="47.68635171860813" lon="12.056839681921046"><ele>996.0</ele><time>2026-04-18T08:32:42Z</time></trkpt><trkpt lat="47.68643934970248" lon="12.056658574841931"><ele>996.0</ele><time>2026-04-18T08:32:43Z</time></trkpt><trkpt lat="47.68650863089564" lon="12.056463994518078"><ele>996.0</ele><time>2026-04-18T08:32:44Z</time></trkpt><trkpt lat="47.6865559047431" lon="12.056264144534481"><ele>996.0</ele><time>2026-04-18T08:32:45Z</time></trkpt><trkpt lat="47.6865823335439" lon="12.056065011441845"><ele>996.0</ele><time>2026-04-18T08:32:46Z</time></trkpt><trkpt lat="47.68658561458187" lon="12.055860354032605"><ele>996.0</ele><time>2026-04-18T08:32:47Z</time></trkpt><trkpt lat="47.686567245183106" lon="12.055660295303115"><ele>996.0</ele><time>2026-04-18T08:32:48Z</time></trkpt><trkpt lat="47.68652974872866" lon="12.055461321937043"><ele>998.0</ele><time>2026-04-18T08:32:49Z</time></trkpt><trkpt lat="47.68647662762696" lon="12.055276242122384"><ele>1000.0</ele><time>2026-04-18T08:32:50Z</time></trkpt><trkpt lat="47.68640692136164" lon="12.055108387072377"><ele>1002.0</ele><time>2026-04-18T08:32:51Z</time></trkpt><trkpt lat="47.686319083164115" lon="12.054958825162378"><ele>1004.0</ele><time>2026-04-18T08:32:52Z</time></trkpt><trkpt lat="47.68621438891976" lon="12.054832445391739"><ele>1005.5</ele><time>2026-04-18T08:32:53Z</time></trkpt><trkpt lat="47.68609901722437" lon="12.054723463200764"><ele>1007.0</ele><time>2026-04-18T08:32:54Z</time></trkpt><trkpt lat="47.685973520380585" lon="12.054637198107647"><ele>1008.5</ele><time>2026-04-18T08:32:55Z</time></trkpt><trkpt lat="47.68583627976492" lon="12.05458825544106"><ele>1010.0</ele><time>2026-04-18T08:32:56Z</time></trkpt><trkpt lat="47.68569192004327" lon="12.054570587502733"><ele>1010.0</ele><time>2026-04-18T08:32:57Z</time></trkpt><trkpt lat="47.68555329914609" lon="12.054574373208654"><ele>1010.0</ele><time>2026-04-18T08:32:58Z</time></trkpt><trkpt lat="47.68541363802358" lon="12.054594093947989"><ele>1010.0</ele><time>2026-04-18T08:32:59Z</time></trkpt><trkpt lat="47.68525650559166" lon="12.054636182213413"><ele>1010.0</ele><time>2026-04-18T08:33:00Z</time></trkpt><trkpt lat="47.68508417001711" lon="12.05469896910781"><ele>1012.3333333333334</ele><time>2026-04-18T08:33:01Z</time></trkpt><trkpt lat="47.6849184718319" lon="12.054768396564269"><ele>1014.6666666666667</ele><time>2026-04-18T08:33:02Z</time></trkpt><trkpt lat="47.684767289161954" lon="12.054823389618708"><ele>1017.0</ele><time>2026-04-18T08:33:03Z</time></trkpt><trkpt lat="47.68463112106347" lon="12.054864240547014"><ele>1017.0</ele><time>2026-04-18T08:33:04Z</time></trkpt><trkpt lat="47.68450357844088" lon="12.054896306825906"><ele>1017.0</ele><time>2026-04-18T08:33:05Z</time></trkpt><trkpt lat="47.68436904830127" lon="12.05490834289562"><ele>1017.0</ele><time>2026-04-18T08:33:06Z</time></trkpt><trkpt lat="47.684222457224436" lon="12.054886003946212"><ele>1017.0</ele><time>2026-04-18T08:33:07Z</time></trkpt><trkpt lat="47.68407979083317" lon="12.054853305467121"><ele>1021.0</ele><time>2026-04-18T08:33:08Z</time></trkpt><trkpt lat="47.68395471102517" lon="12.054817159122697"><ele>1025.0</ele><time>2026-04-18T08:33:09Z</time></trkpt><trkpt lat="47.68382594849906" lon="12.054787211367486"><ele>1029.0</ele><time>2026-04-18T08:33:10Z</time></trkpt><trkpt lat="47.68368529908983" lon="12.054776466774412"><ele>1033.0</ele><time>2026-04-18T08:33:11Z</time></trkpt><trkpt lat="47.68353292921248" lon="12.054771774800603"><ele>1034.0</ele><time>2026-04-18T08:33:12Z</time></trkpt><trkpt lat="47.68339154603775" lon="12.054786819502752"><ele>1035.0</ele><time>2026-04-18T08:33:13Z</time></trkpt><trkpt lat="47.683258296068594" lon="12.054809384249694"><ele>1036.0</ele><time>2026-04-18T08:33:14Z</time></trkpt><trkpt lat="47.68313025607226" lon="12.054835729528701"><ele>1037.0</ele><time>2026-04-18T08:33:15Z</time></trkpt><trkpt lat="47.68300800580296" lon="12.054864226616505"><ele>1037.0</ele><time>2026-04-18T08:33:16Z</time></trkpt><trkpt lat="47.6828855694427" lon="12.054892666355146"><ele>1037.0</ele><time>2026-04-18T08:33:17Z</time></trkpt><trkpt lat="47.682765558136616" lon="12.054923115306577"><ele>1037.0</ele><time>2026-04-18T08:33:18Z</time></trkpt><trkpt lat="47.68264601698667" lon="12.054941825453376"><ele>1037.0</ele><time>2026-04-18T08:33:19Z</time></trkpt><trkpt lat="47.682521504438625" lon="12.05493765438674"><ele>1037.0</ele><time>2026-04-18T08:33:20Z</time></trkpt><trkpt lat="47.68239156338546" lon="12.054913839096367"><ele>1037.0</ele><time>2026-04-18T08:33:21Z</time></trkpt><trkpt lat="47.682256657588724" lon="12.054873197007566"><ele>1037.0</ele><time>2026-04-18T08:33:22Z</time></trkpt><trkpt lat="47.68212375090409" lon="12.054823603402854"><ele>1037.0</ele><time>2026-04-18T08:33:23Z</time></trkpt><trkpt lat="47.6820121627825" lon="12.054777313709442"><ele>1035.5</ele><time>2026-04-18T08:33:24Z</time></trkpt><trkpt lat="47.681900164095225" lon="12.054731846535525"><ele>1034.0</ele><time>2026-04-18T08:33:25Z</time></trkpt><trkpt lat="47.68178999170383" lon="12.054682562243473"><ele>1032.5</ele><time>2026-04-18T08:33:26Z</time></trkpt><trkpt lat="47.68167397457224" lon="12.054628538122914"><ele>1031.0</ele><time>2026-04-18T08:33:27Z</time></trkpt><trkpt lat="47.6815622853692" lon="12.054551256465345"><ele>1031.0</ele><time>2026-04-18T08:33:28Z</time></trkpt><trkpt lat="47.681457892773" lon="12.054445377120784"><ele>1031.0</ele><time>2026-04-18T08:33:29Z</time></trkpt><trkpt lat="47.681359889462954" lon="12.054314660737258"><ele>1031.0</ele><time>2026-04-18T08:33:30Z</time></trkpt><trkpt lat="47.68126929203032" lon="12.05416563637682"><ele>1031.0</ele><time>2026-04-18T08:33:31Z</time></trkpt><trkpt lat="47.68119474763539" lon="12.054002339237789"><ele>1034.75</ele><time>2026-04-18T08:33:32Z</time></trkpt><trkpt lat="47.68114698476089" lon="12.053816076887689"><ele>1038.5</ele><time>2026-04-18T08:33:33Z</time></trkpt><trkpt lat="47.68111401843741" lon="12.053616599430628"><ele>1042.25</ele><time>2026-04-18T08:33:34Z</time></trkpt><trkpt lat="47.68110113383997" lon="12.053403107238992"><ele>1046.0</ele><time>2026-04-18T08:33:35Z</time></trkpt><trkpt lat="47.68111200408517" lon="12.053180630940252"><ele>1046.3333333333335</ele><time>2026-04-18T08:33:36Z</time></trkpt><trkpt lat="47.681138515087156" lon="12.052949112223013"><ele>1046.6666666666667</ele><time>2026-04-18T08:33:37Z</time></trkpt><trkpt lat="47.68116932086128" lon="12.052716406532547"><ele>1047.0</ele><time>2026-04-18T08:33:38Z</time></trkpt><trkpt lat="47.681212815530074" lon="12.052488190453966"><ele>1045.0</ele><time>2026-04-18T08:33:39Z</time></trkpt><trkpt lat="47.68126203945666" lon="12.052249345779002"><ele>1043.0</ele><time>2026-04-18T08:33:40Z</time></trkpt><trkpt lat="47.68129901935728" lon="12.052019347801979"><ele>1041.0</ele><time>2026-04-18T08:33:41Z</time></trkpt><trkpt lat="47.68133294246032" lon="12.0518165378596"><ele>1041.0</ele><time>2026-04-18T08:33:42Z</time></trkpt><trkpt lat="47.68136552490949" lon="12.051626814562052"><ele>1041.0</ele><time>2026-04-18T08:33:43Z</time></trkpt><trkpt lat="47.68140043779977" lon="12.051446717923614"><ele>1041.0</ele><time>2026-04-18T08:33:44Z</time></trkpt><trkpt lat="47.68144094086001" lon="12.051272096509072"><ele>1041.0</ele><time>2026-04-18T08:33:45Z</time></trkpt><trkpt lat="47.68148664008942" lon="12.051097622033183"><ele>1039.75</ele><time>2026-04-18T08:33:46Z</time></trkpt><trkpt lat="47.681540462933015" lon="12.050916379934064"><ele>1038.5</ele><time>2026-04-18T08:33:47Z</time></trkpt><trkpt lat="47.68159534098026" lon="12.050720186044467"><ele>1037.25</ele><time>2026-04-18T08:33:48Z</time></trkpt><trkpt lat="47.681646172271705" lon="12.050526576531915"><ele>1036.0</ele><time>2026-04-18T08:33:49Z</time></trkpt><trkpt lat="47.681695515485195" lon="12.050337833479517"><ele>1034.75</ele><time>2026-04-18T08:33:50Z</time></trkpt><trkpt lat="47.68174599721542" lon="12.050141085215373"><ele>1033.5</ele><time>2026-04-18T08:33:51Z</time></trkpt><trkpt lat="47.68180023858481" lon="12.04993859484519"><ele>1032.25</ele><time>2026-04-18T08:33:52Z</time></trkpt><trkpt lat="47.68185606163326" lon="12.049736501838076"><ele>1031.0</ele><time>2026-04-18T08:33:53Z</time></trkpt><trkpt lat="47.68191184446627" lon="12.049535265265199"><ele>1034.75</ele><time>2026-04-18T08:33:54Z</time></trkpt><trkpt lat="47.681968957914584" lon="12.04933425296577"><ele>1038.5</ele><time>2026-04-18T08:33:55Z</time></trkpt><trkpt lat="47.68202885719633" lon="12.049132717488938"><ele>1042.25</ele><time>2026-04-18T08:33:56Z</time></trkpt><trkpt lat="47.68209695482238" lon="12.048930561763324"><ele>1046.0</ele><time>2026-04-18T08:33:57Z</time></trkpt><trkpt lat="47.682165179808486" lon="12.048744170500761"><ele>1046.0</ele><time>2026-04-18T08:33:58Z</time></trkpt><trkpt lat="47.68223355771906" lon="12.048562185558476"><ele>1046.0</ele><time>2026-04-18T08:33:59Z</time></trkpt><trkpt lat="47.68229453744189" lon="12.0483826967877"><ele>1046.0</ele><time>2026-04-18T08:34:00Z</time></trkpt><trkpt lat="47.68234439034912" lon="12.048205741619544"><ele>1046.0</ele><time>2026-04-18T08:34:01Z</time></trkpt><trkpt lat="47.68241212297965" lon="12.048027921658184"><ele>1047.0</ele><time>2026-04-18T08:34:02Z</time></trkpt><trkpt lat="47.68250079660439" lon="12.04785704071122"><ele>1048.0</ele><time>2026-04-18T08:34:03Z</time></trkpt><trkpt lat="47.68259641965747" lon="12.047701929888165"><ele>1049.0</ele><time>2026-04-18T08:34:04Z</time></trkpt><trkpt lat="47.68269813568023" lon="12.047558810272292"><ele>1050.0</ele><time>2026-04-18T08:34:05Z</time></trkpt><trkpt lat="47.682804025265135" lon="12.047423318667425"><ele>1050.0</ele><time>2026-04-18T08:34:06Z</time></trkpt><trkpt lat="47.68290664449008" lon="12.04729872220718"><ele>1050.0</ele><time>2026-04-18T08:34:07Z</time></trkpt><trkpt lat="47.68299674881274" lon="12.047193154391467"><ele>1050.0</ele><time>2026-04-18T08:34:08Z</time></trkpt><trkpt lat="47.68308296308311" lon="12.047080590819903"><ele>1050.0</ele><time>2026-04-18T08:34:09Z</time></trkpt><trkpt lat="47.68316958231196" lon="12.046963423700928"><ele>1050.0</ele><time>2026-04-18T08:34:10Z</time></trkpt><trkpt lat="47.683258017494026" lon="12.046844276956225"><ele>1050.0</ele><time>2026-04-18T08:34:11Z</time></trkpt><trkpt lat="47.683353426302695" lon="12.046715240508636"><ele>1050.0</ele><time>2026-04-18T08:34:12Z</time></trkpt><trkpt lat="47.68345241131128" lon="12.046578562356784"><ele>1050.0</ele><time>2026-04-18T08:34:13Z</time></trkpt><trkpt lat="47.683550978376175" lon="12.046444113432095"><ele>1053.75</ele><time>2026-04-18T08:34:14Z</time></trkpt><trkpt lat="47.68364824952392" lon="12.04631632060882"><ele>1057.5</ele><time>2026-04-18T08:34:15Z</time></trkpt><trkpt lat="47.68373534309112" lon="12.04618796522115"><ele>1061.25</ele><time>2026-04-18T08:34:16Z</time></trkpt><trkpt lat="47.68382029216778" lon="12.046055291089726"><ele>1065.0</ele><time>2026-04-18T08:34:17Z</time></trkpt><trkpt lat="47.68390101609035" lon="12.045940698104472"><ele>1065.0</ele><time>2026-04-18T08:34:18Z</time></trkpt><trkpt lat="47.68398308499714" lon="12.04582593893623"><ele>1065.0</ele><time>2026-04-18T08:34:19Z</time></trkpt><trkpt lat="47.684046874938" lon="12.045679103171675"><ele>1065.0</ele><time>2026-04-18T08:34:20Z</time></trkpt><trkpt lat="47.684087339201476" lon="12.045501024047073"><ele>1065.0</ele><time>2026-04-18T08:34:21Z</time></trkpt><trkpt lat="47.68410702473742" lon="12.045301668814922"><ele>1063.5</ele><time>2026-04-18T08:34:22Z</time></trkpt><trkpt lat="47.68410840649326" lon="12.045083529761827"><ele>1062.0</ele><time>2026-04-18T08:34:23Z</time></trkpt><trkpt lat="47.68410148966553" lon="12.044891480367967"><ele>1060.5</ele><time>2026-04-18T08:34:24Z</time></trkpt><trkpt lat="47.684091789315474" lon="12.044716000036058"><ele>1059.0</ele><time>2026-04-18T08:34:25Z</time></trkpt><trkpt lat="47.68407839190665" lon="12.044534015650838"><ele>1057.75</ele><time>2026-04-18T08:34:26Z</time></trkpt><trkpt lat="47.6840893424679" lon="12.044344112992938"><ele>1056.5</ele><time>2026-04-18T08:34:27Z</time></trkpt><trkpt lat="47.68412141644095" lon="12.04414531206196"><ele>1055.25</ele><time>2026-04-18T08:34:28Z</time></trkpt><trkpt lat="47.68418052969305" lon="12.043936449804187"><ele>1054.0</ele><time>2026-04-18T08:34:29Z</time></trkpt><trkpt lat="47.68425946059152" lon="12.043728234397573"><ele>1052.5</ele><time>2026-04-18T08:34:30Z</time></trkpt><trkpt lat="47.68435258937878" lon="12.04353800241711"><ele>1051.0</ele><time>2026-04-18T08:34:31Z</time></trkpt><trkpt lat="47.68443896646727" lon="12.043370312018396"><ele>1049.5</ele><time>2026-04-18T08:34:32Z</time></trkpt><trkpt lat="47.6845171393418" lon="12.04322431379704"><ele>1048.0</ele><time>2026-04-18T08:34:33Z</time></trkpt><trkpt lat="47.68457874127695" lon="12.043095611158098"><ele>1051.6666666666665</ele><time>2026-04-18T08:34:34Z</time></trkpt><trkpt lat="47.68462778600873" lon="12.042986629111864"><ele>1055.3333333333333</ele><time>2026-04-18T08:34:35Z</time></trkpt><trkpt lat="47.684670998576806" lon="12.04289142873915"><ele>1059.0</ele><time>2026-04-18T08:34:36Z</time></trkpt><trkpt lat="47.68472033692483" lon="12.04278382848855"><ele>1062.6666666666667</ele><time>2026-04-18T08:34:37Z</time></trkpt><trkpt lat="47.68476783097478" lon="12.042678743723348"><ele>1066.3333333333335</ele><time>2026-04-18T08:34:38Z</time></trkpt><trkpt lat="47.684809096708264" lon="12.04258719973454"><ele>1070.0</ele><time>2026-04-18T08:34:39Z</time></trkpt><trkpt lat="47.68485284636517" lon="12.042493028313077"><ele>1068.8333333333335</ele><time>2026-04-18T08:34:40Z</time></trkpt><trkpt lat="47.6848939198476" lon="12.042397254458287"><ele>1067.6666666666667</ele><time>2026-04-18T08:34:41Z</time></trkpt><trkpt lat="47.684935224775955" lon="12.04229560199245"><ele>1066.5</ele><time>2026-04-18T08:34:42Z</time></trkpt><trkpt lat="47.684970972729445" lon="12.042201780198793"><ele>1065.3333333333333</ele><time>2026-04-18T08:34:43Z</time></trkpt><trkpt lat="47.685003154328484" lon="12.04210183150257"><ele>1064.1666666666665</ele><time>2026-04-18T08:34:44Z</time></trkpt><trkpt lat="47.68503023689809" lon="12.042002727531413"><ele>1063.0</ele><time>2026-04-18T08:34:45Z</time></trkpt><trkpt lat="47.685066953197236" lon="12.041814004502504"><ele>1063.0</ele><time>2026-04-18T08:34:47Z</time></trkpt><trkpt lat="47.68506653801005" lon="12.041696971376663"><ele>1063.0</ele><time>2026-04-18T08:34:48Z</time></trkpt><trkpt lat="47.685059175310236" lon="12.041570198223395"><ele>1063.0</ele><time>2026-04-18T08:34:49Z</time></trkpt><trkpt lat="47.68504216138957" lon="12.04145446259221"><ele>1063.0</ele><time>2026-04-18T08:34:50Z</time></trkpt><trkpt lat="47.68502361703123" lon="12.041323367419562"><ele>1063.0</ele><time>2026-04-18T08:34:51Z</time></trkpt><trkpt lat="47.68499860317155" lon="12.041197374602133"><ele>1063.0</ele><time>2026-04-18T08:34:52Z</time></trkpt><trkpt lat="47.68497278550819" lon="12.041074439837757"><ele>1062.7142857142858</ele><time>2026-04-18T08:34:53Z</time></trkpt><trkpt lat="47.68494797133641" lon="12.040963289749126"><ele>1062.4285714285716</ele><time>2026-04-18T08:34:54Z</time></trkpt><trkpt lat="47.684922516682484" lon="12.04086158850894"><ele>1062.1428571428573</ele><time>2026-04-18T08:34:55Z</time></trkpt><trkpt lat="47.68489640028178" lon="12.040766412746564"><ele>1061.857142857143</ele><time>2026-04-18T08:34:56Z</time></trkpt><trkpt lat="47.684869406620656" lon="12.040674353073344"><ele>1061.5714285714287</ele><time>2026-04-18T08:34:57Z</time></trkpt><trkpt lat="47.68483108877366" lon="12.040586490057176"><ele>1061.2857142857144</ele><time>2026-04-18T08:34:58Z</time></trkpt><trkpt lat="47.68481793727377" lon="12.040475252844965"><ele>1061.0</ele><time>2026-04-18T08:34:59Z</time></trkpt><trkpt lat="47.684793265681336" lon="12.04035794312023"><ele>1063.8</ele><time>2026-04-18T08:35:00Z</time></trkpt><trkpt lat="47.684755000941145" lon="12.040242236973517"><ele>1066.6</ele><time>2026-04-18T08:35:01Z</time></trkpt><trkpt lat="47.6847089139356" lon="12.040126383342356"><ele>1069.4</ele><time>2026-04-18T08:35:02Z</time></trkpt><trkpt lat="47.68466463168238" lon="12.04000498409952"><ele>1072.2</ele><time>2026-04-18T08:35:03Z</time></trkpt><trkpt lat="47.68462327503998" lon="12.03988078326819"><ele>1075.0</ele><time>2026-04-18T08:35:04Z</time></trkpt><trkpt lat="47.68458718394663" lon="12.03975933157683"><ele>1075.5</ele><time>2026-04-18T08:35:05Z</time></trkpt><trkpt lat="47.68455500819926" lon="12.039648808137697"><ele>1076.0</ele><time>2026-04-18T08:35:06Z</time></trkpt><trkpt lat="47.68452409295943" lon="12.039550764740468"><ele>1076.5</ele><time>2026-04-18T08:35:07Z</time></trkpt><trkpt lat="47.684498188224694" lon="12.039459789846182"><ele>1077.0</ele><time>2026-04-18T08:35:08Z</time></trkpt><trkpt lat="47.68447506387973" lon="12.039365482227845"><ele>1077.5</ele><time>2026-04-18T08:35:09Z</time></trkpt><trkpt lat="47.684451412811526" lon="12.03925332180613"><ele>1078.0</ele><time>2026-04-18T08:35:10Z</time></trkpt><trkpt lat="47.68442829631332" lon="12.039122613717296"><ele>1078.0</ele><time>2026-04-18T08:35:11Z</time></trkpt><trkpt lat="47.684410632994094" lon="12.038982881212647"><ele>1078.0</ele><time>2026-04-18T08:35:12Z</time></trkpt><trkpt lat="47.6844045722423" lon="12.038834896951638"><ele>1078.0</ele><time>2026-04-18T08:35:13Z</time></trkpt><trkpt lat="47.68441174916945" lon="12.038686618099744"><ele>1078.0</ele><time>2026-04-18T08:35:14Z</time></trkpt><trkpt lat="47.68443513177817" lon="12.03853936216353"><ele>1078.0</ele><time>2026-04-18T08:35:15Z</time></trkpt><trkpt lat="47.68446698471311" lon="12.03838040329581"><ele>1083.2</ele><time>2026-04-18T08:35:16Z</time></trkpt><trkpt lat="47.68448403343942" lon="12.038213187563702"><ele>1088.4</ele><time>2026-04-18T08:35:17Z</time></trkpt><trkpt lat="47.68448989106028" lon="12.03807820527555"><ele>1093.6000000000001</ele><time>2026-04-18T08:35:18Z</time></trkpt><trkpt lat="47.68449777617214" lon="12.037947287004904"><ele>1098.8</ele><time>2026-04-18T08:35:19Z</time></trkpt><trkpt lat="47.68450636228558" lon="12.037822535532134"><ele>1104.0</ele><time>2026-04-18T08:35:20Z</time></trkpt><trkpt lat="47.6844962039764" lon="12.037691564034827"><ele>1104.0</ele><time>2026-04-18T08:35:21Z</time></trkpt><trkpt lat="47.684471305559555" lon="12.037556988637283"><ele>1104.0</ele><time>2026-04-18T08:35:22Z</time></trkpt><trkpt lat="47.6844351177849" lon="12.037415411414454"><ele>1104.0</ele><time>2026-04-18T08:35:23Z</time></trkpt><trkpt lat="47.68437890898207" lon="12.037280508359506"><ele>1104.0</ele><time>2026-04-18T08:35:24Z</time></trkpt><trkpt lat="47.68430476217837" lon="12.037157949644458"><ele>1104.0</ele><time>2026-04-18T08:35:25Z</time></trkpt><trkpt lat="47.68422213042681" lon="12.037046130962212"><ele>1101.0</ele><time>2026-04-18T08:35:26Z</time></trkpt><trkpt lat="47.68413922061824" lon="12.036953626480894"><ele>1098.0</ele><time>2026-04-18T08:35:27Z</time></trkpt><trkpt lat="47.68404589633599" lon="12.036880089011232"><ele>1095.0</ele><time>2026-04-18T08:35:28Z</time></trkpt><trkpt lat="47.683941584676255" lon="12.036834590963226"><ele>1092.0</ele><time>2026-04-18T08:35:29Z</time></trkpt><trkpt lat="47.68382144874344" lon="12.036809969970307"><ele>1089.0</ele><time>2026-04-18T08:35:30Z</time></trkpt><trkpt lat="47.68369636042545" lon="12.036794710505973"><ele>1089.8</ele><time>2026-04-18T08:35:31Z</time></trkpt><trkpt lat="47.683588804022925" lon="12.03678860058275"><ele>1090.6000000000001</ele><time>2026-04-18T08:35:32Z</time></trkpt><trkpt lat="47.68349208248773" lon="12.036780098036004"><ele>1091.4</ele><time>2026-04-18T08:35:33Z</time></trkpt><trkpt lat="47.68340075242869" lon="12.036754613405261"><ele>1092.2</ele><time>2026-04-18T08:35:34Z</time></trkpt><trkpt lat="47.68331251559897" lon="12.036705608022693"><ele>1093.0</ele><time>2026-04-18T08:35:35Z</time></trkpt><trkpt lat="47.683234141200174" lon="12.036638168430589"><ele>1094.4</ele><time>2026-04-18T08:35:36Z</time></trkpt><trkpt lat="47.683165309589135" lon="12.03654300851116"><ele>1095.8</ele><time>2026-04-18T08:35:37Z</time></trkpt><trkpt lat="47.683109672911" lon="12.036424854474658"><ele>1097.2</ele><time>2026-04-18T08:35:38Z</time></trkpt><trkpt lat="47.68307033408249" lon="12.036278296834798"><ele>1098.6</ele><time>2026-04-18T08:35:39Z</time></trkpt><trkpt lat="47.683044671553944" lon="12.036114567781729"><ele>1100.0</ele><time>2026-04-18T08:35:40Z</time></trkpt><trkpt lat="47.6830364517855" lon="12.035933310194771"><ele>1103.25</ele><time>2026-04-18T08:35:41Z</time></trkpt><trkpt lat="47.683036933880715" lon="12.035738770980412"><ele>1106.5</ele><time>2026-04-18T08:35:42Z</time></trkpt><trkpt lat="47.68304162579911" lon="12.035552279596063"><ele>1109.75</ele><time>2026-04-18T08:35:43Z</time></trkpt><trkpt lat="47.68304046649038" lon="12.035380940126908"><ele>1113.0</ele><time>2026-04-18T08:35:44Z</time></trkpt><trkpt lat="47.68304083667804" lon="12.035217097528445"><ele>1113.0</ele><time>2026-04-18T08:35:45Z</time></trkpt><trkpt lat="47.683041793296574" lon="12.035064761599534"><ele>1113.0</ele><time>2026-04-18T08:35:46Z</time></trkpt><trkpt lat="47.68303549251694" lon="12.034924920546237"><ele>1113.0</ele><time>2026-04-18T08:35:47Z</time></trkpt><trkpt lat="47.6830030420321" lon="12.034795682571241"><ele>1113.0</ele><time>2026-04-18T08:35:48Z</time></trkpt><trkpt lat="47.68294222416209" lon="12.034659212829268"><ele>1113.0</ele><time>2026-04-18T08:35:49Z</time></trkpt><trkpt lat="47.68286076133856" lon="12.034528163437159"><ele>1113.5</ele><time>2026-04-18T08:35:50Z</time></trkpt><trkpt lat="47.68276599721268" lon="12.034412736069793"><ele>1114.0</ele><time>2026-04-18T08:35:51Z</time></trkpt><trkpt lat="47.68266583885658" lon="12.03432956615168"><ele>1114.5</ele><time>2026-04-18T08:35:52Z</time></trkpt><trkpt lat="47.68255051745657" lon="12.034277244250386"><ele>1115.0</ele><time>2026-04-18T08:35:53Z</time></trkpt><trkpt lat="47.682423713697574" lon="12.03427624262983"><ele>1115.0</ele><time>2026-04-18T08:35:54Z</time></trkpt><trkpt lat="47.682309791202854" lon="12.034307726598763"><ele>1115.0</ele><time>2026-04-18T08:35:55Z</time></trkpt><trkpt lat="47.68219201504807" lon="12.034363160615218"><ele>1115.0</ele><time>2026-04-18T08:35:56Z</time></trkpt><trkpt lat="47.68208206298203" lon="12.03440386605102"><ele>1115.0</ele><time>2026-04-18T08:35:57Z</time></trkpt><trkpt lat="47.681953261965035" lon="12.034405915327804"><ele>1115.25</ele><time>2026-04-18T08:35:58Z</time></trkpt><trkpt lat="47.681813228970526" lon="12.03436629720849"><ele>1115.5</ele><time>2026-04-18T08:35:59Z</time></trkpt><trkpt lat="47.68165868231955" lon="12.034310903591667"><ele>1115.75</ele><time>2026-04-18T08:36:00Z</time></trkpt><trkpt lat="47.681527487842075" lon="12.034252461027215"><ele>1116.0</ele><time>2026-04-18T08:36:01Z</time></trkpt><trkpt lat="47.68141817816258" lon="12.034197376276973"><ele>1116.3999999999999</ele><time>2026-04-18T08:36:02Z</time></trkpt><trkpt lat="47.681316589722485" lon="12.034134790097651"><ele>1116.8</ele><time>2026-04-18T08:36:03Z</time></trkpt><trkpt lat="47.681221708596645" lon="12.03406566522897"><ele>1117.1999999999998</ele><time>2026-04-18T08:36:04Z</time></trkpt><trkpt lat="47.68111933882997" lon="12.03402094198051"><ele>1117.6</ele><time>2026-04-18T08:36:05Z</time></trkpt><trkpt lat="47.681007831000805" lon="12.033998011591125"><ele>1118.0</ele><time>2026-04-18T08:36:06Z</time></trkpt><trkpt lat="47.680885409719146" lon="12.034008505301003"><ele>1118.0</ele><time>2026-04-18T08:36:07Z</time></trkpt><trkpt lat="47.68075814698024" lon="12.034057155841671"><ele>1118.0</ele><time>2026-04-18T08:36:08Z</time></trkpt><trkpt lat="47.6806321989548" lon="12.034141513169791"><ele>1118.0</ele><time>2026-04-18T08:36:09Z</time></trkpt><trkpt lat="47.68049542616171" lon="12.03419283859056"><ele>1118.0</ele><time>2026-04-18T08:36:10Z</time></trkpt><trkpt lat="47.68036302452157" lon="12.034257209552331"><ele>1119.75</ele><time>2026-04-18T08:36:11Z</time></trkpt><trkpt lat="47.68023809887548" lon="12.0342685002787"><ele>1121.5</ele><time>2026-04-18T08:36:12Z</time></trkpt><trkpt lat="47.68012039733443" lon="12.034261531640047"><ele>1123.25</ele><time>2026-04-18T08:36:13Z</time></trkpt><trkpt lat="47.67999791253381" lon="12.034261649247869"><ele>1125.0</ele><time>2026-04-18T08:36:14Z</time></trkpt><trkpt lat="47.67988550573393" lon="12.034274941253438"><ele>1125.0</ele><time>2026-04-18T08:36:15Z</time></trkpt><trkpt lat="47.679786727828024" lon="12.034283531455628"><ele>1125.0</ele><time>2026-04-18T08:36:16Z</time></trkpt><trkpt lat="47.67968403991103" lon="12.034308538841437"><ele>1125.0</ele><time>2026-04-18T08:36:17Z</time></trkpt><trkpt lat="47.679583269451356" lon="12.034360792755532"><ele>1125.0</ele><time>2026-04-18T08:36:18Z</time></trkpt><trkpt lat="47.679480078589656" lon="12.034460605294129"><ele>1125.0</ele><time>2026-04-18T08:36:19Z</time></trkpt><trkpt lat="47.67938658828955" lon="12.034595934335343"><ele>1127.25</ele><time>2026-04-18T08:36:20Z</time></trkpt><trkpt lat="47.67932268072625" lon="12.034728319571615"><ele>1129.5</ele><time>2026-04-18T08:36:21Z</time></trkpt><trkpt lat="47.679257792958985" lon="12.03487410152396"><ele>1131.75</ele><time>2026-04-18T08:36:22Z</time></trkpt><trkpt lat="47.67918392100856" lon="12.035042471136075"><ele>1134.0</ele><time>2026-04-18T08:36:23Z</time></trkpt><trkpt lat="47.67911738394938" lon="12.035206568694877"><ele>1134.0</ele><time>2026-04-18T08:36:24Z</time></trkpt><trkpt lat="47.67905894925541" lon="12.035342844202514"><ele>1134.0</ele><time>2026-04-18T08:36:25Z</time></trkpt><trkpt lat="47.67900435814843" lon="12.035452319135"><ele>1134.0</ele><time>2026-04-18T08:36:26Z</time></trkpt><trkpt lat="47.67894227194438" lon="12.035529912347771"><ele>1134.0</ele><time>2026-04-18T08:36:27Z</time></trkpt><trkpt lat="47.67884607080169" lon="12.035542036596011"><ele>1134.0</ele><time>2026-04-18T08:36:28Z</time></trkpt><trkpt lat="47.678752606500396" lon="12.035511971032543"><ele>1134.0</ele><time>2026-04-18T08:36:29Z</time></trkpt><trkpt lat="47.67867600951495" lon="12.035420136123248"><ele>1134.0</ele><time>2026-04-18T08:36:30Z</time></trkpt><trkpt lat="47.67861708221624" lon="12.03529248376974"><ele>1134.0</ele><time>2026-04-18T08:36:31Z</time></trkpt><trkpt lat="47.67857883452521" lon="12.03512925388566"><ele>1134.0</ele><time>2026-04-18T08:36:32Z</time></trkpt><trkpt lat="47.678560064380854" lon="12.034939266357325"><ele>1134.0</ele><time>2026-04-18T08:36:33Z</time></trkpt><trkpt lat="47.67855210424849" lon="12.034759974994389"><ele>1131.4</ele><time>2026-04-18T08:36:34Z</time></trkpt><trkpt lat="47.67854784977147" lon="12.034591968732249"><ele>1128.8000000000002</ele><time>2026-04-18T08:36:35Z</time></trkpt><trkpt lat="47.67853534314643" lon="12.034443279805547"><ele>1126.1999999999998</ele><time>2026-04-18T08:36:36Z</time></trkpt><trkpt lat="47.67853338254968" lon="12.034295144621485"><ele>1123.6</ele><time>2026-04-18T08:36:37Z</time></trkpt><trkpt lat="47.67853767814288" lon="12.03414729612547"><ele>1121.0</ele><time>2026-04-18T08:36:38Z</time></trkpt><trkpt lat="47.67854014751414" lon="12.033967983377265"><ele>1120.0</ele><time>2026-04-18T08:36:39Z</time></trkpt><trkpt lat="47.67854659775491" lon="12.033792389371932"><ele>1119.0</ele><time>2026-04-18T08:36:40Z</time></trkpt><trkpt lat="47.67855499022316" lon="12.033615910114158"><ele>1118.0</ele><time>2026-04-18T08:36:41Z</time></trkpt><trkpt lat="47.6785704439746" lon="12.03343171224975"><ele>1117.0</ele><time>2026-04-18T08:36:42Z</time></trkpt><trkpt lat="47.67859403919952" lon="12.03324132656663"><ele>1120.0</ele><time>2026-04-18T08:36:43Z</time></trkpt><trkpt lat="47.67862264883184" lon="12.033066080788636"><ele>1123.0</ele><time>2026-04-18T08:36:44Z</time></trkpt><trkpt lat="47.67865332631421" lon="12.032879901590116"><ele>1126.0</ele><time>2026-04-18T08:36:45Z</time></trkpt><trkpt lat="47.6786887834523" lon="12.032708309089347"><ele>1129.0</ele><time>2026-04-18T08:36:46Z</time></trkpt><trkpt lat="47.6787292132959" lon="12.032541802867273"><ele>1125.25</ele><time>2026-04-18T08:36:47Z</time></trkpt><trkpt lat="47.67877499220332" lon="12.032374176999005"><ele>1121.5</ele><time>2026-04-18T08:36:48Z</time></trkpt><trkpt lat="47.67882598042056" lon="12.032197503710627"><ele>1117.75</ele><time>2026-04-18T08:36:49Z</time></trkpt><trkpt lat="47.67889010711244" lon="12.032006325901559"><ele>1114.0</ele><time>2026-04-18T08:36:50Z</time></trkpt><trkpt lat="47.67896207059157" lon="12.031799540771585"><ele>1108.0</ele><time>2026-04-18T08:36:51Z</time></trkpt><trkpt lat="47.67903766143657" lon="12.031591656369695"><ele>1102.0</ele><time>2026-04-18T08:36:52Z</time></trkpt><trkpt lat="47.67910782990703" lon="12.031394874078462"><ele>1096.0</ele><time>2026-04-18T08:36:53Z</time></trkpt><trkpt lat="47.679177923048435" lon="12.031202189287944"><ele>1096.0</ele><time>2026-04-18T08:36:54Z</time></trkpt><trkpt lat="47.67924577280306" lon="12.0310155531836"><ele>1096.0</ele><time>2026-04-18T08:36:55Z</time></trkpt><trkpt lat="47.67931168928038" lon="12.030833906483565"><ele>1096.0</ele><time>2026-04-18T08:36:56Z</time></trkpt><trkpt lat="47.67937341521399" lon="12.030661257376616"><ele>1096.0</ele><time>2026-04-18T08:36:57Z</time></trkpt><trkpt lat="47.679429135134754" lon="12.030507027967701"><ele>1096.0</ele><time>2026-04-18T08:36:58Z</time></trkpt><trkpt lat="47.67948922745022" lon="12.030345259192622"><ele>1096.0</ele><time>2026-04-18T08:36:59Z</time></trkpt><trkpt lat="47.67955287684468" lon="12.030175359069462"><ele>1096.0</ele><time>2026-04-18T08:37:00Z</time></trkpt><trkpt lat="47.679615087786935" lon="12.03002777951129"><ele>1096.0</ele><time>2026-04-18T08:37:01Z</time></trkpt><trkpt lat="47.679678835643344" lon="12.029897042830358"><ele>1096.0</ele><time>2026-04-18T08:37:02Z</time></trkpt><trkpt lat="47.67974029340226" lon="12.029771020183045"><ele>1096.0</ele><time>2026-04-18T08:37:03Z</time></trkpt><trkpt lat="47.67980686229484" lon="12.029639516855077"><ele>1096.0</ele><time>2026-04-18T08:37:04Z</time></trkpt><trkpt lat="47.67987137479142" lon="12.029516241288418"><ele>1096.0</ele><time>2026-04-18T08:37:05Z</time></trkpt><trkpt lat="47.67993388376901" lon="12.029396501243877"><ele>1096.0</ele><time>2026-04-18T08:37:06Z</time></trkpt><trkpt lat="47.679989228963514" lon="12.029274357464814"><ele>1090.75</ele><time>2026-04-18T08:37:07Z</time></trkpt><trkpt lat="47.68003322704975" lon="12.029133130462876"><ele>1085.5</ele><time>2026-04-18T08:37:08Z</time></trkpt><trkpt lat="47.680062709171786" lon="12.028942890613928"><ele>1080.25</ele><time>2026-04-18T08:37:09Z</time></trkpt><trkpt lat="47.68008006099313" lon="12.028714657453792"><ele>1075.0</ele><time>2026-04-18T08:37:10Z</time></trkpt><trkpt lat="47.680106775503525" lon="12.0285058473148"><ele>1075.0</ele><time>2026-04-18T08:37:11Z</time></trkpt><trkpt lat="47.680151787210725" lon="12.028314968935835"><ele>1075.0</ele><time>2026-04-18T08:37:12Z</time></trkpt><trkpt lat="47.6801985179973" lon="12.028133157475514"><ele>1075.0</ele><time>2026-04-18T08:37:13Z</time></trkpt><trkpt lat="47.680236279595476" lon="12.027974662381023"><ele>1075.0</ele><time>2026-04-18T08:37:14Z</time></trkpt><trkpt lat="47.68027530818879" lon="12.027818470934834"><ele>1082.75</ele><time>2026-04-18T08:37:15Z</time></trkpt><trkpt lat="47.680301283143606" lon="12.027661182718415"><ele>1090.5</ele><time>2026-04-18T08:37:16Z</time></trkpt><trkpt lat="47.68030198681726" lon="12.027488191368596"><ele>1098.25</ele><time>2026-04-18T08:37:17Z</time></trkpt><trkpt lat="47.68029478791854" lon="12.027309899492973"><ele>1106.0</ele><time>2026-04-18T08:37:18Z</time></trkpt><trkpt lat="47.680293498134105" lon="12.02713945867095"><ele>1106.0</ele><time>2026-04-18T08:37:19Z</time></trkpt><trkpt lat="47.68030107035587" lon="12.0269625285458"><ele>1106.0</ele><time>2026-04-18T08:37:20Z</time></trkpt><trkpt lat="47.6803359696731" lon="12.026789584880776"><ele>1106.0</ele><time>2026-04-18T08:37:21Z</time></trkpt><trkpt lat="47.680397469953334" lon="12.02663679954544"><ele>1106.0</ele><time>2026-04-18T08:37:22Z</time></trkpt><trkpt lat="47.680466991515004" lon="12.026493048465882"><ele>1100.0</ele><time>2026-04-18T08:37:23Z</time></trkpt><trkpt lat="47.68052958445738" lon="12.026346108181423"><ele>1094.0</ele><time>2026-04-18T08:37:24Z</time></trkpt><trkpt lat="47.68056329607905" lon="12.026172122411307"><ele>1088.0</ele><time>2026-04-18T08:37:25Z</time></trkpt><trkpt lat="47.680575872787564" lon="12.025959706257808"><ele>1082.0</ele><time>2026-04-18T08:37:26Z</time></trkpt><trkpt lat="47.680577222968104" lon="12.025749113266194"><ele>1075.5</ele><time>2026-04-18T08:37:27Z</time></trkpt><trkpt lat="47.68058880465189" lon="12.025555330319666"><ele>1069.0</ele><time>2026-04-18T08:37:28Z</time></trkpt><trkpt lat="47.68062262545923" lon="12.025377440091985"><ele>1062.5</ele><time>2026-04-18T08:37:29Z</time></trkpt><trkpt lat="47.68068495303862" lon="12.025217623315571"><ele>1056.0</ele><time>2026-04-18T08:37:30Z</time></trkpt><trkpt lat="47.68077011580007" lon="12.025072271234654"><ele>1059.0</ele><time>2026-04-18T08:37:31Z</time></trkpt><trkpt lat="47.680879150784556" lon="12.024932947029855"><ele>1062.0</ele><time>2026-04-18T08:37:32Z</time></trkpt><trkpt lat="47.680995342332615" lon="12.024807709473656"><ele>1065.0</ele><time>2026-04-18T08:37:33Z</time></trkpt><trkpt lat="47.681109374461755" lon="12.02468686369067"><ele>1068.0</ele><time>2026-04-18T08:37:34Z</time></trkpt><trkpt lat="47.681214683100144" lon="12.024558341401129"><ele>1068.0</ele><time>2026-04-18T08:37:35Z</time></trkpt><trkpt lat="47.681314122361826" lon="12.024429296687064"><ele>1068.0</ele><time>2026-04-18T08:37:36Z</time></trkpt><trkpt lat="47.68140585466408" lon="12.024293363859574"><ele>1068.0</ele><time>2026-04-18T08:37:37Z</time></trkpt><trkpt lat="47.68148807656732" lon="12.024149259294346"><ele>1068.0</ele><time>2026-04-18T08:37:38Z</time></trkpt><trkpt lat="47.68156155341997" lon="12.024004190321795"><ele>1061.75</ele><time>2026-04-18T08:37:39Z</time></trkpt><trkpt lat="47.68163265592702" lon="12.023853102735584"><ele>1055.5</ele><time>2026-04-18T08:37:40Z</time></trkpt><trkpt lat="47.68169397281125" lon="12.023690599218897"><ele>1049.25</ele><time>2026-04-18T08:37:41Z</time></trkpt><trkpt lat="47.68174531146757" lon="12.023521792848074"><ele>1043.0</ele><time>2026-04-18T08:37:42Z</time></trkpt><trkpt lat="47.681779517616384" lon="12.023337476440162"><ele>1041.5</ele><time>2026-04-18T08:37:43Z</time></trkpt><trkpt lat="47.6817961843404" lon="12.023148219209451"><ele>1040.0</ele><time>2026-04-18T08:37:44Z</time></trkpt><trkpt lat="47.681798129127664" lon="12.022962595408066"><ele>1038.5</ele><time>2026-04-18T08:37:45Z</time></trkpt><trkpt lat="47.68177990579341" lon="12.022778853608232"><ele>1037.0</ele><time>2026-04-18T08:37:46Z</time></trkpt><trkpt lat="47.68174174902123" lon="12.022603652621392"><ele>1036.0</ele><time>2026-04-18T08:37:47Z</time></trkpt><trkpt lat="47.68169441914622" lon="12.022432638736719"><ele>1035.0</ele><time>2026-04-18T08:37:48Z</time></trkpt><trkpt lat="47.68164894073228" lon="12.022249187721522"><ele>1034.0</ele><time>2026-04-18T08:37:49Z</time></trkpt><trkpt lat="47.68161665178902" lon="12.022052703659508"><ele>1033.0</ele><time>2026-04-18T08:37:50Z</time></trkpt><trkpt lat="47.6816056692114" lon="12.021859379330087"><ele>1033.0</ele><time>2026-04-18T08:37:51Z</time></trkpt><trkpt lat="47.68160733816181" lon="12.02165669998779"><ele>1033.0</ele><time>2026-04-18T08:37:52Z</time></trkpt><trkpt lat="47.68162745247584" lon="12.021452048772778"><ele>1033.0</ele><time>2026-04-18T08:37:53Z</time></trkpt><trkpt lat="47.6816549719302" lon="12.021246587316508"><ele>1033.0</ele><time>2026-04-18T08:37:54Z</time></trkpt><trkpt lat="47.681695217268505" lon="12.02102318967069"><ele>1023.0</ele><time>2026-04-18T08:37:55Z</time></trkpt><trkpt lat="47.6817261662468" lon="12.020789989089442"><ele>1013.0</ele><time>2026-04-18T08:37:56Z</time></trkpt><trkpt lat="47.68176384069302" lon="12.02056959845964"><ele>1003.0</ele><time>2026-04-18T08:37:57Z</time></trkpt><trkpt lat="47.68179829822316" lon="12.020360844349725"><ele>1003.0</ele><time>2026-04-18T08:37:58Z</time></trkpt><trkpt lat="47.68183066285713" lon="12.020159870293998"><ele>1003.0</ele><time>2026-04-18T08:37:59Z</time></trkpt><trkpt lat="47.68186409050406" lon="12.019960585415054"><ele>1003.0</ele><time>2026-04-18T08:38:00Z</time></trkpt><trkpt lat="47.68189760098221" lon="12.019762153209253"><ele>1003.0</ele><time>2026-04-18T08:38:01Z</time></trkpt><trkpt lat="47.68193073051732" lon="12.019561275206243"><ele>1003.25</ele><time>2026-04-18T08:38:02Z</time></trkpt><trkpt lat="47.68196273549167" lon="12.019364612647538"><ele>1003.5</ele><time>2026-04-18T08:38:03Z</time></trkpt><trkpt lat="47.68199569607445" lon="12.019172302292539"><ele>1003.75</ele><time>2026-04-18T08:38:04Z</time></trkpt><trkpt lat="47.682029695085845" lon="12.018987177410045"><ele>1004.0</ele><time>2026-04-18T08:38:05Z</time></trkpt><trkpt lat="47.68205929962198" lon="12.018817991013895"><ele>1004.0</ele><time>2026-04-18T08:38:06Z</time></trkpt><trkpt lat="47.68209085617411" lon="12.01865459537673"><ele>1004.0000000000001</ele><time>2026-04-18T08:38:07Z</time></trkpt><trkpt lat="47.68213257242543" lon="12.018499761010963"><ele>1004.0000000000001</ele><time>2026-04-18T08:38:08Z</time></trkpt><trkpt lat="47.6821940676831" lon="12.018363024946893"><ele>1004.0</ele><time>2026-04-18T08:38:09Z</time></trkpt><trkpt lat="47.682266005527495" lon="12.018241661460753"><ele>1004.0</ele><time>2026-04-18T08:38:10Z</time></trkpt><trkpt lat="47.68235452401083" lon="12.018111631869772"><ele>1002.0</ele><time>2026-04-18T08:38:11Z</time></trkpt><trkpt lat="47.682447903279126" lon="12.017977507409308"><ele>1000.0</ele><time>2026-04-18T08:38:12Z</time></trkpt><trkpt lat="47.68253592273297" lon="12.017859926395715"><ele>998.0</ele><time>2026-04-18T08:38:13Z</time></trkpt><trkpt lat="47.682613510712265" lon="12.017744288319543"><ele>996.0</ele><time>2026-04-18T08:38:14Z</time></trkpt><trkpt lat="47.68267938391548" lon="12.01761698845422"><ele>994.0</ele><time>2026-04-18T08:38:15Z</time></trkpt><trkpt lat="47.682732027263526" lon="12.017469993436906"><ele>992.0</ele><time>2026-04-18T08:38:16Z</time></trkpt><trkpt lat="47.68276716965728" lon="12.017295802340922"><ele>990.0</ele><time>2026-04-18T08:38:17Z</time></trkpt><trkpt lat="47.68277890329246" lon="12.01710062037598"><ele>988.0</ele><time>2026-04-18T08:38:18Z</time></trkpt><trkpt lat="47.682763508808435" lon="12.016902860734456"><ele>988.0</ele><time>2026-04-18T08:38:19Z</time></trkpt><trkpt lat="47.68271890427438" lon="12.01671670615138"><ele>988.0</ele><time>2026-04-18T08:38:20Z</time></trkpt><trkpt lat="47.68265866418328" lon="12.016559257317445"><ele>988.0</ele><time>2026-04-18T08:38:21Z</time></trkpt><trkpt lat="47.682584668027545" lon="12.016417878112655"><ele>988.0</ele><time>2026-04-18T08:38:22Z</time></trkpt><trkpt lat="47.682489386274035" lon="12.016300040995596"><ele>985.25</ele><time>2026-04-18T08:38:23Z</time></trkpt><trkpt lat="47.6823654582685" lon="12.016203130141944"><ele>982.5</ele><time>2026-04-18T08:38:24Z</time></trkpt><trkpt lat="47.68223924923528" lon="12.016111458166908"><ele>979.75</ele><time>2026-04-18T08:38:25Z</time></trkpt><trkpt lat="47.68212149926788" lon="12.016021687703407"><ele>977.0</ele><time>2026-04-18T08:38:26Z</time></trkpt><trkpt lat="47.68201088013943" lon="12.015932126820747"><ele>977.0</ele><time>2026-04-18T08:38:27Z</time></trkpt><trkpt lat="47.68190266535468" lon="12.015827107843434"><ele>977.0</ele><time>2026-04-18T08:38:28Z</time></trkpt><trkpt lat="47.68179934399073" lon="12.015701222808909"><ele>977.0</ele><time>2026-04-18T08:38:29Z</time></trkpt><trkpt lat="47.68170897998788" lon="12.015561940714754"><ele>977.0</ele><time>2026-04-18T08:38:30Z</time></trkpt><trkpt lat="47.681631844101155" lon="12.015417800517003"><ele>974.8</ele><time>2026-04-18T08:38:31Z</time></trkpt><trkpt lat="47.681569392001755" lon="12.01526800673045"><ele>972.6</ele><time>2026-04-18T08:38:32Z</time></trkpt><trkpt lat="47.68151275227844" lon="12.015121995241055"><ele>970.3999999999999</ele><time>2026-04-18T08:38:33Z</time></trkpt><trkpt lat="47.68145283844971" lon="12.014984371181647"><ele>968.1999999999999</ele><time>2026-04-18T08:38:34Z</time></trkpt><trkpt lat="47.68139519485367" lon="12.014867147209367"><ele>966.0</ele><time>2026-04-18T08:38:35Z</time></trkpt><trkpt lat="47.681335862482285" lon="12.014761182652906"><ele>962.5999999999999</ele><time>2026-04-18T08:38:36Z</time></trkpt><trkpt lat="47.68125942477862" lon="12.014669913383594"><ele>959.1999999999999</ele><time>2026-04-18T08:38:37Z</time></trkpt><trkpt lat="47.68116780103225" lon="12.014604426058353"><ele>955.8000000000001</ele><time>2026-04-18T08:38:38Z</time></trkpt><trkpt lat="47.68106347011258" lon="12.01456933337112"><ele>952.4000000000001</ele><time>2026-04-18T08:38:39Z</time></trkpt><trkpt lat="47.68095049043644" lon="12.014571474143574"><ele>949.0</ele><time>2026-04-18T08:38:40Z</time></trkpt><trkpt lat="47.68083955037556" lon="12.014611158158209"><ele>949.0</ele><time>2026-04-18T08:38:41Z</time></trkpt><trkpt lat="47.680734628370956" lon="12.014689626954791"><ele>949.0</ele><time>2026-04-18T08:38:42Z</time></trkpt><trkpt lat="47.68063752176401" lon="12.01479846238913"><ele>949.0</ele><time>2026-04-18T08:38:43Z</time></trkpt><trkpt lat="47.6805541191684" lon="12.014907706286243"><ele>949.0</ele><time>2026-04-18T08:38:44Z</time></trkpt><trkpt lat="47.68047218969057" lon="12.015004233505808"><ele>949.6666666666666</ele><time>2026-04-18T08:38:45Z</time></trkpt><trkpt lat="47.680393694361435" lon="12.015076133328229"><ele>950.3333333333333</ele><time>2026-04-18T08:38:46Z</time></trkpt><trkpt lat="47.680334681848386" lon="12.015138853437085"><ele>951.0</ele><time>2026-04-18T08:38:47Z</time></trkpt><trkpt lat="47.68026921110732" lon="12.015182990310024"><ele>951.6666666666667</ele><time>2026-04-18T08:38:48Z</time></trkpt><trkpt lat="47.68018816297392" lon="12.015194975774097"><ele>952.3333333333334</ele><time>2026-04-18T08:38:49Z</time></trkpt><trkpt lat="47.68010710963779" lon="12.01515627926321"><ele>953.0</ele><time>2026-04-18T08:38:50Z</time></trkpt><trkpt lat="47.680037324169035" lon="12.015062303813167"><ele>950.3333333333334</ele><time>2026-04-18T08:38:51Z</time></trkpt><trkpt lat="47.67998725644663" lon="12.014955698581675"><ele>947.6666666666667</ele><time>2026-04-18T08:38:52Z</time></trkpt><trkpt lat="47.679970597473066" lon="12.014834881531781"><ele>945.0</ele><time>2026-04-18T08:38:53Z</time></trkpt><trkpt lat="47.67998280649472" lon="12.014714277332416"><ele>942.3333333333333</ele><time>2026-04-18T08:38:54Z</time></trkpt><trkpt lat="47.680026941021005" lon="12.01460519968803"><ele>939.6666666666666</ele><time>2026-04-18T08:38:55Z</time></trkpt><trkpt lat="47.68010004051309" lon="12.014520639841711"><ele>937.0</ele><time>2026-04-18T08:38:56Z</time></trkpt><trkpt lat="47.68019886501482" lon="12.014459938735785"><ele>940.0</ele><time>2026-04-18T08:38:57Z</time></trkpt><trkpt lat="47.680321368982064" lon="12.014420657832146"><ele>943.0</ele><time>2026-04-18T08:38:58Z</time></trkpt><trkpt lat="47.68044992462117" lon="12.014364404182228"><ele>946.0</ele><time>2026-04-18T08:38:59Z</time></trkpt><trkpt lat="47.68058728117036" lon="12.014304006713413"><ele>949.0</ele><time>2026-04-18T08:39:00Z</time></trkpt><trkpt lat="47.68072007483139" lon="12.014255583136562"><ele>949.0</ele><time>2026-04-18T08:39:01Z</time></trkpt><trkpt lat="47.680842903650934" lon="12.014209240841796"><ele>949.0</ele><time>2026-04-18T08:39:02Z</time></trkpt><trkpt lat="47.68095906986089" lon="12.014163908964896"><ele>949.0</ele><time>2026-04-18T08:39:03Z</time></trkpt><trkpt lat="47.68107090609904" lon="12.0141205662323"><ele>949.0</ele><time>2026-04-18T08:39:04Z</time></trkpt><trkpt lat="47.681178127711625" lon="12.014083443205674"><ele>943.4000000000001</ele><time>2026-04-18T08:39:05Z</time></trkpt><trkpt lat="47.681280653181794" lon="12.014048615668584"><ele>937.8000000000001</ele><time>2026-04-18T08:39:06Z</time></trkpt><trkpt lat="47.681377340875606" lon="12.014019242966823"><ele>932.1999999999999</ele><time>2026-04-18T08:39:07Z</time></trkpt><trkpt lat="47.681478583638075" lon="12.014004141682905"><ele>926.5999999999999</ele><time>2026-04-18T08:39:08Z</time></trkpt><trkpt lat="47.68158926150962" lon="12.014004440641536"><ele>921.0</ele><time>2026-04-18T08:39:09Z</time></trkpt><trkpt lat="47.6817062566018" lon="12.014028540604803"><ele>921.0</ele><time>2026-04-18T08:39:10Z</time></trkpt><trkpt lat="47.681821495279245" lon="12.014078004839694"><ele>920.9999999999999</ele><time>2026-04-18T08:39:11Z</time></trkpt><trkpt lat="47.68192089781696" lon="12.014143469424386"><ele>920.9999999999999</ele><time>2026-04-18T08:39:12Z</time></trkpt><trkpt lat="47.682011310179405" lon="12.014203494227868"><ele>921.0</ele><time>2026-04-18T08:39:13Z</time></trkpt><trkpt lat="47.682092971265085" lon="12.014256951274373"><ele>921.0</ele><time>2026-04-18T08:39:14Z</time></trkpt><trkpt lat="47.6821669354296" lon="12.014304336445838"><ele>924.5999999999999</ele><time>2026-04-18T08:39:15Z</time></trkpt><trkpt lat="47.68223756688526" lon="12.014349256741815"><ele>928.1999999999999</ele><time>2026-04-18T08:39:16Z</time></trkpt><trkpt lat="47.68230339884201" lon="12.014387379290426"><ele>931.8000000000001</ele><time>2026-04-18T08:39:17Z</time></trkpt><trkpt lat="47.682410338561965" lon="12.014435368818768"><ele>935.4000000000001</ele><time>2026-04-18T08:39:19Z</time></trkpt><trkpt lat="47.68252553867771" lon="12.014426587780564"><ele>939.0</ele><time>2026-04-18T08:39:21Z</time></trkpt><trkpt lat="47.682600798567705" lon="12.014293762483744"><ele>936.6</ele><time>2026-04-18T08:39:23Z</time></trkpt><trkpt lat="47.68258611553696" lon="12.014122608780252"><ele>934.2</ele><time>2026-04-18T08:39:25Z</time></trkpt><trkpt lat="47.682539993947195" lon="12.01404649057987"><ele>931.8000000000001</ele><time>2026-04-18T08:39:26Z</time></trkpt><trkpt lat="47.68246516303902" lon="12.013984028944872"><ele>929.4000000000001</ele><time>2026-04-18T08:39:27Z</time></trkpt><trkpt lat="47.68236507896868" lon="12.013946926657216"><ele>927.0</ele><time>2026-04-18T08:39:28Z</time></trkpt><trkpt lat="47.682251483220455" lon="12.013900733973378"><ele>927.0</ele><time>2026-04-18T08:39:29Z</time></trkpt><trkpt lat="47.682129160742605" lon="12.013844651071226"><ele>927.0</ele><time>2026-04-18T08:39:30Z</time></trkpt><trkpt lat="47.68199507969384" lon="12.01378375181408"><ele>927.0</ele><time>2026-04-18T08:39:31Z</time></trkpt><trkpt lat="47.68186254000514" lon="12.013724964588535"><ele>927.0</ele><time>2026-04-18T08:39:32Z</time></trkpt><trkpt lat="47.68174264109447" lon="12.013672086444169"><ele>925.5</ele><time>2026-04-18T08:39:33Z</time></trkpt><trkpt lat="47.68162661235297" lon="12.01361836299131"><ele>924.0</ele><time>2026-04-18T08:39:34Z</time></trkpt><trkpt lat="47.68151269840883" lon="12.013572604644704"><ele>922.5</ele><time>2026-04-18T08:39:35Z</time></trkpt><trkpt lat="47.681380755136686" lon="12.0135283376398"><ele>921.0</ele><time>2026-04-18T08:39:36Z</time></trkpt><trkpt lat="47.68124565281093" lon="12.013490448767163"><ele>921.0</ele><time>2026-04-18T08:39:37Z</time></trkpt><trkpt lat="47.68111864431897" lon="12.013469661474376"><ele>921.0</ele><time>2026-04-18T08:39:38Z</time></trkpt><trkpt lat="47.68099681624257" lon="12.013462274249829"><ele>921.0</ele><time>2026-04-18T08:39:39Z</time></trkpt><trkpt lat="47.68087314221189" lon="12.013468850533231"><ele>921.0</ele><time>2026-04-18T08:39:40Z</time></trkpt><trkpt lat="47.68074464780985" lon="12.013488238827051"><ele>920.25</ele><time>2026-04-18T08:39:41Z</time></trkpt><trkpt lat="47.68060951070944" lon="12.013514264706362"><ele>919.5</ele><time>2026-04-18T08:39:42Z</time></trkpt><trkpt lat="47.68046571044806" lon="12.013545870082705"><ele>918.75</ele><time>2026-04-18T08:39:43Z</time></trkpt><trkpt lat="47.680316200660776" lon="12.013584753546573"><ele>918.0</ele><time>2026-04-18T08:39:44Z</time></trkpt><trkpt lat="47.68017099066933" lon="12.013636139247813"><ele>915.0</ele><time>2026-04-18T08:39:45Z</time></trkpt><trkpt lat="47.680033477580196" lon="12.013698165439491"><ele>912.0</ele><time>2026-04-18T08:39:46Z</time></trkpt><trkpt lat="47.6798977092195" lon="12.01377471880505"><ele>909.0</ele><time>2026-04-18T08:39:47Z</time></trkpt><trkpt lat="47.67976657911726" lon="12.01384804267705"><ele>906.0</ele><time>2026-04-18T08:39:48Z</time></trkpt><trkpt lat="47.679641119638234" lon="12.013917408073118"><ele>906.0</ele><time>2026-04-18T08:39:49Z</time></trkpt><trkpt lat="47.679521318959885" lon="12.013991596138823"><ele>906.0</ele><time>2026-04-18T08:39:50Z</time></trkpt><trkpt lat="47.67941281814998" lon="12.014067000738345"><ele>906.0</ele><time>2026-04-18T08:39:51Z</time></trkpt><trkpt lat="47.67931023369224" lon="12.01414142387331"><ele>906.0</ele><time>2026-04-18T08:39:52Z</time></trkpt><trkpt lat="47.679208222398884" lon="12.014224416171198"><ele>907.4</ele><time>2026-04-18T08:39:53Z</time></trkpt><trkpt lat="47.679111100589516" lon="12.01432009384025"><ele>908.8</ele><time>2026-04-18T08:39:54Z</time></trkpt><trkpt lat="47.679017119904195" lon="12.014413309623613"><ele>910.1999999999999</ele><time>2026-04-18T08:39:55Z</time></trkpt><trkpt lat="47.67892614003741" lon="12.014505240797899"><ele>911.5999999999999</ele><time>2026-04-18T08:39:56Z</time></trkpt><trkpt lat="47.6788415812123" lon="12.014601627548467"><ele>913.0</ele><time>2026-04-18T08:39:57Z</time></trkpt><trkpt lat="47.678764353134" lon="12.014699700916257"><ele>913.0</ele><time>2026-04-18T08:39:58Z</time></trkpt><trkpt lat="47.67869606471089" lon="12.014806130915893"><ele>913.0</ele><time>2026-04-18T08:39:59Z</time></trkpt><trkpt lat="47.67863771983193" lon="12.014928682905639"><ele>913.0</ele><time>2026-04-18T08:40:00Z</time></trkpt><trkpt lat="47.6785919809184" lon="12.01507098137569"><ele>913.0</ele><time>2026-04-18T08:40:01Z</time></trkpt><trkpt lat="47.678554273846515" lon="12.015232959910893"><ele>913.0</ele><time>2026-04-18T08:40:02Z</time></trkpt><trkpt lat="47.67853554215063" lon="12.015401706594966"><ele>914.75</ele><time>2026-04-18T08:40:03Z</time></trkpt><trkpt lat="47.67854762634712" lon="12.015586345516017"><ele>916.5</ele><time>2026-04-18T08:40:04Z</time></trkpt><trkpt lat="47.67857064699417" lon="12.015762200282587"><ele>918.25</ele><time>2026-04-18T08:40:05Z</time></trkpt><trkpt lat="47.67860073082523" lon="12.01593408613163"><ele>920.0</ele><time>2026-04-18T08:40:06Z</time></trkpt><trkpt lat="47.678650775587045" lon="12.016080799325929"><ele>920.0</ele><time>2026-04-18T08:40:07Z</time></trkpt><trkpt lat="47.67871573300162" lon="12.01621720699529"><ele>920.0</ele><time>2026-04-18T08:40:08Z</time></trkpt><trkpt lat="47.67878939789638" lon="12.016364965360394"><ele>920.0</ele><time>2026-04-18T08:40:09Z</time></trkpt><trkpt lat="47.678846073886085" lon="12.016527817420808"><ele>920.0</ele><time>2026-04-18T08:40:10Z</time></trkpt><trkpt lat="47.678875062593946" lon="12.016701659634757"><ele>916.75</ele><time>2026-04-18T08:40:11Z</time></trkpt><trkpt lat="47.678850662392264" lon="12.016872242007373"><ele>913.5</ele><time>2026-04-18T08:40:12Z</time></trkpt><trkpt lat="47.67881855166475" lon="12.017047769848801"><ele>910.25</ele><time>2026-04-18T08:40:13Z</time></trkpt><trkpt lat="47.67879489501805" lon="12.017255345368733"><ele>907.0</ele><time>2026-04-18T08:40:14Z</time></trkpt><trkpt lat="47.678743524705716" lon="12.017480020064546"><ele>903.6666666666666</ele><time>2026-04-18T08:40:15Z</time></trkpt><trkpt lat="47.67869203161756" lon="12.017741879264753"><ele>900.3333333333333</ele><time>2026-04-18T08:40:16Z</time></trkpt><trkpt lat="47.67864274257663" lon="12.017976585475703"><ele>897.0</ele><time>2026-04-18T08:40:17Z</time></trkpt><trkpt lat="47.678604845023884" lon="12.018183092559514"><ele>891.0</ele><time>2026-04-18T08:40:18Z</time></trkpt><trkpt lat="47.67856735932979" lon="12.01835407657315"><ele>885.0</ele><time>2026-04-18T08:40:19Z</time></trkpt><trkpt lat="47.678532597056254" lon="12.018503394137323"><ele>879.0</ele><time>2026-04-18T08:40:20Z</time></trkpt><trkpt lat="47.678485464349926" lon="12.018652294858972"><ele>873.0</ele><time>2026-04-18T08:40:21Z</time></trkpt><trkpt lat="47.67843280521448" lon="12.018789800170598"><ele>867.0</ele><time>2026-04-18T08:40:22Z</time></trkpt><trkpt lat="47.678370948824956" lon="12.01891098390417"><ele>867.0</ele><time>2026-04-18T08:40:23Z</time></trkpt><trkpt lat="47.67829961684297" lon="12.019024361248611"><ele>867.0</ele><time>2026-04-18T08:40:24Z</time></trkpt><trkpt lat="47.678215545519166" lon="12.01914119934511"><ele>867.0</ele><time>2026-04-18T08:40:25Z</time></trkpt><trkpt lat="47.67812239328267" lon="12.01924401449686"><ele>867.0</ele><time>2026-04-18T08:40:26Z</time></trkpt><trkpt lat="47.67802481379195" lon="12.019344175368555"><ele>867.4000000000001</ele><time>2026-04-18T08:40:27Z</time></trkpt><trkpt lat="47.6779241458354" lon="12.019455714399395"><ele>867.8000000000001</ele><time>2026-04-18T08:40:28Z</time></trkpt><trkpt lat="47.67784886538865" lon="12.019539747265258"><ele>868.2</ele><time>2026-04-18T08:40:29Z</time></trkpt><trkpt lat="47.677767843420455" lon="12.019621064161242"><ele>868.6</ele><time>2026-04-18T08:40:30Z</time></trkpt><trkpt lat="47.67768623928367" lon="12.019704978771303"><ele>869.0</ele><time>2026-04-18T08:40:31Z</time></trkpt><trkpt lat="47.677609518005134" lon="12.019785208010257"><ele>866.8000000000001</ele><time>2026-04-18T08:40:32Z</time></trkpt><trkpt lat="47.677532173209656" lon="12.019869240766967"><ele>864.6000000000001</ele><time>2026-04-18T08:40:33Z</time></trkpt><trkpt lat="47.677457454162635" lon="12.019953588376197"><ele>862.4</ele><time>2026-04-18T08:40:34Z</time></trkpt><trkpt lat="47.67738424292205" lon="12.020029264238564"><ele>860.2</ele><time>2026-04-18T08:40:35Z</time></trkpt><trkpt lat="47.67731324452593" lon="12.020108618569145"><ele>858.0</ele><time>2026-04-18T08:40:36Z</time></trkpt><trkpt lat="47.677237008821805" lon="12.020192908381942"><ele>858.0</ele><time>2026-04-18T08:40:37Z</time></trkpt><trkpt lat="47.67714948357903" lon="12.020284848914978"><ele>858.0</ele><time>2026-04-18T08:40:38Z</time></trkpt><trkpt lat="47.67706178239013" lon="12.020359803685505"><ele>858.0</ele><time>2026-04-18T08:40:39Z</time></trkpt><trkpt lat="47.67697395868412" lon="12.02042153944178"><ele>858.0</ele><time>2026-04-18T08:40:40Z</time></trkpt><trkpt lat="47.67688538965138" lon="12.020476533963626"><ele>858.0</ele><time>2026-04-18T08:40:41Z</time></trkpt><trkpt lat="47.6767640912229" lon="12.020539745197283"><ele>855.5</ele><time>2026-04-18T08:40:42Z</time></trkpt><trkpt lat="47.67663434703668" lon="12.020608907639167"><ele>853.0</ele><time>2026-04-18T08:40:43Z</time></trkpt><trkpt lat="47.67651754781574" lon="12.020688031054581"><ele>850.5</ele><time>2026-04-18T08:40:44Z</time></trkpt><trkpt lat="47.67640523346036" lon="12.020757830126602"><ele>848.0</ele><time>2026-04-18T08:40:45Z</time></trkpt><trkpt lat="47.67629315619051" lon="12.02082674991345"><ele>848.0</ele><time>2026-04-18T08:40:46Z</time></trkpt><trkpt lat="47.67618750401409" lon="12.020898390575182"><ele>848.0</ele><time>2026-04-18T08:40:47Z</time></trkpt><trkpt lat="47.676085342319205" lon="12.020966738783546"><ele>848.0</ele><time>2026-04-18T08:40:48Z</time></trkpt><trkpt lat="47.67598007807992" lon="12.021014101659595"><ele>848.0</ele><time>2026-04-18T08:40:49Z</time></trkpt><trkpt lat="47.675882768036416" lon="12.021087887020366"><ele>848.0</ele><time>2026-04-18T08:40:50Z</time></trkpt><trkpt lat="47.675787177156245" lon="12.021118057871156"><ele>845.4</ele><time>2026-04-18T08:40:51Z</time></trkpt><trkpt lat="47.67569352356486" lon="12.021156973091188"><ele>842.8</ele><time>2026-04-18T08:40:52Z</time></trkpt><trkpt lat="47.67561266907098" lon="12.021184936692004"><ele>840.2</ele><time>2026-04-18T08:40:53Z</time></trkpt><trkpt lat="47.67551720450883" lon="12.021208631538618"><ele>837.6</ele><time>2026-04-18T08:40:54Z</time></trkpt><trkpt lat="47.675431035616185" lon="12.021227862866525"><ele>835.0</ele><time>2026-04-18T08:40:55Z</time></trkpt><trkpt lat="47.675344289794246" lon="12.021244564445457"><ele>833.4</ele><time>2026-04-18T08:40:56Z</time></trkpt><trkpt lat="47.67525710124673" lon="12.021246166899445"><ele>831.8</ele><time>2026-04-18T08:40:57Z</time></trkpt><trkpt lat="47.67514849299873" lon="12.021239393630049"><ele>830.2</ele><time>2026-04-18T08:40:58Z</time></trkpt><trkpt lat="47.67503042618077" lon="12.021224519002327"><ele>828.6</ele><time>2026-04-18T08:40:59Z</time></trkpt><trkpt lat="47.67491705213291" lon="12.02119912990397"><ele>827.0</ele><time>2026-04-18T08:41:00Z</time></trkpt><trkpt lat="47.67481090722304" lon="12.021179545121019"><ele>827.0</ele><time>2026-04-18T08:41:01Z</time></trkpt><trkpt lat="47.67471283244243" lon="12.021124152567072"><ele>827.0</ele><time>2026-04-18T08:41:02Z</time></trkpt><trkpt lat="47.67461834655968" lon="12.021072283235558"><ele>827.0</ele><time>2026-04-18T08:41:03Z</time></trkpt><trkpt lat="47.67452342678849" lon="12.021029669418889"><ele>827.0</ele><time>2026-04-18T08:41:04Z</time></trkpt><trkpt lat="47.67442184646071" lon="12.02097866718927"><ele>827.0</ele><time>2026-04-18T08:41:05Z</time></trkpt><trkpt lat="47.67430166425139" lon="12.020926751892716"><ele>825.3333333333334</ele><time>2026-04-18T08:41:06Z</time></trkpt><trkpt lat="47.6741789237404" lon="12.020849580660743"><ele>823.6666666666667</ele><time>2026-04-18T08:41:07Z</time></trkpt><trkpt lat="47.67403000110975" lon="12.020742040320659"><ele>822.0</ele><time>2026-04-18T08:41:08Z</time></trkpt><trkpt lat="47.67386992309017" lon="12.020666722707357"><ele>821.0</ele><time>2026-04-18T08:41:09Z</time></trkpt><trkpt lat="47.673710593083" lon="12.020570844745926"><ele>820.0</ele><time>2026-04-18T08:41:10Z</time></trkpt><trkpt lat="47.673580721565095" lon="12.020492161227116"><ele>819.0</ele><time>2026-04-18T08:41:11Z</time></trkpt><trkpt lat="47.67345075671434" lon="12.020431682889205"><ele>818.0</ele><time>2026-04-18T08:41:12Z</time></trkpt><trkpt lat="47.6733301033062" lon="12.02037927533745"><ele>816.25</ele><time>2026-04-18T08:41:13Z</time></trkpt><trkpt lat="47.67321629458105" lon="12.020332307130177"><ele>814.5</ele><time>2026-04-18T08:41:14Z</time></trkpt><trkpt lat="47.67311325657448" lon="12.02027327483089"><ele>812.75</ele><time>2026-04-18T08:41:15Z</time></trkpt><trkpt lat="47.67299713012936" lon="12.020209016488366"><ele>811.0</ele><time>2026-04-18T08:41:16Z</time></trkpt><trkpt lat="47.67288534798972" lon="12.020147207964875"><ele>810.75</ele><time>2026-04-18T08:41:17Z</time></trkpt><trkpt lat="47.6727723301681" lon="12.020089896295259"><ele>810.5</ele><time>2026-04-18T08:41:18Z</time></trkpt><trkpt lat="47.672660016079654" lon="12.020025638609692"><ele>810.25</ele><time>2026-04-18T08:41:19Z</time></trkpt><trkpt lat="47.67254591407921" lon="12.019963816520224"><ele>810.0</ele><time>2026-04-18T08:41:20Z</time></trkpt><trkpt lat="47.67243036733164" lon="12.019900567076204"><ele>809.5</ele><time>2026-04-18T08:41:21Z</time></trkpt><trkpt lat="47.672316583903964" lon="12.01983679863165"><ele>809.0</ele><time>2026-04-18T08:41:22Z</time></trkpt><trkpt lat="47.67220128265032" lon="12.019768394070313"><ele>808.5</ele><time>2026-04-18T08:41:23Z</time></trkpt><trkpt lat="47.67208612462958" lon="12.019704385122381"><ele>808.0</ele><time>2026-04-18T08:41:24Z</time></trkpt><trkpt lat="47.67196262747397" lon="12.019643074468187"><ele>806.5</ele><time>2026-04-18T08:41:25Z</time></trkpt><trkpt lat="47.67184834906819" lon="12.019583154404225"><ele>805.0</ele><time>2026-04-18T08:41:26Z</time></trkpt><trkpt lat="47.671732359952" lon="12.0195310738803"><ele>803.5</ele><time>2026-04-18T08:41:27Z</time></trkpt><trkpt lat="47.671615784258286" lon="12.019461034176727"><ele>802.0</ele><time>2026-04-18T08:41:28Z</time></trkpt><trkpt lat="47.67150441629369" lon="12.019360252417513"><ele>802.0</ele><time>2026-04-18T08:41:29Z</time></trkpt><trkpt lat="47.67139834347649" lon="12.019222481238979"><ele>802.0</ele><time>2026-04-18T08:41:30Z</time></trkpt><trkpt lat="47.67131116954811" lon="12.01906681826768"><ele>802.0</ele><time>2026-04-18T08:41:31Z</time></trkpt><trkpt lat="47.67123860338056" lon="12.018894527142466"><ele>802.0</ele><time>2026-04-18T08:41:32Z</time></trkpt><trkpt lat="47.67118657320121" lon="12.01871086427749"><ele>801.25</ele><time>2026-04-18T08:41:33Z</time></trkpt><trkpt lat="47.67115893702075" lon="12.018530226587101"><ele>800.5</ele><time>2026-04-18T08:41:34Z</time></trkpt><trkpt lat="47.671151436038805" lon="12.018351952909601"><ele>799.75</ele><time>2026-04-18T08:41:35Z</time></trkpt><trkpt lat="47.67115923407494" lon="12.018175181694717"><ele>799.0</ele><time>2026-04-18T08:41:36Z</time></trkpt><trkpt lat="47.6711660773705" lon="12.017994200252913"><ele>798.25</ele><time>2026-04-18T08:41:37Z</time></trkpt><trkpt lat="47.671178622769496" lon="12.017795061900207"><ele>797.5</ele><time>2026-04-18T08:41:38Z</time></trkpt><trkpt lat="47.67119624361799" lon="12.017601124704079"><ele>796.75</ele><time>2026-04-18T08:41:39Z</time></trkpt><trkpt lat="47.67121188759248" lon="12.017415351826672"><ele>796.0</ele><time>2026-04-18T08:41:40Z</time></trkpt><trkpt lat="47.67123470213259" lon="12.017250843528913"><ele>796.0</ele><time>2026-04-18T08:41:41Z</time></trkpt><trkpt lat="47.67125723952612" lon="12.017089431826088"><ele>796.0</ele><time>2026-04-18T08:41:42Z</time></trkpt><trkpt lat="47.671269718418415" lon="12.016951720873104"><ele>796.0</ele><time>2026-04-18T08:41:43Z</time></trkpt><trkpt lat="47.67128746934386" lon="12.016820031808875"><ele>796.0</ele><time>2026-04-18T08:41:44Z</time></trkpt><trkpt lat="47.6713033688297" lon="12.01667190757421"><ele>796.0</ele><time>2026-04-18T08:41:45Z</time></trkpt><trkpt lat="47.67131668732858" lon="12.01651100161388"><ele>796.5</ele><time>2026-04-18T08:41:46Z</time></trkpt><trkpt lat="47.67133101089738" lon="12.016338743780036"><ele>797.0</ele><time>2026-04-18T08:41:47Z</time></trkpt><trkpt lat="47.67134560227105" lon="12.01616483624159"><ele>797.5</ele><time>2026-04-18T08:41:48Z</time></trkpt><trkpt lat="47.67135924911202" lon="12.015988513032745"><ele>798.0</ele><time>2026-04-18T08:41:49Z</time></trkpt><trkpt lat="47.67137503344948" lon="12.015817601964924"><ele>798.0</ele><time>2026-04-18T08:41:50Z</time></trkpt><trkpt lat="47.67139383184162" lon="12.015645557305456"><ele>798.0</ele><time>2026-04-18T08:41:51Z</time></trkpt><trkpt lat="47.67141014632607" lon="12.015473254974335"><ele>798.0</ele><time>2026-04-18T08:41:52Z</time></trkpt><trkpt lat="47.67142714955089" lon="12.01531839152142"><ele>798.0</ele><time>2026-04-18T08:41:53Z</time></trkpt><trkpt lat="47.67144146124853" lon="12.01516776959074"><ele>798.0</ele><time>2026-04-18T08:41:54Z</time></trkpt><trkpt lat="47.67145884895513" lon="12.015019683808765"><ele>797.5999999999999</ele><time>2026-04-18T08:41:55Z</time></trkpt><trkpt lat="47.671476118021715" lon="12.014864204947711"><ele>797.1999999999999</ele><time>2026-04-18T08:41:56Z</time></trkpt><trkpt lat="47.67149163337604" lon="12.014710940426506"><ele>796.8</ele><time>2026-04-18T08:41:57Z</time></trkpt><trkpt lat="47.67150724567515" lon="12.01455958216862"><ele>796.4</ele><time>2026-04-18T08:41:58Z</time></trkpt><trkpt lat="47.671529840674545" lon="12.014420242903297"><ele>796.0</ele><time>2026-04-18T08:41:59Z</time></trkpt><trkpt lat="47.67153500131291" lon="12.014283169708312"><ele>795.4</ele><time>2026-04-18T08:42:00Z</time></trkpt><trkpt lat="47.67155137690148" lon="12.014136848168986"><ele>794.8</ele><time>2026-04-18T08:42:01Z</time></trkpt><trkpt lat="47.671566374558516" lon="12.0139876561811"><ele>794.1999999999999</ele><time>2026-04-18T08:42:02Z</time></trkpt><trkpt lat="47.671581670339236" lon="12.013836619329327"><ele>793.5999999999999</ele><time>2026-04-18T08:42:03Z</time></trkpt><trkpt lat="47.671598717675906" lon="12.013682955026864"><ele>793.0</ele><time>2026-04-18T08:42:04Z</time></trkpt><trkpt lat="47.67161473478247" lon="12.013524772034883"><ele>793.0</ele><time>2026-04-18T08:42:05Z</time></trkpt><trkpt lat="47.671632946684284" lon="12.01336583361825"><ele>793.0</ele><time>2026-04-18T08:42:06Z</time></trkpt><trkpt lat="47.6716487718752" lon="12.013204390798439"><ele>793.0</ele><time>2026-04-18T08:42:07Z</time></trkpt><trkpt lat="47.671658680127535" lon="12.013040706622279"><ele>793.0</ele><time>2026-04-18T08:42:08Z</time></trkpt><trkpt lat="47.67168201276946" lon="12.01287866962018"><ele>793.0</ele><time>2026-04-18T08:42:09Z</time></trkpt><trkpt lat="47.67170237887451" lon="12.01271351075089"><ele>793.25</ele><time>2026-04-18T08:42:10Z</time></trkpt><trkpt lat="47.6717257606719" lon="12.01254461428639"><ele>793.5</ele><time>2026-04-18T08:42:11Z</time></trkpt><trkpt lat="47.67174875343905" lon="12.01238535884795"><ele>793.75</ele><time>2026-04-18T08:42:12Z</time></trkpt><trkpt lat="47.671778720489826" lon="12.012228949156746"><ele>794.0</ele><time>2026-04-18T08:42:13Z</time></trkpt><trkpt lat="47.67180472680864" lon="12.012059992512002"><ele>794.25</ele><time>2026-04-18T08:42:14Z</time></trkpt><trkpt lat="47.671835965297966" lon="12.011895939984754"><ele>794.5</ele><time>2026-04-18T08:42:15Z</time></trkpt><trkpt lat="47.67187576821375" lon="12.011723194998753"><ele>794.75</ele><time>2026-04-18T08:42:16Z</time></trkpt><trkpt lat="47.671924065603484" lon="12.01155713423586"><ele>795.0</ele><time>2026-04-18T08:42:17Z</time></trkpt><trkpt lat="47.67197744062312" lon="12.011388751512664"><ele>795.25</ele><time>2026-04-18T08:42:18Z</time></trkpt><trkpt lat="47.67203197788674" lon="12.011219931915724"><ele>795.5</ele><time>2026-04-18T08:42:19Z</time></trkpt><trkpt lat="47.6720736240795" lon="12.011056037630079"><ele>795.75</ele><time>2026-04-18T08:42:20Z</time></trkpt><trkpt lat="47.6721221041259" lon="12.010897640673827"><ele>796.0</ele><time>2026-04-18T08:42:21Z</time></trkpt><trkpt lat="47.67219430160516" lon="12.010725240341445"><ele>796.0</ele><time>2026-04-18T08:42:22Z</time></trkpt><trkpt lat="47.67226033321088" lon="12.01055503483406"><ele>796.0</ele><time>2026-04-18T08:42:23Z</time></trkpt><trkpt lat="47.67233569187213" lon="12.010378378772682"><ele>796.0</ele><time>2026-04-18T08:42:24Z</time></trkpt><trkpt lat="47.67244080391987" lon="12.010208943590408"><ele>796.0</ele><time>2026-04-18T08:42:25Z</time></trkpt><trkpt lat="47.672534464961146" lon="12.010030718656873"><ele>796.0</ele><time>2026-04-18T08:42:26Z</time></trkpt><trkpt lat="47.67262575368386" lon="12.009835944980999"><ele>796.0</ele><time>2026-04-18T08:42:27Z</time></trkpt><trkpt lat="47.672736919888656" lon="12.009691053834732"><ele>796.0</ele><time>2026-04-18T08:42:28Z</time></trkpt><trkpt lat="47.6728461010031" lon="12.009527242087522"><ele>796.0</ele><time>2026-04-18T08:42:29Z</time></trkpt><trkpt lat="47.67296728107174" lon="12.009355860640353"><ele>796.0</ele><time>2026-04-18T08:42:30Z</time></trkpt><trkpt lat="47.673097886088236" lon="12.009192077494816"><ele>796.0</ele><time>2026-04-18T08:42:31Z</time></trkpt><trkpt lat="47.67322045474081" lon="12.009046529091538"><ele>796.0</ele><time>2026-04-18T08:42:32Z</time></trkpt><trkpt lat="47.6733470118741" lon="12.008910409688124"><ele>796.0</ele><time>2026-04-18T08:42:33Z</time></trkpt><trkpt lat="47.6734716220145" lon="12.008779886264396"><ele>796.0</ele><time>2026-04-18T08:42:34Z</time></trkpt><trkpt lat="47.67360030648231" lon="12.008644076426128"><ele>795.3333333333333</ele><time>2026-04-18T08:42:35Z</time></trkpt><trkpt lat="47.673721974219994" lon="12.008515413483554"><ele>794.6666666666667</ele><time>2026-04-18T08:42:36Z</time></trkpt><trkpt lat="47.673846690047" lon="12.008383527203778"><ele>794.0</ele><time>2026-04-18T08:42:37Z</time></trkpt><trkpt lat="47.67397614528074" lon="12.008247142442793"><ele>794.0</ele><time>2026-04-18T08:42:38Z</time></trkpt><trkpt lat="47.674103094268744" lon="12.008113719687953"><ele>794.0</ele><time>2026-04-18T08:42:39Z</time></trkpt><trkpt lat="47.674233161526686" lon="12.007976370728592"><ele>794.0</ele><time>2026-04-18T08:42:40Z</time></trkpt><trkpt lat="47.67437243146094" lon="12.007829045504442"><ele>794.0</ele><time>2026-04-18T08:42:41Z</time></trkpt><trkpt lat="47.67450396832705" lon="12.007663588996362"><ele>794.0</ele><time>2026-04-18T08:42:42Z</time></trkpt><trkpt lat="47.67464748257542" lon="12.007517428318002"><ele>794.0</ele><time>2026-04-18T08:42:43Z</time></trkpt><trkpt lat="47.67479253798431" lon="12.007365317786833"><ele>793.6666666666667</ele><time>2026-04-18T08:42:44Z</time></trkpt><trkpt lat="47.67493654190497" lon="12.00721343309714"><ele>793.3333333333333</ele><time>2026-04-18T08:42:45Z</time></trkpt><trkpt lat="47.67508181299709" lon="12.007060923189043"><ele>793.0</ele><time>2026-04-18T08:42:46Z</time></trkpt><trkpt lat="47.675226785954244" lon="12.006909278435513"><ele>793.0</ele><time>2026-04-18T08:42:47Z</time></trkpt><trkpt lat="47.67537087871392" lon="12.006758071906026"><ele>793.0</ele><time>2026-04-18T08:42:48Z</time></trkpt><trkpt lat="47.675516100149494" lon="12.006603625882768"><ele>793.0</ele><time>2026-04-18T08:42:49Z</time></trkpt><trkpt lat="47.67566052989149" lon="12.006453333995559"><ele>793.0</ele><time>2026-04-18T08:42:50Z</time></trkpt><trkpt lat="47.67581064898811" lon="12.006297418246323"><ele>793.0</ele><time>2026-04-18T08:42:51Z</time></trkpt><trkpt lat="47.67596623495591" lon="12.006134231251828"><ele>793.0</ele><time>2026-04-18T08:42:52Z</time></trkpt><trkpt lat="47.67611957036698" lon="12.00597158939268"><ele>792.0</ele><time>2026-04-18T08:42:53Z</time></trkpt><trkpt lat="47.676271683760305" lon="12.005809730956837"><ele>791.0</ele><time>2026-04-18T08:42:54Z</time></trkpt><trkpt lat="47.67642246653585" lon="12.005652819680032"><ele>790.0</ele><time>2026-04-18T08:42:55Z</time></trkpt><trkpt lat="47.676573305027645" lon="12.005495923267258"><ele>790.0</ele><time>2026-04-18T08:42:56Z</time></trkpt><trkpt lat="47.67672150141394" lon="12.00534195682942"><ele>790.0</ele><time>2026-04-18T08:42:57Z</time></trkpt><trkpt lat="47.676869166678074" lon="12.00518709435438"><ele>790.0</ele><time>2026-04-18T08:42:58Z</time></trkpt><trkpt lat="47.677015006766155" lon="12.005032662734594"><ele>789.6666666666666</ele><time>2026-04-18T08:42:59Z</time></trkpt><trkpt lat="47.67715737494525" lon="12.004879735150109"><ele>789.3333333333333</ele><time>2026-04-18T08:43:00Z</time></trkpt><trkpt lat="47.67729554508758" lon="12.004730185321677"><ele>789.0</ele><time>2026-04-18T08:43:01Z</time></trkpt><trkpt lat="47.677431032793805" lon="12.004580062943724"><ele>789.0</ele><time>2026-04-18T08:43:02Z</time></trkpt><trkpt lat="47.67756607281019" lon="12.004426443181163"><ele>789.0</ele><time>2026-04-18T08:43:03Z</time></trkpt><trkpt lat="47.677697794954604" lon="12.004269908260076"><ele>789.0</ele><time>2026-04-18T08:43:04Z</time></trkpt><trkpt lat="47.67782792601973" lon="12.004116400353357"><ele>789.0</ele><time>2026-04-18T08:43:05Z</time></trkpt><trkpt lat="47.67795644811394" lon="12.003962296670904"><ele>789.0</ele><time>2026-04-18T08:43:06Z</time></trkpt><trkpt lat="47.6780872096713" lon="12.003805139280939"><ele>789.0</ele><time>2026-04-18T08:43:07Z</time></trkpt><trkpt lat="47.67821572642001" lon="12.003650236137736"><ele>789.0</ele><time>2026-04-18T08:43:08Z</time></trkpt><trkpt lat="47.67834049155159" lon="12.00349917154006"><ele>789.0</ele><time>2026-04-18T08:43:09Z</time></trkpt><trkpt lat="47.67846121688375" lon="12.003350352040083"><ele>789.0</ele><time>2026-04-18T08:43:10Z</time></trkpt><trkpt lat="47.678584046719585" lon="12.003190625319002"><ele>788.3333333333333</ele><time>2026-04-18T08:43:11Z</time></trkpt><trkpt lat="47.67869723641779" lon="12.003012413424756"><ele>787.6666666666666</ele><time>2026-04-18T08:43:12Z</time></trkpt><trkpt lat="47.678807482190834" lon="12.002830585646041"><ele>787.0</ele><time>2026-04-18T08:43:13Z</time></trkpt><trkpt lat="47.678909721220705" lon="12.00265929458658"><ele>786.6666666666666</ele><time>2026-04-18T08:43:14Z</time></trkpt><trkpt lat="47.67901474928805" lon="12.002483021467345"><ele>786.3333333333333</ele><time>2026-04-18T08:43:15Z</time></trkpt><trkpt lat="47.67912208998504" lon="12.002306342095483"><ele>786.0</ele><time>2026-04-18T08:43:16Z</time></trkpt><trkpt lat="47.67922843094386" lon="12.002129387801423"><ele>786.0</ele><time>2026-04-18T08:43:17Z</time></trkpt><trkpt lat="47.67933489731865" lon="12.001945993272042"><ele>786.0</ele><time>2026-04-18T08:43:18Z</time></trkpt><trkpt lat="47.67944681614922" lon="12.001757632996924"><ele>786.0</ele><time>2026-04-18T08:43:19Z</time></trkpt><trkpt lat="47.6795621252224" lon="12.001560934477078"><ele>786.3333333333333</ele><time>2026-04-18T08:43:20Z</time></trkpt><trkpt lat="47.679675740294144" lon="12.001357964358014"><ele>786.6666666666666</ele><time>2026-04-18T08:43:21Z</time></trkpt><trkpt lat="47.679785427989735" lon="12.001154742082065"><ele>787.0</ele><time>2026-04-18T08:43:22Z</time></trkpt><trkpt lat="47.6798947835256" lon="12.000950440006955"><ele>787.3333333333333</ele><time>2026-04-18T08:43:23Z</time></trkpt><trkpt lat="47.680004141573335" lon="12.000745176923827"><ele>787.6666666666667</ele><time>2026-04-18T08:43:24Z</time></trkpt><trkpt lat="47.68011409695595" lon="12.000529982607455"><ele>788.0</ele><time>2026-04-18T08:43:25Z</time></trkpt><trkpt lat="47.68022970818905" lon="12.000305063481525"><ele>789.3333333333334</ele><time>2026-04-18T08:43:26Z</time></trkpt><trkpt lat="47.680349180352565" lon="12.00007349834662"><ele>790.6666666666667</ele><time>2026-04-18T08:43:27Z</time></trkpt><trkpt lat="47.680469662233676" lon="11.999837268803052"><ele>792.0</ele><time>2026-04-18T08:43:28Z</time></trkpt><trkpt lat="47.68058578365514" lon="11.999602288261297"><ele>792.0</ele><time>2026-04-18T08:43:29Z</time></trkpt><trkpt lat="47.680694554458704" lon="11.999376322860728"><ele>792.0</ele><time>2026-04-18T08:43:30Z</time></trkpt><trkpt lat="47.68079711896176" lon="11.999161703781773"><ele>792.0</ele><time>2026-04-18T08:43:31Z</time></trkpt><trkpt lat="47.680892791863585" lon="11.998954893173792"><ele>790.0</ele><time>2026-04-18T08:43:32Z</time></trkpt><trkpt lat="47.680985676895475" lon="11.998750788154826"><ele>788.0</ele><time>2026-04-18T08:43:33Z</time></trkpt><trkpt lat="47.68107714107773" lon="11.998544174913105"><ele>786.0</ele><time>2026-04-18T08:43:34Z</time></trkpt><trkpt lat="47.68116967240114" lon="11.99832777713996"><ele>792.0</ele><time>2026-04-18T08:43:35Z</time></trkpt><trkpt lat="47.68126414331406" lon="11.998108703724931"><ele>798.0</ele><time>2026-04-18T08:43:36Z</time></trkpt><trkpt lat="47.681356158266816" lon="11.99789113530275"><ele>804.0</ele><time>2026-04-18T08:43:37Z</time></trkpt><trkpt lat="47.6814496432543" lon="11.99767177685753"><ele>800.0</ele><time>2026-04-18T08:43:38Z</time></trkpt><trkpt lat="47.68154488490483" lon="11.997445492147689"><ele>796.0</ele><time>2026-04-18T08:43:39Z</time></trkpt><trkpt lat="47.681639858796856" lon="11.997213378394743"><ele>792.0</ele><time>2026-04-18T08:43:40Z</time></trkpt><trkpt lat="47.68173361289187" lon="11.996976787725297"><ele>792.0</ele><time>2026-04-18T08:43:41Z</time></trkpt><trkpt lat="47.681824983714655" lon="11.996737717835847"><ele>792.0</ele><time>2026-04-18T08:43:42Z</time></trkpt><trkpt lat="47.681912632464524" lon="11.996499357542824"><ele>792.0</ele><time>2026-04-18T08:43:42.999Z</time></trkpt><trkpt lat="47.68199838436808" lon="11.996263297349248"><ele>793.0</ele><time>2026-04-18T08:43:43.999Z</time></trkpt><trkpt lat="47.682085830178856" lon="11.996022277460327"><ele>794.0</ele><time>2026-04-18T08:43:44.999Z</time></trkpt><trkpt lat="47.68217226001119" lon="11.995783779066631"><ele>795.0</ele><time>2026-04-18T08:43:45.999Z</time></trkpt><trkpt lat="47.682258061910595" lon="11.995540701391176"><ele>795.0</ele><time>2026-04-18T08:43:46.999Z</time></trkpt><trkpt lat="47.68234401457425" lon="11.995294800429182"><ele>795.0</ele><time>2026-04-18T08:43:47.999Z</time></trkpt><trkpt lat="47.68242899806079" lon="11.995045292610456"><ele>795.0</ele><time>2026-04-18T08:43:48.999Z</time></trkpt><trkpt lat="47.68251330866818" lon="11.994796609122211"><ele>792.0</ele><time>2026-04-18T08:43:49.999Z</time></trkpt><trkpt lat="47.682597277383415" lon="11.994546451865126"><ele>789.0</ele><time>2026-04-18T08:43:50.999Z</time></trkpt><trkpt lat="47.68268109963853" lon="11.99429581009649"><ele>786.0</ele><time>2026-04-18T08:43:51.999Z</time></trkpt><trkpt lat="47.68276473155286" lon="11.994043904423298"><ele>785.6666666666667</ele><time>2026-04-18T08:43:52.999Z</time></trkpt><trkpt lat="47.68284904244778" lon="11.993793755880354"><ele>785.3333333333334</ele><time>2026-04-18T08:43:53.999Z</time></trkpt><trkpt lat="47.68293410451698" lon="11.993549935298091"><ele>785.0</ele><time>2026-04-18T08:43:54.999Z</time></trkpt><trkpt lat="47.6830179981863" lon="11.993308022300056"><ele>785.0</ele><time>2026-04-18T08:43:55.999Z</time></trkpt><trkpt lat="47.68310087206822" lon="11.993054621501544"><ele>785.0</ele><time>2026-04-18T08:43:56.999Z</time></trkpt><trkpt lat="47.68319217984371" lon="11.99277799588143"><ele>785.0</ele><time>2026-04-18T08:43:57.999Z</time></trkpt><trkpt lat="47.68328520621873" lon="11.992503949310244"><ele>785.0</ele><time>2026-04-18T08:43:58.999Z</time></trkpt><trkpt lat="47.68337301624383" lon="11.99225076163199"><ele>785.0</ele><time>2026-04-18T08:43:59.999Z</time></trkpt><trkpt lat="47.68345414235686" lon="11.992011728626206"><ele>785.0</ele><time>2026-04-18T08:44:00.999Z</time></trkpt><trkpt lat="47.68352612595125" lon="11.991779340935173"><ele>784.3333333333334</ele><time>2026-04-18T08:44:01.999Z</time></trkpt><trkpt lat="47.68359325886927" lon="11.991547721736351"><ele>783.6666666666667</ele><time>2026-04-18T08:44:02.999Z</time></trkpt><trkpt lat="47.68365636235623" lon="11.991316089741261"><ele>783.0</ele><time>2026-04-18T08:44:03.999Z</time></trkpt><trkpt lat="47.683715369794776" lon="11.99108462652465"><ele>783.6666666666667</ele><time>2026-04-18T08:44:04.999Z</time></trkpt><trkpt lat="47.6837738968001" lon="11.990841958363195"><ele>784.3333333333334</ele><time>2026-04-18T08:44:05.999Z</time></trkpt><trkpt lat="47.683828274901614" lon="11.990595577493988"><ele>785.0</ele><time>2026-04-18T08:44:06.999Z</time></trkpt><trkpt lat="47.68388418807633" lon="11.990338604953156"><ele>785.0</ele><time>2026-04-18T08:44:08Z</time></trkpt><trkpt lat="47.68393756030613" lon="11.9900597165919"><ele>785.0</ele><time>2026-04-18T08:44:09Z</time></trkpt><trkpt lat="47.683988704033304" lon="11.989773282376543"><ele>785.0</ele><time>2026-04-18T08:44:10Z</time></trkpt><trkpt lat="47.684043823766146" lon="11.989494187645487"><ele>785.3333333333334</ele><time>2026-04-18T08:44:11Z</time></trkpt><trkpt lat="47.68409864369931" lon="11.989218422354254"><ele>785.6666666666667</ele><time>2026-04-18T08:44:12Z</time></trkpt><trkpt lat="47.68415712478136" lon="11.988951451900386"><ele>786.0</ele><time>2026-04-18T08:44:13Z</time></trkpt><trkpt lat="47.68421531392792" lon="11.988691133439445"><ele>786.3333333333333</ele><time>2026-04-18T08:44:14Z</time></trkpt><trkpt lat="47.684277238208985" lon="11.988435203967333"><ele>786.6666666666666</ele><time>2026-04-18T08:44:15Z</time></trkpt><trkpt lat="47.684341679867224" lon="11.988183221020362"><ele>787.0</ele><time>2026-04-18T08:44:16Z</time></trkpt><trkpt lat="47.68441247471526" lon="11.987942304988287"><ele>788.6666666666666</ele><time>2026-04-18T08:44:17Z</time></trkpt><trkpt lat="47.684487970795445" lon="11.98771730986298"><ele>790.3333333333333</ele><time>2026-04-18T08:44:18Z</time></trkpt><trkpt lat="47.68457301270281" lon="11.98747316736822"><ele>792.0</ele><time>2026-04-18T08:44:19Z</time></trkpt><trkpt lat="47.68466187637293" lon="11.98722018698402"><ele>792.0</ele><time>2026-04-18T08:44:20Z</time></trkpt><trkpt lat="47.68475418170468" lon="11.986959933711077"><ele>792.0</ele><time>2026-04-18T08:44:21Z</time></trkpt><trkpt lat="47.684852050236785" lon="11.986706903845118"><ele>792.0</ele><time>2026-04-18T08:44:22Z</time></trkpt><trkpt lat="47.684950638577305" lon="11.986462084178472"><ele>792.0</ele><time>2026-04-18T08:44:23Z</time></trkpt><trkpt lat="47.685057472574364" lon="11.986225676935423"><ele>792.0</ele><time>2026-04-18T08:44:24Z</time></trkpt><trkpt lat="47.685156392422776" lon="11.985994749934642"><ele>792.0</ele><time>2026-04-18T08:44:25Z</time></trkpt><trkpt lat="47.685242714384316" lon="11.985773252345867"><ele>792.6666666666667</ele><time>2026-04-18T08:44:26Z</time></trkpt><trkpt lat="47.68532854069985" lon="11.985542761997488"><ele>793.3333333333334</ele><time>2026-04-18T08:44:27Z</time></trkpt><trkpt lat="47.68541857210173" lon="11.985320771999524"><ele>794.0</ele><time>2026-04-18T08:44:28Z</time></trkpt><trkpt lat="47.6855095652925" lon="11.985092749065037"><ele>793.3333333333334</ele><time>2026-04-18T08:44:29Z</time></trkpt><trkpt lat="47.68560180463385" lon="11.984867077736036"><ele>792.6666666666667</ele><time>2026-04-18T08:44:30Z</time></trkpt><trkpt lat="47.68569350675857" lon="11.984634290694675"><ele>792.0</ele><time>2026-04-18T08:44:31Z</time></trkpt><trkpt lat="47.685785697764196" lon="11.984403413460203"><ele>791.6666666666667</ele><time>2026-04-18T08:44:32Z</time></trkpt><trkpt lat="47.68587952141383" lon="11.984171504886836"><ele>791.3333333333334</ele><time>2026-04-18T08:44:33Z</time></trkpt><trkpt lat="47.68597260646897" lon="11.983935583998182"><ele>791.0</ele><time>2026-04-18T08:44:34Z</time></trkpt><trkpt lat="47.68606522595135" lon="11.983697095268454"><ele>791.6666666666667</ele><time>2026-04-18T08:44:35Z</time></trkpt><trkpt lat="47.686158656981775" lon="11.983456530389706"><ele>792.3333333333333</ele><time>2026-04-18T08:44:36Z</time></trkpt><trkpt lat="47.686253027410956" lon="11.983216438646837"><ele>793.0</ele><time>2026-04-18T08:44:37Z</time></trkpt><trkpt lat="47.686347885056875" lon="11.982979457476903"><ele>793.0</ele><time>2026-04-18T08:44:38Z</time></trkpt><trkpt lat="47.68643967728199" lon="11.9827341238413"><ele>793.0</ele><time>2026-04-18T08:44:39Z</time></trkpt><trkpt lat="47.68653032293902" lon="11.982513333566104"><ele>793.0</ele><time>2026-04-18T08:44:40Z</time></trkpt><trkpt lat="47.68662406240005" lon="11.982292317211295"><ele>792.0</ele><time>2026-04-18T08:44:41Z</time></trkpt><trkpt lat="47.68671343863738" lon="11.982072932155624"><ele>791.0</ele><time>2026-04-18T08:44:42Z</time></trkpt><trkpt lat="47.68680363557078" lon="11.981852110716888"><ele>790.0</ele><time>2026-04-18T08:44:43Z</time></trkpt><trkpt lat="47.68689649122781" lon="11.981627282015653"><ele>792.0</ele><time>2026-04-18T08:44:44Z</time></trkpt><trkpt lat="47.68699268103826" lon="11.981390844354248"><ele>794.0</ele><time>2026-04-18T08:44:45Z</time></trkpt><trkpt lat="47.68709319802984" lon="11.981141417407033"><ele>796.0</ele><time>2026-04-18T08:44:46Z</time></trkpt><trkpt lat="47.687199602663355" lon="11.980890783361978"><ele>794.0</ele><time>2026-04-18T08:44:47Z</time></trkpt><trkpt lat="47.687305570587284" lon="11.98063994117266"><ele>792.0</ele><time>2026-04-18T08:44:48Z</time></trkpt><trkpt lat="47.68740771928439" lon="11.980387865989224"><ele>790.0</ele><time>2026-04-18T08:44:49Z</time></trkpt><trkpt lat="47.68750737206894" lon="11.980138731839043"><ele>788.0</ele><time>2026-04-18T08:44:50Z</time></trkpt><trkpt lat="47.6876047115494" lon="11.979888138257257"><ele>786.0</ele><time>2026-04-18T08:44:51Z</time></trkpt><trkpt lat="47.68769900192321" lon="11.979631271328598"><ele>784.0</ele><time>2026-04-18T08:44:52Z</time></trkpt><trkpt lat="47.68778637645177" lon="11.979384538403297"><ele>783.3333333333333</ele><time>2026-04-18T08:44:53Z</time></trkpt><trkpt lat="47.68787213709419" lon="11.97913552474287"><ele>782.6666666666667</ele><time>2026-04-18T08:44:54Z</time></trkpt><trkpt lat="47.687954430905265" lon="11.97886567528502"><ele>782.0</ele><time>2026-04-18T08:44:55Z</time></trkpt><trkpt lat="47.68803930112857" lon="11.978583685826012"><ele>781.0</ele><time>2026-04-18T08:44:56Z</time></trkpt><trkpt lat="47.688122823531145" lon="11.978307370449906"><ele>780.0</ele><time>2026-04-18T08:44:57Z</time></trkpt><trkpt lat="47.68821357510474" lon="11.97803479755281"><ele>779.0</ele><time>2026-04-18T08:44:58Z</time></trkpt><trkpt lat="47.68830618794068" lon="11.977774138644657"><ele>779.0</ele><time>2026-04-18T08:44:59Z</time></trkpt><trkpt lat="47.688394388596535" lon="11.977526680586669"><ele>779.0</ele><time>2026-04-18T08:45:00.001Z</time></trkpt><trkpt lat="47.68848010636101" lon="11.977284396760203"><ele>779.0</ele><time>2026-04-18T08:45:01Z</time></trkpt><trkpt lat="47.688564450947126" lon="11.977050451679833"><ele>778.6666666666667</ele><time>2026-04-18T08:45:02Z</time></trkpt><trkpt lat="47.688645259761934" lon="11.976818743693844"><ele>778.3333333333333</ele><time>2026-04-18T08:45:03Z</time></trkpt><trkpt lat="47.688734260638476" lon="11.976593940261033"><ele>778.0</ele><time>2026-04-18T08:45:04Z</time></trkpt><trkpt lat="47.688823078091936" lon="11.97637411164466"><ele>777.3333333333333</ele><time>2026-04-18T08:45:05Z</time></trkpt><trkpt lat="47.688897977763745" lon="11.976141037471491"><ele>776.6666666666667</ele><time>2026-04-18T08:45:06Z</time></trkpt><trkpt lat="47.688975852173265" lon="11.975897421674222"><ele>776.0</ele><time>2026-04-18T08:45:07Z</time></trkpt><trkpt lat="47.68905768531461" lon="11.97563379025123"><ele>776.0</ele><time>2026-04-18T08:45:08Z</time></trkpt><trkpt lat="47.68915222283445" lon="11.975359699497298"><ele>776.0</ele><time>2026-04-18T08:45:09Z</time></trkpt><trkpt lat="47.68925098121021" lon="11.975074548358924"><ele>776.0</ele><time>2026-04-18T08:45:10Z</time></trkpt><trkpt lat="47.68934948404498" lon="11.974779520641535"><ele>777.0</ele><time>2026-04-18T08:45:11Z</time></trkpt><trkpt lat="47.68944318677809" lon="11.974502363732094"><ele>778.0</ele><time>2026-04-18T08:45:12Z</time></trkpt><trkpt lat="47.68953208993001" lon="11.974235662988006"><ele>779.0</ele><time>2026-04-18T08:45:13Z</time></trkpt><trkpt lat="47.689613040342245" lon="11.973979240816012"><ele>779.0</ele><time>2026-04-18T08:45:14Z</time></trkpt><trkpt lat="47.68969212771675" lon="11.973722210664548"><ele>779.0</ele><time>2026-04-18T08:45:15Z</time></trkpt><trkpt lat="47.6897713527311" lon="11.973464667622087"><ele>779.0</ele><time>2026-04-18T08:45:16Z</time></trkpt><trkpt lat="47.68985139351746" lon="11.973204832265731"><ele>778.0</ele><time>2026-04-18T08:45:17Z</time></trkpt><trkpt lat="47.68992924274817" lon="11.972938888908539"><ele>777.0</ele><time>2026-04-18T08:45:18Z</time></trkpt><trkpt lat="47.69000570733552" lon="11.972673315482263"><ele>776.0</ele><time>2026-04-18T08:45:19Z</time></trkpt><trkpt lat="47.6900816614551" lon="11.972410512806169"><ele>776.3333333333334</ele><time>2026-04-18T08:45:20Z</time></trkpt><trkpt lat="47.690156876720145" lon="11.972154487601602"><ele>776.6666666666667</ele><time>2026-04-18T08:45:21Z</time></trkpt><trkpt lat="47.69023229646936" lon="11.971897704202677"><ele>777.0</ele><time>2026-04-18T08:45:22Z</time></trkpt><trkpt lat="47.69030881192548" lon="11.971638998862822"><ele>777.0</ele><time>2026-04-18T08:45:23Z</time></trkpt><trkpt lat="47.690386978129254" lon="11.971373579210669"><ele>777.0</ele><time>2026-04-18T08:45:24Z</time></trkpt><trkpt lat="47.69046655953622" lon="11.971109963741153"><ele>777.0</ele><time>2026-04-18T08:45:25Z</time></trkpt><trkpt lat="47.69054547329313" lon="11.970843692920587"><ele>775.3333333333333</ele><time>2026-04-18T08:45:26Z</time></trkpt><trkpt lat="47.69062339825823" lon="11.970579879716873"><ele>773.6666666666666</ele><time>2026-04-18T08:45:27Z</time></trkpt><trkpt lat="47.690700367636914" lon="11.970318276773924"><ele>772.0</ele><time>2026-04-18T08:45:28Z</time></trkpt><trkpt lat="47.69078057867398" lon="11.970061709280603"><ele>772.3333333333333</ele><time>2026-04-18T08:45:29Z</time></trkpt><trkpt lat="47.69085735689444" lon="11.969811022787361"><ele>772.6666666666667</ele><time>2026-04-18T08:45:30Z</time></trkpt><trkpt lat="47.69092213765428" lon="11.969558268203892"><ele>773.0</ele><time>2026-04-18T08:45:31Z</time></trkpt><trkpt lat="47.69097626784466" lon="11.969299226521539"><ele>773.0</ele><time>2026-04-18T08:45:32Z</time></trkpt><trkpt lat="47.6910202289975" lon="11.969038764484301"><ele>773.0</ele><time>2026-04-18T08:45:33Z</time></trkpt><trkpt lat="47.69105167072989" lon="11.968777203493248"><ele>773.0</ele><time>2026-04-18T08:45:34Z</time></trkpt><trkpt lat="47.69107441316343" lon="11.968510755622832"><ele>773.0</ele><time>2026-04-18T08:45:35Z</time></trkpt><trkpt lat="47.6910861024774" lon="11.968244722168308"><ele>773.0</ele><time>2026-04-18T08:45:36Z</time></trkpt><trkpt lat="47.691091772727155" lon="11.967979736392365"><ele>773.0</ele><time>2026-04-18T08:45:37Z</time></trkpt><trkpt lat="47.691092007417154" lon="11.967716552274435"><ele>773.0</ele><time>2026-04-18T08:45:38Z</time></trkpt><trkpt lat="47.6910909693437" lon="11.96745698147634"><ele>773.0</ele><time>2026-04-18T08:45:39Z</time></trkpt><trkpt lat="47.6910901002833" lon="11.967200551075067"><ele>773.0</ele><time>2026-04-18T08:45:40Z</time></trkpt><trkpt lat="47.69109328191736" lon="11.966942697087344"><ele>773.0</ele><time>2026-04-18T08:45:41Z</time></trkpt><trkpt lat="47.6910950772519" lon="11.966680776269063"><ele>773.0</ele><time>2026-04-18T08:45:42Z</time></trkpt><trkpt lat="47.69109368088448" lon="11.96641677633067"><ele>773.0</ele><time>2026-04-18T08:45:43Z</time></trkpt><trkpt lat="47.69109435401784" lon="11.966151890761932"><ele>773.0</ele><time>2026-04-18T08:45:44Z</time></trkpt><trkpt lat="47.6910966771073" lon="11.965887548819888"><ele>773.0</ele><time>2026-04-18T08:45:45Z</time></trkpt><trkpt lat="47.69109873750312" lon="11.965624539057991"><ele>773.0</ele><time>2026-04-18T08:45:46Z</time></trkpt><trkpt lat="47.691099728154796" lon="11.965360385519833"><ele>772.6666666666667</ele><time>2026-04-18T08:45:47Z</time></trkpt><trkpt lat="47.69110077210539" lon="11.9650951778469"><ele>772.3333333333333</ele><time>2026-04-18T08:45:48Z</time></trkpt><trkpt lat="47.69110610714013" lon="11.964824241896208"><ele>772.0</ele><time>2026-04-18T08:45:49Z</time></trkpt><trkpt lat="47.69111464277514" lon="11.964550758037888"><ele>772.0</ele><time>2026-04-18T08:45:50Z</time></trkpt><trkpt lat="47.691127102482376" lon="11.96428590381063"><ele>772.0</ele><time>2026-04-18T08:45:51Z</time></trkpt><trkpt lat="47.69114393452924" lon="11.964025470076436"><ele>772.0</ele><time>2026-04-18T08:45:52Z</time></trkpt><trkpt lat="47.69116583343601" lon="11.963765940766406"><ele>772.0</ele><time>2026-04-18T08:45:53Z</time></trkpt><trkpt lat="47.69119349900193" lon="11.963506631616506"><ele>772.0</ele><time>2026-04-18T08:45:54Z</time></trkpt><trkpt lat="47.69122363188697" lon="11.963249499025384"><ele>772.0</ele><time>2026-04-18T08:45:55Z</time></trkpt><trkpt lat="47.69125879918022" lon="11.962995495979595"><ele>772.0</ele><time>2026-04-18T08:45:56Z</time></trkpt><trkpt lat="47.6912986394789" lon="11.962744235686872"><ele>772.0</ele><time>2026-04-18T08:45:57Z</time></trkpt><trkpt lat="47.69134048609397" lon="11.962495064562425"><ele>772.0</ele><time>2026-04-18T08:45:58Z</time></trkpt><trkpt lat="47.69138473634353" lon="11.962247894422426"><ele>771.6666666666666</ele><time>2026-04-18T08:45:59Z</time></trkpt><trkpt lat="47.691435224944925" lon="11.962003103410833"><ele>771.3333333333333</ele><time>2026-04-18T08:46:00Z</time></trkpt><trkpt lat="47.691491838259545" lon="11.961763576911471"><ele>771.0</ele><time>2026-04-18T08:46:01Z</time></trkpt><trkpt lat="47.69154923757344" lon="11.961524324760674"><ele>771.0</ele><time>2026-04-18T08:46:02Z</time></trkpt><trkpt lat="47.6916083223586" lon="11.96128582082408"><ele>771.0</ele><time>2026-04-18T08:46:03Z</time></trkpt><trkpt lat="47.69167168500011" lon="11.961047774245039"><ele>771.0</ele><time>2026-04-18T08:46:04Z</time></trkpt><trkpt lat="47.691738264699936" lon="11.960815521273636"><ele>770.3333333333333</ele><time>2026-04-18T08:46:05Z</time></trkpt><trkpt lat="47.691810017392775" lon="11.9605859205152"><ele>769.6666666666666</ele><time>2026-04-18T08:46:06Z</time></trkpt><trkpt lat="47.69188876622871" lon="11.96035239034706"><ele>769.0</ele><time>2026-04-18T08:46:07Z</time></trkpt><trkpt lat="47.69197042923039" lon="11.960118838510203"><ele>768.3333333333333</ele><time>2026-04-18T08:46:08Z</time></trkpt><trkpt lat="47.692052476595734" lon="11.959887464844817"><ele>767.6666666666666</ele><time>2026-04-18T08:46:09Z</time></trkpt><trkpt lat="47.692135180261964" lon="11.95965875626162"><ele>767.0</ele><time>2026-04-18T08:46:10Z</time></trkpt><trkpt lat="47.69221836628155" lon="11.95943597789526"><ele>767.0</ele><time>2026-04-18T08:46:11Z</time></trkpt><trkpt lat="47.692303060241095" lon="11.95921347977397"><ele>767.0</ele><time>2026-04-18T08:46:12Z</time></trkpt><trkpt lat="47.69238928865608" lon="11.958984785338883"><ele>767.0</ele><time>2026-04-18T08:46:13Z</time></trkpt><trkpt lat="47.69247256587774" lon="11.958747726093337"><ele>767.0</ele><time>2026-04-18T08:46:14Z</time></trkpt><trkpt lat="47.692554117343455" lon="11.958503646649097"><ele>767.0</ele><time>2026-04-18T08:46:15Z</time></trkpt><trkpt lat="47.69263478074032" lon="11.958255429564561"><ele>767.0</ele><time>2026-04-18T08:46:16Z</time></trkpt><trkpt lat="47.6927226204951" lon="11.957996646544377"><ele>767.0</ele><time>2026-04-18T08:46:17Z</time></trkpt><trkpt lat="47.69282601282614" lon="11.957721273098276"><ele>767.0</ele><time>2026-04-18T08:46:18Z</time></trkpt><trkpt lat="47.692935124097446" lon="11.957421567853451"><ele>767.0</ele><time>2026-04-18T08:46:19Z</time></trkpt><trkpt lat="47.69304960443011" lon="11.957103912831125"><ele>767.0</ele><time>2026-04-18T08:46:20Z</time></trkpt><trkpt lat="47.69316713630665" lon="11.956766318140824"><ele>767.0</ele><time>2026-04-18T08:46:21Z</time></trkpt><trkpt lat="47.69328313571728" lon="11.956435944592252"><ele>767.0</ele><time>2026-04-18T08:46:22Z</time></trkpt><trkpt lat="47.6933888026852" lon="11.956133692998195"><ele>767.0</ele><time>2026-04-18T08:46:23Z</time></trkpt><trkpt lat="47.693488565649915" lon="11.95584406601075"><ele>767.0</ele><time>2026-04-18T08:46:24Z</time></trkpt><trkpt lat="47.693587778203394" lon="11.955562052627165"><ele>766.3333333333333</ele><time>2026-04-18T08:46:25Z</time></trkpt><trkpt lat="47.69368480060518" lon="11.955286972308912"><ele>765.6666666666666</ele><time>2026-04-18T08:46:26Z</time></trkpt><trkpt lat="47.69378066715557" lon="11.955019805991148"><ele>765.0</ele><time>2026-04-18T08:46:27Z</time></trkpt><trkpt lat="47.69387365000374" lon="11.954758414579564"><ele>765.0</ele><time>2026-04-18T08:46:28Z</time></trkpt><trkpt lat="47.69396289201648" lon="11.954506301704034"><ele>765.0</ele><time>2026-04-18T08:46:29Z</time></trkpt><trkpt lat="47.69405063251702" lon="11.954263160461439"><ele>765.0</ele><time>2026-04-18T08:46:30Z</time></trkpt><trkpt lat="47.694137266823816" lon="11.95402694855557"><ele>764.6666666666666</ele><time>2026-04-18T08:46:31Z</time></trkpt><trkpt lat="47.69422338187412" lon="11.95378309933584"><ele>764.3333333333333</ele><time>2026-04-18T08:46:32Z</time></trkpt><trkpt lat="47.694308094198476" lon="11.953531642128521"><ele>764.0</ele><time>2026-04-18T08:46:33Z</time></trkpt><trkpt lat="47.69439460375924" lon="11.953275895172087"><ele>764.6666666666666</ele><time>2026-04-18T08:46:34Z</time></trkpt><trkpt lat="47.69448427642293" lon="11.953020847604884"><ele>765.3333333333334</ele><time>2026-04-18T08:46:35Z</time></trkpt><trkpt lat="47.69457408075077" lon="11.95276539283344"><ele>766.0</ele><time>2026-04-18T08:46:36Z</time></trkpt><trkpt lat="47.694661227407856" lon="11.952519333943414"><ele>766.0</ele><time>2026-04-18T08:46:37Z</time></trkpt><trkpt lat="47.694745192098765" lon="11.95228785875911"><ele>766.0</ele><time>2026-04-18T08:46:38Z</time></trkpt><trkpt lat="47.69482526091581" lon="11.952064020292832"><ele>766.0</ele><time>2026-04-18T08:46:39Z</time></trkpt><trkpt lat="47.694904270754655" lon="11.951838677164595"><ele>765.6666666666667</ele><time>2026-04-18T08:46:40Z</time></trkpt><trkpt lat="47.694984107148684" lon="11.951613161376317"><ele>765.3333333333334</ele><time>2026-04-18T08:46:41Z</time></trkpt><trkpt lat="47.69506451132715" lon="11.95139112858466"><ele>765.0</ele><time>2026-04-18T08:46:42Z</time></trkpt><trkpt lat="47.6951433090268" lon="11.951169370106383"><ele>765.0</ele><time>2026-04-18T08:46:43Z</time></trkpt><trkpt lat="47.69522388875143" lon="11.950945896428184"><ele>765.0</ele><time>2026-04-18T08:46:44Z</time></trkpt><trkpt lat="47.69530811678672" lon="11.950713186433656"><ele>765.0</ele><time>2026-04-18T08:46:45Z</time></trkpt><trkpt lat="47.69539839886635" lon="11.95046720436217"><ele>765.0</ele><time>2026-04-18T08:46:46Z</time></trkpt><trkpt lat="47.695494642695515" lon="11.950214332505785"><ele>765.0</ele><time>2026-04-18T08:46:47Z</time></trkpt><trkpt lat="47.69559402827939" lon="11.94995715528974"><ele>765.0</ele><time>2026-04-18T08:46:48Z</time></trkpt><trkpt lat="47.695699894210804" lon="11.94969735832699"><ele>765.0</ele><time>2026-04-18T08:46:49Z</time></trkpt><trkpt lat="47.69581343806911" lon="11.949443323506179"><ele>765.0</ele><time>2026-04-18T08:46:50Z</time></trkpt><trkpt lat="47.695931388832506" lon="11.949190285149074"><ele>765.0</ele><time>2026-04-18T08:46:51Z</time></trkpt><trkpt lat="47.69605277521434" lon="11.94894243052911"><ele>765.0</ele><time>2026-04-18T08:46:52Z</time></trkpt><trkpt lat="47.69617622850966" lon="11.948697649027665"><ele>765.0</ele><time>2026-04-18T08:46:53Z</time></trkpt><trkpt lat="47.696300543120785" lon="11.948454015708894"><ele>765.0</ele><time>2026-04-18T08:46:54Z</time></trkpt><trkpt lat="47.69642683934845" lon="11.948211480441268"><ele>765.3333333333334</ele><time>2026-04-18T08:46:55Z</time></trkpt><trkpt lat="47.69655540301473" lon="11.947959251009424"><ele>765.6666666666667</ele><time>2026-04-18T08:46:56Z</time></trkpt><trkpt lat="47.69669166344131" lon="11.947697666549365"><ele>766.0</ele><time>2026-04-18T08:46:57Z</time></trkpt><trkpt lat="47.69683569226077" lon="11.947421367103438"><ele>763.5</ele><time>2026-04-18T08:46:58Z</time></trkpt><trkpt lat="47.69698205892284" lon="11.94714075849071"><ele>761.0</ele><time>2026-04-18T08:46:59Z</time></trkpt><trkpt lat="47.6971272140185" lon="11.94686400336522"><ele>761.0</ele><time>2026-04-18T08:47:00Z</time></trkpt><trkpt lat="47.6972639705862" lon="11.946601239212946"><ele>761.0</ele><time>2026-04-18T08:47:01Z</time></trkpt><trkpt lat="47.69739519657707" lon="11.946353218662843"><ele>761.0</ele><time>2026-04-18T08:47:02Z</time></trkpt><trkpt lat="47.69752193995713" lon="11.94610975991875"><ele>760.6666666666666</ele><time>2026-04-18T08:47:03Z</time></trkpt><trkpt lat="47.697647030920784" lon="11.945868147422287"><ele>760.3333333333334</ele><time>2026-04-18T08:47:04Z</time></trkpt><trkpt lat="47.69776985979321" lon="11.945630776615562"><ele>760.0</ele><time>2026-04-18T08:47:05Z</time></trkpt><trkpt lat="47.69789537305999" lon="11.945390711686777"><ele>760.0</ele><time>2026-04-18T08:47:06Z</time></trkpt><trkpt lat="47.69802192149656" lon="11.945147398291725"><ele>760.0</ele><time>2026-04-18T08:47:07Z</time></trkpt><trkpt lat="47.69814875610901" lon="11.944900566575633"><ele>760.0</ele><time>2026-04-18T08:47:08Z</time></trkpt><trkpt lat="47.6982815359057" lon="11.944652990619398"><ele>760.3333333333334</ele><time>2026-04-18T08:47:09Z</time></trkpt><trkpt lat="47.69840947467857" lon="11.944403378241025"><ele>760.6666666666666</ele><time>2026-04-18T08:47:10Z</time></trkpt><trkpt lat="47.698530667877456" lon="11.94414161946223"><ele>761.0</ele><time>2026-04-18T08:47:11Z</time></trkpt><trkpt lat="47.69865141979848" lon="11.943870611519781"><ele>760.6666666666666</ele><time>2026-04-18T08:47:12Z</time></trkpt><trkpt lat="47.698764225768166" lon="11.943602073341593"><ele>760.3333333333334</ele><time>2026-04-18T08:47:13Z</time></trkpt><trkpt lat="47.69887540615398" lon="11.943323457751934"><ele>760.0</ele><time>2026-04-18T08:47:14Z</time></trkpt><trkpt lat="47.69898190193853" lon="11.943045544282773"><ele>760.0</ele><time>2026-04-18T08:47:15Z</time></trkpt><trkpt lat="47.699085975511764" lon="11.942762432349447"><ele>760.0</ele><time>2026-04-18T08:47:16Z</time></trkpt><trkpt lat="47.69918786641237" lon="11.94247503167034"><ele>760.0</ele><time>2026-04-18T08:47:17Z</time></trkpt><trkpt lat="47.699283052348505" lon="11.942183364551433"><ele>759.6666666666667</ele><time>2026-04-18T08:47:18Z</time></trkpt><trkpt lat="47.699372080576765" lon="11.94188941955033"><ele>759.3333333333334</ele><time>2026-04-18T08:47:19Z</time></trkpt><trkpt lat="47.69945587239231" lon="11.941593547125377"><ele>759.0</ele><time>2026-04-18T08:47:20Z</time></trkpt><trkpt lat="47.69953608004378" lon="11.941298874763035"><ele>759.0</ele><time>2026-04-18T08:47:21Z</time></trkpt><trkpt lat="47.69961374837112" lon="11.941006020849203"><ele>759.0</ele><time>2026-04-18T08:47:22Z</time></trkpt><trkpt lat="47.69968621881791" lon="11.94073183203238"><ele>759.0</ele><time>2026-04-18T08:47:23Z</time></trkpt><trkpt lat="47.699748356407035" lon="11.940479171174557"><ele>759.0</ele><time>2026-04-18T08:47:24Z</time></trkpt><trkpt lat="47.69980090081372" lon="11.940230831839532"><ele>759.0</ele><time>2026-04-18T08:47:25Z</time></trkpt><trkpt lat="47.699847800630565" lon="11.93998665013891"><ele>759.0</ele><time>2026-04-18T08:47:26Z</time></trkpt><trkpt lat="47.69989424894598" lon="11.939732991278422"><ele>759.3333333333334</ele><time>2026-04-18T08:47:27Z</time></trkpt><trkpt lat="47.699941944765584" lon="11.939475959865412"><ele>759.6666666666667</ele><time>2026-04-18T08:47:28Z</time></trkpt><trkpt lat="47.699988383470476" lon="11.93921741960578"><ele>760.0</ele><time>2026-04-18T08:47:29Z</time></trkpt><trkpt lat="47.70003210185905" lon="11.938957072472595"><ele>760.0</ele><time>2026-04-18T08:47:30Z</time></trkpt><trkpt lat="47.70007376861911" lon="11.938694396842159"><ele>760.0</ele><time>2026-04-18T08:47:31Z</time></trkpt><trkpt lat="47.70011468145042" lon="11.93842490106376"><ele>760.0</ele><time>2026-04-18T08:47:32Z</time></trkpt><trkpt lat="47.7001609878793" lon="11.938154394533123"><ele>760.0</ele><time>2026-04-18T08:47:33Z</time></trkpt><trkpt lat="47.700207645441324" lon="11.937879471276855"><ele>760.0</ele><time>2026-04-18T08:47:34Z</time></trkpt><trkpt lat="47.700252826521066" lon="11.93760006856626"><ele>760.0</ele><time>2026-04-18T08:47:35Z</time></trkpt><trkpt lat="47.7002971963726" lon="11.93732003301386"><ele>760.3333333333334</ele><time>2026-04-18T08:47:36Z</time></trkpt><trkpt lat="47.70034320779234" lon="11.937043136360254"><ele>760.6666666666666</ele><time>2026-04-18T08:47:37Z</time></trkpt><trkpt lat="47.700388267117454" lon="11.936767085728926"><ele>761.0</ele><time>2026-04-18T08:47:38Z</time></trkpt><trkpt lat="47.700427825105045" lon="11.936490383773522"><ele>761.0</ele><time>2026-04-18T08:47:39Z</time></trkpt><trkpt lat="47.70047088883724" lon="11.936218660603512"><ele>761.0</ele><time>2026-04-18T08:47:40Z</time></trkpt><trkpt lat="47.70051605653347" lon="11.935950898506817"><ele>761.0</ele><time>2026-04-18T08:47:41Z</time></trkpt><trkpt lat="47.700559077821055" lon="11.935688098353165"><ele>760.3333333333333</ele><time>2026-04-18T08:47:42Z</time></trkpt><trkpt lat="47.70059787115052" lon="11.93542604103156"><ele>759.6666666666666</ele><time>2026-04-18T08:47:43Z</time></trkpt><trkpt lat="47.70063800708327" lon="11.935169212139042"><ele>759.0</ele><time>2026-04-18T08:47:44Z</time></trkpt><trkpt lat="47.700682583099" lon="11.934905274355945"><ele>758.6666666666666</ele><time>2026-04-18T08:47:45Z</time></trkpt><trkpt lat="47.70072740774735" lon="11.934622787404672"><ele>758.3333333333333</ele><time>2026-04-18T08:47:46Z</time></trkpt><trkpt lat="47.70077606658913" lon="11.934317718592443"><ele>758.0</ele><time>2026-04-18T08:47:47Z</time></trkpt><trkpt lat="47.700826912245425" lon="11.934010097868118"><ele>759.0</ele><time>2026-04-18T08:47:48Z</time></trkpt><trkpt lat="47.700875153126624" lon="11.933705121867211"><ele>760.0</ele><time>2026-04-18T08:47:49Z</time></trkpt><trkpt lat="47.700919918867086" lon="11.933412624594691"><ele>761.0</ele><time>2026-04-18T08:47:50Z</time></trkpt><trkpt lat="47.70096436482199" lon="11.933133525547602"><ele>761.3333333333333</ele><time>2026-04-18T08:47:51Z</time></trkpt><trkpt lat="47.701009381896064" lon="11.932864782951418"><ele>761.6666666666666</ele><time>2026-04-18T08:47:52Z</time></trkpt><trkpt lat="47.70105374799516" lon="11.932600828131248"><ele>762.0</ele><time>2026-04-18T08:47:53Z</time></trkpt><trkpt lat="47.701095792135554" lon="11.932336611433794"><ele>763.3333333333334</ele><time>2026-04-18T08:47:54Z</time></trkpt><trkpt lat="47.701140331013974" lon="11.932075294492405"><ele>764.6666666666667</ele><time>2026-04-18T08:47:55Z</time></trkpt><trkpt lat="47.70119419722848" lon="11.931819458917554"><ele>766.0</ele><time>2026-04-18T08:47:56Z</time></trkpt><trkpt lat="47.70125528302751" lon="11.93156837520386"><ele>766.6666666666667</ele><time>2026-04-18T08:47:57Z</time></trkpt><trkpt lat="47.701317022979715" lon="11.931319660001472"><ele>767.3333333333334</ele><time>2026-04-18T08:47:58Z</time></trkpt><trkpt lat="47.70138093856958" lon="11.93107539295831"><ele>768.0</ele><time>2026-04-18T08:47:59Z</time></trkpt><trkpt lat="47.70144854347116" lon="11.93082992582156"><ele>768.0</ele><time>2026-04-18T08:48:00Z</time></trkpt><trkpt lat="47.70152291519936" lon="11.930588113998729"><ele>768.0</ele><time>2026-04-18T08:48:01Z</time></trkpt><trkpt lat="47.701606361030095" lon="11.930347024810386"><ele>768.0</ele><time>2026-04-18T08:48:02Z</time></trkpt><trkpt lat="47.70169117691652" lon="11.930096360243926"><ele>768.0</ele><time>2026-04-18T08:48:03Z</time></trkpt><trkpt lat="47.701778064484905" lon="11.929831799829417"><ele>768.0</ele><time>2026-04-18T08:48:04Z</time></trkpt><trkpt lat="47.701867329162184" lon="11.92956278401684"><ele>768.0</ele><time>2026-04-18T08:48:05Z</time></trkpt><trkpt lat="47.70195835243515" lon="11.929290542618327"><ele>769.0</ele><time>2026-04-18T08:48:06Z</time></trkpt><trkpt lat="47.702051518701744" lon="11.929016174624195"><ele>770.0</ele><time>2026-04-18T08:48:07Z</time></trkpt><trkpt lat="47.70214361262157" lon="11.928745057383791"><ele>771.0</ele><time>2026-04-18T08:48:08Z</time></trkpt><trkpt lat="47.702233972870445" lon="11.928481731485638"><ele>772.3333333333333</ele><time>2026-04-18T08:48:09Z</time></trkpt><trkpt lat="47.702319670951084" lon="11.928238427672438"><ele>773.6666666666666</ele><time>2026-04-18T08:48:10Z</time></trkpt><trkpt lat="47.702399078899475" lon="11.928010667308557"><ele>775.0</ele><time>2026-04-18T08:48:11Z</time></trkpt><trkpt lat="47.70247433778756" lon="11.927792356643662"><ele>775.0</ele><time>2026-04-18T08:48:12Z</time></trkpt><trkpt lat="47.70254636343116" lon="11.927575277041907"><ele>775.0</ele><time>2026-04-18T08:48:13Z</time></trkpt><trkpt lat="47.70261426150791" lon="11.92735987727871"><ele>775.0</ele><time>2026-04-18T08:48:14Z</time></trkpt><trkpt lat="47.70267848253366" lon="11.92713625153256"><ele>775.6666666666666</ele><time>2026-04-18T08:48:15Z</time></trkpt><trkpt lat="47.70273902688772" lon="11.926910190019845"><ele>776.3333333333333</ele><time>2026-04-18T08:48:16Z</time></trkpt><trkpt lat="47.70279078404328" lon="11.926697317985958"><ele>777.0</ele><time>2026-04-18T08:48:17Z</time></trkpt><trkpt lat="47.702838874848645" lon="11.92649785737687"><ele>775.75</ele><time>2026-04-18T08:48:18Z</time></trkpt><trkpt lat="47.70288239111545" lon="11.926299436972014"><ele>774.5</ele><time>2026-04-18T08:48:19Z</time></trkpt><trkpt lat="47.70292546225618" lon="11.926098037074626"><ele>773.25</ele><time>2026-04-18T08:48:20Z</time></trkpt><trkpt lat="47.70296479998628" lon="11.92590042021068"><ele>772.0</ele><time>2026-04-18T08:48:21Z</time></trkpt><trkpt lat="47.70300331655627" lon="11.925711487099752"><ele>772.0</ele><time>2026-04-18T08:48:22Z</time></trkpt><trkpt lat="47.70304193630335" lon="11.925527365551016"><ele>772.0</ele><time>2026-04-18T08:48:23Z</time></trkpt><trkpt lat="47.7030686562184" lon="11.925330131689288"><ele>772.0</ele><time>2026-04-18T08:48:24Z</time></trkpt><trkpt lat="47.703110855406116" lon="11.925169735623761"><ele>772.0</ele><time>2026-04-18T08:48:25Z</time></trkpt><trkpt lat="47.70314477408457" lon="11.924988836327376"><ele>772.5</ele><time>2026-04-18T08:48:26Z</time></trkpt><trkpt lat="47.70317669042943" lon="11.924817425017341"><ele>773.0</ele><time>2026-04-18T08:48:27Z</time></trkpt><trkpt lat="47.70320758196544" lon="11.924648759872948"><ele>773.5</ele><time>2026-04-18T08:48:28Z</time></trkpt><trkpt lat="47.70323851292301" lon="11.92447995947379"><ele>774.0</ele><time>2026-04-18T08:48:29Z</time></trkpt><trkpt lat="47.703267349096905" lon="11.924308151201839"><ele>774.25</ele><time>2026-04-18T08:48:30Z</time></trkpt><trkpt lat="47.70329399269718" lon="11.924134845248823"><ele>774.5</ele><time>2026-04-18T08:48:31Z</time></trkpt><trkpt lat="47.70332568516673" lon="11.923962173215486"><ele>774.75</ele><time>2026-04-18T08:48:32Z</time></trkpt><trkpt lat="47.703350648727195" lon="11.92379024734755"><ele>775.0</ele><time>2026-04-18T08:48:33Z</time></trkpt><trkpt lat="47.703380695419504" lon="11.923625065999722"><ele>775.0</ele><time>2026-04-18T08:48:34Z</time></trkpt><trkpt lat="47.70340646801908" lon="11.923461152790017"><ele>775.0</ele><time>2026-04-18T08:48:35Z</time></trkpt><trkpt lat="47.703431178210714" lon="11.923298573784662"><ele>775.0</ele><time>2026-04-18T08:48:36Z</time></trkpt><trkpt lat="47.70345670136965" lon="11.923140207854223"><ele>775.0</ele><time>2026-04-18T08:48:37Z</time></trkpt><trkpt lat="47.70348689165124" lon="11.922975954129774"><ele>775.25</ele><time>2026-04-18T08:48:38Z</time></trkpt><trkpt lat="47.70352138549637" lon="11.922803284052282"><ele>775.5</ele><time>2026-04-18T08:48:39Z</time></trkpt><trkpt lat="47.70356528435976" lon="11.922635408674278"><ele>775.75</ele><time>2026-04-18T08:48:40Z</time></trkpt><trkpt lat="47.703616548865035" lon="11.922466968394787"><ele>776.0</ele><time>2026-04-18T08:48:41Z</time></trkpt><trkpt lat="47.70367943162742" lon="11.922282880045927"><ele>775.0</ele><time>2026-04-18T08:48:42Z</time></trkpt><trkpt lat="47.7037446263299" lon="11.922113705192546"><ele>774.0</ele><time>2026-04-18T08:48:43Z</time></trkpt><trkpt lat="47.70381934261165" lon="11.921948195209838"><ele>773.0</ele><time>2026-04-18T08:48:44Z</time></trkpt><trkpt lat="47.703899061371274" lon="11.921765188322"><ele>772.0</ele><time>2026-04-18T08:48:45Z</time></trkpt><trkpt lat="47.70398891725" lon="11.921580707715652"><ele>771.6666666666666</ele><time>2026-04-18T08:48:46Z</time></trkpt><trkpt lat="47.704086163809315" lon="11.921392742308772"><ele>771.3333333333333</ele><time>2026-04-18T08:48:47Z</time></trkpt><trkpt lat="47.70418724676842" lon="11.921202245553944"><ele>771.0</ele><time>2026-04-18T08:48:48Z</time></trkpt><trkpt lat="47.70429059128034" lon="11.921010392486238"><ele>770.6666666666667</ele><time>2026-04-18T08:48:49Z</time></trkpt><trkpt lat="47.70439041062042" lon="11.920813492532742"><ele>770.3333333333334</ele><time>2026-04-18T08:48:50Z</time></trkpt><trkpt lat="47.70448956784535" lon="11.920617402750706"><ele>770.0</ele><time>2026-04-18T08:48:51Z</time></trkpt><trkpt lat="47.70458738828934" lon="11.92042204917182"><ele>772.3333333333334</ele><time>2026-04-18T08:48:52Z</time></trkpt><trkpt lat="47.7046877939018" lon="11.920218379058134"><ele>774.6666666666667</ele><time>2026-04-18T08:48:53Z</time></trkpt><trkpt lat="47.704788195495425" lon="11.919999127640876"><ele>777.0</ele><time>2026-04-18T08:48:54Z</time></trkpt><trkpt lat="47.70489033398594" lon="11.91976724275749"><ele>777.0</ele><time>2026-04-18T08:48:55Z</time></trkpt><trkpt lat="47.704984913519645" lon="11.919530983301412"><ele>777.0</ele><time>2026-04-18T08:48:56Z</time></trkpt><trkpt lat="47.705070737710535" lon="11.919294665170082"><ele>777.0</ele><time>2026-04-18T08:48:57Z</time></trkpt><trkpt lat="47.705154968459816" lon="11.919057665680258"><ele>776.3333333333333</ele><time>2026-04-18T08:48:58Z</time></trkpt><trkpt lat="47.70523334102719" lon="11.918823086411019"><ele>775.6666666666666</ele><time>2026-04-18T08:48:59Z</time></trkpt><trkpt lat="47.70530605021" lon="11.91858683169875"><ele>775.0</ele><time>2026-04-18T08:49:00Z</time></trkpt><trkpt lat="47.70537487184989" lon="11.918348825012503"><ele>779.0</ele><time>2026-04-18T08:49:01Z</time></trkpt><trkpt lat="47.70544023122962" lon="11.918111972817725"><ele>783.0</ele><time>2026-04-18T08:49:02Z</time></trkpt><trkpt lat="47.70549961749801" lon="11.917874226961967"><ele>787.0</ele><time>2026-04-18T08:49:03Z</time></trkpt><trkpt lat="47.70555428553428" lon="11.917632625905137"><ele>784.0</ele><time>2026-04-18T08:49:04Z</time></trkpt><trkpt lat="47.705605438900726" lon="11.917378582459982"><ele>781.0</ele><time>2026-04-18T08:49:05Z</time></trkpt><trkpt lat="47.70565174826723" lon="11.917120525181865"><ele>778.0</ele><time>2026-04-18T08:49:06Z</time></trkpt><trkpt lat="47.705693121682636" lon="11.916859839672274"><ele>777.0</ele><time>2026-04-18T08:49:07Z</time></trkpt><trkpt lat="47.70572808767711" lon="11.916594153994826"><ele>776.0</ele><time>2026-04-18T08:49:08Z</time></trkpt><trkpt lat="47.70575738069311" lon="11.916323420433995"><ele>775.0</ele><time>2026-04-18T08:49:09Z</time></trkpt><trkpt lat="47.70578113057226" lon="11.91605570337813"><ele>776.0</ele><time>2026-04-18T08:49:10Z</time></trkpt><trkpt lat="47.70580406833603" lon="11.915787352188214"><ele>777.0</ele><time>2026-04-18T08:49:11Z</time></trkpt><trkpt lat="47.70582286122212" lon="11.915520223522005"><ele>778.0</ele><time>2026-04-18T08:49:12Z</time></trkpt><trkpt lat="47.70583836548502" lon="11.915247712696676"><ele>777.6666666666666</ele><time>2026-04-18T08:49:13Z</time></trkpt><trkpt lat="47.70585022879327" lon="11.914976003986835"><ele>777.3333333333333</ele><time>2026-04-18T08:49:14Z</time></trkpt><trkpt lat="47.7058544032224" lon="11.914688290185127"><ele>777.0</ele><time>2026-04-18T08:49:15Z</time></trkpt><trkpt lat="47.70584884209838" lon="11.914395934735008"><ele>776.3333333333333</ele><time>2026-04-18T08:49:16Z</time></trkpt><trkpt lat="47.70583587540079" lon="11.914114405860225"><ele>775.6666666666666</ele><time>2026-04-18T08:49:17Z</time></trkpt><trkpt lat="47.70582183874687" lon="11.913841665110814"><ele>775.0</ele><time>2026-04-18T08:49:18Z</time></trkpt><trkpt lat="47.70580225936526" lon="11.91356670785901"><ele>775.3333333333333</ele><time>2026-04-18T08:49:19Z</time></trkpt><trkpt lat="47.70577428912211" lon="11.913285595408135"><ele>775.6666666666667</ele><time>2026-04-18T08:49:20Z</time></trkpt><trkpt lat="47.705742650327416" lon="11.913003829375164"><ele>776.0</ele><time>2026-04-18T08:49:21Z</time></trkpt><trkpt lat="47.70570418991389" lon="11.912720829012846"><ele>775.6666666666667</ele><time>2026-04-18T08:49:22Z</time></trkpt><trkpt lat="47.70565663129516" lon="11.912436315211577"><ele>775.3333333333333</ele><time>2026-04-18T08:49:23Z</time></trkpt><trkpt lat="47.705599824347125" lon="11.91215190610673"><ele>775.0</ele><time>2026-04-18T08:49:24Z</time></trkpt><trkpt lat="47.70553880825147" lon="11.911864512999989"><ele>775.0</ele><time>2026-04-18T08:49:25Z</time></trkpt><trkpt lat="47.70547363890484" lon="11.911581686373118"><ele>775.0</ele><time>2026-04-18T08:49:26Z</time></trkpt><trkpt lat="47.70540219643164" lon="11.911299085050224"><ele>775.0</ele><time>2026-04-18T08:49:27Z</time></trkpt><trkpt lat="47.70533135394524" lon="11.911026004744151"><ele>776.0</ele><time>2026-04-18T08:49:28Z</time></trkpt><trkpt lat="47.705259803821576" lon="11.910753726012057"><ele>777.0</ele><time>2026-04-18T08:49:29Z</time></trkpt><trkpt lat="47.70518222817215" lon="11.910479180860388"><ele>778.0</ele><time>2026-04-18T08:49:30Z</time></trkpt><trkpt lat="47.70510561909729" lon="11.910207072802576"><ele>776.0</ele><time>2026-04-18T08:49:31Z</time></trkpt><trkpt lat="47.705032971053186" lon="11.909936963757003"><ele>774.0</ele><time>2026-04-18T08:49:32Z</time></trkpt><trkpt lat="47.7049657341983" lon="11.909670426428058"><ele>772.0</ele><time>2026-04-18T08:49:33Z</time></trkpt><trkpt lat="47.70490146445044" lon="11.909407131122933"><ele>773.0</ele><time>2026-04-18T08:49:34Z</time></trkpt><trkpt lat="47.70485146448201" lon="11.909140659927097"><ele>774.0</ele><time>2026-04-18T08:49:35Z</time></trkpt><trkpt lat="47.70481075407301" lon="11.90887375134892"><ele>775.0</ele><time>2026-04-18T08:49:36Z</time></trkpt><trkpt lat="47.70477976591986" lon="11.90860021182401"><ele>776.0</ele><time>2026-04-18T08:49:37Z</time></trkpt><trkpt lat="47.704748651089496" lon="11.908318688405432"><ele>777.0</ele><time>2026-04-18T08:49:38Z</time></trkpt><trkpt lat="47.704727908895826" lon="11.908036184710134"><ele>778.0</ele><time>2026-04-18T08:49:39Z</time></trkpt><trkpt lat="47.70471478684471" lon="11.907749179818984"><ele>777.6666666666666</ele><time>2026-04-18T08:49:40Z</time></trkpt><trkpt lat="47.704713504919006" lon="11.907470821093346"><ele>777.3333333333333</ele><time>2026-04-18T08:49:41Z</time></trkpt><trkpt lat="47.704724441919275" lon="11.907172791095716"><ele>777.0</ele><time>2026-04-18T08:49:42Z</time></trkpt><trkpt lat="47.70474149410177" lon="11.906882595724884"><ele>776.3333333333333</ele><time>2026-04-18T08:49:43Z</time></trkpt><trkpt lat="47.704757056268136" lon="11.90658967890215"><ele>775.6666666666666</ele><time>2026-04-18T08:49:44Z</time></trkpt><trkpt lat="47.704769644419066" lon="11.906296841336292"><ele>775.0</ele><time>2026-04-18T08:49:45Z</time></trkpt><trkpt lat="47.70477578339729" lon="11.906004626767004"><ele>775.3333333333333</ele><time>2026-04-18T08:49:46Z</time></trkpt><trkpt lat="47.70478040361807" lon="11.905707909013064"><ele>775.6666666666667</ele><time>2026-04-18T08:49:47Z</time></trkpt><trkpt lat="47.70477966384274" lon="11.905409871621343"><ele>776.0</ele><time>2026-04-18T08:49:48Z</time></trkpt><trkpt lat="47.70476873924288" lon="11.905110190275138"><ele>776.3333333333334</ele><time>2026-04-18T08:49:49Z</time></trkpt><trkpt lat="47.70474615065643" lon="11.904810074841043"><ele>776.6666666666667</ele><time>2026-04-18T08:49:50Z</time></trkpt><trkpt lat="47.70471662623745" lon="11.904497202657609"><ele>777.0</ele><time>2026-04-18T08:49:51Z</time></trkpt><trkpt lat="47.70467698132539" lon="11.904194614933635"><ele>777.3333333333333</ele><time>2026-04-18T08:49:52Z</time></trkpt><trkpt lat="47.70462477442062" lon="11.903886845614336"><ele>777.6666666666666</ele><time>2026-04-18T08:49:53Z</time></trkpt><trkpt lat="47.70457496774931" lon="11.903575070900029"><ele>778.0</ele><time>2026-04-18T08:49:54Z</time></trkpt><trkpt lat="47.70451671262331" lon="11.903254404582869"><ele>779.0</ele><time>2026-04-18T08:49:55Z</time></trkpt><trkpt lat="47.70445663227816" lon="11.902919079697307"><ele>780.0</ele><time>2026-04-18T08:49:56Z</time></trkpt><trkpt lat="47.70440262639627" lon="11.902577399706866"><ele>777.5</ele><time>2026-04-18T08:49:57Z</time></trkpt><trkpt lat="47.7043512378253" lon="11.902237953620737"><ele>775.0</ele><time>2026-04-18T08:49:58Z</time></trkpt><trkpt lat="47.70430598785174" lon="11.901905897160745"><ele>775.5</ele><time>2026-04-18T08:49:59Z</time></trkpt><trkpt lat="47.70425765886607" lon="11.901570284687686"><ele>776.0</ele><time>2026-04-18T08:50:00Z</time></trkpt><trkpt lat="47.70421100755029" lon="11.901234150853421"><ele>777.0</ele><time>2026-04-18T08:50:01Z</time></trkpt><trkpt lat="47.70416166195423" lon="11.90090480833861"><ele>778.0</ele><time>2026-04-18T08:50:02Z</time></trkpt><trkpt lat="47.70411290120455" lon="11.900573700520749"><ele>778.0</ele><time>2026-04-18T08:50:03Z</time></trkpt><trkpt lat="47.70406313779396" lon="11.900242775460171"><ele>778.0</ele><time>2026-04-18T08:50:04Z</time></trkpt><trkpt lat="47.70401234518703" lon="11.899919230614183"><ele>778.6666666666666</ele><time>2026-04-18T08:50:05Z</time></trkpt><trkpt lat="47.703959759847386" lon="11.899602878960991"><ele>779.3333333333333</ele><time>2026-04-18T08:50:06Z</time></trkpt><trkpt lat="47.7039140887899" lon="11.899280837086145"><ele>780.0</ele><time>2026-04-18T08:50:07Z</time></trkpt><trkpt lat="47.70386693341249" lon="11.898978724878639"><ele>780.0</ele><time>2026-04-18T08:50:08Z</time></trkpt><trkpt lat="47.703821992686784" lon="11.898696686764977"><ele>780.0</ele><time>2026-04-18T08:50:09Z</time></trkpt><trkpt lat="47.70377720872215" lon="11.898425863363961"><ele>780.0</ele><time>2026-04-18T08:50:10Z</time></trkpt><trkpt lat="47.70372981121202" lon="11.898195923674464"><ele>780.0</ele><time>2026-04-18T08:50:11Z</time></trkpt><trkpt lat="47.70369307558006" lon="11.897976912651687"><ele>780.0</ele><time>2026-04-18T08:50:12Z</time></trkpt><trkpt lat="47.70366265464319" lon="11.897761108489652"><ele>780.0</ele><time>2026-04-18T08:50:13Z</time></trkpt><trkpt lat="47.703643034135915" lon="11.897543495375636"><ele>780.0</ele><time>2026-04-18T08:50:14Z</time></trkpt><trkpt lat="47.70361093860237" lon="11.897356847228846"><ele>778.25</ele><time>2026-04-18T08:50:15Z</time></trkpt><trkpt lat="47.703569338832054" lon="11.897160120631035"><ele>776.5</ele><time>2026-04-18T08:50:16Z</time></trkpt><trkpt lat="47.703528935792896" lon="11.896960213774042"><ele>774.75</ele><time>2026-04-18T08:50:17Z</time></trkpt><trkpt lat="47.70349907523186" lon="11.896778759297712"><ele>773.0</ele><time>2026-04-18T08:50:18Z</time></trkpt><trkpt lat="47.70347115253586" lon="11.8966140302889"><ele>772.8333333333334</ele><time>2026-04-18T08:50:19Z</time></trkpt><trkpt lat="47.70345040522903" lon="11.896477809815332"><ele>772.6666666666667</ele><time>2026-04-18T08:50:20Z</time></trkpt><trkpt lat="47.70343515934715" lon="11.89637239560294"><ele>772.5</ele><time>2026-04-18T08:50:21Z</time></trkpt><trkpt lat="47.70341572784675" lon="11.896275331764064"><ele>772.3333333333333</ele><time>2026-04-18T08:50:22Z</time></trkpt><trkpt lat="47.70338540435913" lon="11.896126704496467"><ele>772.1666666666666</ele><time>2026-04-18T08:50:24Z</time></trkpt><trkpt lat="47.70336255049487" lon="11.896036671054324"><ele>772.0</ele><time>2026-04-18T08:50:28Z</time></trkpt><trkpt lat="47.703336345924264" lon="11.89592807948216"><ele>771.9999999999999</ele><time>2026-04-18T08:50:33Z</time></trkpt><trkpt lat="47.70331280684389" lon="11.89582549734748"><ele>772.0</ele><time>2026-04-18T08:50:35Z</time></trkpt><trkpt lat="47.70324580941034" lon="11.895734058347783"><ele>772.0</ele><time>2026-04-18T08:50:37Z</time></trkpt><trkpt lat="47.703169835153965" lon="11.895751001067172"><ele>772.0</ele><time>2026-04-18T08:50:38Z</time></trkpt><trkpt lat="47.70309133160097" lon="11.89581444607658"><ele>771.9999999999999</ele><time>2026-04-18T08:50:39Z</time></trkpt><trkpt lat="47.703015206053124" lon="11.895875482309723"><ele>772.0</ele><time>2026-04-18T08:50:40Z</time></trkpt><trkpt lat="47.702915904647234" lon="11.89594413890078"><ele>772.0</ele><time>2026-04-18T08:50:41Z</time></trkpt><trkpt lat="47.702798331508674" lon="11.896011660200957"><ele>772.0</ele><time>2026-04-18T08:50:42Z</time></trkpt><trkpt lat="47.70267211925689" lon="11.896079635274214"><ele>772.0</ele><time>2026-04-18T08:50:43Z</time></trkpt><trkpt lat="47.702541595865874" lon="11.896155866245167"><ele>772.0</ele><time>2026-04-18T08:50:44Z</time></trkpt><trkpt lat="47.70241184237302" lon="11.896232114913012"><ele>773.2</ele><time>2026-04-18T08:50:45Z</time></trkpt><trkpt lat="47.70230004866822" lon="11.896302431837533"><ele>774.4000000000001</ele><time>2026-04-18T08:50:46Z</time></trkpt><trkpt lat="47.70219861924483" lon="11.896365279232544"><ele>775.5999999999999</ele><time>2026-04-18T08:50:47Z</time></trkpt><trkpt lat="47.70210524376097" lon="11.8964243074875"><ele>776.8</ele><time>2026-04-18T08:50:48Z</time></trkpt><trkpt lat="47.70201011820683" lon="11.896485391384822"><ele>778.0</ele><time>2026-04-18T08:50:49Z</time></trkpt><trkpt lat="47.70190740895968" lon="11.896547370972726"><ele>780.0</ele><time>2026-04-18T08:50:50Z</time></trkpt><trkpt lat="47.70180002379348" lon="11.896614189948739"><ele>782.0</ele><time>2026-04-18T08:50:51Z</time></trkpt><trkpt lat="47.701697837238136" lon="11.89669006171337"><ele>784.0</ele><time>2026-04-18T08:50:52Z</time></trkpt><trkpt lat="47.70158965350899" lon="11.896770174738815"><ele>786.0</ele><time>2026-04-18T08:50:53Z</time></trkpt><trkpt lat="47.7014855443171" lon="11.896830482617842"><ele>787.5</ele><time>2026-04-18T08:50:54Z</time></trkpt><trkpt lat="47.70138727160668" lon="11.896891966157561"><ele>789.0</ele><time>2026-04-18T08:50:55Z</time></trkpt><trkpt lat="47.70128493948616" lon="11.896957656534017"><ele>790.5</ele><time>2026-04-18T08:50:56Z</time></trkpt><trkpt lat="47.701173198128025" lon="11.897027996363954"><ele>792.0</ele><time>2026-04-18T08:50:57Z</time></trkpt><trkpt lat="47.701050271053596" lon="11.897110092666638"><ele>793.75</ele><time>2026-04-18T08:50:58Z</time></trkpt><trkpt lat="47.70091069367093" lon="11.897198865164693"><ele>795.5</ele><time>2026-04-18T08:50:59Z</time></trkpt><trkpt lat="47.70077038847139" lon="11.89729053200165"><ele>797.25</ele><time>2026-04-18T08:51:00Z</time></trkpt><trkpt lat="47.700639362682104" lon="11.897376191530215"><ele>799.0</ele><time>2026-04-18T08:51:01Z</time></trkpt><trkpt lat="47.70051080547711" lon="11.897463031895018"><ele>799.0</ele><time>2026-04-18T08:51:02Z</time></trkpt><trkpt lat="47.70037321516196" lon="11.89754320945294"><ele>799.0</ele><time>2026-04-18T08:51:03Z</time></trkpt><trkpt lat="47.70023135622035" lon="11.897626082572158"><ele>799.0</ele><time>2026-04-18T08:51:04Z</time></trkpt><trkpt lat="47.700083914810804" lon="11.89771772615275"><ele>802.3333333333333</ele><time>2026-04-18T08:51:05Z</time></trkpt><trkpt lat="47.69992579051423" lon="11.897816714081971"><ele>805.6666666666667</ele><time>2026-04-18T08:51:06Z</time></trkpt><trkpt lat="47.699757098885634" lon="11.89791707545824"><ele>809.0</ele><time>2026-04-18T08:51:07Z</time></trkpt><trkpt lat="47.69958005269624" lon="11.898029393611855"><ele>810.6666666666667</ele><time>2026-04-18T08:51:08Z</time></trkpt><trkpt lat="47.69939073498364" lon="11.898150048190832"><ele>812.3333333333333</ele><time>2026-04-18T08:51:09Z</time></trkpt><trkpt lat="47.69919299564277" lon="11.898277624067862"><ele>814.0</ele><time>2026-04-18T08:51:10Z</time></trkpt><trkpt lat="47.698993184563754" lon="11.898400808025382"><ele>817.3333333333333</ele><time>2026-04-18T08:51:11Z</time></trkpt><trkpt lat="47.69881817523159" lon="11.898518356118299"><ele>820.6666666666667</ele><time>2026-04-18T08:51:12Z</time></trkpt><trkpt lat="47.698651090448585" lon="11.898615418338796"><ele>824.0</ele><time>2026-04-18T08:51:13Z</time></trkpt><trkpt lat="47.69848347054627" lon="11.898702666568818"><ele>826.3333333333334</ele><time>2026-04-18T08:51:14Z</time></trkpt><trkpt lat="47.69831155836663" lon="11.898755187941463"><ele>828.6666666666667</ele><time>2026-04-18T08:51:15Z</time></trkpt><trkpt lat="47.6981439668133" lon="11.89877877847466"><ele>831.0</ele><time>2026-04-18T08:51:16Z</time></trkpt><trkpt lat="47.69797619974173" lon="11.898790770005585"><ele>831.0</ele><time>2026-04-18T08:51:17Z</time></trkpt><trkpt lat="47.69781229649313" lon="11.898777486856673"><ele>831.0</ele><time>2026-04-18T08:51:18Z</time></trkpt><trkpt lat="47.6976542780155" lon="11.89875255845537"><ele>831.0</ele><time>2026-04-18T08:51:19Z</time></trkpt><trkpt lat="47.69750402855847" lon="11.898713928097434"><ele>832.25</ele><time>2026-04-18T08:51:20Z</time></trkpt><trkpt lat="47.69737284951872" lon="11.898665800558451"><ele>833.5</ele><time>2026-04-18T08:51:21Z</time></trkpt><trkpt lat="47.69725960114893" lon="11.898614466786547"><ele>834.75</ele><time>2026-04-18T08:51:22Z</time></trkpt><trkpt lat="47.6971547435623" lon="11.898561386882534"><ele>836.0</ele><time>2026-04-18T08:51:23Z</time></trkpt><trkpt lat="47.69703478449375" lon="11.898487526377687"><ele>838.0</ele><time>2026-04-18T08:51:24Z</time></trkpt><trkpt lat="47.69690830054141" lon="11.89839363632409"><ele>840.0</ele><time>2026-04-18T08:51:25Z</time></trkpt><trkpt lat="47.69677168179756" lon="11.898269030340263"><ele>842.0</ele><time>2026-04-18T08:51:26Z</time></trkpt><trkpt lat="47.69663294268159" lon="11.898123681375091"><ele>842.0</ele><time>2026-04-18T08:51:27Z</time></trkpt><trkpt lat="47.69649603878304" lon="11.897958664238544"><ele>842.0</ele><time>2026-04-18T08:51:28Z</time></trkpt><trkpt lat="47.696379148809505" lon="11.897793236851353"><ele>842.0</ele><time>2026-04-18T08:51:29Z</time></trkpt><trkpt lat="47.69626659476741" lon="11.89761689380731"><ele>837.3333333333334</ele><time>2026-04-18T08:51:30Z</time></trkpt><trkpt lat="47.69615016103753" lon="11.89742852361251"><ele>832.6666666666667</ele><time>2026-04-18T08:51:31Z</time></trkpt><trkpt lat="47.69603344557927" lon="11.897244235375167"><ele>828.0</ele><time>2026-04-18T08:51:32Z</time></trkpt><trkpt lat="47.69592108941673" lon="11.89706644460023"><ele>831.6666666666667</ele><time>2026-04-18T08:51:33Z</time></trkpt><trkpt lat="47.695818953922014" lon="11.896900950684334"><ele>835.3333333333334</ele><time>2026-04-18T08:51:34Z</time></trkpt><trkpt lat="47.695718596230314" lon="11.89673463923428"><ele>839.0</ele><time>2026-04-18T08:51:35Z</time></trkpt><trkpt lat="47.69561478030085" lon="11.896556040110573"><ele>839.0</ele><time>2026-04-18T08:51:36Z</time></trkpt><trkpt lat="47.69550742743917" lon="11.896369809537957"><ele>839.0</ele><time>2026-04-18T08:51:37Z</time></trkpt><trkpt lat="47.695393292832115" lon="11.89619510766131"><ele>839.0</ele><time>2026-04-18T08:51:38Z</time></trkpt><trkpt lat="47.69528624629097" lon="11.896043593678776"><ele>844.0</ele><time>2026-04-18T08:51:39Z</time></trkpt><trkpt lat="47.695170365749156" lon="11.895902882473749"><ele>849.0</ele><time>2026-04-18T08:51:40Z</time></trkpt><trkpt lat="47.695055054406176" lon="11.895796016780219"><ele>854.0</ele><time>2026-04-18T08:51:41Z</time></trkpt><trkpt lat="47.69493526074138" lon="11.895705332073"><ele>859.0</ele><time>2026-04-18T08:51:42Z</time></trkpt><trkpt lat="47.69480327884824" lon="11.895619643234703"><ele>859.0</ele><time>2026-04-18T08:51:43Z</time></trkpt><trkpt lat="47.69467127115423" lon="11.895550884641736"><ele>859.0</ele><time>2026-04-18T08:51:44Z</time></trkpt><trkpt lat="47.69453241944443" lon="11.89551045039596"><ele>859.0</ele><time>2026-04-18T08:51:45Z</time></trkpt><trkpt lat="47.69438890324815" lon="11.895501125677452"><ele>859.0</ele><time>2026-04-18T08:51:46Z</time></trkpt><trkpt lat="47.694242885277916" lon="11.895493772215397"><ele>865.0</ele><time>2026-04-18T08:51:47Z</time></trkpt><trkpt lat="47.69410384169326" lon="11.895475437490393"><ele>871.0</ele><time>2026-04-18T08:51:48Z</time></trkpt><trkpt lat="47.69398239305395" lon="11.89545778652168"><ele>877.0</ele><time>2026-04-18T08:51:49Z</time></trkpt><trkpt lat="47.693871534616484" lon="11.89542907004136"><ele>883.0</ele><time>2026-04-18T08:51:50Z</time></trkpt><trkpt lat="47.693764681408446" lon="11.89537922189573"><ele>883.0</ele><time>2026-04-18T08:51:51Z</time></trkpt><trkpt lat="47.693660296952686" lon="11.895297705214354"><ele>883.0</ele><time>2026-04-18T08:51:52Z</time></trkpt><trkpt lat="47.693557605501105" lon="11.895181084784543"><ele>883.0</ele><time>2026-04-18T08:51:53Z</time></trkpt><trkpt lat="47.69345179818098" lon="11.895051764619861"><ele>883.0</ele><time>2026-04-18T08:51:54Z</time></trkpt><trkpt lat="47.693332092284784" lon="11.89494712928659"><ele>882.5</ele><time>2026-04-18T08:51:55Z</time></trkpt><trkpt lat="47.69319399188508" lon="11.894874824594899"><ele>882.0</ele><time>2026-04-18T08:51:56Z</time></trkpt><trkpt lat="47.69305419866423" lon="11.894801554854928"><ele>881.5</ele><time>2026-04-18T08:51:57Z</time></trkpt><trkpt lat="47.69291388304938" lon="11.894705461983435"><ele>881.0</ele><time>2026-04-18T08:51:58Z</time></trkpt><trkpt lat="47.692781568584984" lon="11.894606164966302"><ele>881.25</ele><time>2026-04-18T08:51:59Z</time></trkpt><trkpt lat="47.69266810485292" lon="11.89449392711363"><ele>881.5</ele><time>2026-04-18T08:52:00Z</time></trkpt><trkpt lat="47.69256442514087" lon="11.894346746134655"><ele>881.75</ele><time>2026-04-18T08:52:01Z</time></trkpt><trkpt lat="47.692468039849004" lon="11.894188699438995"><ele>882.0</ele><time>2026-04-18T08:52:02Z</time></trkpt><trkpt lat="47.692362041444795" lon="11.89404582305282"><ele>882.0</ele><time>2026-04-18T08:52:03Z</time></trkpt><trkpt lat="47.69223813049979" lon="11.893934442845843"><ele>882.0</ele><time>2026-04-18T08:52:04Z</time></trkpt><trkpt lat="47.69209876554831" lon="11.893835188390561"><ele>882.0</ele><time>2026-04-18T08:52:05Z</time></trkpt><trkpt lat="47.69196942819585" lon="11.893737411428475"><ele>882.0</ele><time>2026-04-18T08:52:06Z</time></trkpt><trkpt lat="47.69185976806663" lon="11.893646400943423"><ele>883.25</ele><time>2026-04-18T08:52:07Z</time></trkpt><trkpt lat="47.69174615235268" lon="11.893548410359392"><ele>884.5</ele><time>2026-04-18T08:52:08Z</time></trkpt><trkpt lat="47.691627712701276" lon="11.89343399328036"><ele>885.75</ele><time>2026-04-18T08:52:09Z</time></trkpt><trkpt lat="47.69149948809199" lon="11.893323504925204"><ele>887.0</ele><time>2026-04-18T08:52:10Z</time></trkpt><trkpt lat="47.69136815251193" lon="11.89321472350438"><ele>887.0</ele><time>2026-04-18T08:52:11Z</time></trkpt><trkpt lat="47.69123180675195" lon="11.893142828932303"><ele>887.0</ele><time>2026-04-18T08:52:12Z</time></trkpt><trkpt lat="47.6910926304092" lon="11.89306033646535"><ele>887.0</ele><time>2026-04-18T08:52:13Z</time></trkpt><trkpt lat="47.69094441504754" lon="11.892977498468499"><ele>895.6666666666667</ele><time>2026-04-18T08:52:14Z</time></trkpt><trkpt lat="47.69079634226939" lon="11.892896929308625"><ele>904.3333333333333</ele><time>2026-04-18T08:52:15Z</time></trkpt><trkpt lat="47.690647698210945" lon="11.892816868598183"><ele>913.0</ele><time>2026-04-18T08:52:16Z</time></trkpt><trkpt lat="47.690499640333975" lon="11.892739782619941"><ele>913.0</ele><time>2026-04-18T08:52:17Z</time></trkpt><trkpt lat="47.690354502083004" lon="11.892662220318877"><ele>913.0</ele><time>2026-04-18T08:52:18Z</time></trkpt><trkpt lat="47.690210362487306" lon="11.892579056355627"><ele>913.0</ele><time>2026-04-18T08:52:19Z</time></trkpt><trkpt lat="47.690070110402345" lon="11.892489959349474"><ele>913.3333333333333</ele><time>2026-04-18T08:52:20Z</time></trkpt><trkpt lat="47.68993094844524" lon="11.89238863328787"><ele>913.6666666666667</ele><time>2026-04-18T08:52:21Z</time></trkpt><trkpt lat="47.68978937442044" lon="11.892279235760123"><ele>914.0</ele><time>2026-04-18T08:52:22Z</time></trkpt><trkpt lat="47.689643155240674" lon="11.892159961149504"><ele>914.0</ele><time>2026-04-18T08:52:23Z</time></trkpt><trkpt lat="47.68950583135896" lon="11.892048217481804"><ele>914.0</ele><time>2026-04-18T08:52:24Z</time></trkpt><trkpt lat="47.68937660104529" lon="11.891942893276434"><ele>914.0</ele><time>2026-04-18T08:52:25Z</time></trkpt><trkpt lat="47.68924615961773" lon="11.891835481817594"><ele>915.3333333333334</ele><time>2026-04-18T08:52:26Z</time></trkpt><trkpt lat="47.68911493211589" lon="11.891727408745691"><ele>916.6666666666667</ele><time>2026-04-18T08:52:27Z</time></trkpt><trkpt lat="47.68897206880823" lon="11.891624418163099"><ele>918.0</ele><time>2026-04-18T08:52:28Z</time></trkpt><trkpt lat="47.688811982967266" lon="11.891536861860965"><ele>918.0</ele><time>2026-04-18T08:52:29Z</time></trkpt><trkpt lat="47.68863783998762" lon="11.891466068784217"><ele>918.0</ele><time>2026-04-18T08:52:30Z</time></trkpt><trkpt lat="47.68845123703588" lon="11.891394572755413"><ele>918.0</ele><time>2026-04-18T08:52:31Z</time></trkpt><trkpt lat="47.68829332723924" lon="11.891325405068834"><ele>926.0</ele><time>2026-04-18T08:52:32Z</time></trkpt><trkpt lat="47.68814048293818" lon="11.891261234216033"><ele>934.0</ele><time>2026-04-18T08:52:33Z</time></trkpt><trkpt lat="47.68798883800022" lon="11.891198762974287"><ele>942.0</ele><time>2026-04-18T08:52:34Z</time></trkpt><trkpt lat="47.687838605173695" lon="11.89113499141537"><ele>941.5</ele><time>2026-04-18T08:52:35Z</time></trkpt><trkpt lat="47.68769647589706" lon="11.891078565501466"><ele>941.0</ele><time>2026-04-18T08:52:36Z</time></trkpt><trkpt lat="47.68756174543588" lon="11.89098974640199"><ele>940.5</ele><time>2026-04-18T08:52:37Z</time></trkpt><trkpt lat="47.68742631036641" lon="11.890901025603052"><ele>940.0</ele><time>2026-04-18T08:52:38Z</time></trkpt><trkpt lat="47.68730873304932" lon="11.890772672958377"><ele>940.0</ele><time>2026-04-18T08:52:39Z</time></trkpt><trkpt lat="47.687188651999094" lon="11.890660201429219"><ele>940.0</ele><time>2026-04-18T08:52:40Z</time></trkpt><trkpt lat="47.687062447504154" lon="11.890573758549893"><ele>940.0</ele><time>2026-04-18T08:52:41Z</time></trkpt><trkpt lat="47.686922409228806" lon="11.890520126755085"><ele>940.0</ele><time>2026-04-18T08:52:42Z</time></trkpt><trkpt lat="47.68676487476401" lon="11.890491956941826"><ele>948.6666666666666</ele><time>2026-04-18T08:52:43Z</time></trkpt><trkpt lat="47.68659810246505" lon="11.890478786151863"><ele>957.3333333333333</ele><time>2026-04-18T08:52:44Z</time></trkpt><trkpt lat="47.68643472258088" lon="11.890466906542311"><ele>966.0</ele><time>2026-04-18T08:52:45Z</time></trkpt><trkpt lat="47.68627600357619" lon="11.890432667074451"><ele>966.0</ele><time>2026-04-18T08:52:46Z</time></trkpt><trkpt lat="47.686121745323966" lon="11.890416902456588"><ele>966.0</ele><time>2026-04-18T08:52:47Z</time></trkpt><trkpt lat="47.68597923548162" lon="11.890411200420392"><ele>966.0</ele><time>2026-04-18T08:52:48Z</time></trkpt><trkpt lat="47.68584112438253" lon="11.89033961249301"><ele>966.0</ele><time>2026-04-18T08:52:49Z</time></trkpt><trkpt lat="47.68568962007796" lon="11.890283687147843"><ele>967.25</ele><time>2026-04-18T08:52:50Z</time></trkpt><trkpt lat="47.685555630802206" lon="11.890170328216191"><ele>968.5</ele><time>2026-04-18T08:52:51Z</time></trkpt><trkpt lat="47.68542326012819" lon="11.890081965483535"><ele>969.75</ele><time>2026-04-18T08:52:52Z</time></trkpt><trkpt lat="47.6853040446611" lon="11.890021480462654"><ele>971.0</ele><time>2026-04-18T08:52:53Z</time></trkpt><trkpt lat="47.685184414734344" lon="11.889978242363425"><ele>971.0</ele><time>2026-04-18T08:52:54Z</time></trkpt><trkpt lat="47.685057216046" lon="11.889975970027097"><ele>971.0</ele><time>2026-04-18T08:52:55Z</time></trkpt><trkpt lat="47.684913003419176" lon="11.890020103466435"><ele>971.0</ele><time>2026-04-18T08:52:56Z</time></trkpt><trkpt lat="47.68476582602589" lon="11.890104775627638"><ele>971.0</ele><time>2026-04-18T08:52:57Z</time></trkpt><trkpt lat="47.68463922842747" lon="11.890213218443993"><ele>976.0</ele><time>2026-04-18T08:52:58Z</time></trkpt><trkpt lat="47.68453176557125" lon="11.890342631976585"><ele>981.0</ele><time>2026-04-18T08:52:59Z</time></trkpt><trkpt lat="47.684427552366984" lon="11.89047141555622"><ele>986.0</ele><time>2026-04-18T08:53:00Z</time></trkpt><trkpt lat="47.68432130728215" lon="11.890594768848826"><ele>991.0</ele><time>2026-04-18T08:53:01Z</time></trkpt><trkpt lat="47.684206817538886" lon="11.890685958909554"><ele>991.0</ele><time>2026-04-18T08:53:02Z</time></trkpt><trkpt lat="47.68407487367245" lon="11.890736815893044"><ele>991.0</ele><time>2026-04-18T08:53:03Z</time></trkpt><trkpt lat="47.683928972176595" lon="11.89075042053104"><ele>991.0</ele><time>2026-04-18T08:53:04Z</time></trkpt><trkpt lat="47.68378154884074" lon="11.890702208420867"><ele>991.0</ele><time>2026-04-18T08:53:05Z</time></trkpt><trkpt lat="47.683629118291776" lon="11.89067700941827"><ele>996.0</ele><time>2026-04-18T08:53:06Z</time></trkpt><trkpt lat="47.683474918240904" lon="11.890620558556881"><ele>1001.0</ele><time>2026-04-18T08:53:07Z</time></trkpt><trkpt lat="47.683316219033316" lon="11.890573416618707"><ele>1006.0</ele><time>2026-04-18T08:53:08Z</time></trkpt><trkpt lat="47.68316288682404" lon="11.890528516066956"><ele>1006.0</ele><time>2026-04-18T08:53:09Z</time></trkpt><trkpt lat="47.6830168241985" lon="11.89047561305481"><ele>1006.0</ele><time>2026-04-18T08:53:10Z</time></trkpt><trkpt lat="47.682873298393055" lon="11.89040276149023"><ele>1006.0</ele><time>2026-04-18T08:53:11Z</time></trkpt><trkpt lat="47.68273751506429" lon="11.890300431118458"><ele>1005.75</ele><time>2026-04-18T08:53:12Z</time></trkpt><trkpt lat="47.68260716568196" lon="11.890201413412848"><ele>1005.5</ele><time>2026-04-18T08:53:13Z</time></trkpt><trkpt lat="47.68248378885568" lon="11.89010957875785"><ele>1005.25</ele><time>2026-04-18T08:53:14Z</time></trkpt><trkpt lat="47.682367259331414" lon="11.89001630690728"><ele>1005.0</ele><time>2026-04-18T08:53:15Z</time></trkpt><trkpt lat="47.68224540713747" lon="11.889940327186741"><ele>1005.0</ele><time>2026-04-18T08:53:16Z</time></trkpt><trkpt lat="47.682112044701974" lon="11.889894338855747"><ele>1005.0</ele><time>2026-04-18T08:53:17Z</time></trkpt><trkpt lat="47.68197039852244" lon="11.889880872528233"><ele>1005.0</ele><time>2026-04-18T08:53:18Z</time></trkpt><trkpt lat="47.68182176067272" lon="11.88987424617335"><ele>1005.0</ele><time>2026-04-18T08:53:19Z</time></trkpt><trkpt lat="47.681665903180274" lon="11.889877933720937"><ele>1010.0</ele><time>2026-04-18T08:53:20Z</time></trkpt><trkpt lat="47.68151625604089" lon="11.889881474334558"><ele>1015.0</ele><time>2026-04-18T08:53:21Z</time></trkpt><trkpt lat="47.68137729921588" lon="11.889877888517386"><ele>1020.0</ele><time>2026-04-18T08:53:22Z</time></trkpt><trkpt lat="47.68124023572436" lon="11.889852675708406"><ele>1025.0</ele><time>2026-04-18T08:53:23Z</time></trkpt><trkpt lat="47.68110278397622" lon="11.889811497354666"><ele>1034.6666666666667</ele><time>2026-04-18T08:53:24Z</time></trkpt><trkpt lat="47.68097175919708" lon="11.88970631184199"><ele>1044.3333333333333</ele><time>2026-04-18T08:53:25Z</time></trkpt><trkpt lat="47.680839642932376" lon="11.889583774031067"><ele>1054.0</ele><time>2026-04-18T08:53:26Z</time></trkpt><trkpt lat="47.68070449978837" lon="11.889454569711466"><ele>1054.0</ele><time>2026-04-18T08:53:27Z</time></trkpt><trkpt lat="47.68056620490343" lon="11.88932658020036"><ele>1054.0</ele><time>2026-04-18T08:53:28Z</time></trkpt><trkpt lat="47.680431285288236" lon="11.889206745131938"><ele>1054.0</ele><time>2026-04-18T08:53:29Z</time></trkpt><trkpt lat="47.68030721519774" lon="11.889092151758959"><ele>1057.6666666666665</ele><time>2026-04-18T08:53:30Z</time></trkpt><trkpt lat="47.680179109477784" lon="11.88897614301377"><ele>1061.3333333333333</ele><time>2026-04-18T08:53:31Z</time></trkpt><trkpt lat="47.680049593339504" lon="11.888853677574666"><ele>1065.0</ele><time>2026-04-18T08:53:32Z</time></trkpt><trkpt lat="47.679919401699266" lon="11.888731462064717"><ele>1065.0</ele><time>2026-04-18T08:53:33Z</time></trkpt><trkpt lat="47.679783690959205" lon="11.888588259782246"><ele>1065.0</ele><time>2026-04-18T08:53:34Z</time></trkpt><trkpt lat="47.67966018809034" lon="11.888410332729439"><ele>1065.0</ele><time>2026-04-18T08:53:35Z</time></trkpt><trkpt lat="47.67955783455098" lon="11.888197305594494"><ele>1071.0</ele><time>2026-04-18T08:53:36Z</time></trkpt><trkpt lat="47.6794350373725" lon="11.88800898133979"><ele>1077.0</ele><time>2026-04-18T08:53:37Z</time></trkpt><trkpt lat="47.67933209486034" lon="11.887811393526897"><ele>1083.0</ele><time>2026-04-18T08:53:38Z</time></trkpt><trkpt lat="47.67923927189898" lon="11.8876320908224"><ele>1077.75</ele><time>2026-04-18T08:53:39Z</time></trkpt><trkpt lat="47.67914908197112" lon="11.8874646922509"><ele>1072.5</ele><time>2026-04-18T08:53:40Z</time></trkpt><trkpt lat="47.67905246792742" lon="11.887313082877782"><ele>1067.25</ele><time>2026-04-18T08:53:41Z</time></trkpt><trkpt lat="47.67894211935128" lon="11.887172361356589"><ele>1062.0</ele><time>2026-04-18T08:53:42Z</time></trkpt><trkpt lat="47.67881335361972" lon="11.887043375735763"><ele>1062.0</ele><time>2026-04-18T08:53:43Z</time></trkpt><trkpt lat="47.67867872369736" lon="11.886938677664862"><ele>1062.0</ele><time>2026-04-18T08:53:44Z</time></trkpt><trkpt lat="47.67854752709395" lon="11.886858297507562"><ele>1062.0</ele><time>2026-04-18T08:53:45Z</time></trkpt><trkpt lat="47.67840768751391" lon="11.886787819178817"><ele>1062.0</ele><time>2026-04-18T08:53:46Z</time></trkpt><trkpt lat="47.67825226144324" lon="11.886743290159117"><ele>1061.6666666666667</ele><time>2026-04-18T08:53:47Z</time></trkpt><trkpt lat="47.678075772090864" lon="11.886717643594201"><ele>1061.3333333333335</ele><time>2026-04-18T08:53:48Z</time></trkpt><trkpt lat="47.67789477193564" lon="11.886690989778048"><ele>1061.0</ele><time>2026-04-18T08:53:49Z</time></trkpt><trkpt lat="47.677709884112126" lon="11.886657588896766"><ele>1065.3333333333335</ele><time>2026-04-18T08:53:50Z</time></trkpt><trkpt lat="47.67752416500767" lon="11.886622980936915"><ele>1069.6666666666667</ele><time>2026-04-18T08:53:51Z</time></trkpt><trkpt lat="47.677334937860095" lon="11.886586065474372"><ele>1074.0</ele><time>2026-04-18T08:53:52Z</time></trkpt><trkpt lat="47.677147500185576" lon="11.886552684814802"><ele>1074.0</ele><time>2026-04-18T08:53:53Z</time></trkpt><trkpt lat="47.676960427455086" lon="11.886513931653083"><ele>1074.0</ele><time>2026-04-18T08:53:54Z</time></trkpt><trkpt lat="47.676775055028784" lon="11.88647679602281"><ele>1074.0</ele><time>2026-04-18T08:53:55Z</time></trkpt><trkpt lat="47.67660233116216" lon="11.886443946940444"><ele>1076.75</ele><time>2026-04-18T08:53:56Z</time></trkpt><trkpt lat="47.67645668594652" lon="11.886416237045088"><ele>1079.5</ele><time>2026-04-18T08:53:57Z</time></trkpt><trkpt lat="47.67631604464873" lon="11.886386164859847"><ele>1082.25</ele><time>2026-04-18T08:53:58Z</time></trkpt><trkpt lat="47.67616715474069" lon="11.8863582413192"><ele>1085.0</ele><time>2026-04-18T08:53:59Z</time></trkpt><trkpt lat="47.67600517740448" lon="11.886325749365692"><ele>1089.3333333333335</ele><time>2026-04-18T08:54:00Z</time></trkpt><trkpt lat="47.67583512181774" lon="11.886287464009355"><ele>1093.6666666666667</ele><time>2026-04-18T08:54:01Z</time></trkpt><trkpt lat="47.67565296702491" lon="11.886243022328278"><ele>1098.0</ele><time>2026-04-18T08:54:02Z</time></trkpt><trkpt lat="47.67546627633419" lon="11.886206585358128"><ele>1098.0</ele><time>2026-04-18T08:54:03Z</time></trkpt><trkpt lat="47.67530532922009" lon="11.88617851086668"><ele>1098.0</ele><time>2026-04-18T08:54:04Z</time></trkpt><trkpt lat="47.67516091371878" lon="11.886158562643947"><ele>1098.0</ele><time>2026-04-18T08:54:05Z</time></trkpt><trkpt lat="47.67501979034374" lon="11.886151956660068"><ele>1098.0</ele><time>2026-04-18T08:54:06Z</time></trkpt><trkpt lat="47.67488398890239" lon="11.886154043049178"><ele>1098.25</ele><time>2026-04-18T08:54:07Z</time></trkpt><trkpt lat="47.67475647650646" lon="11.886162966891165"><ele>1098.5</ele><time>2026-04-18T08:54:08Z</time></trkpt><trkpt lat="47.674627661411215" lon="11.886176477920392"><ele>1098.75</ele><time>2026-04-18T08:54:09Z</time></trkpt><trkpt lat="47.674499629127546" lon="11.886193749445786"><ele>1099.0</ele><time>2026-04-18T08:54:10Z</time></trkpt><trkpt lat="47.67437351466531" lon="11.886209651310722"><ele>1103.0</ele><time>2026-04-18T08:54:11Z</time></trkpt><trkpt lat="47.67424358386623" lon="11.886231175058471"><ele>1107.0</ele><time>2026-04-18T08:54:12Z</time></trkpt><trkpt lat="47.674111256837215" lon="11.886264935520488"><ele>1111.0</ele><time>2026-04-18T08:54:13Z</time></trkpt><trkpt lat="47.6739951354786" lon="11.886298744215145"><ele>1115.0</ele><time>2026-04-18T08:54:14Z</time></trkpt><trkpt lat="47.67389412356294" lon="11.886332129844039"><ele>1115.0</ele><time>2026-04-18T08:54:15Z</time></trkpt><trkpt lat="47.67378813178894" lon="11.886365110408805"><ele>1115.0</ele><time>2026-04-18T08:54:16Z</time></trkpt><trkpt lat="47.67368418461452" lon="11.886395853500682"><ele>1115.0</ele><time>2026-04-18T08:54:17Z</time></trkpt><trkpt lat="47.67357990157946" lon="11.88642437882379"><ele>1115.0</ele><time>2026-04-18T08:54:18Z</time></trkpt><trkpt lat="47.67347768107491" lon="11.886455343532704"><ele>1115.0</ele><time>2026-04-18T08:54:19Z</time></trkpt><trkpt lat="47.67337292292061" lon="11.886492633809535"><ele>1117.4</ele><time>2026-04-18T08:54:20Z</time></trkpt><trkpt lat="47.673272169568804" lon="11.886527799811441"><ele>1119.8</ele><time>2026-04-18T08:54:21Z</time></trkpt><trkpt lat="47.67318613615779" lon="11.88655768706419"><ele>1122.2</ele><time>2026-04-18T08:54:22Z</time></trkpt><trkpt lat="47.673110456841854" lon="11.886580497654029"><ele>1124.6</ele><time>2026-04-18T08:54:23Z</time></trkpt><trkpt lat="47.673036469810974" lon="11.886597850744199"><ele>1127.0</ele><time>2026-04-18T08:54:24Z</time></trkpt><trkpt lat="47.67292922756606" lon="11.886622383382408"><ele>1127.0</ele><time>2026-04-18T08:54:26Z</time></trkpt><trkpt lat="47.6728181224231" lon="11.886647912678715"><ele>1127.0</ele><time>2026-04-18T08:54:28Z</time></trkpt><trkpt lat="47.67270857345854" lon="11.886664859608567"><ele>1127.0</ele><time>2026-04-18T08:54:30Z</time></trkpt><trkpt lat="47.67263160371895" lon="11.886671548656398"><ele>1127.0</ele><time>2026-04-18T08:54:32Z</time></trkpt><trkpt lat="47.672560244487926" lon="11.886665761804801"><ele>1127.0</ele><time>2026-04-18T08:54:35Z</time></trkpt><trkpt lat="47.672492681034825" lon="11.886640621051361"><ele>1127.0</ele><time>2026-04-18T08:54:38Z</time></trkpt><trkpt lat="47.67243385072482" lon="11.88668838111362"><ele>1127.0</ele><time>2026-04-18T08:54:41Z</time></trkpt><trkpt lat="47.67244741507143" lon="11.886786338313447"><ele>1127.0</ele><time>2026-04-18T08:54:44Z</time></trkpt><trkpt lat="47.67257704214302" lon="11.886786298924363"><ele>1127.0</ele><time>2026-04-18T08:56:18Z</time></trkpt><trkpt lat="47.67265336349966" lon="11.886745475536337"><ele>1127.0</ele><time>2026-04-18T08:56:20Z</time></trkpt><trkpt lat="47.672746144401565" lon="11.88675005530135"><ele>1127.0</ele><time>2026-04-18T08:56:21Z</time></trkpt><trkpt lat="47.67288055352821" lon="11.88672629780833"><ele>1127.0</ele><time>2026-04-18T08:56:22Z</time></trkpt><trkpt lat="47.67304279679451" lon="11.886658384059654"><ele>1127.0</ele><time>2026-04-18T08:56:23Z</time></trkpt><trkpt lat="47.673214000155824" lon="11.88659151470658"><ele>1127.0</ele><time>2026-04-18T08:56:24Z</time></trkpt><trkpt lat="47.67338790635786" lon="11.886535138853002"><ele>1127.0</ele><time>2026-04-18T08:56:25Z</time></trkpt><trkpt lat="47.673552832970906" lon="11.886476659740199"><ele>1127.0</ele><time>2026-04-18T08:56:26Z</time></trkpt><trkpt lat="47.6737271860382" lon="11.886430783833005"><ele>1127.0</ele><time>2026-04-18T08:56:27Z</time></trkpt><trkpt lat="47.67387366642516" lon="11.886399721787086"><ele>1123.0</ele><time>2026-04-18T08:56:28Z</time></trkpt><trkpt lat="47.67400580206312" lon="11.886351557516207"><ele>1119.0</ele><time>2026-04-18T08:56:29Z</time></trkpt><trkpt lat="47.674163502242834" lon="11.886300374727465"><ele>1115.0</ele><time>2026-04-18T08:56:30Z</time></trkpt><trkpt lat="47.6743255475113" lon="11.886262177520988"><ele>1109.6666666666667</ele><time>2026-04-18T08:56:31Z</time></trkpt><trkpt lat="47.67449006912795" lon="11.88623097343137"><ele>1104.3333333333333</ele><time>2026-04-18T08:56:32Z</time></trkpt><trkpt lat="47.6746568164217" lon="11.886213190022742"><ele>1099.0</ele><time>2026-04-18T08:56:33Z</time></trkpt><trkpt lat="47.674845485215485" lon="11.886205605236375"><ele>1099.0</ele><time>2026-04-18T08:56:34Z</time></trkpt><trkpt lat="47.67504593470288" lon="11.886211314974586"><ele>1099.0</ele><time>2026-04-18T08:56:35Z</time></trkpt><trkpt lat="47.675249949030395" lon="11.88622575158336"><ele>1099.0</ele><time>2026-04-18T08:56:36Z</time></trkpt><trkpt lat="47.67547228800959" lon="11.886277520429921"><ele>1098.5</ele><time>2026-04-18T08:56:37Z</time></trkpt><trkpt lat="47.67570740093787" lon="11.88632125146887"><ele>1098.0</ele><time>2026-04-18T08:56:38Z</time></trkpt><trkpt lat="47.67592438763234" lon="11.886364945377517"><ele>1093.6666666666667</ele><time>2026-04-18T08:56:39Z</time></trkpt><trkpt lat="47.67613698657956" lon="11.886402405295234"><ele>1089.3333333333335</ele><time>2026-04-18T08:56:40Z</time></trkpt><trkpt lat="47.67634443997038" lon="11.886441486847088"><ele>1085.0</ele><time>2026-04-18T08:56:41Z</time></trkpt><trkpt lat="47.67655022054306" lon="11.886479868239585"><ele>1085.0</ele><time>2026-04-18T08:56:42Z</time></trkpt><trkpt lat="47.67674915937776" lon="11.886518321692606"><ele>1085.0</ele><time>2026-04-18T08:56:43Z</time></trkpt><trkpt lat="47.676921406532756" lon="11.886549768879311"><ele>1085.0</ele><time>2026-04-18T08:56:44Z</time></trkpt><trkpt lat="47.67709704251937" lon="11.886585206793585"><ele>1081.3333333333335</ele><time>2026-04-18T08:56:45Z</time></trkpt><trkpt lat="47.67726809400198" lon="11.886620408402578"><ele>1077.6666666666667</ele><time>2026-04-18T08:56:46Z</time></trkpt><trkpt lat="47.67743321171749" lon="11.886654289304209"><ele>1074.0</ele><time>2026-04-18T08:56:47Z</time></trkpt><trkpt lat="47.67759650442904" lon="11.88668475746877"><ele>1074.0</ele><time>2026-04-18T08:56:48Z</time></trkpt><trkpt lat="47.67776213450917" lon="11.886710328325794"><ele>1074.0</ele><time>2026-04-18T08:56:49Z</time></trkpt><trkpt lat="47.67793065074229" lon="11.886738734528862"><ele>1074.0</ele><time>2026-04-18T08:56:50Z</time></trkpt><trkpt lat="47.67809182628659" lon="11.886768648644582"><ele>1075.3333333333333</ele><time>2026-04-18T08:56:51Z</time></trkpt><trkpt lat="47.678250610403545" lon="11.88680517348568"><ele>1076.6666666666665</ele><time>2026-04-18T08:56:52Z</time></trkpt><trkpt lat="47.678404421079634" lon="11.886845240192187"><ele>1078.0</ele><time>2026-04-18T08:56:53Z</time></trkpt><trkpt lat="47.678551243885124" lon="11.88690884385597"><ele>1074.0</ele><time>2026-04-18T08:56:54Z</time></trkpt><trkpt lat="47.67868967922631" lon="11.886995753660623"><ele>1070.0</ele><time>2026-04-18T08:56:55Z</time></trkpt><trkpt lat="47.67881826605702" lon="11.887103965037225"><ele>1066.0</ele><time>2026-04-18T08:56:56Z</time></trkpt><trkpt lat="47.67893820929984" lon="11.887228369900493"><ele>1062.0</ele><time>2026-04-18T08:56:57Z</time></trkpt><trkpt lat="47.679047792464104" lon="11.887371725122449"><ele>1062.0</ele><time>2026-04-18T08:56:58Z</time></trkpt><trkpt lat="47.67914906875964" lon="11.887531402148312"><ele>1062.0</ele><time>2026-04-18T08:56:59Z</time></trkpt><trkpt lat="47.67924504780108" lon="11.887711300576969"><ele>1062.0</ele><time>2026-04-18T08:57:00Z</time></trkpt><trkpt lat="47.67934293744514" lon="11.887903373261961"><ele>1063.0</ele><time>2026-04-18T08:57:01Z</time></trkpt><trkpt lat="47.67944472826155" lon="11.88809044561875"><ele>1064.0</ele><time>2026-04-18T08:57:02Z</time></trkpt><trkpt lat="47.67954159842893" lon="11.888268929589415"><ele>1065.0</ele><time>2026-04-18T08:57:03Z</time></trkpt><trkpt lat="47.67964092397293" lon="11.888442728120204"><ele>1065.0</ele><time>2026-04-18T08:57:04Z</time></trkpt><trkpt lat="47.67975375979462" lon="11.888607612650302"><ele>1065.0</ele><time>2026-04-18T08:57:05Z</time></trkpt><trkpt lat="47.679883549672624" lon="11.888757239020165"><ele>1065.0</ele><time>2026-04-18T08:57:06Z</time></trkpt><trkpt lat="47.68003321092524" lon="11.88889712170548"><ele>1065.0</ele><time>2026-04-18T08:57:07Z</time></trkpt><trkpt lat="47.68019418023402" lon="11.8890401912528"><ele>1065.0</ele><time>2026-04-18T08:57:08Z</time></trkpt><trkpt lat="47.68035455420057" lon="11.889188211511811"><ele>1065.0</ele><time>2026-04-18T08:57:09Z</time></trkpt><trkpt lat="47.68050816909429" lon="11.889330375759702"><ele>1061.3333333333333</ele><time>2026-04-18T08:57:10Z</time></trkpt><trkpt lat="47.680656032008734" lon="11.889462847611215"><ele>1057.6666666666665</ele><time>2026-04-18T08:57:11Z</time></trkpt><trkpt lat="47.68079187789539" lon="11.889588750537197"><ele>1054.0</ele><time>2026-04-18T08:57:12Z</time></trkpt><trkpt lat="47.68090968838587" lon="11.889700463467724"><ele>1054.0</ele><time>2026-04-18T08:57:13Z</time></trkpt><trkpt lat="47.68102311478296" lon="11.889798828682798"><ele>1054.0</ele><time>2026-04-18T08:57:14Z</time></trkpt><trkpt lat="47.681137871101186" lon="11.889863863668872"><ele>1054.0</ele><time>2026-04-18T08:57:15Z</time></trkpt><trkpt lat="47.68127881824558" lon="11.889903961077607"><ele>1054.0</ele><time>2026-04-18T08:57:16Z</time></trkpt><trkpt lat="47.68143025902729" lon="11.889924726978393"><ele>1044.3333333333333</ele><time>2026-04-18T08:57:17Z</time></trkpt><trkpt lat="47.68158903562398" lon="11.88992178368254"><ele>1034.6666666666667</ele><time>2026-04-18T08:57:18Z</time></trkpt><trkpt lat="47.681746153990964" lon="11.8899156280555"><ele>1025.0</ele><time>2026-04-18T08:57:19Z</time></trkpt><trkpt lat="47.68189518057082" lon="11.889924190052806"><ele>1026.25</ele><time>2026-04-18T08:57:20Z</time></trkpt><trkpt lat="47.68203932696039" lon="11.88992603325794"><ele>1027.5</ele><time>2026-04-18T08:57:21Z</time></trkpt><trkpt lat="47.68217459862941" lon="11.889957120885523"><ele>1028.75</ele><time>2026-04-18T08:57:22Z</time></trkpt><trkpt lat="47.68230526346662" lon="11.890022706676376"><ele>1030.0</ele><time>2026-04-18T08:57:23Z</time></trkpt><trkpt lat="47.682440027778384" lon="11.890127107289537"><ele>1030.0</ele><time>2026-04-18T08:57:24Z</time></trkpt><trkpt lat="47.682583591966406" lon="11.89023934357325"><ele>1030.0</ele><time>2026-04-18T08:57:25Z</time></trkpt><trkpt lat="47.68271287131264" lon="11.890332498988496"><ele>1030.0</ele><time>2026-04-18T08:57:26Z</time></trkpt><trkpt lat="47.68282591681236" lon="11.890412957859889"><ele>1030.0</ele><time>2026-04-18T08:57:27Z</time></trkpt><trkpt lat="47.682919299649306" lon="11.890473541389543"><ele>1026.0</ele><time>2026-04-18T08:57:28Z</time></trkpt><trkpt lat="47.68299411154441" lon="11.890512789789527"><ele>1022.0</ele><time>2026-04-18T08:57:29Z</time></trkpt><trkpt lat="47.6830977455312" lon="11.890550907921073"><ele>1018.0</ele><time>2026-04-18T08:57:31Z</time></trkpt><trkpt lat="47.683177587001886" lon="11.890576199528189"><ele>1014.0</ele><time>2026-04-18T08:57:33Z</time></trkpt><trkpt lat="47.68325318210335" lon="11.890590645602073"><ele>1009.9999999999999</ele><time>2026-04-18T08:57:35Z</time></trkpt><trkpt lat="47.68331974912585" lon="11.890608790917227"><ele>1006.0</ele><time>2026-04-18T08:57:37Z</time></trkpt><trkpt lat="47.68339374745034" lon="11.890647340517056"><ele>1006.0</ele><time>2026-04-18T08:57:39Z</time></trkpt><trkpt lat="47.68351267955466" lon="11.890666878342548"><ele>1005.9999999999999</ele><time>2026-04-18T08:57:55Z</time></trkpt><trkpt lat="47.68359252164277" lon="11.890686093859523"><ele>1005.9999999999999</ele><time>2026-04-18T08:57:56Z</time></trkpt><trkpt lat="47.683680443655895" lon="11.890715990724013"><ele>1006.0</ele><time>2026-04-18T08:57:57Z</time></trkpt><trkpt lat="47.683783005822185" lon="11.890760155431344"><ele>1006.0</ele><time>2026-04-18T08:57:58Z</time></trkpt><trkpt lat="47.683895139075084" lon="11.890789709877385"><ele>1002.25</ele><time>2026-04-18T08:57:59Z</time></trkpt><trkpt lat="47.68401125737698" lon="11.890791074691755"><ele>998.5</ele><time>2026-04-18T08:58:00Z</time></trkpt><trkpt lat="47.68414207262118" lon="11.890747519053013"><ele>994.75</ele><time>2026-04-18T08:58:01Z</time></trkpt><trkpt lat="47.684271404607045" lon="11.890676403356423"><ele>991.0</ele><time>2026-04-18T08:58:02Z</time></trkpt><trkpt lat="47.68439571120225" lon="11.890579425006408"><ele>992.0</ele><time>2026-04-18T08:58:03Z</time></trkpt><trkpt lat="47.68450739995507" lon="11.890463408330167"><ele>993.0</ele><time>2026-04-18T08:58:04Z</time></trkpt><trkpt lat="47.684603919497455" lon="11.890328411742455"><ele>994.0</ele><time>2026-04-18T08:58:05Z</time></trkpt><trkpt lat="47.68470940527828" lon="11.890218181970603"><ele>995.0</ele><time>2026-04-18T08:58:06Z</time></trkpt><trkpt lat="47.68482607803218" lon="11.890114940281146"><ele>990.2</ele><time>2026-04-18T08:58:07Z</time></trkpt><trkpt lat="47.68496379075833" lon="11.890048581651216"><ele>985.4</ele><time>2026-04-18T08:58:08Z</time></trkpt><trkpt lat="47.68507722870021" lon="11.889999366136104"><ele>980.5999999999999</ele><time>2026-04-18T08:58:09Z</time></trkpt><trkpt lat="47.685168686965326" lon="11.890013748504844"><ele>975.8</ele><time>2026-04-18T08:58:10Z</time></trkpt><trkpt lat="47.68525314308682" lon="11.890033844809125"><ele>971.0</ele><time>2026-04-18T08:58:11Z</time></trkpt><trkpt lat="47.68532441733321" lon="11.89008820874615"><ele>968.1999999999999</ele><time>2026-04-18T08:58:13Z</time></trkpt><trkpt lat="47.685464655685124" lon="11.88986032362265"><ele>965.3999999999999</ele><time>2026-04-18T08:58:39Z</time></trkpt><trkpt lat="47.68541186457142" lon="11.889916512372166"><ele>962.6</ele><time>2026-04-18T08:58:50Z</time></trkpt><trkpt lat="47.68534512365553" lon="11.88990791590779"><ele>959.8</ele><time>2026-04-18T08:58:57Z</time></trkpt><trkpt lat="47.68539762906528" lon="11.889966185280985"><ele>957.0</ele><time>2026-04-18T08:59:47Z</time></trkpt><trkpt lat="47.685444766184844" lon="11.890031154502934"><ele>957.0</ele><time>2026-04-18T08:59:53Z</time></trkpt><trkpt lat="47.68551838549138" lon="11.890041267294553"><ele>957.0000000000001</ele><time>2026-04-18T09:00:14Z</time></trkpt><trkpt lat="47.685581533349186" lon="11.890088527128563"><ele>957.0</ele><time>2026-04-18T09:00:25Z</time></trkpt><trkpt lat="47.68563718943758" lon="11.890154515638317"><ele>957.0</ele><time>2026-04-18T09:00:37Z</time></trkpt><trkpt lat="47.685706855914006" lon="11.89014885117625"><ele>957.0000000000001</ele><time>2026-04-18T09:04:04Z</time></trkpt><trkpt lat="47.6856669412817" lon="11.890060803954077"><ele>957.0</ele><time>2026-04-18T09:04:09Z</time></trkpt><trkpt lat="47.685610138191784" lon="11.889971075581927"><ele>957.0</ele><time>2026-04-18T09:04:15Z</time></trkpt><trkpt lat="47.685555760679335" lon="11.889898725225887"><ele>957.0</ele><time>2026-04-18T09:04:19Z</time></trkpt><trkpt lat="47.68548280507419" lon="11.889872608637146"><ele>957.0</ele><time>2026-04-18T09:04:25Z</time></trkpt><trkpt lat="47.68556014982039" lon="11.889957766505164"><ele>957.0</ele><time>2026-04-18T09:04:54Z</time></trkpt><trkpt lat="47.685604340477106" lon="11.890076122416916"><ele>957.0</ele><time>2026-04-18T09:04:56Z</time></trkpt><trkpt lat="47.6856368263745" lon="11.890163291501922"><ele>957.0</ele><time>2026-04-18T09:04:59Z</time></trkpt><trkpt lat="47.685686539057464" lon="11.890245125802169"><ele>957.0</ele><time>2026-04-18T09:05:09.999Z</time></trkpt><trkpt lat="47.68577561029182" lon="11.890330536067953"><ele>959.25</ele><time>2026-04-18T09:05:11.999Z</time></trkpt><trkpt lat="47.685862525455775" lon="11.890402871181378"><ele>961.5</ele><time>2026-04-18T09:05:12.999Z</time></trkpt><trkpt lat="47.68599154869361" lon="11.890438632460542"><ele>963.75</ele><time>2026-04-18T09:05:13.999Z</time></trkpt><trkpt lat="47.6861142074689" lon="11.890459007666081"><ele>966.0</ele><time>2026-04-18T09:05:14.999Z</time></trkpt><trkpt lat="47.686245266932225" lon="11.890464360918754"><ele>966.0</ele><time>2026-04-18T09:05:15.999Z</time></trkpt><trkpt lat="47.68639760019232" lon="11.890496166007035"><ele>966.0</ele><time>2026-04-18T09:05:16.999Z</time></trkpt><trkpt lat="47.68657503475746" lon="11.890517676554753"><ele>966.0</ele><time>2026-04-18T09:05:18Z</time></trkpt><trkpt lat="47.68674169361543" lon="11.89051530459172"><ele>966.0</ele><time>2026-04-18T09:05:19Z</time></trkpt><trkpt lat="47.68689915338483" lon="11.890536791677711"><ele>966.0</ele><time>2026-04-18T09:05:20Z</time></trkpt><trkpt lat="47.687041583454246" lon="11.890616186674325"><ele>966.0</ele><time>2026-04-18T09:05:21Z</time></trkpt><trkpt lat="47.68716152100091" lon="11.890706023441801"><ele>966.0</ele><time>2026-04-18T09:05:22Z</time></trkpt><trkpt lat="47.687293360201046" lon="11.89081713671932"><ele>968.3333333333333</ele><time>2026-04-18T09:05:23Z</time></trkpt><trkpt lat="47.68743676637216" lon="11.890915203846522"><ele>970.6666666666666</ele><time>2026-04-18T09:05:24Z</time></trkpt><trkpt lat="47.68757118468668" lon="11.891030039020574"><ele>973.0</ele><time>2026-04-18T09:05:25Z</time></trkpt><trkpt lat="47.687717411956854" lon="11.891132131143973"><ele>962.6666666666666</ele><time>2026-04-18T09:05:26Z</time></trkpt><trkpt lat="47.68789398304467" lon="11.891206687853673"><ele>952.3333333333333</ele><time>2026-04-18T09:05:27Z</time></trkpt><trkpt lat="47.68806891047061" lon="11.891278432845544"><ele>942.0</ele><time>2026-04-18T09:05:28Z</time></trkpt><trkpt lat="47.688244020201985" lon="11.891350252495773"><ele>942.0</ele><time>2026-04-18T09:05:29Z</time></trkpt><trkpt lat="47.688408201426" lon="11.891417589917596"><ele>942.0</ele><time>2026-04-18T09:05:30Z</time></trkpt><trkpt lat="47.68856532370274" lon="11.891482032173574"><ele>942.0</ele><time>2026-04-18T09:05:31Z</time></trkpt><trkpt lat="47.68873037137942" lon="11.891549724964765"><ele>944.0</ele><time>2026-04-18T09:05:32Z</time></trkpt><trkpt lat="47.68889238973174" lon="11.891626828455419"><ele>946.0</ele><time>2026-04-18T09:05:33Z</time></trkpt><trkpt lat="47.689046714666475" lon="11.891725428610878"><ele>948.0</ele><time>2026-04-18T09:05:34Z</time></trkpt><trkpt lat="47.68921257197585" lon="11.891855908005743"><ele>948.0</ele><time>2026-04-18T09:05:35Z</time></trkpt><trkpt lat="47.68937976560231" lon="11.891993951996445"><ele>948.0</ele><time>2026-04-18T09:05:36Z</time></trkpt><trkpt lat="47.6895513739286" lon="11.892134953721483"><ele>948.0</ele><time>2026-04-18T09:05:37Z</time></trkpt><trkpt lat="47.6897235036851" lon="11.892274765521558"><ele>949.6666666666667</ele><time>2026-04-18T09:05:38Z</time></trkpt><trkpt lat="47.68989128080757" lon="11.892407398759753"><ele>951.3333333333334</ele><time>2026-04-18T09:05:39Z</time></trkpt><trkpt lat="47.69006136160209" lon="11.892534596126643"><ele>953.0</ele><time>2026-04-18T09:05:40Z</time></trkpt><trkpt lat="47.6902425750537" lon="11.892642667518311"><ele>939.6666666666667</ele><time>2026-04-18T09:05:41Z</time></trkpt><trkpt lat="47.69042523959075" lon="11.892742834547"><ele>926.3333333333333</ele><time>2026-04-18T09:05:42Z</time></trkpt><trkpt lat="47.69060837388695" lon="11.892845336871732"><ele>913.0</ele><time>2026-04-18T09:05:43Z</time></trkpt><trkpt lat="47.69078292754499" lon="11.892943036515987"><ele>913.0</ele><time>2026-04-18T09:05:44Z</time></trkpt><trkpt lat="47.690961189727474" lon="11.893042811861225"><ele>913.0</ele><time>2026-04-18T09:05:45Z</time></trkpt><trkpt lat="47.69114595750414" lon="11.893145369818587"><ele>913.0</ele><time>2026-04-18T09:05:46Z</time></trkpt><trkpt lat="47.6913217324839" lon="11.893242584040744"><ele>912.0</ele><time>2026-04-18T09:05:47Z</time></trkpt><trkpt lat="47.691486755054335" lon="11.89335078301003"><ele>911.0</ele><time>2026-04-18T09:05:48Z</time></trkpt><trkpt lat="47.69163893265694" lon="11.89349065708841"><ele>910.0</ele><time>2026-04-18T09:05:49Z</time></trkpt><trkpt lat="47.69178580852351" lon="11.89364025374979"><ele>900.6666666666666</ele><time>2026-04-18T09:05:50Z</time></trkpt><trkpt lat="47.6919375861166" lon="11.893771381824807"><ele>891.3333333333333</ele><time>2026-04-18T09:05:51Z</time></trkpt><trkpt lat="47.69209318111622" lon="11.893888764943712"><ele>882.0</ele><time>2026-04-18T09:05:52Z</time></trkpt><trkpt lat="47.69224305711736" lon="11.893996595562351"><ele>882.0</ele><time>2026-04-18T09:05:53Z</time></trkpt><trkpt lat="47.692386585640016" lon="11.894109812759126"><ele>882.0</ele><time>2026-04-18T09:05:54Z</time></trkpt><trkpt lat="47.69249094261307" lon="11.894284908352121"><ele>882.0</ele><time>2026-04-18T09:05:55Z</time></trkpt><trkpt lat="47.692603524458555" lon="11.894447120543239"><ele>881.6666666666667</ele><time>2026-04-18T09:05:56Z</time></trkpt><trkpt lat="47.692721213080496" lon="11.894601195525697"><ele>881.3333333333334</ele><time>2026-04-18T09:05:57Z</time></trkpt><trkpt lat="47.692873106385086" lon="11.894730157431152"><ele>881.0</ele><time>2026-04-18T09:05:58Z</time></trkpt><trkpt lat="47.69304310461569" lon="11.894827953402212"><ele>881.0</ele><time>2026-04-18T09:05:59Z</time></trkpt><trkpt lat="47.69320628624223" lon="11.894922100164235"><ele>881.0</ele><time>2026-04-18T09:06:00Z</time></trkpt><trkpt lat="47.69335971122482" lon="11.895025136687122"><ele>881.0</ele><time>2026-04-18T09:06:01Z</time></trkpt><trkpt lat="47.693499370829215" lon="11.895159962736601"><ele>881.6666666666667</ele><time>2026-04-18T09:06:02Z</time></trkpt><trkpt lat="47.69362552179521" lon="11.89530033846497"><ele>882.3333333333333</ele><time>2026-04-18T09:06:03Z</time></trkpt><trkpt lat="47.69375399403878" lon="11.895414731451726"><ele>883.0</ele><time>2026-04-18T09:06:04Z</time></trkpt><trkpt lat="47.6939048462245" lon="11.895488155174855"><ele>883.0</ele><time>2026-04-18T09:06:05Z</time></trkpt><trkpt lat="47.69407392149366" lon="11.895504770726243"><ele>883.0</ele><time>2026-04-18T09:06:06Z</time></trkpt><trkpt lat="47.69425088000661" lon="11.895520225067948"><ele>883.0</ele><time>2026-04-18T09:06:07Z</time></trkpt><trkpt lat="47.69441841310218" lon="11.895536394785104"><ele>875.0</ele><time>2026-04-18T09:06:08Z</time></trkpt><trkpt lat="47.69458847945545" lon="11.895551359266696"><ele>867.0</ele><time>2026-04-18T09:06:09Z</time></trkpt><trkpt lat="47.69475653976947" lon="11.89562262494249"><ele>859.0</ele><time>2026-04-18T09:06:10Z</time></trkpt><trkpt lat="47.69490825266695" lon="11.895740952346625"><ele>859.0</ele><time>2026-04-18T09:06:11Z</time></trkpt><trkpt lat="47.69505860681319" lon="11.89586462815907"><ele>859.0</ele><time>2026-04-18T09:06:12Z</time></trkpt><trkpt lat="47.695209328834" lon="11.896033064707769"><ele>859.0</ele><time>2026-04-18T09:06:13Z</time></trkpt><trkpt lat="47.695351496294194" lon="11.896232485599162"><ele>859.3333333333333</ele><time>2026-04-18T09:06:14Z</time></trkpt><trkpt lat="47.69549370255768" lon="11.896447461723982"><ele>859.6666666666667</ele><time>2026-04-18T09:06:15Z</time></trkpt><trkpt lat="47.69563769036" lon="11.89667860700315"><ele>860.0</ele><time>2026-04-18T09:06:16Z</time></trkpt><trkpt lat="47.69577762217844" lon="11.896908156089461"><ele>860.0</ele><time>2026-04-18T09:06:17Z</time></trkpt><trkpt lat="47.69590814602604" lon="11.89712727390537"><ele>860.0</ele><time>2026-04-18T09:06:18Z</time></trkpt><trkpt lat="47.696031732775126" lon="11.897333184463507"><ele>860.0</ele><time>2026-04-18T09:06:19Z</time></trkpt><trkpt lat="47.69616962293645" lon="11.89751662739642"><ele>854.0</ele><time>2026-04-18T09:06:20Z</time></trkpt><trkpt lat="47.696300029303366" lon="11.897723413484172"><ele>848.0</ele><time>2026-04-18T09:06:21Z</time></trkpt><trkpt lat="47.69642875322378" lon="11.897911932626458"><ele>842.0</ele><time>2026-04-18T09:06:22Z</time></trkpt><trkpt lat="47.69656129029722" lon="11.898086196177584"><ele>842.0</ele><time>2026-04-18T09:06:23Z</time></trkpt><trkpt lat="47.69669604879082" lon="11.898266963370697"><ele>842.0</ele><time>2026-04-18T09:06:24Z</time></trkpt><trkpt lat="47.696864098088874" lon="11.898379033811976"><ele>842.0</ele><time>2026-04-18T09:06:25Z</time></trkpt><trkpt lat="47.69702608406875" lon="11.898502608914617"><ele>840.0</ele><time>2026-04-18T09:06:26Z</time></trkpt><trkpt lat="47.69719353987575" lon="11.898609105124827"><ele>838.0</ele><time>2026-04-18T09:06:27Z</time></trkpt><trkpt lat="47.69737063470879" lon="11.898696757694735"><ele>836.0</ele><time>2026-04-18T09:06:28Z</time></trkpt><trkpt lat="47.69755479077531" lon="11.898761112797471"><ele>836.0</ele><time>2026-04-18T09:06:29Z</time></trkpt><trkpt lat="47.69774883144779" lon="11.898813148358506"><ele>836.0</ele><time>2026-04-18T09:06:30Z</time></trkpt><trkpt lat="47.69794865681635" lon="11.898841796291707"><ele>836.0</ele><time>2026-04-18T09:06:31Z</time></trkpt><trkpt lat="47.69815157457769" lon="11.89885493842978"><ele>834.3333333333334</ele><time>2026-04-18T09:06:32Z</time></trkpt><trkpt lat="47.698354052395516" lon="11.898825580173638"><ele>832.6666666666667</ele><time>2026-04-18T09:06:33Z</time></trkpt><trkpt lat="47.69852077835974" lon="11.898762175150088"><ele>831.0</ele><time>2026-04-18T09:06:34Z</time></trkpt><trkpt lat="47.69869434097046" lon="11.898668703343665"><ele>828.6666666666667</ele><time>2026-04-18T09:06:35Z</time></trkpt><trkpt lat="47.69887038540226" lon="11.898561064518711"><ele>826.3333333333334</ele><time>2026-04-18T09:06:36Z</time></trkpt><trkpt lat="47.69905544272098" lon="11.898446850588606"><ele>824.0</ele><time>2026-04-18T09:06:37Z</time></trkpt><trkpt lat="47.69923536767249" lon="11.89833580438907"><ele>819.0</ele><time>2026-04-18T09:06:38Z</time></trkpt><trkpt lat="47.69942851216142" lon="11.898215897875964"><ele>814.0</ele><time>2026-04-18T09:06:39Z</time></trkpt><trkpt lat="47.69962182611254" lon="11.898095102866552"><ele>809.0</ele><time>2026-04-18T09:06:40Z</time></trkpt><trkpt lat="47.69978657776634" lon="11.89799215556159"><ele>809.0</ele><time>2026-04-18T09:06:41Z</time></trkpt><trkpt lat="47.699981254137235" lon="11.897870509108005"><ele>809.0</ele><time>2026-04-18T09:06:42Z</time></trkpt><trkpt lat="47.70014871574908" lon="11.897765868256162"><ele>809.0</ele><time>2026-04-18T09:06:43Z</time></trkpt><trkpt lat="47.70031188232652" lon="11.897669934963476"><ele>805.6666666666667</ele><time>2026-04-18T09:06:44Z</time></trkpt><trkpt lat="47.70046870096791" lon="11.897560676179936"><ele>802.3333333333333</ele><time>2026-04-18T09:06:45Z</time></trkpt><trkpt lat="47.70063318847519" lon="11.897451127423823"><ele>799.0</ele><time>2026-04-18T09:06:46Z</time></trkpt><trkpt lat="47.70080616896561" lon="11.897353059876991"><ele>799.0</ele><time>2026-04-18T09:06:47Z</time></trkpt><trkpt lat="47.700972649102034" lon="11.897265102697872"><ele>799.0</ele><time>2026-04-18T09:06:48Z</time></trkpt><trkpt lat="47.701130473917395" lon="11.89716902207878"><ele>799.0</ele><time>2026-04-18T09:06:49Z</time></trkpt><trkpt lat="47.70128173265323" lon="11.897072628957318"><ele>797.25</ele><time>2026-04-18T09:06:50Z</time></trkpt><trkpt lat="47.70142273839863" lon="11.8969663811121"><ele>795.5</ele><time>2026-04-18T09:06:51Z</time></trkpt><trkpt lat="47.7015500093135" lon="11.896879306017897"><ele>793.75</ele><time>2026-04-18T09:06:52Z</time></trkpt><trkpt lat="47.70165476063801" lon="11.896805388699647"><ele>792.0</ele><time>2026-04-18T09:06:53Z</time></trkpt><trkpt lat="47.70175949300017" lon="11.896733480415955"><ele>790.8</ele><time>2026-04-18T09:06:54Z</time></trkpt><trkpt lat="47.70186131822664" lon="11.896667670670743"><ele>789.6</ele><time>2026-04-18T09:06:55Z</time></trkpt><trkpt lat="47.701960798630715" lon="11.89659563900127"><ele>788.4</ele><time>2026-04-18T09:06:56Z</time></trkpt><trkpt lat="47.70206120893936" lon="11.896525576287083"><ele>787.1999999999999</ele><time>2026-04-18T09:06:57Z</time></trkpt><trkpt lat="47.70215976835332" lon="11.8964631655978"><ele>786.0</ele><time>2026-04-18T09:06:58Z</time></trkpt><trkpt lat="47.70226134145345" lon="11.896391390157241"><ele>784.4</ele><time>2026-04-18T09:06:59Z</time></trkpt><trkpt lat="47.702354789912356" lon="11.896328788971251"><ele>782.8</ele><time>2026-04-18T09:07:00Z</time></trkpt><trkpt lat="47.70245486583597" lon="11.896258392118334"><ele>781.1999999999999</ele><time>2026-04-18T09:07:01Z</time></trkpt><trkpt lat="47.702554401737764" lon="11.89619296729805"><ele>779.5999999999999</ele><time>2026-04-18T09:07:02Z</time></trkpt><trkpt lat="47.70264645490327" lon="11.89614109294399"><ele>778.0</ele><time>2026-04-18T09:07:03Z</time></trkpt><trkpt lat="47.702732774685295" lon="11.896091010171814"><ele>777.3333333333333</ele><time>2026-04-18T09:07:04Z</time></trkpt><trkpt lat="47.7028166792908" lon="11.896048837150778"><ele>776.6666666666666</ele><time>2026-04-18T09:07:05Z</time></trkpt><trkpt lat="47.70288951427288" lon="11.896014789504214"><ele>776.0</ele><time>2026-04-18T09:07:06Z</time></trkpt><trkpt lat="47.702992488066876" lon="11.895972031334736"><ele>775.3333333333333</ele><time>2026-04-18T09:07:08Z</time></trkpt><trkpt lat="47.7030651608894" lon="11.895937390883423"><ele>774.6666666666666</ele><time>2026-04-18T09:07:10Z</time></trkpt><trkpt lat="47.70313832856932" lon="11.895908566863717"><ele>774.0</ele><time>2026-04-18T09:07:21Z</time></trkpt><trkpt lat="47.703202943877265" lon="11.89589459592394"><ele>774.0</ele><time>2026-04-18T09:07:23Z</time></trkpt><trkpt lat="47.70327098681573" lon="11.895856292339571"><ele>774.0</ele><time>2026-04-18T09:07:25Z</time></trkpt><trkpt lat="47.703329943521545" lon="11.8957856369388"><ele>774.0</ele><time>2026-04-18T09:07:27Z</time></trkpt><trkpt lat="47.70329357017123" lon="11.895601715487064"><ele>774.0</ele><time>2026-04-18T09:07:28Z</time></trkpt><trkpt lat="47.703273011735064" lon="11.89539277094233"><ele>774.0</ele><time>2026-04-18T09:07:29Z</time></trkpt><trkpt lat="47.703210304665234" lon="11.89524751530567"><ele>774.5</ele><time>2026-04-18T09:07:30Z</time></trkpt><trkpt lat="47.70314921052699" lon="11.895086380682152"><ele>775.0</ele><time>2026-04-18T09:07:31Z</time></trkpt><trkpt lat="47.70310272976984" lon="11.894926848241282"><ele>775.5</ele><time>2026-04-18T09:07:32Z</time></trkpt><trkpt lat="47.70304450940685" lon="11.894711114871704"><ele>776.0</ele><time>2026-04-18T09:07:33Z</time></trkpt><trkpt lat="47.702986773555544" lon="11.894508212783736"><ele>776.0</ele><time>2026-04-18T09:07:34Z</time></trkpt><trkpt lat="47.70293356396025" lon="11.894324076503883"><ele>776.0</ele><time>2026-04-18T09:07:35Z</time></trkpt><trkpt lat="47.70288186433042" lon="11.894132187444589"><ele>776.0</ele><time>2026-04-18T09:07:36Z</time></trkpt><trkpt lat="47.70282805212098" lon="11.893936947704173"><ele>776.0</ele><time>2026-04-18T09:07:37Z</time></trkpt><trkpt lat="47.70276949223077" lon="11.89372922315627"><ele>776.6666666666667</ele><time>2026-04-18T09:07:38Z</time></trkpt><trkpt lat="47.702710585836826" lon="11.893519466279924"><ele>777.3333333333333</ele><time>2026-04-18T09:07:39Z</time></trkpt><trkpt lat="47.70265609196083" lon="11.893305214779774"><ele>778.0</ele><time>2026-04-18T09:07:40Z</time></trkpt><trkpt lat="47.70260127893514" lon="11.89307454753024"><ele>778.0</ele><time>2026-04-18T09:07:41Z</time></trkpt><trkpt lat="47.70254848150799" lon="11.892868834934118"><ele>778.0</ele><time>2026-04-18T09:07:42Z</time></trkpt><trkpt lat="47.702494370033996" lon="11.892669203549062"><ele>778.0</ele><time>2026-04-18T09:07:43Z</time></trkpt><trkpt lat="47.70243534535399" lon="11.89245760059649"><ele>778.0</ele><time>2026-04-18T09:07:44Z</time></trkpt><trkpt lat="47.70237202796863" lon="11.892240889971035"><ele>778.0</ele><time>2026-04-18T09:07:45Z</time></trkpt><trkpt lat="47.70231210680339" lon="11.892027661643512"><ele>778.0</ele><time>2026-04-18T09:07:46Z</time></trkpt><trkpt lat="47.70225803985244" lon="11.89182453119337"><ele>778.0</ele><time>2026-04-18T09:07:47Z</time></trkpt><trkpt lat="47.702203161830795" lon="11.89162420404801"><ele>778.0</ele><time>2026-04-18T09:07:48Z</time></trkpt><trkpt lat="47.7021451310337" lon="11.89141919567755"><ele>777.75</ele><time>2026-04-18T09:07:49Z</time></trkpt><trkpt lat="47.70208429608111" lon="11.891211710398881"><ele>777.5</ele><time>2026-04-18T09:07:50Z</time></trkpt><trkpt lat="47.70203102208644" lon="11.891018038843642"><ele>777.25</ele><time>2026-04-18T09:07:51Z</time></trkpt><trkpt lat="47.70197834891858" lon="11.890829928132272"><ele>777.0</ele><time>2026-04-18T09:07:52Z</time></trkpt><trkpt lat="47.70193056183577" lon="11.890651265169426"><ele>776.75</ele><time>2026-04-18T09:07:53Z</time></trkpt><trkpt lat="47.70188525968222" lon="11.890468386546575"><ele>776.5</ele><time>2026-04-18T09:07:54Z</time></trkpt><trkpt lat="47.70184500330255" lon="11.890284088847913"><ele>776.25</ele><time>2026-04-18T09:07:55Z</time></trkpt><trkpt lat="47.70180958543986" lon="11.890100892051068"><ele>776.0</ele><time>2026-04-18T09:07:56Z</time></trkpt><trkpt lat="47.701778971398845" lon="11.889916539769319"><ele>776.0</ele><time>2026-04-18T09:07:57Z</time></trkpt><trkpt lat="47.701752632665226" lon="11.889731878401403"><ele>776.0</ele><time>2026-04-18T09:07:58Z</time></trkpt><trkpt lat="47.70173127405807" lon="11.889548861577081"><ele>776.0</ele><time>2026-04-18T09:07:59Z</time></trkpt><trkpt lat="47.70171489413342" lon="11.88937851942782"><ele>776.0</ele><time>2026-04-18T09:08:00Z</time></trkpt><trkpt lat="47.70169953119576" lon="11.88919897556817"><ele>776.0</ele><time>2026-04-18T09:08:01Z</time></trkpt><trkpt lat="47.70169051572855" lon="11.889024304763378"><ele>776.0</ele><time>2026-04-18T09:08:02Z</time></trkpt><trkpt lat="47.701684206020985" lon="11.88885846376927"><ele>776.0</ele><time>2026-04-18T09:08:03Z</time></trkpt><trkpt lat="47.70168412475075" lon="11.888699311518938"><ele>776.0</ele><time>2026-04-18T09:08:04Z</time></trkpt><trkpt lat="47.70168686566975" lon="11.888536244478468"><ele>776.0</ele><time>2026-04-18T09:08:05Z</time></trkpt><trkpt lat="47.70169046994731" lon="11.88837168075518"><ele>776.5999999999999</ele><time>2026-04-18T09:08:06Z</time></trkpt><trkpt lat="47.70169647736655" lon="11.888204671708733"><ele>777.2</ele><time>2026-04-18T09:08:07Z</time></trkpt><trkpt lat="47.70170895203423" lon="11.888039209039903"><ele>777.8</ele><time>2026-04-18T09:08:08Z</time></trkpt><trkpt lat="47.70172577691117" lon="11.887872870946174"><ele>778.4000000000001</ele><time>2026-04-18T09:08:09Z</time></trkpt><trkpt lat="47.701744580940364" lon="11.887712235629214"><ele>779.0</ele><time>2026-04-18T09:08:10Z</time></trkpt><trkpt lat="47.701764770609905" lon="11.887554675182198"><ele>779.0</ele><time>2026-04-18T09:08:11Z</time></trkpt><trkpt lat="47.70178695961269" lon="11.887404348898565"><ele>779.0</ele><time>2026-04-18T09:08:12Z</time></trkpt><trkpt lat="47.70181091963935" lon="11.887266598220657"><ele>779.0</ele><time>2026-04-18T09:08:13Z</time></trkpt><trkpt lat="47.701835283344295" lon="11.88713384426508"><ele>779.0</ele><time>2026-04-18T09:08:14Z</time></trkpt><trkpt lat="47.70186063637687" lon="11.88699865729552"><ele>779.0</ele><time>2026-04-18T09:08:15Z</time></trkpt><trkpt lat="47.70191031402954" lon="11.886862598951442"><ele>779.5</ele><time>2026-04-18T09:08:16Z</time></trkpt><trkpt lat="47.70194835401753" lon="11.886718003418272"><ele>780.0</ele><time>2026-04-18T09:08:17Z</time></trkpt><trkpt lat="47.70198984401942" lon="11.886566354475866"><ele>780.5</ele><time>2026-04-18T09:08:18Z</time></trkpt><trkpt lat="47.702037910365085" lon="11.886394680754135"><ele>781.0</ele><time>2026-04-18T09:08:19Z</time></trkpt><trkpt lat="47.70207170173766" lon="11.886217636868265"><ele>781.0</ele><time>2026-04-18T09:08:20Z</time></trkpt><trkpt lat="47.70212146527399" lon="11.886056319419641"><ele>781.0</ele><time>2026-04-18T09:08:21Z</time></trkpt><trkpt lat="47.70216878541741" lon="11.88589680309217"><ele>781.0</ele><time>2026-04-18T09:08:22Z</time></trkpt><trkpt lat="47.70220760176427" lon="11.885741638832714"><ele>781.0</ele><time>2026-04-18T09:08:23Z</time></trkpt><trkpt lat="47.702251508077204" lon="11.8855864778792"><ele>781.8</ele><time>2026-04-18T09:08:24Z</time></trkpt><trkpt lat="47.702295470661234" lon="11.88543539531387"><ele>782.5999999999999</ele><time>2026-04-18T09:08:25Z</time></trkpt><trkpt lat="47.70233503974997" lon="11.885282083170356"><ele>783.4</ele><time>2026-04-18T09:08:26Z</time></trkpt><trkpt lat="47.702373038342046" lon="11.885130874242693"><ele>784.2</ele><time>2026-04-18T09:08:27Z</time></trkpt><trkpt lat="47.702405639438375" lon="11.884980848352031"><ele>785.0</ele><time>2026-04-18T09:08:28Z</time></trkpt><trkpt lat="47.70243482334325" lon="11.884835738785252"><ele>785.4</ele><time>2026-04-18T09:08:29Z</time></trkpt><trkpt lat="47.70246617154095" lon="11.884695795590291"><ele>785.8</ele><time>2026-04-18T09:08:30Z</time></trkpt><trkpt lat="47.702496445179406" lon="11.884549415285461"><ele>786.2</ele><time>2026-04-18T09:08:31Z</time></trkpt><trkpt lat="47.70252493488799" lon="11.884410681370541"><ele>786.6</ele><time>2026-04-18T09:08:32Z</time></trkpt><trkpt lat="47.70255471180209" lon="11.884282288385675"><ele>787.0</ele><time>2026-04-18T09:08:33Z</time></trkpt><trkpt lat="47.7025827056924" lon="11.88415805281758"><ele>787.4000000000001</ele><time>2026-04-18T09:08:34Z</time></trkpt><trkpt lat="47.702614545599715" lon="11.884025358444676"><ele>787.8000000000001</ele><time>2026-04-18T09:08:35Z</time></trkpt><trkpt lat="47.702646088862544" lon="11.883890424684186"><ele>788.2</ele><time>2026-04-18T09:08:36Z</time></trkpt><trkpt lat="47.702672199477746" lon="11.883747428314578"><ele>788.6</ele><time>2026-04-18T09:08:37Z</time></trkpt><trkpt lat="47.70269184939184" lon="11.883602293800667"><ele>789.0</ele><time>2026-04-18T09:08:38Z</time></trkpt><trkpt lat="47.70271257394467" lon="11.88345352812301"><ele>789.6</ele><time>2026-04-18T09:08:39Z</time></trkpt><trkpt lat="47.70273828819823" lon="11.883301398851177"><ele>790.2</ele><time>2026-04-18T09:08:40Z</time></trkpt><trkpt lat="47.702762835390764" lon="11.883146289171991"><ele>790.8000000000001</ele><time>2026-04-18T09:08:41Z</time></trkpt><trkpt lat="47.70279323206443" lon="11.882994794427113"><ele>791.4000000000001</ele><time>2026-04-18T09:08:42Z</time></trkpt><trkpt lat="47.70282473410198" lon="11.88285397548984"><ele>792.0</ele><time>2026-04-18T09:08:43Z</time></trkpt><trkpt lat="47.702853601951254" lon="11.882715194468025"><ele>792.4000000000001</ele><time>2026-04-18T09:08:44Z</time></trkpt><trkpt lat="47.7028834831638" lon="11.882574039352933"><ele>792.8000000000001</ele><time>2026-04-18T09:08:45Z</time></trkpt><trkpt lat="47.702913786124824" lon="11.882428349101435"><ele>793.2</ele><time>2026-04-18T09:08:46Z</time></trkpt><trkpt lat="47.70294263814333" lon="11.88228292837993"><ele>793.6</ele><time>2026-04-18T09:08:47Z</time></trkpt><trkpt lat="47.70297243888613" lon="11.882139868632322"><ele>794.0</ele><time>2026-04-18T09:08:48Z</time></trkpt><trkpt lat="47.70300155023607" lon="11.881997771485878"><ele>794.0</ele><time>2026-04-18T09:08:49Z</time></trkpt><trkpt lat="47.70303279708405" lon="11.881861395799975"><ele>794.0</ele><time>2026-04-18T09:08:50Z</time></trkpt><trkpt lat="47.703061665995406" lon="11.881726270366427"><ele>794.0</ele><time>2026-04-18T09:08:51Z</time></trkpt><trkpt lat="47.70309280367349" lon="11.881589262435737"><ele>794.0</ele><time>2026-04-18T09:08:52Z</time></trkpt><trkpt lat="47.70312112678301" lon="11.881451905210675"><ele>794.0</ele><time>2026-04-18T09:08:53Z</time></trkpt><trkpt lat="47.70314669797007" lon="11.881320648256121"><ele>794.6666666666667</ele><time>2026-04-18T09:08:54Z</time></trkpt><trkpt lat="47.703169374029414" lon="11.881196630905809"><ele>795.3333333333334</ele><time>2026-04-18T09:08:55Z</time></trkpt><trkpt lat="47.70319457607375" lon="11.881075460100586"><ele>796.0</ele><time>2026-04-18T09:08:56Z</time></trkpt><trkpt lat="47.70321785988904" lon="11.880951238565734"><ele>796.6666666666667</ele><time>2026-04-18T09:08:57Z</time></trkpt><trkpt lat="47.703239951439166" lon="11.88082501344907"><ele>797.3333333333334</ele><time>2026-04-18T09:08:58Z</time></trkpt><trkpt lat="47.703264927796646" lon="11.880694575031063"><ele>798.0</ele><time>2026-04-18T09:08:59Z</time></trkpt><trkpt lat="47.70328873077938" lon="11.880564387325702"><ele>798.8333333333334</ele><time>2026-04-18T09:09:00Z</time></trkpt><trkpt lat="47.703313749281584" lon="11.880432658220903"><ele>799.6666666666667</ele><time>2026-04-18T09:09:01Z</time></trkpt><trkpt lat="47.70333704784184" lon="11.880299458527931"><ele>800.5</ele><time>2026-04-18T09:09:02Z</time></trkpt><trkpt lat="47.70336382285066" lon="11.880167237132232"><ele>801.3333333333334</ele><time>2026-04-18T09:09:03Z</time></trkpt><trkpt lat="47.70338685296904" lon="11.880053896340891"><ele>802.1666666666667</ele><time>2026-04-18T09:09:04Z</time></trkpt><trkpt lat="47.70340252498798" lon="11.879942170982666"><ele>803.0</ele><time>2026-04-18T09:09:05Z</time></trkpt><trkpt lat="47.70342002200582" lon="11.879828677437605"><ele>803.2857142857142</ele><time>2026-04-18T09:09:06Z</time></trkpt><trkpt lat="47.703442402304724" lon="11.879717264150454"><ele>803.5714285714286</ele><time>2026-04-18T09:09:07Z</time></trkpt><trkpt lat="47.703466612589736" lon="11.879610563447601"><ele>803.8571428571429</ele><time>2026-04-18T09:09:08Z</time></trkpt><trkpt lat="47.70348752299451" lon="11.879514533765873"><ele>804.1428571428571</ele><time>2026-04-18T09:09:09Z</time></trkpt><trkpt lat="47.70351374932956" lon="11.879413350248582"><ele>804.4285714285714</ele><time>2026-04-18T09:09:10Z</time></trkpt><trkpt lat="47.70353857413647" lon="11.879313867614577"><ele>804.7142857142857</ele><time>2026-04-18T09:09:11Z</time></trkpt><trkpt lat="47.70355913390381" lon="11.879214219177024"><ele>805.0</ele><time>2026-04-18T09:09:12Z</time></trkpt><trkpt lat="47.70357994237463" lon="11.879114653994318"><ele>806.1666666666666</ele><time>2026-04-18T09:09:13Z</time></trkpt><trkpt lat="47.703603105083246" lon="11.879011256406601"><ele>807.3333333333333</ele><time>2026-04-18T09:09:14Z</time></trkpt><trkpt lat="47.70363078752335" lon="11.878901431258768"><ele>808.5</ele><time>2026-04-18T09:09:15Z</time></trkpt><trkpt lat="47.703663832175494" lon="11.878787678719316"><ele>809.6666666666667</ele><time>2026-04-18T09:09:16Z</time></trkpt><trkpt lat="47.703698387978484" lon="11.878674274608208"><ele>810.8333333333334</ele><time>2026-04-18T09:09:17Z</time></trkpt><trkpt lat="47.703738717429225" lon="11.878563903808358"><ele>812.0</ele><time>2026-04-18T09:09:18Z</time></trkpt><trkpt lat="47.703782885340814" lon="11.878460015919174"><ele>811.8333333333334</ele><time>2026-04-18T09:09:19Z</time></trkpt><trkpt lat="47.70383015766958" lon="11.878357529163058"><ele>811.6666666666667</ele><time>2026-04-18T09:09:20Z</time></trkpt><trkpt lat="47.70388208761234" lon="11.878259392846324"><ele>811.5</ele><time>2026-04-18T09:09:21Z</time></trkpt><trkpt lat="47.70393752174233" lon="11.878159948462098"><ele>811.3333333333333</ele><time>2026-04-18T09:09:22Z</time></trkpt><trkpt lat="47.70400136203205" lon="11.878051145842413"><ele>811.1666666666666</ele><time>2026-04-18T09:09:23Z</time></trkpt><trkpt lat="47.70406208474996" lon="11.877944827662994"><ele>811.0</ele><time>2026-04-18T09:09:24Z</time></trkpt><trkpt lat="47.70412500701101" lon="11.877843117299594"><ele>810.9999999999999</ele><time>2026-04-18T09:09:25Z</time></trkpt><trkpt lat="47.7041831220905" lon="11.87775104576063"><ele>811.0</ele><time>2026-04-18T09:09:26Z</time></trkpt><trkpt lat="47.704237666538106" lon="11.87766596885739"><ele>811.0</ele><time>2026-04-18T09:09:27Z</time></trkpt><trkpt lat="47.70428354958498" lon="11.877583906465876"><ele>811.0</ele><time>2026-04-18T09:09:28Z</time></trkpt><trkpt lat="47.704314540188236" lon="11.877495746038685"><ele>810.9999999999999</ele><time>2026-04-18T09:09:29Z</time></trkpt><trkpt lat="47.70438995260874" lon="11.877477831341274"><ele>811.0</ele><time>2026-04-18T09:09:30Z</time></trkpt><trkpt lat="47.70445777203592" lon="11.877373921989717"><ele>811.0</ele><time>2026-04-18T09:09:32Z</time></trkpt><trkpt lat="47.70451256830776" lon="11.877289966106144"><ele>811.0</ele><time>2026-04-18T09:09:34Z</time></trkpt><trkpt lat="47.70456120902882" lon="11.87721898972452"><ele>811.0</ele><time>2026-04-18T09:09:35Z</time></trkpt><trkpt lat="47.704633362749" lon="11.877116473861093"><ele>811.0</ele><time>2026-04-18T09:09:36Z</time></trkpt><trkpt lat="47.70470837654592" lon="11.876985591540262"><ele>811.0</ele><time>2026-04-18T09:09:37Z</time></trkpt><trkpt lat="47.70482451728025" lon="11.876857954859974"><ele>810.3333333333333</ele><time>2026-04-18T09:09:38Z</time></trkpt><trkpt lat="47.704944526379954" lon="11.876699595968256"><ele>809.6666666666667</ele><time>2026-04-18T09:09:39Z</time></trkpt><trkpt lat="47.70507228058276" lon="11.876532984563514"><ele>809.0</ele><time>2026-04-18T09:09:40Z</time></trkpt><trkpt lat="47.705196450608554" lon="11.876372594444435"><ele>809.25</ele><time>2026-04-18T09:09:41Z</time></trkpt><trkpt lat="47.70531406714495" lon="11.876221669626739"><ele>809.5</ele><time>2026-04-18T09:09:42Z</time></trkpt><trkpt lat="47.70542050510124" lon="11.876085211902266"><ele>809.75</ele><time>2026-04-18T09:09:43Z</time></trkpt><trkpt lat="47.705516731008316" lon="11.875938905918542"><ele>810.0</ele><time>2026-04-18T09:09:44Z</time></trkpt><trkpt lat="47.70562643839238" lon="11.87580825494857"><ele>809.25</ele><time>2026-04-18T09:09:45Z</time></trkpt><trkpt lat="47.70574060735478" lon="11.875677752026752"><ele>808.5</ele><time>2026-04-18T09:09:46Z</time></trkpt><trkpt lat="47.70585194205133" lon="11.875559065898754"><ele>807.75</ele><time>2026-04-18T09:09:47Z</time></trkpt><trkpt lat="47.70596970904875" lon="11.87544624837941"><ele>807.0</ele><time>2026-04-18T09:09:48Z</time></trkpt><trkpt lat="47.70609183816864" lon="11.87533236586401"><ele>806.0</ele><time>2026-04-18T09:09:49Z</time></trkpt><trkpt lat="47.706207440740954" lon="11.875207144026238"><ele>805.0</ele><time>2026-04-18T09:09:50Z</time></trkpt><trkpt lat="47.706319073598095" lon="11.875061890233287"><ele>804.0</ele><time>2026-04-18T09:09:51Z</time></trkpt><trkpt lat="47.706415462367794" lon="11.874915616064877"><ele>803.0</ele><time>2026-04-18T09:09:52Z</time></trkpt><trkpt lat="47.70650975252366" lon="11.87475856408235"><ele>803.0</ele><time>2026-04-18T09:09:53Z</time></trkpt><trkpt lat="47.70660693219039" lon="11.874606091414073"><ele>803.0</ele><time>2026-04-18T09:09:54Z</time></trkpt><trkpt lat="47.70671928538001" lon="11.874481252297633"><ele>803.0</ele><time>2026-04-18T09:09:55Z</time></trkpt><trkpt lat="47.706829558983834" lon="11.874363815891478"><ele>803.0</ele><time>2026-04-18T09:09:56Z</time></trkpt><trkpt lat="47.70694374234576" lon="11.874279286795716"><ele>802.75</ele><time>2026-04-18T09:09:57Z</time></trkpt><trkpt lat="47.70704863827905" lon="11.874186987213196"><ele>802.5</ele><time>2026-04-18T09:09:58Z</time></trkpt><trkpt lat="47.70714272296284" lon="11.874089195446611"><ele>802.25</ele><time>2026-04-18T09:09:59Z</time></trkpt><trkpt lat="47.707238765567276" lon="11.874016260530475"><ele>802.0</ele><time>2026-04-18T09:10:00Z</time></trkpt><trkpt lat="47.707337021155375" lon="11.873949848861777"><ele>802.0</ele><time>2026-04-18T09:10:01Z</time></trkpt><trkpt lat="47.7074445195054" lon="11.87392484971485"><ele>802.0</ele><time>2026-04-18T09:10:02Z</time></trkpt><trkpt lat="47.70755866183667" lon="11.873891213722851"><ele>802.0</ele><time>2026-04-18T09:10:03Z</time></trkpt><trkpt lat="47.70767567789565" lon="11.87387826689494"><ele>802.0</ele><time>2026-04-18T09:10:04Z</time></trkpt><trkpt lat="47.70780057615068" lon="11.873879949062529"><ele>801.3333333333333</ele><time>2026-04-18T09:10:05Z</time></trkpt><trkpt lat="47.70795537837601" lon="11.873879256553263"><ele>800.6666666666667</ele><time>2026-04-18T09:10:06Z</time></trkpt><trkpt lat="47.70813172423824" lon="11.873877694069247"><ele>800.0</ele><time>2026-04-18T09:10:07Z</time></trkpt><trkpt lat="47.7082754940587" lon="11.873875355459498"><ele>800.0</ele><time>2026-04-18T09:10:08Z</time></trkpt><trkpt lat="47.708417156183636" lon="11.873847176125729"><ele>800.0</ele><time>2026-04-18T09:10:09Z</time></trkpt><trkpt lat="47.70856189800285" lon="11.873754075666097"><ele>800.0</ele><time>2026-04-18T09:10:10Z</time></trkpt><trkpt lat="47.7086971086992" lon="11.873598067818328"><ele>798.0</ele><time>2026-04-18T09:10:11Z</time></trkpt><trkpt lat="47.70882457097814" lon="11.873403576313597"><ele>796.0</ele><time>2026-04-18T09:10:12Z</time></trkpt><trkpt lat="47.708964137976665" lon="11.873206970770534"><ele>794.0</ele><time>2026-04-18T09:10:13Z</time></trkpt><trkpt lat="47.70911901597772" lon="11.87302961079954"><ele>794.0</ele><time>2026-04-18T09:10:14Z</time></trkpt><trkpt lat="47.70926073089362" lon="11.872847656692855"><ele>794.0</ele><time>2026-04-18T09:10:15Z</time></trkpt><trkpt lat="47.70940968673842" lon="11.87267630187768"><ele>794.0</ele><time>2026-04-18T09:10:16Z</time></trkpt><trkpt lat="47.709571044402395" lon="11.872537577811013"><ele>793.6666666666667</ele><time>2026-04-18T09:10:17Z</time></trkpt><trkpt lat="47.70973593738194" lon="11.872394480852146"><ele>793.3333333333333</ele><time>2026-04-18T09:10:18Z</time></trkpt><trkpt lat="47.70989924889954" lon="11.872254634967241"><ele>793.0</ele><time>2026-04-18T09:10:19Z</time></trkpt><trkpt lat="47.710056770381755" lon="11.872084597394801"><ele>793.0</ele><time>2026-04-18T09:10:20Z</time></trkpt><trkpt lat="47.710199473286686" lon="11.871892896000658"><ele>793.0</ele><time>2026-04-18T09:10:21Z</time></trkpt><trkpt lat="47.71032879729469" lon="11.871709563145796"><ele>793.0</ele><time>2026-04-18T09:10:22Z</time></trkpt><trkpt lat="47.710450450929166" lon="11.871534553838899"><ele>792.6666666666666</ele><time>2026-04-18T09:10:23Z</time></trkpt><trkpt lat="47.710566060486705" lon="11.87136881385944"><ele>792.3333333333333</ele><time>2026-04-18T09:10:24Z</time></trkpt><trkpt lat="47.7106733306165" lon="11.871213445986175"><ele>792.0</ele><time>2026-04-18T09:10:25Z</time></trkpt><trkpt lat="47.71077471038828" lon="11.871058330820185"><ele>791.25</ele><time>2026-04-18T09:10:26Z</time></trkpt><trkpt lat="47.71088144843185" lon="11.870891313630695"><ele>790.5</ele><time>2026-04-18T09:10:27Z</time></trkpt><trkpt lat="47.710986372355656" lon="11.870728718906424"><ele>789.75</ele><time>2026-04-18T09:10:28Z</time></trkpt><trkpt lat="47.71108776236852" lon="11.8705799259693"><ele>789.0</ele><time>2026-04-18T09:10:29Z</time></trkpt><trkpt lat="47.71118411749975" lon="11.870437482556282"><ele>789.0</ele><time>2026-04-18T09:10:30Z</time></trkpt><trkpt lat="47.71128675098786" lon="11.870291917969952"><ele>789.0</ele><time>2026-04-18T09:10:31Z</time></trkpt><trkpt lat="47.71138237578319" lon="11.870164811962006"><ele>789.0</ele><time>2026-04-18T09:10:32Z</time></trkpt><trkpt lat="47.711477598349845" lon="11.870049236170441"><ele>789.0</ele><time>2026-04-18T09:10:33Z</time></trkpt><trkpt lat="47.71157579007388" lon="11.86993906100241"><ele>787.75</ele><time>2026-04-18T09:10:34Z</time></trkpt><trkpt lat="47.71167910193359" lon="11.869838187962742"><ele>786.5</ele><time>2026-04-18T09:10:35Z</time></trkpt><trkpt lat="47.711786176389666" lon="11.869757807667177"><ele>785.25</ele><time>2026-04-18T09:10:36Z</time></trkpt><trkpt lat="47.71188989928841" lon="11.869698263004015"><ele>784.0</ele><time>2026-04-18T09:10:37Z</time></trkpt><trkpt lat="47.7119937262673" lon="11.869651394021352"><ele>783.25</ele><time>2026-04-18T09:10:38Z</time></trkpt><trkpt lat="47.712097404111596" lon="11.86961865425844"><ele>782.5</ele><time>2026-04-18T09:10:39Z</time></trkpt><trkpt lat="47.7122064931027" lon="11.869601816402476"><ele>781.75</ele><time>2026-04-18T09:10:40Z</time></trkpt><trkpt lat="47.71232134444618" lon="11.869622737332968"><ele>781.0</ele><time>2026-04-18T09:10:41Z</time></trkpt><trkpt lat="47.712444973462716" lon="11.869647710294444"><ele>781.0</ele><time>2026-04-18T09:10:42Z</time></trkpt><trkpt lat="47.712568725339786" lon="11.869687519065641"><ele>781.0</ele><time>2026-04-18T09:10:43Z</time></trkpt><trkpt lat="47.71268275216785" lon="11.869741029657773"><ele>781.0</ele><time>2026-04-18T09:10:44Z</time></trkpt><trkpt lat="47.71279574661439" lon="11.869807396193236"><ele>781.0</ele><time>2026-04-18T09:10:45Z</time></trkpt><trkpt lat="47.712906757846106" lon="11.869883511396829"><ele>780.5</ele><time>2026-04-18T09:10:46Z</time></trkpt><trkpt lat="47.71301171488318" lon="11.869965277607145"><ele>780.0</ele><time>2026-04-18T09:10:47Z</time></trkpt><trkpt lat="47.71310934160306" lon="11.870050825807194"><ele>779.5</ele><time>2026-04-18T09:10:48Z</time></trkpt><trkpt lat="47.71321321413929" lon="11.87014601830562"><ele>779.0</ele><time>2026-04-18T09:10:49Z</time></trkpt><trkpt lat="47.71331657060079" lon="11.870240738717477"><ele>779.75</ele><time>2026-04-18T09:10:50Z</time></trkpt><trkpt lat="47.713421402634324" lon="11.870340005263872"><ele>780.5</ele><time>2026-04-18T09:10:51Z</time></trkpt><trkpt lat="47.71352652366745" lon="11.870438539479453"><ele>781.25</ele><time>2026-04-18T09:10:52Z</time></trkpt><trkpt lat="47.713636947117514" lon="11.87054111359733"><ele>782.0</ele><time>2026-04-18T09:10:53Z</time></trkpt><trkpt lat="47.71374822407468" lon="11.870640372592119"><ele>782.0</ele><time>2026-04-18T09:10:54Z</time></trkpt><trkpt lat="47.71386133532322" lon="11.870729546695987"><ele>782.0</ele><time>2026-04-18T09:10:55Z</time></trkpt><trkpt lat="47.713980503808024" lon="11.870799501790668"><ele>782.0</ele><time>2026-04-18T09:10:56Z</time></trkpt><trkpt lat="47.71409759686212" lon="11.870852767424322"><ele>782.0</ele><time>2026-04-18T09:10:57Z</time></trkpt><trkpt lat="47.714226515034" lon="11.87087498905619"><ele>782.0</ele><time>2026-04-18T09:10:58Z</time></trkpt><trkpt lat="47.71435071939577" lon="11.870876250773197"><ele>782.0</ele><time>2026-04-18T09:10:59Z</time></trkpt><trkpt lat="47.71446819518988" lon="11.870818798327125"><ele>782.0</ele><time>2026-04-18T09:11:00Z</time></trkpt><trkpt lat="47.71458372953171" lon="11.870780155178021"><ele>782.0</ele><time>2026-04-18T09:11:01Z</time></trkpt><trkpt lat="47.71469197132299" lon="11.87069895961169"><ele>784.0</ele><time>2026-04-18T09:11:02Z</time></trkpt><trkpt lat="47.71479206106368" lon="11.870588559193367"><ele>786.0</ele><time>2026-04-18T09:11:03Z</time></trkpt><trkpt lat="47.71488799045786" lon="11.870460765581038"><ele>788.0</ele><time>2026-04-18T09:11:04Z</time></trkpt><trkpt lat="47.71498046707572" lon="11.8703236165857"><ele>790.0</ele><time>2026-04-18T09:11:05Z</time></trkpt><trkpt lat="47.715064104122746" lon="11.870187300260287"><ele>791.25</ele><time>2026-04-18T09:11:06Z</time></trkpt><trkpt lat="47.71514475878951" lon="11.870050036620052"><ele>792.5</ele><time>2026-04-18T09:11:07Z</time></trkpt><trkpt lat="47.71523209284309" lon="11.869911035041556"><ele>793.75</ele><time>2026-04-18T09:11:08Z</time></trkpt><trkpt lat="47.715327108684605" lon="11.86978103428395"><ele>795.0</ele><time>2026-04-18T09:11:09Z</time></trkpt><trkpt lat="47.715437895131004" lon="11.869677603634722"><ele>795.0</ele><time>2026-04-18T09:11:10Z</time></trkpt><trkpt lat="47.71555101660095" lon="11.86959160576318"><ele>795.0</ele><time>2026-04-18T09:11:11Z</time></trkpt><trkpt lat="47.715663870939" lon="11.869521950067615"><ele>795.0</ele><time>2026-04-18T09:11:12Z</time></trkpt><trkpt lat="47.71578155453145" lon="11.869463651590866"><ele>795.0</ele><time>2026-04-18T09:11:13Z</time></trkpt><trkpt lat="47.71590291161515" lon="11.869416310238126"><ele>795.0</ele><time>2026-04-18T09:11:14Z</time></trkpt><trkpt lat="47.716023756388054" lon="11.869385117637837"><ele>795.0</ele><time>2026-04-18T09:11:15Z</time></trkpt><trkpt lat="47.71614409607836" lon="11.869364362699475"><ele>795.0</ele><time>2026-04-18T09:11:16Z</time></trkpt><trkpt lat="47.71626753203056" lon="11.869354317675327"><ele>795.0</ele><time>2026-04-18T09:11:17Z</time></trkpt><trkpt lat="47.716394755422264" lon="11.869348602900825"><ele>795.25</ele><time>2026-04-18T09:11:18Z</time></trkpt><trkpt lat="47.71652231444859" lon="11.869360446451326"><ele>795.5</ele><time>2026-04-18T09:11:19Z</time></trkpt><trkpt lat="47.71664688036895" lon="11.8694026179884"><ele>795.75</ele><time>2026-04-18T09:11:20Z</time></trkpt><trkpt lat="47.71676655654636" lon="11.86943189202368"><ele>796.0</ele><time>2026-04-18T09:11:21Z</time></trkpt><trkpt lat="47.71688699920874" lon="11.869440092030286"><ele>792.75</ele><time>2026-04-18T09:11:22Z</time></trkpt><trkpt lat="47.71700512204343" lon="11.869479787937577"><ele>789.5</ele><time>2026-04-18T09:11:23Z</time></trkpt><trkpt lat="47.71711720185845" lon="11.869520061583755"><ele>786.25</ele><time>2026-04-18T09:11:24Z</time></trkpt><trkpt lat="47.71724023406666" lon="11.869564857364566"><ele>783.0</ele><time>2026-04-18T09:11:25Z</time></trkpt><trkpt lat="47.71735500254426" lon="11.869605779819207"><ele>783.0</ele><time>2026-04-18T09:11:26Z</time></trkpt><trkpt lat="47.71746761185907" lon="11.869647519011504"><ele>783.0</ele><time>2026-04-18T09:11:27Z</time></trkpt><trkpt lat="47.717583536115015" lon="11.869690205243614"><ele>783.0</ele><time>2026-04-18T09:11:28Z</time></trkpt><trkpt lat="47.71769984883431" lon="11.869735792591765"><ele>783.0</ele><time>2026-04-18T09:11:29Z</time></trkpt><trkpt lat="47.717819876196316" lon="11.869784034608655"><ele>783.0</ele><time>2026-04-18T09:11:30Z</time></trkpt><trkpt lat="47.71794451838515" lon="11.869830328993626"><ele>783.0</ele><time>2026-04-18T09:11:31Z</time></trkpt><trkpt lat="47.718072849031984" lon="11.869874976803855"><ele>783.0</ele><time>2026-04-18T09:11:32Z</time></trkpt><trkpt lat="47.71819964155238" lon="11.869905311231049"><ele>783.0</ele><time>2026-04-18T09:11:33Z</time></trkpt><trkpt lat="47.71832326662991" lon="11.869930505435496"><ele>783.0</ele><time>2026-04-18T09:11:34Z</time></trkpt><trkpt lat="47.71844864531056" lon="11.869951666719727"><ele>783.0</ele><time>2026-04-18T09:11:35Z</time></trkpt><trkpt lat="47.718577795989034" lon="11.869968176571296"><ele>783.0</ele><time>2026-04-18T09:11:36Z</time></trkpt><trkpt lat="47.7187078632404" lon="11.869980973058892"><ele>783.0</ele><time>2026-04-18T09:11:37Z</time></trkpt><trkpt lat="47.71884209658523" lon="11.869977060232518"><ele>783.25</ele><time>2026-04-18T09:11:38Z</time></trkpt><trkpt lat="47.71898216278807" lon="11.869956753859217"><ele>783.5</ele><time>2026-04-18T09:11:39Z</time></trkpt><trkpt lat="47.719122835934705" lon="11.869927242221502"><ele>783.75</ele><time>2026-04-18T09:11:40Z</time></trkpt><trkpt lat="47.719259652955635" lon="11.869885676601815"><ele>784.0</ele><time>2026-04-18T09:11:41Z</time></trkpt><trkpt lat="47.71939248649633" lon="11.869822128380523"><ele>784.25</ele><time>2026-04-18T09:11:42Z</time></trkpt><trkpt lat="47.71952300890389" lon="11.869736719258071"><ele>784.5</ele><time>2026-04-18T09:11:43Z</time></trkpt><trkpt lat="47.71964435672983" lon="11.869639591473641"><ele>784.75</ele><time>2026-04-18T09:11:44Z</time></trkpt><trkpt lat="47.71976354658931" lon="11.869532671218964"><ele>785.0</ele><time>2026-04-18T09:11:45Z</time></trkpt><trkpt lat="47.719881627692835" lon="11.869426694837069"><ele>785.0</ele><time>2026-04-18T09:11:46Z</time></trkpt><trkpt lat="47.72000171330545" lon="11.869326501037799"><ele>785.0</ele><time>2026-04-18T09:11:47Z</time></trkpt><trkpt lat="47.720126956483455" lon="11.869238186987848"><ele>785.0</ele><time>2026-04-18T09:11:48Z</time></trkpt><trkpt lat="47.720251862595575" lon="11.869168812887157"><ele>785.0</ele><time>2026-04-18T09:11:49Z</time></trkpt><trkpt lat="47.72037400799399" lon="11.869121792426077"><ele>784.75</ele><time>2026-04-18T09:11:50Z</time></trkpt><trkpt lat="47.720502387467256" lon="11.869082687147385"><ele>784.5</ele><time>2026-04-18T09:11:51Z</time></trkpt><trkpt lat="47.72062920312876" lon="11.869060033822626"><ele>784.25</ele><time>2026-04-18T09:11:52Z</time></trkpt><trkpt lat="47.7207558123729" lon="11.86906976495783"><ele>784.0</ele><time>2026-04-18T09:11:53Z</time></trkpt><trkpt lat="47.720881000436094" lon="11.86910199048576"><ele>784.0</ele><time>2026-04-18T09:11:54Z</time></trkpt><trkpt lat="47.72100946433736" lon="11.869127846962737"><ele>784.0</ele><time>2026-04-18T09:11:55Z</time></trkpt><trkpt lat="47.721138294784836" lon="11.869132606326023"><ele>784.0</ele><time>2026-04-18T09:11:56Z</time></trkpt><trkpt lat="47.7212628240458" lon="11.869119808343854"><ele>784.0</ele><time>2026-04-18T09:11:57Z</time></trkpt><trkpt lat="47.721386060662624" lon="11.869095961231224"><ele>784.25</ele><time>2026-04-18T09:11:58Z</time></trkpt><trkpt lat="47.721505790302515" lon="11.869071797958586"><ele>784.5</ele><time>2026-04-18T09:11:59Z</time></trkpt><trkpt lat="47.721628345023284" lon="11.869052326454044"><ele>784.75</ele><time>2026-04-18T09:12:00Z</time></trkpt><trkpt lat="47.72175479491081" lon="11.869038206925335"><ele>785.0</ele><time>2026-04-18T09:12:01Z</time></trkpt><trkpt lat="47.721881043992624" lon="11.869031450282959"><ele>786.0</ele><time>2026-04-18T09:12:02Z</time></trkpt><trkpt lat="47.722001696568846" lon="11.869051040052348"><ele>787.0</ele><time>2026-04-18T09:12:03Z</time></trkpt><trkpt lat="47.722120730102475" lon="11.869101156754395"><ele>788.0</ele><time>2026-04-18T09:12:04Z</time></trkpt><trkpt lat="47.72223320312364" lon="11.869184927938733"><ele>789.0</ele><time>2026-04-18T09:12:05Z</time></trkpt><trkpt lat="47.72233554487628" lon="11.869278848267834"><ele>789.0</ele><time>2026-04-18T09:12:06Z</time></trkpt><trkpt lat="47.72243171446581" lon="11.869357864565771"><ele>789.0</ele><time>2026-04-18T09:12:07Z</time></trkpt><trkpt lat="47.72253487391303" lon="11.869436960254816"><ele>789.0</ele><time>2026-04-18T09:12:08Z</time></trkpt><trkpt lat="47.72264883408982" lon="11.869510675239532"><ele>789.0</ele><time>2026-04-18T09:12:09Z</time></trkpt><trkpt lat="47.72276702015844" lon="11.86959012145959"><ele>787.25</ele><time>2026-04-18T09:12:10Z</time></trkpt><trkpt lat="47.722875656080454" lon="11.869666893354543"><ele>785.5</ele><time>2026-04-18T09:12:11Z</time></trkpt><trkpt lat="47.72299350922596" lon="11.869702384307391"><ele>783.75</ele><time>2026-04-18T09:12:12Z</time></trkpt><trkpt lat="47.72310991799167" lon="11.869735318718108"><ele>782.0</ele><time>2026-04-18T09:12:13Z</time></trkpt><trkpt lat="47.72322690171285" lon="11.869749951324218"><ele>782.0</ele><time>2026-04-18T09:12:14Z</time></trkpt><trkpt lat="47.72334622618739" lon="11.869742198693757"><ele>782.0</ele><time>2026-04-18T09:12:15Z</time></trkpt><trkpt lat="47.72347213973276" lon="11.869706292550482"><ele>782.0</ele><time>2026-04-18T09:12:16Z</time></trkpt><trkpt lat="47.72358843614431" lon="11.869662920549782"><ele>782.0</ele><time>2026-04-18T09:12:17Z</time></trkpt><trkpt lat="47.72370332028629" lon="11.869612092924756"><ele>782.0</ele><time>2026-04-18T09:12:18Z</time></trkpt><trkpt lat="47.72382324358821" lon="11.869567720482408"><ele>782.0</ele><time>2026-04-18T09:12:19Z</time></trkpt><trkpt lat="47.72394675671584" lon="11.869521566942538"><ele>782.0</ele><time>2026-04-18T09:12:20Z</time></trkpt><trkpt lat="47.724055576265215" lon="11.869486098253283"><ele>782.0</ele><time>2026-04-18T09:12:21Z</time></trkpt><trkpt lat="47.72416428524104" lon="11.869454183881976"><ele>782.0</ele><time>2026-04-18T09:12:22Z</time></trkpt><trkpt lat="47.724273316014155" lon="11.869434619875632"><ele>782.0</ele><time>2026-04-18T09:12:23Z</time></trkpt><trkpt lat="47.72438195806644" lon="11.869438328930126"><ele>782.0</ele><time>2026-04-18T09:12:24Z</time></trkpt><trkpt lat="47.724485429435255" lon="11.86945256825416"><ele>782.0</ele><time>2026-04-18T09:12:25Z</time></trkpt><trkpt lat="47.72457983205325" lon="11.869473283966583"><ele>782.0</ele><time>2026-04-18T09:12:26Z</time></trkpt><trkpt lat="47.724680673805025" lon="11.869509001134366"><ele>781.6</ele><time>2026-04-18T09:12:27Z</time></trkpt><trkpt lat="47.72477896656921" lon="11.869554121104358"><ele>781.2</ele><time>2026-04-18T09:12:28Z</time></trkpt><trkpt lat="47.724877349541664" lon="11.869584549352583"><ele>780.8</ele><time>2026-04-18T09:12:29Z</time></trkpt><trkpt lat="47.724967326064764" lon="11.869610284691928"><ele>780.4</ele><time>2026-04-18T09:12:30Z</time></trkpt><trkpt lat="47.72504541218863" lon="11.869638727360243"><ele>780.0</ele><time>2026-04-18T09:12:31Z</time></trkpt><trkpt lat="47.725122244747936" lon="11.86964850348544"><ele>780.0</ele><time>2026-04-18T09:12:32Z</time></trkpt><trkpt lat="47.72519564006111" lon="11.869659184772688"><ele>780.0</ele><time>2026-04-18T09:12:33Z</time></trkpt><trkpt lat="47.72526546914961" lon="11.869668047490633"><ele>780.0</ele><time>2026-04-18T09:12:34Z</time></trkpt><trkpt lat="47.7253331379778" lon="11.869674306569264"><ele>780.0</ele><time>2026-04-18T09:12:35Z</time></trkpt><trkpt lat="47.72540286949468" lon="11.869674375024399"><ele>780.0</ele><time>2026-04-18T09:12:36Z</time></trkpt><trkpt lat="47.72547304680576" lon="11.869667806619367"><ele>780.0</ele><time>2026-04-18T09:12:37Z</time></trkpt><trkpt lat="47.7255363635998" lon="11.869654909294594"><ele>780.0</ele><time>2026-04-18T09:12:38Z</time></trkpt><trkpt lat="47.72560031309664" lon="11.869635335357705"><ele>780.6666666666666</ele><time>2026-04-18T09:12:39Z</time></trkpt><trkpt lat="47.72566596008866" lon="11.869613684278537"><ele>781.3333333333333</ele><time>2026-04-18T09:12:40Z</time></trkpt><trkpt lat="47.72572844554762" lon="11.86959224005699"><ele>782.0</ele><time>2026-04-18T09:12:41Z</time></trkpt><trkpt lat="47.72579112254404" lon="11.869573031947299"><ele>782.6666666666666</ele><time>2026-04-18T09:12:42Z</time></trkpt><trkpt lat="47.72591093252055" lon="11.86954481107209"><ele>783.3333333333333</ele><time>2026-04-18T09:12:44Z</time></trkpt><trkpt lat="47.7260273863672" lon="11.86950469856338"><ele>784.0</ele><time>2026-04-18T09:12:46Z</time></trkpt><trkpt lat="47.726145355226265" lon="11.86946162881682"><ele>784.1428571428571</ele><time>2026-04-18T09:12:48Z</time></trkpt><trkpt lat="47.72621026731203" lon="11.86944035095298"><ele>784.2857142857142</ele><time>2026-04-18T09:12:49Z</time></trkpt><trkpt lat="47.726278888407045" lon="11.869412717875298"><ele>784.4285714285714</ele><time>2026-04-18T09:12:50Z</time></trkpt><trkpt lat="47.7263549273525" lon="11.869387215432429"><ele>784.5714285714286</ele><time>2026-04-18T09:12:51Z</time></trkpt><trkpt lat="47.726428344964724" lon="11.869359811100791"><ele>784.7142857142857</ele><time>2026-04-18T09:12:52Z</time></trkpt><trkpt lat="47.726499088328474" lon="11.869331634925189"><ele>784.8571428571429</ele><time>2026-04-18T09:12:53Z</time></trkpt><trkpt lat="47.7265692614278" lon="11.869302216930713"><ele>785.0</ele><time>2026-04-18T09:12:54Z</time></trkpt><trkpt lat="47.72664041804172" lon="11.869266553495441"><ele>785.0000000000001</ele><time>2026-04-18T09:12:55Z</time></trkpt><trkpt lat="47.72671213633538" lon="11.869231229281716"><ele>785.0</ele><time>2026-04-18T09:12:56Z</time></trkpt><trkpt lat="47.72678440970739" lon="11.869194188915209"><ele>785.0</ele><time>2026-04-18T09:12:57Z</time></trkpt><trkpt lat="47.72685931141752" lon="11.869156250645533"><ele>785.0</ele><time>2026-04-18T09:12:58Z</time></trkpt><trkpt lat="47.726932697269035" lon="11.869114395223518"><ele>785.0000000000001</ele><time>2026-04-18T09:12:59Z</time></trkpt><trkpt lat="47.727001584869946" lon="11.869071423862595"><ele>785.0</ele><time>2026-04-18T09:13:00Z</time></trkpt><trkpt lat="47.72706349249137" lon="11.869031051152012"><ele>784.8571428571429</ele><time>2026-04-18T09:13:01Z</time></trkpt><trkpt lat="47.727128500079104" lon="11.868994373877385"><ele>784.7142857142857</ele><time>2026-04-18T09:13:02Z</time></trkpt><trkpt lat="47.7271944981788" lon="11.868958158839936"><ele>784.5714285714286</ele><time>2026-04-18T09:13:03Z</time></trkpt><trkpt lat="47.72726099971634" lon="11.868924467140621"><ele>784.4285714285714</ele><time>2026-04-18T09:13:04Z</time></trkpt><trkpt lat="47.727321113339585" lon="11.868893633711226"><ele>784.2857142857142</ele><time>2026-04-18T09:13:05Z</time></trkpt><trkpt lat="47.72738372973984" lon="11.868865427298598"><ele>784.1428571428571</ele><time>2026-04-18T09:13:06Z</time></trkpt><trkpt lat="47.72744747257347" lon="11.868830176310853"><ele>784.0</ele><time>2026-04-18T09:13:07Z</time></trkpt><trkpt lat="47.727508792485075" lon="11.868799965882257"><ele>783.9999999999999</ele><time>2026-04-18T09:13:08Z</time></trkpt><trkpt lat="47.72762701352116" lon="11.868757664169177"><ele>784.0</ele><time>2026-04-18T09:13:10Z</time></trkpt><trkpt lat="47.72769230549494" lon="11.868742323998898"><ele>784.0</ele><time>2026-04-18T09:13:11Z</time></trkpt><trkpt lat="47.72776142349854" lon="11.86873020803165"><ele>784.0</ele><time>2026-04-18T09:13:12Z</time></trkpt><trkpt lat="47.72783090599142" lon="11.868712801158605"><ele>783.9999999999999</ele><time>2026-04-18T09:13:13Z</time></trkpt><trkpt lat="47.72790368115378" lon="11.868698004950717"><ele>784.0</ele><time>2026-04-18T09:13:14Z</time></trkpt><trkpt lat="47.727982265120524" lon="11.868684766849492"><ele>783.9999999999999</ele><time>2026-04-18T09:13:15Z</time></trkpt><trkpt lat="47.72805789702721" lon="11.868667980592782"><ele>784.0</ele><time>2026-04-18T09:13:16Z</time></trkpt><trkpt lat="47.72813447370849" lon="11.86865297161566"><ele>784.0</ele><time>2026-04-18T09:13:17Z</time></trkpt><trkpt lat="47.72821606451806" lon="11.868635781579837"><ele>784.0</ele><time>2026-04-18T09:13:18Z</time></trkpt><trkpt lat="47.728299926208386" lon="11.868614484332543"><ele>783.9999999999999</ele><time>2026-04-18T09:13:19Z</time></trkpt><trkpt lat="47.72839651896024" lon="11.868595105068561"><ele>784.0</ele><time>2026-04-18T09:13:20Z</time></trkpt><trkpt lat="47.72849679307213" lon="11.868557782772067"><ele>783.8000000000001</ele><time>2026-04-18T09:13:21Z</time></trkpt><trkpt lat="47.72858961018848" lon="11.868520408533044"><ele>783.6</ele><time>2026-04-18T09:13:22Z</time></trkpt><trkpt lat="47.72867921782945" lon="11.86848038367635"><ele>783.4</ele><time>2026-04-18T09:13:23Z</time></trkpt><trkpt lat="47.728768057670514" lon="11.86843708637782"><ele>783.2</ele><time>2026-04-18T09:13:24Z</time></trkpt><trkpt lat="47.72885108996843" lon="11.868389383922215"><ele>783.0</ele><time>2026-04-18T09:13:25Z</time></trkpt><trkpt lat="47.728933584207034" lon="11.868336882515607"><ele>782.4</ele><time>2026-04-18T09:13:26Z</time></trkpt><trkpt lat="47.72901704499381" lon="11.868282707020803"><ele>781.8</ele><time>2026-04-18T09:13:27Z</time></trkpt><trkpt lat="47.729102105332956" lon="11.868228979493272"><ele>781.2</ele><time>2026-04-18T09:13:28Z</time></trkpt><trkpt lat="47.72918609070557" lon="11.868179058024278"><ele>780.6</ele><time>2026-04-18T09:13:29Z</time></trkpt><trkpt lat="47.72927002178064" lon="11.868133933811064"><ele>780.0</ele><time>2026-04-18T09:13:30Z</time></trkpt><trkpt lat="47.72935102100234" lon="11.868089153858064"><ele>780.3333333333334</ele><time>2026-04-18T09:13:31Z</time></trkpt><trkpt lat="47.72943136417787" lon="11.868049875010529"><ele>780.6666666666667</ele><time>2026-04-18T09:13:32Z</time></trkpt><trkpt lat="47.72951334431421" lon="11.868025757220552"><ele>781.0</ele><time>2026-04-18T09:13:33Z</time></trkpt><trkpt lat="47.72959573538058" lon="11.868018074452165"><ele>781.3333333333334</ele><time>2026-04-18T09:13:34Z</time></trkpt><trkpt lat="47.72967766192462" lon="11.86802145409568"><ele>781.6666666666667</ele><time>2026-04-18T09:13:35Z</time></trkpt><trkpt lat="47.72974547684035" lon="11.868031981033027"><ele>782.0</ele><time>2026-04-18T09:13:36Z</time></trkpt><trkpt lat="47.729854139241674" lon="11.86806172805423"><ele>782.0</ele><time>2026-04-18T09:13:38Z</time></trkpt><trkpt lat="47.729975585111916" lon="11.868106767873828"><ele>782.0</ele><time>2026-04-18T09:13:40Z</time></trkpt><trkpt lat="47.73004994051327" lon="11.868135623490057"><ele>782.0</ele><time>2026-04-18T09:13:41Z</time></trkpt><trkpt lat="47.73013527237904" lon="11.868160719592678"><ele>782.0</ele><time>2026-04-18T09:13:42Z</time></trkpt><trkpt lat="47.730215564143236" lon="11.868211841835182"><ele>782.0</ele><time>2026-04-18T09:13:43Z</time></trkpt><trkpt lat="47.730302467533036" lon="11.868246976994262"><ele>782.2</ele><time>2026-04-18T09:13:44Z</time></trkpt><trkpt lat="47.73039658457416" lon="11.868279983097187"><ele>782.4000000000001</ele><time>2026-04-18T09:13:45Z</time></trkpt><trkpt lat="47.73049569427231" lon="11.868314740010845"><ele>782.5999999999999</ele><time>2026-04-18T09:13:46Z</time></trkpt><trkpt lat="47.73060699097134" lon="11.868338047355055"><ele>782.8</ele><time>2026-04-18T09:13:47Z</time></trkpt><trkpt lat="47.73069457328852" lon="11.868371460976508"><ele>783.0</ele><time>2026-04-18T09:13:48Z</time></trkpt><trkpt lat="47.73079259583274" lon="11.868412721557164"><ele>783.4</ele><time>2026-04-18T09:13:49Z</time></trkpt><trkpt lat="47.730882606917035" lon="11.868447359908538"><ele>783.8</ele><time>2026-04-18T09:13:50Z</time></trkpt><trkpt lat="47.730972017752784" lon="11.868484963334225"><ele>784.2</ele><time>2026-04-18T09:13:51Z</time></trkpt><trkpt lat="47.731071323307695" lon="11.86851290735867"><ele>784.6</ele><time>2026-04-18T09:13:52Z</time></trkpt><trkpt lat="47.73117253782035" lon="11.868525524760948"><ele>785.0</ele><time>2026-04-18T09:13:53Z</time></trkpt><trkpt lat="47.7312763378558" lon="11.86851944456442"><ele>785.0</ele><time>2026-04-18T09:13:54Z</time></trkpt><trkpt lat="47.73137256741298" lon="11.868486471062935"><ele>785.0</ele><time>2026-04-18T09:13:55Z</time></trkpt><trkpt lat="47.731476410263404" lon="11.868442043396431"><ele>785.0</ele><time>2026-04-18T09:13:56Z</time></trkpt><trkpt lat="47.73157320561397" lon="11.86837883095086"><ele>785.0</ele><time>2026-04-18T09:13:57Z</time></trkpt><trkpt lat="47.73166474319126" lon="11.86831087921451"><ele>785.0</ele><time>2026-04-18T09:13:58Z</time></trkpt><trkpt lat="47.731753865169665" lon="11.868229250155974"><ele>785.2</ele><time>2026-04-18T09:13:59Z</time></trkpt><trkpt lat="47.73184596410897" lon="11.868147763657609"><ele>785.4</ele><time>2026-04-18T09:14:00Z</time></trkpt><trkpt lat="47.73193874644625" lon="11.86805344903201"><ele>785.5999999999999</ele><time>2026-04-18T09:14:01Z</time></trkpt><trkpt lat="47.732013448814456" lon="11.867962748121252"><ele>785.8</ele><time>2026-04-18T09:14:02Z</time></trkpt><trkpt lat="47.73208816247686" lon="11.867874771587186"><ele>786.0</ele><time>2026-04-18T09:14:03Z</time></trkpt><trkpt lat="47.732159119942146" lon="11.867775894284726"><ele>786.0</ele><time>2026-04-18T09:14:04Z</time></trkpt><trkpt lat="47.732216584471196" lon="11.867678171338602"><ele>786.0</ele><time>2026-04-18T09:14:05Z</time></trkpt><trkpt lat="47.732272639086" lon="11.86756624955306"><ele>786.0</ele><time>2026-04-18T09:14:06Z</time></trkpt><trkpt lat="47.732329260337856" lon="11.867453218218882"><ele>786.0</ele><time>2026-04-18T09:14:07Z</time></trkpt><trkpt lat="47.73237039338372" lon="11.867337656429099"><ele>786.0</ele><time>2026-04-18T09:14:08Z</time></trkpt><trkpt lat="47.73240729305371" lon="11.867223645836374"><ele>786.0</ele><time>2026-04-18T09:14:09Z</time></trkpt><trkpt lat="47.73243709958072" lon="11.867113590879324"><ele>786.0</ele><time>2026-04-18T09:14:10Z</time></trkpt><trkpt lat="47.73246051121726" lon="11.86700758861427"><ele>786.0</ele><time>2026-04-18T09:14:11Z</time></trkpt><trkpt lat="47.73248597382844" lon="11.86688351709224"><ele>786.0</ele><time>2026-04-18T09:14:12Z</time></trkpt><trkpt lat="47.73251006431658" lon="11.866766831509228"><ele>786.0</ele><time>2026-04-18T09:14:13Z</time></trkpt><trkpt lat="47.73254324807647" lon="11.86665249661633"><ele>786.0</ele><time>2026-04-18T09:14:14Z</time></trkpt><trkpt lat="47.73257939850156" lon="11.866543751280501"><ele>786.0</ele><time>2026-04-18T09:14:15Z</time></trkpt><trkpt lat="47.73262198257545" lon="11.866427146521033"><ele>786.0</ele><time>2026-04-18T09:14:16Z</time></trkpt><trkpt lat="47.732670846342884" lon="11.8663153880158"><ele>786.0</ele><time>2026-04-18T09:14:17Z</time></trkpt><trkpt lat="47.73272540784009" lon="11.866212554583896"><ele>786.0</ele><time>2026-04-18T09:14:18Z</time></trkpt><trkpt lat="47.732787360575045" lon="11.866122239665458"><ele>786.0</ele><time>2026-04-18T09:14:19Z</time></trkpt><trkpt lat="47.73284633460434" lon="11.866033841633529"><ele>786.0</ele><time>2026-04-18T09:14:20Z</time></trkpt><trkpt lat="47.73291189185334" lon="11.865937159922948"><ele>786.0</ele><time>2026-04-18T09:14:21Z</time></trkpt><trkpt lat="47.732990795517935" lon="11.865830914092417"><ele>786.6666666666666</ele><time>2026-04-18T09:14:22Z</time></trkpt><trkpt lat="47.73305344079877" lon="11.86573125713732"><ele>787.3333333333333</ele><time>2026-04-18T09:14:23Z</time></trkpt><trkpt lat="47.733112613361655" lon="11.865636189740195"><ele>788.0</ele><time>2026-04-18T09:14:24Z</time></trkpt><trkpt lat="47.73316506886079" lon="11.865548358558565"><ele>788.6666666666666</ele><time>2026-04-18T09:14:25Z</time></trkpt><trkpt lat="47.73322122276837" lon="11.865458727647548"><ele>789.3333333333333</ele><time>2026-04-18T09:14:26Z</time></trkpt><trkpt lat="47.733272394645546" lon="11.865376631327543"><ele>790.0</ele><time>2026-04-18T09:14:27Z</time></trkpt><trkpt lat="47.73333199424442" lon="11.865290703313642"><ele>790.0</ele><time>2026-04-18T09:14:28Z</time></trkpt><trkpt lat="47.73339633983444" lon="11.865213113921351"><ele>790.0</ele><time>2026-04-18T09:14:29Z</time></trkpt><trkpt lat="47.73345506385444" lon="11.865149602338779"><ele>790.0</ele><time>2026-04-18T09:14:30Z</time></trkpt><trkpt lat="47.733549671342374" lon="11.865059184564922"><ele>790.0</ele><time>2026-04-18T09:14:32Z</time></trkpt><trkpt lat="47.73366470180849" lon="11.864980038691533"><ele>790.0</ele><time>2026-04-18T09:14:34Z</time></trkpt><trkpt lat="47.73372977159493" lon="11.864889400984627"><ele>790.6</ele><time>2026-04-18T09:14:35Z</time></trkpt><trkpt lat="47.73381460476299" lon="11.864826040329376"><ele>791.2</ele><time>2026-04-18T09:14:36Z</time></trkpt><trkpt lat="47.73390791522714" lon="11.8647590013374"><ele>791.8</ele><time>2026-04-18T09:14:37Z</time></trkpt><trkpt lat="47.734005383464506" lon="11.864788935174174"><ele>792.4</ele><time>2026-04-18T09:14:38Z</time></trkpt><trkpt lat="47.73408916095749" lon="11.864791781979697"><ele>793.0</ele><time>2026-04-18T09:14:39Z</time></trkpt><trkpt lat="47.734171167952915" lon="11.864785320467458"><ele>792.9999999999999</ele><time>2026-04-18T09:14:40Z</time></trkpt><trkpt lat="47.734241298015434" lon="11.864777151846283"><ele>793.0</ele><time>2026-04-18T09:14:41Z</time></trkpt><trkpt lat="47.73430608688157" lon="11.864702514524021"><ele>793.0</ele><time>2026-04-18T09:14:42Z</time></trkpt><trkpt lat="47.73437366971296" lon="11.864646788232868"><ele>793.0</ele><time>2026-04-18T09:14:43Z</time></trkpt><trkpt lat="47.73446528872415" lon="11.864561913625332"><ele>792.9999999999999</ele><time>2026-04-18T09:14:44Z</time></trkpt><trkpt lat="47.73456129043426" lon="11.86447663877767"><ele>793.0</ele><time>2026-04-18T09:14:45Z</time></trkpt><trkpt lat="47.73464461337258" lon="11.86439105180252"><ele>793.3333333333333</ele><time>2026-04-18T09:14:46Z</time></trkpt><trkpt lat="47.73471129099826" lon="11.864309767775989"><ele>793.6666666666666</ele><time>2026-04-18T09:14:47Z</time></trkpt><trkpt lat="47.73476169547625" lon="11.864237171525545"><ele>794.0</ele><time>2026-04-18T09:14:48Z</time></trkpt><trkpt lat="47.734807956990736" lon="11.864170112723333"><ele>794.3333333333333</ele><time>2026-04-18T09:14:49Z</time></trkpt><trkpt lat="47.73488861414698" lon="11.864049869895831"><ele>794.6666666666666</ele><time>2026-04-18T09:14:51Z</time></trkpt><trkpt lat="47.734938067650724" lon="11.863957552150282"><ele>795.0</ele><time>2026-04-18T09:14:52Z</time></trkpt><trkpt lat="47.73498323571642" lon="11.863860382093499"><ele>795.0</ele><time>2026-04-18T09:14:53Z</time></trkpt><trkpt lat="47.735043886947324" lon="11.863772082723246"><ele>795.0</ele><time>2026-04-18T09:14:54Z</time></trkpt><trkpt lat="47.73511494264238" lon="11.863693638177143"><ele>795.0</ele><time>2026-04-18T09:14:55Z</time></trkpt><trkpt lat="47.735178333324185" lon="11.863593891037993"><ele>795.0</ele><time>2026-04-18T09:14:56Z</time></trkpt><trkpt lat="47.73523986653616" lon="11.863475323276218"><ele>795.0</ele><time>2026-04-18T09:14:57Z</time></trkpt><trkpt lat="47.73530915111907" lon="11.863369249438819"><ele>795.0</ele><time>2026-04-18T09:14:58Z</time></trkpt><trkpt lat="47.73535981636036" lon="11.863260167608466"><ele>795.0</ele><time>2026-04-18T09:14:59Z</time></trkpt><trkpt lat="47.735410536139916" lon="11.863154044848153"><ele>795.0</ele><time>2026-04-18T09:15:00Z</time></trkpt><trkpt lat="47.73544996474636" lon="11.863067126065424"><ele>795.0</ele><time>2026-04-18T09:15:01Z</time></trkpt><trkpt lat="47.73549373325768" lon="11.862971987056024"><ele>795.0</ele><time>2026-04-18T09:15:02Z</time></trkpt><trkpt lat="47.73553280926284" lon="11.862877477465718"><ele>795.0</ele><time>2026-04-18T09:15:03Z</time></trkpt><trkpt lat="47.73556940768373" lon="11.862772335631778"><ele>795.0</ele><time>2026-04-18T09:15:04Z</time></trkpt><trkpt lat="47.73559458501282" lon="11.862671309082442"><ele>795.0</ele><time>2026-04-18T09:15:05Z</time></trkpt><trkpt lat="47.7356193452647" lon="11.86256126584014"><ele>795.0</ele><time>2026-04-18T09:15:06Z</time></trkpt><trkpt lat="47.73563509811073" lon="11.862442407236689"><ele>795.0</ele><time>2026-04-18T09:15:07Z</time></trkpt><trkpt lat="47.73564748071046" lon="11.862328590373082"><ele>795.0</ele><time>2026-04-18T09:15:08Z</time></trkpt><trkpt lat="47.7356673492262" lon="11.862231898383603"><ele>795.0</ele><time>2026-04-18T09:15:09Z</time></trkpt><trkpt lat="47.7356878838868" lon="11.86212483771132"><ele>794.6666666666666</ele><time>2026-04-18T09:15:10Z</time></trkpt><trkpt lat="47.73571599719469" lon="11.862020180840004"><ele>794.3333333333333</ele><time>2026-04-18T09:15:11Z</time></trkpt><trkpt lat="47.73574541401479" lon="11.861902030861476"><ele>794.0</ele><time>2026-04-18T09:15:12Z</time></trkpt><trkpt lat="47.73578562056436" lon="11.86180441161953"><ele>793.6666666666666</ele><time>2026-04-18T09:15:13Z</time></trkpt><trkpt lat="47.735827944597425" lon="11.861704090445512"><ele>793.3333333333333</ele><time>2026-04-18T09:15:14Z</time></trkpt><trkpt lat="47.73586770463578" lon="11.86160746114054"><ele>793.0</ele><time>2026-04-18T09:15:15Z</time></trkpt><trkpt lat="47.73590431579306" lon="11.861519261693664"><ele>792.9999999999999</ele><time>2026-04-18T09:15:16Z</time></trkpt><trkpt lat="47.73594812687952" lon="11.861432084964614"><ele>793.0</ele><time>2026-04-18T09:15:17Z</time></trkpt><trkpt lat="47.735988634434364" lon="11.861337632003634"><ele>793.0</ele><time>2026-04-18T09:15:18Z</time></trkpt><trkpt lat="47.736030152839795" lon="11.861238222793434"><ele>793.0</ele><time>2026-04-18T09:15:19Z</time></trkpt><trkpt lat="47.73608345905455" lon="11.861126294343576"><ele>792.9999999999999</ele><time>2026-04-18T09:15:20Z</time></trkpt><trkpt lat="47.73613112678423" lon="11.861026468920695"><ele>793.0</ele><time>2026-04-18T09:15:21Z</time></trkpt><trkpt lat="47.7361670145374" lon="11.860919877816066"><ele>793.0000000000001</ele><time>2026-04-18T09:15:22Z</time></trkpt><trkpt lat="47.73622833656713" lon="11.860847266140123"><ele>793.0</ele><time>2026-04-18T09:15:23Z</time></trkpt><trkpt lat="47.736280610429986" lon="11.860747522179386"><ele>793.0</ele><time>2026-04-18T09:15:24Z</time></trkpt><trkpt lat="47.73632264818771" lon="11.860655684170865"><ele>793.0</ele><time>2026-04-18T09:15:25Z</time></trkpt><trkpt lat="47.73636957860755" lon="11.86057137633045"><ele>793.0</ele><time>2026-04-18T09:15:26Z</time></trkpt><trkpt lat="47.73640787622092" lon="11.860490397424043"><ele>793.0000000000001</ele><time>2026-04-18T09:15:27Z</time></trkpt><trkpt lat="47.73646168024974" lon="11.860423148832508"><ele>793.0</ele><time>2026-04-18T09:15:28Z</time></trkpt><trkpt lat="47.73650538826965" lon="11.860346756325967"><ele>792.9999999999999</ele><time>2026-04-18T09:15:29Z</time></trkpt><trkpt lat="47.736558891802" lon="11.860253243309124"><ele>793.0</ele><time>2026-04-18T09:15:30Z</time></trkpt><trkpt lat="47.73660512965523" lon="11.860156716808556"><ele>793.0</ele><time>2026-04-18T09:15:31Z</time></trkpt><trkpt lat="47.736653648932524" lon="11.860082008975464"><ele>793.0</ele><time>2026-04-18T09:15:32Z</time></trkpt><trkpt lat="47.73669651847184" lon="11.859999427410747"><ele>792.9999999999999</ele><time>2026-04-18T09:15:33Z</time></trkpt><trkpt lat="47.73674154633165" lon="11.85991671459336"><ele>793.0</ele><time>2026-04-18T09:15:34Z</time></trkpt><trkpt lat="47.736790302006874" lon="11.85982439639428"><ele>792.8333333333333</ele><time>2026-04-18T09:15:35Z</time></trkpt><trkpt lat="47.736843388931" lon="11.85972972565551"><ele>792.6666666666666</ele><time>2026-04-18T09:15:36Z</time></trkpt><trkpt lat="47.73689045438428" lon="11.859648651429085"><ele>792.5</ele><time>2026-04-18T09:15:37Z</time></trkpt><trkpt lat="47.73693665159741" lon="11.859558518107523"><ele>792.3333333333333</ele><time>2026-04-18T09:15:38Z</time></trkpt><trkpt lat="47.736999918395135" lon="11.859449367777893"><ele>792.1666666666666</ele><time>2026-04-18T09:15:39Z</time></trkpt><trkpt lat="47.737050764023714" lon="11.859309998299198"><ele>792.0</ele><time>2026-04-18T09:15:40Z</time></trkpt><trkpt lat="47.73709907784016" lon="11.859138548388731"><ele>792.0</ele><time>2026-04-18T09:15:41Z</time></trkpt><trkpt lat="47.737143679340456" lon="11.858948537922663"><ele>792.0</ele><time>2026-04-18T09:15:42Z</time></trkpt><trkpt lat="47.73718363669283" lon="11.858780613011435"><ele>792.0</ele><time>2026-04-18T09:15:43Z</time></trkpt><trkpt lat="47.73724867573958" lon="11.85860579098459"><ele>792.0</ele><time>2026-04-18T09:15:44Z</time></trkpt><trkpt lat="47.73730329836314" lon="11.858409207356537"><ele>792.0</ele><time>2026-04-18T09:15:45Z</time></trkpt><trkpt lat="47.73737142071831" lon="11.85819520219085"><ele>792.0</ele><time>2026-04-18T09:15:46Z</time></trkpt><trkpt lat="47.737431565960925" lon="11.858000706237359"><ele>792.0</ele><time>2026-04-18T09:15:47Z</time></trkpt><trkpt lat="47.73749137849959" lon="11.857814542317012"><ele>792.0</ele><time>2026-04-18T09:15:48Z</time></trkpt><trkpt lat="47.73755458386534" lon="11.85763105131198"><ele>792.0</ele><time>2026-04-18T09:15:49Z</time></trkpt><trkpt lat="47.737610466281296" lon="11.85744261735485"><ele>792.0</ele><time>2026-04-18T09:15:50Z</time></trkpt><trkpt lat="47.73766390385369" lon="11.857243860967094"><ele>792.0</ele><time>2026-04-18T09:15:51Z</time></trkpt><trkpt lat="47.73770562452477" lon="11.857037995213071"><ele>792.0</ele><time>2026-04-18T09:15:52Z</time></trkpt><trkpt lat="47.73772664519854" lon="11.85682670107967"><ele>792.25</ele><time>2026-04-18T09:15:53Z</time></trkpt><trkpt lat="47.73772240976757" lon="11.856618594435442"><ele>792.5</ele><time>2026-04-18T09:15:54Z</time></trkpt><trkpt lat="47.73771181881034" lon="11.856399794227295"><ele>792.75</ele><time>2026-04-18T09:15:55Z</time></trkpt><trkpt lat="47.73768942657628" lon="11.856190517917534"><ele>793.0</ele><time>2026-04-18T09:15:56Z</time></trkpt><trkpt lat="47.73766852120479" lon="11.855985769500569"><ele>792.0</ele><time>2026-04-18T09:15:57Z</time></trkpt><trkpt lat="47.73765373336042" lon="11.855777391062965"><ele>791.0</ele><time>2026-04-18T09:15:58Z</time></trkpt><trkpt lat="47.73764672600741" lon="11.85556868193769"><ele>790.0</ele><time>2026-04-18T09:15:59Z</time></trkpt><trkpt lat="47.73764956113197" lon="11.855363864174091"><ele>789.0</ele><time>2026-04-18T09:16:00Z</time></trkpt><trkpt lat="47.73765990372603" lon="11.855159452104676"><ele>788.75</ele><time>2026-04-18T09:16:01Z</time></trkpt><trkpt lat="47.737687239879264" lon="11.854958050094849"><ele>788.5</ele><time>2026-04-18T09:16:02Z</time></trkpt><trkpt lat="47.73772097645908" lon="11.854759296552643"><ele>788.25</ele><time>2026-04-18T09:16:03Z</time></trkpt><trkpt lat="47.737754922111044" lon="11.854554844397947"><ele>788.0</ele><time>2026-04-18T09:16:04Z</time></trkpt><trkpt lat="47.737795530785846" lon="11.854354799117354"><ele>788.0</ele><time>2026-04-18T09:16:05Z</time></trkpt><trkpt lat="47.73784283898615" lon="11.854160023381327"><ele>788.0</ele><time>2026-04-18T09:16:06Z</time></trkpt><trkpt lat="47.737905968276586" lon="11.853977741392551"><ele>788.0</ele><time>2026-04-18T09:16:07Z</time></trkpt><trkpt lat="47.737981812169494" lon="11.853806422658486"><ele>788.0</ele><time>2026-04-18T09:16:08Z</time></trkpt><trkpt lat="47.7380751193741" lon="11.85366265242975"><ele>788.0</ele><time>2026-04-18T09:16:09Z</time></trkpt><trkpt lat="47.738179404737515" lon="11.853529626182437"><ele>788.0</ele><time>2026-04-18T09:16:10Z</time></trkpt><trkpt lat="47.738293190556256" lon="11.853396356169412"><ele>788.0</ele><time>2026-04-18T09:16:11Z</time></trkpt><trkpt lat="47.738412669866804" lon="11.853269904683634"><ele>788.0</ele><time>2026-04-18T09:16:12Z</time></trkpt><trkpt lat="47.73853008520513" lon="11.853148536768328"><ele>787.5</ele><time>2026-04-18T09:16:13Z</time></trkpt><trkpt lat="47.73864825089309" lon="11.853024924778289"><ele>787.0</ele><time>2026-04-18T09:16:14Z</time></trkpt><trkpt lat="47.73876284358928" lon="11.852900108451173"><ele>786.5</ele><time>2026-04-18T09:16:15Z</time></trkpt><trkpt lat="47.73887946357052" lon="11.85277322921918"><ele>786.0</ele><time>2026-04-18T09:16:16Z</time></trkpt><trkpt lat="47.73899807872408" lon="11.852641194449527"><ele>784.3333333333333</ele><time>2026-04-18T09:16:17Z</time></trkpt><trkpt lat="47.73911509994858" lon="11.852500609597092"><ele>782.6666666666666</ele><time>2026-04-18T09:16:18Z</time></trkpt><trkpt lat="47.73922854477635" lon="11.852350959235777"><ele>781.0</ele><time>2026-04-18T09:16:19Z</time></trkpt><trkpt lat="47.73933813609947" lon="11.852188727146808"><ele>782.6666666666666</ele><time>2026-04-18T09:16:20Z</time></trkpt><trkpt lat="47.73944682302861" lon="11.852023402423923"><ele>784.3333333333333</ele><time>2026-04-18T09:16:21Z</time></trkpt><trkpt lat="47.73955362984075" lon="11.851849483519821"><ele>786.0</ele><time>2026-04-18T09:16:22Z</time></trkpt><trkpt lat="47.73965976454529" lon="11.851662122314938"><ele>786.0</ele><time>2026-04-18T09:16:23Z</time></trkpt><trkpt lat="47.73976511213318" lon="11.851464366957254"><ele>786.0</ele><time>2026-04-18T09:16:24Z</time></trkpt><trkpt lat="47.7398771252911" lon="11.851257639472431"><ele>786.0</ele><time>2026-04-18T09:16:25Z</time></trkpt><trkpt lat="47.7399986155584" lon="11.851046171995527"><ele>785.6666666666667</ele><time>2026-04-18T09:16:26Z</time></trkpt><trkpt lat="47.740132900399345" lon="11.850828450519623"><ele>785.3333333333334</ele><time>2026-04-18T09:16:27Z</time></trkpt><trkpt lat="47.74027983647309" lon="11.85061450742705"><ele>785.0</ele><time>2026-04-18T09:16:28Z</time></trkpt><trkpt lat="47.74044384702681" lon="11.850410960187807"><ele>786.6666666666667</ele><time>2026-04-18T09:16:29Z</time></trkpt><trkpt lat="47.740621328533905" lon="11.850230115637874"><ele>788.3333333333333</ele><time>2026-04-18T09:16:30Z</time></trkpt><trkpt lat="47.74080013376653" lon="11.850066783732258"><ele>790.0</ele><time>2026-04-18T09:16:31Z</time></trkpt><trkpt lat="47.740968218257805" lon="11.84991966319875"><ele>791.6666666666666</ele><time>2026-04-18T09:16:32Z</time></trkpt><trkpt lat="47.7411349925276" lon="11.84977174735614"><ele>793.3333333333333</ele><time>2026-04-18T09:16:33Z</time></trkpt><trkpt lat="47.741298405860675" lon="11.849630699305523"><ele>795.0</ele><time>2026-04-18T09:16:34Z</time></trkpt><trkpt lat="47.74145183568424" lon="11.849496939190136"><ele>795.0</ele><time>2026-04-18T09:16:35Z</time></trkpt><trkpt lat="47.7415940900336" lon="11.84936411360787"><ele>795.0</ele><time>2026-04-18T09:16:36Z</time></trkpt><trkpt lat="47.741734330372665" lon="11.849223189378055"><ele>795.0</ele><time>2026-04-18T09:16:37Z</time></trkpt><trkpt lat="47.741874976780444" lon="11.84906807550801"><ele>791.3333333333333</ele><time>2026-04-18T09:16:38Z</time></trkpt><trkpt lat="47.742013959804716" lon="11.848906043184188"><ele>787.6666666666666</ele><time>2026-04-18T09:16:39Z</time></trkpt><trkpt lat="47.74215339524267" lon="11.848733835279088"><ele>784.0</ele><time>2026-04-18T09:16:40Z</time></trkpt><trkpt lat="47.74229335160014" lon="11.848551875913051"><ele>782.6666666666666</ele><time>2026-04-18T09:16:41Z</time></trkpt><trkpt lat="47.74243460010488" lon="11.848365356203635"><ele>781.3333333333333</ele><time>2026-04-18T09:16:42Z</time></trkpt><trkpt lat="47.742572528391634" lon="11.84818313801458"><ele>780.0</ele><time>2026-04-18T09:16:43Z</time></trkpt><trkpt lat="47.742716778723285" lon="11.847998151932504"><ele>779.0</ele><time>2026-04-18T09:16:44Z</time></trkpt><trkpt lat="47.742864937485244" lon="11.847806978044515"><ele>778.0</ele><time>2026-04-18T09:16:45.001Z</time></trkpt><trkpt lat="47.743012968628214" lon="11.847617297088352"><ele>777.0</ele><time>2026-04-18T09:16:46.001Z</time></trkpt><trkpt lat="47.7431681356258" lon="11.847432965019909"><ele>776.0</ele><time>2026-04-18T09:16:47.001Z</time></trkpt><trkpt lat="47.74332776949751" lon="11.84725188418612"><ele>775.0</ele><time>2026-04-18T09:16:48.001Z</time></trkpt><trkpt lat="47.743487217500586" lon="11.847082671717319"><ele>774.0</ele><time>2026-04-18T09:16:49.001Z</time></trkpt><trkpt lat="47.74365092463253" lon="11.846920309621561"><ele>772.6666666666667</ele><time>2026-04-18T09:16:50.001Z</time></trkpt><trkpt lat="47.74381194755488" lon="11.846762212837838"><ele>771.3333333333334</ele><time>2026-04-18T09:16:51.001Z</time></trkpt><trkpt lat="47.74397968957018" lon="11.84661595411632"><ele>770.0</ele><time>2026-04-18T09:16:52.001Z</time></trkpt><trkpt lat="47.74414183690146" lon="11.846474886496578"><ele>770.0</ele><time>2026-04-18T09:16:53.001Z</time></trkpt><trkpt lat="47.74429414012424" lon="11.8463367929008"><ele>770.0</ele><time>2026-04-18T09:16:54.001Z</time></trkpt><trkpt lat="47.74445321060036" lon="11.846197911268533"><ele>770.0</ele><time>2026-04-18T09:16:55.001Z</time></trkpt><trkpt lat="47.744611707881255" lon="11.846058465088504"><ele>769.6666666666667</ele><time>2026-04-18T09:16:56.001Z</time></trkpt><trkpt lat="47.7447630739054" lon="11.845918640075"><ele>769.3333333333333</ele><time>2026-04-18T09:16:57.001Z</time></trkpt><trkpt lat="47.7449166808626" lon="11.845767141075914"><ele>769.0</ele><time>2026-04-18T09:16:58.001Z</time></trkpt><trkpt lat="47.74506231093489" lon="11.845622364180624"><ele>769.0</ele><time>2026-04-18T09:16:59.001Z</time></trkpt><trkpt lat="47.74520105221624" lon="11.845479108185938"><ele>769.0</ele><time>2026-04-18T09:17:00.001Z</time></trkpt><trkpt lat="47.745334978694515" lon="11.845333255398796"><ele>769.0</ele><time>2026-04-18T09:17:01.001Z</time></trkpt><trkpt lat="47.74545437928681" lon="11.84519540443635"><ele>769.0</ele><time>2026-04-18T09:17:02.001Z</time></trkpt><trkpt lat="47.74555529280447" lon="11.845063120450058"><ele>769.0</ele><time>2026-04-18T09:17:03.001Z</time></trkpt><trkpt lat="47.745655369124535" lon="11.844939462912173"><ele>769.0</ele><time>2026-04-18T09:17:04.001Z</time></trkpt><trkpt lat="47.745761205839116" lon="11.844819294287436"><ele>769.0</ele><time>2026-04-18T09:17:05.001Z</time></trkpt><trkpt lat="47.74586726526915" lon="11.844696300836839"><ele>769.0</ele><time>2026-04-18T09:17:06.001Z</time></trkpt><trkpt lat="47.745968342160594" lon="11.844571829236468"><ele>769.0</ele><time>2026-04-18T09:17:07.001Z</time></trkpt><trkpt lat="47.74607001312541" lon="11.844443277555438"><ele>769.0</ele><time>2026-04-18T09:17:08.001Z</time></trkpt><trkpt lat="47.746176412093895" lon="11.844325305241354"><ele>769.0</ele><time>2026-04-18T09:17:09.001Z</time></trkpt><trkpt lat="47.746275360413065" lon="11.844196329982974"><ele>768.5</ele><time>2026-04-18T09:17:10.001Z</time></trkpt><trkpt lat="47.74637822773042" lon="11.844068414455265"><ele>768.0</ele><time>2026-04-18T09:17:11.001Z</time></trkpt><trkpt lat="47.746477412662834" lon="11.843933516401261"><ele>767.5</ele><time>2026-04-18T09:17:12.001Z</time></trkpt><trkpt lat="47.746577928875766" lon="11.843797395977054"><ele>767.0</ele><time>2026-04-18T09:17:13.001Z</time></trkpt><trkpt lat="47.74667507816023" lon="11.84366258877873"><ele>767.0</ele><time>2026-04-18T09:17:14.001Z</time></trkpt><trkpt lat="47.74677231016723" lon="11.843537115821661"><ele>767.0</ele><time>2026-04-18T09:17:15.001Z</time></trkpt><trkpt lat="47.74686707142333" lon="11.843422511601252"><ele>767.0</ele><time>2026-04-18T09:17:16.001Z</time></trkpt><trkpt lat="47.746962141491046" lon="11.84332132855867"><ele>767.0</ele><time>2026-04-18T09:17:17.001Z</time></trkpt><trkpt lat="47.74705544395153" lon="11.843232581573318"><ele>767.0</ele><time>2026-04-18T09:17:18.001Z</time></trkpt><trkpt lat="47.747139297867065" lon="11.843148428607632"><ele>767.0</ele><time>2026-04-18T09:17:19.001Z</time></trkpt><trkpt lat="47.74723513687258" lon="11.843057819426525"><ele>767.0</ele><time>2026-04-18T09:17:20.001Z</time></trkpt><trkpt lat="47.74732172956818" lon="11.842976426696884"><ele>767.0</ele><time>2026-04-18T09:17:21.001Z</time></trkpt><trkpt lat="47.74740659309867" lon="11.842894695708171"><ele>767.0</ele><time>2026-04-18T09:17:22.001Z</time></trkpt><trkpt lat="47.74749069588105" lon="11.842813835206234"><ele>767.0</ele><time>2026-04-18T09:17:23.001Z</time></trkpt><trkpt lat="47.74756501417635" lon="11.842728794519035"><ele>767.0</ele><time>2026-04-18T09:17:24.001Z</time></trkpt><trkpt lat="47.74764357566005" lon="11.842677880459883"><ele>767.0</ele><time>2026-04-18T09:17:25.001Z</time></trkpt><trkpt lat="47.747715255800905" lon="11.842613518590985"><ele>767.0</ele><time>2026-04-18T09:17:26.001Z</time></trkpt><trkpt lat="47.747789666129115" lon="11.842550080812345"><ele>767.0</ele><time>2026-04-18T09:17:27.001Z</time></trkpt><trkpt lat="47.74788315722681" lon="11.842471857419685"><ele>766.6666666666666</ele><time>2026-04-18T09:17:28.001Z</time></trkpt><trkpt lat="47.74797117792604" lon="11.842400722092918"><ele>766.3333333333333</ele><time>2026-04-18T09:17:29.001Z</time></trkpt><trkpt lat="47.74804266593748" lon="11.84234300556347"><ele>766.0</ele><time>2026-04-18T09:17:30.001Z</time></trkpt><trkpt lat="47.74809888949261" lon="11.842252542192687"><ele>765.6666666666666</ele><time>2026-04-18T09:17:32.001Z</time></trkpt><trkpt lat="47.748173665751075" lon="11.842234338284326"><ele>765.3333333333334</ele><time>2026-04-18T09:17:47.001Z</time></trkpt><trkpt lat="47.748231704151344" lon="11.842196185448637"><ele>765.0</ele><time>2026-04-18T09:17:48.001Z</time></trkpt><trkpt lat="47.74829226716928" lon="11.842151926675072"><ele>765.0</ele><time>2026-04-18T09:17:49.001Z</time></trkpt><trkpt lat="47.7484013408947" lon="11.842067155739262"><ele>765.0</ele><time>2026-04-18T09:17:51.001Z</time></trkpt><trkpt lat="47.74846730264795" lon="11.842016917845362"><ele>765.0</ele><time>2026-04-18T09:17:52.001Z</time></trkpt><trkpt lat="47.74853611660993" lon="11.841965472157504"><ele>765.0</ele><time>2026-04-18T09:17:53.001Z</time></trkpt><trkpt lat="47.74860344951683" lon="11.841915035973766"><ele>765.0</ele><time>2026-04-18T09:17:54.001Z</time></trkpt><trkpt lat="47.74867129731279" lon="11.841862538330806"><ele>765.0</ele><time>2026-04-18T09:17:55.001Z</time></trkpt><trkpt lat="47.748731114884464" lon="11.84181535672851"><ele>765.0</ele><time>2026-04-18T09:17:56.001Z</time></trkpt><trkpt lat="47.748790980395846" lon="11.841770284601132"><ele>765.0</ele><time>2026-04-18T09:17:57.001Z</time></trkpt><trkpt lat="47.74888942873382" lon="11.841688239002002"><ele>765.0</ele><time>2026-04-18T09:17:59.001Z</time></trkpt><trkpt lat="47.7489796729384" lon="11.841616815531859"><ele>765.0</ele><time>2026-04-18T09:18:01.001Z</time></trkpt><trkpt lat="47.749070546510325" lon="11.841546768044916"><ele>765.0</ele><time>2026-04-18T09:18:03.001Z</time></trkpt><trkpt lat="47.74915952243982" lon="11.841481136216789"><ele>765.0</ele><time>2026-04-18T09:18:05.001Z</time></trkpt><trkpt lat="47.74922413927581" lon="11.84143152280911"><ele>765.0</ele><time>2026-04-18T09:18:06.001Z</time></trkpt><trkpt lat="47.7493006036677" lon="11.841369475749762"><ele>765.0</ele><time>2026-04-18T09:18:07.001Z</time></trkpt><trkpt lat="47.74937730883786" lon="11.84130538111963"><ele>765.0</ele><time>2026-04-18T09:18:08.001Z</time></trkpt><trkpt lat="47.74946324947752" lon="11.84123210426906"><ele>765.0</ele><time>2026-04-18T09:18:09.001Z</time></trkpt><trkpt lat="47.74956116790435" lon="11.841161454861751"><ele>764.8</ele><time>2026-04-18T09:18:10.001Z</time></trkpt><trkpt lat="47.749654283821414" lon="11.841096449998291"><ele>764.6</ele><time>2026-04-18T09:18:11.001Z</time></trkpt><trkpt lat="47.749746286201116" lon="11.841030289092881"><ele>764.4000000000001</ele><time>2026-04-18T09:18:12.001Z</time></trkpt><trkpt lat="47.74983827741281" lon="11.840961577793756"><ele>764.2</ele><time>2026-04-18T09:18:13.001Z</time></trkpt><trkpt lat="47.74993120831186" lon="11.840891136363538"><ele>764.0</ele><time>2026-04-18T09:18:14.001Z</time></trkpt><trkpt lat="47.75001546904666" lon="11.84082384136567"><ele>764.0</ele><time>2026-04-18T09:18:15.001Z</time></trkpt><trkpt lat="47.75009815061477" lon="11.840759879727788"><ele>764.0</ele><time>2026-04-18T09:18:16.001Z</time></trkpt><trkpt lat="47.750181654119" lon="11.840697011069448"><ele>764.0</ele><time>2026-04-18T09:18:17.001Z</time></trkpt><trkpt lat="47.75026865342959" lon="11.840639474545368"><ele>764.0</ele><time>2026-04-18T09:18:18.001Z</time></trkpt><trkpt lat="47.75035861970711" lon="11.840572612254034"><ele>764.0</ele><time>2026-04-18T09:18:19.001Z</time></trkpt><trkpt lat="47.750447265748214" lon="11.840504540139406"><ele>764.0</ele><time>2026-04-18T09:18:20.001Z</time></trkpt><trkpt lat="47.75053846176057" lon="11.840434932633121"><ele>764.0</ele><time>2026-04-18T09:18:21.001Z</time></trkpt><trkpt lat="47.750626207020574" lon="11.840366587912841"><ele>764.0</ele><time>2026-04-18T09:18:22.001Z</time></trkpt><trkpt lat="47.75071274689375" lon="11.840300499457966"><ele>764.0</ele><time>2026-04-18T09:18:23.001Z</time></trkpt><trkpt lat="47.75080021338744" lon="11.840229826256733"><ele>764.0</ele><time>2026-04-18T09:18:24.001Z</time></trkpt><trkpt lat="47.750889341572446" lon="11.840158324905989"><ele>763.8000000000001</ele><time>2026-04-18T09:18:25.001Z</time></trkpt><trkpt lat="47.75098331746286" lon="11.840078926907447"><ele>763.6</ele><time>2026-04-18T09:18:26.001Z</time></trkpt><trkpt lat="47.7510781948145" lon="11.839998688862995"><ele>763.4</ele><time>2026-04-18T09:18:27.001Z</time></trkpt><trkpt lat="47.75117660176947" lon="11.839919252475454"><ele>763.2</ele><time>2026-04-18T09:18:28.001Z</time></trkpt><trkpt lat="47.75127218220839" lon="11.83984207998661"><ele>763.0</ele><time>2026-04-18T09:18:29.001Z</time></trkpt><trkpt lat="47.75137170718334" lon="11.83976547394964"><ele>763.0</ele><time>2026-04-18T09:18:30.001Z</time></trkpt><trkpt lat="47.75147214971876" lon="11.83968715693662"><ele>763.0</ele><time>2026-04-18T09:18:31.001Z</time></trkpt><trkpt lat="47.751573102187415" lon="11.839607544805899"><ele>763.0</ele><time>2026-04-18T09:18:32.001Z</time></trkpt><trkpt lat="47.75167400485753" lon="11.839528635444378"><ele>763.0</ele><time>2026-04-18T09:18:33.001Z</time></trkpt><trkpt lat="47.75177224259597" lon="11.839452011108587"><ele>763.25</ele><time>2026-04-18T09:18:34.001Z</time></trkpt><trkpt lat="47.7518751268748" lon="11.83937094435054"><ele>763.5</ele><time>2026-04-18T09:18:35.001Z</time></trkpt><trkpt lat="47.751975303008024" lon="11.839288398645467"><ele>763.75</ele><time>2026-04-18T09:18:36.001Z</time></trkpt><trkpt lat="47.75207470947289" lon="11.839203762359686"><ele>764.0</ele><time>2026-04-18T09:18:37.001Z</time></trkpt><trkpt lat="47.75217539966669" lon="11.839118798938776"><ele>763.25</ele><time>2026-04-18T09:18:38.001Z</time></trkpt><trkpt lat="47.75227456476031" lon="11.839039835077074"><ele>762.5</ele><time>2026-04-18T09:18:39.001Z</time></trkpt><trkpt lat="47.75237672094374" lon="11.838960026297396"><ele>761.75</ele><time>2026-04-18T09:18:40.001Z</time></trkpt><trkpt lat="47.75247818503186" lon="11.838878262755495"><ele>761.0</ele><time>2026-04-18T09:18:41.001Z</time></trkpt><trkpt lat="47.752576784676634" lon="11.838799467498188"><ele>761.0</ele><time>2026-04-18T09:18:42.001Z</time></trkpt><trkpt lat="47.75268855988825" lon="11.838713927799684"><ele>761.0</ele><time>2026-04-18T09:18:43.001Z</time></trkpt><trkpt lat="47.75278745069409" lon="11.838648587950715"><ele>761.0</ele><time>2026-04-18T09:18:44.001Z</time></trkpt><trkpt lat="47.75289022506407" lon="11.838576681133016"><ele>761.0</ele><time>2026-04-18T09:18:45.001Z</time></trkpt><trkpt lat="47.75298772408555" lon="11.838500575960923"><ele>761.25</ele><time>2026-04-18T09:18:46.001Z</time></trkpt><trkpt lat="47.75308732070045" lon="11.838430564501346"><ele>761.5</ele><time>2026-04-18T09:18:47.001Z</time></trkpt><trkpt lat="47.75318597475071" lon="11.838337262374896"><ele>761.75</ele><time>2026-04-18T09:18:48.001Z</time></trkpt><trkpt lat="47.7532934307227" lon="11.838253185357006"><ele>762.0</ele><time>2026-04-18T09:18:49.001Z</time></trkpt><trkpt lat="47.753401900597126" lon="11.838168866140242"><ele>762.0</ele><time>2026-04-18T09:18:50.001Z</time></trkpt><trkpt lat="47.753505140021446" lon="11.838078796788535"><ele>762.0</ele><time>2026-04-18T09:18:51.001Z</time></trkpt><trkpt lat="47.75361545765411" lon="11.837983681021244"><ele>762.0</ele><time>2026-04-18T09:18:52.001Z</time></trkpt><trkpt lat="47.75371693455049" lon="11.837885698573354"><ele>762.0</ele><time>2026-04-18T09:18:53.001Z</time></trkpt><trkpt lat="47.75381535050516" lon="11.83777974676111"><ele>761.75</ele><time>2026-04-18T09:18:54.001Z</time></trkpt><trkpt lat="47.75391402310566" lon="11.837663154507448"><ele>761.5</ele><time>2026-04-18T09:18:55.001Z</time></trkpt><trkpt lat="47.75400505603968" lon="11.83754892643017"><ele>761.25</ele><time>2026-04-18T09:18:56Z</time></trkpt><trkpt lat="47.754091033049576" lon="11.83744082429115"><ele>761.0</ele><time>2026-04-18T09:18:57Z</time></trkpt><trkpt lat="47.75417007148187" lon="11.837329937176305"><ele>761.0</ele><time>2026-04-18T09:18:58Z</time></trkpt><trkpt lat="47.7542482259199" lon="11.837200096960375"><ele>761.0</ele><time>2026-04-18T09:18:59Z</time></trkpt><trkpt lat="47.75432681120481" lon="11.837078386069757"><ele>761.0</ele><time>2026-04-18T09:19:00Z</time></trkpt><trkpt lat="47.75440002685789" lon="11.836950455582848"><ele>761.0</ele><time>2026-04-18T09:19:01Z</time></trkpt><trkpt lat="47.75447450447652" lon="11.83681627836351"><ele>761.5</ele><time>2026-04-18T09:19:02Z</time></trkpt><trkpt lat="47.75454687863368" lon="11.836678583144089"><ele>762.0</ele><time>2026-04-18T09:19:03Z</time></trkpt><trkpt lat="47.75461729103006" lon="11.836537675165896"><ele>762.5</ele><time>2026-04-18T09:19:04Z</time></trkpt><trkpt lat="47.754686888800364" lon="11.836397640454795"><ele>763.0</ele><time>2026-04-18T09:19:05Z</time></trkpt><trkpt lat="47.754772389189434" lon="11.836279723184418"><ele>763.0</ele><time>2026-04-18T09:19:06Z</time></trkpt><trkpt lat="47.75483116798661" lon="11.836134603583819"><ele>763.0</ele><time>2026-04-18T09:19:07Z</time></trkpt><trkpt lat="47.75491184357822" lon="11.83600496436857"><ele>763.0</ele><time>2026-04-18T09:19:08Z</time></trkpt><trkpt lat="47.754989495030806" lon="11.835870098123333"><ele>763.0</ele><time>2026-04-18T09:19:09Z</time></trkpt><trkpt lat="47.75505752388013" lon="11.835724175428082"><ele>763.25</ele><time>2026-04-18T09:19:10Z</time></trkpt><trkpt lat="47.75512626289553" lon="11.835572289766889"><ele>763.5</ele><time>2026-04-18T09:19:11Z</time></trkpt><trkpt lat="47.75519327262429" lon="11.835416675188647"><ele>763.75</ele><time>2026-04-18T09:19:12Z</time></trkpt><trkpt lat="47.7552621037387" lon="11.835257426490072"><ele>764.0</ele><time>2026-04-18T09:19:13Z</time></trkpt><trkpt lat="47.755334241827995" lon="11.835100419716158"><ele>764.0</ele><time>2026-04-18T09:19:14Z</time></trkpt><trkpt lat="47.75540397372494" lon="11.83495549522334"><ele>764.0</ele><time>2026-04-18T09:19:15Z</time></trkpt><trkpt lat="47.75547787526735" lon="11.834811880908157"><ele>764.0</ele><time>2026-04-18T09:19:16Z</time></trkpt><trkpt lat="47.75556303866961" lon="11.834676987257005"><ele>764.0</ele><time>2026-04-18T09:19:17Z</time></trkpt><trkpt lat="47.75565372573803" lon="11.834559595904603"><ele>764.0</ele><time>2026-04-18T09:19:18Z</time></trkpt><trkpt lat="47.75574082518906" lon="11.83445121744375"><ele>764.0</ele><time>2026-04-18T09:19:19Z</time></trkpt><trkpt lat="47.75583408388039" lon="11.834347456057904"><ele>764.0</ele><time>2026-04-18T09:19:20Z</time></trkpt><trkpt lat="47.75593028619592" lon="11.834249222457984"><ele>764.0</ele><time>2026-04-18T09:19:21Z</time></trkpt><trkpt lat="47.75601570703303" lon="11.83415789870607"><ele>766.6</ele><time>2026-04-18T09:19:22Z</time></trkpt><trkpt lat="47.75609404417636" lon="11.834069007033287"><ele>769.2</ele><time>2026-04-18T09:19:23Z</time></trkpt><trkpt lat="47.75617141971178" lon="11.833977833271442"><ele>771.8000000000001</ele><time>2026-04-18T09:19:24Z</time></trkpt><trkpt lat="47.75623984518744" lon="11.833871180526971"><ele>774.4000000000001</ele><time>2026-04-18T09:19:25Z</time></trkpt><trkpt lat="47.75629464756121" lon="11.833742805720712"><ele>777.0</ele><time>2026-04-18T09:19:26Z</time></trkpt><trkpt lat="47.75631193278054" lon="11.833598189551214"><ele>775.6</ele><time>2026-04-18T09:19:27Z</time></trkpt><trkpt lat="47.75634831923915" lon="11.8334651918025"><ele>774.2</ele><time>2026-04-18T09:19:28Z</time></trkpt><trkpt lat="47.75635755278735" lon="11.833313704083697"><ele>772.8</ele><time>2026-04-18T09:19:29Z</time></trkpt><trkpt lat="47.75636382375523" lon="11.833157356775304"><ele>771.4</ele><time>2026-04-18T09:19:30Z</time></trkpt><trkpt lat="47.756372336600855" lon="11.83300375034234"><ele>770.0</ele><time>2026-04-18T09:19:31Z</time></trkpt><trkpt lat="47.75636341297976" lon="11.83286349324787"><ele>770.0</ele><time>2026-04-18T09:19:32Z</time></trkpt><trkpt lat="47.756373300929205" lon="11.832725268646133"><ele>770.0</ele><time>2026-04-18T09:19:33Z</time></trkpt><trkpt lat="47.75638070495804" lon="11.832590684476072"><ele>770.0</ele><time>2026-04-18T09:19:34Z</time></trkpt><trkpt lat="47.7563939114022" lon="11.83246179575343"><ele>770.0</ele><time>2026-04-18T09:19:35Z</time></trkpt><trkpt lat="47.75641352884448" lon="11.832329460272815"><ele>770.0</ele><time>2026-04-18T09:19:36Z</time></trkpt><trkpt lat="47.75643861233091" lon="11.832202428800173"><ele>769.0</ele><time>2026-04-18T09:19:37Z</time></trkpt><trkpt lat="47.75646774734742" lon="11.8320750710779"><ele>768.0</ele><time>2026-04-18T09:19:38Z</time></trkpt><trkpt lat="47.75650249415136" lon="11.831946495378222"><ele>767.0</ele><time>2026-04-18T09:19:39Z</time></trkpt><trkpt lat="47.75654295656469" lon="11.831816345997218"><ele>766.0</ele><time>2026-04-18T09:19:40Z</time></trkpt><trkpt lat="47.756588262866565" lon="11.83168241449054"><ele>765.0</ele><time>2026-04-18T09:19:41Z</time></trkpt><trkpt lat="47.75663321589816" lon="11.831548817234783"><ele>763.4</ele><time>2026-04-18T09:19:42Z</time></trkpt><trkpt lat="47.75669555983767" lon="11.831422328795332"><ele>761.8</ele><time>2026-04-18T09:19:43Z</time></trkpt><trkpt lat="47.75675328981462" lon="11.831306905279229"><ele>760.2</ele><time>2026-04-18T09:19:44Z</time></trkpt><trkpt lat="47.75680660052687" lon="11.831189524265573"><ele>758.6</ele><time>2026-04-18T09:19:45Z</time></trkpt><trkpt lat="47.756866729750726" lon="11.831076491040175"><ele>757.0</ele><time>2026-04-18T09:19:46Z</time></trkpt><trkpt lat="47.75692916352145" lon="11.83096357863633"><ele>756.2</ele><time>2026-04-18T09:19:47.001Z</time></trkpt><trkpt lat="47.75699618592255" lon="11.830851058734886"><ele>755.4000000000001</ele><time>2026-04-18T09:19:48.001Z</time></trkpt><trkpt lat="47.75706626506777" lon="11.830740102326684"><ele>754.5999999999999</ele><time>2026-04-18T09:19:49.001Z</time></trkpt><trkpt lat="47.75714362314636" lon="11.830630716064029"><ele>753.8</ele><time>2026-04-18T09:19:50.001Z</time></trkpt><trkpt lat="47.75722396392761" lon="11.830517208495205"><ele>753.0</ele><time>2026-04-18T09:19:51.001Z</time></trkpt><trkpt lat="47.757306002731774" lon="11.830402274431211"><ele>753.0</ele><time>2026-04-18T09:19:52.001Z</time></trkpt><trkpt lat="47.75739147467799" lon="11.830289111426048"><ele>753.0</ele><time>2026-04-18T09:19:53.001Z</time></trkpt><trkpt lat="47.757475457292166" lon="11.83018016649917"><ele>753.0</ele><time>2026-04-18T09:19:54.001Z</time></trkpt><trkpt lat="47.75755626316412" lon="11.830071264888119"><ele>753.0</ele><time>2026-04-18T09:19:55.001Z</time></trkpt><trkpt lat="47.75763559018101" lon="11.829963270188903"><ele>753.0</ele><time>2026-04-18T09:19:56Z</time></trkpt><trkpt lat="47.757714785586494" lon="11.829853202674688"><ele>752.5999999999999</ele><time>2026-04-18T09:19:57Z</time></trkpt><trkpt lat="47.757796711312395" lon="11.829742926777145"><ele>752.1999999999999</ele><time>2026-04-18T09:19:58Z</time></trkpt><trkpt lat="47.75787953497324" lon="11.829634372723952"><ele>751.8</ele><time>2026-04-18T09:19:59Z</time></trkpt><trkpt lat="47.757961498149626" lon="11.829527194384413"><ele>751.4</ele><time>2026-04-18T09:20:00Z</time></trkpt><trkpt lat="47.758043123902674" lon="11.829412198722762"><ele>751.0</ele><time>2026-04-18T09:20:01Z</time></trkpt><trkpt lat="47.75812440209829" lon="11.829307622549386"><ele>750.0</ele><time>2026-04-18T09:20:02Z</time></trkpt><trkpt lat="47.758206821651584" lon="11.829204114158516"><ele>749.0</ele><time>2026-04-18T09:20:03Z</time></trkpt><trkpt lat="47.75828846265257" lon="11.82909644269578"><ele>748.0</ele><time>2026-04-18T09:20:04Z</time></trkpt><trkpt lat="47.75837067499284" lon="11.828988426085342"><ele>747.0</ele><time>2026-04-18T09:20:05Z</time></trkpt><trkpt lat="47.75845242736347" lon="11.828877615689075"><ele>746.0</ele><time>2026-04-18T09:20:06Z</time></trkpt><trkpt lat="47.7585566006059" lon="11.82880263256138"><ele>746.0</ele><time>2026-04-18T09:20:07Z</time></trkpt><trkpt lat="47.758651504651546" lon="11.828724326625782"><ele>746.0</ele><time>2026-04-18T09:20:08Z</time></trkpt><trkpt lat="47.758736513150616" lon="11.82865810143245"><ele>746.0</ele><time>2026-04-18T09:20:09Z</time></trkpt><trkpt lat="47.75883404324123" lon="11.828587477861408"><ele>746.0</ele><time>2026-04-18T09:20:10Z</time></trkpt><trkpt lat="47.75893407583495" lon="11.828494231379471"><ele>746.0</ele><time>2026-04-18T09:20:11Z</time></trkpt><trkpt lat="47.75904139183157" lon="11.828435319863278"><ele>745.4</ele><time>2026-04-18T09:20:12Z</time></trkpt><trkpt lat="47.7591334259913" lon="11.828345084753964"><ele>744.8</ele><time>2026-04-18T09:20:13Z</time></trkpt><trkpt lat="47.759237062622574" lon="11.828287920647362"><ele>744.1999999999999</ele><time>2026-04-18T09:20:14Z</time></trkpt><trkpt lat="47.759333055105444" lon="11.828214964897652"><ele>743.5999999999999</ele><time>2026-04-18T09:20:15Z</time></trkpt><trkpt lat="47.75942393122551" lon="11.828148611240547"><ele>743.0</ele><time>2026-04-18T09:20:16Z</time></trkpt><trkpt lat="47.75950896604862" lon="11.828085490522737"><ele>743.0</ele><time>2026-04-18T09:20:17Z</time></trkpt><trkpt lat="47.75958426025221" lon="11.828025700496088"><ele>743.0</ele><time>2026-04-18T09:20:18Z</time></trkpt><trkpt lat="47.75965161432237" lon="11.82797619749465"><ele>743.0</ele><time>2026-04-18T09:20:19Z</time></trkpt><trkpt lat="47.759761967394525" lon="11.827898018464502"><ele>743.0</ele><time>2026-04-18T09:20:21Z</time></trkpt><trkpt lat="47.759851385260056" lon="11.82783814998936"><ele>743.0</ele><time>2026-04-18T09:20:23Z</time></trkpt><trkpt lat="47.75993681386057" lon="11.827780891030987"><ele>743.0</ele><time>2026-04-18T09:20:25Z</time></trkpt><trkpt lat="47.76003288537224" lon="11.827713921964783"><ele>743.0</ele><time>2026-04-18T09:20:27Z</time></trkpt><trkpt lat="47.76009368539324" lon="11.827674951105843"><ele>743.0</ele><time>2026-04-18T09:20:28Z</time></trkpt><trkpt lat="47.76015623149625" lon="11.827634384168022"><ele>743.0</ele><time>2026-04-18T09:20:29Z</time></trkpt><trkpt lat="47.76022559048827" lon="11.827589465510004"><ele>743.0</ele><time>2026-04-18T09:20:30Z</time></trkpt><trkpt lat="47.76030393430646" lon="11.827543419661406"><ele>743.0</ele><time>2026-04-18T09:20:31Z</time></trkpt><trkpt lat="47.76038762870515" lon="11.827499544586443"><ele>742.8333333333333</ele><time>2026-04-18T09:20:32Z</time></trkpt><trkpt lat="47.76046520821261" lon="11.827456789344032"><ele>742.6666666666666</ele><time>2026-04-18T09:20:33Z</time></trkpt><trkpt lat="47.76054358560529" lon="11.827408950916713"><ele>742.5</ele><time>2026-04-18T09:20:34Z</time></trkpt><trkpt lat="47.76062678310377" lon="11.827357330829411"><ele>742.3333333333334</ele><time>2026-04-18T09:20:35Z</time></trkpt><trkpt lat="47.760715728681994" lon="11.827303835031094"><ele>742.1666666666667</ele><time>2026-04-18T09:20:36Z</time></trkpt><trkpt lat="47.76079902847392" lon="11.82725293220242"><ele>742.0</ele><time>2026-04-18T09:20:37Z</time></trkpt><trkpt lat="47.76088104516422" lon="11.827207429136868"><ele>742.0</ele><time>2026-04-18T09:20:38Z</time></trkpt><trkpt lat="47.760963263404726" lon="11.827168820532595"><ele>742.0</ele><time>2026-04-18T09:20:39Z</time></trkpt><trkpt lat="47.76104283691261" lon="11.827117359862328"><ele>742.0</ele><time>2026-04-18T09:20:40Z</time></trkpt><trkpt lat="47.76112978285933" lon="11.82706929337443"><ele>742.0</ele><time>2026-04-18T09:20:41Z</time></trkpt><trkpt lat="47.76122640037305" lon="11.827023597297014"><ele>742.0</ele><time>2026-04-18T09:20:42Z</time></trkpt><trkpt lat="47.76132163307317" lon="11.826982122207347"><ele>742.0</ele><time>2026-04-18T09:20:43Z</time></trkpt><trkpt lat="47.76141498136137" lon="11.826948359145494"><ele>742.0</ele><time>2026-04-18T09:20:44Z</time></trkpt><trkpt lat="47.761516096012656" lon="11.826927713032386"><ele>742.0</ele><time>2026-04-18T09:20:45Z</time></trkpt><trkpt lat="47.76162266058903" lon="11.826919816679869"><ele>742.0</ele><time>2026-04-18T09:20:46Z</time></trkpt><trkpt lat="47.761730026736345" lon="11.826911064053034"><ele>742.0</ele><time>2026-04-18T09:20:47Z</time></trkpt><trkpt lat="47.761834703608294" lon="11.8269071839416"><ele>741.6</ele><time>2026-04-18T09:20:48Z</time></trkpt><trkpt lat="47.76193876508612" lon="11.826902922888571"><ele>741.2</ele><time>2026-04-18T09:20:49Z</time></trkpt><trkpt lat="47.76203975466504" lon="11.826897483273948"><ele>740.8</ele><time>2026-04-18T09:20:50Z</time></trkpt><trkpt lat="47.76213366279505" lon="11.826889811396736"><ele>740.4</ele><time>2026-04-18T09:20:51Z</time></trkpt><trkpt lat="47.76221766479326" lon="11.826884836833512"><ele>740.0</ele><time>2026-04-18T09:20:52Z</time></trkpt><trkpt lat="47.76229342576337" lon="11.826880243492921"><ele>740.0</ele><time>2026-04-18T09:20:53Z</time></trkpt><trkpt lat="47.76236024209242" lon="11.826874887931805"><ele>740.0</ele><time>2026-04-18T09:20:54Z</time></trkpt><trkpt lat="47.76247798880685" lon="11.826867975519118"><ele>740.0</ele><time>2026-04-18T09:20:56Z</time></trkpt><trkpt lat="47.76255677033064" lon="11.82685335607967"><ele>740.0</ele><time>2026-04-18T09:20:58Z</time></trkpt><trkpt lat="47.76263283469862" lon="11.826837475164155"><ele>740.0</ele><time>2026-04-18T09:21:00Z</time></trkpt><trkpt lat="47.76270795461192" lon="11.82683977891742"><ele>740.0</ele><time>2026-04-18T09:21:04Z</time></trkpt><trkpt lat="47.762781020247196" lon="11.826905464626158"><ele>739.9999999999999</ele><time>2026-04-18T09:21:08Z</time></trkpt><trkpt lat="47.76283798651771" lon="11.826945351175851"><ele>740.0</ele><time>2026-04-18T09:21:09Z</time></trkpt><trkpt lat="47.76290665939787" lon="11.826917279328915"><ele>740.0</ele><time>2026-04-18T09:21:10Z</time></trkpt><trkpt lat="47.76297597728676" lon="11.826887087290162"><ele>740.0</ele><time>2026-04-18T09:21:11Z</time></trkpt><trkpt lat="47.763037185499556" lon="11.826831250295827"><ele>740.0</ele><time>2026-04-18T09:21:12Z</time></trkpt><trkpt lat="47.76310510966454" lon="11.826773927305076"><ele>739.9999999999999</ele><time>2026-04-18T09:21:13Z</time></trkpt><trkpt lat="47.7631934913858" lon="11.826744053414837"><ele>740.0</ele><time>2026-04-18T09:21:14Z</time></trkpt><trkpt lat="47.763276150889915" lon="11.82672431360703"><ele>739.2</ele><time>2026-04-18T09:21:15Z</time></trkpt><trkpt lat="47.763368540403924" lon="11.826709112185487"><ele>738.4</ele><time>2026-04-18T09:21:16Z</time></trkpt><trkpt lat="47.763462142048034" lon="11.8266888508271"><ele>737.5999999999999</ele><time>2026-04-18T09:21:17Z</time></trkpt><trkpt lat="47.76356394016751" lon="11.82665652237963"><ele>736.8</ele><time>2026-04-18T09:21:18Z</time></trkpt><trkpt lat="47.76367392158412" lon="11.82661773434892"><ele>736.0</ele><time>2026-04-18T09:21:19Z</time></trkpt><trkpt lat="47.76377732248854" lon="11.82658197055192"><ele>735.5999999999999</ele><time>2026-04-18T09:21:20Z</time></trkpt><trkpt lat="47.7638737031464" lon="11.82654548557594"><ele>735.2</ele><time>2026-04-18T09:21:21Z</time></trkpt><trkpt lat="47.7639674943921" lon="11.826504407528573"><ele>734.8</ele><time>2026-04-18T09:21:22Z</time></trkpt><trkpt lat="47.76405973797778" lon="11.82646613164013"><ele>734.4000000000001</ele><time>2026-04-18T09:21:23Z</time></trkpt><trkpt lat="47.76415014687163" lon="11.826422546377604"><ele>734.0</ele><time>2026-04-18T09:21:24Z</time></trkpt><trkpt lat="47.764247128749886" lon="11.826380396096505"><ele>734.0</ele><time>2026-04-18T09:21:25Z</time></trkpt><trkpt lat="47.764346523472" lon="11.826337670353897"><ele>734.0</ele><time>2026-04-18T09:21:26Z</time></trkpt><trkpt lat="47.764442827482014" lon="11.82629484368158"><ele>734.0</ele><time>2026-04-18T09:21:27Z</time></trkpt><trkpt lat="47.764542435444426" lon="11.826248845552081"><ele>734.0</ele><time>2026-04-18T09:21:28Z</time></trkpt><trkpt lat="47.764648290555" lon="11.826204895449411"><ele>734.0</ele><time>2026-04-18T09:21:29Z</time></trkpt><trkpt lat="47.76475424125223" lon="11.826154946052549"><ele>733.2</ele><time>2026-04-18T09:21:30Z</time></trkpt><trkpt lat="47.76486101027977" lon="11.826106840588029"><ele>732.4000000000001</ele><time>2026-04-18T09:21:31Z</time></trkpt><trkpt lat="47.76496670723853" lon="11.826067123347764"><ele>731.6</ele><time>2026-04-18T09:21:32Z</time></trkpt><trkpt lat="47.76506999474226" lon="11.826022898954331"><ele>730.8</ele><time>2026-04-18T09:21:33Z</time></trkpt><trkpt lat="47.76517023556608" lon="11.825977598444938"><ele>730.0</ele><time>2026-04-18T09:21:34Z</time></trkpt><trkpt lat="47.76526929783163" lon="11.825936683773662"><ele>729.4</ele><time>2026-04-18T09:21:35Z</time></trkpt><trkpt lat="47.76536733488369" lon="11.825898350734498"><ele>728.8</ele><time>2026-04-18T09:21:36Z</time></trkpt><trkpt lat="47.765462746462816" lon="11.825856969556968"><ele>728.2</ele><time>2026-04-18T09:21:37Z</time></trkpt><trkpt lat="47.76555876655063" lon="11.825821895130622"><ele>727.6</ele><time>2026-04-18T09:21:38Z</time></trkpt><trkpt lat="47.7656558970006" lon="11.825784110248843"><ele>727.0</ele><time>2026-04-18T09:21:39Z</time></trkpt><trkpt lat="47.76575339938261" lon="11.825744879874735"><ele>727.0</ele><time>2026-04-18T09:21:40Z</time></trkpt><trkpt lat="47.76585171395682" lon="11.825702127303204"><ele>727.0</ele><time>2026-04-18T09:21:41Z</time></trkpt><trkpt lat="47.76595115095164" lon="11.825659950065088"><ele>727.0</ele><time>2026-04-18T09:21:42Z</time></trkpt><trkpt lat="47.76605594740923" lon="11.825611568361657"><ele>727.0</ele><time>2026-04-18T09:21:43Z</time></trkpt><trkpt lat="47.766167926913944" lon="11.82556017773516"><ele>727.0</ele><time>2026-04-18T09:21:44Z</time></trkpt><trkpt lat="47.7662904536601" lon="11.825511438851661"><ele>727.25</ele><time>2026-04-18T09:21:45Z</time></trkpt><trkpt lat="47.76641625119548" lon="11.825464653415136"><ele>727.5</ele><time>2026-04-18T09:21:46Z</time></trkpt><trkpt lat="47.766546516085995" lon="11.825423198721083"><ele>727.75</ele><time>2026-04-18T09:21:47Z</time></trkpt><trkpt lat="47.76668068915966" lon="11.825420617202868"><ele>728.0</ele><time>2026-04-18T09:21:48Z</time></trkpt><trkpt lat="47.76680584589269" lon="11.825405328821539"><ele>728.0</ele><time>2026-04-18T09:21:49Z</time></trkpt><trkpt lat="47.766924176572495" lon="11.825371794323146"><ele>728.0</ele><time>2026-04-18T09:21:50Z</time></trkpt><trkpt lat="47.76704004669436" lon="11.82537990455731"><ele>728.0</ele><time>2026-04-18T09:21:51Z</time></trkpt><trkpt lat="47.767156885054476" lon="11.825394503052149"><ele>728.0</ele><time>2026-04-18T09:21:52Z</time></trkpt><trkpt lat="47.76727512828423" lon="11.825417267579919"><ele>728.0</ele><time>2026-04-18T09:21:53Z</time></trkpt><trkpt lat="47.767388475036164" lon="11.825444670880922"><ele>728.0</ele><time>2026-04-18T09:21:54Z</time></trkpt><trkpt lat="47.767499408919875" lon="11.825469376070703"><ele>728.0</ele><time>2026-04-18T09:21:55Z</time></trkpt><trkpt lat="47.76760691586769" lon="11.8254924844639"><ele>728.0</ele><time>2026-04-18T09:21:56Z</time></trkpt><trkpt lat="47.767723620278346" lon="11.825514529937424"><ele>727.5</ele><time>2026-04-18T09:21:57Z</time></trkpt><trkpt lat="47.76783645119503" lon="11.825539581502213"><ele>727.0</ele><time>2026-04-18T09:21:58Z</time></trkpt><trkpt lat="47.767953773218665" lon="11.825565280423442"><ele>726.5</ele><time>2026-04-18T09:21:59Z</time></trkpt><trkpt lat="47.768079766980826" lon="11.82558314805195"><ele>726.0</ele><time>2026-04-18T09:22:00Z</time></trkpt><trkpt lat="47.768212167525995" lon="11.825570010818225"><ele>726.0</ele><time>2026-04-18T09:22:01Z</time></trkpt><trkpt lat="47.76834371260816" lon="11.825574953819155"><ele>726.0</ele><time>2026-04-18T09:22:02Z</time></trkpt><trkpt lat="47.76847852189429" lon="11.825570876117737"><ele>726.0</ele><time>2026-04-18T09:22:03Z</time></trkpt><trkpt lat="47.76860418690486" lon="11.82558071194318"><ele>726.0</ele><time>2026-04-18T09:22:04Z</time></trkpt><trkpt lat="47.768733024737934" lon="11.825583718391663"><ele>726.25</ele><time>2026-04-18T09:22:05Z</time></trkpt><trkpt lat="47.76885875594235" lon="11.825622473622298"><ele>726.5</ele><time>2026-04-18T09:22:06Z</time></trkpt><trkpt lat="47.7689819787459" lon="11.82566836415509"><ele>726.75</ele><time>2026-04-18T09:22:07Z</time></trkpt><trkpt lat="47.7690932618059" lon="11.825714220262677"><ele>727.0</ele><time>2026-04-18T09:22:08Z</time></trkpt><trkpt lat="47.76919701953016" lon="11.82575502729984"><ele>727.0</ele><time>2026-04-18T09:22:09Z</time></trkpt><trkpt lat="47.769300367430326" lon="11.825798427910863"><ele>727.0</ele><time>2026-04-18T09:22:10Z</time></trkpt><trkpt lat="47.769415800996065" lon="11.825849945020485"><ele>727.0</ele><time>2026-04-18T09:22:11Z</time></trkpt><trkpt lat="47.76953872751234" lon="11.825905750732492"><ele>727.0</ele><time>2026-04-18T09:22:12Z</time></trkpt><trkpt lat="47.76966463787239" lon="11.825962813920665"><ele>728.0</ele><time>2026-04-18T09:22:13Z</time></trkpt><trkpt lat="47.76979365060821" lon="11.82601790104622"><ele>729.0</ele><time>2026-04-18T09:22:14Z</time></trkpt><trkpt lat="47.76992909714664" lon="11.826073369410947"><ele>730.0</ele><time>2026-04-18T09:22:15Z</time></trkpt><trkpt lat="47.77006841671718" lon="11.826133502475331"><ele>731.0</ele><time>2026-04-18T09:22:16Z</time></trkpt><trkpt lat="47.77020838275969" lon="11.826192568342055"><ele>731.0</ele><time>2026-04-18T09:22:17Z</time></trkpt><trkpt lat="47.770339904947406" lon="11.826248640965188"><ele>731.0</ele><time>2026-04-18T09:22:18Z</time></trkpt><trkpt lat="47.77046672618759" lon="11.826303856971267"><ele>731.0</ele><time>2026-04-18T09:22:19Z</time></trkpt><trkpt lat="47.77059124410538" lon="11.82635839162119"><ele>731.0</ele><time>2026-04-18T09:22:20Z</time></trkpt><trkpt lat="47.77071461818831" lon="11.826414996810225"><ele>731.0</ele><time>2026-04-18T09:22:21Z</time></trkpt><trkpt lat="47.7708474235316" lon="11.826461506616257"><ele>731.0</ele><time>2026-04-18T09:22:22Z</time></trkpt><trkpt lat="47.770983850055316" lon="11.826498717115056"><ele>731.0</ele><time>2026-04-18T09:22:23Z</time></trkpt><trkpt lat="47.77112202622841" lon="11.826534232924075"><ele>731.0</ele><time>2026-04-18T09:22:24Z</time></trkpt><trkpt lat="47.77126088679141" lon="11.82658664384358"><ele>729.75</ele><time>2026-04-18T09:22:25Z</time></trkpt><trkpt lat="47.77140354814061" lon="11.826609248598656"><ele>728.5</ele><time>2026-04-18T09:22:26Z</time></trkpt><trkpt lat="47.77154062619751" lon="11.826659683033027"><ele>727.25</ele><time>2026-04-18T09:22:27Z</time></trkpt><trkpt lat="47.771673264476945" lon="11.826709934289735"><ele>726.0</ele><time>2026-04-18T09:22:28Z</time></trkpt><trkpt lat="47.77180427895347" lon="11.826756325061433"><ele>726.75</ele><time>2026-04-18T09:22:29Z</time></trkpt><trkpt lat="47.7719294895765" lon="11.826803860156064"><ele>727.5</ele><time>2026-04-18T09:22:30Z</time></trkpt><trkpt lat="47.772054829272136" lon="11.826856061838967"><ele>728.25</ele><time>2026-04-18T09:22:31Z</time></trkpt><trkpt lat="47.77218024233789" lon="11.826914898444919"><ele>729.0</ele><time>2026-04-18T09:22:32Z</time></trkpt><trkpt lat="47.77230392239158" lon="11.826976328167847"><ele>729.0</ele><time>2026-04-18T09:22:33Z</time></trkpt><trkpt lat="47.77241645040081" lon="11.82705546367399"><ele>729.0</ele><time>2026-04-18T09:22:34Z</time></trkpt><trkpt lat="47.77254560559434" lon="11.82713611297336"><ele>729.0</ele><time>2026-04-18T09:22:35Z</time></trkpt><trkpt lat="47.77267604368576" lon="11.827222511706385"><ele>729.0</ele><time>2026-04-18T09:22:36Z</time></trkpt><trkpt lat="47.77279584573698" lon="11.827309761427589"><ele>729.0</ele><time>2026-04-18T09:22:37Z</time></trkpt><trkpt lat="47.77291147154292" lon="11.827395799976877"><ele>729.0</ele><time>2026-04-18T09:22:38Z</time></trkpt><trkpt lat="47.7730268025306" lon="11.827482309338828"><ele>729.0</ele><time>2026-04-18T09:22:39Z</time></trkpt><trkpt lat="47.77314860665572" lon="11.827573347526062"><ele>729.0</ele><time>2026-04-18T09:22:40Z</time></trkpt><trkpt lat="47.773273621464796" lon="11.827662747786716"><ele>728.5</ele><time>2026-04-18T09:22:41Z</time></trkpt><trkpt lat="47.77339953510221" lon="11.827750440762543"><ele>728.0</ele><time>2026-04-18T09:22:42Z</time></trkpt><trkpt lat="47.77352772679596" lon="11.827836326717618"><ele>727.5</ele><time>2026-04-18T09:22:43Z</time></trkpt><trkpt lat="47.77366164261922" lon="11.827920507516952"><ele>727.0</ele><time>2026-04-18T09:22:44Z</time></trkpt><trkpt lat="47.77380218441152" lon="11.82799286635743"><ele>726.75</ele><time>2026-04-18T09:22:45Z</time></trkpt><trkpt lat="47.77394175242437" lon="11.82805709454115"><ele>726.5</ele><time>2026-04-18T09:22:46Z</time></trkpt><trkpt lat="47.77408516501648" lon="11.828114291672659"><ele>726.25</ele><time>2026-04-18T09:22:47Z</time></trkpt><trkpt lat="47.774233708782" lon="11.828156829761392"><ele>726.0</ele><time>2026-04-18T09:22:48Z</time></trkpt><trkpt lat="47.77438273963693" lon="11.828190558179601"><ele>725.3333333333334</ele><time>2026-04-18T09:22:49Z</time></trkpt><trkpt lat="47.77453440072775" lon="11.828217517275633"><ele>724.6666666666667</ele><time>2026-04-18T09:22:50Z</time></trkpt><trkpt lat="47.774686454321646" lon="11.828243227285352"><ele>724.0</ele><time>2026-04-18T09:22:51Z</time></trkpt><trkpt lat="47.77483898597178" lon="11.82826317384272"><ele>724.0</ele><time>2026-04-18T09:22:52Z</time></trkpt><trkpt lat="47.774994040219916" lon="11.828281009020289"><ele>724.0</ele><time>2026-04-18T09:22:53Z</time></trkpt><trkpt lat="47.77515275982477" lon="11.828297410500944"><ele>724.0</ele><time>2026-04-18T09:22:54Z</time></trkpt><trkpt lat="47.775313655537936" lon="11.828311549023605"><ele>723.6666666666667</ele><time>2026-04-18T09:22:55Z</time></trkpt><trkpt lat="47.77547750397615" lon="11.82832730566259"><ele>723.3333333333334</ele><time>2026-04-18T09:22:56Z</time></trkpt><trkpt lat="47.77564206218878" lon="11.82834480701567"><ele>723.0</ele><time>2026-04-18T09:22:57Z</time></trkpt><trkpt lat="47.775808164476814" lon="11.828362237281517"><ele>723.0</ele><time>2026-04-18T09:22:58Z</time></trkpt><trkpt lat="47.775975222601055" lon="11.828378803579081"><ele>723.0</ele><time>2026-04-18T09:22:59Z</time></trkpt><trkpt lat="47.7761427045319" lon="11.828395746072454"><ele>723.0</ele><time>2026-04-18T09:23:00Z</time></trkpt><trkpt lat="47.77630733913731" lon="11.828412336033443"><ele>723.3333333333334</ele><time>2026-04-18T09:23:01Z</time></trkpt><trkpt lat="47.776473164269454" lon="11.828430516902781"><ele>723.6666666666667</ele><time>2026-04-18T09:23:02Z</time></trkpt><trkpt lat="47.77664385635779" lon="11.828456542301478"><ele>724.0</ele><time>2026-04-18T09:23:03Z</time></trkpt><trkpt lat="47.77681616711373" lon="11.828489476964473"><ele>723.3333333333334</ele><time>2026-04-18T09:23:04Z</time></trkpt><trkpt lat="47.77699055225514" lon="11.828523931159689"><ele>722.6666666666666</ele><time>2026-04-18T09:23:05Z</time></trkpt><trkpt lat="47.77716893116331" lon="11.828559575412122"><ele>722.0</ele><time>2026-04-18T09:23:06Z</time></trkpt><trkpt lat="47.777343732757416" lon="11.828598867491676"><ele>722.0</ele><time>2026-04-18T09:23:07Z</time></trkpt><trkpt lat="47.77751606885019" lon="11.828641641031718"><ele>722.0</ele><time>2026-04-18T09:23:08Z</time></trkpt><trkpt lat="47.77768507570289" lon="11.828693337414213"><ele>722.0</ele><time>2026-04-18T09:23:09Z</time></trkpt><trkpt lat="47.77785110230596" lon="11.828746765260364"><ele>722.0</ele><time>2026-04-18T09:23:10Z</time></trkpt><trkpt lat="47.77801535850081" lon="11.828811166704554"><ele>722.0</ele><time>2026-04-18T09:23:11Z</time></trkpt><trkpt lat="47.77817587468019" lon="11.82888524134425"><ele>722.0</ele><time>2026-04-18T09:23:12Z</time></trkpt><trkpt lat="47.77832882782177" lon="11.828966597463749"><ele>722.0</ele><time>2026-04-18T09:23:13Z</time></trkpt><trkpt lat="47.778479485314044" lon="11.829050006009517"><ele>722.0</ele><time>2026-04-18T09:23:14Z</time></trkpt><trkpt lat="47.77863040246908" lon="11.82913657217429"><ele>722.0</ele><time>2026-04-18T09:23:15Z</time></trkpt><trkpt lat="47.77878119513336" lon="11.829227981139013"><ele>721.3333333333333</ele><time>2026-04-18T09:23:16Z</time></trkpt><trkpt lat="47.77893472203822" lon="11.829325006727442"><ele>720.6666666666666</ele><time>2026-04-18T09:23:17Z</time></trkpt><trkpt lat="47.77908670890075" lon="11.829426965070011"><ele>720.0</ele><time>2026-04-18T09:23:18Z</time></trkpt><trkpt lat="47.77923340562422" lon="11.829542398568385"><ele>720.3333333333334</ele><time>2026-04-18T09:23:19Z</time></trkpt><trkpt lat="47.779380151352896" lon="11.82966578034395"><ele>720.6666666666667</ele><time>2026-04-18T09:23:20Z</time></trkpt><trkpt lat="47.77952495117046" lon="11.829791209501586"><ele>721.0</ele><time>2026-04-18T09:23:21Z</time></trkpt><trkpt lat="47.77966583759109" lon="11.829917771517806"><ele>721.0</ele><time>2026-04-18T09:23:22Z</time></trkpt><trkpt lat="47.77980323461967" lon="11.83004531924071"><ele>721.0</ele><time>2026-04-18T09:23:23Z</time></trkpt><trkpt lat="47.779940022269926" lon="11.830167825567386"><ele>721.0</ele><time>2026-04-18T09:23:24Z</time></trkpt><trkpt lat="47.78007528288305" lon="11.830289427608355"><ele>720.0</ele><time>2026-04-18T09:23:25Z</time></trkpt><trkpt lat="47.78020921219287" lon="11.830413721234724"><ele>719.0</ele><time>2026-04-18T09:23:26Z</time></trkpt><trkpt lat="47.78033813214508" lon="11.830542891008479"><ele>718.0</ele><time>2026-04-18T09:23:27Z</time></trkpt><trkpt lat="47.78046506285857" lon="11.83067706591314"><ele>718.0</ele><time>2026-04-18T09:23:28Z</time></trkpt><trkpt lat="47.780588800191126" lon="11.83081670057992"><ele>718.0</ele><time>2026-04-18T09:23:29Z</time></trkpt><trkpt lat="47.78070927933792" lon="11.830960786020889"><ele>718.0</ele><time>2026-04-18T09:23:30Z</time></trkpt><trkpt lat="47.78082161470024" lon="11.8311053291771"><ele>717.8</ele><time>2026-04-18T09:23:31Z</time></trkpt><trkpt lat="47.78092112332096" lon="11.831241931422635"><ele>717.5999999999999</ele><time>2026-04-18T09:23:32Z</time></trkpt><trkpt lat="47.78100410099501" lon="11.831359383755226"><ele>717.4000000000001</ele><time>2026-04-18T09:23:33Z</time></trkpt><trkpt lat="47.78107413407873" lon="11.831459792792845"><ele>717.2</ele><time>2026-04-18T09:23:34Z</time></trkpt><trkpt lat="47.781134933550796" lon="11.831547580574933"><ele>717.0</ele><time>2026-04-18T09:23:35Z</time></trkpt><trkpt lat="47.78118976415547" lon="11.831626158937683"><ele>716.8333333333334</ele><time>2026-04-18T09:23:36Z</time></trkpt><trkpt lat="47.78124169698472" lon="11.831702801966395"><ele>716.6666666666666</ele><time>2026-04-18T09:23:37Z</time></trkpt><trkpt lat="47.78132114261828" lon="11.831825311664605"><ele>716.5</ele><time>2026-04-18T09:23:39Z</time></trkpt><trkpt lat="47.78137568938869" lon="11.831914427734771"><ele>716.3333333333333</ele><time>2026-04-18T09:23:41Z</time></trkpt><trkpt lat="47.781424793056466" lon="11.831997751971487"><ele>716.1666666666666</ele><time>2026-04-18T09:23:43Z</time></trkpt><trkpt lat="47.78147403890702" lon="11.832072671319347"><ele>716.0</ele><time>2026-04-18T09:23:45Z</time></trkpt><trkpt lat="47.7815189011454" lon="11.832150014755687"><ele>716.0</ele><time>2026-04-18T09:23:48Z</time></trkpt><trkpt lat="47.781575808624" lon="11.832242076079714"><ele>716.0</ele><time>2026-04-18T09:23:52Z</time></trkpt><trkpt lat="47.78162813146028" lon="11.832327777449125"><ele>716.0</ele><time>2026-04-18T09:23:54Z</time></trkpt><trkpt lat="47.781711367377966" lon="11.832471456228696"><ele>716.0</ele><time>2026-04-18T09:23:56Z</time></trkpt><trkpt lat="47.781754468906534" lon="11.832549489162426"><ele>716.0</ele><time>2026-04-18T09:23:57Z</time></trkpt><trkpt lat="47.78180787506922" lon="11.832644059550832"><ele>716.0</ele><time>2026-04-18T09:23:58Z</time></trkpt><trkpt lat="47.78186588226875" lon="11.83275172815014"><ele>715.0</ele><time>2026-04-18T09:23:59Z</time></trkpt><trkpt lat="47.78193025402191" lon="11.832864921204058"><ele>714.0</ele><time>2026-04-18T09:24:00Z</time></trkpt><trkpt lat="47.78200070853426" lon="11.832979837233136"><ele>713.0</ele><time>2026-04-18T09:24:01Z</time></trkpt><trkpt lat="47.78207001752795" lon="11.833093583342988"><ele>712.0</ele><time>2026-04-18T09:24:02Z</time></trkpt><trkpt lat="47.78214291505142" lon="11.833211158718433"><ele>711.0</ele><time>2026-04-18T09:24:03Z</time></trkpt><trkpt lat="47.782215646015544" lon="11.833330467810367"><ele>711.0</ele><time>2026-04-18T09:24:04Z</time></trkpt><trkpt lat="47.78228788775008" lon="11.833446397916576"><ele>711.0</ele><time>2026-04-18T09:24:05Z</time></trkpt><trkpt lat="47.7823624396659" lon="11.833560231095861"><ele>711.0</ele><time>2026-04-18T09:24:06Z</time></trkpt><trkpt lat="47.78244002007932" lon="11.833671552998927"><ele>711.0</ele><time>2026-04-18T09:24:07Z</time></trkpt><trkpt lat="47.78251887809446" lon="11.833777465127476"><ele>711.0</ele><time>2026-04-18T09:24:08Z</time></trkpt><trkpt lat="47.78260246228253" lon="11.833877115612767"><ele>711.5999999999999</ele><time>2026-04-18T09:24:09Z</time></trkpt><trkpt lat="47.78267789381136" lon="11.833967187466063"><ele>712.2</ele><time>2026-04-18T09:24:10Z</time></trkpt><trkpt lat="47.78275348621515" lon="11.83405122298758"><ele>712.8</ele><time>2026-04-18T09:24:11Z</time></trkpt><trkpt lat="47.78282897309944" lon="11.834129736219088"><ele>713.4000000000001</ele><time>2026-04-18T09:24:12Z</time></trkpt><trkpt lat="47.78290739744508" lon="11.834209344060366"><ele>714.0</ele><time>2026-04-18T09:24:13Z</time></trkpt><trkpt lat="47.78299443959394" lon="11.834290168831084"><ele>714.8000000000001</ele><time>2026-04-18T09:24:14Z</time></trkpt><trkpt lat="47.78308567977844" lon="11.834374592311756"><ele>715.6</ele><time>2026-04-18T09:24:15Z</time></trkpt><trkpt lat="47.783171252720415" lon="11.834454278581768"><ele>716.4</ele><time>2026-04-18T09:24:16Z</time></trkpt><trkpt lat="47.78325173651089" lon="11.834532949661504"><ele>717.2</ele><time>2026-04-18T09:24:17Z</time></trkpt><trkpt lat="47.78332881267277" lon="11.834599322032895"><ele>718.0</ele><time>2026-04-18T09:24:18Z</time></trkpt><trkpt lat="47.78340766525192" lon="11.834663013246944"><ele>718.0</ele><time>2026-04-18T09:24:19Z</time></trkpt><trkpt lat="47.78348692764142" lon="11.834727374023618"><ele>718.0</ele><time>2026-04-18T09:24:20Z</time></trkpt><trkpt lat="47.78356531373708" lon="11.834792976920665"><ele>718.0</ele><time>2026-04-18T09:24:21Z</time></trkpt><trkpt lat="47.783637685415776" lon="11.834858833366393"><ele>718.0</ele><time>2026-04-18T09:24:22Z</time></trkpt><trkpt lat="47.78371409041606" lon="11.834925016568995"><ele>718.0</ele><time>2026-04-18T09:24:23Z</time></trkpt><trkpt lat="47.78378447754147" lon="11.834987664995879"><ele>718.0</ele><time>2026-04-18T09:24:24Z</time></trkpt><trkpt lat="47.78384761765901" lon="11.83504803437785"><ele>716.75</ele><time>2026-04-18T09:24:25Z</time></trkpt><trkpt lat="47.78395017084422" lon="11.835148031703019"><ele>715.5</ele><time>2026-04-18T09:24:27Z</time></trkpt><trkpt lat="47.784055637349056" lon="11.835242608392786"><ele>714.25</ele><time>2026-04-18T09:24:29Z</time></trkpt><trkpt lat="47.784149336463024" lon="11.835331087227505"><ele>713.0</ele><time>2026-04-18T09:24:31Z</time></trkpt><trkpt lat="47.78423422951353" lon="11.835414968470554"><ele>713.0</ele><time>2026-04-18T09:24:33Z</time></trkpt><trkpt lat="47.784309452159484" lon="11.835496557538749"><ele>713.0</ele><time>2026-04-18T09:24:35Z</time></trkpt><trkpt lat="47.784375311576554" lon="11.83557539737582"><ele>713.0</ele><time>2026-04-18T09:24:37Z</time></trkpt><trkpt lat="47.78444190756704" lon="11.835652338503094"><ele>713.0</ele><time>2026-04-18T09:24:39Z</time></trkpt><trkpt lat="47.78451891223523" lon="11.835736764404192"><ele>713.0</ele><time>2026-04-18T09:24:41Z</time></trkpt><trkpt lat="47.784610599594316" lon="11.83582960647649"><ele>713.2</ele><time>2026-04-18T09:24:43Z</time></trkpt><trkpt lat="47.78470716727846" lon="11.835930033549074"><ele>713.4</ele><time>2026-04-18T09:24:45Z</time></trkpt><trkpt lat="47.784809151518374" lon="11.836037881063453"><ele>713.6</ele><time>2026-04-18T09:24:47Z</time></trkpt><trkpt lat="47.7848646150693" lon="11.836093867904356"><ele>713.8000000000001</ele><time>2026-04-18T09:24:48Z</time></trkpt><trkpt lat="47.78492011985635" lon="11.83615079937186"><ele>714.0</ele><time>2026-04-18T09:24:49Z</time></trkpt><trkpt lat="47.78498170606221" lon="11.836211105338588"><ele>714.1666666666666</ele><time>2026-04-18T09:24:50Z</time></trkpt><trkpt lat="47.785045892915996" lon="11.836273107026614"><ele>714.3333333333334</ele><time>2026-04-18T09:24:51Z</time></trkpt><trkpt lat="47.78511388946819" lon="11.836332357733324"><ele>714.5</ele><time>2026-04-18T09:24:52Z</time></trkpt><trkpt lat="47.78517870870078" lon="11.836411624472454"><ele>714.6666666666667</ele><time>2026-04-18T09:24:53Z</time></trkpt><trkpt lat="47.78524908822911" lon="11.836467400894364"><ele>714.8333333333334</ele><time>2026-04-18T09:24:54Z</time></trkpt><trkpt lat="47.785316119617754" lon="11.836515820703436"><ele>715.0</ele><time>2026-04-18T09:24:55Z</time></trkpt><trkpt lat="47.78538740269077" lon="11.836543109911263"><ele>714.5</ele><time>2026-04-18T09:24:56Z</time></trkpt><trkpt lat="47.78544655987577" lon="11.836585833579734"><ele>714.0</ele><time>2026-04-18T09:24:57Z</time></trkpt><trkpt lat="47.78554408747429" lon="11.836640606192494"><ele>713.5</ele><time>2026-04-18T09:24:59Z</time></trkpt><trkpt lat="47.78561155671555" lon="11.836678236598877"><ele>713.0</ele><time>2026-04-18T09:25:01Z</time></trkpt><trkpt lat="47.78567355713159" lon="11.836714946444845"><ele>712.5</ele><time>2026-04-18T09:25:04Z</time></trkpt><trkpt lat="47.78573421110814" lon="11.836754406002916"><ele>712.0</ele><time>2026-04-18T09:25:08Z</time></trkpt><trkpt lat="47.78583289750714" lon="11.8368173542178"><ele>711.8333333333334</ele><time>2026-04-18T09:25:11Z</time></trkpt><trkpt lat="47.78594617371603" lon="11.836903198025263"><ele>711.6666666666667</ele><time>2026-04-18T09:25:13Z</time></trkpt><trkpt lat="47.786003882338846" lon="11.836952594647316"><ele>711.5</ele><time>2026-04-18T09:25:14Z</time></trkpt><trkpt lat="47.786068168525865" lon="11.837015599862728"><ele>711.3333333333334</ele><time>2026-04-18T09:25:15Z</time></trkpt><trkpt lat="47.78613123272688" lon="11.837078343538158"><ele>711.1666666666666</ele><time>2026-04-18T09:25:16Z</time></trkpt><trkpt lat="47.786201332605" lon="11.837144058871834"><ele>711.0</ele><time>2026-04-18T09:25:17Z</time></trkpt><trkpt lat="47.78627825981047" lon="11.837219058019544"><ele>711.0</ele><time>2026-04-18T09:25:18Z</time></trkpt><trkpt lat="47.786349866260025" lon="11.83730703909885"><ele>711.0</ele><time>2026-04-18T09:25:19Z</time></trkpt><trkpt lat="47.78642066267253" lon="11.837401065675426"><ele>711.0</ele><time>2026-04-18T09:25:20Z</time></trkpt><trkpt lat="47.78649865702043" lon="11.837494291973691"><ele>711.0</ele><time>2026-04-18T09:25:21Z</time></trkpt><trkpt lat="47.7865740992133" lon="11.837589742019663"><ele>711.0</ele><time>2026-04-18T09:25:22Z</time></trkpt><trkpt lat="47.78664470959428" lon="11.837672570746529"><ele>711.6666666666666</ele><time>2026-04-18T09:25:23Z</time></trkpt><trkpt lat="47.786714598478596" lon="11.837749215894357"><ele>712.3333333333334</ele><time>2026-04-18T09:25:24Z</time></trkpt><trkpt lat="47.78677477525566" lon="11.837805984419758"><ele>713.0</ele><time>2026-04-18T09:25:25Z</time></trkpt><trkpt lat="47.78684650124429" lon="11.837883390856307"><ele>713.6666666666667</ele><time>2026-04-18T09:25:26Z</time></trkpt><trkpt lat="47.78691590785378" lon="11.83797630591479"><ele>714.3333333333334</ele><time>2026-04-18T09:25:27Z</time></trkpt><trkpt lat="47.787002631649884" lon="11.838056135592236"><ele>715.0</ele><time>2026-04-18T09:25:28Z</time></trkpt><trkpt lat="47.78709248367468" lon="11.838132055259587"><ele>715.0</ele><time>2026-04-18T09:25:29Z</time></trkpt><trkpt lat="47.78719120228896" lon="11.838200749472273"><ele>715.0</ele><time>2026-04-18T09:25:30Z</time></trkpt><trkpt lat="47.787292259702426" lon="11.83826686366017"><ele>715.0</ele><time>2026-04-18T09:25:31Z</time></trkpt><trkpt lat="47.78739607907336" lon="11.838328303854034"><ele>715.0</ele><time>2026-04-18T09:25:32Z</time></trkpt><trkpt lat="47.78749955675468" lon="11.838383978713102"><ele>715.0</ele><time>2026-04-18T09:25:33Z</time></trkpt><trkpt lat="47.78760368572671" lon="11.838436317574484"><ele>715.2</ele><time>2026-04-18T09:25:34Z</time></trkpt><trkpt lat="47.7877095408523" lon="11.838483761068611"><ele>715.4</ele><time>2026-04-18T09:25:35Z</time></trkpt><trkpt lat="47.78780978929039" lon="11.838523381215712"><ele>715.5999999999999</ele><time>2026-04-18T09:25:36Z</time></trkpt><trkpt lat="47.78791135068935" lon="11.838559447032647"><ele>715.8</ele><time>2026-04-18T09:25:37Z</time></trkpt><trkpt lat="47.78802470611054" lon="11.838599173372437"><ele>716.0</ele><time>2026-04-18T09:25:38Z</time></trkpt><trkpt lat="47.78815121236023" lon="11.838646698799678"><ele>716.0</ele><time>2026-04-18T09:25:39Z</time></trkpt><trkpt lat="47.78828342672965" lon="11.83870297787656"><ele>716.0</ele><time>2026-04-18T09:25:40Z</time></trkpt><trkpt lat="47.78840643513865" lon="11.838752461671174"><ele>716.0</ele><time>2026-04-18T09:25:41Z</time></trkpt><trkpt lat="47.7885222900118" lon="11.838796557468815"><ele>716.0</ele><time>2026-04-18T09:25:42Z</time></trkpt><trkpt lat="47.78863553304067" lon="11.838837562515668"><ele>715.5</ele><time>2026-04-18T09:25:43Z</time></trkpt><trkpt lat="47.78875093296423" lon="11.838883222309786"><ele>715.0</ele><time>2026-04-18T09:25:44Z</time></trkpt><trkpt lat="47.78886878120898" lon="11.83893149563304"><ele>714.5</ele><time>2026-04-18T09:25:45Z</time></trkpt><trkpt lat="47.7889849812579" lon="11.83898167206265"><ele>714.0</ele><time>2026-04-18T09:25:46Z</time></trkpt><trkpt lat="47.789103062201406" lon="11.839026897553001"><ele>714.0</ele><time>2026-04-18T09:25:47Z</time></trkpt><trkpt lat="47.78921635214008" lon="11.839070136164603"><ele>714.0</ele><time>2026-04-18T09:25:48Z</time></trkpt><trkpt lat="47.78932595402761" lon="11.839112245459837"><ele>714.0</ele><time>2026-04-18T09:25:49Z</time></trkpt><trkpt lat="47.78943403517562" lon="11.839154967932972"><ele>714.0</ele><time>2026-04-18T09:25:50Z</time></trkpt><trkpt lat="47.7895435708583" lon="11.839194024761536"><ele>714.0</ele><time>2026-04-18T09:25:51Z</time></trkpt><trkpt lat="47.789651774345764" lon="11.839230613057637"><ele>714.0</ele><time>2026-04-18T09:25:52Z</time></trkpt><trkpt lat="47.78975312562507" lon="11.8392631405389"><ele>714.0</ele><time>2026-04-18T09:25:53Z</time></trkpt><trkpt lat="47.789849493415424" lon="11.839290518392616"><ele>714.0</ele><time>2026-04-18T09:25:54Z</time></trkpt><trkpt lat="47.78994446841592" lon="11.839318778823364"><ele>714.0</ele><time>2026-04-18T09:25:55Z</time></trkpt><trkpt lat="47.79003807034282" lon="11.839347522464214"><ele>714.0</ele><time>2026-04-18T09:25:56Z</time></trkpt><trkpt lat="47.79012799660029" lon="11.839379551620366"><ele>714.0</ele><time>2026-04-18T09:25:57Z</time></trkpt><trkpt lat="47.79020387791157" lon="11.839403640371662"><ele>714.0</ele><time>2026-04-18T09:25:58Z</time></trkpt><trkpt lat="47.790318020442754" lon="11.839449556248427"><ele>714.0</ele><time>2026-04-18T09:26:00Z</time></trkpt><trkpt lat="47.79041743869783" lon="11.83948372638145"><ele>714.0</ele><time>2026-04-18T09:26:02Z</time></trkpt><trkpt lat="47.79050485265755" lon="11.83951219711792"><ele>713.6666666666666</ele><time>2026-04-18T09:26:04Z</time></trkpt><trkpt lat="47.790586131563806" lon="11.839537086709598"><ele>713.3333333333334</ele><time>2026-04-18T09:26:06Z</time></trkpt><trkpt lat="47.79066470843105" lon="11.839569719993541"><ele>713.0</ele><time>2026-04-18T09:26:08Z</time></trkpt><trkpt lat="47.79072603631386" lon="11.83959209315114"><ele>712.6666666666667</ele><time>2026-04-18T09:26:09Z</time></trkpt><trkpt lat="47.79079954702183" lon="11.83962303749623"><ele>712.3333333333334</ele><time>2026-04-18T09:26:10Z</time></trkpt><trkpt lat="47.790873970463764" lon="11.839644948987361"><ele>712.0</ele><time>2026-04-18T09:26:13Z</time></trkpt><trkpt lat="47.790981030177804" lon="11.839675124548922"><ele>712.1666666666667</ele><time>2026-04-18T09:26:16Z</time></trkpt><trkpt lat="47.79109213811043" lon="11.839720249770714"><ele>712.3333333333334</ele><time>2026-04-18T09:26:18Z</time></trkpt><trkpt lat="47.79116325650894" lon="11.839748564495437"><ele>712.5</ele><time>2026-04-18T09:26:19Z</time></trkpt><trkpt lat="47.79124762939987" lon="11.839776815867669"><ele>712.6666666666666</ele><time>2026-04-18T09:26:20Z</time></trkpt><trkpt lat="47.791329783054834" lon="11.839811569610994"><ele>712.8333333333333</ele><time>2026-04-18T09:26:21Z</time></trkpt><trkpt lat="47.79141524743082" lon="11.839842602914075"><ele>713.0</ele><time>2026-04-18T09:26:22Z</time></trkpt><trkpt lat="47.79150580729432" lon="11.839877695557002"><ele>713.0</ele><time>2026-04-18T09:26:23Z</time></trkpt><trkpt lat="47.791602627545814" lon="11.83991044529566"><ele>713.0</ele><time>2026-04-18T09:26:24Z</time></trkpt><trkpt lat="47.79170110102434" lon="11.83993934346306"><ele>713.0</ele><time>2026-04-18T09:26:25Z</time></trkpt><trkpt lat="47.79180354051483" lon="11.839968361221226"><ele>713.0</ele><time>2026-04-18T09:26:26Z</time></trkpt><trkpt lat="47.791906009353774" lon="11.840001490647108"><ele>713.0</ele><time>2026-04-18T09:26:27Z</time></trkpt><trkpt lat="47.792007366970076" lon="11.840036276570252"><ele>712.8</ele><time>2026-04-18T09:26:28Z</time></trkpt><trkpt lat="47.79210717169267" lon="11.840074044220891"><ele>712.5999999999999</ele><time>2026-04-18T09:26:29Z</time></trkpt><trkpt lat="47.79219780625993" lon="11.840106171962434"><ele>712.4000000000001</ele><time>2026-04-18T09:26:30Z</time></trkpt><trkpt lat="47.79228669713065" lon="11.840138375323605"><ele>712.2</ele><time>2026-04-18T09:26:31Z</time></trkpt><trkpt lat="47.792374770194776" lon="11.840169768269428"><ele>712.0</ele><time>2026-04-18T09:26:32Z</time></trkpt><trkpt lat="47.79246041244831" lon="11.840204033642477"><ele>712.0</ele><time>2026-04-18T09:26:33Z</time></trkpt><trkpt lat="47.79254664945334" lon="11.840238097438082"><ele>712.0</ele><time>2026-04-18T09:26:34Z</time></trkpt><trkpt lat="47.792634698724825" lon="11.840275058491533"><ele>712.0</ele><time>2026-04-18T09:26:35Z</time></trkpt><trkpt lat="47.792726516962325" lon="11.840311739763042"><ele>712.0</ele><time>2026-04-18T09:26:36Z</time></trkpt><trkpt lat="47.79281366724189" lon="11.840346056191578"><ele>712.0</ele><time>2026-04-18T09:26:37Z</time></trkpt><trkpt lat="47.79290484601906" lon="11.840371199313704"><ele>711.8333333333334</ele><time>2026-04-18T09:26:38Z</time></trkpt><trkpt lat="47.792997390500545" lon="11.840398713887025"><ele>711.6666666666667</ele><time>2026-04-18T09:26:39Z</time></trkpt><trkpt lat="47.79308147094976" lon="11.840422504182188"><ele>711.5</ele><time>2026-04-18T09:26:40Z</time></trkpt><trkpt lat="47.79316002228423" lon="11.840447573828618"><ele>711.3333333333334</ele><time>2026-04-18T09:26:41Z</time></trkpt><trkpt lat="47.793239071867504" lon="11.840467978128137"><ele>711.1666666666666</ele><time>2026-04-18T09:26:42Z</time></trkpt><trkpt lat="47.793312300124185" lon="11.840489760755394"><ele>711.0</ele><time>2026-04-18T09:26:43Z</time></trkpt><trkpt lat="47.79338679133042" lon="11.840505265749917"><ele>711.0</ele><time>2026-04-18T09:26:44Z</time></trkpt><trkpt lat="47.79345397722601" lon="11.840527440403886"><ele>711.0</ele><time>2026-04-18T09:26:45Z</time></trkpt><trkpt lat="47.79351694683251" lon="11.840544540202425"><ele>711.0</ele><time>2026-04-18T09:26:46Z</time></trkpt><trkpt lat="47.793629481255714" lon="11.840573288128526"><ele>711.0</ele><time>2026-04-18T09:26:48Z</time></trkpt><trkpt lat="47.79370365038893" lon="11.840593206352757"><ele>711.0</ele><time>2026-04-18T09:26:50Z</time></trkpt><trkpt lat="47.79376583903517" lon="11.84061254417615"><ele>711.0</ele><time>2026-04-18T09:26:53Z</time></trkpt><trkpt lat="47.79384780708864" lon="11.840642447042592"><ele>711.0</ele><time>2026-04-18T09:26:56Z</time></trkpt><trkpt lat="47.79393155231223" lon="11.84067686928146"><ele>711.0</ele><time>2026-04-18T09:26:59Z</time></trkpt><trkpt lat="47.794017713317146" lon="11.840739537089714"><ele>711.0</ele><time>2026-04-18T09:27:02Z</time></trkpt><trkpt lat="47.79408177182489" lon="11.840838886297417"><ele>711.0</ele><time>2026-04-18T09:27:04Z</time></trkpt><trkpt lat="47.79417178617055" lon="11.840918297525109"><ele>711.0</ele><time>2026-04-18T09:27:06Z</time></trkpt><trkpt lat="47.794283711916954" lon="11.84090461786914"><ele>710.8</ele><time>2026-04-18T09:27:08Z</time></trkpt><trkpt lat="47.79439173060283" lon="11.840785704422393"><ele>710.5999999999999</ele><time>2026-04-18T09:27:10Z</time></trkpt><trkpt lat="47.79442680849493" lon="11.840671898575044"><ele>710.4</ele><time>2026-04-18T09:27:11Z</time></trkpt><trkpt lat="47.79445329455785" lon="11.840550867090988"><ele>710.2</ele><time>2026-04-18T09:27:12Z</time></trkpt><trkpt lat="47.79449754427894" lon="11.840430005532658"><ele>710.0</ele><time>2026-04-18T09:27:13Z</time></trkpt><trkpt lat="47.79455901642827" lon="11.840340840634486"><ele>710.0</ele><time>2026-04-18T09:27:14Z</time></trkpt><trkpt lat="47.794645006357" lon="11.840238849179752"><ele>710.0</ele><time>2026-04-18T09:27:15Z</time></trkpt><trkpt lat="47.79474950654166" lon="11.840177690357804"><ele>710.0</ele><time>2026-04-18T09:27:16Z</time></trkpt><trkpt lat="47.79487705459053" lon="11.840133791575282"><ele>710.0</ele><time>2026-04-18T09:27:17Z</time></trkpt><trkpt lat="47.79500588509547" lon="11.840087900149296"><ele>710.25</ele><time>2026-04-18T09:27:18Z</time></trkpt><trkpt lat="47.79514296501791" lon="11.84004133126016"><ele>710.5</ele><time>2026-04-18T09:27:19Z</time></trkpt><trkpt lat="47.79527927314168" lon="11.839994363072845"><ele>710.75</ele><time>2026-04-18T09:27:20Z</time></trkpt><trkpt lat="47.7954250123745" lon="11.83994170914783"><ele>711.0</ele><time>2026-04-18T09:27:21Z</time></trkpt><trkpt lat="47.795568697599194" lon="11.83987471990544"><ele>711.25</ele><time>2026-04-18T09:27:22Z</time></trkpt><trkpt lat="47.795716964627886" lon="11.839806434955603"><ele>711.5</ele><time>2026-04-18T09:27:23Z</time></trkpt><trkpt lat="47.795848596504044" lon="11.839742033347328"><ele>711.75</ele><time>2026-04-18T09:27:24Z</time></trkpt><trkpt lat="47.79596991869306" lon="11.839672410404845"><ele>712.0</ele><time>2026-04-18T09:27:25Z</time></trkpt><trkpt lat="47.79608175109359" lon="11.839592020204831"><ele>712.5</ele><time>2026-04-18T09:27:26Z</time></trkpt><trkpt lat="47.79619133948528" lon="11.839507667104403"><ele>713.0</ele><time>2026-04-18T09:27:27Z</time></trkpt><trkpt lat="47.7962978253017" lon="11.83942965891245"><ele>713.5</ele><time>2026-04-18T09:27:28Z</time></trkpt><trkpt lat="47.796405104509525" lon="11.83933840497383"><ele>714.0</ele><time>2026-04-18T09:27:29Z</time></trkpt><trkpt lat="47.796514460816525" lon="11.839230599284493"><ele>714.0</ele><time>2026-04-18T09:27:30Z</time></trkpt><trkpt lat="47.79662512984415" lon="11.839131842579208"><ele>714.0</ele><time>2026-04-18T09:27:31Z</time></trkpt><trkpt lat="47.79673585984559" lon="11.839029067555249"><ele>714.0</ele><time>2026-04-18T09:27:32Z</time></trkpt><trkpt lat="47.796854406204" lon="11.83890690318592"><ele>714.0</ele><time>2026-04-18T09:27:33Z</time></trkpt><trkpt lat="47.796971546920055" lon="11.838806732682585"><ele>715.0</ele><time>2026-04-18T09:27:34Z</time></trkpt><trkpt lat="47.797089883956154" lon="11.838702427446863"><ele>716.0</ele><time>2026-04-18T09:27:35Z</time></trkpt><trkpt lat="47.79721972016889" lon="11.838615891611527"><ele>717.0</ele><time>2026-04-18T09:27:36Z</time></trkpt><trkpt lat="47.79734387351008" lon="11.838516286200816"><ele>718.0</ele><time>2026-04-18T09:27:37Z</time></trkpt><trkpt lat="47.79746613609007" lon="11.83840702465818"><ele>718.0</ele><time>2026-04-18T09:27:38Z</time></trkpt><trkpt lat="47.79760303021652" lon="11.838287471895674"><ele>718.0</ele><time>2026-04-18T09:27:39Z</time></trkpt><trkpt lat="47.79773831872322" lon="11.83819659945591"><ele>718.0</ele><time>2026-04-18T09:27:40Z</time></trkpt><trkpt lat="47.797871702973545" lon="11.838109679851543"><ele>719.75</ele><time>2026-04-18T09:27:41Z</time></trkpt><trkpt lat="47.79800082302482" lon="11.838024976907352"><ele>721.5</ele><time>2026-04-18T09:27:42Z</time></trkpt><trkpt lat="47.798132494866564" lon="11.837958946622651"><ele>723.25</ele><time>2026-04-18T09:27:43Z</time></trkpt><trkpt lat="47.79825866126381" lon="11.837915413462916"><ele>725.0</ele><time>2026-04-18T09:27:44Z</time></trkpt><trkpt lat="47.7983685520585" lon="11.837850454271884"><ele>722.6666666666666</ele><time>2026-04-18T09:27:45Z</time></trkpt><trkpt lat="47.798534355935395" lon="11.837823190829134"><ele>720.3333333333334</ele><time>2026-04-18T09:27:46Z</time></trkpt><trkpt lat="47.79869534861413" lon="11.8377714417327"><ele>718.0</ele><time>2026-04-18T09:27:47Z</time></trkpt><trkpt lat="47.79884961807205" lon="11.837755256405329"><ele>718.0</ele><time>2026-04-18T09:27:48Z</time></trkpt><trkpt lat="47.799001356207775" lon="11.837746405168826"><ele>718.0</ele><time>2026-04-18T09:27:49Z</time></trkpt><trkpt lat="47.79914946897728" lon="11.837744908258264"><ele>718.0</ele><time>2026-04-18T09:27:50Z</time></trkpt><trkpt lat="47.79929852427979" lon="11.837744759436662"><ele>718.0</ele><time>2026-04-18T09:27:51Z</time></trkpt><trkpt lat="47.79944786750289" lon="11.837748005953001"><ele>715.0</ele><time>2026-04-18T09:27:52Z</time></trkpt><trkpt lat="47.799600744567655" lon="11.837760429746938"><ele>712.0</ele><time>2026-04-18T09:27:53Z</time></trkpt><trkpt lat="47.79975823932753" lon="11.837769300543156"><ele>709.0</ele><time>2026-04-18T09:27:54Z</time></trkpt><trkpt lat="47.79992262381369" lon="11.837782504433598"><ele>709.0</ele><time>2026-04-18T09:27:55Z</time></trkpt><trkpt lat="47.800085007944126" lon="11.837798869087553"><ele>709.0</ele><time>2026-04-18T09:27:56Z</time></trkpt><trkpt lat="47.80025640407458" lon="11.837813010674765"><ele>709.0</ele><time>2026-04-18T09:27:57Z</time></trkpt><trkpt lat="47.800433330077546" lon="11.837828950466639"><ele>708.6666666666667</ele><time>2026-04-18T09:27:58Z</time></trkpt><trkpt lat="47.8006189798462" lon="11.83783446200866"><ele>708.3333333333334</ele><time>2026-04-18T09:27:59Z</time></trkpt><trkpt lat="47.800796495183434" lon="11.837850594304003"><ele>708.0</ele><time>2026-04-18T09:28:00Z</time></trkpt><trkpt lat="47.80097703517198" lon="11.83786308354632"><ele>708.3333333333334</ele><time>2026-04-18T09:28:01Z</time></trkpt><trkpt lat="47.80115917459164" lon="11.837873835315118"><ele>708.6666666666667</ele><time>2026-04-18T09:28:02Z</time></trkpt><trkpt lat="47.80133884395013" lon="11.837885881716723"><ele>709.0</ele><time>2026-04-18T09:28:03Z</time></trkpt><trkpt lat="47.80152241893602" lon="11.837897651021812"><ele>709.0</ele><time>2026-04-18T09:28:04Z</time></trkpt><trkpt lat="47.8017054478344" lon="11.837907570728214"><ele>709.0</ele><time>2026-04-18T09:28:05Z</time></trkpt><trkpt lat="47.80188759481771" lon="11.837920546880456"><ele>709.0</ele><time>2026-04-18T09:28:06Z</time></trkpt><trkpt lat="47.80207147918052" lon="11.837931504218094"><ele>709.6666666666667</ele><time>2026-04-18T09:28:07Z</time></trkpt><trkpt lat="47.80225644007455" lon="11.837944855161206"><ele>710.3333333333334</ele><time>2026-04-18T09:28:08Z</time></trkpt><trkpt lat="47.80244366599321" lon="11.837956307436102"><ele>711.0</ele><time>2026-04-18T09:28:09Z</time></trkpt><trkpt lat="47.80262962007789" lon="11.83796908166177"><ele>711.0</ele><time>2026-04-18T09:28:10Z</time></trkpt><trkpt lat="47.802815326341175" lon="11.837983513075962"><ele>711.0</ele><time>2026-04-18T09:28:11Z</time></trkpt><trkpt lat="47.802998262357356" lon="11.837998289298547"><ele>711.0</ele><time>2026-04-18T09:28:12Z</time></trkpt><trkpt lat="47.80317665152485" lon="11.838012831558853"><ele>711.0</ele><time>2026-04-18T09:28:13Z</time></trkpt><trkpt lat="47.803356455313285" lon="11.838024990301287"><ele>711.0</ele><time>2026-04-18T09:28:14Z</time></trkpt><trkpt lat="47.80353577979313" lon="11.838035277017253"><ele>711.0</ele><time>2026-04-18T09:28:15Z</time></trkpt><trkpt lat="47.80371640904549" lon="11.838044376125383"><ele>711.0</ele><time>2026-04-18T09:28:16Z</time></trkpt><trkpt lat="47.80389949755312" lon="11.838056906164736"><ele>711.0</ele><time>2026-04-18T09:28:17Z</time></trkpt><trkpt lat="47.804085565793166" lon="11.838068551076175"><ele>711.0</ele><time>2026-04-18T09:28:18Z</time></trkpt><trkpt lat="47.80427320919782" lon="11.838082736216647"><ele>710.0</ele><time>2026-04-18T09:28:19Z</time></trkpt><trkpt lat="47.80446562713019" lon="11.838097978219299"><ele>709.0</ele><time>2026-04-18T09:28:20Z</time></trkpt><trkpt lat="47.804663258235834" lon="11.838112192693394"><ele>708.0</ele><time>2026-04-18T09:28:21Z</time></trkpt><trkpt lat="47.804863429409686" lon="11.838126742545722"><ele>708.0</ele><time>2026-04-18T09:28:22Z</time></trkpt><trkpt lat="47.80505996950074" lon="11.838141810810274"><ele>708.0</ele><time>2026-04-18T09:28:23Z</time></trkpt><trkpt lat="47.8052518446366" lon="11.838158730042398"><ele>708.0</ele><time>2026-04-18T09:28:24Z</time></trkpt><trkpt lat="47.80544089454148" lon="11.838173247355158"><ele>708.3333333333334</ele><time>2026-04-18T09:28:25Z</time></trkpt><trkpt lat="47.80563089207351" lon="11.838184414075293"><ele>708.6666666666667</ele><time>2026-04-18T09:28:26Z</time></trkpt><trkpt lat="47.80582433218777" lon="11.838192699391424"><ele>709.0</ele><time>2026-04-18T09:28:27Z</time></trkpt><trkpt lat="47.806020123792045" lon="11.838204823308153"><ele>709.0</ele><time>2026-04-18T09:28:28Z</time></trkpt><trkpt lat="47.80621521253578" lon="11.838220306875103"><ele>709.0</ele><time>2026-04-18T09:28:29Z</time></trkpt><trkpt lat="47.806404731042704" lon="11.838239540912275"><ele>709.0</ele><time>2026-04-18T09:28:30Z</time></trkpt><trkpt lat="47.80659635117464" lon="11.838255387522974"><ele>709.0</ele><time>2026-04-18T09:28:31Z</time></trkpt><trkpt lat="47.80678894620528" lon="11.83827043478972"><ele>709.0</ele><time>2026-04-18T09:28:32Z</time></trkpt><trkpt lat="47.80698083665549" lon="11.838286504157114"><ele>709.0</ele><time>2026-04-18T09:28:33Z</time></trkpt><trkpt lat="47.80717343264962" lon="11.838303461885344"><ele>709.6666666666667</ele><time>2026-04-18T09:28:34Z</time></trkpt><trkpt lat="47.80736900113899" lon="11.838319729023203"><ele>710.3333333333334</ele><time>2026-04-18T09:28:35Z</time></trkpt><trkpt lat="47.807569742692834" lon="11.838331589366328"><ele>711.0</ele><time>2026-04-18T09:28:36Z</time></trkpt><trkpt lat="47.80777479478881" lon="11.838344134735287"><ele>711.3333333333334</ele><time>2026-04-18T09:28:37Z</time></trkpt><trkpt lat="47.807980630859646" lon="11.838355161373144"><ele>711.6666666666667</ele><time>2026-04-18T09:28:38Z</time></trkpt><trkpt lat="47.80819732517118" lon="11.83836107849645"><ele>712.0</ele><time>2026-04-18T09:28:39Z</time></trkpt><trkpt lat="47.80841244010542" lon="11.838373373298273"><ele>711.6666666666667</ele><time>2026-04-18T09:28:40Z</time></trkpt><trkpt lat="47.80862187966359" lon="11.838390440315077"><ele>711.3333333333334</ele><time>2026-04-18T09:28:41Z</time></trkpt><trkpt lat="47.808832652526156" lon="11.838407466729175"><ele>711.0</ele><time>2026-04-18T09:28:42Z</time></trkpt><trkpt lat="47.80903968647946" lon="11.83842756596274"><ele>711.0</ele><time>2026-04-18T09:28:43Z</time></trkpt><trkpt lat="47.80925303230703" lon="11.838442967151476"><ele>711.0</ele><time>2026-04-18T09:28:44Z</time></trkpt><trkpt lat="47.80946496144707" lon="11.838458760793928"><ele>711.0</ele><time>2026-04-18T09:28:45Z</time></trkpt><trkpt lat="47.809673318079795" lon="11.838474299496198"><ele>708.0</ele><time>2026-04-18T09:28:46Z</time></trkpt><trkpt lat="47.80988279437997" lon="11.838486726974823"><ele>705.0</ele><time>2026-04-18T09:28:47Z</time></trkpt><trkpt lat="47.810083496882086" lon="11.838499896392081"><ele>702.0</ele><time>2026-04-18T09:28:48Z</time></trkpt><trkpt lat="47.81028759073378" lon="11.838512852283097"><ele>699.0</ele><time>2026-04-18T09:28:49Z</time></trkpt><trkpt lat="47.810499196600226" lon="11.838524012244898"><ele>696.0</ele><time>2026-04-18T09:28:50Z</time></trkpt><trkpt lat="47.81071228743418" lon="11.83853796739102"><ele>693.0</ele><time>2026-04-18T09:28:51Z</time></trkpt><trkpt lat="47.810925401066015" lon="11.838551642876354"><ele>692.3333333333334</ele><time>2026-04-18T09:28:52Z</time></trkpt><trkpt lat="47.81114379279128" lon="11.838559557892163"><ele>691.6666666666667</ele><time>2026-04-18T09:28:53Z</time></trkpt><trkpt lat="47.81136130850001" lon="11.838564481442054"><ele>691.0</ele><time>2026-04-18T09:28:54Z</time></trkpt><trkpt lat="47.81157763782137" lon="11.838561747871774"><ele>691.0</ele><time>2026-04-18T09:28:55Z</time></trkpt><trkpt lat="47.811792015999146" lon="11.838553793361019"><ele>691.0</ele><time>2026-04-18T09:28:56Z</time></trkpt><trkpt lat="47.812010282918024" lon="11.838540037894997"><ele>691.0</ele><time>2026-04-18T09:28:57Z</time></trkpt><trkpt lat="47.812225387099694" lon="11.838525918437076"><ele>692.6666666666667</ele><time>2026-04-18T09:28:58Z</time></trkpt><trkpt lat="47.81243951949791" lon="11.83850778953231"><ele>694.3333333333334</ele><time>2026-04-18T09:28:59Z</time></trkpt><trkpt lat="47.8126570907585" lon="11.838477633720434"><ele>696.0</ele><time>2026-04-18T09:29:00Z</time></trkpt><trkpt lat="47.81286992663224" lon="11.838438080211944"><ele>700.6666666666666</ele><time>2026-04-18T09:29:01Z</time></trkpt><trkpt lat="47.81307991946805" lon="11.838389331112348"><ele>705.3333333333333</ele><time>2026-04-18T09:29:02Z</time></trkpt><trkpt lat="47.81328655254987" lon="11.838336972135314"><ele>710.0</ele><time>2026-04-18T09:29:03Z</time></trkpt><trkpt lat="47.81348875218946" lon="11.838282190487972"><ele>711.3333333333333</ele><time>2026-04-18T09:29:04Z</time></trkpt><trkpt lat="47.81368995620666" lon="11.83822521643226"><ele>712.6666666666666</ele><time>2026-04-18T09:29:05Z</time></trkpt><trkpt lat="47.81389182786466" lon="11.838174879213973"><ele>714.0</ele><time>2026-04-18T09:29:06Z</time></trkpt><trkpt lat="47.81409401406018" lon="11.838129504766597"><ele>714.0</ele><time>2026-04-18T09:29:07Z</time></trkpt><trkpt lat="47.81429525120897" lon="11.838088070884947"><ele>714.0</ele><time>2026-04-18T09:29:08Z</time></trkpt><trkpt lat="47.81449249632299" lon="11.838052882951537"><ele>714.0</ele><time>2026-04-18T09:29:09Z</time></trkpt><trkpt lat="47.814671056875625" lon="11.838032897608636"><ele>715.0</ele><time>2026-04-18T09:29:10Z</time></trkpt><trkpt lat="47.81485508308159" lon="11.83800825237675"><ele>716.0</ele><time>2026-04-18T09:29:11Z</time></trkpt><trkpt lat="47.815047893931734" lon="11.838002763870936"><ele>717.0</ele><time>2026-04-18T09:29:12Z</time></trkpt><trkpt lat="47.8152401381656" lon="11.838025334773526"><ele>721.0</ele><time>2026-04-18T09:29:13Z</time></trkpt><trkpt lat="47.815427185582045" lon="11.838025700291395"><ele>725.0</ele><time>2026-04-18T09:29:14Z</time></trkpt><trkpt lat="47.81561447572712" lon="11.838021565560938"><ele>729.0</ele><time>2026-04-18T09:29:15Z</time></trkpt><trkpt lat="47.81580241697804" lon="11.837993089112274"><ele>730.0</ele><time>2026-04-18T09:29:16Z</time></trkpt><trkpt lat="47.815988651102245" lon="11.837984665191518"><ele>731.0</ele><time>2026-04-18T09:29:17Z</time></trkpt><trkpt lat="47.81617447877392" lon="11.837974612732115"><ele>732.0</ele><time>2026-04-18T09:29:18Z</time></trkpt><trkpt lat="47.816362082673535" lon="11.83795978466994"><ele>732.0</ele><time>2026-04-18T09:29:19Z</time></trkpt><trkpt lat="47.81654915330537" lon="11.837944440280848"><ele>732.0</ele><time>2026-04-18T09:29:20Z</time></trkpt><trkpt lat="47.81673711647266" lon="11.837924400905292"><ele>732.0</ele><time>2026-04-18T09:29:21Z</time></trkpt><trkpt lat="47.816922120685334" lon="11.837892178795872"><ele>730.0</ele><time>2026-04-18T09:29:22Z</time></trkpt><trkpt lat="47.81712375492614" lon="11.837835328625417"><ele>728.0</ele><time>2026-04-18T09:29:23Z</time></trkpt><trkpt lat="47.81731005767701" lon="11.837781748833232"><ele>726.0</ele><time>2026-04-18T09:29:24Z</time></trkpt><trkpt lat="47.81748927445814" lon="11.83772287183006"><ele>726.6666666666666</ele><time>2026-04-18T09:29:25Z</time></trkpt><trkpt lat="47.817673274626436" lon="11.83766495852508"><ele>727.3333333333333</ele><time>2026-04-18T09:29:26Z</time></trkpt><trkpt lat="47.81785216083209" lon="11.837598689157343"><ele>728.0</ele><time>2026-04-18T09:29:27Z</time></trkpt><trkpt lat="47.818030651608844" lon="11.837512374447458"><ele>726.0</ele><time>2026-04-18T09:29:28Z</time></trkpt><trkpt lat="47.818212822914184" lon="11.83744488457905"><ele>724.0</ele><time>2026-04-18T09:29:29Z</time></trkpt><trkpt lat="47.81838852705059" lon="11.837338030971111"><ele>722.0</ele><time>2026-04-18T09:29:30Z</time></trkpt><trkpt lat="47.81856526434579" lon="11.837232610469254"><ele>721.3333333333333</ele><time>2026-04-18T09:29:31Z</time></trkpt><trkpt lat="47.818744452058596" lon="11.837118665956307"><ele>720.6666666666666</ele><time>2026-04-18T09:29:32Z</time></trkpt><trkpt lat="47.81892130374429" lon="11.836994603311958"><ele>720.0</ele><time>2026-04-18T09:29:33Z</time></trkpt><trkpt lat="47.8191004992056" lon="11.83686258057914"><ele>719.3333333333334</ele><time>2026-04-18T09:29:34Z</time></trkpt><trkpt lat="47.81927972942483" lon="11.836725256422124"><ele>718.6666666666667</ele><time>2026-04-18T09:29:35Z</time></trkpt><trkpt lat="47.81946099339189" lon="11.836576498270784"><ele>718.0</ele><time>2026-04-18T09:29:36Z</time></trkpt><trkpt lat="47.8196422569908" lon="11.83641743099685"><ele>716.6666666666667</ele><time>2026-04-18T09:29:37Z</time></trkpt><trkpt lat="47.81981867833599" lon="11.836250119132757"><ele>715.3333333333334</ele><time>2026-04-18T09:29:38Z</time></trkpt><trkpt lat="47.819992310763894" lon="11.836077219270415"><ele>714.0</ele><time>2026-04-18T09:29:39Z</time></trkpt><trkpt lat="47.82016156015185" lon="11.835896805754391"><ele>713.3333333333334</ele><time>2026-04-18T09:29:40Z</time></trkpt><trkpt lat="47.82032959048263" lon="11.835713802157239"><ele>712.6666666666667</ele><time>2026-04-18T09:29:41Z</time></trkpt><trkpt lat="47.82049635636862" lon="11.835528437682001"><ele>712.0</ele><time>2026-04-18T09:29:42Z</time></trkpt><trkpt lat="47.82065887053407" lon="11.835337242219845"><ele>712.0</ele><time>2026-04-18T09:29:43Z</time></trkpt><trkpt lat="47.82081795314976" lon="11.83513884298224"><ele>712.0</ele><time>2026-04-18T09:29:44Z</time></trkpt><trkpt lat="47.82097495422047" lon="11.834937365184361"><ele>712.0</ele><time>2026-04-18T09:29:45Z</time></trkpt><trkpt lat="47.82113148465782" lon="11.834733322401432"><ele>711.6666666666667</ele><time>2026-04-18T09:29:46Z</time></trkpt><trkpt lat="47.8212862205083" lon="11.834527638368339"><ele>711.3333333333334</ele><time>2026-04-18T09:29:47Z</time></trkpt><trkpt lat="47.82143559283221" lon="11.834322341607209"><ele>711.0</ele><time>2026-04-18T09:29:48Z</time></trkpt><trkpt lat="47.82158613551849" lon="11.834111295530123"><ele>710.6666666666666</ele><time>2026-04-18T09:29:49Z</time></trkpt><trkpt lat="47.821734985468886" lon="11.833896068736417"><ele>710.3333333333333</ele><time>2026-04-18T09:29:50Z</time></trkpt><trkpt lat="47.82188253331397" lon="11.83367956737391"><ele>710.0</ele><time>2026-04-18T09:29:51Z</time></trkpt><trkpt lat="47.822031929567636" lon="11.833461486523396"><ele>709.6666666666666</ele><time>2026-04-18T09:29:52Z</time></trkpt><trkpt lat="47.822184195635714" lon="11.833239253747164"><ele>709.3333333333334</ele><time>2026-04-18T09:29:53Z</time></trkpt><trkpt lat="47.82233878571561" lon="11.833014088941368"><ele>709.0</ele><time>2026-04-18T09:29:54Z</time></trkpt><trkpt lat="47.82249265905133" lon="11.83278783914263"><ele>708.3333333333334</ele><time>2026-04-18T09:29:55Z</time></trkpt><trkpt lat="47.82264473023633" lon="11.832560242770176"><ele>707.6666666666666</ele><time>2026-04-18T09:29:56Z</time></trkpt><trkpt lat="47.82279315398614" lon="11.832337450287742"><ele>707.0</ele><time>2026-04-18T09:29:57Z</time></trkpt><trkpt lat="47.82293935639021" lon="11.832121142832674"><ele>707.0</ele><time>2026-04-18T09:29:58Z</time></trkpt><trkpt lat="47.823083264446254" lon="11.83190790012399"><ele>707.0</ele><time>2026-04-18T09:29:59Z</time></trkpt><trkpt lat="47.82322466621856" lon="11.831694812240258"><ele>707.0</ele><time>2026-04-18T09:30:00Z</time></trkpt><trkpt lat="47.82336281409833" lon="11.83148644405495"><ele>707.0</ele><time>2026-04-18T09:30:01Z</time></trkpt><trkpt lat="47.82349888423764" lon="11.831282751029807"><ele>707.0</ele><time>2026-04-18T09:30:02Z</time></trkpt><trkpt lat="47.8236336026427" lon="11.831079619348989"><ele>707.0</ele><time>2026-04-18T09:30:03Z</time></trkpt><trkpt lat="47.82376890037833" lon="11.830878350782214"><ele>706.3333333333333</ele><time>2026-04-18T09:30:04Z</time></trkpt><trkpt lat="47.823904356825565" lon="11.830676328724923"><ele>705.6666666666666</ele><time>2026-04-18T09:30:05Z</time></trkpt><trkpt lat="47.824038607240865" lon="11.830475198395234"><ele>705.0</ele><time>2026-04-18T09:30:06Z</time></trkpt><trkpt lat="47.824172580476784" lon="11.83027744641564"><ele>704.6666666666666</ele><time>2026-04-18T09:30:07Z</time></trkpt><trkpt lat="47.82430537991279" lon="11.830083107383535"><ele>704.3333333333333</ele><time>2026-04-18T09:30:08Z</time></trkpt><trkpt lat="47.82443832203911" lon="11.829885500886613"><ele>704.0</ele><time>2026-04-18T09:30:09Z</time></trkpt><trkpt lat="47.82457485556779" lon="11.829681680079768"><ele>704.0</ele><time>2026-04-18T09:30:10Z</time></trkpt><trkpt lat="47.82471629291874" lon="11.829469743677118"><ele>704.0</ele><time>2026-04-18T09:30:11Z</time></trkpt><trkpt lat="47.824862977871994" lon="11.829250822555835"><ele>704.0</ele><time>2026-04-18T09:30:12Z</time></trkpt><trkpt lat="47.825015016997625" lon="11.82902414398358"><ele>703.6666666666666</ele><time>2026-04-18T09:30:13Z</time></trkpt><trkpt lat="47.82516935498806" lon="11.828792889917864"><ele>703.3333333333334</ele><time>2026-04-18T09:30:14Z</time></trkpt><trkpt lat="47.82532708702381" lon="11.828556062508978"><ele>703.0</ele><time>2026-04-18T09:30:15Z</time></trkpt><trkpt lat="47.82548377628337" lon="11.828321316418496"><ele>702.3333333333334</ele><time>2026-04-18T09:30:16Z</time></trkpt><trkpt lat="47.82563498239798" lon="11.82809817796475"><ele>701.6666666666666</ele><time>2026-04-18T09:30:17Z</time></trkpt><trkpt lat="47.82578559776022" lon="11.827874394333707"><ele>701.0</ele><time>2026-04-18T09:30:18Z</time></trkpt><trkpt lat="47.82593813883956" lon="11.827648823113847"><ele>700.3333333333333</ele><time>2026-04-18T09:30:19Z</time></trkpt><trkpt lat="47.826090855214765" lon="11.827423538972912"><ele>699.6666666666666</ele><time>2026-04-18T09:30:20Z</time></trkpt><trkpt lat="47.826246631164906" lon="11.827199425868471"><ele>699.0</ele><time>2026-04-18T09:30:21Z</time></trkpt><trkpt lat="47.826405512843635" lon="11.82697848335292"><ele>698.6666666666666</ele><time>2026-04-18T09:30:22Z</time></trkpt><trkpt lat="47.82656637068211" lon="11.82675629870407"><ele>698.3333333333333</ele><time>2026-04-18T09:30:23Z</time></trkpt><trkpt lat="47.82672893124993" lon="11.826536707939324"><ele>698.0</ele><time>2026-04-18T09:30:24Z</time></trkpt><trkpt lat="47.82689241997098" lon="11.826318369368183"><ele>698.3333333333333</ele><time>2026-04-18T09:30:25Z</time></trkpt><trkpt lat="47.82705609059562" lon="11.826103772084073"><ele>698.6666666666666</ele><time>2026-04-18T09:30:26Z</time></trkpt><trkpt lat="47.82722319480912" lon="11.825893075158357"><ele>699.0</ele><time>2026-04-18T09:30:27Z</time></trkpt><trkpt lat="47.82739041096335" lon="11.825689067391274"><ele>699.0</ele><time>2026-04-18T09:30:28Z</time></trkpt><trkpt lat="47.82755937346674" lon="11.825491672169909"><ele>699.0</ele><time>2026-04-18T09:30:29Z</time></trkpt><trkpt lat="47.82772966019978" lon="11.825301645824297"><ele>699.0</ele><time>2026-04-18T09:30:30Z</time></trkpt><trkpt lat="47.827901933066414" lon="11.825116003407738"><ele>698.6666666666666</ele><time>2026-04-18T09:30:31Z</time></trkpt><trkpt lat="47.82807415356646" lon="11.824935455080224"><ele>698.3333333333333</ele><time>2026-04-18T09:30:32Z</time></trkpt><trkpt lat="47.828245200796836" lon="11.824755591843747"><ele>698.0</ele><time>2026-04-18T09:30:33Z</time></trkpt><trkpt lat="47.82842210968595" lon="11.8245757924749"><ele>698.3333333333333</ele><time>2026-04-18T09:30:34Z</time></trkpt><trkpt lat="47.828611269180186" lon="11.82439604751096"><ele>698.6666666666666</ele><time>2026-04-18T09:30:35Z</time></trkpt><trkpt lat="47.82879700402559" lon="11.824229760213665"><ele>699.0</ele><time>2026-04-18T09:30:36Z</time></trkpt><trkpt lat="47.82898343327876" lon="11.824064376240893"><ele>697.3333333333334</ele><time>2026-04-18T09:30:37Z</time></trkpt><trkpt lat="47.82917408163408" lon="11.823898837436303"><ele>695.6666666666667</ele><time>2026-04-18T09:30:38Z</time></trkpt><trkpt lat="47.82936391408574" lon="11.823741253604211"><ele>694.0</ele><time>2026-04-18T09:30:39Z</time></trkpt><trkpt lat="47.82955512725716" lon="11.82358769352474"><ele>691.3333333333334</ele><time>2026-04-18T09:30:40Z</time></trkpt><trkpt lat="47.82974874051609" lon="11.8234328213238"><ele>688.6666666666666</ele><time>2026-04-18T09:30:41Z</time></trkpt><trkpt lat="47.82994431485997" lon="11.823280418722122"><ele>686.0</ele><time>2026-04-18T09:30:42Z</time></trkpt><trkpt lat="47.83014148913098" lon="11.823131475492284"><ele>685.6666666666666</ele><time>2026-04-18T09:30:43Z</time></trkpt><trkpt lat="47.8303385018249" lon="11.822988935297166"><ele>685.3333333333334</ele><time>2026-04-18T09:30:44Z</time></trkpt><trkpt lat="47.83054137341445" lon="11.822849941887727"><ele>685.0</ele><time>2026-04-18T09:30:45Z</time></trkpt><trkpt lat="47.830748863341036" lon="11.822712263298905"><ele>683.3333333333334</ele><time>2026-04-18T09:30:46Z</time></trkpt><trkpt lat="47.830956807984975" lon="11.822581961542483"><ele>681.6666666666666</ele><time>2026-04-18T09:30:47Z</time></trkpt><trkpt lat="47.831158791065725" lon="11.822455515270597"><ele>680.0</ele><time>2026-04-18T09:30:48Z</time></trkpt><trkpt lat="47.83135659657224" lon="11.822338876587043"><ele>679.3333333333333</ele><time>2026-04-18T09:30:49Z</time></trkpt><trkpt lat="47.83155213999858" lon="11.822229611802966"><ele>678.6666666666666</ele><time>2026-04-18T09:30:50Z</time></trkpt><trkpt lat="47.831750380065294" lon="11.822115601615675"><ele>678.0</ele><time>2026-04-18T09:30:51Z</time></trkpt><trkpt lat="47.83195189680593" lon="11.822003958545208"><ele>677.0</ele><time>2026-04-18T09:30:52Z</time></trkpt><trkpt lat="47.83215630758028" lon="11.821893989447304"><ele>676.0</ele><time>2026-04-18T09:30:53Z</time></trkpt><trkpt lat="47.832362615024444" lon="11.821783024066509"><ele>675.0</ele><time>2026-04-18T09:30:54Z</time></trkpt><trkpt lat="47.832576663995745" lon="11.82166463764023"><ele>674.5</ele><time>2026-04-18T09:30:55Z</time></trkpt><trkpt lat="47.83279442839232" lon="11.821547582373409"><ele>674.0</ele><time>2026-04-18T09:30:56Z</time></trkpt><trkpt lat="47.83301376825674" lon="11.821427501748605"><ele>674.0</ele><time>2026-04-18T09:30:57Z</time></trkpt><trkpt lat="47.83323101259941" lon="11.82130346094281"><ele>674.0</ele><time>2026-04-18T09:30:58Z</time></trkpt><trkpt lat="47.83344250052849" lon="11.821179706121319"><ele>674.0</ele><time>2026-04-18T09:30:59Z</time></trkpt><trkpt lat="47.83364106672723" lon="11.82105961737738"><ele>674.0</ele><time>2026-04-18T09:31:00Z</time></trkpt><trkpt lat="47.83382639118178" lon="11.820937032053994"><ele>674.0</ele><time>2026-04-18T09:31:01Z</time></trkpt><trkpt lat="47.83400400535295" lon="11.820816871006185"><ele>673.3333333333333</ele><time>2026-04-18T09:31:02Z</time></trkpt><trkpt lat="47.83416563519136" lon="11.820705114335123"><ele>672.6666666666666</ele><time>2026-04-18T09:31:03Z</time></trkpt><trkpt lat="47.83431125516796" lon="11.8206038709056"><ele>672.0</ele><time>2026-04-18T09:31:04Z</time></trkpt><trkpt lat="47.834444236349995" lon="11.820512054315198"><ele>672.0</ele><time>2026-04-18T09:31:05Z</time></trkpt><trkpt lat="47.83456653306559" lon="11.82042595878235"><ele>672.0</ele><time>2026-04-18T09:31:06Z</time></trkpt><trkpt lat="47.83468175043125" lon="11.820346979637865"><ele>672.0</ele><time>2026-04-18T09:31:07Z</time></trkpt><trkpt lat="47.83479277003785" lon="11.820271313000625"><ele>672.0</ele><time>2026-04-18T09:31:08Z</time></trkpt><trkpt lat="47.8349108520974" lon="11.820186166056123"><ele>671.25</ele><time>2026-04-18T09:31:09Z</time></trkpt><trkpt lat="47.8350171659368" lon="11.820098279102536"><ele>670.5</ele><time>2026-04-18T09:31:10Z</time></trkpt><trkpt lat="47.83511643642549" lon="11.820006535478957"><ele>669.75</ele><time>2026-04-18T09:31:11Z</time></trkpt><trkpt lat="47.835212853133" lon="11.819906835724286"><ele>669.0</ele><time>2026-04-18T09:31:12Z</time></trkpt><trkpt lat="47.83531014862079" lon="11.81980552608573"><ele>669.0</ele><time>2026-04-18T09:31:13Z</time></trkpt><trkpt lat="47.835413829487266" lon="11.819703526265213"><ele>669.0</ele><time>2026-04-18T09:31:14Z</time></trkpt><trkpt lat="47.83550991616108" lon="11.819613276362492"><ele>669.0</ele><time>2026-04-18T09:31:15Z</time></trkpt><trkpt lat="47.83560086672014" lon="11.819535488989803"><ele>669.0</ele><time>2026-04-18T09:31:16Z</time></trkpt><trkpt lat="47.83569766989156" lon="11.819447561545829"><ele>669.0</ele><time>2026-04-18T09:31:17Z</time></trkpt><trkpt lat="47.83578175198943" lon="11.819363973083812"><ele>669.0</ele><time>2026-04-18T09:31:18Z</time></trkpt><trkpt lat="47.83586085227103" lon="11.819287483631888"><ele>669.0</ele><time>2026-04-18T09:31:19Z</time></trkpt><trkpt lat="47.83593468752074" lon="11.819214807702814"><ele>669.0</ele><time>2026-04-18T09:31:20Z</time></trkpt><trkpt lat="47.83601021789867" lon="11.819145870787171"><ele>669.0</ele><time>2026-04-18T09:31:21Z</time></trkpt><trkpt lat="47.83608677962007" lon="11.819079720363357"><ele>668.5</ele><time>2026-04-18T09:31:22Z</time></trkpt><trkpt lat="47.83616020126478" lon="11.819016794081898"><ele>668.0</ele><time>2026-04-18T09:31:23Z</time></trkpt><trkpt lat="47.83623359733942" lon="11.818951570846426"><ele>667.5</ele><time>2026-04-18T09:31:24Z</time></trkpt><trkpt lat="47.8363055103472" lon="11.81888848635067"><ele>667.0</ele><time>2026-04-18T09:31:25Z</time></trkpt><trkpt lat="47.836374895222995" lon="11.818827066804548"><ele>666.5</ele><time>2026-04-18T09:31:26Z</time></trkpt><trkpt lat="47.83645282148005" lon="11.818756883356851"><ele>666.0</ele><time>2026-04-18T09:31:27Z</time></trkpt><trkpt lat="47.83652967866531" lon="11.818685948871613"><ele>666.0</ele><time>2026-04-18T09:31:28Z</time></trkpt><trkpt lat="47.83660961440526" lon="11.818619189745293"><ele>666.0</ele><time>2026-04-18T09:31:29Z</time></trkpt><trkpt lat="47.83669601239315" lon="11.81855032988964"><ele>666.0</ele><time>2026-04-18T09:31:30Z</time></trkpt><trkpt lat="47.836783755289765" lon="11.81847874299109"><ele>666.0</ele><time>2026-04-18T09:31:31Z</time></trkpt><trkpt lat="47.8368692642672" lon="11.818406419235227"><ele>666.0</ele><time>2026-04-18T09:31:32Z</time></trkpt><trkpt lat="47.83695948740281" lon="11.818338791350106"><ele>665.8</ele><time>2026-04-18T09:31:33Z</time></trkpt><trkpt lat="47.83705581911359" lon="11.818282449779533"><ele>665.5999999999999</ele><time>2026-04-18T09:31:34Z</time></trkpt><trkpt lat="47.837160004339665" lon="11.81822118280561"><ele>665.4</ele><time>2026-04-18T09:31:35Z</time></trkpt><trkpt lat="47.83726403605212" lon="11.818155213049293"><ele>665.2</ele><time>2026-04-18T09:31:36Z</time></trkpt><trkpt lat="47.8373631575588" lon="11.818085993662196"><ele>665.0</ele><time>2026-04-18T09:31:37Z</time></trkpt><trkpt lat="47.83745755713769" lon="11.818016765734832"><ele>665.0</ele><time>2026-04-18T09:31:38Z</time></trkpt><trkpt lat="47.83755483476535" lon="11.817941917648437"><ele>665.0</ele><time>2026-04-18T09:31:39Z</time></trkpt><trkpt lat="47.837652471395316" lon="11.817864663620396"><ele>665.0</ele><time>2026-04-18T09:31:40Z</time></trkpt><trkpt lat="47.837755945688976" lon="11.817788644223818"><ele>665.0</ele><time>2026-04-18T09:31:41Z</time></trkpt><trkpt lat="47.837872573026054" lon="11.817707480421449"><ele>664.5</ele><time>2026-04-18T09:31:42Z</time></trkpt><trkpt lat="47.83799510926687" lon="11.817624903058398"><ele>664.0</ele><time>2026-04-18T09:31:43Z</time></trkpt><trkpt lat="47.8381194751024" lon="11.81754184941766"><ele>663.5</ele><time>2026-04-18T09:31:44Z</time></trkpt><trkpt lat="47.83825173041146" lon="11.817461586710749"><ele>663.0</ele><time>2026-04-18T09:31:45Z</time></trkpt><trkpt lat="47.838407168327954" lon="11.817367784732841"><ele>663.6666666666666</ele><time>2026-04-18T09:31:46Z</time></trkpt><trkpt lat="47.83858906077586" lon="11.81725698150999"><ele>664.3333333333333</ele><time>2026-04-18T09:31:47Z</time></trkpt><trkpt lat="47.83880754779606" lon="11.817143176187544"><ele>665.0</ele><time>2026-04-18T09:31:48Z</time></trkpt><trkpt lat="47.839035326640584" lon="11.817005689039933"><ele>665.0</ele><time>2026-04-18T09:31:49Z</time></trkpt><trkpt lat="47.839269739322084" lon="11.816862132227854"><ele>665.0</ele><time>2026-04-18T09:31:50Z</time></trkpt><trkpt lat="47.83950313867623" lon="11.816688196843417"><ele>665.0</ele><time>2026-04-18T09:31:51Z</time></trkpt><trkpt lat="47.839750201403824" lon="11.816535871340271"><ele>665.0</ele><time>2026-04-18T09:31:52Z</time></trkpt><trkpt lat="47.84000243580963" lon="11.8163580484427"><ele>664.0</ele><time>2026-04-18T09:31:53Z</time></trkpt><trkpt lat="47.84025262022477" lon="11.816163681927335"><ele>663.0</ele><time>2026-04-18T09:31:54Z</time></trkpt><trkpt lat="47.840497158660256" lon="11.815952630818414"><ele>663.0</ele><time>2026-04-18T09:31:55Z</time></trkpt><trkpt lat="47.84073091058372" lon="11.81572802548663"><ele>663.0</ele><time>2026-04-18T09:31:56Z</time></trkpt><trkpt lat="47.84095850749684" lon="11.815479473192934"><ele>666.0</ele><time>2026-04-18T09:31:57Z</time></trkpt><trkpt lat="47.84117777733546" lon="11.815206762692666"><ele>669.0</ele><time>2026-04-18T09:31:58Z</time></trkpt><trkpt lat="47.84138315998114" lon="11.814918427896949"><ele>669.0</ele><time>2026-04-18T09:31:59Z</time></trkpt><trkpt lat="47.8415557694794" lon="11.81463969561388"><ele>669.0</ele><time>2026-04-18T09:32:00Z</time></trkpt><trkpt lat="47.84171375796919" lon="11.814380642733402"><ele>672.0</ele><time>2026-04-18T09:32:01Z</time></trkpt><trkpt lat="47.84186367162155" lon="11.814134912344572"><ele>675.0</ele><time>2026-04-18T09:32:02Z</time></trkpt><trkpt lat="47.84202119491119" lon="11.81388680665071"><ele>675.0</ele><time>2026-04-18T09:32:03Z</time></trkpt><trkpt lat="47.84217631888207" lon="11.813666759662508"><ele>675.0</ele><time>2026-04-18T09:32:04Z</time></trkpt><trkpt lat="47.84234146642371" lon="11.813441066111698"><ele>675.0</ele><time>2026-04-18T09:32:05Z</time></trkpt><trkpt lat="47.842490949541435" lon="11.813250382933155"><ele>677.6666666666666</ele><time>2026-04-18T09:32:06Z</time></trkpt><trkpt lat="47.84263265854182" lon="11.81308099616841"><ele>680.3333333333333</ele><time>2026-04-18T09:32:07Z</time></trkpt><trkpt lat="47.84277623470228" lon="11.812917983522551"><ele>683.0</ele><time>2026-04-18T09:32:08Z</time></trkpt><trkpt lat="47.84294409029695" lon="11.812734410011466"><ele>680.0</ele><time>2026-04-18T09:32:09Z</time></trkpt><trkpt lat="47.84312146148842" lon="11.812568495552474"><ele>677.0</ele><time>2026-04-18T09:32:10Z</time></trkpt><trkpt lat="47.84329570250344" lon="11.812426881871817"><ele>674.0</ele><time>2026-04-18T09:32:11Z</time></trkpt><trkpt lat="47.843449767446266" lon="11.812303957013532"><ele>680.6666666666666</ele><time>2026-04-18T09:32:12Z</time></trkpt><trkpt lat="47.84361210986792" lon="11.81217874362843"><ele>687.3333333333334</ele><time>2026-04-18T09:32:13Z</time></trkpt><trkpt lat="47.84377600555235" lon="11.812063497049769"><ele>694.0</ele><time>2026-04-18T09:32:14Z</time></trkpt><trkpt lat="47.84394504766491" lon="11.811946270337678"><ele>690.6666666666667</ele><time>2026-04-18T09:32:15Z</time></trkpt><trkpt lat="47.84412756686328" lon="11.811810272817535"><ele>687.3333333333334</ele><time>2026-04-18T09:32:16Z</time></trkpt><trkpt lat="47.844299083256146" lon="11.811649707759578"><ele>684.0</ele><time>2026-04-18T09:32:17Z</time></trkpt><trkpt lat="47.844451396598" lon="11.811484278507379"><ele>687.3333333333334</ele><time>2026-04-18T09:32:18Z</time></trkpt><trkpt lat="47.84459858867343" lon="11.81131793260964"><ele>690.6666666666667</ele><time>2026-04-18T09:32:19Z</time></trkpt><trkpt lat="47.84473814850397" lon="11.81114429121351"><ele>694.0</ele><time>2026-04-18T09:32:20Z</time></trkpt><trkpt lat="47.84487735427818" lon="11.810986343095072"><ele>694.0</ele><time>2026-04-18T09:32:21Z</time></trkpt><trkpt lat="47.8450200627307" lon="11.810837152503593"><ele>694.0</ele><time>2026-04-18T09:32:22Z</time></trkpt><trkpt lat="47.845169200587165" lon="11.81068885257087"><ele>694.0</ele><time>2026-04-18T09:32:23Z</time></trkpt><trkpt lat="47.84533107321586" lon="11.81053705489112"><ele>698.3333333333334</ele><time>2026-04-18T09:32:24Z</time></trkpt><trkpt lat="47.84550488029973" lon="11.810396227476417"><ele>702.6666666666666</ele><time>2026-04-18T09:32:25Z</time></trkpt><trkpt lat="47.84568394184781" lon="11.810261382224464"><ele>707.0</ele><time>2026-04-18T09:32:26Z</time></trkpt><trkpt lat="47.845864689281356" lon="11.810171108544314"><ele>704.0</ele><time>2026-04-18T09:32:27Z</time></trkpt><trkpt lat="47.84603141422955" lon="11.810080490619248"><ele>701.0</ele><time>2026-04-18T09:32:28Z</time></trkpt><trkpt lat="47.84619894254962" lon="11.810005876503858"><ele>698.0</ele><time>2026-04-18T09:32:29Z</time></trkpt><trkpt lat="47.84635329258095" lon="11.809937982765177"><ele>698.0</ele><time>2026-04-18T09:32:30Z</time></trkpt><trkpt lat="47.84652307248143" lon="11.80987662394174"><ele>698.0</ele><time>2026-04-18T09:32:31Z</time></trkpt><trkpt lat="47.84669708420658" lon="11.80982370360935"><ele>698.0</ele><time>2026-04-18T09:32:32Z</time></trkpt><trkpt lat="47.846875695028565" lon="11.809781552800224"><ele>696.3333333333333</ele><time>2026-04-18T09:32:33Z</time></trkpt><trkpt lat="47.84704595431408" lon="11.8097428661602"><ele>694.6666666666666</ele><time>2026-04-18T09:32:34Z</time></trkpt><trkpt lat="47.847210532342004" lon="11.809702518002554"><ele>693.0</ele><time>2026-04-18T09:32:35Z</time></trkpt><trkpt lat="47.84737332910847" lon="11.80966079169209"><ele>693.0</ele><time>2026-04-18T09:32:36Z</time></trkpt><trkpt lat="47.84753512304595" lon="11.809612364919975"><ele>693.0</ele><time>2026-04-18T09:32:37Z</time></trkpt><trkpt lat="47.84770065740248" lon="11.809546244020865"><ele>693.0</ele><time>2026-04-18T09:32:38Z</time></trkpt><trkpt lat="47.84786762171265" lon="11.809470788881008"><ele>693.3333333333334</ele><time>2026-04-18T09:32:39Z</time></trkpt><trkpt lat="47.84803208056887" lon="11.809354405335617"><ele>693.6666666666667</ele><time>2026-04-18T09:32:40Z</time></trkpt><trkpt lat="47.84820214309177" lon="11.809241706904203"><ele>694.0</ele><time>2026-04-18T09:32:41Z</time></trkpt><trkpt lat="47.84836987088676" lon="11.80910423396972"><ele>692.6666666666667</ele><time>2026-04-18T09:32:42Z</time></trkpt><trkpt lat="47.848530427779366" lon="11.808951842217565"><ele>691.3333333333334</ele><time>2026-04-18T09:32:43Z</time></trkpt><trkpt lat="47.848685034025785" lon="11.808780892984728"><ele>690.0</ele><time>2026-04-18T09:32:44Z</time></trkpt><trkpt lat="47.84883063011966" lon="11.808597189903491"><ele>690.6666666666666</ele><time>2026-04-18T09:32:45Z</time></trkpt><trkpt lat="47.84897019645628" lon="11.808407401144406"><ele>691.3333333333333</ele><time>2026-04-18T09:32:46Z</time></trkpt><trkpt lat="47.84910793687425" lon="11.808208783910116"><ele>692.0</ele><time>2026-04-18T09:32:47Z</time></trkpt><trkpt lat="47.84924055549071" lon="11.808007142844172"><ele>690.6666666666666</ele><time>2026-04-18T09:32:48Z</time></trkpt><trkpt lat="47.8493678488145" lon="11.80780785342333"><ele>689.3333333333334</ele><time>2026-04-18T09:32:49Z</time></trkpt><trkpt lat="47.84949172331294" lon="11.807617938247333"><ele>688.0</ele><time>2026-04-18T09:32:50Z</time></trkpt><trkpt lat="47.84960989175736" lon="11.807441045025964"><ele>687.3333333333334</ele><time>2026-04-18T09:32:51Z</time></trkpt><trkpt lat="47.84972792405808" lon="11.807268820384225"><ele>686.6666666666666</ele><time>2026-04-18T09:32:52Z</time></trkpt><trkpt lat="47.84984286604872" lon="11.807099970932756"><ele>686.0</ele><time>2026-04-18T09:32:53Z</time></trkpt><trkpt lat="47.849965538757935" lon="11.806927198247244"><ele>685.6666666666666</ele><time>2026-04-18T09:32:54Z</time></trkpt><trkpt lat="47.85010101085972" lon="11.806744261266786"><ele>685.3333333333334</ele><time>2026-04-18T09:32:55Z</time></trkpt><trkpt lat="47.85023556310275" lon="11.806568590691723"><ele>685.0</ele><time>2026-04-18T09:32:56Z</time></trkpt><trkpt lat="47.85037525011948" lon="11.806400001508347"><ele>683.6666666666667</ele><time>2026-04-18T09:32:57Z</time></trkpt><trkpt lat="47.85052199169693" lon="11.806238156030522"><ele>682.3333333333334</ele><time>2026-04-18T09:32:58Z</time></trkpt><trkpt lat="47.85067041005327" lon="11.806090403709801"><ele>681.0</ele><time>2026-04-18T09:32:59Z</time></trkpt><trkpt lat="47.850817969099786" lon="11.805942148668462"><ele>680.6666666666666</ele><time>2026-04-18T09:33:00Z</time></trkpt><trkpt lat="47.850969142219284" lon="11.805799781203726"><ele>680.3333333333333</ele><time>2026-04-18T09:33:01Z</time></trkpt><trkpt lat="47.85112175847423" lon="11.8056652690329"><ele>680.0</ele><time>2026-04-18T09:33:02Z</time></trkpt><trkpt lat="47.851273440036366" lon="11.805531135648"><ele>680.0</ele><time>2026-04-18T09:33:03Z</time></trkpt><trkpt lat="47.85142745663445" lon="11.805397155344776"><ele>680.0</ele><time>2026-04-18T09:33:04Z</time></trkpt><trkpt lat="47.85158464475229" lon="11.805269482055422"><ele>680.0</ele><time>2026-04-18T09:33:05Z</time></trkpt><trkpt lat="47.85174373527329" lon="11.80515325142265"><ele>679.3333333333333</ele><time>2026-04-18T09:33:06Z</time></trkpt><trkpt lat="47.851902881316015" lon="11.805039507954916"><ele>678.6666666666666</ele><time>2026-04-18T09:33:07Z</time></trkpt><trkpt lat="47.85205273296044" lon="11.804929765720235"><ele>678.0</ele><time>2026-04-18T09:33:08Z</time></trkpt><trkpt lat="47.852193043124" lon="11.804827523645663"><ele>678.0</ele><time>2026-04-18T09:33:09Z</time></trkpt><trkpt lat="47.85233048323742" lon="11.804732992240842"><ele>678.0</ele><time>2026-04-18T09:33:10Z</time></trkpt><trkpt lat="47.85246439125358" lon="11.80464269214837"><ele>678.0</ele><time>2026-04-18T09:33:11Z</time></trkpt><trkpt lat="47.852596456519464" lon="11.804559385195939"><ele>678.0</ele><time>2026-04-18T09:33:12Z</time></trkpt><trkpt lat="47.85272056018338" lon="11.804482003613685"><ele>678.25</ele><time>2026-04-18T09:33:13Z</time></trkpt><trkpt lat="47.85283355920716" lon="11.804413108855739"><ele>678.5</ele><time>2026-04-18T09:33:14Z</time></trkpt><trkpt lat="47.85294117159469" lon="11.804345868705761"><ele>678.75</ele><time>2026-04-18T09:33:15Z</time></trkpt><trkpt lat="47.85303911718187" lon="11.804286507415034"><ele>679.0</ele><time>2026-04-18T09:33:16Z</time></trkpt><trkpt lat="47.85315077691321" lon="11.804220364697988"><ele>679.0</ele><time>2026-04-18T09:33:17Z</time></trkpt><trkpt lat="47.853263359597044" lon="11.804153148879017"><ele>679.0</ele><time>2026-04-18T09:33:18Z</time></trkpt><trkpt lat="47.85338093166971" lon="11.804083165416625"><ele>679.0</ele><time>2026-04-18T09:33:19Z</time></trkpt><trkpt lat="47.85349232589999" lon="11.804020123030638"><ele>679.0</ele><time>2026-04-18T09:33:20Z</time></trkpt><trkpt lat="47.85360741634147" lon="11.803959880613858"><ele>680.5</ele><time>2026-04-18T09:33:21Z</time></trkpt><trkpt lat="47.85372315270377" lon="11.803900676753251"><ele>682.0</ele><time>2026-04-18T09:33:22Z</time></trkpt><trkpt lat="47.853837856091786" lon="11.803842881805195"><ele>683.5</ele><time>2026-04-18T09:33:23Z</time></trkpt><trkpt lat="47.853947211653065" lon="11.803784469682904"><ele>685.0</ele><time>2026-04-18T09:33:24Z</time></trkpt><trkpt lat="47.85405933091555" lon="11.803724102668733"><ele>685.0</ele><time>2026-04-18T09:33:25Z</time></trkpt><trkpt lat="47.85417364849825" lon="11.803667114534123"><ele>685.0</ele><time>2026-04-18T09:33:26Z</time></trkpt><trkpt lat="47.85428917597882" lon="11.803609621557483"><ele>685.0</ele><time>2026-04-18T09:33:27Z</time></trkpt><trkpt lat="47.85440076515521" lon="11.8035498359667"><ele>685.0</ele><time>2026-04-18T09:33:28Z</time></trkpt><trkpt lat="47.85450850084049" lon="11.803476955098322"><ele>683.25</ele><time>2026-04-18T09:33:29Z</time></trkpt><trkpt lat="47.85461556806019" lon="11.803394715723888"><ele>681.5</ele><time>2026-04-18T09:33:30Z</time></trkpt><trkpt lat="47.854727878851975" lon="11.803327076065695"><ele>679.75</ele><time>2026-04-18T09:33:31Z</time></trkpt><trkpt lat="47.85483643375996" lon="11.803262591668627"><ele>678.0</ele><time>2026-04-18T09:33:32Z</time></trkpt><trkpt lat="47.85494439454674" lon="11.80320001507743"><ele>678.0</ele><time>2026-04-18T09:33:33Z</time></trkpt><trkpt lat="47.85505414128973" lon="11.803136833580062"><ele>678.0</ele><time>2026-04-18T09:33:34Z</time></trkpt><trkpt lat="47.8551633564644" lon="11.803073857126492"><ele>678.0</ele><time>2026-04-18T09:33:35Z</time></trkpt><trkpt lat="47.85527083587771" lon="11.803012619766813"><ele>678.0</ele><time>2026-04-18T09:33:36Z</time></trkpt><trkpt lat="47.85537602400178" lon="11.802956226398326"><ele>677.5999999999999</ele><time>2026-04-18T09:33:37Z</time></trkpt><trkpt lat="47.85547628170658" lon="11.802900586413305"><ele>677.1999999999999</ele><time>2026-04-18T09:33:38Z</time></trkpt><trkpt lat="47.85557450116095" lon="11.802844739344408"><ele>676.8</ele><time>2026-04-18T09:33:39Z</time></trkpt><trkpt lat="47.855672749466535" lon="11.802788877904968"><ele>676.4</ele><time>2026-04-18T09:33:40Z</time></trkpt><trkpt lat="47.85576470073464" lon="11.80273828483759"><ele>676.0</ele><time>2026-04-18T09:33:41Z</time></trkpt><trkpt lat="47.85585679270526" lon="11.802687475763063"><ele>675.8</ele><time>2026-04-18T09:33:42Z</time></trkpt><trkpt lat="47.855951863423975" lon="11.8026376944354"><ele>675.5999999999999</ele><time>2026-04-18T09:33:43Z</time></trkpt><trkpt lat="47.85604509572691" lon="11.802578523869927"><ele>675.4</ele><time>2026-04-18T09:33:44Z</time></trkpt><trkpt lat="47.856140674781614" lon="11.802521085433737"><ele>675.2</ele><time>2026-04-18T09:33:45Z</time></trkpt><trkpt lat="47.856241810011326" lon="11.802463066281707"><ele>675.0</ele><time>2026-04-18T09:33:46Z</time></trkpt><trkpt lat="47.85634523126954" lon="11.8024037216804"><ele>674.5</ele><time>2026-04-18T09:33:47Z</time></trkpt><trkpt lat="47.85645128218202" lon="11.802341669946845"><ele>674.0</ele><time>2026-04-18T09:33:48Z</time></trkpt><trkpt lat="47.85655971720531" lon="11.802282297589713"><ele>673.5</ele><time>2026-04-18T09:33:49Z</time></trkpt><trkpt lat="47.85666424558124" lon="11.80222320418657"><ele>673.0</ele><time>2026-04-18T09:33:50Z</time></trkpt><trkpt lat="47.85677054173007" lon="11.802163097818237"><ele>673.0</ele><time>2026-04-18T09:33:51Z</time></trkpt><trkpt lat="47.85687744057239" lon="11.80210218244465"><ele>673.0</ele><time>2026-04-18T09:33:52Z</time></trkpt><trkpt lat="47.856984726867324" lon="11.802032817741578"><ele>673.0</ele><time>2026-04-18T09:33:53Z</time></trkpt><trkpt lat="47.85708064160989" lon="11.8019662301023"><ele>673.0</ele><time>2026-04-18T09:33:54Z</time></trkpt><trkpt lat="47.85716952045938" lon="11.801895805110947"><ele>673.0</ele><time>2026-04-18T09:33:55Z</time></trkpt><trkpt lat="47.85725197053492" lon="11.801823727551701"><ele>672.8</ele><time>2026-04-18T09:33:56Z</time></trkpt><trkpt lat="47.857335851574845" lon="11.801740433519148"><ele>672.5999999999999</ele><time>2026-04-18T09:33:57Z</time></trkpt><trkpt lat="47.8574221064991" lon="11.801638308676804"><ele>672.4000000000001</ele><time>2026-04-18T09:33:58Z</time></trkpt><trkpt lat="47.85749847505352" lon="11.80153367076972"><ele>672.2</ele><time>2026-04-18T09:33:59Z</time></trkpt><trkpt lat="47.85757373030298" lon="11.801424614871982"><ele>672.0</ele><time>2026-04-18T09:34:00Z</time></trkpt><trkpt lat="47.85764362257934" lon="11.801301440488132"><ele>673.2</ele><time>2026-04-18T09:34:01Z</time></trkpt><trkpt lat="47.85769941549575" lon="11.801158722899405"><ele>674.4000000000001</ele><time>2026-04-18T09:34:02Z</time></trkpt><trkpt lat="47.857764670382274" lon="11.801022258886693"><ele>675.5999999999999</ele><time>2026-04-18T09:34:03Z</time></trkpt><trkpt lat="47.85782844050978" lon="11.80088671125937"><ele>676.8</ele><time>2026-04-18T09:34:04Z</time></trkpt><trkpt lat="47.85789170125584" lon="11.800750939203919"><ele>678.0</ele><time>2026-04-18T09:34:05Z</time></trkpt><trkpt lat="47.85795354057716" lon="11.800619620209078"><ele>678.2</ele><time>2026-04-18T09:34:06Z</time></trkpt><trkpt lat="47.858014499688025" lon="11.800486232758413"><ele>678.4</ele><time>2026-04-18T09:34:07Z</time></trkpt><trkpt lat="47.858066344220894" lon="11.800367901411304"><ele>678.6</ele><time>2026-04-18T09:34:08Z</time></trkpt><trkpt lat="47.8581132801735" lon="11.800260715213499"><ele>678.8000000000001</ele><time>2026-04-18T09:34:09Z</time></trkpt><trkpt lat="47.85815952307377" lon="11.800152524126053"><ele>679.0</ele><time>2026-04-18T09:34:10Z</time></trkpt><trkpt lat="47.85820683530055" lon="11.800035886720934"><ele>678.4000000000001</ele><time>2026-04-18T09:34:11Z</time></trkpt><trkpt lat="47.8582563596416" lon="11.799916339171173"><ele>677.8</ele><time>2026-04-18T09:34:12Z</time></trkpt><trkpt lat="47.85830476277767" lon="11.799799665609852"><ele>677.2</ele><time>2026-04-18T09:34:13Z</time></trkpt><trkpt lat="47.85835745250419" lon="11.799680748683647"><ele>676.5999999999999</ele><time>2026-04-18T09:34:14Z</time></trkpt><trkpt lat="47.85842229760579" lon="11.799543662128437"><ele>676.0</ele><time>2026-04-18T09:34:15Z</time></trkpt><trkpt lat="47.85850731956038" lon="11.799389513569961"><ele>676.5</ele><time>2026-04-18T09:34:16Z</time></trkpt><trkpt lat="47.858597852283644" lon="11.799222083403498"><ele>677.0</ele><time>2026-04-18T09:34:17Z</time></trkpt><trkpt lat="47.858694421370785" lon="11.799065215356304"><ele>677.5</ele><time>2026-04-18T09:34:18Z</time></trkpt><trkpt lat="47.85879083664104" lon="11.798940096801493"><ele>678.0</ele><time>2026-04-18T09:34:19Z</time></trkpt><trkpt lat="47.85888269705489" lon="11.798835526368904"><ele>678.0</ele><time>2026-04-18T09:34:20Z</time></trkpt><trkpt lat="47.85897545109731" lon="11.798754649203994"><ele>678.0</ele><time>2026-04-18T09:34:21Z</time></trkpt><trkpt lat="47.85906671889377" lon="11.798684087440583"><ele>678.0</ele><time>2026-04-18T09:34:22Z</time></trkpt><trkpt lat="47.85916072243916" lon="11.798614545283007"><ele>678.0</ele><time>2026-04-18T09:34:23Z</time></trkpt><trkpt lat="47.85926131459334" lon="11.798547286332889"><ele>678.0</ele><time>2026-04-18T09:34:24Z</time></trkpt><trkpt lat="47.859370777327086" lon="11.798480600372978"><ele>677.75</ele><time>2026-04-18T09:34:25Z</time></trkpt><trkpt lat="47.859484634249654" lon="11.79841767139803"><ele>677.5</ele><time>2026-04-18T09:34:26Z</time></trkpt><trkpt lat="47.85960795728342" lon="11.798357874814169"><ele>677.25</ele><time>2026-04-18T09:34:27Z</time></trkpt><trkpt lat="47.85973462564089" lon="11.798297621768098"><ele>677.0</ele><time>2026-04-18T09:34:28Z</time></trkpt><trkpt lat="47.859863781944355" lon="11.798236400088392"><ele>677.0</ele><time>2026-04-18T09:34:29Z</time></trkpt><trkpt lat="47.859993664660784" lon="11.798174848586578"><ele>677.0</ele><time>2026-04-18T09:34:30Z</time></trkpt><trkpt lat="47.86011322256525" lon="11.798115015197608"><ele>677.0</ele><time>2026-04-18T09:34:31Z</time></trkpt><trkpt lat="47.860234235301625" lon="11.798054529187986"><ele>677.0</ele><time>2026-04-18T09:34:32Z</time></trkpt><trkpt lat="47.860345887395816" lon="11.797995972456917"><ele>676.8</ele><time>2026-04-18T09:34:33Z</time></trkpt><trkpt lat="47.860455333501214" lon="11.797936308854863"><ele>676.6</ele><time>2026-04-18T09:34:34Z</time></trkpt><trkpt lat="47.86055969174736" lon="11.797875830779288"><ele>676.4</ele><time>2026-04-18T09:34:35Z</time></trkpt><trkpt lat="47.86066116973212" lon="11.797814937376547"><ele>676.1999999999999</ele><time>2026-04-18T09:34:36Z</time></trkpt><trkpt lat="47.86076445003097" lon="11.797758986086633"><ele>676.0</ele><time>2026-04-18T09:34:37Z</time></trkpt><trkpt lat="47.86087118121104" lon="11.79770059876193"><ele>674.8</ele><time>2026-04-18T09:34:38Z</time></trkpt><trkpt lat="47.86097745477521" lon="11.797635731466606"><ele>673.5999999999999</ele><time>2026-04-18T09:34:39Z</time></trkpt><trkpt lat="47.86107342349767" lon="11.797572569353587"><ele>672.4</ele><time>2026-04-18T09:34:40Z</time></trkpt><trkpt lat="47.86115930358036" lon="11.797515783185533"><ele>671.2</ele><time>2026-04-18T09:34:41Z</time></trkpt><trkpt lat="47.86123702333656" lon="11.797464889133497"><ele>670.0</ele><time>2026-04-18T09:34:42Z</time></trkpt><trkpt lat="47.86130912295913" lon="11.7974149269329"><ele>670.0</ele><time>2026-04-18T09:34:43Z</time></trkpt><trkpt lat="47.86138906623889" lon="11.797356844155937"><ele>670.0</ele><time>2026-04-18T09:34:44Z</time></trkpt><trkpt lat="47.861465326919785" lon="11.797298957881118"><ele>670.0</ele><time>2026-04-18T09:34:45Z</time></trkpt><trkpt lat="47.86152736703896" lon="11.797250679178406"><ele>670.0</ele><time>2026-04-18T09:34:46Z</time></trkpt><trkpt lat="47.86163145535513" lon="11.797173662406419"><ele>670.0</ele><time>2026-04-18T09:34:48Z</time></trkpt><trkpt lat="47.861736124010996" lon="11.79709900307032"><ele>670.0</ele><time>2026-04-18T09:34:50Z</time></trkpt><trkpt lat="47.86179184490648" lon="11.797054882710944"><ele>670.0</ele><time>2026-04-18T09:34:51Z</time></trkpt><trkpt lat="47.861847477249405" lon="11.797004462431628"><ele>670.0</ele><time>2026-04-18T09:34:52Z</time></trkpt><trkpt lat="47.8619087581052" lon="11.796969889988013"><ele>670.0</ele><time>2026-04-18T09:34:53Z</time></trkpt><trkpt lat="47.86197240037691" lon="11.796981891796287"><ele>670.0</ele><time>2026-04-18T09:34:54Z</time></trkpt><trkpt lat="47.8620865973151" lon="11.79701834433586"><ele>670.0</ele><time>2026-04-18T09:34:56Z</time></trkpt><trkpt lat="47.86218395286775" lon="11.796932270902479"><ele>670.0</ele><time>2026-04-18T09:34:58Z</time></trkpt><trkpt lat="47.86221912633078" lon="11.796759694053133"><ele>670.0</ele><time>2026-04-18T09:35:00Z</time></trkpt><trkpt lat="47.86217014191691" lon="11.79658793093991"><ele>670.0</ele><time>2026-04-18T09:35:02Z</time></trkpt><trkpt lat="47.86211777045659" lon="11.796517212790038"><ele>670.0</ele><time>2026-04-18T09:35:03Z</time></trkpt><trkpt lat="47.86207469415256" lon="11.79643739510582"><ele>670.0</ele><time>2026-04-18T09:35:04Z</time></trkpt><trkpt lat="47.86203578421937" lon="11.796320218183551"><ele>670.0</ele><time>2026-04-18T09:35:05Z</time></trkpt><trkpt lat="47.86205566556434" lon="11.796152372366047"><ele>670.0</ele><time>2026-04-18T09:35:06Z</time></trkpt><trkpt lat="47.86204936694659" lon="11.796001868776717"><ele>670.0</ele><time>2026-04-18T09:35:07Z</time></trkpt><trkpt lat="47.8620340423847" lon="11.795810978124427"><ele>670.0</ele><time>2026-04-18T09:35:08Z</time></trkpt><trkpt lat="47.862012117261585" lon="11.7955958325634"><ele>669.75</ele><time>2026-04-18T09:35:09Z</time></trkpt><trkpt lat="47.86199577668294" lon="11.795386152266188"><ele>669.5</ele><time>2026-04-18T09:35:10Z</time></trkpt><trkpt lat="47.86198067529104" lon="11.795194511591706"><ele>669.25</ele><time>2026-04-18T09:35:11Z</time></trkpt><trkpt lat="47.86196294084929" lon="11.795022841348391"><ele>669.0</ele><time>2026-04-18T09:35:12Z</time></trkpt><trkpt lat="47.86194850744409" lon="11.79487551550689"><ele>668.8000000000001</ele><time>2026-04-18T09:35:13Z</time></trkpt><trkpt lat="47.861935625795184" lon="11.794751581774518"><ele>668.6</ele><time>2026-04-18T09:35:14Z</time></trkpt><trkpt lat="47.86192359238642" lon="11.79464547805875"><ele>668.4</ele><time>2026-04-18T09:35:15Z</time></trkpt><trkpt lat="47.8619087680201" lon="11.79447903680239"><ele>668.2</ele><time>2026-04-18T09:35:17Z</time></trkpt><trkpt lat="47.86192672786797" lon="11.794325719454857"><ele>668.0</ele><time>2026-04-18T09:35:19Z</time></trkpt><trkpt lat="47.862026034313935" lon="11.794259219994249"><ele>668.0</ele><time>2026-04-18T09:35:20Z</time></trkpt><trkpt lat="47.86210096799934" lon="11.794194584887679"><ele>668.0</ele><time>2026-04-18T09:35:21Z</time></trkpt><trkpt lat="47.86218707660587" lon="11.794159108797922"><ele>668.0</ele><time>2026-04-18T09:35:22Z</time></trkpt><trkpt lat="47.8622760553151" lon="11.79409976256514"><ele>668.0</ele><time>2026-04-18T09:35:23Z</time></trkpt><trkpt lat="47.86235996728021" lon="11.794015904581025"><ele>668.0</ele><time>2026-04-18T09:35:24Z</time></trkpt><trkpt lat="47.86245302405031" lon="11.793951354917112"><ele>668.0</ele><time>2026-04-18T09:35:25Z</time></trkpt><trkpt lat="47.86256209208887" lon="11.793880602453386"><ele>668.0</ele><time>2026-04-18T09:35:26Z</time></trkpt><trkpt lat="47.862675044212644" lon="11.793825495349502"><ele>668.0</ele><time>2026-04-18T09:35:27Z</time></trkpt><trkpt lat="47.86276558809441" lon="11.793738970406386"><ele>668.0</ele><time>2026-04-18T09:35:28Z</time></trkpt><trkpt lat="47.862862722247755" lon="11.793675290558477"><ele>667.8333333333333</ele><time>2026-04-18T09:35:29Z</time></trkpt><trkpt lat="47.8629483808423" lon="11.793617394475929"><ele>667.6666666666666</ele><time>2026-04-18T09:35:30Z</time></trkpt><trkpt lat="47.863032242793096" lon="11.793560313702937"><ele>667.5</ele><time>2026-04-18T09:35:31Z</time></trkpt><trkpt lat="47.86312354003483" lon="11.793523276595229"><ele>667.3333333333334</ele><time>2026-04-18T09:35:32Z</time></trkpt><trkpt lat="47.863193010867384" lon="11.793461542279617"><ele>667.1666666666667</ele><time>2026-04-18T09:35:33Z</time></trkpt><trkpt lat="47.863254435087484" lon="11.79340816418676"><ele>667.0</ele><time>2026-04-18T09:35:34Z</time></trkpt><trkpt lat="47.86332005090197" lon="11.793366487361117"><ele>667.0</ele><time>2026-04-18T09:35:35Z</time></trkpt><trkpt lat="47.86338453356839" lon="11.79331590544906"><ele>667.0</ele><time>2026-04-18T09:35:36Z</time></trkpt><trkpt lat="47.86344113171463" lon="11.793245969152624"><ele>667.0</ele><time>2026-04-18T09:35:37Z</time></trkpt><trkpt lat="47.86347800717954" lon="11.79313807546614"><ele>667.0</ele><time>2026-04-18T09:35:38Z</time></trkpt><trkpt lat="47.86349939763128" lon="11.79302373914007"><ele>667.0</ele><time>2026-04-18T09:35:39Z</time></trkpt><trkpt lat="47.863524242067946" lon="11.792926239525201"><ele>667.0</ele><time>2026-04-18T09:35:40Z</time></trkpt><trkpt lat="47.86356709186443" lon="11.79278656212764"><ele>666.8</ele><time>2026-04-18T09:35:42Z</time></trkpt><trkpt lat="47.863653357887664" lon="11.792642557446687"><ele>666.6</ele><time>2026-04-18T09:35:44Z</time></trkpt><trkpt lat="47.86373389137275" lon="11.792608268111204"><ele>666.4</ele><time>2026-04-18T09:35:45Z</time></trkpt><trkpt lat="47.863845581521254" lon="11.792543221224987"><ele>666.1999999999999</ele><time>2026-04-18T09:35:47Z</time></trkpt><trkpt lat="47.86389464402773" lon="11.79248397653122"><ele>666.0</ele><time>2026-04-18T09:35:48Z</time></trkpt><trkpt lat="47.863953456865026" lon="11.792448017848425"><ele>666.0</ele><time>2026-04-18T09:35:49Z</time></trkpt><trkpt lat="47.8640116851365" lon="11.792409273055055"><ele>666.0</ele><time>2026-04-18T09:35:50Z</time></trkpt><trkpt lat="47.86407022873713" lon="11.7923680775941"><ele>666.0</ele><time>2026-04-18T09:35:51Z</time></trkpt><trkpt lat="47.86413234577227" lon="11.79235276728485"><ele>666.0</ele><time>2026-04-18T09:35:52Z</time></trkpt><trkpt lat="47.864235720535895" lon="11.792287682132406"><ele>666.0</ele><time>2026-04-18T09:35:54Z</time></trkpt><trkpt lat="47.86432598053169" lon="11.792232371008375"><ele>666.0</ele><time>2026-04-18T09:35:56Z</time></trkpt><trkpt lat="47.864409613446725" lon="11.792181121037611"><ele>666.1666666666666</ele><time>2026-04-18T09:35:58Z</time></trkpt><trkpt lat="47.864499467999345" lon="11.792126058405385"><ele>666.3333333333334</ele><time>2026-04-18T09:36:00Z</time></trkpt><trkpt lat="47.86457833374586" lon="11.79207809552825"><ele>666.5</ele><time>2026-04-18T09:36:02Z</time></trkpt><trkpt lat="47.864640003328425" lon="11.792040608134712"><ele>666.6666666666667</ele><time>2026-04-18T09:36:04Z</time></trkpt><trkpt lat="47.86471924823155" lon="11.791992094840243"><ele>666.8333333333334</ele><time>2026-04-18T09:36:07Z</time></trkpt><trkpt lat="47.86479141279772" lon="11.791947180901674"><ele>667.0</ele><time>2026-04-18T09:36:11Z</time></trkpt><trkpt lat="47.8648635290787" lon="11.79190107611929"><ele>667.0</ele><time>2026-04-18T09:36:14Z</time></trkpt><trkpt lat="47.86494872596066" lon="11.791845811853284"><ele>667.0</ele><time>2026-04-18T09:36:17Z</time></trkpt><trkpt lat="47.865028283666376" lon="11.791786649359732"><ele>667.0</ele><time>2026-04-18T09:36:19Z</time></trkpt><trkpt lat="47.86510079430894" lon="11.791766627159717"><ele>667.0</ele><time>2026-04-18T09:36:21Z</time></trkpt><trkpt lat="47.86509022372786" lon="11.791949439884089"><ele>667.0</ele><time>2026-04-18T09:36:23Z</time></trkpt><trkpt lat="47.86509728616608" lon="11.79205958157926"><ele>667.0</ele><time>2026-04-18T09:36:24Z</time></trkpt><trkpt lat="47.86510401282806" lon="11.792163358829722"><ele>667.0</ele><time>2026-04-18T09:36:26Z</time></trkpt><trkpt lat="47.865203709691656" lon="11.792271614335453"><ele>667.0</ele><time>2026-04-18T09:36:29Z</time></trkpt><trkpt lat="47.86527095697975" lon="11.792241590946125"><ele>667.0</ele><time>2026-04-18T09:36:31Z</time></trkpt><trkpt lat="47.86536914000215" lon="11.792197956797214"><ele>667.0</ele><time>2026-04-18T09:36:33Z</time></trkpt><trkpt lat="47.865448128274664" lon="11.792124389819254"><ele>669.1666666666667</ele><time>2026-04-18T09:36:35Z</time></trkpt><trkpt lat="47.86551288891766" lon="11.792077445676712"><ele>671.3333333333334</ele><time>2026-04-18T09:36:38Z</time></trkpt><trkpt lat="47.865585522675374" lon="11.792001985043353"><ele>673.5</ele><time>2026-04-18T09:36:43Z</time></trkpt><trkpt lat="47.86553184388936" lon="11.791940727665644"><ele>675.6666666666666</ele><time>2026-04-18T09:42:23Z</time></trkpt><trkpt lat="47.86545841866506" lon="11.791948564982327"><ele>677.8333333333333</ele><time>2026-04-18T09:42:49Z</time></trkpt><trkpt lat="47.86548879010068" lon="11.792043500901094"><ele>680.0</ele><time>2026-04-18T09:42:54.999Z</time></trkpt><trkpt lat="47.8652284931949" lon="11.792275935914434"><ele>680.0</ele><time>2026-04-18T09:44:25.012Z</time></trkpt><trkpt lat="47.865427937454605" lon="11.792139671663602"><ele>680.0</ele><time>2026-04-18T09:44:29.013Z</time></trkpt><trkpt lat="47.865428197050015" lon="11.792042055141975"><ele>680.0</ele><time>2026-04-18T09:44:34.012Z</time></trkpt><trkpt lat="47.86536497740795" lon="11.79205574252813"><ele>680.0</ele><time>2026-04-18T09:44:38.013Z</time></trkpt><trkpt lat="47.865287117803824" lon="11.792054826557544"><ele>680.0</ele><time>2026-04-18T09:44:42.012Z</time></trkpt><trkpt lat="47.86551868340393" lon="11.792022154367368"><ele>680.0</ele><time>2026-04-18T09:44:52.1Z</time></trkpt><trkpt lat="47.865418301348996" lon="11.792032672616045"><ele>680.0</ele><time>2026-04-18T09:45:12.014Z</time></trkpt><trkpt lat="47.86540351386339" lon="11.79190006847566"><ele>680.0</ele><time>2026-04-18T09:45:12.999Z</time></trkpt><trkpt lat="47.86543342909591" lon="11.79198957333983"><ele>680.0</ele><time>2026-04-18T09:45:15.999Z</time></trkpt><trkpt lat="47.865500937517155" lon="11.792016074686673"><ele>680.0</ele><time>2026-04-18T09:45:24.999Z</time></trkpt><trkpt lat="47.865564349274244" lon="11.791991801007562"><ele>680.0</ele><time>2026-04-18T09:45:28.999Z</time></trkpt><trkpt lat="47.865545497625895" lon="11.791901648818243"><ele>680.0</ele><time>2026-04-18T09:48:01.999Z</time></trkpt><trkpt lat="47.86549590473234" lon="11.791837877140251"><ele>680.0</ele><time>2026-04-18T09:48:14.999Z</time></trkpt><trkpt lat="47.86541007077855" lon="11.791652568919448"><ele>680.0</ele><time>2026-04-18T09:48:46.05Z</time></trkpt><trkpt lat="47.86538229547851" lon="11.791566730849022"><ele>680.0</ele><time>2026-04-18T09:48:47.05Z</time></trkpt><trkpt lat="47.86538803927181" lon="11.791744978588067"><ele>680.0</ele><time>2026-04-18T09:48:52.052Z</time></trkpt><trkpt lat="47.865424035160494" lon="11.791556396325792"><ele>680.0</ele><time>2026-04-18T09:48:54.048Z</time></trkpt><trkpt lat="47.86542849130072" lon="11.7917445997343"><ele>680.0</ele><time>2026-04-18T09:49:10.039Z</time></trkpt><trkpt lat="47.86546043532588" lon="11.791831295016973"><ele>680.0</ele><time>2026-04-18T09:49:18.029Z</time></trkpt><trkpt lat="47.865535182242056" lon="11.79184449168094"><ele>680.0</ele><time>2026-04-18T09:51:18.001Z</time></trkpt><trkpt lat="47.865565771629306" lon="11.791934842786617"><ele>680.0</ele><time>2026-04-18T09:51:23.999Z</time></trkpt><trkpt lat="47.86550043776735" lon="11.791929358344385"><ele>680.0</ele><time>2026-04-18T09:55:25.001Z</time></trkpt><trkpt lat="47.86544988292434" lon="11.791840138161684"><ele>680.0</ele><time>2026-04-18T09:55:29.001Z</time></trkpt><trkpt lat="47.86529626382038" lon="11.791872919511816"><ele>680.0</ele><time>2026-04-18T09:56:50.805Z</time></trkpt><trkpt lat="47.86535707120308" lon="11.791922504409547"><ele>680.0</ele><time>2026-04-18T09:57:19.372Z</time></trkpt><trkpt lat="47.86551868340393" lon="11.792022154367368"><ele>680.0</ele><time>2026-04-18T09:57:25.361Z</time></trkpt><trkpt lat="47.8652193052525" lon="11.792029226219062"><ele>680.0</ele><time>2026-04-18T09:58:04.014Z</time></trkpt><trkpt lat="47.865373999705774" lon="11.791956169528095"><ele>680.0</ele><time>2026-04-18T09:58:08.001Z</time></trkpt><trkpt lat="47.865478837321184" lon="11.792031721026095"><ele>680.0</ele><time>2026-04-18T09:58:12.001Z</time></trkpt><trkpt lat="47.86540877420554" lon="11.791945015079042"><ele>680.0</ele><time>2026-04-18T10:02:10.001Z</time></trkpt><trkpt lat="47.86537779276518" lon="11.792046917766061"><ele>680.0</ele><time>2026-04-18T10:02:14.001Z</time></trkpt><trkpt lat="47.865354956856585" lon="11.792147426751812"><ele>680.0</ele><time>2026-04-18T10:02:22.001Z</time></trkpt><trkpt lat="47.86532253684289" lon="11.79225045971397"><ele>680.0</ele><time>2026-04-18T10:02:26Z</time></trkpt><trkpt lat="47.865295684071555" lon="11.792336730501331"><ele>680.0</ele><time>2026-04-18T10:02:30.051Z</time></trkpt><trkpt lat="47.86535575571846" lon="11.792158705074003"><ele>680.0</ele><time>2026-04-18T10:02:51.413Z</time></trkpt><trkpt lat="47.86551868340393" lon="11.792022154367368"><ele>680.0</ele><time>2026-04-18T10:02:57.412Z</time></trkpt><trkpt lat="47.865404798325876" lon="11.792058661258805"><ele>680.0</ele><time>2026-04-18T10:03:38.013Z</time></trkpt><trkpt lat="47.865482337734456" lon="11.791974964326396"><ele>680.0</ele><time>2026-04-18T10:05:17.001Z</time></trkpt><trkpt lat="47.86555097832132" lon="11.791946576243694"><ele>680.0</ele><time>2026-04-18T10:05:19.001Z</time></trkpt><trkpt lat="47.865509644639396" lon="11.791838844396153"><ele>680.0</ele><time>2026-04-18T10:05:23Z</time></trkpt><trkpt lat="47.86547980380878" lon="11.79173325274066"><ele>680.0</ele><time>2026-04-18T10:05:25Z</time></trkpt><trkpt lat="47.865465367684166" lon="11.791638514311662"><ele>680.0</ele><time>2026-04-18T10:05:27Z</time></trkpt><trkpt lat="47.86544832143168" lon="11.791492581209955"><ele>680.0</ele><time>2026-04-18T10:05:29Z</time></trkpt><trkpt lat="47.8654279283675" lon="11.791385342689066"><ele>680.0</ele><time>2026-04-18T10:05:31Z</time></trkpt><trkpt lat="47.86540383903093" lon="11.79122488627306"><ele>680.0</ele><time>2026-04-18T10:05:34Z</time></trkpt><trkpt lat="47.865371247166216" lon="11.791143229109924"><ele>680.0</ele><time>2026-04-18T10:05:38Z</time></trkpt><trkpt lat="47.86530630363446" lon="11.791072885187724"><ele>680.0</ele><time>2026-04-18T10:05:43.046Z</time></trkpt><trkpt lat="47.865230397116754" lon="11.791066040928326"><ele>680.0</ele><time>2026-04-18T10:05:46.05Z</time></trkpt><trkpt lat="47.86533655473242" lon="11.791803824133867"><ele>680.0</ele><time>2026-04-18T10:06:00.408Z</time></trkpt><trkpt lat="47.86551868340393" lon="11.792022154367368"><ele>680.0</ele><time>2026-04-18T10:06:06.402Z</time></trkpt><trkpt lat="47.865338652469" lon="11.791893138670142"><ele>680.0</ele><time>2026-04-18T10:06:29.366Z</time></trkpt><trkpt lat="47.865384902731144" lon="11.791957796655604"><ele>680.0</ele><time>2026-04-18T10:06:46.011Z</time></trkpt><trkpt lat="47.86541739897798" lon="11.792042875897742"><ele>680.0</ele><time>2026-04-18T10:06:59.011Z</time></trkpt><trkpt lat="47.865471014847905" lon="11.79191397890414"><ele>680.0</ele><time>2026-04-18T10:07:05Z</time></trkpt><trkpt lat="47.86540019750512" lon="11.791898776087667"><ele>680.0</ele><time>2026-04-18T10:09:00Z</time></trkpt><trkpt lat="47.865359830879726" lon="11.791826379075776"><ele>680.0</ele><time>2026-04-18T10:09:03Z</time></trkpt><trkpt lat="47.86530975592755" lon="11.791750512491655"><ele>680.0</ele><time>2026-04-18T10:09:07Z</time></trkpt><trkpt lat="47.86551730616124" lon="11.79182042032831"><ele>680.0</ele><time>2026-04-18T10:09:11Z</time></trkpt><trkpt lat="47.86551868340393" lon="11.792022154367368"><ele>680.0</ele><time>2026-04-18T10:09:23.382Z</time></trkpt><trkpt lat="47.86557017583054" lon="11.791876077892079"><ele>680.0</ele><time>2026-04-18T10:10:36Z</time></trkpt><trkpt lat="47.86549926070208" lon="11.791914342693964"><ele>680.0</ele><time>2026-04-18T10:10:39Z</time></trkpt><trkpt lat="47.86544037101357" lon="11.791841823829053"><ele>680.0</ele><time>2026-04-18T10:14:01Z</time></trkpt><trkpt lat="47.86559328705482" lon="11.791751561358074"><ele>680.0</ele><time>2026-04-18T10:14:26.054Z</time></trkpt><trkpt lat="47.865379222438314" lon="11.791949399435392"><ele>680.0</ele><time>2026-04-18T10:16:29.368Z</time></trkpt><trkpt lat="47.86551868340393" lon="11.792022154367368"><ele>680.0</ele><time>2026-04-18T10:17:35.365Z</time></trkpt><trkpt lat="47.86540177125717" lon="11.791969516917945"><ele>680.0</ele><time>2026-04-18T10:17:59.373Z</time></trkpt><trkpt lat="47.86551868340393" lon="11.792022154367368"><ele>680.0</ele><time>2026-04-18T10:18:38.363Z</time></trkpt><trkpt lat="47.86540449871884" lon="11.791941115475337"><ele>680.0</ele><time>2026-04-18T10:19:08.366Z</time></trkpt><trkpt lat="47.86551868340393" lon="11.792022154367368"><ele>680.0</ele><time>2026-04-18T10:22:43.843Z</time></trkpt><trkpt lat="47.865485282428295" lon="11.791902446516279"><ele>680.0</ele><time>2026-04-18T10:24:41.002Z</time></trkpt><trkpt lat="47.86547901475337" lon="11.792003809747161"><ele>680.0</ele><time>2026-04-18T10:24:48Z</time></trkpt><trkpt lat="47.8654096142865" lon="11.792071483923632"><ele>680.0</ele><time>2026-04-18T10:24:56Z</time></trkpt><trkpt lat="47.865350051604594" lon="11.79210790027655"><ele>680.0</ele><time>2026-04-18T10:25:01Z</time></trkpt><trkpt lat="47.86528201861608" lon="11.792136444177688"><ele>680.0</ele><time>2026-04-18T10:25:05Z</time></trkpt><trkpt lat="47.86521339322218" lon="11.792153908134281"><ele>680.0</ele><time>2026-04-18T10:25:10Z</time></trkpt><trkpt lat="47.86519596196761" lon="11.792060579145431"><ele>680.0</ele><time>2026-04-18T10:25:15Z</time></trkpt><trkpt lat="47.86517193833017" lon="11.791970288451965"><ele>680.0</ele><time>2026-04-18T10:25:21Z</time></trkpt><trkpt lat="47.8651607055127" lon="11.79186708645703"><ele>680.0</ele><time>2026-04-18T10:25:28Z</time></trkpt><trkpt lat="47.865180883881386" lon="11.791768987804401"><ele>680.0</ele><time>2026-04-18T10:25:36Z</time></trkpt><trkpt lat="47.86520872928017" lon="11.791856510594616"><ele>680.0</ele><time>2026-04-18T10:26:37Z</time></trkpt><trkpt lat="47.86521744080873" lon="11.791950096882394"><ele>680.0</ele><time>2026-04-18T10:26:42Z</time></trkpt><trkpt lat="47.86521920816516" lon="11.792051017550278"><ele>680.0</ele><time>2026-04-18T10:26:46Z</time></trkpt><trkpt lat="47.865248554053316" lon="11.792140328624713"><ele>680.0</ele><time>2026-04-18T10:26:52Z</time></trkpt><trkpt lat="47.86530898705136" lon="11.792111113265985"><ele>680.0</ele><time>2026-04-18T10:27:00.001Z</time></trkpt><trkpt lat="47.865360817023976" lon="11.792054637362595"><ele>680.0</ele><time>2026-04-18T10:27:05.001Z</time></trkpt><trkpt lat="47.8654103387455" lon="11.791975871037314"><ele>680.0</ele><time>2026-04-18T10:27:11.001Z</time></trkpt><trkpt lat="47.865440071559796" lon="11.79187839381379"><ele>680.0</ele><time>2026-04-18T10:27:18.001Z</time></trkpt><trkpt lat="47.86543252361331" lon="11.79175886654908"><ele>680.0</ele><time>2026-04-18T10:27:32.001Z</time></trkpt><trkpt lat="47.86548225290168" lon="11.791684852741561"><ele>680.0</ele><time>2026-04-18T10:28:01.001Z</time></trkpt><trkpt lat="47.865394923235655" lon="11.791673715727716"><ele>680.0</ele><time>2026-04-18T10:28:08.001Z</time></trkpt><trkpt lat="47.86540626967676" lon="11.791544625377364"><ele>680.0</ele><time>2026-04-18T10:28:16.001Z</time></trkpt><trkpt lat="47.86539490718918" lon="11.791859285389378"><ele>680.0</ele><time>2026-04-18T10:28:19.001Z</time></trkpt><trkpt lat="47.86542960799822" lon="11.791949166152826"><ele>680.0</ele><time>2026-04-18T10:28:22.001Z</time></trkpt><trkpt lat="47.865492177159084" lon="11.79197692618435"><ele>680.0</ele><time>2026-04-18T10:28:31.001Z</time></trkpt><trkpt lat="47.865423716917704" lon="11.792058410021115"><ele>680.0</ele><time>2026-04-18T10:44:23Z</time></trkpt><trkpt lat="47.865343702476125" lon="11.792061568716909"><ele>680.0</ele><time>2026-04-18T10:44:25Z</time></trkpt><trkpt lat="47.86527042953856" lon="11.792117873725266"><ele>680.0</ele><time>2026-04-18T10:44:27Z</time></trkpt><trkpt lat="47.86519763003838" lon="11.79215790835647"><ele>680.0</ele><time>2026-04-18T10:44:29Z</time></trkpt><trkpt lat="47.8651416677489" lon="11.792220926287794"><ele>680.0</ele><time>2026-04-18T10:44:31Z</time></trkpt><trkpt lat="47.86507875968151" lon="11.792166362584348"><ele>680.0</ele><time>2026-04-18T10:44:33Z</time></trkpt><trkpt lat="47.86506532342525" lon="11.792044180274882"><ele>680.0</ele><time>2026-04-18T10:44:35Z</time></trkpt><trkpt lat="47.86507177624411" lon="11.79193313921952"><ele>678.1428571428572</ele><time>2026-04-18T10:44:37Z</time></trkpt><trkpt lat="47.86507782863887" lon="11.791828235406138"><ele>676.2857142857142</ele><time>2026-04-18T10:44:40Z</time></trkpt><trkpt lat="47.86505708298989" lon="11.791730949383354"><ele>674.4285714285714</ele><time>2026-04-18T10:44:44Z</time></trkpt><trkpt lat="47.8649967493353" lon="11.79170041586"><ele>672.5714285714287</ele><time>2026-04-18T10:44:46Z</time></trkpt><trkpt lat="47.86492263344104" lon="11.791751785673918"><ele>670.7142857142858</ele><time>2026-04-18T10:44:49.001Z</time></trkpt><trkpt lat="47.86485756576477" lon="11.79178690996145"><ele>668.8571428571429</ele><time>2026-04-18T10:44:53.001Z</time></trkpt><trkpt lat="47.86479786419094" lon="11.791835039973565"><ele>667.0</ele><time>2026-04-18T10:44:58.001Z</time></trkpt><trkpt lat="47.8647322668299" lon="11.791875343255665"><ele>667.0</ele><time>2026-04-18T10:45:04.001Z</time></trkpt><trkpt lat="47.86466052478004" lon="11.791912273353756"><ele>667.0</ele><time>2026-04-18T10:45:10.001Z</time></trkpt><trkpt lat="47.86458460705606" lon="11.791977796200221"><ele>667.0</ele><time>2026-04-18T10:50:10Z</time></trkpt><trkpt lat="47.864479762617464" lon="11.792031285637425"><ele>667.0</ele><time>2026-04-18T10:50:12Z</time></trkpt><trkpt lat="47.86441872975381" lon="11.792074759836366"><ele>667.0</ele><time>2026-04-18T10:50:13Z</time></trkpt><trkpt lat="47.86434664462118" lon="11.792122078461817"><ele>667.0</ele><time>2026-04-18T10:50:14Z</time></trkpt><trkpt lat="47.8642558575325" lon="11.792181095958272"><ele>666.8333333333334</ele><time>2026-04-18T10:50:15Z</time></trkpt><trkpt lat="47.86416828832642" lon="11.792236574023843"><ele>666.6666666666667</ele><time>2026-04-18T10:50:16Z</time></trkpt><trkpt lat="47.86408413641247" lon="11.792290846851037"><ele>666.5</ele><time>2026-04-18T10:50:17Z</time></trkpt><trkpt lat="47.86400895927083" lon="11.792340180464048"><ele>666.3333333333334</ele><time>2026-04-18T10:50:18Z</time></trkpt><trkpt lat="47.863949402635384" lon="11.79237975339635"><ele>666.1666666666666</ele><time>2026-04-18T10:50:19Z</time></trkpt><trkpt lat="47.86384353860775" lon="11.79244566135602"><ele>666.0</ele><time>2026-04-18T10:50:21Z</time></trkpt><trkpt lat="47.863786358208934" lon="11.792493396367101"><ele>666.0</ele><time>2026-04-18T10:50:22Z</time></trkpt><trkpt lat="47.863718421384384" lon="11.79255299169172"><ele>666.0</ele><time>2026-04-18T10:50:23Z</time></trkpt><trkpt lat="47.86364200645018" lon="11.792598840044496"><ele>666.0</ele><time>2026-04-18T10:50:24Z</time></trkpt><trkpt lat="47.86356623397377" lon="11.792639700578055"><ele>666.0</ele><time>2026-04-18T10:50:25Z</time></trkpt><trkpt lat="47.86351226383537" lon="11.792704830825622"><ele>666.0</ele><time>2026-04-18T10:50:26Z</time></trkpt><trkpt lat="47.86348489448327" lon="11.792804470147292"><ele>666.0</ele><time>2026-04-18T10:50:27Z</time></trkpt><trkpt lat="47.8634679440154" lon="11.792920526764266"><ele>666.1666666666666</ele><time>2026-04-18T10:50:28Z</time></trkpt><trkpt lat="47.8634336005599" lon="11.793021203096698"><ele>666.3333333333334</ele><time>2026-04-18T10:50:29Z</time></trkpt><trkpt lat="47.863421638571026" lon="11.793117302296874"><ele>666.5</ele><time>2026-04-18T10:50:30Z</time></trkpt><trkpt lat="47.863389377464365" lon="11.793208326766457"><ele>666.6666666666667</ele><time>2026-04-18T10:50:31Z</time></trkpt><trkpt lat="47.863338096081385" lon="11.793297818531881"><ele>666.8333333333334</ele><time>2026-04-18T10:50:32Z</time></trkpt><trkpt lat="47.8632531362921" lon="11.793349304166473"><ele>667.0</ele><time>2026-04-18T10:50:33Z</time></trkpt><trkpt lat="47.863177660717206" lon="11.793403385135843"><ele>667.0</ele><time>2026-04-18T10:50:34Z</time></trkpt><trkpt lat="47.8630999094631" lon="11.79345744911764"><ele>667.0</ele><time>2026-04-18T10:50:35Z</time></trkpt><trkpt lat="47.86301731660865" lon="11.79350641485998"><ele>667.0</ele><time>2026-04-18T10:50:36Z</time></trkpt><trkpt lat="47.86293776592266" lon="11.793558680086301"><ele>667.0</ele><time>2026-04-18T10:50:37Z</time></trkpt><trkpt lat="47.862852307143655" lon="11.79361904773105"><ele>667.0</ele><time>2026-04-18T10:50:38Z</time></trkpt><trkpt lat="47.862761662868515" lon="11.793691606255448"><ele>667.0</ele><time>2026-04-18T10:50:39Z</time></trkpt><trkpt lat="47.86266698715139" lon="11.793769349714008"><ele>667.0</ele><time>2026-04-18T10:50:40Z</time></trkpt><trkpt lat="47.86257450771127" lon="11.793843350120477"><ele>667.0</ele><time>2026-04-18T10:50:41Z</time></trkpt><trkpt lat="47.862471818156926" lon="11.793925080622067"><ele>667.0</ele><time>2026-04-18T10:50:42Z</time></trkpt><trkpt lat="47.8623602140909" lon="11.79399784501501"><ele>667.1666666666667</ele><time>2026-04-18T10:50:43Z</time></trkpt><trkpt lat="47.862267803636875" lon="11.794054170068627"><ele>667.3333333333334</ele><time>2026-04-18T10:50:44Z</time></trkpt><trkpt lat="47.86220150993472" lon="11.79409208966343"><ele>667.5</ele><time>2026-04-18T10:50:45Z</time></trkpt><trkpt lat="47.86210686439581" lon="11.794152459378736"><ele>667.6666666666666</ele><time>2026-04-18T10:50:47Z</time></trkpt><trkpt lat="47.862031684153045" lon="11.794195142646249"><ele>667.8333333333333</ele><time>2026-04-18T10:50:49Z</time></trkpt><trkpt lat="47.861955509950185" lon="11.794222467722763"><ele>668.0</ele><time>2026-04-18T10:50:51Z</time></trkpt><trkpt lat="47.861887603849354" lon="11.794247518543763"><ele>668.0</ele><time>2026-04-18T10:50:53Z</time></trkpt><trkpt lat="47.86183606923488" lon="11.794025907152864"><ele>668.0</ele><time>2026-04-18T10:50:54Z</time></trkpt><trkpt lat="47.861819922653666" lon="11.793887153561684"><ele>668.0</ele><time>2026-04-18T10:50:55Z</time></trkpt><trkpt lat="47.861805087326346" lon="11.793759667720495"><ele>668.0</ele><time>2026-04-18T10:50:56Z</time></trkpt><trkpt lat="47.8617739441949" lon="11.793597165962009"><ele>667.8333333333333</ele><time>2026-04-18T10:50:58Z</time></trkpt><trkpt lat="47.861765741226144" lon="11.793394932238227"><ele>667.6666666666666</ele><time>2026-04-18T10:51:00Z</time></trkpt><trkpt lat="47.861769945257116" lon="11.793292430378033"><ele>667.5</ele><time>2026-04-18T10:51:01Z</time></trkpt><trkpt lat="47.86177503990243" lon="11.79318584480511"><ele>667.3333333333334</ele><time>2026-04-18T10:51:02Z</time></trkpt><trkpt lat="47.86178090227095" lon="11.793072387597975"><ele>667.1666666666667</ele><time>2026-04-18T10:51:03Z</time></trkpt><trkpt lat="47.86178353357065" lon="11.792951363246189"><ele>667.0</ele><time>2026-04-18T10:51:04Z</time></trkpt><trkpt lat="47.86181253740217" lon="11.792827416810272"><ele>667.4000000000001</ele><time>2026-04-18T10:51:05Z</time></trkpt><trkpt lat="47.8618375514096" lon="11.792708924683565"><ele>667.8000000000001</ele><time>2026-04-18T10:51:06Z</time></trkpt><trkpt lat="47.861873659694304" lon="11.792582658063047"><ele>668.2</ele><time>2026-04-18T10:51:07Z</time></trkpt><trkpt lat="47.86192839832111" lon="11.792449841372973"><ele>668.6</ele><time>2026-04-18T10:51:08Z</time></trkpt><trkpt lat="47.861995198916055" lon="11.792329068290712"><ele>669.0</ele><time>2026-04-18T10:51:09Z</time></trkpt><trkpt lat="47.86206769593724" lon="11.792212077658105"><ele>669.2</ele><time>2026-04-18T10:51:10Z</time></trkpt><trkpt lat="47.862136730653866" lon="11.792073434116293"><ele>669.4000000000001</ele><time>2026-04-18T10:51:11Z</time></trkpt><trkpt lat="47.862189755393324" lon="11.791924706693164"><ele>669.6</ele><time>2026-04-18T10:51:12Z</time></trkpt><trkpt lat="47.86223678273246" lon="11.791782333502756"><ele>669.8</ele><time>2026-04-18T10:51:13Z</time></trkpt><trkpt lat="47.862282071194045" lon="11.791636624055469"><ele>670.0</ele><time>2026-04-18T10:51:14Z</time></trkpt><trkpt lat="47.86231100350563" lon="11.791487243483305"><ele>669.0</ele><time>2026-04-18T10:51:15Z</time></trkpt><trkpt lat="47.86237050871084" lon="11.791366508409922"><ele>668.0</ele><time>2026-04-18T10:51:16Z</time></trkpt><trkpt lat="47.86242001936468" lon="11.791242038968578"><ele>667.0</ele><time>2026-04-18T10:51:17Z</time></trkpt><trkpt lat="47.862464440401524" lon="11.7911157988296"><ele>666.0</ele><time>2026-04-18T10:51:18Z</time></trkpt><trkpt lat="47.86250228837481" lon="11.790977456333074"><ele>665.0</ele><time>2026-04-18T10:51:19Z</time></trkpt><trkpt lat="47.86253662160317" lon="11.790826102810579"><ele>664.5</ele><time>2026-04-18T10:51:20Z</time></trkpt><trkpt lat="47.862577517121814" lon="11.790654419062653"><ele>664.0</ele><time>2026-04-18T10:51:21Z</time></trkpt><trkpt lat="47.86263785036792" lon="11.790517463839462"><ele>663.5</ele><time>2026-04-18T10:51:22.001Z</time></trkpt><trkpt lat="47.86270429097749" lon="11.79036822896557"><ele>663.0</ele><time>2026-04-18T10:51:23.001Z</time></trkpt><trkpt lat="47.86276992226311" lon="11.790203864203548"><ele>661.0</ele><time>2026-04-18T10:51:24.001Z</time></trkpt><trkpt lat="47.862830387467056" lon="11.790045031031775"><ele>659.0</ele><time>2026-04-18T10:51:25.001Z</time></trkpt><trkpt lat="47.86288637090821" lon="11.789876261595937"><ele>657.0</ele><time>2026-04-18T10:51:26.001Z</time></trkpt><trkpt lat="47.86295047609176" lon="11.789706384450485"><ele>655.0</ele><time>2026-04-18T10:51:27.001Z</time></trkpt><trkpt lat="47.8630126350124" lon="11.789552424780938"><ele>655.0</ele><time>2026-04-18T10:51:28.001Z</time></trkpt><trkpt lat="47.86307420551364" lon="11.789399001718323"><ele>655.0</ele><time>2026-04-18T10:51:29.001Z</time></trkpt><trkpt lat="47.863138107379044" lon="11.789243384748572"><ele>655.0</ele><time>2026-04-18T10:51:30.001Z</time></trkpt><trkpt lat="47.86321369636894" lon="11.78910807699272"><ele>655.0</ele><time>2026-04-18T10:51:31.001Z</time></trkpt><trkpt lat="47.863299431491775" lon="11.788983996114776"><ele>655.25</ele><time>2026-04-18T10:51:32.001Z</time></trkpt><trkpt lat="47.863395224581396" lon="11.78887082253738"><ele>655.5</ele><time>2026-04-18T10:51:33.001Z</time></trkpt><trkpt lat="47.86349859439641" lon="11.78877711191261"><ele>655.75</ele><time>2026-04-18T10:51:34.001Z</time></trkpt><trkpt lat="47.8636021225733" lon="11.788693738761554"><ele>656.0</ele><time>2026-04-18T10:51:35.001Z</time></trkpt><trkpt lat="47.8637054903651" lon="11.78860914996536"><ele>656.0</ele><time>2026-04-18T10:51:36.001Z</time></trkpt><trkpt lat="47.863807855992135" lon="11.788524797405469"><ele>656.0</ele><time>2026-04-18T10:51:37.001Z</time></trkpt><trkpt lat="47.8639103910872" lon="11.788439004355135"><ele>656.0</ele><time>2026-04-18T10:51:38.001Z</time></trkpt><trkpt lat="47.864013795241846" lon="11.788351875354689"><ele>656.0</ele><time>2026-04-18T10:51:39.001Z</time></trkpt><trkpt lat="47.86412063851872" lon="11.78827178284767"><ele>651.0</ele><time>2026-04-18T10:51:40.001Z</time></trkpt><trkpt lat="47.864230294670186" lon="11.788200862509532"><ele>646.0</ele><time>2026-04-18T10:51:41.001Z</time></trkpt><trkpt lat="47.8643354696378" lon="11.78813090755487"><ele>641.0</ele><time>2026-04-18T10:51:42.001Z</time></trkpt><trkpt lat="47.864419790522774" lon="11.788072162891417"><ele>636.0</ele><time>2026-04-18T10:51:43.001Z</time></trkpt><trkpt lat="47.8644872824251" lon="11.788019983908196"><ele>631.0</ele><time>2026-04-18T10:51:44.001Z</time></trkpt><trkpt lat="47.864540904163135" lon="11.787969093767446"><ele>631.0</ele><time>2026-04-18T10:51:45.001Z</time></trkpt><trkpt lat="47.86463248922658" lon="11.787865244224223"><ele>631.0</ele><time>2026-04-18T10:51:47.001Z</time></trkpt><trkpt lat="47.864709825377076" lon="11.787763523082589"><ele>631.0</ele><time>2026-04-18T10:51:49.001Z</time></trkpt><trkpt lat="47.864776273366076" lon="11.787663960634708"><ele>631.0</ele><time>2026-04-18T10:51:51.001Z</time></trkpt><trkpt lat="47.86481870191539" lon="11.787583305336826"><ele>631.0</ele><time>2026-04-18T10:51:53.001Z</time></trkpt><trkpt lat="47.8648540574412" lon="11.78748802165647"><ele>628.4285714285714</ele><time>2026-04-18T10:53:04.001Z</time></trkpt><trkpt lat="47.8648963366466" lon="11.787398278498049"><ele>625.8571428571428</ele><time>2026-04-18T10:53:07.001Z</time></trkpt><trkpt lat="47.86492801466748" lon="11.787302611909212"><ele>623.2857142857142</ele><time>2026-04-18T10:53:41.001Z</time></trkpt><trkpt lat="47.864970320109144" lon="11.787200949509355"><ele>620.7142857142858</ele><time>2026-04-18T10:53:44.001Z</time></trkpt><trkpt lat="47.86500632764673" lon="11.787116343723541"><ele>618.1428571428571</ele><time>2026-04-18T10:53:48.001Z</time></trkpt><trkpt lat="47.86503912207601" lon="11.787024474360896"><ele>615.5714285714286</ele><time>2026-04-18T10:53:52.001Z</time></trkpt><trkpt lat="47.865080976720456" lon="11.78692279104076"><ele>613.0</ele><time>2026-04-18T10:53:57.001Z</time></trkpt><trkpt lat="47.865130841600234" lon="11.786813892803725"><ele>613.0</ele><time>2026-04-18T10:54:00.001Z</time></trkpt><trkpt lat="47.865168505861575" lon="11.786738593848659"><ele>613.0</ele><time>2026-04-18T10:54:02.001Z</time></trkpt><trkpt lat="47.865222764069536" lon="11.786633232209764"><ele>613.0</ele><time>2026-04-18T10:54:05.001Z</time></trkpt><trkpt lat="47.865286603934486" lon="11.786529233341287"><ele>613.0</ele><time>2026-04-18T10:54:07.001Z</time></trkpt><trkpt lat="47.8653770496668" lon="11.786407706290072"><ele>613.0</ele><time>2026-04-18T10:54:09Z</time></trkpt><trkpt lat="47.86543981107443" lon="11.786323234875907"><ele>613.0</ele><time>2026-04-18T10:54:10Z</time></trkpt><trkpt lat="47.865503640650346" lon="11.786247175193756"><ele>613.0</ele><time>2026-04-18T10:54:11Z</time></trkpt><trkpt lat="47.86559392357468" lon="11.786145146051087"><ele>613.0</ele><time>2026-04-18T10:54:13Z</time></trkpt><trkpt lat="47.86569227370121" lon="11.786069163793858"><ele>613.0</ele><time>2026-04-18T10:54:15Z</time></trkpt><trkpt lat="47.8657660297662" lon="11.786016129478828"><ele>613.0</ele><time>2026-04-18T10:54:16Z</time></trkpt><trkpt lat="47.8658497796721" lon="11.785948069117673"><ele>612.8</ele><time>2026-04-18T10:54:17Z</time></trkpt><trkpt lat="47.865959441609725" lon="11.78589787087318"><ele>612.5999999999999</ele><time>2026-04-18T10:54:18Z</time></trkpt><trkpt lat="47.86606705803533" lon="11.785841674837808"><ele>612.4000000000001</ele><time>2026-04-18T10:54:19Z</time></trkpt><trkpt lat="47.86615979255241" lon="11.785776595294346"><ele>612.2</ele><time>2026-04-18T10:54:20Z</time></trkpt><trkpt lat="47.86624151650397" lon="11.785738964409218"><ele>612.0</ele><time>2026-04-18T10:54:21Z</time></trkpt><trkpt lat="47.866327811824924" lon="11.785700203914558"><ele>612.0</ele><time>2026-04-18T10:54:22Z</time></trkpt><trkpt lat="47.866418381938885" lon="11.78568450009944"><ele>612.0</ele><time>2026-04-18T10:54:23Z</time></trkpt><trkpt lat="47.8665047649064" lon="11.785654062382925"><ele>612.0</ele><time>2026-04-18T10:54:24Z</time></trkpt><trkpt lat="47.86659032019347" lon="11.785628275010843"><ele>612.0</ele><time>2026-04-18T10:54:25Z</time></trkpt><trkpt lat="47.86667257944546" lon="11.785607717268254"><ele>612.0</ele><time>2026-04-18T10:54:26Z</time></trkpt><trkpt lat="47.86675898203328" lon="11.785594025440957"><ele>612.0</ele><time>2026-04-18T10:54:27Z</time></trkpt><trkpt lat="47.86686318063731" lon="11.785583364169494"><ele>612.8000000000001</ele><time>2026-04-18T10:54:28Z</time></trkpt><trkpt lat="47.866975182378376" lon="11.785587190815727"><ele>613.6</ele><time>2026-04-18T10:54:29Z</time></trkpt><trkpt lat="47.867087930131056" lon="11.785605895728235"><ele>614.4000000000001</ele><time>2026-04-18T10:54:30Z</time></trkpt><trkpt lat="47.86719094723051" lon="11.785627680700342"><ele>615.2</ele><time>2026-04-18T10:54:31Z</time></trkpt><trkpt lat="47.8672772439052" lon="11.785652636501355"><ele>616.0</ele><time>2026-04-18T10:54:32Z</time></trkpt><trkpt lat="47.867352543362166" lon="11.785674872093674"><ele>616.0</ele><time>2026-04-18T10:54:33Z</time></trkpt><trkpt lat="47.86741749318954" lon="11.785694051500366"><ele>616.0</ele><time>2026-04-18T10:54:34Z</time></trkpt><trkpt lat="47.86748827984628" lon="11.785714506351892"><ele>616.0</ele><time>2026-04-18T10:54:35Z</time></trkpt><trkpt lat="47.867560126817594" lon="11.785734730312454"><ele>616.0</ele><time>2026-04-18T10:54:36Z</time></trkpt><trkpt lat="47.86762444896051" lon="11.785752836125452"><ele>616.0</ele><time>2026-04-18T10:54:37Z</time></trkpt><trkpt lat="47.8676940010844" lon="11.785772414125354"><ele>616.0</ele><time>2026-04-18T10:54:38Z</time></trkpt><trkpt lat="47.86776404217831" lon="11.78579183108429"><ele>616.0</ele><time>2026-04-18T10:54:39Z</time></trkpt><trkpt lat="47.86784066443999" lon="11.785812087554225"><ele>617.4</ele><time>2026-04-18T10:54:40Z</time></trkpt><trkpt lat="47.8679214541061" lon="11.785833445731264"><ele>618.8</ele><time>2026-04-18T10:54:41Z</time></trkpt><trkpt lat="47.86801048329128" lon="11.78585067877462"><ele>620.1999999999999</ele><time>2026-04-18T10:54:42Z</time></trkpt><trkpt lat="47.86810403078348" lon="11.785856198832692"><ele>621.6</ele><time>2026-04-18T10:54:43Z</time></trkpt><trkpt lat="47.86820979539344" lon="11.78585224143301"><ele>623.0</ele><time>2026-04-18T10:54:44Z</time></trkpt><trkpt lat="47.86835009956377" lon="11.785842855686765"><ele>626.0</ele><time>2026-04-18T10:54:45Z</time></trkpt><trkpt lat="47.86851366866373" lon="11.7858340220711"><ele>629.0</ele><time>2026-04-18T10:54:46Z</time></trkpt><trkpt lat="47.86867362502876" lon="11.785838874674377"><ele>632.0</ele><time>2026-04-18T10:54:47Z</time></trkpt><trkpt lat="47.86881668098052" lon="11.785870814277413"><ele>632.0</ele><time>2026-04-18T10:54:48Z</time></trkpt><trkpt lat="47.86892584678107" lon="11.785909423121518"><ele>632.0</ele><time>2026-04-18T10:54:49Z</time></trkpt><trkpt lat="47.86900675032538" lon="11.785941583084723"><ele>632.0</ele><time>2026-04-18T10:54:50Z</time></trkpt><trkpt lat="47.869085486091556" lon="11.785972511144177"><ele>632.0</ele><time>2026-04-18T10:54:51Z</time></trkpt><trkpt lat="47.86915464447862" lon="11.785999598078059"><ele>632.0</ele><time>2026-04-18T10:54:52Z</time></trkpt><trkpt lat="47.86928507962177" lon="11.78604626326767"><ele>629.6</ele><time>2026-04-18T10:54:54Z</time></trkpt><trkpt lat="47.86937092117985" lon="11.786076688004941"><ele>627.2</ele><time>2026-04-18T10:54:55Z</time></trkpt><trkpt lat="47.86946914662174" lon="11.786098867903311"><ele>624.8</ele><time>2026-04-18T10:54:56Z</time></trkpt><trkpt lat="47.86957478941962" lon="11.786108944149204"><ele>622.4</ele><time>2026-04-18T10:54:57Z</time></trkpt><trkpt lat="47.86969330920503" lon="11.786104133636643"><ele>620.0</ele><time>2026-04-18T10:54:58Z</time></trkpt><trkpt lat="47.8698173593107" lon="11.786089882819574"><ele>620.0</ele><time>2026-04-18T10:54:59Z</time></trkpt><trkpt lat="47.86992862140829" lon="11.786073029656077"><ele>620.0</ele><time>2026-04-18T10:55:00Z</time></trkpt><trkpt lat="47.870043778604426" lon="11.786052542253676"><ele>620.0</ele><time>2026-04-18T10:55:01.001Z</time></trkpt><trkpt lat="47.87016413634737" lon="11.78602880333537"><ele>620.0</ele><time>2026-04-18T10:55:02.001Z</time></trkpt><trkpt lat="47.87027187096163" lon="11.78600479117806"><ele>623.8</ele><time>2026-04-18T10:55:03.001Z</time></trkpt><trkpt lat="47.87037733851317" lon="11.785975408120654"><ele>627.6</ele><time>2026-04-18T10:55:04.001Z</time></trkpt><trkpt lat="47.87048573546819" lon="11.785937119879339"><ele>631.4</ele><time>2026-04-18T10:55:05.001Z</time></trkpt><trkpt lat="47.870588826895954" lon="11.785897011682327"><ele>635.2</ele><time>2026-04-18T10:55:06.001Z</time></trkpt><trkpt lat="47.87068373459314" lon="11.785860984777605"><ele>639.0</ele><time>2026-04-18T10:55:07.001Z</time></trkpt><trkpt lat="47.8707796429917" lon="11.78582398449021"><ele>639.0</ele><time>2026-04-18T10:55:08.001Z</time></trkpt><trkpt lat="47.870861852740084" lon="11.785798215514406"><ele>639.0</ele><time>2026-04-18T10:55:09.001Z</time></trkpt><trkpt lat="47.87095663573794" lon="11.785776888103793"><ele>639.0</ele><time>2026-04-18T10:55:10.001Z</time></trkpt><trkpt lat="47.871058063636845" lon="11.785772487965815"><ele>639.0</ele><time>2026-04-18T10:55:11.001Z</time></trkpt><trkpt lat="47.8711527962364" lon="11.785788320401302"><ele>639.0</ele><time>2026-04-18T10:55:12.001Z</time></trkpt><trkpt lat="47.871260607281286" lon="11.785801518263284"><ele>640.0</ele><time>2026-04-18T10:55:13.001Z</time></trkpt><trkpt lat="47.87136893401609" lon="11.785807724711619"><ele>641.0</ele><time>2026-04-18T10:55:14.001Z</time></trkpt><trkpt lat="47.87149777934624" lon="11.785784491293793"><ele>642.0</ele><time>2026-04-18T10:55:15.001Z</time></trkpt><trkpt lat="47.871618215897314" lon="11.785717511462545"><ele>643.0</ele><time>2026-04-18T10:55:16.001Z</time></trkpt><trkpt lat="47.8717323610996" lon="11.785630159182956"><ele>642.75</ele><time>2026-04-18T10:55:17.001Z</time></trkpt><trkpt lat="47.87184573191185" lon="11.7855272244639"><ele>642.5</ele><time>2026-04-18T10:55:18.001Z</time></trkpt><trkpt lat="47.87199277454186" lon="11.78550190647639"><ele>642.25</ele><time>2026-04-18T10:55:19.001Z</time></trkpt><trkpt lat="47.87211023355356" lon="11.785474048881197"><ele>642.0</ele><time>2026-04-18T10:55:20.001Z</time></trkpt><trkpt lat="47.87221854871051" lon="11.785450792371266"><ele>642.0</ele><time>2026-04-18T10:55:21.001Z</time></trkpt><trkpt lat="47.87233234730637" lon="11.7854077626528"><ele>642.0</ele><time>2026-04-18T10:55:22.001Z</time></trkpt><trkpt lat="47.87241908492279" lon="11.785360768928413"><ele>642.0</ele><time>2026-04-18T10:55:23.001Z</time></trkpt><trkpt lat="47.872516832744545" lon="11.785281336854315"><ele>642.0</ele><time>2026-04-18T10:55:24.001Z</time></trkpt><trkpt lat="47.87258223981135" lon="11.785198188264113"><ele>642.0</ele><time>2026-04-18T10:55:25.001Z</time></trkpt><trkpt lat="47.87263364552991" lon="11.785093669671204"><ele>644.6</ele><time>2026-04-18T10:55:26.001Z</time></trkpt><trkpt lat="47.87266320464526" lon="11.78500233610402"><ele>647.2</ele><time>2026-04-18T10:55:27.001Z</time></trkpt><trkpt lat="47.87281152798973" lon="11.785000630749813"><ele>649.8</ele><time>2026-04-18T10:55:29.001Z</time></trkpt><trkpt lat="47.87292458742655" lon="11.78497386297648"><ele>652.4</ele><time>2026-04-18T10:55:30.001Z</time></trkpt><trkpt lat="47.87303618328796" lon="11.784922178266788"><ele>655.0</ele><time>2026-04-18T10:55:31.001Z</time></trkpt><trkpt lat="47.87312485252726" lon="11.784877157640151"><ele>655.0</ele><time>2026-04-18T10:55:32.001Z</time></trkpt><trkpt lat="47.87322142461899" lon="11.784827179860477"><ele>655.0</ele><time>2026-04-18T10:55:33.001Z</time></trkpt><trkpt lat="47.87333970145642" lon="11.784763385151711"><ele>655.0</ele><time>2026-04-18T10:55:34.001Z</time></trkpt><trkpt lat="47.873470334503224" lon="11.784691219830162"><ele>655.0</ele><time>2026-04-18T10:55:35.001Z</time></trkpt><trkpt lat="47.87360412721065" lon="11.784617924962433"><ele>653.6666666666667</ele><time>2026-04-18T10:55:36.001Z</time></trkpt><trkpt lat="47.87374648517323" lon="11.784542542369117"><ele>652.3333333333334</ele><time>2026-04-18T10:55:37.001Z</time></trkpt><trkpt lat="47.873892896216795" lon="11.784464724442847"><ele>651.0</ele><time>2026-04-18T10:55:38.001Z</time></trkpt><trkpt lat="47.87404273798281" lon="11.784382923219853"><ele>653.0</ele><time>2026-04-18T10:55:39.001Z</time></trkpt><trkpt lat="47.87419328693578" lon="11.784300735982558"><ele>655.0</ele><time>2026-04-18T10:55:40.001Z</time></trkpt><trkpt lat="47.87434968179312" lon="11.784216477614667"><ele>657.0</ele><time>2026-04-18T10:55:41.001Z</time></trkpt><trkpt lat="47.87450528560434" lon="11.784133674767423"><ele>657.25</ele><time>2026-04-18T10:55:42.001Z</time></trkpt><trkpt lat="47.87464626479901" lon="11.784058654250256"><ele>657.5</ele><time>2026-04-18T10:55:43.001Z</time></trkpt><trkpt lat="47.874784056394304" lon="11.783985329835243"><ele>657.75</ele><time>2026-04-18T10:55:44.001Z</time></trkpt><trkpt lat="47.87491776387702" lon="11.783912796354558"><ele>658.0</ele><time>2026-04-18T10:55:45.001Z</time></trkpt><trkpt lat="47.87504556481902" lon="11.783838638069142"><ele>658.25</ele><time>2026-04-18T10:55:46.001Z</time></trkpt><trkpt lat="47.87516958460669" lon="11.78375999302208"><ele>658.5</ele><time>2026-04-18T10:55:47.001Z</time></trkpt><trkpt lat="47.87529034425228" lon="11.783670738560465"><ele>658.75</ele><time>2026-04-18T10:55:48.001Z</time></trkpt><trkpt lat="47.875425652637404" lon="11.783556927236335"><ele>659.0</ele><time>2026-04-18T10:55:49.001Z</time></trkpt><trkpt lat="47.875570276422565" lon="11.783429435510465"><ele>659.0</ele><time>2026-04-18T10:55:50.001Z</time></trkpt><trkpt lat="47.87572106118814" lon="11.783295788029337"><ele>659.0</ele><time>2026-04-18T10:55:51.001Z</time></trkpt><trkpt lat="47.875878540292" lon="11.783155165025782"><ele>659.0</ele><time>2026-04-18T10:55:52.001Z</time></trkpt><trkpt lat="47.876031387682794" lon="11.782991887211441"><ele>659.3333333333333</ele><time>2026-04-18T10:55:53.001Z</time></trkpt><trkpt lat="47.87619615054119" lon="11.782852556335225"><ele>659.6666666666666</ele><time>2026-04-18T10:55:54.001Z</time></trkpt><trkpt lat="47.876371190860056" lon="11.782729016523092"><ele>660.0</ele><time>2026-04-18T10:55:55.001Z</time></trkpt><trkpt lat="47.87654072240276" lon="11.782591988733259"><ele>660.0</ele><time>2026-04-18T10:55:56.001Z</time></trkpt><trkpt lat="47.87670973254417" lon="11.782460676016658"><ele>660.0</ele><time>2026-04-18T10:55:57.001Z</time></trkpt><trkpt lat="47.87686870411086" lon="11.782312104748636"><ele>660.0</ele><time>2026-04-18T10:55:58.001Z</time></trkpt><trkpt lat="47.8770431734846" lon="11.782209304384985"><ele>656.6666666666666</ele><time>2026-04-18T10:55:59.001Z</time></trkpt><trkpt lat="47.87719554387571" lon="11.782092804673907"><ele>653.3333333333333</ele><time>2026-04-18T10:56:00.001Z</time></trkpt><trkpt lat="47.87734402391036" lon="11.781970073002205"><ele>650.0</ele><time>2026-04-18T10:56:01.001Z</time></trkpt><trkpt lat="47.877468488653136" lon="11.78186232672993"><ele>650.3333333333333</ele><time>2026-04-18T10:56:02.001Z</time></trkpt><trkpt lat="47.877608390444934" lon="11.781740475910123"><ele>650.6666666666666</ele><time>2026-04-18T10:56:03.001Z</time></trkpt><trkpt lat="47.87774531898789" lon="11.781617023484953"><ele>651.0</ele><time>2026-04-18T10:56:04.001Z</time></trkpt><trkpt lat="47.87787195356849" lon="11.781498454432022"><ele>651.0</ele><time>2026-04-18T10:56:05.001Z</time></trkpt><trkpt lat="47.87798754390908" lon="11.781383565878265"><ele>651.0</ele><time>2026-04-18T10:56:06.001Z</time></trkpt><trkpt lat="47.87810200654488" lon="11.781262909658935"><ele>651.0</ele><time>2026-04-18T10:56:07.001Z</time></trkpt><trkpt lat="47.878217181000565" lon="11.781129701033379"><ele>651.0</ele><time>2026-04-18T10:56:08.001Z</time></trkpt><trkpt lat="47.87832900575027" lon="11.780996025175867"><ele>653.0</ele><time>2026-04-18T10:56:09.001Z</time></trkpt><trkpt lat="47.878430198418926" lon="11.780829397774028"><ele>655.0</ele><time>2026-04-18T10:56:10.001Z</time></trkpt><trkpt lat="47.87856246358863" lon="11.780702212519865"><ele>657.0</ele><time>2026-04-18T10:56:11.001Z</time></trkpt><trkpt lat="47.87869818283639" lon="11.780556769523816"><ele>657.3333333333334</ele><time>2026-04-18T10:56:12.001Z</time></trkpt><trkpt lat="47.8788466012637" lon="11.78042554818835"><ele>657.6666666666667</ele><time>2026-04-18T10:56:13.001Z</time></trkpt><trkpt lat="47.87899289530849" lon="11.780280192288634"><ele>658.0</ele><time>2026-04-18T10:56:14.001Z</time></trkpt><trkpt lat="47.87914949153678" lon="11.78015855490809"><ele>657.0</ele><time>2026-04-18T10:56:15.001Z</time></trkpt><trkpt lat="47.87930373446057" lon="11.780035548641719"><ele>656.0</ele><time>2026-04-18T10:56:16.001Z</time></trkpt><trkpt lat="47.8794555588629" lon="11.779910129979378"><ele>655.0</ele><time>2026-04-18T10:56:17.001Z</time></trkpt><trkpt lat="47.879614892406124" lon="11.77980836017482"><ele>655.0</ele><time>2026-04-18T10:56:18.001Z</time></trkpt><trkpt lat="47.87976757464856" lon="11.779687140194323"><ele>655.0</ele><time>2026-04-18T10:56:19.001Z</time></trkpt><trkpt lat="47.87992890032692" lon="11.779566777798943"><ele>655.0</ele><time>2026-04-18T10:56:20.001Z</time></trkpt><trkpt lat="47.88008177605109" lon="11.779464721862512"><ele>654.6666666666667</ele><time>2026-04-18T10:56:21Z</time></trkpt><trkpt lat="47.88023699287646" lon="11.779361125385808"><ele>654.3333333333334</ele><time>2026-04-18T10:56:22Z</time></trkpt><trkpt lat="47.880389902749435" lon="11.779261139093455"><ele>654.0</ele><time>2026-04-18T10:56:23Z</time></trkpt><trkpt lat="47.880550957012815" lon="11.779158107559144"><ele>654.0</ele><time>2026-04-18T10:56:24Z</time></trkpt><trkpt lat="47.88071026893276" lon="11.77904923153776"><ele>654.0</ele><time>2026-04-18T10:56:25Z</time></trkpt><trkpt lat="47.880871627009476" lon="11.77891841233185"><ele>654.0</ele><time>2026-04-18T10:56:26Z</time></trkpt><trkpt lat="47.88103012449838" lon="11.778777120844085"><ele>653.6666666666666</ele><time>2026-04-18T10:56:27Z</time></trkpt><trkpt lat="47.88118348574252" lon="11.778635035500804"><ele>653.3333333333333</ele><time>2026-04-18T10:56:28Z</time></trkpt><trkpt lat="47.88133405265586" lon="11.778493742329667"><ele>653.0</ele><time>2026-04-18T10:56:29Z</time></trkpt><trkpt lat="47.881480639911196" lon="11.778356183608604"><ele>653.3333333333333</ele><time>2026-04-18T10:56:30Z</time></trkpt><trkpt lat="47.88162456104812" lon="11.778221126784658"><ele>653.6666666666666</ele><time>2026-04-18T10:56:31Z</time></trkpt><trkpt lat="47.88176348120816" lon="11.778091183890046"><ele>654.0</ele><time>2026-04-18T10:56:32Z</time></trkpt><trkpt lat="47.881905232210165" lon="11.777961622169244"><ele>654.0</ele><time>2026-04-18T10:56:33Z</time></trkpt><trkpt lat="47.882052058453326" lon="11.777831606146238"><ele>654.0</ele><time>2026-04-18T10:56:34Z</time></trkpt><trkpt lat="47.88219750896837" lon="11.777702808190398"><ele>654.0</ele><time>2026-04-18T10:56:35Z</time></trkpt><trkpt lat="47.882344347258815" lon="11.777574501695527"><ele>654.3333333333334</ele><time>2026-04-18T10:56:36Z</time></trkpt><trkpt lat="47.8824922379241" lon="11.777449742428589"><ele>654.6666666666667</ele><time>2026-04-18T10:56:37Z</time></trkpt><trkpt lat="47.882640040996954" lon="11.777331743530517"><ele>655.0</ele><time>2026-04-18T10:56:38Z</time></trkpt><trkpt lat="47.88278496593766" lon="11.777217451207255"><ele>655.0</ele><time>2026-04-18T10:56:39Z</time></trkpt><trkpt lat="47.88292942331783" lon="11.777099327768848"><ele>655.0</ele><time>2026-04-18T10:56:40Z</time></trkpt><trkpt lat="47.88307671256949" lon="11.776979022955716"><ele>655.0</ele><time>2026-04-18T10:56:41Z</time></trkpt><trkpt lat="47.883223829734014" lon="11.776860962968433"><ele>655.0</ele><time>2026-04-18T10:56:42Z</time></trkpt><trkpt lat="47.883376406228386" lon="11.776736687877072"><ele>655.0</ele><time>2026-04-18T10:56:43Z</time></trkpt><trkpt lat="47.88352397683262" lon="11.776613475083687"><ele>655.0</ele><time>2026-04-18T10:56:44Z</time></trkpt><trkpt lat="47.88366898215493" lon="11.77648829431138"><ele>654.6666666666667</ele><time>2026-04-18T10:56:45Z</time></trkpt><trkpt lat="47.883809776082124" lon="11.776360976164245"><ele>654.3333333333334</ele><time>2026-04-18T10:56:46Z</time></trkpt><trkpt lat="47.88394405105922" lon="11.776238724563642"><ele>654.0</ele><time>2026-04-18T10:56:47Z</time></trkpt><trkpt lat="47.884073452042124" lon="11.776115976991054"><ele>654.0</ele><time>2026-04-18T10:56:48Z</time></trkpt><trkpt lat="47.884202821377144" lon="11.775985411169382"><ele>654.0</ele><time>2026-04-18T10:56:49Z</time></trkpt><trkpt lat="47.88433738320326" lon="11.775832669925734"><ele>654.0</ele><time>2026-04-18T10:56:50Z</time></trkpt><trkpt lat="47.88447982126561" lon="11.775653046008955"><ele>654.0</ele><time>2026-04-18T10:56:51Z</time></trkpt><trkpt lat="47.88461929911968" lon="11.775470982918836"><ele>654.0</ele><time>2026-04-18T10:56:52Z</time></trkpt><trkpt lat="47.884752540152554" lon="11.775292432479143"><ele>654.0</ele><time>2026-04-18T10:56:53Z</time></trkpt><trkpt lat="47.884874498939986" lon="11.77512900078357"><ele>653.6666666666666</ele><time>2026-04-18T10:56:54Z</time></trkpt><trkpt lat="47.88499264154541" lon="11.774970683146973"><ele>653.3333333333333</ele><time>2026-04-18T10:56:55Z</time></trkpt><trkpt lat="47.88510865656869" lon="11.774817706117256"><ele>653.0</ele><time>2026-04-18T10:56:56Z</time></trkpt><trkpt lat="47.88522901599993" lon="11.77465998548475"><ele>653.0</ele><time>2026-04-18T10:56:57Z</time></trkpt><trkpt lat="47.885354212988126" lon="11.774495925689084"><ele>653.0</ele><time>2026-04-18T10:56:58Z</time></trkpt><trkpt lat="47.88548614519885" lon="11.774323040136338"><ele>653.0</ele><time>2026-04-18T10:56:59Z</time></trkpt><trkpt lat="47.88562079765163" lon="11.774146589311005"><ele>653.0</ele><time>2026-04-18T10:57:00Z</time></trkpt><trkpt lat="47.885752084504446" lon="11.773972616123338"><ele>653.0</ele><time>2026-04-18T10:57:01Z</time></trkpt><trkpt lat="47.88588250663359" lon="11.77379832120709"><ele>653.0</ele><time>2026-04-18T10:57:02Z</time></trkpt><trkpt lat="47.88601277376685" lon="11.773624232972786"><ele>652.6666666666666</ele><time>2026-04-18T10:57:03Z</time></trkpt><trkpt lat="47.88614282163942" lon="11.773453383475209"><ele>652.3333333333334</ele><time>2026-04-18T10:57:04Z</time></trkpt><trkpt lat="47.88627135507794" lon="11.773286131377436"><ele>652.0</ele><time>2026-04-18T10:57:05Z</time></trkpt><trkpt lat="47.886399173313485" lon="11.773117270421611"><ele>652.0</ele><time>2026-04-18T10:57:06Z</time></trkpt><trkpt lat="47.886526345626756" lon="11.772944594298185"><ele>652.0</ele><time>2026-04-18T10:57:07Z</time></trkpt><trkpt lat="47.88665039360813" lon="11.772759399470765"><ele>652.0</ele><time>2026-04-18T10:57:08Z</time></trkpt><trkpt lat="47.88676560195362" lon="11.772568286528005"><ele>652.0</ele><time>2026-04-18T10:57:09Z</time></trkpt><trkpt lat="47.88687049151974" lon="11.772381955623723"><ele>652.0</ele><time>2026-04-18T10:57:10Z</time></trkpt><trkpt lat="47.88697298444147" lon="11.7722020534633"><ele>652.0</ele><time>2026-04-18T10:57:11Z</time></trkpt><trkpt lat="47.88707252421247" lon="11.772024563812195"><ele>651.75</ele><time>2026-04-18T10:57:12Z</time></trkpt><trkpt lat="47.88717310605603" lon="11.771849008841295"><ele>651.5</ele><time>2026-04-18T10:57:13Z</time></trkpt><trkpt lat="47.88726997655192" lon="11.77168109403351"><ele>651.25</ele><time>2026-04-18T10:57:14Z</time></trkpt><trkpt lat="47.8873590501701" lon="11.771524469252538"><ele>651.0</ele><time>2026-04-18T10:57:15.001Z</time></trkpt><trkpt lat="47.8874452214139" lon="11.771370416848649"><ele>651.0</ele><time>2026-04-18T10:57:16.001Z</time></trkpt><trkpt lat="47.88753110046796" lon="11.77121887116921"><ele>651.0</ele><time>2026-04-18T10:57:17.001Z</time></trkpt><trkpt lat="47.88761589997031" lon="11.771068999068339"><ele>651.0</ele><time>2026-04-18T10:57:18.001Z</time></trkpt><trkpt lat="47.88769778290914" lon="11.770911696699113"><ele>651.0</ele><time>2026-04-18T10:57:19.001Z</time></trkpt><trkpt lat="47.8877760539697" lon="11.770747109399323"><ele>651.0</ele><time>2026-04-18T10:57:20.001Z</time></trkpt><trkpt lat="47.887849741466546" lon="11.770587643507477"><ele>651.0</ele><time>2026-04-18T10:57:21.001Z</time></trkpt><trkpt lat="47.887922478723326" lon="11.770423941402052"><ele>651.0</ele><time>2026-04-18T10:57:22.001Z</time></trkpt><trkpt lat="47.887993246603926" lon="11.77025746650882"><ele>651.0</ele><time>2026-04-18T10:57:23.001Z</time></trkpt><trkpt lat="47.8880518240164" lon="11.770089235856505"><ele>651.4</ele><time>2026-04-18T10:57:24.001Z</time></trkpt><trkpt lat="47.88809753819433" lon="11.769928948000738"><ele>651.8</ele><time>2026-04-18T10:57:25.001Z</time></trkpt><trkpt lat="47.888133781645195" lon="11.769780096503696"><ele>652.1999999999999</ele><time>2026-04-18T10:57:26.001Z</time></trkpt><trkpt lat="47.88816169054092" lon="11.769637251939951"><ele>652.5999999999999</ele><time>2026-04-18T10:57:27.001Z</time></trkpt><trkpt lat="47.88818417463729" lon="11.769491735915409"><ele>653.0</ele><time>2026-04-18T10:57:28.001Z</time></trkpt><trkpt lat="47.88819968708044" lon="11.769348252862201"><ele>653.6666666666666</ele><time>2026-04-18T10:57:29.001Z</time></trkpt><trkpt lat="47.88819923014929" lon="11.769206979165052"><ele>654.3333333333333</ele><time>2026-04-18T10:57:30.001Z</time></trkpt><trkpt lat="47.88821593982548" lon="11.769071363722505"><ele>655.0</ele><time>2026-04-18T10:57:31.001Z</time></trkpt><trkpt lat="47.88823458441127" lon="11.768953024927027"><ele>655.6666666666666</ele><time>2026-04-18T10:57:32.001Z</time></trkpt><trkpt lat="47.88826146236614" lon="11.768832754132509"><ele>656.3333333333334</ele><time>2026-04-18T10:57:33.001Z</time></trkpt><trkpt lat="47.888323532651356" lon="11.76874512948003"><ele>657.0</ele><time>2026-04-18T10:57:34.001Z</time></trkpt><trkpt lat="47.888390763325994" lon="11.768660949742014"><ele>657.3333333333334</ele><time>2026-04-18T10:57:35.001Z</time></trkpt><trkpt lat="47.88846759186625" lon="11.768614475694818"><ele>657.6666666666666</ele><time>2026-04-18T10:57:36.001Z</time></trkpt><trkpt lat="47.88854525728987" lon="11.76857155414988"><ele>658.0</ele><time>2026-04-18T10:57:37.001Z</time></trkpt><trkpt lat="47.888647921296446" lon="11.768515022223852"><ele>658.3333333333333</ele><time>2026-04-18T10:57:39.001Z</time></trkpt><trkpt lat="47.88870825733652" lon="11.768484787875533"><ele>658.6666666666666</ele><time>2026-04-18T10:57:41.001Z</time></trkpt><trkpt lat="47.88877932468977" lon="11.768452072916315"><ele>659.0</ele><time>2026-04-18T10:57:44.001Z</time></trkpt><trkpt lat="47.88885805777368" lon="11.768415830863882"><ele>658.0</ele><time>2026-04-18T10:57:51.001Z</time></trkpt><trkpt lat="47.88892455353193" lon="11.768380300867904"><ele>657.0</ele><time>2026-04-18T10:57:54.001Z</time></trkpt><trkpt lat="47.88889176547582" lon="11.768129061474001"><ele>656.0</ele><time>2026-04-18T10:57:55.001Z</time></trkpt><trkpt lat="47.888861141395495" lon="11.768030335993089"><ele>655.0</ele><time>2026-04-18T10:57:56.001Z</time></trkpt><trkpt lat="47.888829182666086" lon="11.767912039445324"><ele>654.0</ele><time>2026-04-18T10:57:57.001Z</time></trkpt><trkpt lat="47.88878875442295" lon="11.76778831241031"><ele>653.6666666666666</ele><time>2026-04-18T10:57:58.001Z</time></trkpt><trkpt lat="47.88874841696693" lon="11.767681784176578"><ele>653.3333333333334</ele><time>2026-04-18T10:57:59.001Z</time></trkpt><trkpt lat="47.88870190073301" lon="11.767567502639094"><ele>653.0</ele><time>2026-04-18T10:58:00.001Z</time></trkpt><trkpt lat="47.888655788826114" lon="11.767451957467124"><ele>652.6666666666667</ele><time>2026-04-18T10:58:01.001Z</time></trkpt><trkpt lat="47.88860957140358" lon="11.767342737541677"><ele>652.3333333333334</ele><time>2026-04-18T10:58:02.001Z</time></trkpt><trkpt lat="47.88856520793041" lon="11.767223394474017"><ele>652.0</ele><time>2026-04-18T10:58:03.001Z</time></trkpt><trkpt lat="47.88851243235899" lon="11.767103415416889"><ele>652.0</ele><time>2026-04-18T10:58:04.001Z</time></trkpt><trkpt lat="47.888448310089835" lon="11.766979979449026"><ele>652.0</ele><time>2026-04-18T10:58:05.001Z</time></trkpt><trkpt lat="47.88838776094864" lon="11.766866944117426"><ele>652.0</ele><time>2026-04-18T10:58:06.001Z</time></trkpt><trkpt lat="47.88833379905504" lon="11.766759871593488"><ele>652.0</ele><time>2026-04-18T10:58:07.001Z</time></trkpt><trkpt lat="47.88828564716104" lon="11.766661242141637"><ele>652.0</ele><time>2026-04-18T10:58:08.001Z</time></trkpt><trkpt lat="47.88823716116966" lon="11.766557016590582"><ele>652.6</ele><time>2026-04-18T10:58:09.001Z</time></trkpt><trkpt lat="47.88818604294953" lon="11.766456141160031"><ele>653.2</ele><time>2026-04-18T10:58:10.001Z</time></trkpt><trkpt lat="47.88812985509652" lon="11.766353045538533"><ele>653.8</ele><time>2026-04-18T10:58:11.001Z</time></trkpt><trkpt lat="47.88806718846599" lon="11.76622286216684"><ele>654.4</ele><time>2026-04-18T10:58:12.001Z</time></trkpt><trkpt lat="47.88800267421237" lon="11.76606389903352"><ele>655.0</ele><time>2026-04-18T10:58:13.001Z</time></trkpt><trkpt lat="47.88794311189402" lon="11.765885329912042"><ele>655.0</ele><time>2026-04-18T10:58:14.001Z</time></trkpt><trkpt lat="47.88789992273018" lon="11.765704151428391"><ele>655.0</ele><time>2026-04-18T10:58:15.001Z</time></trkpt><trkpt lat="47.887865722062806" lon="11.765536258581442"><ele>655.0</ele><time>2026-04-18T10:58:16.001Z</time></trkpt><trkpt lat="47.887838750562" lon="11.765383986683295"><ele>655.0</ele><time>2026-04-18T10:58:17.001Z</time></trkpt><trkpt lat="47.88781710450809" lon="11.765240905782258"><ele>655.2</ele><time>2026-04-18T10:58:18.001Z</time></trkpt><trkpt lat="47.88778641489546" lon="11.765104706416862"><ele>655.4</ele><time>2026-04-18T10:58:19.001Z</time></trkpt><trkpt lat="47.887741951561" lon="11.764962010502915"><ele>655.5999999999999</ele><time>2026-04-18T10:58:20.001Z</time></trkpt><trkpt lat="47.88767821835076" lon="11.764829506743236"><ele>655.8</ele><time>2026-04-18T10:58:21Z</time></trkpt><trkpt lat="47.887602555956555" lon="11.764709087124853"><ele>656.0</ele><time>2026-04-18T10:58:22Z</time></trkpt><trkpt lat="47.88749704337142" lon="11.764607323267649"><ele>656.0</ele><time>2026-04-18T10:58:23Z</time></trkpt><trkpt lat="47.88738695985077" lon="11.764506657089482"><ele>656.0</ele><time>2026-04-18T10:58:24Z</time></trkpt><trkpt lat="47.88726975564002" lon="11.764424422073963"><ele>656.0</ele><time>2026-04-18T10:58:25Z</time></trkpt><trkpt lat="47.88716165355278" lon="11.764341273631493"><ele>656.0</ele><time>2026-04-18T10:58:26Z</time></trkpt><trkpt lat="47.88707015513772" lon="11.764238081924947"><ele>656.0</ele><time>2026-04-18T10:58:27Z</time></trkpt><trkpt lat="47.886979195684845" lon="11.764139682707457"><ele>656.0</ele><time>2026-04-18T10:58:28Z</time></trkpt><trkpt lat="47.886903854738684" lon="11.764023197445857"><ele>656.0</ele><time>2026-04-18T10:58:29Z</time></trkpt><trkpt lat="47.88685340398475" lon="11.763883308110465"><ele>656.0</ele><time>2026-04-18T10:58:30Z</time></trkpt><trkpt lat="47.88682884002005" lon="11.763720134616143"><ele>656.0</ele><time>2026-04-18T10:58:31Z</time></trkpt><trkpt lat="47.886817255020766" lon="11.763538698118746"><ele>656.0</ele><time>2026-04-18T10:58:32Z</time></trkpt><trkpt lat="47.886809869271076" lon="11.763355757459612"><ele>656.0</ele><time>2026-04-18T10:58:33Z</time></trkpt><trkpt lat="47.88678203240037" lon="11.76317949713332"><ele>656.0</ele><time>2026-04-18T10:58:34Z</time></trkpt><trkpt lat="47.88675222058582" lon="11.763015499922039"><ele>656.0</ele><time>2026-04-18T10:58:35Z</time></trkpt><trkpt lat="47.886726941031455" lon="11.762859193604298"><ele>656.5</ele><time>2026-04-18T10:58:36Z</time></trkpt><trkpt lat="47.886695603749935" lon="11.762696491745606"><ele>657.0</ele><time>2026-04-18T10:58:37Z</time></trkpt><trkpt lat="47.886669866956844" lon="11.762536859350119"><ele>657.5</ele><time>2026-04-18T10:58:38Z</time></trkpt><trkpt lat="47.88665700804633" lon="11.762357333901939"><ele>658.0</ele><time>2026-04-18T10:58:39Z</time></trkpt><trkpt lat="47.886668261522026" lon="11.762170286741165"><ele>658.0</ele><time>2026-04-18T10:58:40Z</time></trkpt><trkpt lat="47.88668364182034" lon="11.76198950664738"><ele>658.0</ele><time>2026-04-18T10:58:41Z</time></trkpt><trkpt lat="47.88669339685876" lon="11.761814278216509"><ele>658.0</ele><time>2026-04-18T10:58:42Z</time></trkpt><trkpt lat="47.88671352866082" lon="11.76164143053305"><ele>658.0</ele><time>2026-04-18T10:58:43Z</time></trkpt><trkpt lat="47.886746537897636" lon="11.761471406545558"><ele>657.8</ele><time>2026-04-18T10:58:44Z</time></trkpt><trkpt lat="47.88677525402785" lon="11.761308374597839"><ele>657.5999999999999</ele><time>2026-04-18T10:58:45Z</time></trkpt><trkpt lat="47.88679909553944" lon="11.761143159576621"><ele>657.4000000000001</ele><time>2026-04-18T10:58:46Z</time></trkpt><trkpt lat="47.88681505814032" lon="11.760983612484797"><ele>657.2</ele><time>2026-04-18T10:58:47Z</time></trkpt><trkpt lat="47.8868079485108" lon="11.760819058973148"><ele>657.0</ele><time>2026-04-18T10:58:48Z</time></trkpt><trkpt lat="47.886789848603584" lon="11.760654684157478"><ele>657.5</ele><time>2026-04-18T10:58:49Z</time></trkpt><trkpt lat="47.886756167848084" lon="11.760493290863398"><ele>658.0</ele><time>2026-04-18T10:58:50Z</time></trkpt><trkpt lat="47.88669011218439" lon="11.760314756244192"><ele>658.5</ele><time>2026-04-18T10:58:51Z</time></trkpt><trkpt lat="47.88661257292933" lon="11.76014171956158"><ele>659.0</ele><time>2026-04-18T10:58:52Z</time></trkpt><trkpt lat="47.8865381098917" lon="11.759986566978577"><ele>659.5</ele><time>2026-04-18T10:58:53Z</time></trkpt><trkpt lat="47.88646947213847" lon="11.75985523584389"><ele>660.0</ele><time>2026-04-18T10:58:54Z</time></trkpt><trkpt lat="47.88641401189773" lon="11.759709840007769"><ele>660.5</ele><time>2026-04-18T10:58:55Z</time></trkpt><trkpt lat="47.88633618366952" lon="11.75955979875007"><ele>661.0</ele><time>2026-04-18T10:58:56Z</time></trkpt><trkpt lat="47.88623817815536" lon="11.759415286487613"><ele>661.0</ele><time>2026-04-18T10:58:57Z</time></trkpt><trkpt lat="47.88613927015218" lon="11.759226033783547"><ele>661.0</ele><time>2026-04-18T10:58:58Z</time></trkpt><trkpt lat="47.886034872369635" lon="11.75903854716716"><ele>661.0</ele><time>2026-04-18T10:58:59Z</time></trkpt><trkpt lat="47.8859269398804" lon="11.758867673714947"><ele>661.0</ele><time>2026-04-18T10:59:00Z</time></trkpt><trkpt lat="47.88582319118909" lon="11.758714152655022"><ele>661.0</ele><time>2026-04-18T10:59:01Z</time></trkpt><trkpt lat="47.88571216627757" lon="11.758571229067"><ele>661.0</ele><time>2026-04-18T10:59:02Z</time></trkpt><trkpt lat="47.88558926888303" lon="11.758432871301602"><ele>661.0</ele><time>2026-04-18T10:59:03Z</time></trkpt><trkpt lat="47.88544745319695" lon="11.758311016070973"><ele>661.0</ele><time>2026-04-18T10:59:04Z</time></trkpt><trkpt lat="47.885296279945166" lon="11.758198106951578"><ele>661.0</ele><time>2026-04-18T10:59:05Z</time></trkpt><trkpt lat="47.88514623218045" lon="11.758079865686625"><ele>661.0</ele><time>2026-04-18T10:59:06Z</time></trkpt><trkpt lat="47.88500073148852" lon="11.757961428247803"><ele>661.6666666666667</ele><time>2026-04-18T10:59:07Z</time></trkpt><trkpt lat="47.88485710437406" lon="11.757841396690601"><ele>662.3333333333334</ele><time>2026-04-18T10:59:08Z</time></trkpt><trkpt lat="47.88471668249343" lon="11.757715508300768"><ele>663.0</ele><time>2026-04-18T10:59:09Z</time></trkpt><trkpt lat="47.88457458226808" lon="11.757580093039431"><ele>663.0</ele><time>2026-04-18T10:59:10Z</time></trkpt><trkpt lat="47.88442751720745" lon="11.757433829507983"><ele>663.0</ele><time>2026-04-18T10:59:11Z</time></trkpt><trkpt lat="47.88428563903094" lon="11.757289373610082"><ele>663.0</ele><time>2026-04-18T10:59:12Z</time></trkpt><trkpt lat="47.884150857366826" lon="11.757149621262855"><ele>663.0</ele><time>2026-04-18T10:59:13Z</time></trkpt><trkpt lat="47.884019076144945" lon="11.757014119845666"><ele>663.0</ele><time>2026-04-18T10:59:14Z</time></trkpt><trkpt lat="47.88388709230664" lon="11.756877585084451"><ele>663.0</ele><time>2026-04-18T10:59:15Z</time></trkpt><trkpt lat="47.88376047645509" lon="11.756730199542222"><ele>663.0</ele><time>2026-04-18T10:59:16Z</time></trkpt><trkpt lat="47.88363895899255" lon="11.756572330444014"><ele>663.0</ele><time>2026-04-18T10:59:17Z</time></trkpt><trkpt lat="47.88352259562615" lon="11.756399629345959"><ele>663.0</ele><time>2026-04-18T10:59:18Z</time></trkpt><trkpt lat="47.88340653214139" lon="11.756214958652"><ele>663.3333333333334</ele><time>2026-04-18T10:59:19Z</time></trkpt><trkpt lat="47.88329560658781" lon="11.756013607012212"><ele>663.6666666666667</ele><time>2026-04-18T10:59:20Z</time></trkpt><trkpt lat="47.88318299540096" lon="11.755797410491468"><ele>664.0</ele><time>2026-04-18T10:59:21Z</time></trkpt><trkpt lat="47.883061950703194" lon="11.75555382273588"><ele>664.0</ele><time>2026-04-18T10:59:22Z</time></trkpt><trkpt lat="47.88294154427479" lon="11.755307757942361"><ele>664.0</ele><time>2026-04-18T10:59:23Z</time></trkpt><trkpt lat="47.882826049921086" lon="11.755076248768532"><ele>664.0</ele><time>2026-04-18T10:59:24Z</time></trkpt><trkpt lat="47.882717120362564" lon="11.754850513957887"><ele>664.0</ele><time>2026-04-18T10:59:25Z</time></trkpt><trkpt lat="47.88260776565793" lon="11.754632712325739"><ele>664.0</ele><time>2026-04-18T10:59:26Z</time></trkpt><trkpt lat="47.88249843201669" lon="11.754424075103714"><ele>664.0</ele><time>2026-04-18T10:59:27Z</time></trkpt><trkpt lat="47.8823822893872" lon="11.754209308163347"><ele>664.0</ele><time>2026-04-18T10:59:28Z</time></trkpt><trkpt lat="47.88225915172369" lon="11.753983366138955"><ele>664.0</ele><time>2026-04-18T10:59:29Z</time></trkpt><trkpt lat="47.88213347522132" lon="11.753748212655772"><ele>664.0</ele><time>2026-04-18T10:59:30Z</time></trkpt><trkpt lat="47.881998611436586" lon="11.753509347597214"><ele>664.0</ele><time>2026-04-18T10:59:31Z</time></trkpt><trkpt lat="47.881860113942516" lon="11.753252925325313"><ele>664.0</ele><time>2026-04-18T10:59:32Z</time></trkpt><trkpt lat="47.88171990752806" lon="11.75300057424972"><ele>664.0</ele><time>2026-04-18T10:59:33Z</time></trkpt><trkpt lat="47.88156889489153" lon="11.75273157456895"><ele>664.0</ele><time>2026-04-18T10:59:34Z</time></trkpt><trkpt lat="47.881414782444516" lon="11.752462664138426"><ele>664.0</ele><time>2026-04-18T10:59:35Z</time></trkpt><trkpt lat="47.881274903698035" lon="11.752228538214089"><ele>664.0</ele><time>2026-04-18T10:59:36Z</time></trkpt><trkpt lat="47.88113625906822" lon="11.752004419653579"><ele>663.6666666666667</ele><time>2026-04-18T10:59:37Z</time></trkpt><trkpt lat="47.881006903708226" lon="11.751789443706187"><ele>663.3333333333334</ele><time>2026-04-18T10:59:38Z</time></trkpt><trkpt lat="47.880880666591295" lon="11.75159342873608"><ele>663.0</ele><time>2026-04-18T10:59:39Z</time></trkpt><trkpt lat="47.88075425308559" lon="11.751412748860284"><ele>663.6666666666666</ele><time>2026-04-18T10:59:40Z</time></trkpt><trkpt lat="47.88062336021719" lon="11.751243781015306"><ele>664.3333333333333</ele><time>2026-04-18T10:59:41Z</time></trkpt><trkpt lat="47.88048741048685" lon="11.75108539860643"><ele>665.0</ele><time>2026-04-18T10:59:42Z</time></trkpt><trkpt lat="47.88034579936544" lon="11.750931226679665"><ele>665.0</ele><time>2026-04-18T10:59:43Z</time></trkpt><trkpt lat="47.88020462773949" lon="11.75078336929194"><ele>665.0</ele><time>2026-04-18T10:59:44Z</time></trkpt><trkpt lat="47.88006933837043" lon="11.7506433645478"><ele>665.0</ele><time>2026-04-18T10:59:45Z</time></trkpt><trkpt lat="47.87994678226157" lon="11.750511219393891"><ele>665.25</ele><time>2026-04-18T10:59:46Z</time></trkpt><trkpt lat="47.87983273147136" lon="11.750392931029559"><ele>665.5</ele><time>2026-04-18T10:59:47Z</time></trkpt><trkpt lat="47.879726662148904" lon="11.750283676861201"><ele>665.75</ele><time>2026-04-18T10:59:48Z</time></trkpt><trkpt lat="47.8796205188656" lon="11.750182800577946"><ele>666.0</ele><time>2026-04-18T10:59:49.001Z</time></trkpt><trkpt lat="47.879520580438104" lon="11.75008287480031"><ele>666.0</ele><time>2026-04-18T10:59:50.001Z</time></trkpt><trkpt lat="47.879424261645426" lon="11.749983473471927"><ele>666.0</ele><time>2026-04-18T10:59:51.001Z</time></trkpt><trkpt lat="47.879326432557285" lon="11.749884938050865"><ele>666.0</ele><time>2026-04-18T10:59:52.001Z</time></trkpt><trkpt lat="47.87923477125848" lon="11.749788537990918"><ele>666.0</ele><time>2026-04-18T10:59:53.001Z</time></trkpt><trkpt lat="47.87914095842251" lon="11.749691718501312"><ele>666.25</ele><time>2026-04-18T10:59:54.001Z</time></trkpt><trkpt lat="47.879052029317265" lon="11.749592230667513"><ele>666.5</ele><time>2026-04-18T10:59:55.001Z</time></trkpt><trkpt lat="47.87896578809913" lon="11.749485549927744"><ele>666.75</ele><time>2026-04-18T10:59:56.001Z</time></trkpt><trkpt lat="47.87888866060567" lon="11.749359206152398"><ele>667.0</ele><time>2026-04-18T10:59:57.001Z</time></trkpt><trkpt lat="47.87882788485884" lon="11.749214889700946"><ele>667.0</ele><time>2026-04-18T10:59:58.001Z</time></trkpt><trkpt lat="47.878777727259745" lon="11.749059070050365"><ele>667.0</ele><time>2026-04-18T10:59:59.001Z</time></trkpt><trkpt lat="47.878736607188905" lon="11.748898944980942"><ele>667.0</ele><time>2026-04-18T11:00:00.001Z</time></trkpt><trkpt lat="47.87869641552633" lon="11.748745760192154"><ele>667.0</ele><time>2026-04-18T11:00:01.001Z</time></trkpt><trkpt lat="47.87863826483473" lon="11.748592902735412"><ele>666.75</ele><time>2026-04-18T11:00:02.001Z</time></trkpt><trkpt lat="47.87856798639915" lon="11.748450055097019"><ele>666.5</ele><time>2026-04-18T11:00:03.001Z</time></trkpt><trkpt lat="47.87849000267728" lon="11.748316630908157"><ele>666.25</ele><time>2026-04-18T11:00:04.001Z</time></trkpt><trkpt lat="47.87840727345924" lon="11.74819002176813"><ele>666.0</ele><time>2026-04-18T11:00:05.001Z</time></trkpt><trkpt lat="47.87831704591508" lon="11.74806740269582"><ele>666.5</ele><time>2026-04-18T11:00:06.001Z</time></trkpt><trkpt lat="47.87823957886284" lon="11.74792333646797"><ele>667.0</ele><time>2026-04-18T11:00:07.001Z</time></trkpt><trkpt lat="47.87815425498581" lon="11.747798194290102"><ele>667.5</ele><time>2026-04-18T11:00:08.001Z</time></trkpt><trkpt lat="47.87807516046792" lon="11.747683195259468"><ele>668.0</ele><time>2026-04-18T11:00:09.001Z</time></trkpt><trkpt lat="47.87798425868545" lon="11.747586140343472"><ele>668.0</ele><time>2026-04-18T11:00:10.001Z</time></trkpt><trkpt lat="47.87790974319777" lon="11.747481453805861"><ele>668.0</ele><time>2026-04-18T11:00:11.001Z</time></trkpt><trkpt lat="47.87782729752592" lon="11.747363801380411"><ele>668.0</ele><time>2026-04-18T11:00:12.001Z</time></trkpt><trkpt lat="47.87774605745713" lon="11.74724796931011"><ele>668.0</ele><time>2026-04-18T11:00:13.001Z</time></trkpt><trkpt lat="47.87766329159569" lon="11.747134344654627"><ele>668.0</ele><time>2026-04-18T11:00:14.001Z</time></trkpt><trkpt lat="47.87758299450406" lon="11.747024380544842"><ele>668.0</ele><time>2026-04-18T11:00:15.001Z</time></trkpt><trkpt lat="47.87750200820004" lon="11.746909030904558"><ele>668.0</ele><time>2026-04-18T11:00:16.001Z</time></trkpt><trkpt lat="47.87742080473317" lon="11.74679231256729"><ele>668.0</ele><time>2026-04-18T11:00:17.001Z</time></trkpt><trkpt lat="47.877336512729336" lon="11.74667043042278"><ele>668.0</ele><time>2026-04-18T11:00:18.001Z</time></trkpt><trkpt lat="47.877246968492884" lon="11.746538868824256"><ele>668.0</ele><time>2026-04-18T11:00:19.001Z</time></trkpt><trkpt lat="47.877152413632466" lon="11.746406595450313"><ele>668.0</ele><time>2026-04-18T11:00:20.001Z</time></trkpt><trkpt lat="47.87705312364873" lon="11.7462655443898"><ele>668.0</ele><time>2026-04-18T11:00:21.001Z</time></trkpt><trkpt lat="47.87695254928445" lon="11.74612671704769"><ele>668.0</ele><time>2026-04-18T11:00:22.001Z</time></trkpt><trkpt lat="47.8768529414367" lon="11.745987724800928"><ele>668.25</ele><time>2026-04-18T11:00:23.001Z</time></trkpt><trkpt lat="47.87675657619223" lon="11.745853049732492"><ele>668.5</ele><time>2026-04-18T11:00:24.001Z</time></trkpt><trkpt lat="47.876664974920146" lon="11.745723051636618"><ele>668.75</ele><time>2026-04-18T11:00:25.001Z</time></trkpt><trkpt lat="47.87658183469191" lon="11.745602884520583"><ele>669.0</ele><time>2026-04-18T11:00:26.001Z</time></trkpt><trkpt lat="47.87651056238981" lon="11.74549947923566"><ele>669.0</ele><time>2026-04-18T11:00:27Z</time></trkpt><trkpt lat="47.87645390429232" lon="11.74541678880327"><ele>669.0</ele><time>2026-04-18T11:00:28Z</time></trkpt><trkpt lat="47.876407831759956" lon="11.745340120164517"><ele>669.0</ele><time>2026-04-18T11:00:29Z</time></trkpt><trkpt lat="47.87635912256776" lon="11.745261953479314"><ele>669.0</ele><time>2026-04-18T11:00:30Z</time></trkpt><trkpt lat="47.87631156980255" lon="11.745181286029105"><ele>669.0</ele><time>2026-04-18T11:00:31Z</time></trkpt><trkpt lat="47.876265446620465" lon="11.745093951748785"><ele>669.0</ele><time>2026-04-18T11:00:32Z</time></trkpt><trkpt lat="47.876212463913575" lon="11.744985635561502"><ele>668.8000000000001</ele><time>2026-04-18T11:00:33Z</time></trkpt><trkpt lat="47.87615668072943" lon="11.744865986641997"><ele>668.6</ele><time>2026-04-18T11:00:34Z</time></trkpt><trkpt lat="47.876102014575046" lon="11.744731363011923"><ele>668.4</ele><time>2026-04-18T11:00:35Z</time></trkpt><trkpt lat="47.876044971981706" lon="11.744587467330303"><ele>668.2</ele><time>2026-04-18T11:00:36Z</time></trkpt><trkpt lat="47.875992542674524" lon="11.744451833643874"><ele>668.0</ele><time>2026-04-18T11:00:37Z</time></trkpt><trkpt lat="47.87594460165503" lon="11.744328123342424"><ele>668.5999999999999</ele><time>2026-04-18T11:00:38Z</time></trkpt><trkpt lat="47.875896896022915" lon="11.74421899420756"><ele>669.1999999999999</ele><time>2026-04-18T11:00:39Z</time></trkpt><trkpt lat="47.87585010236264" lon="11.7441007215885"><ele>669.8</ele><time>2026-04-18T11:00:40Z</time></trkpt><trkpt lat="47.875802269993436" lon="11.743974590577759"><ele>670.4</ele><time>2026-04-18T11:00:41Z</time></trkpt><trkpt lat="47.87575314296681" lon="11.743849534687739"><ele>671.0</ele><time>2026-04-18T11:00:42Z</time></trkpt><trkpt lat="47.8757042898207" lon="11.743723516321465"><ele>671.0</ele><time>2026-04-18T11:00:43Z</time></trkpt><trkpt lat="47.87565633604731" lon="11.743599643406744"><ele>671.0</ele><time>2026-04-18T11:00:44Z</time></trkpt><trkpt lat="47.87560748792764" lon="11.743475097751404"><ele>671.0</ele><time>2026-04-18T11:00:45Z</time></trkpt><trkpt lat="47.87556045824194" lon="11.743354647601507"><ele>671.0</ele><time>2026-04-18T11:00:46Z</time></trkpt><trkpt lat="47.87551576467233" lon="11.743241686953564"><ele>671.0</ele><time>2026-04-18T11:00:47Z</time></trkpt><trkpt lat="47.875472114025605" lon="11.743144762850017"><ele>671.1666666666666</ele><time>2026-04-18T11:00:48Z</time></trkpt><trkpt lat="47.875430869344626" lon="11.74305084759601"><ele>671.3333333333333</ele><time>2026-04-18T11:00:49Z</time></trkpt><trkpt lat="47.87539043031529" lon="11.742959980288434"><ele>671.5</ele><time>2026-04-18T11:00:50Z</time></trkpt><trkpt lat="47.87537722895764" lon="11.742853522051304"><ele>671.6666666666666</ele><time>2026-04-18T11:00:51Z</time></trkpt><trkpt lat="47.87534187264522" lon="11.74276767737994"><ele>671.8333333333334</ele><time>2026-04-18T11:00:52Z</time></trkpt><trkpt lat="47.87527502624747" lon="11.742647805680235"><ele>672.0</ele><time>2026-04-18T11:00:54Z</time></trkpt><trkpt lat="47.87525954395316" lon="11.74254309990267"><ele>672.3333333333334</ele><time>2026-04-18T11:00:56Z</time></trkpt><trkpt lat="47.87522488952177" lon="11.742445277174856"><ele>672.6666666666666</ele><time>2026-04-18T11:01:04Z</time></trkpt><trkpt lat="47.875275207939026" lon="11.742285035225324"><ele>673.0</ele><time>2026-04-18T11:01:06Z</time></trkpt><trkpt lat="47.87530820960049" lon="11.742204516568309"><ele>673.3333333333333</ele><time>2026-04-18T11:01:07Z</time></trkpt><trkpt lat="47.87533474474031" lon="11.742110842847824"><ele>673.6666666666666</ele><time>2026-04-18T11:01:08Z</time></trkpt><trkpt lat="47.875366015035034" lon="11.741985893141562"><ele>674.0</ele><time>2026-04-18T11:01:09Z</time></trkpt><trkpt lat="47.87539879271845" lon="11.741855460320123"><ele>674.0</ele><time>2026-04-18T11:01:10Z</time></trkpt><trkpt lat="47.87543353962649" lon="11.741732674158499"><ele>674.0</ele><time>2026-04-18T11:01:11Z</time></trkpt><trkpt lat="47.87547161627106" lon="11.741595003747516"><ele>674.0</ele><time>2026-04-18T11:01:12Z</time></trkpt><trkpt lat="47.87551262865726" lon="11.741449777811184"><ele>674.0</ele><time>2026-04-18T11:01:13Z</time></trkpt><trkpt lat="47.875556168546225" lon="11.741303327355205"><ele>674.0</ele><time>2026-04-18T11:01:14Z</time></trkpt><trkpt lat="47.87559949222063" lon="11.741162310864704"><ele>674.0</ele><time>2026-04-18T11:01:15Z</time></trkpt><trkpt lat="47.875649172012984" lon="11.741019156137266"><ele>674.0</ele><time>2026-04-18T11:01:16Z</time></trkpt><trkpt lat="47.875695873668626" lon="11.74088432702359"><ele>674.0</ele><time>2026-04-18T11:01:17Z</time></trkpt><trkpt lat="47.87574077632132" lon="11.740750149748997"><ele>674.0</ele><time>2026-04-18T11:01:18Z</time></trkpt><trkpt lat="47.87578442452447" lon="11.740616035783702"><ele>674.0</ele><time>2026-04-18T11:01:19Z</time></trkpt><trkpt lat="47.875825193998075" lon="11.740478505433071"><ele>674.0</ele><time>2026-04-18T11:01:20Z</time></trkpt><trkpt lat="47.8758666515298" lon="11.740336715183242"><ele>674.0</ele><time>2026-04-18T11:01:21Z</time></trkpt><trkpt lat="47.87590550961913" lon="11.740195330425422"><ele>674.0</ele><time>2026-04-18T11:01:22Z</time></trkpt><trkpt lat="47.87594812622044" lon="11.740044252444937"><ele>674.0</ele><time>2026-04-18T11:01:23Z</time></trkpt><trkpt lat="47.87598552602124" lon="11.739894161527701"><ele>674.0</ele><time>2026-04-18T11:01:24Z</time></trkpt><trkpt lat="47.8760226242043" lon="11.739735705763227"><ele>673.8000000000001</ele><time>2026-04-18T11:01:25Z</time></trkpt><trkpt lat="47.876054209105895" lon="11.739580873933736"><ele>673.6</ele><time>2026-04-18T11:01:26Z</time></trkpt><trkpt lat="47.87609585141853" lon="11.73943126170354"><ele>673.4</ele><time>2026-04-18T11:01:27Z</time></trkpt><trkpt lat="47.87613312648319" lon="11.73928426782915"><ele>673.2</ele><time>2026-04-18T11:01:28Z</time></trkpt><trkpt lat="47.87618025455636" lon="11.739140129029417"><ele>673.0</ele><time>2026-04-18T11:01:29Z</time></trkpt><trkpt lat="47.87622280003173" lon="11.738999704661863"><ele>673.0</ele><time>2026-04-18T11:01:30Z</time></trkpt><trkpt lat="47.87626765767304" lon="11.738859160283944"><ele>673.0</ele><time>2026-04-18T11:01:31Z</time></trkpt><trkpt lat="47.876311887268876" lon="11.738711221896194"><ele>673.0</ele><time>2026-04-18T11:01:32Z</time></trkpt><trkpt lat="47.87636991868585" lon="11.73855993220789"><ele>673.0</ele><time>2026-04-18T11:01:33Z</time></trkpt><trkpt lat="47.87642289768461" lon="11.738398438417725"><ele>672.75</ele><time>2026-04-18T11:01:34Z</time></trkpt><trkpt lat="47.876485888511915" lon="11.738251412476654"><ele>672.5</ele><time>2026-04-18T11:01:35Z</time></trkpt><trkpt lat="47.87655055711863" lon="11.738089468230273"><ele>672.25</ele><time>2026-04-18T11:01:36Z</time></trkpt><trkpt lat="47.87661585381583" lon="11.737925015647617"><ele>672.0</ele><time>2026-04-18T11:01:37Z</time></trkpt><trkpt lat="47.87667473842905" lon="11.737767962356084"><ele>672.0</ele><time>2026-04-18T11:01:38Z</time></trkpt><trkpt lat="47.87674252370716" lon="11.737609727481448"><ele>672.0</ele><time>2026-04-18T11:01:39Z</time></trkpt><trkpt lat="47.876812604925306" lon="11.737456831342579"><ele>672.0</ele><time>2026-04-18T11:01:40Z</time></trkpt><trkpt lat="47.876875213599874" lon="11.737297272366957"><ele>672.0</ele><time>2026-04-18T11:01:41Z</time></trkpt><trkpt lat="47.87693016538188" lon="11.737123428106637"><ele>672.25</ele><time>2026-04-18T11:01:42Z</time></trkpt><trkpt lat="47.87697114605774" lon="11.736951820508988"><ele>672.5</ele><time>2026-04-18T11:01:43Z</time></trkpt><trkpt lat="47.87700239651555" lon="11.736782419927735"><ele>672.75</ele><time>2026-04-18T11:01:44Z</time></trkpt><trkpt lat="47.87702532193918" lon="11.736602961905007"><ele>673.0</ele><time>2026-04-18T11:01:45Z</time></trkpt><trkpt lat="47.87703363026109" lon="11.736416386628468"><ele>673.5</ele><time>2026-04-18T11:01:46Z</time></trkpt><trkpt lat="47.87704509223045" lon="11.736234083644469"><ele>674.0</ele><time>2026-04-18T11:01:47Z</time></trkpt><trkpt lat="47.87705542685279" lon="11.736054117496309"><ele>674.5</ele><time>2026-04-18T11:01:48Z</time></trkpt><trkpt lat="47.87705869967866" lon="11.735871693467939"><ele>675.0</ele><time>2026-04-18T11:01:49Z</time></trkpt><trkpt lat="47.87706098203069" lon="11.735692949009254"><ele>675.0</ele><time>2026-04-18T11:01:50Z</time></trkpt><trkpt lat="47.87706326571979" lon="11.735512153399462"><ele>675.0</ele><time>2026-04-18T11:01:51Z</time></trkpt><trkpt lat="47.877064636111534" lon="11.735334856868887"><ele>675.0</ele><time>2026-04-18T11:01:52Z</time></trkpt><trkpt lat="47.87706723010018" lon="11.735162056426356"><ele>675.0</ele><time>2026-04-18T11:01:53Z</time></trkpt><trkpt lat="47.87706453685412" lon="11.734987034572201"><ele>675.0</ele><time>2026-04-18T11:01:54Z</time></trkpt><trkpt lat="47.87706203890912" lon="11.734814683470306"><ele>675.0</ele><time>2026-04-18T11:01:55Z</time></trkpt><trkpt lat="47.877075261116715" lon="11.73464214639088"><ele>675.0</ele><time>2026-04-18T11:01:56Z</time></trkpt><trkpt lat="47.87707465070805" lon="11.734460431030941"><ele>675.0</ele><time>2026-04-18T11:01:57Z</time></trkpt><trkpt lat="47.877060589590975" lon="11.73425940528193"><ele>675.5</ele><time>2026-04-18T11:01:58Z</time></trkpt><trkpt lat="47.87706171160006" lon="11.734048881340614"><ele>676.0</ele><time>2026-04-18T11:01:59Z</time></trkpt><trkpt lat="47.8770648618406" lon="11.733841304092797"><ele>676.5</ele><time>2026-04-18T11:02:00Z</time></trkpt><trkpt lat="47.87706468647636" lon="11.733630249437429"><ele>677.0</ele><time>2026-04-18T11:02:01Z</time></trkpt><trkpt lat="47.87707945664009" lon="11.733415486365438"><ele>678.25</ele><time>2026-04-18T11:02:02Z</time></trkpt><trkpt lat="47.877076703837595" lon="11.733192103986523"><ele>679.5</ele><time>2026-04-18T11:02:03Z</time></trkpt><trkpt lat="47.877084901934786" lon="11.73297031358631"><ele>680.75</ele><time>2026-04-18T11:02:04Z</time></trkpt><trkpt lat="47.87711132357844" lon="11.732749667410467"><ele>682.0</ele><time>2026-04-18T11:02:05Z</time></trkpt><trkpt lat="47.87710939284369" lon="11.732524293193245"><ele>682.75</ele><time>2026-04-18T11:02:06Z</time></trkpt><trkpt lat="47.87712734378325" lon="11.732302917837526"><ele>683.5</ele><time>2026-04-18T11:02:07Z</time></trkpt><trkpt lat="47.87714197924476" lon="11.732079092171892"><ele>684.25</ele><time>2026-04-18T11:02:08Z</time></trkpt><trkpt lat="47.87715421948555" lon="11.731858841536829"><ele>685.0</ele><time>2026-04-18T11:02:09Z</time></trkpt><trkpt lat="47.87716589851136" lon="11.731638491103391"><ele>685.0</ele><time>2026-04-18T11:02:10Z</time></trkpt><trkpt lat="47.87717637616251" lon="11.731413087726414"><ele>685.0</ele><time>2026-04-18T11:02:11Z</time></trkpt><trkpt lat="47.877183701156405" lon="11.731191170821571"><ele>685.0</ele><time>2026-04-18T11:02:12Z</time></trkpt><trkpt lat="47.877188937291265" lon="11.730978083883246"><ele>685.0</ele><time>2026-04-18T11:02:13Z</time></trkpt><trkpt lat="47.87718476287292" lon="11.730768463815195"><ele>685.0</ele><time>2026-04-18T11:02:14Z</time></trkpt><trkpt lat="47.877178819747584" lon="11.730563155126346"><ele>685.0</ele><time>2026-04-18T11:02:15Z</time></trkpt><trkpt lat="47.87717245727186" lon="11.730360087075226"><ele>685.0</ele><time>2026-04-18T11:02:16Z</time></trkpt><trkpt lat="47.87716670672935" lon="11.73015924818299"><ele>685.0</ele><time>2026-04-18T11:02:17Z</time></trkpt><trkpt lat="47.877159126113455" lon="11.729958222010042"><ele>685.0</ele><time>2026-04-18T11:02:18Z</time></trkpt><trkpt lat="47.877152486110056" lon="11.729762970930743"><ele>685.0</ele><time>2026-04-18T11:02:19Z</time></trkpt><trkpt lat="47.87714565103227" lon="11.729573350491924"><ele>685.0</ele><time>2026-04-18T11:02:20.001Z</time></trkpt><trkpt lat="47.877138091741514" lon="11.729378394121122"><ele>685.0</ele><time>2026-04-18T11:02:21.001Z</time></trkpt><trkpt lat="47.87713174393892" lon="11.729175210513116"><ele>684.75</ele><time>2026-04-18T11:02:22.001Z</time></trkpt><trkpt lat="47.87712394390327" lon="11.72897091261311"><ele>684.5</ele><time>2026-04-18T11:02:23.001Z</time></trkpt><trkpt lat="47.877117701185306" lon="11.728767529801544"><ele>684.25</ele><time>2026-04-18T11:02:24.001Z</time></trkpt><trkpt lat="47.87711373664284" lon="11.728568698510221"><ele>684.0</ele><time>2026-04-18T11:02:25.001Z</time></trkpt><trkpt lat="47.87711263688636" lon="11.728372564773252"><ele>684.0</ele><time>2026-04-18T11:02:26.001Z</time></trkpt><trkpt lat="47.87710806576288" lon="11.728183493462337"><ele>684.0</ele><time>2026-04-18T11:02:27.001Z</time></trkpt><trkpt lat="47.87710377938552" lon="11.727998229815054"><ele>684.0</ele><time>2026-04-18T11:02:28.001Z</time></trkpt><trkpt lat="47.87710618114355" lon="11.727816516863559"><ele>684.0</ele><time>2026-04-18T11:02:29.001Z</time></trkpt><trkpt lat="47.87710464466914" lon="11.727626610097378"><ele>684.0</ele><time>2026-04-18T11:02:30.001Z</time></trkpt><trkpt lat="47.87710441821175" lon="11.72742184497435"><ele>684.0</ele><time>2026-04-18T11:02:31.001Z</time></trkpt><trkpt lat="47.8771025508832" lon="11.72720785664893"><ele>684.0</ele><time>2026-04-18T11:02:32.001Z</time></trkpt><trkpt lat="47.87710202308759" lon="11.726990806283508"><ele>684.0</ele><time>2026-04-18T11:02:33Z</time></trkpt><trkpt lat="47.8770941749113" lon="11.726767049097951"><ele>684.0</ele><time>2026-04-18T11:02:34Z</time></trkpt><trkpt lat="47.87708881659975" lon="11.726540245679313"><ele>684.0</ele><time>2026-04-18T11:02:35Z</time></trkpt><trkpt lat="47.87707649083587" lon="11.726309566523508"><ele>684.0</ele><time>2026-04-18T11:02:36Z</time></trkpt><trkpt lat="47.87706024113632" lon="11.726077915368613"><ele>685.3333333333334</ele><time>2026-04-18T11:02:37Z</time></trkpt><trkpt lat="47.877045011645286" lon="11.725843709138212"><ele>686.6666666666667</ele><time>2026-04-18T11:02:38Z</time></trkpt><trkpt lat="47.87703152936945" lon="11.7256074844606"><ele>688.0</ele><time>2026-04-18T11:02:39Z</time></trkpt><trkpt lat="47.877016512298404" lon="11.725378853475178"><ele>688.5</ele><time>2026-04-18T11:02:40Z</time></trkpt><trkpt lat="47.87700417047025" lon="11.72516488148672"><ele>689.0</ele><time>2026-04-18T11:02:41Z</time></trkpt><trkpt lat="47.87698944286142" lon="11.724957782588922"><ele>689.5</ele><time>2026-04-18T11:02:42Z</time></trkpt><trkpt lat="47.876975046139286" lon="11.724753027799293"><ele>690.0</ele><time>2026-04-18T11:02:43Z</time></trkpt><trkpt lat="47.876964762965535" lon="11.724558076555718"><ele>690.25</ele><time>2026-04-18T11:02:44Z</time></trkpt><trkpt lat="47.87695139107642" lon="11.724356948625301"><ele>690.5</ele><time>2026-04-18T11:02:45Z</time></trkpt><trkpt lat="47.87693920626344" lon="11.724149264905465"><ele>690.75</ele><time>2026-04-18T11:02:46Z</time></trkpt><trkpt lat="47.87692590438544" lon="11.72394337427261"><ele>691.0</ele><time>2026-04-18T11:02:47Z</time></trkpt><trkpt lat="47.876912564772134" lon="11.723738155402511"><ele>690.75</ele><time>2026-04-18T11:02:48Z</time></trkpt><trkpt lat="47.87689966121711" lon="11.72353278462553"><ele>690.5</ele><time>2026-04-18T11:02:49Z</time></trkpt><trkpt lat="47.87688677234576" lon="11.723324286756588"><ele>690.25</ele><time>2026-04-18T11:02:50Z</time></trkpt><trkpt lat="47.87687254060602" lon="11.72311552082795"><ele>690.0</ele><time>2026-04-18T11:02:51Z</time></trkpt><trkpt lat="47.87685676674304" lon="11.722904633906028"><ele>689.0</ele><time>2026-04-18T11:02:52Z</time></trkpt><trkpt lat="47.8768425485336" lon="11.722695900325178"><ele>688.0</ele><time>2026-04-18T11:02:53Z</time></trkpt><trkpt lat="47.87682743713827" lon="11.72248328391387"><ele>687.0</ele><time>2026-04-18T11:02:54Z</time></trkpt><trkpt lat="47.87681308121733" lon="11.72227202451702"><ele>686.0</ele><time>2026-04-18T11:02:55Z</time></trkpt><trkpt lat="47.87680072284204" lon="11.72206104936616"><ele>684.75</ele><time>2026-04-18T11:02:56Z</time></trkpt><trkpt lat="47.876789619099625" lon="11.721857772715788"><ele>683.5</ele><time>2026-04-18T11:02:57Z</time></trkpt><trkpt lat="47.876774968909494" lon="11.721666365596818"><ele>682.25</ele><time>2026-04-18T11:02:58Z</time></trkpt><trkpt lat="47.87675763116322" lon="11.721479291791123"><ele>681.0</ele><time>2026-04-18T11:02:59Z</time></trkpt><trkpt lat="47.876741959497764" lon="11.721306258976279"><ele>680.25</ele><time>2026-04-18T11:03:00Z</time></trkpt><trkpt lat="47.87672579508299" lon="11.721132819982927"><ele>679.5</ele><time>2026-04-18T11:03:01Z</time></trkpt><trkpt lat="47.87670810872534" lon="11.720952788101643"><ele>678.75</ele><time>2026-04-18T11:03:02Z</time></trkpt><trkpt lat="47.876686071594236" lon="11.720773455668613"><ele>678.0</ele><time>2026-04-18T11:03:03Z</time></trkpt><trkpt lat="47.876682359654765" lon="11.720602258317564"><ele>678.0</ele><time>2026-04-18T11:03:04Z</time></trkpt><trkpt lat="47.87666483728633" lon="11.720448443755837"><ele>678.0</ele><time>2026-04-18T11:03:05Z</time></trkpt><trkpt lat="47.87664918580894" lon="11.720310288910687"><ele>678.0</ele><time>2026-04-18T11:03:06Z</time></trkpt><trkpt lat="47.87663408726372" lon="11.72017701559027"><ele>678.0</ele><time>2026-04-18T11:03:07Z</time></trkpt><trkpt lat="47.876620673214475" lon="11.72005861063932"><ele>678.0</ele><time>2026-04-18T11:03:08Z</time></trkpt><trkpt lat="47.87660943038243" lon="11.71995937117126"><ele>678.0</ele><time>2026-04-18T11:03:09Z</time></trkpt><trkpt lat="47.87658338312893" lon="11.719870987862807"><ele>677.8</ele><time>2026-04-18T11:03:10Z</time></trkpt><trkpt lat="47.87658867375456" lon="11.719776153902506"><ele>677.5999999999999</ele><time>2026-04-18T11:03:11Z</time></trkpt><trkpt lat="47.876562546376576" lon="11.719653371997907"><ele>677.4000000000001</ele><time>2026-04-18T11:03:13Z</time></trkpt><trkpt lat="47.87637613088633" lon="11.719725597157291"><ele>677.2</ele><time>2026-04-18T11:03:14Z</time></trkpt><trkpt lat="47.876282899592184" lon="11.719734057076012"><ele>677.0</ele><time>2026-04-18T11:03:15Z</time></trkpt><trkpt lat="47.87617833098665" lon="11.719757586084473"><ele>677.0</ele><time>2026-04-18T11:03:16Z</time></trkpt><trkpt lat="47.87607102061947" lon="11.719739678310413"><ele>677.0</ele><time>2026-04-18T11:03:17Z</time></trkpt><trkpt lat="47.875954134865545" lon="11.7197028599257"><ele>677.0</ele><time>2026-04-18T11:03:18Z</time></trkpt><trkpt lat="47.87586638198884" lon="11.719624887759615"><ele>677.0</ele><time>2026-04-18T11:03:19Z</time></trkpt><trkpt lat="47.87579058038965" lon="11.71955964952477"><ele>677.0</ele><time>2026-04-18T11:03:20Z</time></trkpt><trkpt lat="47.87571932259923" lon="11.719510969924366"><ele>676.9999999999999</ele><time>2026-04-18T11:03:21Z</time></trkpt><trkpt lat="47.87566484403127" lon="11.719442358633817"><ele>677.0</ele><time>2026-04-18T11:03:22Z</time></trkpt><trkpt lat="47.87561630967109" lon="11.719367983120629"><ele>677.0</ele><time>2026-04-18T11:03:23Z</time></trkpt><trkpt lat="47.87557060917648" lon="11.719288055398202"><ele>677.0</ele><time>2026-04-18T11:03:24Z</time></trkpt><trkpt lat="47.8755285462401" lon="11.719203371783628"><ele>677.0</ele><time>2026-04-18T11:03:25Z</time></trkpt><trkpt lat="47.87549388135636" lon="11.719121340018473"><ele>676.9999999999999</ele><time>2026-04-18T11:03:26Z</time></trkpt><trkpt lat="47.875463187744046" lon="11.719032380371235"><ele>677.0</ele><time>2026-04-18T11:03:27Z</time></trkpt><trkpt lat="47.87544245256147" lon="11.718928767504874"><ele>676.25</ele><time>2026-04-18T11:03:28Z</time></trkpt><trkpt lat="47.87544126980468" lon="11.71875302083733"><ele>675.5</ele><time>2026-04-18T11:03:30Z</time></trkpt><trkpt lat="47.87548610761906" lon="11.718608820343285"><ele>674.75</ele><time>2026-04-18T11:03:32Z</time></trkpt><trkpt lat="47.87554416875307" lon="11.718519773253782"><ele>674.0</ele><time>2026-04-18T11:03:34Z</time></trkpt><trkpt lat="47.87576107631416" lon="11.718477105915865"><ele>674.2</ele><time>2026-04-18T11:04:20Z</time></trkpt><trkpt lat="47.875828102429224" lon="11.718506902317216"><ele>674.4000000000001</ele><time>2026-04-18T11:04:21Z</time></trkpt><trkpt lat="47.87590874736218" lon="11.718544890321931"><ele>674.6</ele><time>2026-04-18T11:04:22Z</time></trkpt><trkpt lat="47.87600407667271" lon="11.718578926147982"><ele>674.8</ele><time>2026-04-18T11:04:23Z</time></trkpt><trkpt lat="47.876109106879696" lon="11.71860839462878"><ele>675.0</ele><time>2026-04-18T11:04:24Z</time></trkpt><trkpt lat="47.87621084577877" lon="11.718642154071548"><ele>675.0</ele><time>2026-04-18T11:04:25Z</time></trkpt><trkpt lat="47.87631627298188" lon="11.718675895347742"><ele>675.0</ele><time>2026-04-18T11:04:26Z</time></trkpt><trkpt lat="47.87642214691268" lon="11.718714509795731"><ele>675.0</ele><time>2026-04-18T11:04:27Z</time></trkpt><trkpt lat="47.87654616627634" lon="11.718755619980971"><ele>675.0</ele><time>2026-04-18T11:04:28Z</time></trkpt><trkpt lat="47.87666604475014" lon="11.718811312108022"><ele>674.5</ele><time>2026-04-18T11:04:29Z</time></trkpt><trkpt lat="47.876782548335186" lon="11.718859293884618"><ele>674.0</ele><time>2026-04-18T11:04:30Z</time></trkpt><trkpt lat="47.87691472442714" lon="11.718901303444623"><ele>673.5</ele><time>2026-04-18T11:04:31Z</time></trkpt><trkpt lat="47.877048788876365" lon="11.71894297286594"><ele>673.0</ele><time>2026-04-18T11:04:32Z</time></trkpt><trkpt lat="47.87717591947365" lon="11.71897786364919"><ele>673.0</ele><time>2026-04-18T11:04:33Z</time></trkpt><trkpt lat="47.87730628738152" lon="11.719022341402798"><ele>673.0</ele><time>2026-04-18T11:04:34Z</time></trkpt><trkpt lat="47.87744317818644" lon="11.719079305148416"><ele>673.0</ele><time>2026-04-18T11:04:35Z</time></trkpt><trkpt lat="47.87758146281829" lon="11.719126950657877"><ele>673.0</ele><time>2026-04-18T11:04:36Z</time></trkpt><trkpt lat="47.87771567908005" lon="11.719171828757037"><ele>672.75</ele><time>2026-04-18T11:04:37Z</time></trkpt><trkpt lat="47.87784772591077" lon="11.719219119670138"><ele>672.5</ele><time>2026-04-18T11:04:38Z</time></trkpt><trkpt lat="47.87797405868566" lon="11.719280061468872"><ele>672.25</ele><time>2026-04-18T11:04:39Z</time></trkpt><trkpt lat="47.87809008926411" lon="11.719337289683883"><ele>672.0</ele><time>2026-04-18T11:04:40Z</time></trkpt><trkpt lat="47.878191127480726" lon="11.719382900839545"><ele>672.1666666666666</ele><time>2026-04-18T11:04:41Z</time></trkpt><trkpt lat="47.8782833620707" lon="11.71941661629269"><ele>672.3333333333334</ele><time>2026-04-18T11:04:42Z</time></trkpt><trkpt lat="47.8783672713022" lon="11.719446488080044"><ele>672.5</ele><time>2026-04-18T11:04:43Z</time></trkpt><trkpt lat="47.8784414166943" lon="11.719468897572044"><ele>672.6666666666667</ele><time>2026-04-18T11:04:44Z</time></trkpt><trkpt lat="47.87850856336578" lon="11.719491966448672"><ele>672.8333333333334</ele><time>2026-04-18T11:04:45Z</time></trkpt><trkpt lat="47.878622005821526" lon="11.719531244852899"><ele>673.0</ele><time>2026-04-18T11:04:47Z</time></trkpt><trkpt lat="47.878724717021306" lon="11.71956603690544"><ele>673.0</ele><time>2026-04-18T11:04:49Z</time></trkpt><trkpt lat="47.87879948336723" lon="11.719594234784743"><ele>673.0</ele><time>2026-04-18T11:04:51Z</time></trkpt><trkpt lat="47.878863148653" lon="11.719622734683442"><ele>673.0</ele><time>2026-04-18T11:04:53Z</time></trkpt><trkpt lat="47.87893440667466" lon="11.719652866373728"><ele>673.0</ele><time>2026-04-18T11:04:55Z</time></trkpt><trkpt lat="47.87902972899208" lon="11.719670391739003"><ele>673.0</ele><time>2026-04-18T11:05:15Z</time></trkpt><trkpt lat="47.8791077503672" lon="11.719718140755345"><ele>673.0</ele><time>2026-04-18T11:05:17Z</time></trkpt><trkpt lat="47.87915338472431" lon="11.719928644263053"><ele>673.0</ele><time>2026-04-18T11:05:19Z</time></trkpt><trkpt lat="47.87917653941468" lon="11.720048132121168"><ele>673.0</ele><time>2026-04-18T11:05:20Z</time></trkpt><trkpt lat="47.87919167848547" lon="11.720187690437445"><ele>673.0</ele><time>2026-04-18T11:05:21Z</time></trkpt><trkpt lat="47.879212552598716" lon="11.720307298728068"><ele>673.0</ele><time>2026-04-18T11:05:22Z</time></trkpt><trkpt lat="47.87923887154188" lon="11.720413934971274"><ele>673.0</ele><time>2026-04-18T11:05:23Z</time></trkpt><trkpt lat="47.87926967965621" lon="11.720508917364237"><ele>673.0</ele><time>2026-04-18T11:05:24Z</time></trkpt><trkpt lat="47.879316366071095" lon="11.720596743695776"><ele>674.0</ele><time>2026-04-18T11:05:25Z</time></trkpt><trkpt lat="47.879382009083976" lon="11.72068148729716"><ele>675.0</ele><time>2026-04-18T11:05:26Z</time></trkpt><trkpt lat="47.87946029104798" lon="11.720756690904338"><ele>676.0</ele><time>2026-04-18T11:05:27Z</time></trkpt><trkpt lat="47.879558241297914" lon="11.720814495745234"><ele>677.0</ele><time>2026-04-18T11:05:28Z</time></trkpt><trkpt lat="47.87965866377436" lon="11.72083654695108"><ele>678.0</ele><time>2026-04-18T11:05:29Z</time></trkpt><trkpt lat="47.87975913657703" lon="11.720826471902935"><ele>678.0</ele><time>2026-04-18T11:05:30Z</time></trkpt><trkpt lat="47.87985349523312" lon="11.720789348538165"><ele>678.0</ele><time>2026-04-18T11:05:31Z</time></trkpt><trkpt lat="47.87994574699559" lon="11.720725391043764"><ele>678.0</ele><time>2026-04-18T11:05:32Z</time></trkpt><trkpt lat="47.8800453354853" lon="11.720647770599848"><ele>678.0</ele><time>2026-04-18T11:05:33Z</time></trkpt><trkpt lat="47.8801224849345" lon="11.720533871684973"><ele>678.0</ele><time>2026-04-18T11:05:34Z</time></trkpt><trkpt lat="47.880184483428145" lon="11.720376386219646"><ele>678.0</ele><time>2026-04-18T11:05:35Z</time></trkpt><trkpt lat="47.88024113696245" lon="11.720201401149174"><ele>678.0</ele><time>2026-04-18T11:05:36Z</time></trkpt><trkpt lat="47.88027135984372" lon="11.719998806442442"><ele>678.0</ele><time>2026-04-18T11:05:37Z</time></trkpt><trkpt lat="47.88030910915319" lon="11.719808873551827"><ele>678.0</ele><time>2026-04-18T11:05:38Z</time></trkpt><trkpt lat="47.88033873075761" lon="11.71963106227141"><ele>678.0</ele><time>2026-04-18T11:05:39Z</time></trkpt><trkpt lat="47.880376971779725" lon="11.719439928332095"><ele>678.0</ele><time>2026-04-18T11:05:40Z</time></trkpt><trkpt lat="47.88042078849877" lon="11.719245597315266"><ele>678.0</ele><time>2026-04-18T11:05:41Z</time></trkpt><trkpt lat="47.88047237487015" lon="11.719053010567052"><ele>678.0</ele><time>2026-04-18T11:05:42Z</time></trkpt><trkpt lat="47.8805317124866" lon="11.71886628612536"><ele>677.4</ele><time>2026-04-18T11:05:43Z</time></trkpt><trkpt lat="47.88058888358568" lon="11.718707522919775"><ele>676.8</ele><time>2026-04-18T11:05:44Z</time></trkpt><trkpt lat="47.88065281205428" lon="11.718570878283927"><ele>676.2</ele><time>2026-04-18T11:05:45Z</time></trkpt><trkpt lat="47.880709160891904" lon="11.71844051419045"><ele>675.6</ele><time>2026-04-18T11:05:46Z</time></trkpt><trkpt lat="47.88077126354895" lon="11.71833747344251"><ele>675.0</ele><time>2026-04-18T11:05:47Z</time></trkpt><trkpt lat="47.88084454677827" lon="11.71824810244859"><ele>674.8333333333334</ele><time>2026-04-18T11:05:48Z</time></trkpt><trkpt lat="47.88092741050867" lon="11.718166634940273"><ele>674.6666666666666</ele><time>2026-04-18T11:05:49Z</time></trkpt><trkpt lat="47.881010114488326" lon="11.71810128254013"><ele>674.5</ele><time>2026-04-18T11:05:50Z</time></trkpt><trkpt lat="47.881083908579136" lon="11.718041161678933"><ele>674.3333333333333</ele><time>2026-04-18T11:05:51Z</time></trkpt><trkpt lat="47.881153203129536" lon="11.717976934228977"><ele>674.1666666666666</ele><time>2026-04-18T11:05:52Z</time></trkpt><trkpt lat="47.881209149550685" lon="11.717920769877125"><ele>674.0</ele><time>2026-04-18T11:05:53Z</time></trkpt><trkpt lat="47.881301601143846" lon="11.717825294911563"><ele>675.4000000000001</ele><time>2026-04-18T11:05:55Z</time></trkpt><trkpt lat="47.88138112620285" lon="11.717711833927616"><ele>676.8</ele><time>2026-04-18T11:05:57Z</time></trkpt><trkpt lat="47.88148672188214" lon="11.717658346008736"><ele>678.2</ele><time>2026-04-18T11:05:59Z</time></trkpt><trkpt lat="47.881602518910704" lon="11.71757531193905"><ele>679.5999999999999</ele><time>2026-04-18T11:06:01Z</time></trkpt><trkpt lat="47.881633356180565" lon="11.717473027027582"><ele>681.0</ele><time>2026-04-18T11:06:02Z</time></trkpt><trkpt lat="47.88164263556807" lon="11.717354132201645"><ele>681.0</ele><time>2026-04-18T11:06:03Z</time></trkpt><trkpt lat="47.88173777487622" lon="11.7172690891654"><ele>681.0</ele><time>2026-04-18T11:06:04Z</time></trkpt><trkpt lat="47.881837039400786" lon="11.717249392995027"><ele>681.0</ele><time>2026-04-18T11:06:05Z</time></trkpt><trkpt lat="47.88191446265261" lon="11.717219073789527"><ele>681.0</ele><time>2026-04-18T11:06:06Z</time></trkpt><trkpt lat="47.882014040984174" lon="11.717187935529171"><ele>681.0</ele><time>2026-04-18T11:06:07Z</time></trkpt><trkpt lat="47.88211621066019" lon="11.717162290396153"><ele>680.0</ele><time>2026-04-18T11:06:08Z</time></trkpt><trkpt lat="47.88222017275334" lon="11.717153136162178"><ele>679.0</ele><time>2026-04-18T11:06:09Z</time></trkpt><trkpt lat="47.88232806474095" lon="11.7171582720619"><ele>678.0</ele><time>2026-04-18T11:06:10Z</time></trkpt><trkpt lat="47.8824451415689" lon="11.71715751945104"><ele>677.0</ele><time>2026-04-18T11:06:11Z</time></trkpt><trkpt lat="47.88256605364408" lon="11.717189392141481"><ele>675.5</ele><time>2026-04-18T11:06:12Z</time></trkpt><trkpt lat="47.88269382495795" lon="11.717216811678957"><ele>674.0</ele><time>2026-04-18T11:06:13Z</time></trkpt><trkpt lat="47.882837503145105" lon="11.717258294645882"><ele>672.5</ele><time>2026-04-18T11:06:14Z</time></trkpt><trkpt lat="47.88298580521858" lon="11.717303927616731"><ele>671.0</ele><time>2026-04-18T11:06:15Z</time></trkpt><trkpt lat="47.88313577529005" lon="11.717347581902843"><ele>671.0</ele><time>2026-04-18T11:06:16Z</time></trkpt><trkpt lat="47.88328663771574" lon="11.717383031847165"><ele>671.0</ele><time>2026-04-18T11:06:17Z</time></trkpt><trkpt lat="47.88343001516277" lon="11.717427671156836"><ele>671.0</ele><time>2026-04-18T11:06:18Z</time></trkpt><trkpt lat="47.88358116200126" lon="11.717408356248646"><ele>672.75</ele><time>2026-04-18T11:06:19Z</time></trkpt><trkpt lat="47.883725487504286" lon="11.717388655418812"><ele>674.5</ele><time>2026-04-18T11:06:20Z</time></trkpt><trkpt lat="47.883861217645716" lon="11.717342658582556"><ele>676.25</ele><time>2026-04-18T11:06:21Z</time></trkpt><trkpt lat="47.88399552444728" lon="11.71728107637584"><ele>678.0</ele><time>2026-04-18T11:06:22Z</time></trkpt><trkpt lat="47.8841250524562" lon="11.71720979579399"><ele>678.0</ele><time>2026-04-18T11:06:23Z</time></trkpt><trkpt lat="47.884256517602545" lon="11.71712490556599"><ele>678.0</ele><time>2026-04-18T11:06:24Z</time></trkpt><trkpt lat="47.88437468529869" lon="11.71702587944264"><ele>678.0</ele><time>2026-04-18T11:06:25Z</time></trkpt><trkpt lat="47.88448866185299" lon="11.716912358914014"><ele>678.0</ele><time>2026-04-18T11:06:26Z</time></trkpt><trkpt lat="47.88460101901433" lon="11.71677962722349"><ele>679.0</ele><time>2026-04-18T11:06:27Z</time></trkpt><trkpt lat="47.88469547563759" lon="11.71663613967714"><ele>680.0</ele><time>2026-04-18T11:06:28Z</time></trkpt><trkpt lat="47.884795487088084" lon="11.716492301396482"><ele>681.0</ele><time>2026-04-18T11:06:29Z</time></trkpt><trkpt lat="47.88490426017877" lon="11.716363139938952"><ele>682.0</ele><time>2026-04-18T11:06:30Z</time></trkpt><trkpt lat="47.88501155731904" lon="11.716234496666651"><ele>682.25</ele><time>2026-04-18T11:06:31Z</time></trkpt><trkpt lat="47.88511566577276" lon="11.716110274730806"><ele>682.5</ele><time>2026-04-18T11:06:32Z</time></trkpt><trkpt lat="47.88521336601771" lon="11.71600122467774"><ele>682.75</ele><time>2026-04-18T11:06:33Z</time></trkpt><trkpt lat="47.88530834845047" lon="11.715885885880837"><ele>683.0</ele><time>2026-04-18T11:06:34Z</time></trkpt><trkpt lat="47.88540390001719" lon="11.71577025770953"><ele>682.25</ele><time>2026-04-18T11:06:35Z</time></trkpt><trkpt lat="47.8854966390436" lon="11.715664678812852"><ele>681.5</ele><time>2026-04-18T11:06:36Z</time></trkpt><trkpt lat="47.88559286839834" lon="11.715567003753112"><ele>680.75</ele><time>2026-04-18T11:06:37Z</time></trkpt><trkpt lat="47.88568506821968" lon="11.71547205799786"><ele>680.0</ele><time>2026-04-18T11:06:38Z</time></trkpt><trkpt lat="47.88577382348165" lon="11.715382925592914"><ele>680.0</ele><time>2026-04-18T11:06:39Z</time></trkpt><trkpt lat="47.885857436058956" lon="11.715301622006873"><ele>680.0</ele><time>2026-04-18T11:06:40Z</time></trkpt><trkpt lat="47.88592621052436" lon="11.715234242999962"><ele>680.0</ele><time>2026-04-18T11:06:41Z</time></trkpt><trkpt lat="47.885979770392204" lon="11.715184188114067"><ele>680.0</ele><time>2026-04-18T11:06:42Z</time></trkpt><trkpt lat="47.886063072033025" lon="11.715102325095632"><ele>680.0</ele><time>2026-04-18T11:06:44Z</time></trkpt><trkpt lat="47.88615090542316" lon="11.715025537547103"><ele>680.0</ele><time>2026-04-18T11:06:46Z</time></trkpt><trkpt lat="47.88624598968202" lon="11.714978109848538"><ele>678.2</ele><time>2026-04-18T11:06:48Z</time></trkpt><trkpt lat="47.88636141093904" lon="11.71497300514124"><ele>676.4</ele><time>2026-04-18T11:06:50Z</time></trkpt><trkpt lat="47.88647485247931" lon="11.715002000067166"><ele>674.5999999999999</ele><time>2026-04-18T11:06:52Z</time></trkpt><trkpt lat="47.886529355000995" lon="11.714949076910719"><ele>672.8</ele><time>2026-04-18T11:06:53Z</time></trkpt><trkpt lat="47.88658384028497" lon="11.714788096973816"><ele>671.0</ele><time>2026-04-18T11:06:55Z</time></trkpt><trkpt lat="47.88657765719447" lon="11.714693002046225"><ele>671.0</ele><time>2026-04-18T11:06:56Z</time></trkpt><trkpt lat="47.8865471980262" lon="11.714606254163352"><ele>671.0</ele><time>2026-04-18T11:06:57Z</time></trkpt><trkpt lat="47.88649299527626" lon="11.714542804264909"><ele>671.0</ele><time>2026-04-18T11:06:58Z</time></trkpt><trkpt lat="47.88642831652823" lon="11.714518582717611"><ele>671.0</ele><time>2026-04-18T11:06:59Z</time></trkpt><trkpt lat="47.88631939781709" lon="11.714604210995065"><ele>671.0</ele><time>2026-04-18T11:07:01Z</time></trkpt><trkpt lat="47.88626988696339" lon="11.714763207351838"><ele>671.0</ele><time>2026-04-18T11:07:03Z</time></trkpt><trkpt lat="47.88630020444768" lon="11.714933592654306"><ele>671.0</ele><time>2026-04-18T11:07:05Z</time></trkpt><trkpt lat="47.886419320783354" lon="11.714976965651488"><ele>671.0</ele><time>2026-04-18T11:07:08Z</time></trkpt><trkpt lat="47.886499883332284" lon="11.714976083126505"><ele>671.0</ele><time>2026-04-18T11:07:09Z</time></trkpt><trkpt lat="47.88657046695185" lon="11.714911331186599"><ele>671.0</ele><time>2026-04-18T11:07:10Z</time></trkpt><trkpt lat="47.886607039272015" lon="11.714796942655772"><ele>671.0</ele><time>2026-04-18T11:07:11Z</time></trkpt><trkpt lat="47.88660967200098" lon="11.71465877393142"><ele>671.0</ele><time>2026-04-18T11:07:12Z</time></trkpt><trkpt lat="47.886692352038125" lon="11.714590878755004"><ele>671.0</ele><time>2026-04-18T11:07:13Z</time></trkpt><trkpt lat="47.886763064245756" lon="11.714484206891314"><ele>671.0</ele><time>2026-04-18T11:07:14Z</time></trkpt><trkpt lat="47.88687060471784" lon="11.71448343069534"><ele>671.0</ele><time>2026-04-18T11:07:15Z</time></trkpt><trkpt lat="47.886963536137806" lon="11.714420318438748"><ele>671.0</ele><time>2026-04-18T11:07:16.001Z</time></trkpt><trkpt lat="47.887055262292506" lon="11.71435832478006"><ele>669.5</ele><time>2026-04-18T11:07:17.001Z</time></trkpt><trkpt lat="47.88716747673175" lon="11.714284297405705"><ele>668.0</ele><time>2026-04-18T11:07:18.001Z</time></trkpt><trkpt lat="47.88729739900934" lon="11.714193541082116"><ele>666.5</ele><time>2026-04-18T11:07:19.001Z</time></trkpt><trkpt lat="47.88742903310278" lon="11.714128458151908"><ele>665.0</ele><time>2026-04-18T11:07:20.001Z</time></trkpt><trkpt lat="47.887548878825605" lon="11.714061852954266"><ele>665.0</ele><time>2026-04-18T11:07:21.001Z</time></trkpt><trkpt lat="47.88767353829626" lon="11.714000370069328"><ele>665.0</ele><time>2026-04-18T11:07:22.001Z</time></trkpt><trkpt lat="47.88780965263624" lon="11.713928044098909"><ele>665.0</ele><time>2026-04-18T11:07:23.001Z</time></trkpt><trkpt lat="47.8879345396982" lon="11.713860223157317"><ele>665.0</ele><time>2026-04-18T11:07:24.001Z</time></trkpt><trkpt lat="47.88806408150255" lon="11.713783839654687"><ele>665.0</ele><time>2026-04-18T11:07:25.001Z</time></trkpt><trkpt lat="47.888194333511365" lon="11.713699972799908"><ele>665.0</ele><time>2026-04-18T11:07:26.001Z</time></trkpt><trkpt lat="47.88832150935398" lon="11.713611900422721"><ele>665.0</ele><time>2026-04-18T11:07:27.001Z</time></trkpt><trkpt lat="47.88843156911919" lon="11.713466732026006"><ele>665.0</ele><time>2026-04-18T11:07:28.001Z</time></trkpt><trkpt lat="47.888543527048434" lon="11.713302403310577"><ele>664.25</ele><time>2026-04-18T11:07:29.001Z</time></trkpt><trkpt lat="47.88863529262768" lon="11.713116778689857"><ele>663.5</ele><time>2026-04-18T11:07:30.001Z</time></trkpt><trkpt lat="47.888709923310714" lon="11.712942592836423"><ele>662.75</ele><time>2026-04-18T11:07:31.001Z</time></trkpt><trkpt lat="47.88876965565675" lon="11.712787996806561"><ele>662.0</ele><time>2026-04-18T11:07:32.001Z</time></trkpt><trkpt lat="47.88881057013088" lon="11.712639433793358"><ele>662.0</ele><time>2026-04-18T11:07:33.001Z</time></trkpt><trkpt lat="47.88884154629152" lon="11.712488854820146"><ele>662.0</ele><time>2026-04-18T11:07:34.001Z</time></trkpt><trkpt lat="47.88887062385907" lon="11.712331437166105"><ele>662.0</ele><time>2026-04-18T11:07:35.001Z</time></trkpt><trkpt lat="47.88888895736297" lon="11.712160782544293"><ele>662.0</ele><time>2026-04-18T11:07:36.001Z</time></trkpt><trkpt lat="47.8889003562996" lon="11.711976977173894"><ele>662.75</ele><time>2026-04-18T11:07:37.001Z</time></trkpt><trkpt lat="47.888902051383724" lon="11.7117803372253"><ele>663.5</ele><time>2026-04-18T11:07:38.001Z</time></trkpt><trkpt lat="47.88889483113983" lon="11.711579680181591"><ele>664.25</ele><time>2026-04-18T11:07:39.001Z</time></trkpt><trkpt lat="47.888878677482175" lon="11.711384325307062"><ele>665.0</ele><time>2026-04-18T11:07:40.001Z</time></trkpt><trkpt lat="47.88885971117375" lon="11.711204768692943"><ele>665.0</ele><time>2026-04-18T11:07:41.001Z</time></trkpt><trkpt lat="47.88884216827874" lon="11.711022726045325"><ele>665.0</ele><time>2026-04-18T11:07:42.001Z</time></trkpt><trkpt lat="47.88882721692317" lon="11.710840280331222"><ele>665.0</ele><time>2026-04-18T11:07:43.001Z</time></trkpt><trkpt lat="47.8888140803051" lon="11.710651317890989"><ele>665.0</ele><time>2026-04-18T11:07:44.001Z</time></trkpt><trkpt lat="47.88880146778577" lon="11.710460166553469"><ele>665.0</ele><time>2026-04-18T11:07:45.001Z</time></trkpt><trkpt lat="47.88879526737382" lon="11.710267161254432"><ele>665.0</ele><time>2026-04-18T11:07:46.001Z</time></trkpt><trkpt lat="47.88879031807726" lon="11.710079587269222"><ele>665.0</ele><time>2026-04-18T11:07:47.001Z</time></trkpt><trkpt lat="47.8887929245616" lon="11.709909592159496"><ele>665.0</ele><time>2026-04-18T11:07:48.001Z</time></trkpt><trkpt lat="47.88879648063769" lon="11.709756985564118"><ele>665.1666666666666</ele><time>2026-04-18T11:07:49.001Z</time></trkpt><trkpt lat="47.88880480697433" lon="11.709605280039437"><ele>665.3333333333333</ele><time>2026-04-18T11:07:50.001Z</time></trkpt><trkpt lat="47.88881897064301" lon="11.70947324865054"><ele>665.5</ele><time>2026-04-18T11:07:51.001Z</time></trkpt><trkpt lat="47.88883746351958" lon="11.709356017140022"><ele>665.6666666666666</ele><time>2026-04-18T11:07:52.001Z</time></trkpt><trkpt lat="47.88886199407259" lon="11.70923991991094"><ele>665.8333333333334</ele><time>2026-04-18T11:07:53.001Z</time></trkpt><trkpt lat="47.88887951940678" lon="11.70914144314279"><ele>666.0</ele><time>2026-04-18T11:07:54.001Z</time></trkpt><trkpt lat="47.88890290664226" lon="11.709046085178876"><ele>666.6666666666666</ele><time>2026-04-18T11:07:55.001Z</time></trkpt><trkpt lat="47.888936494940786" lon="11.708956416158218"><ele>667.3333333333334</ele><time>2026-04-18T11:07:56.001Z</time></trkpt><trkpt lat="47.88896156168088" lon="11.708855334413395"><ele>668.0</ele><time>2026-04-18T11:07:57.001Z</time></trkpt><trkpt lat="47.889053239309796" lon="11.708801752585982"><ele>668.6666666666667</ele><time>2026-04-18T11:07:58.001Z</time></trkpt><trkpt lat="47.88913045808144" lon="11.708749225893078"><ele>669.3333333333334</ele><time>2026-04-18T11:07:59.001Z</time></trkpt><trkpt lat="47.889224100521595" lon="11.708736524157649"><ele>670.0</ele><time>2026-04-18T11:08:00.001Z</time></trkpt><trkpt lat="47.88932840240512" lon="11.708751560347835"><ele>670.0</ele><time>2026-04-18T11:08:01.001Z</time></trkpt><trkpt lat="47.88944715543516" lon="11.708782762982247"><ele>670.0</ele><time>2026-04-18T11:08:02.001Z</time></trkpt><trkpt lat="47.889574715758116" lon="11.70880081462366"><ele>670.0</ele><time>2026-04-18T11:08:03.001Z</time></trkpt><trkpt lat="47.88970554203279" lon="11.708819341654726"><ele>670.0</ele><time>2026-04-18T11:08:04.001Z</time></trkpt><trkpt lat="47.889837544015236" lon="11.708837417159085"><ele>670.0</ele><time>2026-04-18T11:08:05.001Z</time></trkpt><trkpt lat="47.889968200445125" lon="11.708862459125601"><ele>670.0</ele><time>2026-04-18T11:08:06.001Z</time></trkpt><trkpt lat="47.89010665691152" lon="11.7088959218777"><ele>670.0</ele><time>2026-04-18T11:08:07.001Z</time></trkpt><trkpt lat="47.89024668822088" lon="11.70893949015365"><ele>670.0</ele><time>2026-04-18T11:08:08.001Z</time></trkpt><trkpt lat="47.89038800742623" lon="11.708994479928796"><ele>670.5</ele><time>2026-04-18T11:08:09.001Z</time></trkpt><trkpt lat="47.89052500057002" lon="11.709065900361647"><ele>671.0</ele><time>2026-04-18T11:08:10.001Z</time></trkpt><trkpt lat="47.89065408981387" lon="11.709148254891463"><ele>671.5</ele><time>2026-04-18T11:08:11.001Z</time></trkpt><trkpt lat="47.8907751517237" lon="11.709240558695027"><ele>672.0</ele><time>2026-04-18T11:08:12.001Z</time></trkpt><trkpt lat="47.89088534598156" lon="11.709342717461116"><ele>671.75</ele><time>2026-04-18T11:08:13.001Z</time></trkpt><trkpt lat="47.89099523120035" lon="11.709443816069408"><ele>671.5</ele><time>2026-04-18T11:08:14.001Z</time></trkpt><trkpt lat="47.89110937869106" lon="11.709550566740853"><ele>671.25</ele><time>2026-04-18T11:08:15.001Z</time></trkpt><trkpt lat="47.89122230214342" lon="11.709658056293682"><ele>671.0</ele><time>2026-04-18T11:08:16.001Z</time></trkpt><trkpt lat="47.89133883197666" lon="11.709764693825214"><ele>671.0</ele><time>2026-04-18T11:08:17.001Z</time></trkpt><trkpt lat="47.89145844680415" lon="11.709877796755626"><ele>671.0</ele><time>2026-04-18T11:08:18.001Z</time></trkpt><trkpt lat="47.8915872262751" lon="11.7099874918063"><ele>671.0</ele><time>2026-04-18T11:08:19.001Z</time></trkpt><trkpt lat="47.89170590438115" lon="11.71009682819409"><ele>671.0</ele><time>2026-04-18T11:08:20.001Z</time></trkpt><trkpt lat="47.891813084384005" lon="11.710193178882172"><ele>669.75</ele><time>2026-04-18T11:08:21.001Z</time></trkpt><trkpt lat="47.89191836305366" lon="11.710285985102207"><ele>668.5</ele><time>2026-04-18T11:08:22.001Z</time></trkpt><trkpt lat="47.892016663316056" lon="11.71037790591411"><ele>667.25</ele><time>2026-04-18T11:08:23.001Z</time></trkpt><trkpt lat="47.89211308235615" lon="11.710468799627888"><ele>666.0</ele><time>2026-04-18T11:08:24.001Z</time></trkpt><trkpt lat="47.89220115470074" lon="11.710554680846233"><ele>666.0</ele><time>2026-04-18T11:08:25.001Z</time></trkpt><trkpt lat="47.89228645826617" lon="11.710637491607448"><ele>666.0</ele><time>2026-04-18T11:08:26.001Z</time></trkpt><trkpt lat="47.892365417552476" lon="11.710718608521814"><ele>666.0</ele><time>2026-04-18T11:08:27.001Z</time></trkpt><trkpt lat="47.89245232292357" lon="11.71080957990319"><ele>666.0</ele><time>2026-04-18T11:08:28.001Z</time></trkpt><trkpt lat="47.892539520119435" lon="11.710898943185"><ele>666.0</ele><time>2026-04-18T11:08:29.001Z</time></trkpt><trkpt lat="47.892633522183175" lon="11.710990627066803"><ele>666.0</ele><time>2026-04-18T11:08:30.001Z</time></trkpt><trkpt lat="47.8927175695546" lon="11.71108552504683"><ele>666.0</ele><time>2026-04-18T11:08:31.001Z</time></trkpt><trkpt lat="47.89279060249985" lon="11.711197279460208"><ele>666.0</ele><time>2026-04-18T11:08:32.001Z</time></trkpt><trkpt lat="47.892852886525965" lon="11.711320904157345"><ele>666.0</ele><time>2026-04-18T11:08:33.001Z</time></trkpt><trkpt lat="47.89293863594659" lon="11.711444336690292"><ele>666.0</ele><time>2026-04-18T11:08:34.001Z</time></trkpt><trkpt lat="47.893008155192874" lon="11.711568405633104"><ele>666.0</ele><time>2026-04-18T11:08:35.001Z</time></trkpt><trkpt lat="47.89307500412448" lon="11.711698984167645"><ele>666.0</ele><time>2026-04-18T11:08:36.001Z</time></trkpt><trkpt lat="47.89314332476574" lon="11.711830564040799"><ele>666.0</ele><time>2026-04-18T11:08:37.001Z</time></trkpt><trkpt lat="47.89320677827328" lon="11.711957651101423"><ele>666.0</ele><time>2026-04-18T11:08:38.001Z</time></trkpt><trkpt lat="47.89327862127629" lon="11.712080135238503"><ele>666.0</ele><time>2026-04-18T11:08:39.001Z</time></trkpt><trkpt lat="47.8933458250003" lon="11.712192938543387"><ele>665.8</ele><time>2026-04-18T11:08:40.001Z</time></trkpt><trkpt lat="47.89341961106703" lon="11.712298449817975"><ele>665.5999999999999</ele><time>2026-04-18T11:08:41.001Z</time></trkpt><trkpt lat="47.89349084027654" lon="11.71241291704885"><ele>665.4</ele><time>2026-04-18T11:08:42.001Z</time></trkpt><trkpt lat="47.89357584127064" lon="11.712493989161857"><ele>665.2</ele><time>2026-04-18T11:08:43.001Z</time></trkpt><trkpt lat="47.89367892084663" lon="11.712558207786069"><ele>665.0</ele><time>2026-04-18T11:08:44.001Z</time></trkpt><trkpt lat="47.89377478260612" lon="11.712636050170962"><ele>665.0</ele><time>2026-04-18T11:08:45.001Z</time></trkpt><trkpt lat="47.89387219551904" lon="11.712693995845717"><ele>665.0</ele><time>2026-04-18T11:08:46.001Z</time></trkpt><trkpt lat="47.89395662997192" lon="11.712749912035822"><ele>665.0</ele><time>2026-04-18T11:08:47.001Z</time></trkpt><trkpt lat="47.89403379640632" lon="11.712834496429664"><ele>665.0</ele><time>2026-04-18T11:08:48.001Z</time></trkpt><trkpt lat="47.89413020359181" lon="11.712887696525657"><ele>665.0</ele><time>2026-04-18T11:08:49.001Z</time></trkpt><trkpt lat="47.894199866128126" lon="11.712994016975927"><ele>665.0</ele><time>2026-04-18T11:08:50.001Z</time></trkpt><trkpt lat="47.894225822172345" lon="11.71315115622201"><ele>665.0</ele><time>2026-04-18T11:08:51.001Z</time></trkpt><trkpt lat="47.89423305805109" lon="11.713318245872143"><ele>665.0</ele><time>2026-04-18T11:08:52.001Z</time></trkpt><trkpt lat="47.894187272134964" lon="11.713473902814211"><ele>665.0</ele><time>2026-04-18T11:08:53.001Z</time></trkpt><trkpt lat="47.894167882396296" lon="11.71361697711799"><ele>665.0</ele><time>2026-04-18T11:08:54.001Z</time></trkpt><trkpt lat="47.89414403773864" lon="11.713766248960532"><ele>664.8</ele><time>2026-04-18T11:08:55.001Z</time></trkpt><trkpt lat="47.894125344435636" lon="11.713916475332166"><ele>664.6</ele><time>2026-04-18T11:08:56.001Z</time></trkpt><trkpt lat="47.894120180286855" lon="11.714078539486486"><ele>664.4000000000001</ele><time>2026-04-18T11:08:57.001Z</time></trkpt><trkpt lat="47.89412684006342" lon="11.714236938320946"><ele>664.2</ele><time>2026-04-18T11:08:58.001Z</time></trkpt><trkpt lat="47.89414852648958" lon="11.714396204439531"><ele>664.0</ele><time>2026-04-18T11:08:59.001Z</time></trkpt><trkpt lat="47.89419228624466" lon="11.714553578094035"><ele>663.75</ele><time>2026-04-18T11:09:00.001Z</time></trkpt><trkpt lat="47.89425637422587" lon="11.71470704472357"><ele>663.5</ele><time>2026-04-18T11:09:01.001Z</time></trkpt><trkpt lat="47.89432879969378" lon="11.714847565668101"><ele>663.25</ele><time>2026-04-18T11:09:02.001Z</time></trkpt><trkpt lat="47.894415421376216" lon="11.714977079776988"><ele>663.0</ele><time>2026-04-18T11:09:03.001Z</time></trkpt><trkpt lat="47.89450594238903" lon="11.715093307210479"><ele>663.0</ele><time>2026-04-18T11:09:04.001Z</time></trkpt><trkpt lat="47.89459238454659" lon="11.715209916755027"><ele>663.0</ele><time>2026-04-18T11:09:05.001Z</time></trkpt><trkpt lat="47.89468249387925" lon="11.715331148212629"><ele>663.0</ele><time>2026-04-18T11:09:06.001Z</time></trkpt><trkpt lat="47.894771211529715" lon="11.715449778034024"><ele>663.0</ele><time>2026-04-18T11:09:07.001Z</time></trkpt><trkpt lat="47.89485438960374" lon="11.715558616256436"><ele>663.0</ele><time>2026-04-18T11:09:08.001Z</time></trkpt><trkpt lat="47.89493083821242" lon="11.71566822267355"><ele>663.0</ele><time>2026-04-18T11:09:09.001Z</time></trkpt><trkpt lat="47.89500756506069" lon="11.715773620966564"><ele>663.0</ele><time>2026-04-18T11:09:10.001Z</time></trkpt><trkpt lat="47.895084838040894" lon="11.715875325630229"><ele>663.0</ele><time>2026-04-18T11:09:11.001Z</time></trkpt><trkpt lat="47.89516625940631" lon="11.715978898059547"><ele>663.0</ele><time>2026-04-18T11:09:12.001Z</time></trkpt><trkpt lat="47.89524384352769" lon="11.716075445998195"><ele>663.0</ele><time>2026-04-18T11:09:13.001Z</time></trkpt><trkpt lat="47.89531568356029" lon="11.716157776621563"><ele>663.0</ele><time>2026-04-18T11:09:14.001Z</time></trkpt><trkpt lat="47.895387032044525" lon="11.716243696741776"><ele>663.0</ele><time>2026-04-18T11:09:15.001Z</time></trkpt><trkpt lat="47.8954524086143" lon="11.71631971533409"><ele>663.0</ele><time>2026-04-18T11:09:16.001Z</time></trkpt><trkpt lat="47.89551552659017" lon="11.716396127546686"><ele>663.0</ele><time>2026-04-18T11:09:17.001Z</time></trkpt><trkpt lat="47.89557894321772" lon="11.716478552701878"><ele>663.0</ele><time>2026-04-18T11:09:18.001Z</time></trkpt><trkpt lat="47.89562713628569" lon="11.716591574518988"><ele>663.0</ele><time>2026-04-18T11:09:19.001Z</time></trkpt><trkpt lat="47.895676769596975" lon="11.716704535595294"><ele>663.0</ele><time>2026-04-18T11:09:20.001Z</time></trkpt><trkpt lat="47.89574075245173" lon="11.716805496501747"><ele>663.0</ele><time>2026-04-18T11:09:21.001Z</time></trkpt><trkpt lat="47.89578222936391" lon="11.716942271962955"><ele>663.0</ele><time>2026-04-18T11:09:22.001Z</time></trkpt><trkpt lat="47.8958477403225" lon="11.717049290299416"><ele>663.0</ele><time>2026-04-18T11:09:23.001Z</time></trkpt><trkpt lat="47.895902569914554" lon="11.71716970654577"><ele>663.5999999999999</ele><time>2026-04-18T11:09:24.001Z</time></trkpt><trkpt lat="47.89596839637168" lon="11.717277337995894"><ele>664.1999999999999</ele><time>2026-04-18T11:09:25.001Z</time></trkpt><trkpt lat="47.896027617830356" lon="11.717373568351153"><ele>664.8</ele><time>2026-04-18T11:09:26.001Z</time></trkpt><trkpt lat="47.89610536406339" lon="11.717455890576883"><ele>665.4</ele><time>2026-04-18T11:09:27.001Z</time></trkpt><trkpt lat="47.89618630870497" lon="11.717539501226284"><ele>666.0</ele><time>2026-04-18T11:09:28.001Z</time></trkpt><trkpt lat="47.896252084757116" lon="11.71762303781433"><ele>665.5</ele><time>2026-04-18T11:09:29.001Z</time></trkpt><trkpt lat="47.89630136816666" lon="11.71774155163815"><ele>665.0</ele><time>2026-04-18T11:09:30.001Z</time></trkpt><trkpt lat="47.896348751773814" lon="11.717836433383717"><ele>664.5</ele><time>2026-04-18T11:09:31.001Z</time></trkpt><trkpt lat="47.89639039132891" lon="11.71792759472776"><ele>664.0</ele><time>2026-04-18T11:09:32.001Z</time></trkpt><trkpt lat="47.89644457836401" lon="11.718068579374469"><ele>663.5</ele><time>2026-04-18T11:09:34.001Z</time></trkpt><trkpt lat="47.89648494108053" lon="11.718191550168141"><ele>663.0</ele><time>2026-04-18T11:09:36.001Z</time></trkpt><trkpt lat="47.896524338301" lon="11.718306414793176"><ele>663.0</ele><time>2026-04-18T11:09:38.001Z</time></trkpt><trkpt lat="47.896556843262594" lon="11.718438261071205"><ele>663.0</ele><time>2026-04-18T11:09:40.001Z</time></trkpt><trkpt lat="47.896584005017765" lon="11.718547088618788"><ele>663.0</ele><time>2026-04-18T11:09:42.001Z</time></trkpt><trkpt lat="47.89660544639032" lon="11.718661581421388"><ele>663.0</ele><time>2026-04-18T11:09:44.001Z</time></trkpt><trkpt lat="47.8966473550292" lon="11.718810179941515"><ele>663.0</ele><time>2026-04-18T11:09:46.001Z</time></trkpt><trkpt lat="47.89667637938913" lon="11.718902086118062"><ele>663.0</ele><time>2026-04-18T11:09:47.001Z</time></trkpt><trkpt lat="47.89671399626259" lon="11.718999257496073"><ele>663.0</ele><time>2026-04-18T11:09:48.001Z</time></trkpt><trkpt lat="47.89675125003185" lon="11.719095501242245"><ele>663.0</ele><time>2026-04-18T11:09:49.001Z</time></trkpt><trkpt lat="47.89678944737565" lon="11.71919150456089"><ele>663.0</ele><time>2026-04-18T11:09:50.001Z</time></trkpt><trkpt lat="47.896830159299" lon="11.719291046965353"><ele>663.0</ele><time>2026-04-18T11:09:51.001Z</time></trkpt><trkpt lat="47.89686230265544" lon="11.719377131598362"><ele>663.0</ele><time>2026-04-18T11:09:52.001Z</time></trkpt><trkpt lat="47.89692962737343" lon="11.719516251844919"><ele>663.0</ele><time>2026-04-18T11:09:54.001Z</time></trkpt><trkpt lat="47.896998920559206" lon="11.71964569629787"><ele>663.0</ele><time>2026-04-18T11:09:56.001Z</time></trkpt><trkpt lat="47.89707137710809" lon="11.719748878755766"><ele>663.0</ele><time>2026-04-18T11:09:58.001Z</time></trkpt><trkpt lat="47.89714183682944" lon="11.719829980941839"><ele>663.0</ele><time>2026-04-18T11:10:00.001Z</time></trkpt><trkpt lat="47.89719539169825" lon="11.719887471735518"><ele>663.0</ele><time>2026-04-18T11:10:03.001Z</time></trkpt><trkpt lat="47.89732664330605" lon="11.720021801509835"><ele>663.0</ele><time>2026-04-18T11:11:02.001Z</time></trkpt><trkpt lat="47.89744260222888" lon="11.720085437297264"><ele>663.0</ele><time>2026-04-18T11:11:04.001Z</time></trkpt><trkpt lat="47.89749000862288" lon="11.720171445427814"><ele>663.0</ele><time>2026-04-18T11:11:05.001Z</time></trkpt><trkpt lat="47.897579362090255" lon="11.720259330334859"><ele>663.0</ele><time>2026-04-18T11:11:07.001Z</time></trkpt><trkpt lat="47.89766492210073" lon="11.72035300263572"><ele>663.0</ele><time>2026-04-18T11:11:09.001Z</time></trkpt><trkpt lat="47.89777129176276" lon="11.720476030666877"><ele>663.0</ele><time>2026-04-18T11:11:11.001Z</time></trkpt><trkpt lat="47.8978399154763" lon="11.720556681702035"><ele>662.8</ele><time>2026-04-18T11:11:12.001Z</time></trkpt><trkpt lat="47.89791715082233" lon="11.720657766441153"><ele>662.5999999999999</ele><time>2026-04-18T11:11:13.001Z</time></trkpt><trkpt lat="47.89799998884554" lon="11.720761608681425"><ele>662.4000000000001</ele><time>2026-04-18T11:11:14.001Z</time></trkpt><trkpt lat="47.89807836145821" lon="11.720899542975038"><ele>662.2</ele><time>2026-04-18T11:11:15.001Z</time></trkpt><trkpt lat="47.898157099567115" lon="11.721028127790776"><ele>662.0</ele><time>2026-04-18T11:11:16.001Z</time></trkpt><trkpt lat="47.89823033272091" lon="11.721147036001875"><ele>662.0</ele><time>2026-04-18T11:11:17.001Z</time></trkpt><trkpt lat="47.89829927472254" lon="11.721260996470576"><ele>662.0</ele><time>2026-04-18T11:11:18.001Z</time></trkpt><trkpt lat="47.89836602073604" lon="11.721376333967434"><ele>662.0</ele><time>2026-04-18T11:11:19.001Z</time></trkpt><trkpt lat="47.898436728917645" lon="11.721499163784442"><ele>662.0</ele><time>2026-04-18T11:11:20.001Z</time></trkpt><trkpt lat="47.898517566154354" lon="11.721638795535235"><ele>662.0</ele><time>2026-04-18T11:11:21.001Z</time></trkpt><trkpt lat="47.89859982395902" lon="11.721782003419277"><ele>662.25</ele><time>2026-04-18T11:11:22.001Z</time></trkpt><trkpt lat="47.89866862680423" lon="11.721923142710232"><ele>662.5</ele><time>2026-04-18T11:11:23.001Z</time></trkpt><trkpt lat="47.89873415697181" lon="11.722072258167675"><ele>662.75</ele><time>2026-04-18T11:11:24.001Z</time></trkpt><trkpt lat="47.89883076348438" lon="11.722222627418688"><ele>663.0</ele><time>2026-04-18T11:11:25.001Z</time></trkpt><trkpt lat="47.89890845542018" lon="11.72244631976549"><ele>663.0</ele><time>2026-04-18T11:11:26.001Z</time></trkpt><trkpt lat="47.899010057057836" lon="11.722644281846033"><ele>663.0</ele><time>2026-04-18T11:11:27.001Z</time></trkpt><trkpt lat="47.899122463821634" lon="11.722830768382602"><ele>663.0</ele><time>2026-04-18T11:11:28.001Z</time></trkpt><trkpt lat="47.89921946840892" lon="11.723006467800467"><ele>663.0</ele><time>2026-04-18T11:11:29.001Z</time></trkpt><trkpt lat="47.899308364567155" lon="11.72316184607834"><ele>663.0</ele><time>2026-04-18T11:11:30.001Z</time></trkpt><trkpt lat="47.89939730889837" lon="11.723311545935683"><ele>663.0</ele><time>2026-04-18T11:11:31.001Z</time></trkpt><trkpt lat="47.89947685615645" lon="11.723459910629916"><ele>663.0</ele><time>2026-04-18T11:11:32.001Z</time></trkpt><trkpt lat="47.89955234042667" lon="11.723599175853634"><ele>663.0</ele><time>2026-04-18T11:11:33.001Z</time></trkpt><trkpt lat="47.89962364109621" lon="11.723734318605223"><ele>663.0</ele><time>2026-04-18T11:11:34.001Z</time></trkpt><trkpt lat="47.899696094208416" lon="11.723877180903955"><ele>663.0</ele><time>2026-04-18T11:11:35.001Z</time></trkpt><trkpt lat="47.89976644923187" lon="11.724034400243427"><ele>663.0</ele><time>2026-04-18T11:11:36.001Z</time></trkpt><trkpt lat="47.89983697807346" lon="11.7242049558429"><ele>663.0</ele><time>2026-04-18T11:11:37.001Z</time></trkpt><trkpt lat="47.89991314035173" lon="11.72438833942279"><ele>663.0</ele><time>2026-04-18T11:11:38.001Z</time></trkpt><trkpt lat="47.89998848038421" lon="11.724583769262152"><ele>663.0</ele><time>2026-04-18T11:11:39.001Z</time></trkpt><trkpt lat="47.900065888306834" lon="11.724790608390698"><ele>662.0</ele><time>2026-04-18T11:11:40.001Z</time></trkpt><trkpt lat="47.900139555273896" lon="11.724995930891286"><ele>661.0</ele><time>2026-04-18T11:11:41.001Z</time></trkpt><trkpt lat="47.900217620391714" lon="11.725205652495575"><ele>660.0</ele><time>2026-04-18T11:11:42.001Z</time></trkpt><trkpt lat="47.90030652432945" lon="11.725412584067914"><ele>659.6666666666666</ele><time>2026-04-18T11:11:43.001Z</time></trkpt><trkpt lat="47.90039447514596" lon="11.725619474674808"><ele>659.3333333333333</ele><time>2026-04-18T11:11:44.001Z</time></trkpt><trkpt lat="47.90048093050445" lon="11.725818797739201"><ele>659.0</ele><time>2026-04-18T11:11:45.001Z</time></trkpt><trkpt lat="47.90056477921362" lon="11.726005533990929"><ele>658.75</ele><time>2026-04-18T11:11:46.001Z</time></trkpt><trkpt lat="47.90064508004842" lon="11.726187814775493"><ele>658.5</ele><time>2026-04-18T11:11:47.001Z</time></trkpt><trkpt lat="47.90072344564546" lon="11.72636333300743"><ele>658.25</ele><time>2026-04-18T11:11:48.001Z</time></trkpt><trkpt lat="47.90080243641542" lon="11.726541502877684"><ele>658.0</ele><time>2026-04-18T11:11:49.001Z</time></trkpt><trkpt lat="47.900883447094124" lon="11.72672425122899"><ele>658.25</ele><time>2026-04-18T11:11:50.001Z</time></trkpt><trkpt lat="47.900963035094065" lon="11.726907681787617"><ele>658.5</ele><time>2026-04-18T11:11:51.001Z</time></trkpt><trkpt lat="47.901043588574986" lon="11.727087581183762"><ele>658.75</ele><time>2026-04-18T11:11:52.001Z</time></trkpt><trkpt lat="47.901127074621826" lon="11.727265957558078"><ele>659.0</ele><time>2026-04-18T11:11:53.001Z</time></trkpt><trkpt lat="47.90121441519877" lon="11.727446262601477"><ele>659.0</ele><time>2026-04-18T11:11:54.001Z</time></trkpt><trkpt lat="47.901308003746074" lon="11.72762203659534"><ele>659.0</ele><time>2026-04-18T11:11:55.001Z</time></trkpt><trkpt lat="47.90139785723707" lon="11.72779511612871"><ele>659.0</ele><time>2026-04-18T11:11:56.001Z</time></trkpt><trkpt lat="47.90148051678297" lon="11.727967775925348"><ele>659.0</ele><time>2026-04-18T11:11:57.001Z</time></trkpt><trkpt lat="47.9015556944975" lon="11.728139390792839"><ele>658.75</ele><time>2026-04-18T11:11:58.001Z</time></trkpt><trkpt lat="47.90161093254158" lon="11.72832657689611"><ele>658.5</ele><time>2026-04-18T11:11:59.001Z</time></trkpt><trkpt lat="47.9016940120355" lon="11.728488498818269"><ele>658.25</ele><time>2026-04-18T11:12:00.001Z</time></trkpt><trkpt lat="47.90176069340071" lon="11.728664686053929"><ele>658.0</ele><time>2026-04-18T11:12:01.001Z</time></trkpt><trkpt lat="47.90181555321272" lon="11.728853954777707"><ele>657.75</ele><time>2026-04-18T11:12:02.001Z</time></trkpt><trkpt lat="47.90188307052008" lon="11.72903183882161"><ele>657.5</ele><time>2026-04-18T11:12:03.001Z</time></trkpt><trkpt lat="47.90195107183952" lon="11.729209753122339"><ele>657.25</ele><time>2026-04-18T11:12:04.001Z</time></trkpt><trkpt lat="47.902020955881355" lon="11.729386048287685"><ele>657.0</ele><time>2026-04-18T11:12:05.001Z</time></trkpt><trkpt lat="47.90209235085176" lon="11.729556847539431"><ele>657.5</ele><time>2026-04-18T11:12:06.001Z</time></trkpt><trkpt lat="47.90216461267016" lon="11.729726283727198"><ele>658.0</ele><time>2026-04-18T11:12:07.001Z</time></trkpt><trkpt lat="47.902234231380476" lon="11.729895786669172"><ele>658.5</ele><time>2026-04-18T11:12:08.001Z</time></trkpt><trkpt lat="47.90230023492715" lon="11.73006338528101"><ele>659.0</ele><time>2026-04-18T11:12:09.001Z</time></trkpt><trkpt lat="47.902365211235775" lon="11.730233995189659"><ele>659.0</ele><time>2026-04-18T11:12:10.001Z</time></trkpt><trkpt lat="47.90242819258749" lon="11.73040411581804"><ele>659.0</ele><time>2026-04-18T11:12:11.001Z</time></trkpt><trkpt lat="47.90249044246322" lon="11.73057276980074"><ele>659.0</ele><time>2026-04-18T11:12:12.001Z</time></trkpt><trkpt lat="47.90254719112548" lon="11.730731478704485"><ele>659.0</ele><time>2026-04-18T11:12:13.001Z</time></trkpt><trkpt lat="47.90260014856912" lon="11.730879519918787"><ele>659.0</ele><time>2026-04-18T11:12:14.001Z</time></trkpt><trkpt lat="47.902650559378486" lon="11.731023173657045"><ele>659.0</ele><time>2026-04-18T11:12:15.001Z</time></trkpt><trkpt lat="47.9027018837393" lon="11.731175694379006"><ele>659.0</ele><time>2026-04-18T11:12:16.001Z</time></trkpt><trkpt lat="47.90275143449641" lon="11.73132907721542"><ele>659.0</ele><time>2026-04-18T11:12:17.001Z</time></trkpt><trkpt lat="47.90279894376686" lon="11.731480361274508"><ele>659.0</ele><time>2026-04-18T11:12:18.001Z</time></trkpt><trkpt lat="47.902845663923685" lon="11.731630976882425"><ele>659.4000000000001</ele><time>2026-04-18T11:12:19.001Z</time></trkpt><trkpt lat="47.90289338932433" lon="11.731781555039383"><ele>659.8</ele><time>2026-04-18T11:12:20.001Z</time></trkpt><trkpt lat="47.902940038375725" lon="11.731927996023717"><ele>660.2</ele><time>2026-04-18T11:12:21.001Z</time></trkpt><trkpt lat="47.90298641693247" lon="11.732073588235732"><ele>660.5999999999999</ele><time>2026-04-18T11:12:22.001Z</time></trkpt><trkpt lat="47.90303250717639" lon="11.73221827254477"><ele>661.0</ele><time>2026-04-18T11:12:23.001Z</time></trkpt><trkpt lat="47.90307611732506" lon="11.732352941523377"><ele>660.3333333333334</ele><time>2026-04-18T11:12:24.001Z</time></trkpt><trkpt lat="47.90311836925817" lon="11.732470184685658"><ele>659.6666666666667</ele><time>2026-04-18T11:12:25.001Z</time></trkpt><trkpt lat="47.903163862022915" lon="11.732583380949164"><ele>659.0</ele><time>2026-04-18T11:12:26.001Z</time></trkpt><trkpt lat="47.903210740755206" lon="11.732678344817048"><ele>658.3333333333334</ele><time>2026-04-18T11:12:27.001Z</time></trkpt><trkpt lat="47.903265763656194" lon="11.732772531470694"><ele>657.6666666666666</ele><time>2026-04-18T11:12:28.001Z</time></trkpt><trkpt lat="47.9033320092917" lon="11.732856400996676"><ele>657.0</ele><time>2026-04-18T11:12:29.001Z</time></trkpt><trkpt lat="47.90341270925695" lon="11.732929477983907"><ele>656.0</ele><time>2026-04-18T11:12:30.001Z</time></trkpt><trkpt lat="47.90352832284349" lon="11.732936138617259"><ele>655.0</ele><time>2026-04-18T11:12:31.001Z</time></trkpt><trkpt lat="47.90363691913149" lon="11.732940713984332"><ele>654.0</ele><time>2026-04-18T11:12:32.001Z</time></trkpt><trkpt lat="47.90375853320323" lon="11.732902918406205"><ele>653.0</ele><time>2026-04-18T11:12:33.001Z</time></trkpt><trkpt lat="47.903891135859766" lon="11.732833655004958"><ele>653.0</ele><time>2026-04-18T11:12:34.001Z</time></trkpt><trkpt lat="47.90402169837976" lon="11.732741999295248"><ele>653.0</ele><time>2026-04-18T11:12:35.001Z</time></trkpt><trkpt lat="47.904140353004664" lon="11.732628536871605"><ele>653.0</ele><time>2026-04-18T11:12:36.001Z</time></trkpt><trkpt lat="47.904243276529584" lon="11.732531103847931"><ele>653.0</ele><time>2026-04-18T11:12:37.001Z</time></trkpt><trkpt lat="47.90434237086256" lon="11.732443506089615"><ele>653.2</ele><time>2026-04-18T11:12:38.001Z</time></trkpt><trkpt lat="47.90443563519847" lon="11.732356155812324"><ele>653.4</ele><time>2026-04-18T11:12:39.001Z</time></trkpt><trkpt lat="47.90452712946369" lon="11.732271380170442"><ele>653.6</ele><time>2026-04-18T11:12:40.001Z</time></trkpt><trkpt lat="47.904622839964716" lon="11.73218822204665"><ele>653.8000000000001</ele><time>2026-04-18T11:12:41.001Z</time></trkpt><trkpt lat="47.9047205716652" lon="11.732102141505125"><ele>654.0</ele><time>2026-04-18T11:12:42.001Z</time></trkpt><trkpt lat="47.904830896184265" lon="11.732008349913709"><ele>654.0</ele><time>2026-04-18T11:12:43.001Z</time></trkpt><trkpt lat="47.90495895229149" lon="11.731932552838916"><ele>654.0</ele><time>2026-04-18T11:12:44.001Z</time></trkpt><trkpt lat="47.90509046797714" lon="11.731863948679177"><ele>654.0</ele><time>2026-04-18T11:12:45.001Z</time></trkpt><trkpt lat="47.905229434078116" lon="11.731806261217326"><ele>654.0</ele><time>2026-04-18T11:12:46.001Z</time></trkpt><trkpt lat="47.905373473627485" lon="11.731761375539831"><ele>654.3333333333334</ele><time>2026-04-18T11:12:47.001Z</time></trkpt><trkpt lat="47.90552105887923" lon="11.73171782853856"><ele>654.6666666666667</ele><time>2026-04-18T11:12:48.001Z</time></trkpt><trkpt lat="47.90568002452665" lon="11.731704593801613"><ele>655.0</ele><time>2026-04-18T11:12:49.001Z</time></trkpt><trkpt lat="47.90583823050782" lon="11.73164558364388"><ele>654.6666666666667</ele><time>2026-04-18T11:12:50.001Z</time></trkpt><trkpt lat="47.905998085716675" lon="11.731612798070488"><ele>654.3333333333334</ele><time>2026-04-18T11:12:51.001Z</time></trkpt><trkpt lat="47.90615558884224" lon="11.73158150032966"><ele>654.0</ele><time>2026-04-18T11:12:52.001Z</time></trkpt><trkpt lat="47.90631476276706" lon="11.731549478064018"><ele>654.0</ele><time>2026-04-18T11:12:53.001Z</time></trkpt><trkpt lat="47.906474568410395" lon="11.731515688968708"><ele>654.0</ele><time>2026-04-18T11:12:54.001Z</time></trkpt><trkpt lat="47.9066332908979" lon="11.731483897605187"><ele>654.0</ele><time>2026-04-18T11:12:55.001Z</time></trkpt><trkpt lat="47.9067959755521" lon="11.731445857157118"><ele>653.6666666666666</ele><time>2026-04-18T11:12:56.001Z</time></trkpt><trkpt lat="47.90695452788896" lon="11.731410950339217"><ele>653.3333333333333</ele><time>2026-04-18T11:12:57.001Z</time></trkpt><trkpt lat="47.90710804993675" lon="11.731377655291242"><ele>653.0</ele><time>2026-04-18T11:12:58.001Z</time></trkpt><trkpt lat="47.907266440328335" lon="11.731381324200232"><ele>653.0</ele><time>2026-04-18T11:12:59.001Z</time></trkpt><trkpt lat="47.907428473166256" lon="11.73140913232972"><ele>653.0</ele><time>2026-04-18T11:13:00.001Z</time></trkpt><trkpt lat="47.907589118271915" lon="11.731470940371242"><ele>653.0</ele><time>2026-04-18T11:13:01.001Z</time></trkpt><trkpt lat="47.907763241058774" lon="11.731547995974225"><ele>652.0</ele><time>2026-04-18T11:13:02.001Z</time></trkpt><trkpt lat="47.907930366024225" lon="11.731623249508276"><ele>651.0</ele><time>2026-04-18T11:13:03.001Z</time></trkpt><trkpt lat="47.90809057943408" lon="11.731694804478405"><ele>650.0</ele><time>2026-04-18T11:13:04.001Z</time></trkpt><trkpt lat="47.90824473658134" lon="11.73176365240808"><ele>650.0</ele><time>2026-04-18T11:13:05.001Z</time></trkpt><trkpt lat="47.90839892308443" lon="11.731832463468361"><ele>650.0</ele><time>2026-04-18T11:13:06.001Z</time></trkpt><trkpt lat="47.90855092830984" lon="11.731900267997785"><ele>650.0</ele><time>2026-04-18T11:13:07.001Z</time></trkpt><trkpt lat="47.908694665059066" lon="11.731964384302552"><ele>648.6666666666666</ele><time>2026-04-18T11:13:08.001Z</time></trkpt><trkpt lat="47.908839654480495" lon="11.732027802084092"><ele>647.3333333333334</ele><time>2026-04-18T11:13:09.001Z</time></trkpt><trkpt lat="47.90899115684861" lon="11.732094332063408"><ele>646.0</ele><time>2026-04-18T11:13:10.001Z</time></trkpt><trkpt lat="47.909140900105086" lon="11.73216336057799"><ele>645.0</ele><time>2026-04-18T11:13:11.001Z</time></trkpt><trkpt lat="47.909287553189145" lon="11.732233164503832"><ele>644.0</ele><time>2026-04-18T11:13:12.001Z</time></trkpt><trkpt lat="47.90943578946763" lon="11.732306363052373"><ele>643.0</ele><time>2026-04-18T11:13:13.001Z</time></trkpt><trkpt lat="47.90958499554508" lon="11.732386089987894"><ele>643.0</ele><time>2026-04-18T11:13:14.001Z</time></trkpt><trkpt lat="47.909733569997606" lon="11.732477293197732"><ele>643.0</ele><time>2026-04-18T11:13:15.001Z</time></trkpt><trkpt lat="47.90988549496673" lon="11.73257657765812"><ele>643.0</ele><time>2026-04-18T11:13:16.001Z</time></trkpt><trkpt lat="47.91003360447839" lon="11.732678497661848"><ele>641.6666666666667</ele><time>2026-04-18T11:13:17.001Z</time></trkpt><trkpt lat="47.91018531256431" lon="11.732788025162487"><ele>640.3333333333334</ele><time>2026-04-18T11:13:18.001Z</time></trkpt><trkpt lat="47.91034039695107" lon="11.732914749285909"><ele>639.0</ele><time>2026-04-18T11:13:19.001Z</time></trkpt><trkpt lat="47.91050067503801" lon="11.733055460837676"><ele>639.0</ele><time>2026-04-18T11:13:20.001Z</time></trkpt><trkpt lat="47.91065945897716" lon="11.733210740749964"><ele>639.0</ele><time>2026-04-18T11:13:21.001Z</time></trkpt><trkpt lat="47.910814854679025" lon="11.733374911445264"><ele>639.0</ele><time>2026-04-18T11:13:22.001Z</time></trkpt><trkpt lat="47.910960744956725" lon="11.733546982119755"><ele>640.3333333333334</ele><time>2026-04-18T11:13:23.001Z</time></trkpt><trkpt lat="47.91108718660663" lon="11.733711751091182"><ele>641.6666666666667</ele><time>2026-04-18T11:13:24.001Z</time></trkpt><trkpt lat="47.91120494357672" lon="11.733890001503637"><ele>643.0</ele><time>2026-04-18T11:13:25.001Z</time></trkpt><trkpt lat="47.91131088598923" lon="11.73408244952478"><ele>643.0</ele><time>2026-04-18T11:13:26Z</time></trkpt><trkpt lat="47.91140590099602" lon="11.734289383777018"><ele>643.0</ele><time>2026-04-18T11:13:27Z</time></trkpt><trkpt lat="47.911486626462995" lon="11.734507666679669"><ele>643.0</ele><time>2026-04-18T11:13:28Z</time></trkpt><trkpt lat="47.91155657353166" lon="11.734735901840988"><ele>642.6666666666667</ele><time>2026-04-18T11:13:29Z</time></trkpt><trkpt lat="47.91161898275827" lon="11.734958962024765"><ele>642.3333333333334</ele><time>2026-04-18T11:13:30Z</time></trkpt><trkpt lat="47.91167549029024" lon="11.735178337338478"><ele>642.0</ele><time>2026-04-18T11:13:31Z</time></trkpt><trkpt lat="47.91173005063034" lon="11.735397910536593"><ele>643.6666666666666</ele><time>2026-04-18T11:13:32Z</time></trkpt><trkpt lat="47.91178522039315" lon="11.73562137283789"><ele>645.3333333333333</ele><time>2026-04-18T11:13:33Z</time></trkpt><trkpt lat="47.91184205751439" lon="11.735850363878955"><ele>647.0</ele><time>2026-04-18T11:13:34Z</time></trkpt><trkpt lat="47.911901818519446" lon="11.736078119420217"><ele>647.3333333333333</ele><time>2026-04-18T11:13:35Z</time></trkpt><trkpt lat="47.911967919489356" lon="11.736312737418412"><ele>647.6666666666666</ele><time>2026-04-18T11:13:36Z</time></trkpt><trkpt lat="47.912040722610776" lon="11.736545355648225"><ele>648.0</ele><time>2026-04-18T11:13:37Z</time></trkpt><trkpt lat="47.912121557291584" lon="11.736776291657279"><ele>647.0</ele><time>2026-04-18T11:13:38Z</time></trkpt><trkpt lat="47.91221034684894" lon="11.736998854279712"><ele>646.0</ele><time>2026-04-18T11:13:39Z</time></trkpt><trkpt lat="47.912302272827304" lon="11.737217489609701"><ele>645.0</ele><time>2026-04-18T11:13:40Z</time></trkpt><trkpt lat="47.91239570797731" lon="11.737427951575878"><ele>645.0</ele><time>2026-04-18T11:13:41Z</time></trkpt><trkpt lat="47.912491801503755" lon="11.737640093501184"><ele>645.0</ele><time>2026-04-18T11:13:42Z</time></trkpt><trkpt lat="47.91258762240303" lon="11.73785155250751"><ele>645.0</ele><time>2026-04-18T11:13:43Z</time></trkpt><trkpt lat="47.91268572805322" lon="11.73806805355889"><ele>646.6666666666666</ele><time>2026-04-18T11:13:44Z</time></trkpt><trkpt lat="47.91279249139126" lon="11.738303840622038"><ele>648.3333333333333</ele><time>2026-04-18T11:13:45Z</time></trkpt><trkpt lat="47.912901966091155" lon="11.738545853104695"><ele>650.0</ele><time>2026-04-18T11:13:46Z</time></trkpt><trkpt lat="47.91301163202522" lon="11.738788288403896"><ele>650.6666666666666</ele><time>2026-04-18T11:13:47Z</time></trkpt><trkpt lat="47.91312207409737" lon="11.739032439734975"><ele>651.3333333333334</ele><time>2026-04-18T11:13:48Z</time></trkpt><trkpt lat="47.913235032272745" lon="11.739285412852503"><ele>652.0</ele><time>2026-04-18T11:13:49Z</time></trkpt><trkpt lat="47.91334747217575" lon="11.739538049929283"><ele>651.3333333333334</ele><time>2026-04-18T11:13:50Z</time></trkpt><trkpt lat="47.91345566039866" lon="11.739780954922322"><ele>650.6666666666666</ele><time>2026-04-18T11:13:51Z</time></trkpt><trkpt lat="47.91356423001998" lon="11.740023666181463"><ele>650.0</ele><time>2026-04-18T11:13:52Z</time></trkpt><trkpt lat="47.913675082179836" lon="11.740271480245676"><ele>649.6666666666666</ele><time>2026-04-18T11:13:53Z</time></trkpt><trkpt lat="47.91378570156001" lon="11.740518773697906"><ele>649.3333333333334</ele><time>2026-04-18T11:13:54Z</time></trkpt><trkpt lat="47.913901616251366" lon="11.740777905102584"><ele>649.0</ele><time>2026-04-18T11:13:55Z</time></trkpt><trkpt lat="47.91401729247238" lon="11.741037392256045"><ele>649.3333333333334</ele><time>2026-04-18T11:13:56Z</time></trkpt><trkpt lat="47.914134953440595" lon="11.741302674774046"><ele>649.6666666666666</ele><time>2026-04-18T11:13:57Z</time></trkpt><trkpt lat="47.91425458476307" lon="11.741568963720622"><ele>650.0</ele><time>2026-04-18T11:13:58Z</time></trkpt><trkpt lat="47.91437482163968" lon="11.741834060383681"><ele>649.0</ele><time>2026-04-18T11:13:59.001Z</time></trkpt><trkpt lat="47.914496950705164" lon="11.742105305463426"><ele>648.0</ele><time>2026-04-18T11:14:00.001Z</time></trkpt><trkpt lat="47.914617584438105" lon="11.742372770116097"><ele>647.0</ele><time>2026-04-18T11:14:01.001Z</time></trkpt><trkpt lat="47.9147343594435" lon="11.742630955205028"><ele>645.0</ele><time>2026-04-18T11:14:02.001Z</time></trkpt><trkpt lat="47.914858180835324" lon="11.742904719796469"><ele>643.0</ele><time>2026-04-18T11:14:03.001Z</time></trkpt><trkpt lat="47.914988506436465" lon="11.743192864840886"><ele>646.0</ele><time>2026-04-18T11:14:04.001Z</time></trkpt><trkpt lat="47.91511646267857" lon="11.743476480704922"><ele>649.0</ele><time>2026-04-18T11:14:05.001Z</time></trkpt><trkpt lat="47.915247438700504" lon="11.743767907901688"><ele>649.0</ele><time>2026-04-18T11:14:06.001Z</time></trkpt><trkpt lat="47.91537904041744" lon="11.74406072754582"><ele>649.0</ele><time>2026-04-18T11:14:07.001Z</time></trkpt><trkpt lat="47.91550876689067" lon="11.744349374390383"><ele>648.5</ele><time>2026-04-18T11:14:08.001Z</time></trkpt><trkpt lat="47.915644697664874" lon="11.744651533852004"><ele>648.0</ele><time>2026-04-18T11:14:09.001Z</time></trkpt><trkpt lat="47.91577488453301" lon="11.744939912215198"><ele>648.0</ele><time>2026-04-18T11:14:10.001Z</time></trkpt><trkpt lat="47.91590331246679" lon="11.745223523815914"><ele>648.0</ele><time>2026-04-18T11:14:11.001Z</time></trkpt><trkpt lat="47.91603590119036" lon="11.745516323931964"><ele>648.0</ele><time>2026-04-18T11:14:12.001Z</time></trkpt><trkpt lat="47.91616547001607" lon="11.745802496069464"><ele>648.0</ele><time>2026-04-18T11:14:13.001Z</time></trkpt><trkpt lat="47.916292475782825" lon="11.746083328619878"><ele>648.0</ele><time>2026-04-18T11:14:14.001Z</time></trkpt><trkpt lat="47.916423924887326" lon="11.746374593594654"><ele>648.0</ele><time>2026-04-18T11:14:15.001Z</time></trkpt><trkpt lat="47.91655265313557" lon="11.74666005153304"><ele>648.5</ele><time>2026-04-18T11:14:16.001Z</time></trkpt><trkpt lat="47.91667795755853" lon="11.746939708214022"><ele>649.0</ele><time>2026-04-18T11:14:17.001Z</time></trkpt><trkpt lat="47.916803532539994" lon="11.747218883477972"><ele>649.0</ele><time>2026-04-18T11:14:18.001Z</time></trkpt><trkpt lat="47.91693275058921" lon="11.747503382724252"><ele>649.0</ele><time>2026-04-18T11:14:19.001Z</time></trkpt><trkpt lat="47.91705476795717" lon="11.747777826856884"><ele>647.6666666666667</ele><time>2026-04-18T11:14:20.001Z</time></trkpt><trkpt lat="47.91717142576811" lon="11.748044936858818"><ele>646.3333333333334</ele><time>2026-04-18T11:14:21.001Z</time></trkpt><trkpt lat="47.9172872089358" lon="11.748305000029543"><ele>645.0</ele><time>2026-04-18T11:14:22.001Z</time></trkpt><trkpt lat="47.91740431145153" lon="11.748568027055345"><ele>645.0</ele><time>2026-04-18T11:14:23.001Z</time></trkpt><trkpt lat="47.917520836521575" lon="11.748829756620207"><ele>645.0</ele><time>2026-04-18T11:14:24.001Z</time></trkpt><trkpt lat="47.917637799079806" lon="11.749092470984221"><ele>645.0</ele><time>2026-04-18T11:14:25.001Z</time></trkpt><trkpt lat="47.91775558983399" lon="11.749357043797493"><ele>645.0</ele><time>2026-04-18T11:14:26.001Z</time></trkpt><trkpt lat="47.91787710084953" lon="11.749629972783477"><ele>645.0</ele><time>2026-04-18T11:14:27.001Z</time></trkpt><trkpt lat="47.917999818021" lon="11.74990561095173"><ele>645.0</ele><time>2026-04-18T11:14:28.001Z</time></trkpt><trkpt lat="47.9181235010827" lon="11.750183418639164"><ele>644.5</ele><time>2026-04-18T11:14:29.001Z</time></trkpt><trkpt lat="47.91824707339742" lon="11.750460977555843"><ele>644.0</ele><time>2026-04-18T11:14:30.001Z</time></trkpt><trkpt lat="47.9183726789247" lon="11.750743439933695"><ele>642.5</ele><time>2026-04-18T11:14:31.001Z</time></trkpt><trkpt lat="47.91849830119561" lon="11.751026930546335"><ele>641.0</ele><time>2026-04-18T11:14:32.001Z</time></trkpt><trkpt lat="47.91862197841787" lon="11.75130603178313"><ele>640.3333333333333</ele><time>2026-04-18T11:14:33.001Z</time></trkpt><trkpt lat="47.91874585960316" lon="11.751585593309118"><ele>639.6666666666666</ele><time>2026-04-18T11:14:34.001Z</time></trkpt><trkpt lat="47.91886969402253" lon="11.751863247924074"><ele>639.0</ele><time>2026-04-18T11:14:35.001Z</time></trkpt><trkpt lat="47.918995026773075" lon="11.752143808511164"><ele>638.6666666666666</ele><time>2026-04-18T11:14:36.001Z</time></trkpt><trkpt lat="47.91911732340506" lon="11.752419581307477"><ele>638.3333333333333</ele><time>2026-04-18T11:14:37.001Z</time></trkpt><trkpt lat="47.91923951385098" lon="11.752693086081036"><ele>638.0</ele><time>2026-04-18T11:14:38.001Z</time></trkpt><trkpt lat="47.91935328812883" lon="11.752947521929443"><ele>638.0</ele><time>2026-04-18T11:14:39.001Z</time></trkpt><trkpt lat="47.91945767249808" lon="11.753184863948151"><ele>638.0</ele><time>2026-04-18T11:14:40.001Z</time></trkpt><trkpt lat="47.91955696077609" lon="11.753408842392636"><ele>638.0</ele><time>2026-04-18T11:14:41.001Z</time></trkpt><trkpt lat="47.919648918705484" lon="11.753616284749741"><ele>638.0</ele><time>2026-04-18T11:14:42.001Z</time></trkpt><trkpt lat="47.91973404256564" lon="11.753808310539586"><ele>638.0</ele><time>2026-04-18T11:14:43.001Z</time></trkpt><trkpt lat="47.919811323612905" lon="11.753982644198652"><ele>638.0</ele><time>2026-04-18T11:14:44.001Z</time></trkpt><trkpt lat="47.91988328062714" lon="11.75414535608464"><ele>638.0</ele><time>2026-04-18T11:14:45.001Z</time></trkpt><trkpt lat="47.91995367151229" lon="11.754305130662303"><ele>637.75</ele><time>2026-04-18T11:14:46.001Z</time></trkpt><trkpt lat="47.92002022983873" lon="11.754456206031723"><ele>637.5</ele><time>2026-04-18T11:14:47.001Z</time></trkpt><trkpt lat="47.92008483974783" lon="11.754602544034858"><ele>637.25</ele><time>2026-04-18T11:14:48.001Z</time></trkpt><trkpt lat="47.920143454366766" lon="11.75473423512797"><ele>637.0</ele><time>2026-04-18T11:14:49.001Z</time></trkpt><trkpt lat="47.92020222779253" lon="11.754866282998012"><ele>637.0</ele><time>2026-04-18T11:14:50.001Z</time></trkpt><trkpt lat="47.92025843189013" lon="11.754992558394049"><ele>637.0</ele><time>2026-04-18T11:14:51.001Z</time></trkpt><trkpt lat="47.920315452970605" lon="11.755120669381885"><ele>637.0</ele><time>2026-04-18T11:14:52.001Z</time></trkpt><trkpt lat="47.920367116515244" lon="11.755236743430716"><ele>637.0</ele><time>2026-04-18T11:14:53.001Z</time></trkpt><trkpt lat="47.92041392281845" lon="11.755341904569068"><ele>637.0</ele><time>2026-04-18T11:14:54.001Z</time></trkpt><trkpt lat="47.920458348972446" lon="11.755441718152973"><ele>637.1666666666667</ele><time>2026-04-18T11:14:55.001Z</time></trkpt><trkpt lat="47.9205364468613" lon="11.755492666805836"><ele>637.3333333333334</ele><time>2026-04-18T11:14:56.001Z</time></trkpt><trkpt lat="47.92057788793946" lon="11.755584615006255"><ele>637.5</ele><time>2026-04-18T11:14:57.001Z</time></trkpt><trkpt lat="47.92061686599921" lon="11.755673514994617"><ele>637.6666666666666</ele><time>2026-04-18T11:14:58.001Z</time></trkpt><trkpt lat="47.9206863761473" lon="11.75583306374393"><ele>637.8333333333333</ele><time>2026-04-18T11:15:00.001Z</time></trkpt><trkpt lat="47.9207303599077" lon="11.755901211629496"><ele>638.0</ele><time>2026-04-18T11:15:01.001Z</time></trkpt><trkpt lat="47.92080149053266" lon="11.755932670349479"><ele>638.0</ele><time>2026-04-18T11:15:02.001Z</time></trkpt><trkpt lat="47.92089527603717" lon="11.755934994400361"><ele>638.0</ele><time>2026-04-18T11:15:03.001Z</time></trkpt><trkpt lat="47.921007682197065" lon="11.755940127122228"><ele>638.0</ele><time>2026-04-18T11:15:04.001Z</time></trkpt><trkpt lat="47.921126443221844" lon="11.75595903526973"><ele>638.0</ele><time>2026-04-18T11:15:05.001Z</time></trkpt><trkpt lat="47.921273200120474" lon="11.755984695220478"><ele>638.0</ele><time>2026-04-18T11:15:06.001Z</time></trkpt><trkpt lat="47.92140734008885" lon="11.75600201523846"><ele>638.0</ele><time>2026-04-18T11:15:07.001Z</time></trkpt><trkpt lat="47.92154573316418" lon="11.756016412128771"><ele>638.0</ele><time>2026-04-18T11:15:08Z</time></trkpt><trkpt lat="47.92167621768904" lon="11.756028473513627"><ele>638.0</ele><time>2026-04-18T11:15:09Z</time></trkpt><trkpt lat="47.92181091541133" lon="11.75604307590377"><ele>638.75</ele><time>2026-04-18T11:15:10Z</time></trkpt><trkpt lat="47.92193380788051" lon="11.756057398334365"><ele>639.5</ele><time>2026-04-18T11:15:11Z</time></trkpt><trkpt lat="47.92206197396246" lon="11.756071220193716"><ele>640.25</ele><time>2026-04-18T11:15:12Z</time></trkpt><trkpt lat="47.92221013601388" lon="11.756085680946086"><ele>641.0</ele><time>2026-04-18T11:15:13Z</time></trkpt><trkpt lat="47.92236971564959" lon="11.756099845823885"><ele>641.0</ele><time>2026-04-18T11:15:14Z</time></trkpt><trkpt lat="47.922534468542985" lon="11.756115425033048"><ele>641.0</ele><time>2026-04-18T11:15:15Z</time></trkpt><trkpt lat="47.92269985832025" lon="11.756135483865277"><ele>641.0</ele><time>2026-04-18T11:15:16Z</time></trkpt><trkpt lat="47.922862595106686" lon="11.756154603944468"><ele>641.0</ele><time>2026-04-18T11:15:17Z</time></trkpt><trkpt lat="47.923015034801914" lon="11.756173878794133"><ele>641.0</ele><time>2026-04-18T11:15:18Z</time></trkpt><trkpt lat="47.923157200771044" lon="11.756194334775234"><ele>641.0</ele><time>2026-04-18T11:15:19Z</time></trkpt><trkpt lat="47.92328262738983" lon="11.756206509372984"><ele>641.0</ele><time>2026-04-18T11:15:20Z</time></trkpt><trkpt lat="47.9233976567065" lon="11.756216628988172"><ele>641.0</ele><time>2026-04-18T11:15:21Z</time></trkpt><trkpt lat="47.923526410293164" lon="11.756228593934809"><ele>641.0</ele><time>2026-04-18T11:15:22Z</time></trkpt><trkpt lat="47.923676182315056" lon="11.756246490808884"><ele>641.0</ele><time>2026-04-18T11:15:23Z</time></trkpt><trkpt lat="47.92384192633472" lon="11.756268610190768"><ele>641.0</ele><time>2026-04-18T11:15:24Z</time></trkpt><trkpt lat="47.92402048963152" lon="11.756294447350175"><ele>641.0</ele><time>2026-04-18T11:15:25Z</time></trkpt><trkpt lat="47.924203864986936" lon="11.75631729838574"><ele>641.0</ele><time>2026-04-18T11:15:26Z</time></trkpt><trkpt lat="47.9243783284041" lon="11.756338438387143"><ele>641.0</ele><time>2026-04-18T11:15:27Z</time></trkpt><trkpt lat="47.924542446735515" lon="11.756358286387497"><ele>642.0</ele><time>2026-04-18T11:15:28Z</time></trkpt><trkpt lat="47.924703280661475" lon="11.756380100061543"><ele>643.0</ele><time>2026-04-18T11:15:29Z</time></trkpt><trkpt lat="47.92486268671775" lon="11.75640284921157"><ele>644.0</ele><time>2026-04-18T11:15:30Z</time></trkpt><trkpt lat="47.92501802217122" lon="11.75642213785586"><ele>644.0</ele><time>2026-04-18T11:15:31Z</time></trkpt><trkpt lat="47.92517617103952" lon="11.75644229393435"><ele>644.0</ele><time>2026-04-18T11:15:32Z</time></trkpt><trkpt lat="47.925336558820376" lon="11.75646237002282"><ele>644.0</ele><time>2026-04-18T11:15:33Z</time></trkpt><trkpt lat="47.92550561532319" lon="11.756484701794887"><ele>644.0</ele><time>2026-04-18T11:15:34Z</time></trkpt><trkpt lat="47.925674477582426" lon="11.756510304063836"><ele>644.0</ele><time>2026-04-18T11:15:35Z</time></trkpt><trkpt lat="47.925840926104414" lon="11.75653451078149"><ele>644.0</ele><time>2026-04-18T11:15:36Z</time></trkpt><trkpt lat="47.92600621114912" lon="11.756557988549899"><ele>642.0</ele><time>2026-04-18T11:15:37Z</time></trkpt><trkpt lat="47.926173131202916" lon="11.756578719672845"><ele>640.0</ele><time>2026-04-18T11:15:38Z</time></trkpt><trkpt lat="47.92634049256201" lon="11.756595529029694"><ele>638.0</ele><time>2026-04-18T11:15:39Z</time></trkpt><trkpt lat="47.926502831112465" lon="11.75661379835424"><ele>638.0</ele><time>2026-04-18T11:15:40Z</time></trkpt><trkpt lat="47.926656969364295" lon="11.75663318113515"><ele>638.0</ele><time>2026-04-18T11:15:41Z</time></trkpt><trkpt lat="47.926806968245195" lon="11.756652998448711"><ele>638.0</ele><time>2026-04-18T11:15:42Z</time></trkpt><trkpt lat="47.92695490694989" lon="11.756674997783962"><ele>637.5</ele><time>2026-04-18T11:15:43Z</time></trkpt><trkpt lat="47.92710492856671" lon="11.756696199712659"><ele>637.0</ele><time>2026-04-18T11:15:44Z</time></trkpt><trkpt lat="47.927251667342574" lon="11.756715274665414"><ele>636.5</ele><time>2026-04-18T11:15:45Z</time></trkpt><trkpt lat="47.92739982481495" lon="11.7567270887486"><ele>636.0</ele><time>2026-04-18T11:15:46Z</time></trkpt><trkpt lat="47.92754881863675" lon="11.756747200957612"><ele>636.6666666666666</ele><time>2026-04-18T11:15:47Z</time></trkpt><trkpt lat="47.92769909756779" lon="11.756766340126381"><ele>637.3333333333333</ele><time>2026-04-18T11:15:48Z</time></trkpt><trkpt lat="47.92785001080153" lon="11.756786852080733"><ele>638.0</ele><time>2026-04-18T11:15:49Z</time></trkpt><trkpt lat="47.92800383986805" lon="11.756805185882197"><ele>638.0</ele><time>2026-04-18T11:15:50Z</time></trkpt><trkpt lat="47.928153460281436" lon="11.756850096052535"><ele>638.0</ele><time>2026-04-18T11:15:51Z</time></trkpt><trkpt lat="47.928316631702444" lon="11.756847049101248"><ele>638.0</ele><time>2026-04-18T11:15:52Z</time></trkpt><trkpt lat="47.92849854566449" lon="11.756865857049227"><ele>640.0</ele><time>2026-04-18T11:15:53Z</time></trkpt><trkpt lat="47.9286904976115" lon="11.756915419387935"><ele>642.0</ele><time>2026-04-18T11:15:54Z</time></trkpt><trkpt lat="47.92886693515461" lon="11.756938150889122"><ele>644.0</ele><time>2026-04-18T11:15:55Z</time></trkpt><trkpt lat="47.92903828656528" lon="11.756960227131085"><ele>644.0</ele><time>2026-04-18T11:15:56Z</time></trkpt><trkpt lat="47.92922283190533" lon="11.756983267241473"><ele>644.0</ele><time>2026-04-18T11:15:57Z</time></trkpt><trkpt lat="47.9294082609046" lon="11.756987042244402"><ele>644.0</ele><time>2026-04-18T11:15:58Z</time></trkpt><trkpt lat="47.929597590275364" lon="11.757016805497848"><ele>644.0</ele><time>2026-04-18T11:15:59Z</time></trkpt><trkpt lat="47.92978272196554" lon="11.757040300279984"><ele>644.0</ele><time>2026-04-18T11:16:00Z</time></trkpt><trkpt lat="47.92996366055629" lon="11.757066855497149"><ele>644.0</ele><time>2026-04-18T11:16:01Z</time></trkpt><trkpt lat="47.93014258317881" lon="11.757097938324247"><ele>643.3333333333333</ele><time>2026-04-18T11:16:02Z</time></trkpt><trkpt lat="47.93031105579095" lon="11.757117068389324"><ele>642.6666666666666</ele><time>2026-04-18T11:16:03Z</time></trkpt><trkpt lat="47.93048026383978" lon="11.757134321106347"><ele>642.0</ele><time>2026-04-18T11:16:04Z</time></trkpt><trkpt lat="47.93064735459453" lon="11.757154990156417"><ele>642.0</ele><time>2026-04-18T11:16:05Z</time></trkpt><trkpt lat="47.930810527400034" lon="11.75717629117941"><ele>642.0</ele><time>2026-04-18T11:16:06Z</time></trkpt><trkpt lat="47.93098650567863" lon="11.757195510349911"><ele>642.0</ele><time>2026-04-18T11:16:07Z</time></trkpt><trkpt lat="47.93116460545408" lon="11.757206941268572"><ele>640.3333333333334</ele><time>2026-04-18T11:16:08Z</time></trkpt><trkpt lat="47.931320333879064" lon="11.757245080191238"><ele>638.6666666666667</ele><time>2026-04-18T11:16:09Z</time></trkpt><trkpt lat="47.93149548740257" lon="11.757241289326982"><ele>637.0</ele><time>2026-04-18T11:16:10Z</time></trkpt><trkpt lat="47.931665912228524" lon="11.757264682586571"><ele>637.0</ele><time>2026-04-18T11:16:11Z</time></trkpt><trkpt lat="47.931835127495084" lon="11.757296394724243"><ele>637.0</ele><time>2026-04-18T11:16:12Z</time></trkpt><trkpt lat="47.932001598649016" lon="11.757327552391608"><ele>637.0</ele><time>2026-04-18T11:16:13Z</time></trkpt><trkpt lat="47.93216622317128" lon="11.757328551691158"><ele>637.0</ele><time>2026-04-18T11:16:14Z</time></trkpt><trkpt lat="47.93232620592059" lon="11.757369004051037"><ele>637.0</ele><time>2026-04-18T11:16:15Z</time></trkpt><trkpt lat="47.932491912854516" lon="11.757380899249247"><ele>637.0</ele><time>2026-04-18T11:16:16Z</time></trkpt><trkpt lat="47.93265968745859" lon="11.757385266981826"><ele>637.3333333333334</ele><time>2026-04-18T11:16:17Z</time></trkpt><trkpt lat="47.932828363196435" lon="11.757413913565879"><ele>637.6666666666666</ele><time>2026-04-18T11:16:18Z</time></trkpt><trkpt lat="47.93299667891764" lon="11.75745064906964"><ele>638.0</ele><time>2026-04-18T11:16:19Z</time></trkpt><trkpt lat="47.93316125467951" lon="11.757453050124282"><ele>638.0</ele><time>2026-04-18T11:16:20Z</time></trkpt><trkpt lat="47.933334091267525" lon="11.757490976476046"><ele>638.0</ele><time>2026-04-18T11:16:21Z</time></trkpt><trkpt lat="47.933503796922025" lon="11.757489767245815"><ele>638.0</ele><time>2026-04-18T11:16:22Z</time></trkpt><trkpt lat="47.933680127920454" lon="11.757514916232092"><ele>638.0</ele><time>2026-04-18T11:16:23Z</time></trkpt><trkpt lat="47.933872631001435" lon="11.757515083046115"><ele>638.0</ele><time>2026-04-18T11:16:24Z</time></trkpt><trkpt lat="47.934065090204335" lon="11.757522081990219"><ele>638.0</ele><time>2026-04-18T11:16:25Z</time></trkpt><trkpt lat="47.93425901138404" lon="11.757510829755768"><ele>637.6666666666666</ele><time>2026-04-18T11:16:26Z</time></trkpt><trkpt lat="47.93445865087677" lon="11.757498088488166"><ele>637.3333333333334</ele><time>2026-04-18T11:16:27Z</time></trkpt><trkpt lat="47.93464217348113" lon="11.75749807422404"><ele>637.0</ele><time>2026-04-18T11:16:28Z</time></trkpt><trkpt lat="47.93482404537381" lon="11.757487415662185"><ele>637.0</ele><time>2026-04-18T11:16:29Z</time></trkpt><trkpt lat="47.934991374490046" lon="11.757457606447929"><ele>637.0</ele><time>2026-04-18T11:16:30Z</time></trkpt><trkpt lat="47.93515847026028" lon="11.7574235117589"><ele>637.0</ele><time>2026-04-18T11:16:31Z</time></trkpt><trkpt lat="47.93532212166567" lon="11.757396866782196"><ele>635.6666666666667</ele><time>2026-04-18T11:16:32Z</time></trkpt><trkpt lat="47.93546852165316" lon="11.75736501504096"><ele>634.3333333333334</ele><time>2026-04-18T11:16:33Z</time></trkpt><trkpt lat="47.93562606174436" lon="11.757347543669672"><ele>633.0</ele><time>2026-04-18T11:16:34Z</time></trkpt><trkpt lat="47.93578335116961" lon="11.757297869927124"><ele>632.0</ele><time>2026-04-18T11:16:35Z</time></trkpt><trkpt lat="47.93594874734919" lon="11.757256488466426"><ele>631.0</ele><time>2026-04-18T11:16:36Z</time></trkpt><trkpt lat="47.936117077956716" lon="11.757204014724774"><ele>630.0</ele><time>2026-04-18T11:16:37Z</time></trkpt><trkpt lat="47.93628477501882" lon="11.757148882291448"><ele>630.0</ele><time>2026-04-18T11:16:38Z</time></trkpt><trkpt lat="47.936449814151985" lon="11.75709345252401"><ele>630.0</ele><time>2026-04-18T11:16:39Z</time></trkpt><trkpt lat="47.93660948363663" lon="11.7570330243658"><ele>630.0</ele><time>2026-04-18T11:16:40Z</time></trkpt><trkpt lat="47.93676345447662" lon="11.756972747065987"><ele>630.0</ele><time>2026-04-18T11:16:41Z</time></trkpt><trkpt lat="47.93691499024203" lon="11.756914645166686"><ele>630.0</ele><time>2026-04-18T11:16:42Z</time></trkpt><trkpt lat="47.937064445041926" lon="11.756847226221632"><ele>630.0</ele><time>2026-04-18T11:16:43Z</time></trkpt><trkpt lat="47.93721276891462" lon="11.756778104070767"><ele>630.0</ele><time>2026-04-18T11:16:44Z</time></trkpt><trkpt lat="47.937364002982775" lon="11.756709251149811"><ele>630.0</ele><time>2026-04-18T11:16:45Z</time></trkpt><trkpt lat="47.93751001767221" lon="11.756632873205707"><ele>630.0</ele><time>2026-04-18T11:16:46Z</time></trkpt><trkpt lat="47.937649034790944" lon="11.75656432740374"><ele>631.0</ele><time>2026-04-18T11:16:47Z</time></trkpt><trkpt lat="47.93778356006115" lon="11.75650098956799"><ele>632.0</ele><time>2026-04-18T11:16:48Z</time></trkpt><trkpt lat="47.937924639799085" lon="11.756431725999104"><ele>633.0</ele><time>2026-04-18T11:16:49Z</time></trkpt><trkpt lat="47.938073139245965" lon="11.756359311030192"><ele>634.0</ele><time>2026-04-18T11:16:50Z</time></trkpt><trkpt lat="47.93822295052121" lon="11.756280142291082"><ele>634.0</ele><time>2026-04-18T11:16:51Z</time></trkpt><trkpt lat="47.93837389918748" lon="11.756198515501463"><ele>634.0</ele><time>2026-04-18T11:16:52Z</time></trkpt><trkpt lat="47.93852921666469" lon="11.756119025532424"><ele>634.0</ele><time>2026-04-18T11:16:53Z</time></trkpt><trkpt lat="47.93868809209579" lon="11.756038128269976"><ele>634.0</ele><time>2026-04-18T11:16:54Z</time></trkpt><trkpt lat="47.93884806573145" lon="11.755957855763983"><ele>634.0</ele><time>2026-04-18T11:16:55Z</time></trkpt><trkpt lat="47.939009921219714" lon="11.755870160482067"><ele>634.0</ele><time>2026-04-18T11:16:56Z</time></trkpt><trkpt lat="47.939174516250056" lon="11.755777601853154"><ele>633.3333333333334</ele><time>2026-04-18T11:16:57Z</time></trkpt><trkpt lat="47.93934208358255" lon="11.755697170992448"><ele>632.6666666666666</ele><time>2026-04-18T11:16:58Z</time></trkpt><trkpt lat="47.93950939968251" lon="11.755611481648135"><ele>632.0</ele><time>2026-04-18T11:16:59Z</time></trkpt><trkpt lat="47.93967494162428" lon="11.7555243176683"><ele>632.0</ele><time>2026-04-18T11:17:00Z</time></trkpt><trkpt lat="47.939838732753174" lon="11.755439021477626"><ele>632.0</ele><time>2026-04-18T11:17:01Z</time></trkpt><trkpt lat="47.93999717481126" lon="11.755354446472657"><ele>632.0</ele><time>2026-04-18T11:17:02Z</time></trkpt><trkpt lat="47.94014766182189" lon="11.75527590934424"><ele>631.3333333333333</ele><time>2026-04-18T11:17:03Z</time></trkpt><trkpt lat="47.94030109159138" lon="11.755194095068804"><ele>630.6666666666666</ele><time>2026-04-18T11:17:04Z</time></trkpt><trkpt lat="47.940454557821056" lon="11.75511429736296"><ele>630.0</ele><time>2026-04-18T11:17:05Z</time></trkpt><trkpt lat="47.940604503072265" lon="11.755034915542774"><ele>630.0</ele><time>2026-04-18T11:17:06Z</time></trkpt><trkpt lat="47.94075163729903" lon="11.75495994579294"><ele>630.0</ele><time>2026-04-18T11:17:07Z</time></trkpt><trkpt lat="47.94090466409918" lon="11.754874329185242"><ele>630.0</ele><time>2026-04-18T11:17:08Z</time></trkpt><trkpt lat="47.941060010250354" lon="11.754790843369115"><ele>630.0</ele><time>2026-04-18T11:17:09Z</time></trkpt><trkpt lat="47.94122125854337" lon="11.754708913256136"><ele>630.0</ele><time>2026-04-18T11:17:10Z</time></trkpt><trkpt lat="47.94138358354602" lon="11.75461995833422"><ele>630.0</ele><time>2026-04-18T11:17:11Z</time></trkpt><trkpt lat="47.941541259708856" lon="11.754534782053922"><ele>630.0</ele><time>2026-04-18T11:17:12Z</time></trkpt><trkpt lat="47.94170301002266" lon="11.754453269444078"><ele>630.0</ele><time>2026-04-18T11:17:13Z</time></trkpt><trkpt lat="47.94186218118983" lon="11.754376033429457"><ele>630.0</ele><time>2026-04-18T11:17:14Z</time></trkpt><trkpt lat="47.942019275719815" lon="11.754300318846152"><ele>630.0</ele><time>2026-04-18T11:17:15Z</time></trkpt><trkpt lat="47.94217235135498" lon="11.754211569726596"><ele>630.0</ele><time>2026-04-18T11:17:16Z</time></trkpt><trkpt lat="47.94232099505607" lon="11.75413934193697"><ele>630.0</ele><time>2026-04-18T11:17:17Z</time></trkpt><trkpt lat="47.94246843253064" lon="11.754070583721369"><ele>631.6666666666666</ele><time>2026-04-18T11:17:18Z</time></trkpt><trkpt lat="47.94262355545197" lon="11.753982197984712"><ele>633.3333333333333</ele><time>2026-04-18T11:17:19Z</time></trkpt><trkpt lat="47.94278950036287" lon="11.753891772569744"><ele>635.0</ele><time>2026-04-18T11:17:20Z</time></trkpt><trkpt lat="47.942960754476644" lon="11.753810376787918"><ele>635.0</ele><time>2026-04-18T11:17:21Z</time></trkpt><trkpt lat="47.94314211983935" lon="11.753727045819812"><ele>635.0</ele><time>2026-04-18T11:17:22Z</time></trkpt><trkpt lat="47.94332832995919" lon="11.753636107104375"><ele>635.0</ele><time>2026-04-18T11:17:23Z</time></trkpt><trkpt lat="47.94350965819336" lon="11.75354954359422"><ele>633.6666666666666</ele><time>2026-04-18T11:17:24Z</time></trkpt><trkpt lat="47.94368233375936" lon="11.753467525081774"><ele>632.3333333333334</ele><time>2026-04-18T11:17:25Z</time></trkpt><trkpt lat="47.943839364573606" lon="11.753386834174538"><ele>631.0</ele><time>2026-04-18T11:17:26Z</time></trkpt><trkpt lat="47.94400007214595" lon="11.753291569562471"><ele>631.0</ele><time>2026-04-18T11:17:27Z</time></trkpt><trkpt lat="47.94416695805349" lon="11.753195671440023"><ele>631.0</ele><time>2026-04-18T11:17:28Z</time></trkpt><trkpt lat="47.944331850793596" lon="11.753111933836378"><ele>631.0</ele><time>2026-04-18T11:17:29Z</time></trkpt><trkpt lat="47.94449590669496" lon="11.753018608245535"><ele>633.0</ele><time>2026-04-18T11:17:30Z</time></trkpt><trkpt lat="47.944658244065934" lon="11.75292669354976"><ele>635.0</ele><time>2026-04-18T11:17:31Z</time></trkpt><trkpt lat="47.94481753437984" lon="11.752848650657603"><ele>637.0</ele><time>2026-04-18T11:17:32Z</time></trkpt><trkpt lat="47.94497617763813" lon="11.75276024967796"><ele>634.0</ele><time>2026-04-18T11:17:33Z</time></trkpt><trkpt lat="47.945133454246935" lon="11.752680601211356"><ele>631.0</ele><time>2026-04-18T11:17:34Z</time></trkpt><trkpt lat="47.94529461337208" lon="11.752597818878964"><ele>628.0</ele><time>2026-04-18T11:17:35Z</time></trkpt><trkpt lat="47.94545911920765" lon="11.752505867372012"><ele>628.0</ele><time>2026-04-18T11:17:36Z</time></trkpt><trkpt lat="47.94562373622222" lon="11.752424713593397"><ele>628.0</ele><time>2026-04-18T11:17:37Z</time></trkpt><trkpt lat="47.94578030057099" lon="11.752347705772303"><ele>628.0</ele><time>2026-04-18T11:17:38Z</time></trkpt><trkpt lat="47.94594172660413" lon="11.752264066319883"><ele>628.6666666666667</ele><time>2026-04-18T11:17:39Z</time></trkpt><trkpt lat="47.94610314966172" lon="11.752178206549152"><ele>629.3333333333334</ele><time>2026-04-18T11:17:40Z</time></trkpt><trkpt lat="47.946268624621275" lon="11.752096731940645"><ele>630.0</ele><time>2026-04-18T11:17:41Z</time></trkpt><trkpt lat="47.946428698016" lon="11.752007908601689"><ele>630.0</ele><time>2026-04-18T11:17:42Z</time></trkpt><trkpt lat="47.946585308340566" lon="11.751918356638157"><ele>630.0</ele><time>2026-04-18T11:17:43Z</time></trkpt><trkpt lat="47.94674862101114" lon="11.751857652233358"><ele>630.0</ele><time>2026-04-18T11:17:44Z</time></trkpt><trkpt lat="47.9469119167442" lon="11.751772972413802"><ele>630.6666666666666</ele><time>2026-04-18T11:17:45Z</time></trkpt><trkpt lat="47.947075880802366" lon="11.751687945969252"><ele>631.3333333333333</ele><time>2026-04-18T11:17:46Z</time></trkpt><trkpt lat="47.947238540928375" lon="11.75160338887985"><ele>632.0</ele><time>2026-04-18T11:17:47Z</time></trkpt><trkpt lat="47.94739756326434" lon="11.751520518670445"><ele>632.0</ele><time>2026-04-18T11:17:48Z</time></trkpt><trkpt lat="47.94755810239287" lon="11.751437229799443"><ele>632.0</ele><time>2026-04-18T11:17:49Z</time></trkpt><trkpt lat="47.94772174847643" lon="11.751352747881223"><ele>632.0</ele><time>2026-04-18T11:17:50Z</time></trkpt><trkpt lat="47.947884824261656" lon="11.75126856039908"><ele>632.0</ele><time>2026-04-18T11:17:51Z</time></trkpt><trkpt lat="47.94805307164347" lon="11.751181703087482"><ele>632.0</ele><time>2026-04-18T11:17:52Z</time></trkpt><trkpt lat="47.948232493732924" lon="11.751089076847162"><ele>632.0</ele><time>2026-04-18T11:17:53Z</time></trkpt><trkpt lat="47.94841912844187" lon="11.750992727100195"><ele>629.6666666666666</ele><time>2026-04-18T11:17:54Z</time></trkpt><trkpt lat="47.948608150119234" lon="11.75089514727219"><ele>627.3333333333334</ele><time>2026-04-18T11:17:55Z</time></trkpt><trkpt lat="47.948800231737934" lon="11.75079598556911"><ele>625.0</ele><time>2026-04-18T11:17:56Z</time></trkpt><trkpt lat="47.94898454029058" lon="11.750700836481832"><ele>625.0</ele><time>2026-04-18T11:17:57Z</time></trkpt><trkpt lat="47.94914509141438" lon="11.75055609575505"><ele>625.0</ele><time>2026-04-18T11:17:58Z</time></trkpt><trkpt lat="47.94931102787735" lon="11.750468554519452"><ele>625.0</ele><time>2026-04-18T11:17:59Z</time></trkpt><trkpt lat="47.94947649585216" lon="11.750382712538093"><ele>625.75</ele><time>2026-04-18T11:18:00Z</time></trkpt><trkpt lat="47.94961717719464" lon="11.75030748930256"><ele>626.5</ele><time>2026-04-18T11:18:01Z</time></trkpt><trkpt lat="47.949765855363665" lon="11.750294284552412"><ele>627.25</ele><time>2026-04-18T11:18:02Z</time></trkpt><trkpt lat="47.949906542870934" lon="11.750220015345523"><ele>628.0</ele><time>2026-04-18T11:18:03Z</time></trkpt><trkpt lat="47.95005916116175" lon="11.75013944785882"><ele>628.0</ele><time>2026-04-18T11:18:04Z</time></trkpt><trkpt lat="47.9502168704879" lon="11.750056192799853"><ele>628.0</ele><time>2026-04-18T11:18:05Z</time></trkpt><trkpt lat="47.95037712623266" lon="11.749971593484869"><ele>628.0</ele><time>2026-04-18T11:18:06Z</time></trkpt><trkpt lat="47.95054196542068" lon="11.749885160684363"><ele>628.0</ele><time>2026-04-18T11:18:07Z</time></trkpt><trkpt lat="47.95069975114673" lon="11.749802799195795"><ele>628.0</ele><time>2026-04-18T11:18:08Z</time></trkpt><trkpt lat="47.95085092466381" lon="11.749723889188378"><ele>628.0</ele><time>2026-04-18T11:18:09Z</time></trkpt><trkpt lat="47.95100345368068" lon="11.749643616978686"><ele>628.0</ele><time>2026-04-18T11:18:10Z</time></trkpt><trkpt lat="47.95115303927982" lon="11.749561759504353"><ele>628.0</ele><time>2026-04-18T11:18:11Z</time></trkpt><trkpt lat="47.95130417651199" lon="11.749479052910845"><ele>628.0</ele><time>2026-04-18T11:18:12Z</time></trkpt><trkpt lat="47.951459680690206" lon="11.74936913188348"><ele>628.0</ele><time>2026-04-18T11:18:13Z</time></trkpt><trkpt lat="47.95162889892415" lon="11.749297679004133"><ele>628.0</ele><time>2026-04-18T11:18:14Z</time></trkpt><trkpt lat="47.95178832725055" lon="11.749198784038422"><ele>628.0</ele><time>2026-04-18T11:18:15Z</time></trkpt><trkpt lat="47.95193843415543" lon="11.749068288025219"><ele>628.3333333333334</ele><time>2026-04-18T11:18:16Z</time></trkpt><trkpt lat="47.9520984285104" lon="11.748950126259661"><ele>628.6666666666666</ele><time>2026-04-18T11:18:17Z</time></trkpt><trkpt lat="47.952257536545844" lon="11.74881213101787"><ele>629.0</ele><time>2026-04-18T11:18:18Z</time></trkpt><trkpt lat="47.95241093533749" lon="11.74866906488721"><ele>630.3333333333333</ele><time>2026-04-18T11:18:19Z</time></trkpt><trkpt lat="47.95255613142021" lon="11.748527712114525"><ele>631.6666666666666</ele><time>2026-04-18T11:18:20Z</time></trkpt><trkpt lat="47.95269492500893" lon="11.74839444761804"><ele>633.0</ele><time>2026-04-18T11:18:21Z</time></trkpt><trkpt lat="47.9528287703031" lon="11.74825594943229"><ele>633.0</ele><time>2026-04-18T11:18:22Z</time></trkpt><trkpt lat="47.95295700820218" lon="11.748118761465953"><ele>633.0</ele><time>2026-04-18T11:18:23Z</time></trkpt><trkpt lat="47.95308393353054" lon="11.747986180270562"><ele>633.0</ele><time>2026-04-18T11:18:24Z</time></trkpt><trkpt lat="47.95320905350552" lon="11.747841605821122"><ele>631.3333333333334</ele><time>2026-04-18T11:18:25Z</time></trkpt><trkpt lat="47.95333432772781" lon="11.74770190980883"><ele>629.6666666666667</ele><time>2026-04-18T11:18:26Z</time></trkpt><trkpt lat="47.953469070051725" lon="11.747556851935515"><ele>628.0</ele><time>2026-04-18T11:18:27Z</time></trkpt><trkpt lat="47.953594400588095" lon="11.747408756161155"><ele>626.3333333333334</ele><time>2026-04-18T11:18:28Z</time></trkpt><trkpt lat="47.95371922564624" lon="11.74726545531672"><ele>624.6666666666666</ele><time>2026-04-18T11:18:29Z</time></trkpt><trkpt lat="47.9538557970669" lon="11.747128495216861"><ele>623.0</ele><time>2026-04-18T11:18:30Z</time></trkpt><trkpt lat="47.95398271229242" lon="11.746976585612247"><ele>624.3333333333333</ele><time>2026-04-18T11:18:31Z</time></trkpt><trkpt lat="47.95410741242774" lon="11.746827888282432"><ele>625.6666666666666</ele><time>2026-04-18T11:18:32Z</time></trkpt><trkpt lat="47.954243933033425" lon="11.746698473233902"><ele>627.0</ele><time>2026-04-18T11:18:33Z</time></trkpt><trkpt lat="47.9543750953496" lon="11.746551019917007"><ele>629.0</ele><time>2026-04-18T11:18:34Z</time></trkpt><trkpt lat="47.954506411496176" lon="11.746405031564558"><ele>631.0</ele><time>2026-04-18T11:18:35Z</time></trkpt><trkpt lat="47.954637946437984" lon="11.746259085885889"><ele>633.0</ele><time>2026-04-18T11:18:36Z</time></trkpt><trkpt lat="47.95476676534806" lon="11.74611615380925"><ele>633.0</ele><time>2026-04-18T11:18:37Z</time></trkpt><trkpt lat="47.95489710425634" lon="11.7459715352087"><ele>633.0</ele><time>2026-04-18T11:18:38Z</time></trkpt><trkpt lat="47.955028504518125" lon="11.745825671194998"><ele>633.0</ele><time>2026-04-18T11:18:39Z</time></trkpt><trkpt lat="47.955160028439565" lon="11.745678959008146"><ele>632.6666666666666</ele><time>2026-04-18T11:18:40Z</time></trkpt><trkpt lat="47.95528825144918" lon="11.745535928936434"><ele>632.3333333333333</ele><time>2026-04-18T11:18:41Z</time></trkpt><trkpt lat="47.95542353767564" lon="11.745385019945628"><ele>632.0</ele><time>2026-04-18T11:18:42Z</time></trkpt><trkpt lat="47.95556308968694" lon="11.745229466046693"><ele>631.0</ele><time>2026-04-18T11:18:43Z</time></trkpt><trkpt lat="47.95569900446052" lon="11.745078766658946"><ele>630.0</ele><time>2026-04-18T11:18:44Z</time></trkpt><trkpt lat="47.95582754677081" lon="11.744936336924635"><ele>629.0</ele><time>2026-04-18T11:18:45Z</time></trkpt><trkpt lat="47.95595611289395" lon="11.744793480771417"><ele>629.6666666666666</ele><time>2026-04-18T11:18:46Z</time></trkpt><trkpt lat="47.95608801304187" lon="11.744646920000948"><ele>630.3333333333334</ele><time>2026-04-18T11:18:47Z</time></trkpt><trkpt lat="47.9562119037252" lon="11.744509258998283"><ele>631.0</ele><time>2026-04-18T11:18:48Z</time></trkpt><trkpt lat="47.95632992702956" lon="11.744377716391607"><ele>631.0</ele><time>2026-04-18T11:18:49Z</time></trkpt><trkpt lat="47.95645203181557" lon="11.744239984195776"><ele>631.0</ele><time>2026-04-18T11:18:50Z</time></trkpt><trkpt lat="47.956586712817476" lon="11.744088066252989"><ele>631.0</ele><time>2026-04-18T11:18:51Z</time></trkpt><trkpt lat="47.956715402694996" lon="11.743942906221008"><ele>630.3333333333334</ele><time>2026-04-18T11:18:52Z</time></trkpt><trkpt lat="47.9568527979646" lon="11.743787926676221"><ele>629.6666666666666</ele><time>2026-04-18T11:18:53Z</time></trkpt><trkpt lat="47.95698586507035" lon="11.743638919222846"><ele>629.0</ele><time>2026-04-18T11:18:54Z</time></trkpt><trkpt lat="47.95711925841325" lon="11.74349107491784"><ele>629.0</ele><time>2026-04-18T11:18:55Z</time></trkpt><trkpt lat="47.9572576340649" lon="11.74333770858461"><ele>629.0</ele><time>2026-04-18T11:18:56Z</time></trkpt><trkpt lat="47.95739761128983" lon="11.743181738061"><ele>629.0</ele><time>2026-04-18T11:18:57Z</time></trkpt><trkpt lat="47.95753316643656" lon="11.743028305685584"><ele>629.3333333333333</ele><time>2026-04-18T11:18:58Z</time></trkpt><trkpt lat="47.95766515748846" lon="11.742878907470232"><ele>629.6666666666666</ele><time>2026-04-18T11:18:59Z</time></trkpt><trkpt lat="47.95779599051487" lon="11.742730657938845"><ele>630.0</ele><time>2026-04-18T11:19:00Z</time></trkpt><trkpt lat="47.9579276503814" lon="11.742581427239834"><ele>630.0</ele><time>2026-04-18T11:19:01Z</time></trkpt><trkpt lat="47.958054812136645" lon="11.742437294969074"><ele>630.0</ele><time>2026-04-18T11:19:02Z</time></trkpt><trkpt lat="47.958189826849384" lon="11.742286634006591"><ele>630.0</ele><time>2026-04-18T11:19:03Z</time></trkpt><trkpt lat="47.95832326098659" lon="11.742138101886697"><ele>631.6666666666666</ele><time>2026-04-18T11:19:04Z</time></trkpt><trkpt lat="47.958454990855685" lon="11.741991465015344"><ele>633.3333333333333</ele><time>2026-04-18T11:19:05Z</time></trkpt><trkpt lat="47.95858831642873" lon="11.74184060794444"><ele>635.0</ele><time>2026-04-18T11:19:06Z</time></trkpt><trkpt lat="47.958715529110776" lon="11.741696626179806"><ele>635.0</ele><time>2026-04-18T11:19:07Z</time></trkpt><trkpt lat="47.95885004843103" lon="11.741544374630225"><ele>635.0</ele><time>2026-04-18T11:19:08Z</time></trkpt><trkpt lat="47.95898186195961" lon="11.741396436108703"><ele>635.0</ele><time>2026-04-18T11:19:09Z</time></trkpt><trkpt lat="47.95911638372291" lon="11.741246411727092"><ele>635.6666666666666</ele><time>2026-04-18T11:19:10Z</time></trkpt><trkpt lat="47.95925319603419" lon="11.741093832827207"><ele>636.3333333333334</ele><time>2026-04-18T11:19:11Z</time></trkpt><trkpt lat="47.95938699315612" lon="11.740944574792392"><ele>637.0</ele><time>2026-04-18T11:19:12Z</time></trkpt><trkpt lat="47.95951898652672" lon="11.740797254321434"><ele>637.0</ele><time>2026-04-18T11:19:13Z</time></trkpt><trkpt lat="47.95965181033091" lon="11.74064900699779"><ele>637.0</ele><time>2026-04-18T11:19:14Z</time></trkpt><trkpt lat="47.95978585716958" lon="11.740499394617453"><ele>637.0</ele><time>2026-04-18T11:19:15Z</time></trkpt><trkpt lat="47.95991502138209" lon="11.740355231824331"><ele>633.3333333333334</ele><time>2026-04-18T11:19:16Z</time></trkpt><trkpt lat="47.96004473171392" lon="11.740210459505892"><ele>629.6666666666666</ele><time>2026-04-18T11:19:17Z</time></trkpt><trkpt lat="47.9601775645155" lon="11.740062202124877"><ele>626.0</ele><time>2026-04-18T11:19:18Z</time></trkpt><trkpt lat="47.96030772283776" lon="11.739915680414258"><ele>626.0</ele><time>2026-04-18T11:19:19Z</time></trkpt><trkpt lat="47.96044259676084" lon="11.739762297515275"><ele>626.0</ele><time>2026-04-18T11:19:20Z</time></trkpt><trkpt lat="47.9605699350402" lon="11.739616461035428"><ele>626.0</ele><time>2026-04-18T11:19:21Z</time></trkpt><trkpt lat="47.960702099900395" lon="11.739465920523513"><ele>627.3333333333333</ele><time>2026-04-18T11:19:22Z</time></trkpt><trkpt lat="47.96083731177871" lon="11.739311954859312"><ele>628.6666666666666</ele><time>2026-04-18T11:19:23Z</time></trkpt><trkpt lat="47.96097286826453" lon="11.739159397236469"><ele>630.0</ele><time>2026-04-18T11:19:24Z</time></trkpt><trkpt lat="47.96110800473219" lon="11.739007312312257"><ele>629.3333333333334</ele><time>2026-04-18T11:19:25Z</time></trkpt><trkpt lat="47.96124368445907" lon="11.738854615999454"><ele>628.6666666666667</ele><time>2026-04-18T11:19:26Z</time></trkpt><trkpt lat="47.961380044342654" lon="11.738701154218043"><ele>628.0</ele><time>2026-04-18T11:19:27Z</time></trkpt><trkpt lat="47.96152032754053" lon="11.738543277083439"><ele>628.0</ele><time>2026-04-18T11:19:28Z</time></trkpt><trkpt lat="47.96165472800319" lon="11.738395984014643"><ele>628.0</ele><time>2026-04-18T11:19:29Z</time></trkpt><trkpt lat="47.9617903654704" lon="11.738247237710452"><ele>628.0</ele><time>2026-04-18T11:19:30Z</time></trkpt><trkpt lat="47.961923407720235" lon="11.738101337446802"><ele>628.3333333333334</ele><time>2026-04-18T11:19:31Z</time></trkpt><trkpt lat="47.962056470402736" lon="11.737955414768"><ele>628.6666666666666</ele><time>2026-04-18T11:19:32Z</time></trkpt><trkpt lat="47.96219222857137" lon="11.737805416660459"><ele>629.0</ele><time>2026-04-18T11:19:33Z</time></trkpt><trkpt lat="47.96232572153902" lon="11.737656265079062"><ele>629.0</ele><time>2026-04-18T11:19:34Z</time></trkpt><trkpt lat="47.96246154112979" lon="11.737503840459405"><ele>629.0</ele><time>2026-04-18T11:19:35Z</time></trkpt><trkpt lat="47.962597770767694" lon="11.737350721221002"><ele>629.0</ele><time>2026-04-18T11:19:36Z</time></trkpt><trkpt lat="47.962733378747" lon="11.737197030008911"><ele>628.3333333333333</ele><time>2026-04-18T11:19:37Z</time></trkpt><trkpt lat="47.9628687956797" lon="11.737043555325348"><ele>627.6666666666666</ele><time>2026-04-18T11:19:38Z</time></trkpt><trkpt lat="47.96300573143761" lon="11.736888403709742"><ele>627.0</ele><time>2026-04-18T11:19:39Z</time></trkpt><trkpt lat="47.96314222443211" lon="11.736735061899388"><ele>627.0</ele><time>2026-04-18T11:19:40Z</time></trkpt><trkpt lat="47.963282029513266" lon="11.736577999536898"><ele>627.0</ele><time>2026-04-18T11:19:41Z</time></trkpt><trkpt lat="47.9634164624264" lon="11.736426974670382"><ele>627.0</ele><time>2026-04-18T11:19:42Z</time></trkpt><trkpt lat="47.96355143557348" lon="11.736275340671506"><ele>626.6666666666666</ele><time>2026-04-18T11:19:43Z</time></trkpt><trkpt lat="47.963685187273406" lon="11.736125078892861"><ele>626.3333333333333</ele><time>2026-04-18T11:19:44Z</time></trkpt><trkpt lat="47.963819236823255" lon="11.735974482496365"><ele>626.0</ele><time>2026-04-18T11:19:45Z</time></trkpt><trkpt lat="47.96395099836896" lon="11.735826456531957"><ele>627.0</ele><time>2026-04-18T11:19:46Z</time></trkpt><trkpt lat="47.96408226904095" lon="11.735678997578788"><ele>628.0</ele><time>2026-04-18T11:19:47Z</time></trkpt><trkpt lat="47.9642158094495" lon="11.735528998943675"><ele>629.0</ele><time>2026-04-18T11:19:48Z</time></trkpt><trkpt lat="47.964349796695224" lon="11.735378498401591"><ele>629.0</ele><time>2026-04-18T11:19:49Z</time></trkpt><trkpt lat="47.96448064145605" lon="11.735230567342043"><ele>629.0</ele><time>2026-04-18T11:19:50Z</time></trkpt><trkpt lat="47.96460939056501" lon="11.735085592867707"><ele>629.0</ele><time>2026-04-18T11:19:51Z</time></trkpt><trkpt lat="47.96474029094274" lon="11.734937884307223"><ele>629.3333333333333</ele><time>2026-04-18T11:19:52Z</time></trkpt><trkpt lat="47.9648728560252" lon="11.734789026524599"><ele>629.6666666666666</ele><time>2026-04-18T11:19:53Z</time></trkpt><trkpt lat="47.965001783153255" lon="11.734644253816027"><ele>630.0</ele><time>2026-04-18T11:19:54Z</time></trkpt><trkpt lat="47.965133612180324" lon="11.73449622255151"><ele>628.6666666666666</ele><time>2026-04-18T11:19:55Z</time></trkpt><trkpt lat="47.96526366688033" lon="11.734350183684585"><ele>627.3333333333333</ele><time>2026-04-18T11:19:56Z</time></trkpt><trkpt lat="47.96539543656039" lon="11.734202160522091"><ele>626.0</ele><time>2026-04-18T11:19:57Z</time></trkpt><trkpt lat="47.96552732110962" lon="11.734053813069378"><ele>626.0</ele><time>2026-04-18T11:19:58Z</time></trkpt><trkpt lat="47.96566115130771" lon="11.7339032770945"><ele>626.0</ele><time>2026-04-18T11:19:59Z</time></trkpt><trkpt lat="47.96578723893483" lon="11.733761450187114"><ele>626.0</ele><time>2026-04-18T11:20:00Z</time></trkpt><trkpt lat="47.96591227331391" lon="11.733620807998168"><ele>627.0</ele><time>2026-04-18T11:20:01Z</time></trkpt><trkpt lat="47.96604154015124" lon="11.73347540501988"><ele>628.0</ele><time>2026-04-18T11:20:02Z</time></trkpt><trkpt lat="47.96616912213406" lon="11.733332262029855"><ele>629.0</ele><time>2026-04-18T11:20:03Z</time></trkpt><trkpt lat="47.96629292204472" lon="11.733193597187846"><ele>629.0</ele><time>2026-04-18T11:20:04Z</time></trkpt><trkpt lat="47.96641734419106" lon="11.733054235399313"><ele>629.0</ele><time>2026-04-18T11:20:05Z</time></trkpt><trkpt lat="47.96654966605875" lon="11.73290602534757"><ele>629.0</ele><time>2026-04-18T11:20:06Z</time></trkpt><trkpt lat="47.96667619196568" lon="11.732764307191209"><ele>628.3333333333333</ele><time>2026-04-18T11:20:07Z</time></trkpt><trkpt lat="47.96681218190769" lon="11.732612286324013"><ele>627.6666666666666</ele><time>2026-04-18T11:20:08Z</time></trkpt><trkpt lat="47.96694817283717" lon="11.732460700104628"><ele>627.0</ele><time>2026-04-18T11:20:09Z</time></trkpt><trkpt lat="47.96708562582652" lon="11.732307484160739"><ele>627.0</ele><time>2026-04-18T11:20:10Z</time></trkpt><trkpt lat="47.96722366080007" lon="11.732153619486596"><ele>627.0</ele><time>2026-04-18T11:20:11Z</time></trkpt><trkpt lat="47.967361210453454" lon="11.732000295788858"><ele>627.0</ele><time>2026-04-18T11:20:12Z</time></trkpt><trkpt lat="47.967501002738445" lon="11.731844472284989"><ele>625.0</ele><time>2026-04-18T11:20:13Z</time></trkpt><trkpt lat="47.96763566388351" lon="11.73169436835284"><ele>623.0</ele><time>2026-04-18T11:20:14Z</time></trkpt><trkpt lat="47.967778015209284" lon="11.731535692335145"><ele>621.0</ele><time>2026-04-18T11:20:15Z</time></trkpt><trkpt lat="47.96791698785403" lon="11.731380530103504"><ele>621.0</ele><time>2026-04-18T11:20:16Z</time></trkpt><trkpt lat="47.968055747333" lon="11.731225131370312"><ele>621.0</ele><time>2026-04-18T11:20:17Z</time></trkpt><trkpt lat="47.968190170785086" lon="11.731073757734634"><ele>621.0</ele><time>2026-04-18T11:20:18Z</time></trkpt><trkpt lat="47.9683212795381" lon="11.730925684434114"><ele>618.3333333333334</ele><time>2026-04-18T11:20:19Z</time></trkpt><trkpt lat="47.96845288082634" lon="11.73077718718561"><ele>615.6666666666667</ele><time>2026-04-18T11:20:20Z</time></trkpt><trkpt lat="47.96858658477049" lon="11.730627653985845"><ele>613.0</ele><time>2026-04-18T11:20:21Z</time></trkpt><trkpt lat="47.96872048651188" lon="11.730477899576071"><ele>613.0</ele><time>2026-04-18T11:20:22Z</time></trkpt><trkpt lat="47.96885734588395" lon="11.730324837403213"><ele>613.0</ele><time>2026-04-18T11:20:23Z</time></trkpt><trkpt lat="47.9689968934908" lon="11.730168788833732"><ele>613.0</ele><time>2026-04-18T11:20:24Z</time></trkpt><trkpt lat="47.969137468571006" lon="11.730012962655568"><ele>614.3333333333334</ele><time>2026-04-18T11:20:25Z</time></trkpt><trkpt lat="47.96927722956201" lon="11.729858038919582"><ele>615.6666666666666</ele><time>2026-04-18T11:20:26Z</time></trkpt><trkpt lat="47.96941159779692" lon="11.729709093031868"><ele>617.0</ele><time>2026-04-18T11:20:27Z</time></trkpt><trkpt lat="47.96955323599276" lon="11.729551556008126"><ele>616.3333333333333</ele><time>2026-04-18T11:20:28Z</time></trkpt><trkpt lat="47.96970541079349" lon="11.729381727094923"><ele>615.6666666666666</ele><time>2026-04-18T11:20:29Z</time></trkpt><trkpt lat="47.96985563669105" lon="11.72921407313992"><ele>615.0</ele><time>2026-04-18T11:20:30Z</time></trkpt><trkpt lat="47.969999080061164" lon="11.729053988608072"><ele>615.6666666666666</ele><time>2026-04-18T11:20:31Z</time></trkpt><trkpt lat="47.97013462426115" lon="11.728901060283448"><ele>616.3333333333333</ele><time>2026-04-18T11:20:32Z</time></trkpt><trkpt lat="47.97026496375884" lon="11.72875330864966"><ele>617.0</ele><time>2026-04-18T11:20:33Z</time></trkpt><trkpt lat="47.97039752174839" lon="11.728603042165004"><ele>616.6666666666666</ele><time>2026-04-18T11:20:34Z</time></trkpt><trkpt lat="47.97052743666577" lon="11.728455771830847"><ele>616.3333333333334</ele><time>2026-04-18T11:20:35Z</time></trkpt><trkpt lat="47.97065532986497" lon="11.72831226996158"><ele>616.0</ele><time>2026-04-18T11:20:36Z</time></trkpt><trkpt lat="47.97078344963227" lon="11.728169702543076"><ele>615.3333333333334</ele><time>2026-04-18T11:20:37Z</time></trkpt><trkpt lat="47.97090635531926" lon="11.728032937157524"><ele>614.6666666666666</ele><time>2026-04-18T11:20:38Z</time></trkpt><trkpt lat="47.971030270969656" lon="11.727895047952215"><ele>614.0</ele><time>2026-04-18T11:20:39Z</time></trkpt><trkpt lat="47.97115371258301" lon="11.727757683120824"><ele>614.0</ele><time>2026-04-18T11:20:40Z</time></trkpt><trkpt lat="47.971284925832194" lon="11.727610388700542"><ele>614.0</ele><time>2026-04-18T11:20:41Z</time></trkpt><trkpt lat="47.97141429118172" lon="11.727463941855092"><ele>614.0</ele><time>2026-04-18T11:20:42Z</time></trkpt><trkpt lat="47.971543415259106" lon="11.727317768143239"><ele>614.0</ele><time>2026-04-18T11:20:43Z</time></trkpt><trkpt lat="47.97167409520511" lon="11.727169833128757"><ele>614.0</ele><time>2026-04-18T11:20:44Z</time></trkpt><trkpt lat="47.971804112992814" lon="11.727024080024343"><ele>614.0</ele><time>2026-04-18T11:20:45Z</time></trkpt><trkpt lat="47.97193820881911" lon="11.726876619816863"><ele>614.3333333333333</ele><time>2026-04-18T11:20:46Z</time></trkpt><trkpt lat="47.97207247264541" lon="11.726728974968449"><ele>614.6666666666666</ele><time>2026-04-18T11:20:47Z</time></trkpt><trkpt lat="47.97220317451826" lon="11.726585247030426"><ele>615.0</ele><time>2026-04-18T11:20:48Z</time></trkpt><trkpt lat="47.972338207305995" lon="11.726433287147543"><ele>615.0</ele><time>2026-04-18T11:20:49Z</time></trkpt><trkpt lat="47.97246973594019" lon="11.726282532424063"><ele>615.0</ele><time>2026-04-18T11:20:50Z</time></trkpt><trkpt lat="47.972602344578235" lon="11.726130539816342"><ele>615.0</ele><time>2026-04-18T11:20:51Z</time></trkpt><trkpt lat="47.97273806041977" lon="11.725979377901336"><ele>615.3333333333334</ele><time>2026-04-18T11:20:52Z</time></trkpt><trkpt lat="47.97287240722893" lon="11.725829653396394"><ele>615.6666666666667</ele><time>2026-04-18T11:20:53Z</time></trkpt><trkpt lat="47.97300345939555" lon="11.725683600643757"><ele>616.0</ele><time>2026-04-18T11:20:54Z</time></trkpt><trkpt lat="47.97313400237986" lon="11.72553811729154"><ele>616.0</ele><time>2026-04-18T11:20:55Z</time></trkpt><trkpt lat="47.973262739280244" lon="11.725394645038918"><ele>616.0</ele><time>2026-04-18T11:20:56Z</time></trkpt><trkpt lat="47.97339526880776" lon="11.725246539004232"><ele>616.0</ele><time>2026-04-18T11:20:57Z</time></trkpt><trkpt lat="47.973522485419856" lon="11.725103786735964"><ele>616.6666666666667</ele><time>2026-04-18T11:20:58Z</time></trkpt><trkpt lat="47.97365225257077" lon="11.724958172935947"><ele>617.3333333333334</ele><time>2026-04-18T11:20:59Z</time></trkpt><trkpt lat="47.97378508758564" lon="11.724809116583305"><ele>618.0</ele><time>2026-04-18T11:21:00Z</time></trkpt><trkpt lat="47.97392005033056" lon="11.72465767272411"><ele>618.0</ele><time>2026-04-18T11:21:01Z</time></trkpt><trkpt lat="47.97405514069151" lon="11.724506085686158"><ele>618.0</ele><time>2026-04-18T11:21:02Z</time></trkpt><trkpt lat="47.97418800275003" lon="11.724357316271833"><ele>618.0</ele><time>2026-04-18T11:21:03Z</time></trkpt><trkpt lat="47.97432262284432" lon="11.724206722714383"><ele>619.6666666666666</ele><time>2026-04-18T11:21:04Z</time></trkpt><trkpt lat="47.97445851058228" lon="11.724054711070444"><ele>621.3333333333333</ele><time>2026-04-18T11:21:05Z</time></trkpt><trkpt lat="47.97459424905333" lon="11.723902288707105"><ele>623.0</ele><time>2026-04-18T11:21:06Z</time></trkpt><trkpt lat="47.97472805404434" lon="11.723751538387017"><ele>623.0</ele><time>2026-04-18T11:21:07Z</time></trkpt><trkpt lat="47.97486086695096" lon="11.723601905711025"><ele>623.0</ele><time>2026-04-18T11:21:08Z</time></trkpt><trkpt lat="47.97499238845951" lon="11.723453791116714"><ele>623.0</ele><time>2026-04-18T11:21:09Z</time></trkpt><trkpt lat="47.97512611471887" lon="11.723304494390005"><ele>622.6666666666666</ele><time>2026-04-18T11:21:10Z</time></trkpt><trkpt lat="47.97526294981867" lon="11.723151821610928"><ele>622.3333333333334</ele><time>2026-04-18T11:21:11Z</time></trkpt><trkpt lat="47.9753964610742" lon="11.723003090306678"><ele>622.0</ele><time>2026-04-18T11:21:12Z</time></trkpt><trkpt lat="47.97553077236512" lon="11.722853467830586"><ele>621.6666666666667</ele><time>2026-04-18T11:21:13Z</time></trkpt><trkpt lat="47.97566183170223" lon="11.722707467964636"><ele>621.3333333333334</ele><time>2026-04-18T11:21:14Z</time></trkpt><trkpt lat="47.9757963367813" lon="11.722557629615393"><ele>621.0</ele><time>2026-04-18T11:21:15Z</time></trkpt><trkpt lat="47.97593017066325" lon="11.722408526048566"><ele>620.3333333333334</ele><time>2026-04-18T11:21:16Z</time></trkpt><trkpt lat="47.9760621496273" lon="11.722261420629211"><ele>619.6666666666667</ele><time>2026-04-18T11:21:17Z</time></trkpt><trkpt lat="47.976195882278866" lon="11.722112360596345"><ele>619.0</ele><time>2026-04-18T11:21:18Z</time></trkpt><trkpt lat="47.97632641163956" lon="11.721966870964456"><ele>618.6666666666667</ele><time>2026-04-18T11:21:19Z</time></trkpt><trkpt lat="47.976458651764645" lon="11.72181947451038"><ele>618.3333333333334</ele><time>2026-04-18T11:21:20Z</time></trkpt><trkpt lat="47.976588279454596" lon="11.721674990194385"><ele>618.0</ele><time>2026-04-18T11:21:21Z</time></trkpt><trkpt lat="47.976718316870745" lon="11.721527468580135"><ele>618.0</ele><time>2026-04-18T11:21:22Z</time></trkpt><trkpt lat="47.97684652000036" lon="11.721381822497865"><ele>618.0</ele><time>2026-04-18T11:21:23Z</time></trkpt><trkpt lat="47.97697987446236" lon="11.721229513420427"><ele>618.0</ele><time>2026-04-18T11:21:24Z</time></trkpt><trkpt lat="47.977119586875936" lon="11.721067424019505"><ele>619.3333333333334</ele><time>2026-04-18T11:21:25Z</time></trkpt><trkpt lat="47.977250138256004" lon="11.720915926607935"><ele>620.6666666666667</ele><time>2026-04-18T11:21:26Z</time></trkpt><trkpt lat="47.977386716202965" lon="11.720761562171996"><ele>622.0</ele><time>2026-04-18T11:21:27Z</time></trkpt><trkpt lat="47.97752672493335" lon="11.720603318034973"><ele>622.3333333333334</ele><time>2026-04-18T11:21:28Z</time></trkpt><trkpt lat="47.97766572099758" lon="11.720445396343342"><ele>622.6666666666666</ele><time>2026-04-18T11:21:29Z</time></trkpt><trkpt lat="47.977800504358925" lon="11.720293679748112"><ele>623.0</ele><time>2026-04-18T11:21:30Z</time></trkpt><trkpt lat="47.97795451833979" lon="11.720122309908891"><ele>623.0</ele><time>2026-04-18T11:21:31Z</time></trkpt><trkpt lat="47.97811380792156" lon="11.719940107523051"><ele>623.0</ele><time>2026-04-18T11:21:32Z</time></trkpt><trkpt lat="47.97826685517352" lon="11.719769478406194"><ele>623.0</ele><time>2026-04-18T11:21:33Z</time></trkpt><trkpt lat="47.978418678964786" lon="11.719599454220045"><ele>621.3333333333333</ele><time>2026-04-18T11:21:34Z</time></trkpt><trkpt lat="47.97856205768078" lon="11.719438026583893"><ele>619.6666666666666</ele><time>2026-04-18T11:21:35Z</time></trkpt><trkpt lat="47.97870391435178" lon="11.719281586065156"><ele>618.0</ele><time>2026-04-18T11:21:36Z</time></trkpt><trkpt lat="47.978844387108566" lon="11.719122965548449"><ele>618.3333333333334</ele><time>2026-04-18T11:21:37Z</time></trkpt><trkpt lat="47.97898668802558" lon="11.718968791643103"><ele>618.6666666666667</ele><time>2026-04-18T11:21:38Z</time></trkpt><trkpt lat="47.979132427638326" lon="11.71882234641663"><ele>619.0</ele><time>2026-04-18T11:21:39Z</time></trkpt><trkpt lat="47.9792838779764" lon="11.71867228710136"><ele>617.75</ele><time>2026-04-18T11:21:40Z</time></trkpt><trkpt lat="47.97942160749784" lon="11.718546132419231"><ele>616.5</ele><time>2026-04-18T11:21:41Z</time></trkpt><trkpt lat="47.97955084927682" lon="11.718431469573515"><ele>615.25</ele><time>2026-04-18T11:21:42Z</time></trkpt><trkpt lat="47.97966767888802" lon="11.718327848124696"><ele>614.0</ele><time>2026-04-18T11:21:43Z</time></trkpt><trkpt lat="47.97978164226897" lon="11.718226776491049"><ele>614.0</ele><time>2026-04-18T11:21:44Z</time></trkpt><trkpt lat="47.9798869836825" lon="11.71813407345721"><ele>614.0</ele><time>2026-04-18T11:21:45Z</time></trkpt><trkpt lat="47.97998899992841" lon="11.718046630946358"><ele>614.0</ele><time>2026-04-18T11:21:46Z</time></trkpt><trkpt lat="47.98009367531401" lon="11.717956666811087"><ele>614.0</ele><time>2026-04-18T11:21:47Z</time></trkpt><trkpt lat="47.980191452951544" lon="11.717868563493443"><ele>613.8</ele><time>2026-04-18T11:21:48Z</time></trkpt><trkpt lat="47.98027773308354" lon="11.717765849712384"><ele>613.5999999999999</ele><time>2026-04-18T11:21:49Z</time></trkpt><trkpt lat="47.98037422444827" lon="11.717685321334042"><ele>613.4</ele><time>2026-04-18T11:21:50Z</time></trkpt><trkpt lat="47.98046792532577" lon="11.71760683055758"><ele>613.1999999999999</ele><time>2026-04-18T11:21:51Z</time></trkpt><trkpt lat="47.98055441343191" lon="11.717531520753804"><ele>613.0</ele><time>2026-04-18T11:21:52Z</time></trkpt><trkpt lat="47.98064594235922" lon="11.717452110407567"><ele>612.25</ele><time>2026-04-18T11:21:53Z</time></trkpt><trkpt lat="47.980745503049626" lon="11.717370504082043"><ele>611.5</ele><time>2026-04-18T11:21:54Z</time></trkpt><trkpt lat="47.98085199833235" lon="11.717309540624969"><ele>610.75</ele><time>2026-04-18T11:21:55Z</time></trkpt><trkpt lat="47.98095805868572" lon="11.717230474487863"><ele>610.0</ele><time>2026-04-18T11:21:56Z</time></trkpt><trkpt lat="47.98106266376213" lon="11.71713182108867"><ele>609.5</ele><time>2026-04-18T11:21:57Z</time></trkpt><trkpt lat="47.981165234259045" lon="11.71702527600451"><ele>609.0</ele><time>2026-04-18T11:21:58Z</time></trkpt><trkpt lat="47.98128339819187" lon="11.71697370448597"><ele>608.5</ele><time>2026-04-18T11:21:59Z</time></trkpt><trkpt lat="47.981393649290425" lon="11.716919305806911"><ele>608.0</ele><time>2026-04-18T11:22:00Z</time></trkpt><trkpt lat="47.98151158095103" lon="11.716875476902072"><ele>608.0</ele><time>2026-04-18T11:22:01Z</time></trkpt><trkpt lat="47.98163270526564" lon="11.71683950065397"><ele>608.0</ele><time>2026-04-18T11:22:02Z</time></trkpt><trkpt lat="47.981755465469455" lon="11.716811109717835"><ele>608.0</ele><time>2026-04-18T11:22:03Z</time></trkpt><trkpt lat="47.98186472960302" lon="11.716788811702836"><ele>608.0</ele><time>2026-04-18T11:22:04Z</time></trkpt><trkpt lat="47.9819652456828" lon="11.71674512165318"><ele>608.0</ele><time>2026-04-18T11:22:05Z</time></trkpt><trkpt lat="47.982067582786975" lon="11.716724948428533"><ele>608.0</ele><time>2026-04-18T11:22:06Z</time></trkpt><trkpt lat="47.982172941006105" lon="11.716706310001124"><ele>608.0</ele><time>2026-04-18T11:22:07Z</time></trkpt><trkpt lat="47.98227800681338" lon="11.716688618889238"><ele>608.0</ele><time>2026-04-18T11:22:08Z</time></trkpt><trkpt lat="47.982389212727064" lon="11.716670099781512"><ele>608.0</ele><time>2026-04-18T11:22:09Z</time></trkpt><trkpt lat="47.9824990390773" lon="11.716650846227092"><ele>607.8</ele><time>2026-04-18T11:22:10Z</time></trkpt><trkpt lat="47.98260229142947" lon="11.716627256894851"><ele>607.5999999999999</ele><time>2026-04-18T11:22:11Z</time></trkpt><trkpt lat="47.98270476358294" lon="11.716596622196718"><ele>607.4000000000001</ele><time>2026-04-18T11:22:12Z</time></trkpt><trkpt lat="47.98281313065044" lon="11.716593628203455"><ele>607.2</ele><time>2026-04-18T11:22:13Z</time></trkpt><trkpt lat="47.982917468863924" lon="11.716570816984921"><ele>607.0</ele><time>2026-04-18T11:22:14Z</time></trkpt><trkpt lat="47.98301742213613" lon="11.716548964371965"><ele>607.0</ele><time>2026-04-18T11:22:15Z</time></trkpt><trkpt lat="47.98311466421262" lon="11.716526523325667"><ele>607.0</ele><time>2026-04-18T11:22:16Z</time></trkpt><trkpt lat="47.98321239783137" lon="11.716502623115879"><ele>607.0</ele><time>2026-04-18T11:22:17Z</time></trkpt><trkpt lat="47.98331277139229" lon="11.716476556123636"><ele>607.0</ele><time>2026-04-18T11:22:18Z</time></trkpt><trkpt lat="47.983405570181425" lon="11.716430346870482"><ele>607.0</ele><time>2026-04-18T11:22:19Z</time></trkpt><trkpt lat="47.98351119130953" lon="11.716401489551606"><ele>606.8000000000001</ele><time>2026-04-18T11:22:20Z</time></trkpt><trkpt lat="47.9836187434282" lon="11.716364721103787"><ele>606.6</ele><time>2026-04-18T11:22:21Z</time></trkpt><trkpt lat="47.98371995171748" lon="11.716317160824431"><ele>606.4000000000001</ele><time>2026-04-18T11:22:22Z</time></trkpt><trkpt lat="47.98382423376335" lon="11.716268288296003"><ele>606.2</ele><time>2026-04-18T11:22:23Z</time></trkpt><trkpt lat="47.983927407156266" lon="11.716219153465465"><ele>606.0</ele><time>2026-04-18T11:22:24Z</time></trkpt><trkpt lat="47.98403090330066" lon="11.716166675247415"><ele>606.0</ele><time>2026-04-18T11:22:25Z</time></trkpt><trkpt lat="47.98413561746305" lon="11.716110977841145"><ele>606.0</ele><time>2026-04-18T11:22:26Z</time></trkpt><trkpt lat="47.98423914952824" lon="11.716040513318864"><ele>606.0</ele><time>2026-04-18T11:22:27Z</time></trkpt><trkpt lat="47.984338064599335" lon="11.715977453593997"><ele>606.0</ele><time>2026-04-18T11:22:28Z</time></trkpt><trkpt lat="47.98442526250238" lon="11.715914618463936"><ele>606.0</ele><time>2026-04-18T11:22:29Z</time></trkpt><trkpt lat="47.98450950372662" lon="11.715844190282857"><ele>606.1666666666666</ele><time>2026-04-18T11:22:30Z</time></trkpt><trkpt lat="47.98459379158784" lon="11.715798498361016"><ele>606.3333333333334</ele><time>2026-04-18T11:22:31Z</time></trkpt><trkpt lat="47.984669092530275" lon="11.715725126989794"><ele>606.5</ele><time>2026-04-18T11:22:32Z</time></trkpt><trkpt lat="47.98473009946563" lon="11.715659493033773"><ele>606.6666666666667</ele><time>2026-04-18T11:22:33Z</time></trkpt><trkpt lat="47.98478316134741" lon="11.7156022687422"><ele>606.8333333333334</ele><time>2026-04-18T11:22:34Z</time></trkpt><trkpt lat="47.98487796107166" lon="11.715503705940742"><ele>607.0</ele><time>2026-04-18T11:22:36Z</time></trkpt><trkpt lat="47.98492852211355" lon="11.715428554915546"><ele>607.2</ele><time>2026-04-18T11:23:31Z</time></trkpt><trkpt lat="47.9850192610883" lon="11.715355062986148"><ele>607.4000000000001</ele><time>2026-04-18T11:23:33Z</time></trkpt><trkpt lat="47.985132383808164" lon="11.7152951256847"><ele>607.5999999999999</ele><time>2026-04-18T11:23:35Z</time></trkpt><trkpt lat="47.98520426320856" lon="11.715297647595277"><ele>607.8</ele><time>2026-04-18T11:23:36Z</time></trkpt><trkpt lat="47.98528151243809" lon="11.715273097703092"><ele>608.0</ele><time>2026-04-18T11:23:37Z</time></trkpt><trkpt lat="47.98536672369742" lon="11.715245435356044"><ele>608.0</ele><time>2026-04-18T11:23:38Z</time></trkpt><trkpt lat="47.98545927844648" lon="11.71521682032726"><ele>608.0</ele><time>2026-04-18T11:23:39Z</time></trkpt><trkpt lat="47.98554904183672" lon="11.715191909360158"><ele>608.0</ele><time>2026-04-18T11:23:40Z</time></trkpt><trkpt lat="47.98563718746177" lon="11.715165565528814"><ele>608.0</ele><time>2026-04-18T11:23:41Z</time></trkpt><trkpt lat="47.98572723565711" lon="11.715137514621444"><ele>608.0</ele><time>2026-04-18T11:23:42Z</time></trkpt><trkpt lat="47.98580963146167" lon="11.715110646468466"><ele>607.6</ele><time>2026-04-18T11:23:43Z</time></trkpt><trkpt lat="47.985888439167226" lon="11.715080684813861"><ele>607.1999999999999</ele><time>2026-04-18T11:23:44Z</time></trkpt><trkpt lat="47.98597574313184" lon="11.715034028443938"><ele>606.8</ele><time>2026-04-18T11:23:45Z</time></trkpt><trkpt lat="47.986063457980386" lon="11.71497587686175"><ele>606.4</ele><time>2026-04-18T11:23:46Z</time></trkpt><trkpt lat="47.986156594127436" lon="11.714907376597893"><ele>606.0</ele><time>2026-04-18T11:23:47Z</time></trkpt><trkpt lat="47.986247495237976" lon="11.71484419113033"><ele>606.0</ele><time>2026-04-18T11:23:48Z</time></trkpt><trkpt lat="47.98633624881513" lon="11.714784487492166"><ele>606.0</ele><time>2026-04-18T11:23:49Z</time></trkpt><trkpt lat="47.98642408931617" lon="11.714728102382747"><ele>606.0</ele><time>2026-04-18T11:23:50Z</time></trkpt><trkpt lat="47.986522369582616" lon="11.714667094081241"><ele>606.0</ele><time>2026-04-18T11:23:51Z</time></trkpt><trkpt lat="47.98662046430499" lon="11.71459788635313"><ele>606.0</ele><time>2026-04-18T11:23:52Z</time></trkpt><trkpt lat="47.986712223923654" lon="11.71455706796095"><ele>605.6</ele><time>2026-04-18T11:23:53Z</time></trkpt><trkpt lat="47.986806373937725" lon="11.714504814056909"><ele>605.2</ele><time>2026-04-18T11:23:54Z</time></trkpt><trkpt lat="47.98690029923614" lon="11.714471809138946"><ele>604.8</ele><time>2026-04-18T11:23:55Z</time></trkpt><trkpt lat="47.987006632084615" lon="11.714434191644232"><ele>604.4</ele><time>2026-04-18T11:23:56Z</time></trkpt><trkpt lat="47.987125302026726" lon="11.714384149705598"><ele>604.0</ele><time>2026-04-18T11:23:57Z</time></trkpt><trkpt lat="47.98722668375237" lon="11.714358934098257"><ele>604.0</ele><time>2026-04-18T11:23:58Z</time></trkpt><trkpt lat="47.987320818355755" lon="11.714318429089376"><ele>604.0</ele><time>2026-04-18T11:23:59Z</time></trkpt><trkpt lat="47.98743099858111" lon="11.714244061767392"><ele>604.0</ele><time>2026-04-18T11:24:00Z</time></trkpt><trkpt lat="47.98753847367664" lon="11.714181689402958"><ele>604.0</ele><time>2026-04-18T11:24:01Z</time></trkpt><trkpt lat="47.98764013492255" lon="11.714123654055982"><ele>604.0</ele><time>2026-04-18T11:24:02Z</time></trkpt><trkpt lat="47.987752952372745" lon="11.714071881680074"><ele>603.75</ele><time>2026-04-18T11:24:03Z</time></trkpt><trkpt lat="47.987864300174046" lon="11.713998671474522"><ele>603.5</ele><time>2026-04-18T11:24:04Z</time></trkpt><trkpt lat="47.98797455012994" lon="11.713926096640648"><ele>603.25</ele><time>2026-04-18T11:24:05Z</time></trkpt><trkpt lat="47.98809022632928" lon="11.713866345352105"><ele>603.0</ele><time>2026-04-18T11:24:06Z</time></trkpt><trkpt lat="47.98819297473664" lon="11.713800799146414"><ele>603.0</ele><time>2026-04-18T11:24:07Z</time></trkpt><trkpt lat="47.98829716752576" lon="11.713735240832804"><ele>603.0</ele><time>2026-04-18T11:24:08Z</time></trkpt><trkpt lat="47.98840003253563" lon="11.713679997673147"><ele>603.0</ele><time>2026-04-18T11:24:09Z</time></trkpt><trkpt lat="47.98852530222461" lon="11.71360004252717"><ele>603.0</ele><time>2026-04-18T11:24:10Z</time></trkpt><trkpt lat="47.98866309444598" lon="11.713518175167385"><ele>602.6666666666666</ele><time>2026-04-18T11:24:11Z</time></trkpt><trkpt lat="47.98879652089724" lon="11.713452222774107"><ele>602.3333333333333</ele><time>2026-04-18T11:24:12Z</time></trkpt><trkpt lat="47.988950343197985" lon="11.713391398788735"><ele>602.0</ele><time>2026-04-18T11:24:13Z</time></trkpt><trkpt lat="47.989109241433326" lon="11.713341947870308"><ele>602.0</ele><time>2026-04-18T11:24:14Z</time></trkpt><trkpt lat="47.98927518731348" lon="11.713291937322303"><ele>602.0</ele><time>2026-04-18T11:24:15Z</time></trkpt><trkpt lat="47.989443318443776" lon="11.71323919502746"><ele>602.0</ele><time>2026-04-18T11:24:16Z</time></trkpt><trkpt lat="47.98961850932949" lon="11.713179812702718"><ele>602.0</ele><time>2026-04-18T11:24:17Z</time></trkpt><trkpt lat="47.98980400861555" lon="11.713113915742069"><ele>602.0</ele><time>2026-04-18T11:24:18Z</time></trkpt><trkpt lat="47.989983118977854" lon="11.713045947332642"><ele>602.0</ele><time>2026-04-18T11:24:19Z</time></trkpt><trkpt lat="47.99017310140952" lon="11.712976662462454"><ele>601.6666666666666</ele><time>2026-04-18T11:24:20Z</time></trkpt><trkpt lat="47.99036474799812" lon="11.712905217244682"><ele>601.3333333333334</ele><time>2026-04-18T11:24:21Z</time></trkpt><trkpt lat="47.99055502227324" lon="11.712827818902515"><ele>601.0</ele><time>2026-04-18T11:24:22Z</time></trkpt><trkpt lat="47.99074480856829" lon="11.712745292154635"><ele>600.3333333333334</ele><time>2026-04-18T11:24:23Z</time></trkpt><trkpt lat="47.99094588281783" lon="11.712658996971687"><ele>599.6666666666666</ele><time>2026-04-18T11:24:24Z</time></trkpt><trkpt lat="47.9911506918681" lon="11.712571118631828"><ele>599.0</ele><time>2026-04-18T11:24:25Z</time></trkpt><trkpt lat="47.9913569791879" lon="11.71248132380528"><ele>599.0</ele><time>2026-04-18T11:24:26Z</time></trkpt><trkpt lat="47.9915548247363" lon="11.712392574730412"><ele>599.0</ele><time>2026-04-18T11:24:27Z</time></trkpt><trkpt lat="47.99174617302261" lon="11.712305637169226"><ele>599.0</ele><time>2026-04-18T11:24:28Z</time></trkpt><trkpt lat="47.99193003161775" lon="11.712221608577376"><ele>599.0</ele><time>2026-04-18T11:24:29Z</time></trkpt><trkpt lat="47.992112451326825" lon="11.712142581382869"><ele>599.0</ele><time>2026-04-18T11:24:30Z</time></trkpt><trkpt lat="47.99229302606548" lon="11.712064429249232"><ele>599.0</ele><time>2026-04-18T11:24:31Z</time></trkpt><trkpt lat="47.992469471030276" lon="11.711986702101003"><ele>598.6666666666666</ele><time>2026-04-18T11:24:32Z</time></trkpt><trkpt lat="47.99263150301599" lon="11.711917719849273"><ele>598.3333333333334</ele><time>2026-04-18T11:24:33Z</time></trkpt><trkpt lat="47.99278684838793" lon="11.7118512408264"><ele>598.0</ele><time>2026-04-18T11:24:34Z</time></trkpt><trkpt lat="47.99294500931549" lon="11.711784234264055"><ele>598.0</ele><time>2026-04-18T11:24:35Z</time></trkpt><trkpt lat="47.99310435266505" lon="11.711718569866463"><ele>598.0</ele><time>2026-04-18T11:24:36Z</time></trkpt><trkpt lat="47.99325592832506" lon="11.711658992629436"><ele>598.0</ele><time>2026-04-18T11:24:37Z</time></trkpt><trkpt lat="47.99340358640301" lon="11.711596878149022"><ele>598.0</ele><time>2026-04-18T11:24:38Z</time></trkpt><trkpt lat="47.99355122576052" lon="11.711525076680202"><ele>598.0</ele><time>2026-04-18T11:24:39Z</time></trkpt><trkpt lat="47.99370504601468" lon="11.711425896368162"><ele>598.0</ele><time>2026-04-18T11:24:40Z</time></trkpt><trkpt lat="47.993856863183986" lon="11.711283213046306"><ele>598.0</ele><time>2026-04-18T11:24:41Z</time></trkpt><trkpt lat="47.99399965053626" lon="11.711097558629413"><ele>598.0</ele><time>2026-04-18T11:24:42Z</time></trkpt><trkpt lat="47.99414268582678" lon="11.710890666951984"><ele>598.0</ele><time>2026-04-18T11:24:43Z</time></trkpt><trkpt lat="47.9942877030599" lon="11.710680286903239"><ele>600.0</ele><time>2026-04-18T11:24:44Z</time></trkpt><trkpt lat="47.9944260697538" lon="11.710491197140017"><ele>602.0</ele><time>2026-04-18T11:24:45Z</time></trkpt><trkpt lat="47.994563320064834" lon="11.710314896795861"><ele>604.0</ele><time>2026-04-18T11:24:46Z</time></trkpt><trkpt lat="47.994697602079626" lon="11.71013848270184"><ele>605.3333333333334</ele><time>2026-04-18T11:24:47Z</time></trkpt><trkpt lat="47.99483350143313" lon="11.709953245935136"><ele>606.6666666666666</ele><time>2026-04-18T11:24:48Z</time></trkpt><trkpt lat="47.99497234275857" lon="11.709768162974663"><ele>608.0</ele><time>2026-04-18T11:24:49Z</time></trkpt><trkpt lat="47.995114193600294" lon="11.709583988709975"><ele>607.6666666666666</ele><time>2026-04-18T11:24:50Z</time></trkpt><trkpt lat="47.99526375088177" lon="11.709401016603463"><ele>607.3333333333334</ele><time>2026-04-18T11:24:51Z</time></trkpt><trkpt lat="47.99542652907252" lon="11.709228101897992"><ele>607.0</ele><time>2026-04-18T11:24:52Z</time></trkpt><trkpt lat="47.995598859641895" lon="11.709066141986687"><ele>607.0</ele><time>2026-04-18T11:24:53Z</time></trkpt><trkpt lat="47.99578953261273" lon="11.708950471575003"><ele>607.0</ele><time>2026-04-18T11:24:54Z</time></trkpt><trkpt lat="47.99598818668874" lon="11.708826564947348"><ele>607.0</ele><time>2026-04-18T11:24:55Z</time></trkpt><trkpt lat="47.99619566270411" lon="11.708705297729695"><ele>607.0</ele><time>2026-04-18T11:24:56Z</time></trkpt><trkpt lat="47.99640664385902" lon="11.708583230481729"><ele>607.0</ele><time>2026-04-18T11:24:57Z</time></trkpt><trkpt lat="47.996613565597904" lon="11.708465932800916"><ele>607.0</ele><time>2026-04-18T11:24:58Z</time></trkpt><trkpt lat="47.99681137381376" lon="11.70835312354113"><ele>608.3333333333334</ele><time>2026-04-18T11:24:59Z</time></trkpt><trkpt lat="47.99700573198187" lon="11.708241470151192"><ele>609.6666666666666</ele><time>2026-04-18T11:25:00Z</time></trkpt><trkpt lat="47.99719922917741" lon="11.708131052993041"><ele>611.0</ele><time>2026-04-18T11:25:01Z</time></trkpt><trkpt lat="47.99739097359322" lon="11.708021385084523"><ele>610.6666666666666</ele><time>2026-04-18T11:25:02Z</time></trkpt><trkpt lat="47.99758305463062" lon="11.707911341973182"><ele>610.3333333333334</ele><time>2026-04-18T11:25:03Z</time></trkpt><trkpt lat="47.99777431262956" lon="11.707801770664513"><ele>610.0</ele><time>2026-04-18T11:25:04Z</time></trkpt><trkpt lat="47.99796661091189" lon="11.707692878945217"><ele>610.0</ele><time>2026-04-18T11:25:05Z</time></trkpt><trkpt lat="47.99815907859704" lon="11.707585997309254"><ele>610.0</ele><time>2026-04-18T11:25:06Z</time></trkpt><trkpt lat="47.99835028391021" lon="11.707476562538153"><ele>610.0</ele><time>2026-04-18T11:25:07Z</time></trkpt><trkpt lat="47.99854482204611" lon="11.707374973262304"><ele>609.6666666666667</ele><time>2026-04-18T11:25:08Z</time></trkpt><trkpt lat="47.99874534260322" lon="11.707286647222745"><ele>609.3333333333334</ele><time>2026-04-18T11:25:09Z</time></trkpt><trkpt lat="47.99895464372915" lon="11.707210771645174"><ele>609.0</ele><time>2026-04-18T11:25:10Z</time></trkpt><trkpt lat="47.99917024448671" lon="11.707145034787425"><ele>610.0</ele><time>2026-04-18T11:25:11Z</time></trkpt><trkpt lat="47.99939337585706" lon="11.707098121315841"><ele>611.0</ele><time>2026-04-18T11:25:12Z</time></trkpt><trkpt lat="47.999620799881626" lon="11.70705695035826"><ele>611.0</ele><time>2026-04-18T11:25:13Z</time></trkpt><trkpt lat="47.9998374131728" lon="11.707022753715504"><ele>611.0</ele><time>2026-04-18T11:25:14Z</time></trkpt><trkpt lat="48.000046055394485" lon="11.706989880539853"><ele>611.0</ele><time>2026-04-18T11:25:15Z</time></trkpt><trkpt lat="48.00025300956331" lon="11.706955851041219"><ele>611.0</ele><time>2026-04-18T11:25:16Z</time></trkpt><trkpt lat="48.000461475622835" lon="11.706921164118087"><ele>611.0</ele><time>2026-04-18T11:25:17Z</time></trkpt><trkpt lat="48.00067147532481" lon="11.706886992598598"><ele>611.0</ele><time>2026-04-18T11:25:18Z</time></trkpt><trkpt lat="48.00087625416197" lon="11.706854568429222"><ele>608.3333333333333</ele><time>2026-04-18T11:25:19Z</time></trkpt><trkpt lat="48.001078885732625" lon="11.706822484294317"><ele>605.6666666666666</ele><time>2026-04-18T11:25:20Z</time></trkpt><trkpt lat="48.00127929064272" lon="11.706789837887886"><ele>603.0</ele><time>2026-04-18T11:25:21Z</time></trkpt><trkpt lat="48.001481867147135" lon="11.70675558663207"><ele>600.6666666666666</ele><time>2026-04-18T11:25:22Z</time></trkpt><trkpt lat="48.00168266897268" lon="11.706721759021486"><ele>598.3333333333333</ele><time>2026-04-18T11:25:23Z</time></trkpt><trkpt lat="48.00188516183228" lon="11.706694747092081"><ele>596.0</ele><time>2026-04-18T11:25:24Z</time></trkpt><trkpt lat="48.00209350181652" lon="11.706674422506524"><ele>596.0</ele><time>2026-04-18T11:25:25Z</time></trkpt><trkpt lat="48.00230436661232" lon="11.706649762010642"><ele>596.0</ele><time>2026-04-18T11:25:26Z</time></trkpt><trkpt lat="48.00251364038661" lon="11.706675505277676"><ele>596.0</ele><time>2026-04-18T11:25:27Z</time></trkpt><trkpt lat="48.00272338153289" lon="11.706717658144925"><ele>596.6666666666666</ele><time>2026-04-18T11:25:28Z</time></trkpt><trkpt lat="48.002933937613506" lon="11.7067345491842"><ele>597.3333333333334</ele><time>2026-04-18T11:25:29Z</time></trkpt><trkpt lat="48.003134922049846" lon="11.706839910220264"><ele>598.0</ele><time>2026-04-18T11:25:30Z</time></trkpt><trkpt lat="48.003343234199264" lon="11.706913287152398"><ele>600.6666666666667</ele><time>2026-04-18T11:25:31Z</time></trkpt><trkpt lat="48.003547012430275" lon="11.706980603791926"><ele>603.3333333333334</ele><time>2026-04-18T11:25:32Z</time></trkpt><trkpt lat="48.00374630039798" lon="11.707051053767044"><ele>606.0</ele><time>2026-04-18T11:25:33Z</time></trkpt><trkpt lat="48.003940439471066" lon="11.707124382143551"><ele>606.0</ele><time>2026-04-18T11:25:34Z</time></trkpt><trkpt lat="48.00412879733564" lon="11.70720363123271"><ele>606.0</ele><time>2026-04-18T11:25:35Z</time></trkpt><trkpt lat="48.0043154065961" lon="11.707289427339722"><ele>606.0</ele><time>2026-04-18T11:25:36Z</time></trkpt><trkpt lat="48.0045017604533" lon="11.707368309082959"><ele>603.6666666666666</ele><time>2026-04-18T11:25:37Z</time></trkpt><trkpt lat="48.0046852798417" lon="11.707441810808522"><ele>601.3333333333333</ele><time>2026-04-18T11:25:38Z</time></trkpt><trkpt lat="48.00487286144938" lon="11.707513009601787"><ele>599.0</ele><time>2026-04-18T11:25:39Z</time></trkpt><trkpt lat="48.00505518537262" lon="11.707595788265204"><ele>598.0</ele><time>2026-04-18T11:25:40Z</time></trkpt><trkpt lat="48.005238456549776" lon="11.70770249398587"><ele>597.0</ele><time>2026-04-18T11:25:41Z</time></trkpt><trkpt lat="48.005426313877294" lon="11.707827276804913"><ele>596.0</ele><time>2026-04-18T11:25:42Z</time></trkpt><trkpt lat="48.005603609319444" lon="11.707967737181887"><ele>596.0</ele><time>2026-04-18T11:25:43Z</time></trkpt><trkpt lat="48.00577036685233" lon="11.708120050267455"><ele>596.0</ele><time>2026-04-18T11:25:44Z</time></trkpt><trkpt lat="48.00592812055503" lon="11.708261841107566"><ele>596.0</ele><time>2026-04-18T11:25:45Z</time></trkpt><trkpt lat="48.00608165620395" lon="11.708395596028598"><ele>595.3333333333333</ele><time>2026-04-18T11:25:46Z</time></trkpt><trkpt lat="48.00622684739466" lon="11.708521639003706"><ele>594.6666666666666</ele><time>2026-04-18T11:25:47Z</time></trkpt><trkpt lat="48.00637245195574" lon="11.7086402188291"><ele>594.0</ele><time>2026-04-18T11:25:48Z</time></trkpt><trkpt lat="48.006517746270056" lon="11.708755444715354"><ele>596.0</ele><time>2026-04-18T11:25:49Z</time></trkpt><trkpt lat="48.00666777009296" lon="11.708872443506555"><ele>598.0</ele><time>2026-04-18T11:25:50Z</time></trkpt><trkpt lat="48.00682072094603" lon="11.708975363814755"><ele>600.0</ele><time>2026-04-18T11:25:51Z</time></trkpt><trkpt lat="48.00696743887248" lon="11.70906722809458"><ele>600.0</ele><time>2026-04-18T11:25:52Z</time></trkpt><trkpt lat="48.007110134176386" lon="11.70916043582513"><ele>600.0</ele><time>2026-04-18T11:25:53Z</time></trkpt><trkpt lat="48.00725781554651" lon="11.709245423606715"><ele>600.0</ele><time>2026-04-18T11:25:54Z</time></trkpt><trkpt lat="48.00740500165098" lon="11.709312325181369"><ele>602.0</ele><time>2026-04-18T11:25:55Z</time></trkpt><trkpt lat="48.00754216482876" lon="11.7093605454171"><ele>604.0</ele><time>2026-04-18T11:25:56Z</time></trkpt><trkpt lat="48.0076820690994" lon="11.709408775505844"><ele>606.0</ele><time>2026-04-18T11:25:57Z</time></trkpt><trkpt lat="48.00782470535662" lon="11.70946632767453"><ele>608.0</ele><time>2026-04-18T11:25:58Z</time></trkpt><trkpt lat="48.007962484688534" lon="11.70953077317136"><ele>608.0</ele><time>2026-04-18T11:25:59Z</time></trkpt><trkpt lat="48.00808716780875" lon="11.709599904899656"><ele>608.0</ele><time>2026-04-18T11:26:00Z</time></trkpt><trkpt lat="48.008206555548135" lon="11.70966760781308"><ele>608.0</ele><time>2026-04-18T11:26:01Z</time></trkpt><trkpt lat="48.008315078121385" lon="11.709737107169156"><ele>608.0</ele><time>2026-04-18T11:26:02Z</time></trkpt><trkpt lat="48.00840804661169" lon="11.709805475588771"><ele>606.8</ele><time>2026-04-18T11:26:03Z</time></trkpt><trkpt lat="48.008497539681976" lon="11.709875415713386"><ele>605.5999999999999</ele><time>2026-04-18T11:26:04Z</time></trkpt><trkpt lat="48.00858475916154" lon="11.709947953689056"><ele>604.4000000000001</ele><time>2026-04-18T11:26:05Z</time></trkpt><trkpt lat="48.008662141531886" lon="11.710012323139576"><ele>603.2</ele><time>2026-04-18T11:26:06Z</time></trkpt><trkpt lat="48.008744099072366" lon="11.710079376083906"><ele>602.0</ele><time>2026-04-18T11:26:07Z</time></trkpt><trkpt lat="48.00882209176741" lon="11.710138568060584"><ele>602.0</ele><time>2026-04-18T11:26:08Z</time></trkpt><trkpt lat="48.00888480687612" lon="11.710185956745777"><ele>602.0</ele><time>2026-04-18T11:26:09Z</time></trkpt><trkpt lat="48.00894530957257" lon="11.710232072977528"><ele>602.0</ele><time>2026-04-18T11:26:10Z</time></trkpt><trkpt lat="48.009039891339135" lon="11.710302158363792"><ele>602.0</ele><time>2026-04-18T11:26:12Z</time></trkpt><trkpt lat="48.00909981081005" lon="11.710347276710209"><ele>602.0</ele><time>2026-04-18T11:26:15Z</time></trkpt><trkpt lat="48.00918497145814" lon="11.710283162943087"><ele>602.0</ele><time>2026-04-18T11:26:20Z</time></trkpt><trkpt lat="48.00921758392892" lon="11.71016632695081"><ele>601.5</ele><time>2026-04-18T11:26:21Z</time></trkpt><trkpt lat="48.00924261386266" lon="11.710029155630226"><ele>601.0</ele><time>2026-04-18T11:26:22Z</time></trkpt><trkpt lat="48.00926341123136" lon="11.70987126302758"><ele>600.5</ele><time>2026-04-18T11:26:23Z</time></trkpt><trkpt lat="48.00929187001949" lon="11.709675026997031"><ele>600.0</ele><time>2026-04-18T11:26:24Z</time></trkpt><trkpt lat="48.009328980408114" lon="11.709445952347137"><ele>602.0</ele><time>2026-04-18T11:26:25Z</time></trkpt><trkpt lat="48.00938377693086" lon="11.70918373386725"><ele>604.0</ele><time>2026-04-18T11:26:26Z</time></trkpt><trkpt lat="48.00944526027562" lon="11.70889981944773"><ele>606.0</ele><time>2026-04-18T11:26:27Z</time></trkpt><trkpt lat="48.009522246968366" lon="11.708596171958865"><ele>609.5</ele><time>2026-04-18T11:26:28Z</time></trkpt><trkpt lat="48.009615804755555" lon="11.70828584619494"><ele>613.0</ele><time>2026-04-18T11:26:29Z</time></trkpt><trkpt lat="48.009727457452854" lon="11.707977579985219"><ele>613.0</ele><time>2026-04-18T11:26:30Z</time></trkpt><trkpt lat="48.00984853020718" lon="11.70767278238884"><ele>613.0</ele><time>2026-04-18T11:26:31Z</time></trkpt><trkpt lat="48.00997810168391" lon="11.707370849102372"><ele>611.0</ele><time>2026-04-18T11:26:32Z</time></trkpt><trkpt lat="48.01011349736384" lon="11.707078251290689"><ele>609.0</ele><time>2026-04-18T11:26:33Z</time></trkpt><trkpt lat="48.010249759757016" lon="11.706790795463917"><ele>609.0</ele><time>2026-04-18T11:26:34Z</time></trkpt><trkpt lat="48.01037985658135" lon="11.706510753565812"><ele>609.0</ele><time>2026-04-18T11:26:35Z</time></trkpt><trkpt lat="48.010508212645824" lon="11.706236109409145"><ele>609.0</ele><time>2026-04-18T11:26:36Z</time></trkpt><trkpt lat="48.010631373410114" lon="11.705965699729319"><ele>609.0</ele><time>2026-04-18T11:26:37Z</time></trkpt><trkpt lat="48.0107445833064" lon="11.705696143281424"><ele>609.0</ele><time>2026-04-18T11:26:38Z</time></trkpt><trkpt lat="48.010850812078324" lon="11.705423314486312"><ele>605.0</ele><time>2026-04-18T11:26:39Z</time></trkpt><trkpt lat="48.01095065216726" lon="11.70515050269485"><ele>601.0</ele><time>2026-04-18T11:26:40Z</time></trkpt><trkpt lat="48.01104234137182" lon="11.704874055557061"><ele>597.0</ele><time>2026-04-18T11:26:41Z</time></trkpt><trkpt lat="48.01112370080219" lon="11.704593972812866"><ele>598.0</ele><time>2026-04-18T11:26:42Z</time></trkpt><trkpt lat="48.01119952815432" lon="11.704311456918127"><ele>599.0</ele><time>2026-04-18T11:26:43Z</time></trkpt><trkpt lat="48.011283619592305" lon="11.704035211353839"><ele>600.0</ele><time>2026-04-18T11:26:44Z</time></trkpt><trkpt lat="48.01134722217939" lon="11.703748599082601"><ele>599.3333333333334</ele><time>2026-04-18T11:26:45Z</time></trkpt><trkpt lat="48.01140640124712" lon="11.703459036182979"><ele>598.6666666666667</ele><time>2026-04-18T11:26:46Z</time></trkpt><trkpt lat="48.01146425347992" lon="11.703172577662432"><ele>598.0</ele><time>2026-04-18T11:26:47Z</time></trkpt><trkpt lat="48.01151893161017" lon="11.702898771740355"><ele>597.0</ele><time>2026-04-18T11:26:48Z</time></trkpt><trkpt lat="48.01155695840663" lon="11.702634954505136"><ele>596.0</ele><time>2026-04-18T11:26:49Z</time></trkpt><trkpt lat="48.01161450352254" lon="11.702383765822253"><ele>595.0</ele><time>2026-04-18T11:26:50Z</time></trkpt><trkpt lat="48.011670191384276" lon="11.702132439905283"><ele>593.3333333333334</ele><time>2026-04-18T11:26:51Z</time></trkpt><trkpt lat="48.01173075371435" lon="11.70188344925297"><ele>591.6666666666666</ele><time>2026-04-18T11:26:52Z</time></trkpt><trkpt lat="48.01179480164396" lon="11.701644084599227"><ele>590.0</ele><time>2026-04-18T11:26:53Z</time></trkpt><trkpt lat="48.01186465624448" lon="11.701411482880932"><ele>590.0</ele><time>2026-04-18T11:26:54Z</time></trkpt><trkpt lat="48.01193953313151" lon="11.701183244023557"><ele>590.0</ele><time>2026-04-18T11:26:55Z</time></trkpt><trkpt lat="48.01202125566116" lon="11.700955900789829"><ele>590.0</ele><time>2026-04-18T11:26:56Z</time></trkpt><trkpt lat="48.012107208415586" lon="11.700729193029906"><ele>589.3333333333333</ele><time>2026-04-18T11:26:57Z</time></trkpt><trkpt lat="48.01220683829807" lon="11.700507465890617"><ele>588.6666666666666</ele><time>2026-04-18T11:26:58Z</time></trkpt><trkpt lat="48.01231542435845" lon="11.700290174566039"><ele>588.0</ele><time>2026-04-18T11:26:59Z</time></trkpt><trkpt lat="48.01242976100626" lon="11.700075653011256"><ele>587.6666666666666</ele><time>2026-04-18T11:27:00Z</time></trkpt><trkpt lat="48.01254707045071" lon="11.699866500920548"><ele>587.3333333333333</ele><time>2026-04-18T11:27:01Z</time></trkpt><trkpt lat="48.012670496511866" lon="11.69965583019364"><ele>587.0</ele><time>2026-04-18T11:27:02Z</time></trkpt><trkpt lat="48.012801216330985" lon="11.69944889092825"><ele>587.0</ele><time>2026-04-18T11:27:03Z</time></trkpt><trkpt lat="48.0129438690877" lon="11.699251374807874"><ele>587.0</ele><time>2026-04-18T11:27:04Z</time></trkpt><trkpt lat="48.01308733787565" lon="11.699060249140805"><ele>587.0</ele><time>2026-04-18T11:27:05Z</time></trkpt><trkpt lat="48.01324174691803" lon="11.698872642200424"><ele>587.0</ele><time>2026-04-18T11:27:06Z</time></trkpt><trkpt lat="48.01340515133233" lon="11.698699803757819"><ele>587.0</ele><time>2026-04-18T11:27:07Z</time></trkpt><trkpt lat="48.01357485514846" lon="11.698534905384243"><ele>587.0</ele><time>2026-04-18T11:27:08Z</time></trkpt><trkpt lat="48.01375030853274" lon="11.698381563917447"><ele>587.0</ele><time>2026-04-18T11:27:09Z</time></trkpt><trkpt lat="48.01392983153282" lon="11.698240905993657"><ele>587.0</ele><time>2026-04-18T11:27:10Z</time></trkpt><trkpt lat="48.01411509019766" lon="11.698103143106849"><ele>587.0</ele><time>2026-04-18T11:27:11Z</time></trkpt><trkpt lat="48.014294742954505" lon="11.697964557416364"><ele>587.0</ele><time>2026-04-18T11:27:12Z</time></trkpt><trkpt lat="48.014490689921125" lon="11.697853488923531"><ele>587.0</ele><time>2026-04-18T11:27:13Z</time></trkpt><trkpt lat="48.01468753865895" lon="11.69774446252758"><ele>587.0</ele><time>2026-04-18T11:27:14Z</time></trkpt><trkpt lat="48.01488159215348" lon="11.697630730912344"><ele>586.3333333333333</ele><time>2026-04-18T11:27:15Z</time></trkpt><trkpt lat="48.015075396107804" lon="11.697514000229"><ele>585.6666666666666</ele><time>2026-04-18T11:27:16Z</time></trkpt><trkpt lat="48.01526963574199" lon="11.697395759642339"><ele>585.0</ele><time>2026-04-18T11:27:17Z</time></trkpt><trkpt lat="48.01546289633112" lon="11.697276879045896"><ele>585.0</ele><time>2026-04-18T11:27:18Z</time></trkpt><trkpt lat="48.01565519513198" lon="11.697159763281"><ele>585.0</ele><time>2026-04-18T11:27:19Z</time></trkpt><trkpt lat="48.01584921091382" lon="11.697037091636705"><ele>585.0</ele><time>2026-04-18T11:27:20Z</time></trkpt><trkpt lat="48.01604123980737" lon="11.696921509933226"><ele>586.0</ele><time>2026-04-18T11:27:21Z</time></trkpt><trkpt lat="48.0162375035725" lon="11.696804687789061"><ele>587.0</ele><time>2026-04-18T11:27:22Z</time></trkpt><trkpt lat="48.01643813521997" lon="11.696680829332825"><ele>588.0</ele><time>2026-04-18T11:27:23Z</time></trkpt><trkpt lat="48.016641630796215" lon="11.69655594035553"><ele>588.0</ele><time>2026-04-18T11:27:24Z</time></trkpt><trkpt lat="48.01684589190164" lon="11.696433210626568"><ele>588.0</ele><time>2026-04-18T11:27:25Z</time></trkpt><trkpt lat="48.01705197523792" lon="11.696312326380967"><ele>588.0</ele><time>2026-04-18T11:27:26Z</time></trkpt><trkpt lat="48.01725758560297" lon="11.696189301157858"><ele>588.0</ele><time>2026-04-18T11:27:27Z</time></trkpt><trkpt lat="48.01746309116315" lon="11.696067094718114"><ele>588.0</ele><time>2026-04-18T11:27:28Z</time></trkpt><trkpt lat="48.01766593236355" lon="11.695944520886899"><ele>588.0</ele><time>2026-04-18T11:27:29Z</time></trkpt><trkpt lat="48.01786849519209" lon="11.695825040097548"><ele>588.6666666666666</ele><time>2026-04-18T11:27:30Z</time></trkpt><trkpt lat="48.018071932894685" lon="11.69570919677974"><ele>589.3333333333333</ele><time>2026-04-18T11:27:31Z</time></trkpt><trkpt lat="48.01827342012786" lon="11.695588438712653"><ele>590.0</ele><time>2026-04-18T11:27:32Z</time></trkpt><trkpt lat="48.01847495139277" lon="11.69546994953255"><ele>588.6666666666666</ele><time>2026-04-18T11:27:33Z</time></trkpt><trkpt lat="48.018674537442074" lon="11.695355699026834"><ele>587.3333333333334</ele><time>2026-04-18T11:27:34Z</time></trkpt><trkpt lat="48.01887375602821" lon="11.695236431187737"><ele>586.0</ele><time>2026-04-18T11:27:35Z</time></trkpt><trkpt lat="48.01906693749242" lon="11.695115216025249"><ele>588.0</ele><time>2026-04-18T11:27:36Z</time></trkpt><trkpt lat="48.01926510579934" lon="11.695000268622499"><ele>590.0</ele><time>2026-04-18T11:27:37Z</time></trkpt><trkpt lat="48.01946367093433" lon="11.694901206153794"><ele>592.0</ele><time>2026-04-18T11:27:38Z</time></trkpt><trkpt lat="48.01966590913562" lon="11.694814351989832"><ele>592.0</ele><time>2026-04-18T11:27:39Z</time></trkpt><trkpt lat="48.019870317368934" lon="11.694740002644128"><ele>592.0</ele><time>2026-04-18T11:27:40Z</time></trkpt><trkpt lat="48.020078337628284" lon="11.69467489072946"><ele>592.0</ele><time>2026-04-18T11:27:41Z</time></trkpt><trkpt lat="48.020287567728275" lon="11.694625344807747"><ele>592.0</ele><time>2026-04-18T11:27:42Z</time></trkpt><trkpt lat="48.020496872053464" lon="11.694594174725317"><ele>592.0</ele><time>2026-04-18T11:27:43Z</time></trkpt><trkpt lat="48.02070514889436" lon="11.694575856516119"><ele>592.0</ele><time>2026-04-18T11:27:44Z</time></trkpt><trkpt lat="48.02091359000893" lon="11.694567402286511"><ele>589.3333333333334</ele><time>2026-04-18T11:27:45Z</time></trkpt><trkpt lat="48.021126506784654" lon="11.694567100267598"><ele>586.6666666666666</ele><time>2026-04-18T11:27:46Z</time></trkpt><trkpt lat="48.021343610907024" lon="11.694600472849444"><ele>584.0</ele><time>2026-04-18T11:27:47Z</time></trkpt><trkpt lat="48.02155798786333" lon="11.694639562840566"><ele>583.6666666666666</ele><time>2026-04-18T11:27:48Z</time></trkpt><trkpt lat="48.02177085076698" lon="11.694696353346412"><ele>583.3333333333334</ele><time>2026-04-18T11:27:49Z</time></trkpt><trkpt lat="48.02198128909442" lon="11.694767032590057"><ele>583.0</ele><time>2026-04-18T11:27:50Z</time></trkpt><trkpt lat="48.02219010987479" lon="11.694847100279658"><ele>583.0</ele><time>2026-04-18T11:27:51Z</time></trkpt><trkpt lat="48.022400142015655" lon="11.694924177080319"><ele>583.0</ele><time>2026-04-18T11:27:52Z</time></trkpt><trkpt lat="48.02261205696029" lon="11.695002904897564"><ele>583.0</ele><time>2026-04-18T11:27:53Z</time></trkpt><trkpt lat="48.022822042922414" lon="11.695081303084406"><ele>583.0</ele><time>2026-04-18T11:27:54Z</time></trkpt><trkpt lat="48.02303296076692" lon="11.695161136320703"><ele>583.0</ele><time>2026-04-18T11:27:55Z</time></trkpt><trkpt lat="48.02324159851654" lon="11.695241290238219"><ele>583.0</ele><time>2026-04-18T11:27:56Z</time></trkpt><trkpt lat="48.02344964118042" lon="11.695321263740075"><ele>582.6666666666667</ele><time>2026-04-18T11:27:57Z</time></trkpt><trkpt lat="48.02365179382496" lon="11.695403249336888"><ele>582.3333333333334</ele><time>2026-04-18T11:27:58Z</time></trkpt><trkpt lat="48.02384179774839" lon="11.69547820376513"><ele>582.0</ele><time>2026-04-18T11:27:59Z</time></trkpt><trkpt lat="48.02402658694012" lon="11.69555357767499"><ele>583.3333333333334</ele><time>2026-04-18T11:28:00Z</time></trkpt><trkpt lat="48.02420476057847" lon="11.695625642308787"><ele>584.6666666666667</ele><time>2026-04-18T11:28:01Z</time></trkpt><trkpt lat="48.024381104708716" lon="11.695694790718825"><ele>586.0</ele><time>2026-04-18T11:28:02Z</time></trkpt><trkpt lat="48.024556328083094" lon="11.69576082890945"><ele>586.0</ele><time>2026-04-18T11:28:03Z</time></trkpt><trkpt lat="48.02473030952924" lon="11.69582075375861"><ele>586.0</ele><time>2026-04-18T11:28:04Z</time></trkpt><trkpt lat="48.02490586912263" lon="11.695875272078398"><ele>586.0</ele><time>2026-04-18T11:28:05Z</time></trkpt><trkpt lat="48.0250809556654" lon="11.695922097854222"><ele>585.3333333333334</ele><time>2026-04-18T11:28:06Z</time></trkpt><trkpt lat="48.02525951642599" lon="11.695955417851268"><ele>584.6666666666666</ele><time>2026-04-18T11:28:07Z</time></trkpt><trkpt lat="48.025440308328584" lon="11.695982855803509"><ele>584.0</ele><time>2026-04-18T11:28:08Z</time></trkpt><trkpt lat="48.02562358882441" lon="11.695999723506327"><ele>584.0</ele><time>2026-04-18T11:28:09Z</time></trkpt><trkpt lat="48.02580742769983" lon="11.696003024565277"><ele>584.0</ele><time>2026-04-18T11:28:10Z</time></trkpt><trkpt lat="48.025992104605464" lon="11.695997009394985"><ele>584.0</ele><time>2026-04-18T11:28:11Z</time></trkpt><trkpt lat="48.026172092649446" lon="11.69598150193007"><ele>585.3333333333333</ele><time>2026-04-18T11:28:12Z</time></trkpt><trkpt lat="48.02635371499611" lon="11.695955093025214"><ele>586.6666666666666</ele><time>2026-04-18T11:28:13Z</time></trkpt><trkpt lat="48.02653696691628" lon="11.695914380399751"><ele>588.0</ele><time>2026-04-18T11:28:14Z</time></trkpt><trkpt lat="48.026717936993656" lon="11.695862414469913"><ele>589.6666666666666</ele><time>2026-04-18T11:28:15Z</time></trkpt><trkpt lat="48.0268972184128" lon="11.695803976321663"><ele>591.3333333333333</ele><time>2026-04-18T11:28:16Z</time></trkpt><trkpt lat="48.0270757390663" lon="11.695736735380626"><ele>593.0</ele><time>2026-04-18T11:28:17Z</time></trkpt><trkpt lat="48.02724989420402" lon="11.695657035403768"><ele>593.0</ele><time>2026-04-18T11:28:18Z</time></trkpt><trkpt lat="48.02741875254106" lon="11.695566972534309"><ele>593.0</ele><time>2026-04-18T11:28:19Z</time></trkpt><trkpt lat="48.02758125421766" lon="11.695464632320258"><ele>593.0</ele><time>2026-04-18T11:28:20Z</time></trkpt><trkpt lat="48.027737183907966" lon="11.695356757843925"><ele>593.0</ele><time>2026-04-18T11:28:21Z</time></trkpt><trkpt lat="48.027880030913465" lon="11.695246942872663"><ele>593.0</ele><time>2026-04-18T11:28:22Z</time></trkpt><trkpt lat="48.02801385821107" lon="11.69513621036418"><ele>593.0</ele><time>2026-04-18T11:28:23Z</time></trkpt><trkpt lat="48.028129101638555" lon="11.695032438379938"><ele>593.0</ele><time>2026-04-18T11:28:24Z</time></trkpt><trkpt lat="48.028228322032156" lon="11.694943621865965"><ele>593.0</ele><time>2026-04-18T11:28:25Z</time></trkpt><trkpt lat="48.02829942577167" lon="11.694863835424325"><ele>593.0</ele><time>2026-04-18T11:28:26Z</time></trkpt><trkpt lat="48.02837975905822" lon="11.694778576601763"><ele>593.0</ele><time>2026-04-18T11:28:28Z</time></trkpt><trkpt lat="48.028470150975444" lon="11.694680222468103"><ele>593.0</ele><time>2026-04-18T11:28:30Z</time></trkpt><trkpt lat="48.02853746223433" lon="11.69460709077069"><ele>593.0</ele><time>2026-04-18T11:28:31Z</time></trkpt><trkpt lat="48.02861915831017" lon="11.694514808792075"><ele>592.5</ele><time>2026-04-18T11:28:32Z</time></trkpt><trkpt lat="48.02869968791676" lon="11.69441718443976"><ele>592.0</ele><time>2026-04-18T11:28:33Z</time></trkpt><trkpt lat="48.0287885003986" lon="11.694304971968787"><ele>591.5</ele><time>2026-04-18T11:28:34Z</time></trkpt><trkpt lat="48.028881216426264" lon="11.694186014363664"><ele>591.0</ele><time>2026-04-18T11:28:35Z</time></trkpt><trkpt lat="48.02897715039683" lon="11.694061975065644"><ele>591.0</ele><time>2026-04-18T11:28:36Z</time></trkpt><trkpt lat="48.02907651932794" lon="11.693927777754299"><ele>591.0</ele><time>2026-04-18T11:28:37Z</time></trkpt><trkpt lat="48.02918287563304" lon="11.693783147618992"><ele>591.0</ele><time>2026-04-18T11:28:38Z</time></trkpt><trkpt lat="48.02929602154792" lon="11.69362620825519"><ele>591.0</ele><time>2026-04-18T11:28:39Z</time></trkpt><trkpt lat="48.02941380405639" lon="11.693469485451724"><ele>589.0</ele><time>2026-04-18T11:28:40Z</time></trkpt><trkpt lat="48.02953390477677" lon="11.693313031359164"><ele>587.0</ele><time>2026-04-18T11:28:41Z</time></trkpt><trkpt lat="48.02965615189683" lon="11.693150763463242"><ele>585.0</ele><time>2026-04-18T11:28:42Z</time></trkpt><trkpt lat="48.02978051822395" lon="11.692998588098224"><ele>585.0</ele><time>2026-04-18T11:28:43Z</time></trkpt><trkpt lat="48.029911414863356" lon="11.69283853678737"><ele>585.0</ele><time>2026-04-18T11:28:44Z</time></trkpt><trkpt lat="48.03004426824246" lon="11.69267519090204"><ele>585.0</ele><time>2026-04-18T11:28:45Z</time></trkpt><trkpt lat="48.030177360218836" lon="11.692506836962139"><ele>584.0</ele><time>2026-04-18T11:28:46Z</time></trkpt><trkpt lat="48.0303114199864" lon="11.69233746569744"><ele>583.0</ele><time>2026-04-18T11:28:47Z</time></trkpt><trkpt lat="48.03044382212415" lon="11.692160545199998"><ele>582.0</ele><time>2026-04-18T11:28:48Z</time></trkpt><trkpt lat="48.030579617066024" lon="11.691985091720547"><ele>581.6666666666666</ele><time>2026-04-18T11:28:49Z</time></trkpt><trkpt lat="48.030717447295764" lon="11.691814381650277"><ele>581.3333333333333</ele><time>2026-04-18T11:28:50Z</time></trkpt><trkpt lat="48.03085533872901" lon="11.69164242856391"><ele>581.0</ele><time>2026-04-18T11:28:51Z</time></trkpt><trkpt lat="48.030990318883276" lon="11.691468501349773"><ele>581.0</ele><time>2026-04-18T11:28:52Z</time></trkpt><trkpt lat="48.031127827972284" lon="11.69129687448876"><ele>581.0</ele><time>2026-04-18T11:28:53Z</time></trkpt><trkpt lat="48.031267320695235" lon="11.691127575173933"><ele>581.0</ele><time>2026-04-18T11:28:54Z</time></trkpt><trkpt lat="48.03140526150142" lon="11.690949045697618"><ele>580.3333333333333</ele><time>2026-04-18T11:28:55Z</time></trkpt><trkpt lat="48.03154878439382" lon="11.69076992976644"><ele>579.6666666666666</ele><time>2026-04-18T11:28:56Z</time></trkpt><trkpt lat="48.03169679358171" lon="11.690594456001826"><ele>579.0</ele><time>2026-04-18T11:28:57Z</time></trkpt><trkpt lat="48.03184556286564" lon="11.69041908188657"><ele>578.6666666666666</ele><time>2026-04-18T11:28:58Z</time></trkpt><trkpt lat="48.031994114304844" lon="11.690238514205909"><ele>578.3333333333333</ele><time>2026-04-18T11:28:59Z</time></trkpt><trkpt lat="48.03214732814862" lon="11.690066351929948"><ele>578.0</ele><time>2026-04-18T11:29:00Z</time></trkpt><trkpt lat="48.03230027161387" lon="11.689893285357414"><ele>578.0</ele><time>2026-04-18T11:29:01Z</time></trkpt><trkpt lat="48.032453386240974" lon="11.689718070519396"><ele>578.0</ele><time>2026-04-18T11:29:02Z</time></trkpt><trkpt lat="48.032606439495645" lon="11.689543831281137"><ele>578.0</ele><time>2026-04-18T11:29:03Z</time></trkpt><trkpt lat="48.0327575719338" lon="11.689365657725093"><ele>578.0</ele><time>2026-04-18T11:29:04Z</time></trkpt><trkpt lat="48.03290885585873" lon="11.689185501447097"><ele>578.0</ele><time>2026-04-18T11:29:05Z</time></trkpt><trkpt lat="48.03305939877256" lon="11.689008691022819"><ele>578.0</ele><time>2026-04-18T11:29:06Z</time></trkpt><trkpt lat="48.03320808801181" lon="11.688829421610544"><ele>578.3333333333333</ele><time>2026-04-18T11:29:07Z</time></trkpt><trkpt lat="48.03335431266674" lon="11.68864653004559"><ele>578.6666666666666</ele><time>2026-04-18T11:29:08Z</time></trkpt><trkpt lat="48.033500616519824" lon="11.688464240623315"><ele>579.0</ele><time>2026-04-18T11:29:09Z</time></trkpt><trkpt lat="48.03364599477376" lon="11.688279802648754"><ele>579.0</ele><time>2026-04-18T11:29:10Z</time></trkpt><trkpt lat="48.03378804203554" lon="11.688093616151153"><ele>579.0</ele><time>2026-04-18T11:29:11Z</time></trkpt><trkpt lat="48.03393130208391" lon="11.687906731887203"><ele>579.0</ele><time>2026-04-18T11:29:12Z</time></trkpt><trkpt lat="48.034078831373805" lon="11.687723551288302"><ele>578.3333333333334</ele><time>2026-04-18T11:29:13Z</time></trkpt><trkpt lat="48.03422603740074" lon="11.687537706533078"><ele>577.6666666666667</ele><time>2026-04-18T11:29:14Z</time></trkpt><trkpt lat="48.034372475077106" lon="11.687346062984474"><ele>577.0</ele><time>2026-04-18T11:29:15Z</time></trkpt><trkpt lat="48.0345168753769" lon="11.687152377949621"><ele>577.0</ele><time>2026-04-18T11:29:16Z</time></trkpt><trkpt lat="48.03465913895725" lon="11.686956018918723"><ele>577.0</ele><time>2026-04-18T11:29:17Z</time></trkpt><trkpt lat="48.03480537899141" lon="11.68676323182263"><ele>577.0</ele><time>2026-04-18T11:29:18Z</time></trkpt><trkpt lat="48.034943352435505" lon="11.686565714924175"><ele>577.0</ele><time>2026-04-18T11:29:19Z</time></trkpt><trkpt lat="48.03509720721107" lon="11.686390532846241"><ele>577.0</ele><time>2026-04-18T11:29:20Z</time></trkpt><trkpt lat="48.035240987899925" lon="11.686197893760559"><ele>577.0</ele><time>2026-04-18T11:29:21Z</time></trkpt><trkpt lat="48.03538549864843" lon="11.686004278318423"><ele>577.0</ele><time>2026-04-18T11:29:22Z</time></trkpt><trkpt lat="48.035532606384116" lon="11.685807183490724"><ele>577.0</ele><time>2026-04-18T11:29:23Z</time></trkpt><trkpt lat="48.035683027297715" lon="11.685604445139369"><ele>577.0</ele><time>2026-04-18T11:29:24Z</time></trkpt><trkpt lat="48.03583774208005" lon="11.685395872833602"><ele>577.0</ele><time>2026-04-18T11:29:25Z</time></trkpt><trkpt lat="48.03598432999649" lon="11.685166426364077"><ele>577.0</ele><time>2026-04-18T11:29:26Z</time></trkpt><trkpt lat="48.03613599677053" lon="11.684965563146704"><ele>577.0</ele><time>2026-04-18T11:29:27Z</time></trkpt><trkpt lat="48.03628065835398" lon="11.684770213133072"><ele>577.0</ele><time>2026-04-18T11:29:28Z</time></trkpt><trkpt lat="48.03643680187694" lon="11.684591912355021"><ele>577.0</ele><time>2026-04-18T11:29:29Z</time></trkpt><trkpt lat="48.03658210061558" lon="11.68439800474117"><ele>577.0</ele><time>2026-04-18T11:29:30Z</time></trkpt><trkpt lat="48.03672296129801" lon="11.684210019885697"><ele>576.6666666666667</ele><time>2026-04-18T11:29:31Z</time></trkpt><trkpt lat="48.03685283031368" lon="11.684012025416173"><ele>576.3333333333334</ele><time>2026-04-18T11:29:32Z</time></trkpt><trkpt lat="48.036992182589586" lon="11.683844009835884"><ele>576.0</ele><time>2026-04-18T11:29:33Z</time></trkpt><trkpt lat="48.03713204655296" lon="11.683666016797197"><ele>576.0</ele><time>2026-04-18T11:29:34Z</time></trkpt><trkpt lat="48.03726837310101" lon="11.68347802727125"><ele>576.0</ele><time>2026-04-18T11:29:35Z</time></trkpt><trkpt lat="48.03739949511151" lon="11.683293551069113"><ele>576.0</ele><time>2026-04-18T11:29:36Z</time></trkpt><trkpt lat="48.037523468978584" lon="11.683114315617624"><ele>575.3333333333334</ele><time>2026-04-18T11:29:37Z</time></trkpt><trkpt lat="48.03765427580316" lon="11.68295808068233"><ele>574.6666666666667</ele><time>2026-04-18T11:29:38Z</time></trkpt><trkpt lat="48.03777771164668" lon="11.68279368909753"><ele>574.0</ele><time>2026-04-18T11:29:39Z</time></trkpt><trkpt lat="48.03788946370466" lon="11.682622358984874"><ele>574.0</ele><time>2026-04-18T11:29:40Z</time></trkpt><trkpt lat="48.03799583455305" lon="11.682472805927851"><ele>574.0</ele><time>2026-04-18T11:29:41Z</time></trkpt><trkpt lat="48.03810494639257" lon="11.68234248916747"><ele>574.0</ele><time>2026-04-18T11:29:42Z</time></trkpt><trkpt lat="48.03819707226174" lon="11.682206406906005"><ele>574.0</ele><time>2026-04-18T11:29:43Z</time></trkpt><trkpt lat="48.03828960818341" lon="11.682081841933787"><ele>574.0</ele><time>2026-04-18T11:29:44Z</time></trkpt><trkpt lat="48.0383824981399" lon="11.68196113325416"><ele>574.0</ele><time>2026-04-18T11:29:45Z</time></trkpt><trkpt lat="48.038479195402246" lon="11.681841814446422"><ele>574.0</ele><time>2026-04-18T11:29:46Z</time></trkpt><trkpt lat="48.0385768289883" lon="11.681718970008342"><ele>574.0</ele><time>2026-04-18T11:29:47Z</time></trkpt><trkpt lat="48.03866722187748" lon="11.681597821207363"><ele>574.25</ele><time>2026-04-18T11:29:48Z</time></trkpt><trkpt lat="48.03875559658231" lon="11.681481454586878"><ele>574.5</ele><time>2026-04-18T11:29:49Z</time></trkpt><trkpt lat="48.03885085298611" lon="11.681357807427526"><ele>574.75</ele><time>2026-04-18T11:29:50Z</time></trkpt><trkpt lat="48.038951956980426" lon="11.68122217173211"><ele>575.0</ele><time>2026-04-18T11:29:51Z</time></trkpt><trkpt lat="48.039061049714405" lon="11.681075816152779"><ele>572.6666666666666</ele><time>2026-04-18T11:29:52Z</time></trkpt><trkpt lat="48.039179318845385" lon="11.680922235286884"><ele>570.3333333333334</ele><time>2026-04-18T11:29:53Z</time></trkpt><trkpt lat="48.039295800272214" lon="11.680773450796075"><ele>568.0</ele><time>2026-04-18T11:29:54Z</time></trkpt><trkpt lat="48.03942129545005" lon="11.680609574664498"><ele>568.0</ele><time>2026-04-18T11:29:55Z</time></trkpt><trkpt lat="48.039568042990254" lon="11.680423950575692"><ele>568.0</ele><time>2026-04-18T11:29:56Z</time></trkpt><trkpt lat="48.039720165287704" lon="11.680228838925427"><ele>568.0</ele><time>2026-04-18T11:29:57Z</time></trkpt><trkpt lat="48.03987370078668" lon="11.680037396318035"><ele>567.6666666666667</ele><time>2026-04-18T11:29:58Z</time></trkpt><trkpt lat="48.04001966531023" lon="11.679857785827881"><ele>567.3333333333334</ele><time>2026-04-18T11:29:59Z</time></trkpt><trkpt lat="48.04016367095779" lon="11.679677703293867"><ele>567.0</ele><time>2026-04-18T11:30:00Z</time></trkpt><trkpt lat="48.04030189406911" lon="11.679496659612752"><ele>567.6666666666666</ele><time>2026-04-18T11:30:01Z</time></trkpt><trkpt lat="48.040444218348654" lon="11.679315013710205"><ele>568.3333333333333</ele><time>2026-04-18T11:30:02Z</time></trkpt><trkpt lat="48.040581282988335" lon="11.679136490825783"><ele>569.0</ele><time>2026-04-18T11:30:03Z</time></trkpt><trkpt lat="48.040720545662374" lon="11.678962334461152"><ele>568.6666666666666</ele><time>2026-04-18T11:30:04Z</time></trkpt><trkpt lat="48.04085467085327" lon="11.678790888937455"><ele>568.3333333333334</ele><time>2026-04-18T11:30:05Z</time></trkpt><trkpt lat="48.040989784601805" lon="11.678623148906343"><ele>568.0</ele><time>2026-04-18T11:30:06Z</time></trkpt><trkpt lat="48.04112347365659" lon="11.67845774972155"><ele>568.0</ele><time>2026-04-18T11:30:07Z</time></trkpt><trkpt lat="48.04125126032642" lon="11.678295321708177"><ele>568.0</ele><time>2026-04-18T11:30:08Z</time></trkpt><trkpt lat="48.04137644433017" lon="11.678134780733814"><ele>568.0</ele><time>2026-04-18T11:30:09Z</time></trkpt><trkpt lat="48.041500307548624" lon="11.677973825029579"><ele>568.0</ele><time>2026-04-18T11:30:10Z</time></trkpt><trkpt lat="48.041625493896575" lon="11.677810589306612"><ele>568.0</ele><time>2026-04-18T11:30:11Z</time></trkpt><trkpt lat="48.04175210784818" lon="11.677636909607616"><ele>568.0</ele><time>2026-04-18T11:30:12Z</time></trkpt><trkpt lat="48.04188063780915" lon="11.677462130041077"><ele>569.3333333333334</ele><time>2026-04-18T11:30:13Z</time></trkpt><trkpt lat="48.04201039271362" lon="11.677285894388413"><ele>570.6666666666666</ele><time>2026-04-18T11:30:14Z</time></trkpt><trkpt lat="48.04213713805755" lon="11.67711035929262"><ele>572.0</ele><time>2026-04-18T11:30:15Z</time></trkpt><trkpt lat="48.04226363530513" lon="11.676935242728257"><ele>572.0</ele><time>2026-04-18T11:30:16Z</time></trkpt><trkpt lat="48.04239109998243" lon="11.676758199728605"><ele>572.0</ele><time>2026-04-18T11:30:17Z</time></trkpt><trkpt lat="48.04251648310111" lon="11.676583531433565"><ele>572.0</ele><time>2026-04-18T11:30:18Z</time></trkpt><trkpt lat="48.042642715679165" lon="11.676407236118234"><ele>571.6666666666666</ele><time>2026-04-18T11:30:19Z</time></trkpt><trkpt lat="48.04276735153431" lon="11.676232980156776"><ele>571.3333333333334</ele><time>2026-04-18T11:30:20Z</time></trkpt><trkpt lat="48.04288675833451" lon="11.676062569927252"><ele>571.0</ele><time>2026-04-18T11:30:21Z</time></trkpt><trkpt lat="48.0430102806493" lon="11.675895797882362"><ele>570.6666666666667</ele><time>2026-04-18T11:30:22Z</time></trkpt><trkpt lat="48.043142519871346" lon="11.675728325631379"><ele>570.3333333333334</ele><time>2026-04-18T11:30:23Z</time></trkpt><trkpt lat="48.043269869375486" lon="11.675552710454342"><ele>570.0</ele><time>2026-04-18T11:30:24Z</time></trkpt><trkpt lat="48.04340041308671" lon="11.675383410021015"><ele>570.0</ele><time>2026-04-18T11:30:25Z</time></trkpt><trkpt lat="48.04352768967678" lon="11.67520738777579"><ele>570.0</ele><time>2026-04-18T11:30:26Z</time></trkpt><trkpt lat="48.043651091925796" lon="11.675058479075823"><ele>570.0</ele><time>2026-04-18T11:30:27Z</time></trkpt><trkpt lat="48.0437807290246" lon="11.674912685928849"><ele>570.0</ele><time>2026-04-18T11:30:28Z</time></trkpt><trkpt lat="48.04390801832689" lon="11.674770061650507"><ele>570.0</ele><time>2026-04-18T11:30:29Z</time></trkpt><trkpt lat="48.044032193934925" lon="11.674634934320256"><ele>570.0</ele><time>2026-04-18T11:30:30Z</time></trkpt><trkpt lat="48.044158703907776" lon="11.67451184618605"><ele>569.5</ele><time>2026-04-18T11:30:31Z</time></trkpt><trkpt lat="48.04428647463747" lon="11.674393874390086"><ele>569.0</ele><time>2026-04-18T11:30:32Z</time></trkpt><trkpt lat="48.04440655571842" lon="11.674275429591951"><ele>568.5</ele><time>2026-04-18T11:30:33Z</time></trkpt><trkpt lat="48.04453168284049" lon="11.674172816850884"><ele>568.0</ele><time>2026-04-18T11:30:34Z</time></trkpt><trkpt lat="48.04464447002993" lon="11.674071721547303"><ele>568.0</ele><time>2026-04-18T11:30:35Z</time></trkpt><trkpt lat="48.04474695996066" lon="11.673989989243907"><ele>568.0</ele><time>2026-04-18T11:30:36Z</time></trkpt><trkpt lat="48.044833520741456" lon="11.673926096268113"><ele>568.0</ele><time>2026-04-18T11:30:37Z</time></trkpt><trkpt lat="48.044919304016524" lon="11.673871027532973"><ele>568.0</ele><time>2026-04-18T11:30:38Z</time></trkpt><trkpt lat="48.044992406757856" lon="11.673798201576844"><ele>568.0</ele><time>2026-04-18T11:30:39Z</time></trkpt><trkpt lat="48.045067232647824" lon="11.67375150683622"><ele>568.1999999999999</ele><time>2026-04-18T11:30:40Z</time></trkpt><trkpt lat="48.04514219787696" lon="11.67371604445473"><ele>568.4</ele><time>2026-04-18T11:30:41Z</time></trkpt><trkpt lat="48.04519790188414" lon="11.673662937464494"><ele>568.5999999999999</ele><time>2026-04-18T11:30:42Z</time></trkpt><trkpt lat="48.04526630784684" lon="11.673734686801462"><ele>568.8</ele><time>2026-04-18T11:30:43Z</time></trkpt><trkpt lat="48.045374853535165" lon="11.673846468849078"><ele>569.0</ele><time>2026-04-18T11:30:45Z</time></trkpt><trkpt lat="48.04542178841889" lon="11.673965729636688"><ele>569.0</ele><time>2026-04-18T11:30:46Z</time></trkpt><trkpt lat="48.04546630977193" lon="11.674112367156184"><ele>569.0</ele><time>2026-04-18T11:30:47Z</time></trkpt><trkpt lat="48.04549254002244" lon="11.674290061116318"><ele>569.0</ele><time>2026-04-18T11:30:48Z</time></trkpt><trkpt lat="48.04551571675585" lon="11.674501588294243"><ele>569.0</ele><time>2026-04-18T11:30:49Z</time></trkpt><trkpt lat="48.045540684592766" lon="11.674721571829018"><ele>570.0</ele><time>2026-04-18T11:30:50Z</time></trkpt><trkpt lat="48.04558431055767" lon="11.674952876687884"><ele>571.0</ele><time>2026-04-18T11:30:51Z</time></trkpt><trkpt lat="48.04561964842723" lon="11.675166352467096"><ele>572.0</ele><time>2026-04-18T11:30:52Z</time></trkpt><trkpt lat="48.045652013813616" lon="11.675363375566668"><ele>573.0</ele><time>2026-04-18T11:30:53Z</time></trkpt><trkpt lat="48.04568297146463" lon="11.67554828895938"><ele>573.5</ele><time>2026-04-18T11:30:54Z</time></trkpt><trkpt lat="48.04569320757781" lon="11.675753667063848"><ele>574.0</ele><time>2026-04-18T11:30:55Z</time></trkpt><trkpt lat="48.04571438335754" lon="11.675932375066663"><ele>574.5</ele><time>2026-04-18T11:30:56Z</time></trkpt><trkpt lat="48.045734425682326" lon="11.67613090657485"><ele>575.0</ele><time>2026-04-18T11:30:57Z</time></trkpt><trkpt lat="48.04575518424169" lon="11.67633369641663"><ele>575.0</ele><time>2026-04-18T11:30:58Z</time></trkpt><trkpt lat="48.04578330135992" lon="11.676527248430899"><ele>575.0</ele><time>2026-04-18T11:30:59Z</time></trkpt><trkpt lat="48.04580726041837" lon="11.676709595132907"><ele>575.0</ele><time>2026-04-18T11:31:00Z</time></trkpt><trkpt lat="48.04583153685984" lon="11.676895917653438"><ele>575.0</ele><time>2026-04-18T11:31:01Z</time></trkpt><trkpt lat="48.045854185619994" lon="11.677087285696304"><ele>574.0</ele><time>2026-04-18T11:31:02Z</time></trkpt><trkpt lat="48.04588370974817" lon="11.677283927319086"><ele>573.0</ele><time>2026-04-18T11:31:03Z</time></trkpt><trkpt lat="48.04591081283833" lon="11.677495012561488"><ele>572.0</ele><time>2026-04-18T11:31:04Z</time></trkpt><trkpt lat="48.045936253651426" lon="11.677726449715355"><ele>571.0</ele><time>2026-04-18T11:31:05Z</time></trkpt><trkpt lat="48.04595652727429" lon="11.677967088132704"><ele>569.3333333333334</ele><time>2026-04-18T11:31:06Z</time></trkpt><trkpt lat="48.045985210785226" lon="11.678217897620446"><ele>567.6666666666666</ele><time>2026-04-18T11:31:07Z</time></trkpt><trkpt lat="48.04601397877845" lon="11.67847368913533"><ele>566.0</ele><time>2026-04-18T11:31:08Z</time></trkpt><trkpt lat="48.046044100668134" lon="11.678738451887785"><ele>566.0</ele><time>2026-04-18T11:31:09Z</time></trkpt><trkpt lat="48.04607886946418" lon="11.67900624460572"><ele>566.0</ele><time>2026-04-18T11:31:10Z</time></trkpt><trkpt lat="48.04610980626129" lon="11.679274312244967"><ele>566.0</ele><time>2026-04-18T11:31:11Z</time></trkpt><trkpt lat="48.04614706809729" lon="11.679544303156016"><ele>566.3333333333333</ele><time>2026-04-18T11:31:12Z</time></trkpt><trkpt lat="48.04618377516594" lon="11.679811635477293"><ele>566.6666666666666</ele><time>2026-04-18T11:31:13Z</time></trkpt><trkpt lat="48.04621632355038" lon="11.68008019573696"><ele>567.0</ele><time>2026-04-18T11:31:14Z</time></trkpt><trkpt lat="48.04625377799624" lon="11.68034883854666"><ele>567.3333333333334</ele><time>2026-04-18T11:31:15Z</time></trkpt><trkpt lat="48.04628842183524" lon="11.68061713687473"><ele>567.6666666666667</ele><time>2026-04-18T11:31:16Z</time></trkpt><trkpt lat="48.04631990224558" lon="11.680887120451986"><ele>568.0</ele><time>2026-04-18T11:31:17Z</time></trkpt><trkpt lat="48.0463544456075" lon="11.68116270956597"><ele>568.0</ele><time>2026-04-18T11:31:18Z</time></trkpt><trkpt lat="48.04639410939966" lon="11.681442396984064"><ele>568.0</ele><time>2026-04-18T11:31:19Z</time></trkpt><trkpt lat="48.046431864540125" lon="11.681721316203776"><ele>568.0</ele><time>2026-04-18T11:31:20Z</time></trkpt><trkpt lat="48.046472158069264" lon="11.682000206118065"><ele>568.0</ele><time>2026-04-18T11:31:21Z</time></trkpt><trkpt lat="48.046497309752084" lon="11.682280684503317"><ele>568.0</ele><time>2026-04-18T11:31:22Z</time></trkpt><trkpt lat="48.04653162397439" lon="11.682564546492715"><ele>568.0</ele><time>2026-04-18T11:31:23Z</time></trkpt><trkpt lat="48.0465765975626" lon="11.682866717222884"><ele>568.0</ele><time>2026-04-18T11:31:24Z</time></trkpt><trkpt lat="48.0466185706146" lon="11.683185748081694"><ele>568.0</ele><time>2026-04-18T11:31:25Z</time></trkpt><trkpt lat="48.04666569455887" lon="11.683515279072024"><ele>568.0</ele><time>2026-04-18T11:31:26Z</time></trkpt><trkpt lat="48.04670607837723" lon="11.683850953661356"><ele>568.5</ele><time>2026-04-18T11:31:27Z</time></trkpt><trkpt lat="48.046745897088904" lon="11.684192853775837"><ele>569.0</ele><time>2026-04-18T11:31:28Z</time></trkpt><trkpt lat="48.04678357528968" lon="11.684530180508744"><ele>569.0</ele><time>2026-04-18T11:31:29Z</time></trkpt><trkpt lat="48.046818281414126" lon="11.68486705398422"><ele>569.0</ele><time>2026-04-18T11:31:30Z</time></trkpt><trkpt lat="48.046851045537686" lon="11.685202772697343"><ele>568.3333333333333</ele><time>2026-04-18T11:31:31Z</time></trkpt><trkpt lat="48.04688209998753" lon="11.685533698719503"><ele>567.6666666666666</ele><time>2026-04-18T11:31:32Z</time></trkpt><trkpt lat="48.04690790334482" lon="11.685863254225572"><ele>567.0</ele><time>2026-04-18T11:31:33Z</time></trkpt><trkpt lat="48.04693276329612" lon="11.686197344381966"><ele>567.0</ele><time>2026-04-18T11:31:34Z</time></trkpt><trkpt lat="48.04695821694952" lon="11.68653672320634"><ele>567.0</ele><time>2026-04-18T11:31:35Z</time></trkpt><trkpt lat="48.04698173889948" lon="11.686884966782563"><ele>567.0</ele><time>2026-04-18T11:31:36Z</time></trkpt><trkpt lat="48.047003777405344" lon="11.687238028582732"><ele>567.0</ele><time>2026-04-18T11:31:37Z</time></trkpt><trkpt lat="48.04702199079501" lon="11.687596996674488"><ele>566.0</ele><time>2026-04-18T11:31:38Z</time></trkpt><trkpt lat="48.04703715180869" lon="11.687957581647265"><ele>565.0</ele><time>2026-04-18T11:31:39Z</time></trkpt><trkpt lat="48.04705211738079" lon="11.688311499816654"><ele>566.0</ele><time>2026-04-18T11:31:40Z</time></trkpt><trkpt lat="48.04706572785948" lon="11.688657422181102"><ele>567.0</ele><time>2026-04-18T11:31:41Z</time></trkpt><trkpt lat="48.047078142729276" lon="11.689001513382454"><ele>567.0</ele><time>2026-04-18T11:31:42Z</time></trkpt><trkpt lat="48.047089558501135" lon="11.689340667895785"><ele>567.0</ele><time>2026-04-18T11:31:43Z</time></trkpt><trkpt lat="48.047099539062145" lon="11.689678775716164"><ele>567.5</ele><time>2026-04-18T11:31:44Z</time></trkpt><trkpt lat="48.04710837546153" lon="11.690022972743202"><ele>568.0</ele><time>2026-04-18T11:31:45Z</time></trkpt><trkpt lat="48.04712034309537" lon="11.69037045307039"><ele>568.0</ele><time>2026-04-18T11:31:46Z</time></trkpt><trkpt lat="48.047131125834824" lon="11.690719841287672"><ele>568.0</ele><time>2026-04-18T11:31:47Z</time></trkpt><trkpt lat="48.0471443762585" lon="11.691069840290622"><ele>567.5</ele><time>2026-04-18T11:31:48Z</time></trkpt><trkpt lat="48.04715811466022" lon="11.691417956769216"><ele>567.0</ele><time>2026-04-18T11:31:49Z</time></trkpt><trkpt lat="48.047174579478494" lon="11.69176412984518"><ele>567.0</ele><time>2026-04-18T11:31:50Z</time></trkpt><trkpt lat="48.047192633160215" lon="11.692102474807891"><ele>567.0</ele><time>2026-04-18T11:31:51Z</time></trkpt><trkpt lat="48.0472094692976" lon="11.692425197940034"><ele>567.0</ele><time>2026-04-18T11:31:52Z</time></trkpt><trkpt lat="48.04722596882242" lon="11.692732675837004"><ele>567.3333333333334</ele><time>2026-04-18T11:31:53Z</time></trkpt><trkpt lat="48.04724406103365" lon="11.69303957339202"><ele>567.6666666666667</ele><time>2026-04-18T11:31:54Z</time></trkpt><trkpt lat="48.04726454534481" lon="11.693336907411899"><ele>568.0</ele><time>2026-04-18T11:31:55Z</time></trkpt><trkpt lat="48.047287503888946" lon="11.693635043219688"><ele>568.0</ele><time>2026-04-18T11:31:56Z</time></trkpt><trkpt lat="48.04731131373906" lon="11.693931815736667"><ele>568.0</ele><time>2026-04-18T11:31:57Z</time></trkpt><trkpt lat="48.04733662526298" lon="11.694227953075112"><ele>568.0</ele><time>2026-04-18T11:31:58Z</time></trkpt><trkpt lat="48.04736319001029" lon="11.694520837979368"><ele>568.0</ele><time>2026-04-18T11:31:59Z</time></trkpt><trkpt lat="48.04738677701336" lon="11.694803736240555"><ele>568.0</ele><time>2026-04-18T11:32:00Z</time></trkpt><trkpt lat="48.04740668384007" lon="11.695066882519246"><ele>568.0</ele><time>2026-04-18T11:32:01Z</time></trkpt><trkpt lat="48.04742770254329" lon="11.695321161184408"><ele>567.6666666666667</ele><time>2026-04-18T11:32:02Z</time></trkpt><trkpt lat="48.04744878010867" lon="11.69556202326994"><ele>567.3333333333334</ele><time>2026-04-18T11:32:03Z</time></trkpt><trkpt lat="48.04746976159775" lon="11.695793110860572"><ele>567.0</ele><time>2026-04-18T11:32:04Z</time></trkpt><trkpt lat="48.047490194589386" lon="11.696007691376698"><ele>567.0</ele><time>2026-04-18T11:32:05Z</time></trkpt><trkpt lat="48.04751052731175" lon="11.696209154226823"><ele>567.0</ele><time>2026-04-18T11:32:06Z</time></trkpt><trkpt lat="48.04753125323307" lon="11.696403153246873"><ele>567.0</ele><time>2026-04-18T11:32:07Z</time></trkpt><trkpt lat="48.04755248728894" lon="11.696596245226637"><ele>567.0</ele><time>2026-04-18T11:32:08Z</time></trkpt><trkpt lat="48.047570183817875" lon="11.696785015204389"><ele>566.75</ele><time>2026-04-18T11:32:09Z</time></trkpt><trkpt lat="48.047587260378215" lon="11.69696775925311"><ele>566.5</ele><time>2026-04-18T11:32:10Z</time></trkpt><trkpt lat="48.04760451181248" lon="11.697155133567376"><ele>566.25</ele><time>2026-04-18T11:32:11Z</time></trkpt><trkpt lat="48.04762251300552" lon="11.697347508218156"><ele>566.0</ele><time>2026-04-18T11:32:12Z</time></trkpt><trkpt lat="48.04764017769738" lon="11.69753762295011"><ele>566.0</ele><time>2026-04-18T11:32:13Z</time></trkpt><trkpt lat="48.04765734230548" lon="11.697721400642537"><ele>566.0</ele><time>2026-04-18T11:32:14Z</time></trkpt><trkpt lat="48.047672767929235" lon="11.697899768373354"><ele>566.0</ele><time>2026-04-18T11:32:15Z</time></trkpt><trkpt lat="48.04768995508282" lon="11.698072113785596"><ele>566.0</ele><time>2026-04-18T11:32:16Z</time></trkpt><trkpt lat="48.04770679141785" lon="11.698241308102261"><ele>566.8</ele><time>2026-04-18T11:32:17Z</time></trkpt><trkpt lat="48.0477201741869" lon="11.69840621167076"><ele>567.6</ele><time>2026-04-18T11:32:18Z</time></trkpt><trkpt lat="48.04773072139594" lon="11.698572139364941"><ele>568.4</ele><time>2026-04-18T11:32:19Z</time></trkpt><trkpt lat="48.047743065193465" lon="11.698740933182874"><ele>569.2</ele><time>2026-04-18T11:32:20Z</time></trkpt><trkpt lat="48.0477567312874" lon="11.698909369373402"><ele>570.0</ele><time>2026-04-18T11:32:21Z</time></trkpt><trkpt lat="48.04776478740549" lon="11.69907036739599"><ele>570.2</ele><time>2026-04-18T11:32:22Z</time></trkpt><trkpt lat="48.04776754899242" lon="11.699230040973006"><ele>570.4</ele><time>2026-04-18T11:32:23Z</time></trkpt><trkpt lat="48.047777672519864" lon="11.699387873687659"><ele>570.6</ele><time>2026-04-18T11:32:24Z</time></trkpt><trkpt lat="48.04779342675682" lon="11.699544267778023"><ele>570.8</ele><time>2026-04-18T11:32:25Z</time></trkpt><trkpt lat="48.0478043165145" lon="11.699697808995243"><ele>571.0</ele><time>2026-04-18T11:32:26Z</time></trkpt><trkpt lat="48.04781130920511" lon="11.699831655050813"><ele>570.6666666666667</ele><time>2026-04-18T11:32:27Z</time></trkpt><trkpt lat="48.04782140748311" lon="11.699960608730677"><ele>570.3333333333334</ele><time>2026-04-18T11:32:28Z</time></trkpt><trkpt lat="48.04782920626108" lon="11.700075600759867"><ele>570.0</ele><time>2026-04-18T11:32:29Z</time></trkpt><trkpt lat="48.047839130865" lon="11.700189738992263"><ele>569.6666666666666</ele><time>2026-04-18T11:32:30Z</time></trkpt><trkpt lat="48.04785450288485" lon="11.700299375939085"><ele>569.3333333333333</ele><time>2026-04-18T11:32:31Z</time></trkpt><trkpt lat="48.04787020198018" lon="11.700403662617322"><ele>569.0</ele><time>2026-04-18T11:32:32Z</time></trkpt><trkpt lat="48.04789119991823" lon="11.700558839745343"><ele>569.0</ele><time>2026-04-18T11:32:34Z</time></trkpt><trkpt lat="48.047909663431774" lon="11.700695046697044"><ele>569.0</ele><time>2026-04-18T11:32:36Z</time></trkpt><trkpt lat="48.04792850067315" lon="11.700802720335462"><ele>569.0</ele><time>2026-04-18T11:32:40Z</time></trkpt><trkpt lat="48.04794775053147" lon="11.70089563540912"><ele>569.0</ele><time>2026-04-18T11:32:47Z</time></trkpt><trkpt lat="48.0479656390953" lon="11.70099568239203"><ele>569.0</ele><time>2026-04-18T11:32:50Z</time></trkpt><trkpt lat="48.04798892416889" lon="11.701151801981645"><ele>569.0</ele><time>2026-04-18T11:32:52Z</time></trkpt><trkpt lat="48.048012370200375" lon="11.701333010747213"><ele>569.1666666666666</ele><time>2026-04-18T11:32:54Z</time></trkpt><trkpt lat="48.04802463881307" lon="11.701447037516083"><ele>569.3333333333333</ele><time>2026-04-18T11:32:55Z</time></trkpt><trkpt lat="48.048038514038474" lon="11.701555457953118"><ele>569.5</ele><time>2026-04-18T11:32:56Z</time></trkpt><trkpt lat="48.048055360983035" lon="11.701674556862075"><ele>569.6666666666666</ele><time>2026-04-18T11:32:57Z</time></trkpt><trkpt lat="48.048071284854636" lon="11.70179778080334"><ele>569.8333333333334</ele><time>2026-04-18T11:32:58Z</time></trkpt><trkpt lat="48.04808445184666" lon="11.701922747443522"><ele>570.0</ele><time>2026-04-18T11:32:59Z</time></trkpt><trkpt lat="48.04809890950166" lon="11.70204299992802"><ele>570.2</ele><time>2026-04-18T11:33:00Z</time></trkpt><trkpt lat="48.0481071645599" lon="11.702176593094288"><ele>570.4</ele><time>2026-04-18T11:33:01Z</time></trkpt><trkpt lat="48.04811842181513" lon="11.702322786540961"><ele>570.6</ele><time>2026-04-18T11:33:02Z</time></trkpt><trkpt lat="48.04812120446868" lon="11.702483426526214"><ele>570.8</ele><time>2026-04-18T11:33:03Z</time></trkpt><trkpt lat="48.04812108011772" lon="11.702650552384714"><ele>571.0</ele><time>2026-04-18T11:33:04Z</time></trkpt><trkpt lat="48.04812371491806" lon="11.702803039083799"><ele>571.2</ele><time>2026-04-18T11:33:05Z</time></trkpt><trkpt lat="48.04813298140288" lon="11.702944339444663"><ele>571.4000000000001</ele><time>2026-04-18T11:33:06Z</time></trkpt><trkpt lat="48.04814662028083" lon="11.703086262418346"><ele>571.6</ele><time>2026-04-18T11:33:07Z</time></trkpt><trkpt lat="48.048159927438455" lon="11.703229243183621"><ele>571.8000000000001</ele><time>2026-04-18T11:33:08Z</time></trkpt><trkpt lat="48.04817428104808" lon="11.703370901649471"><ele>572.0</ele><time>2026-04-18T11:33:09Z</time></trkpt><trkpt lat="48.04819023383019" lon="11.703516332896376"><ele>571.6</ele><time>2026-04-18T11:33:10Z</time></trkpt><trkpt lat="48.048210973779526" lon="11.703659449502037"><ele>571.2</ele><time>2026-04-18T11:33:11Z</time></trkpt><trkpt lat="48.04822488885118" lon="11.703806662406771"><ele>570.8</ele><time>2026-04-18T11:33:12Z</time></trkpt><trkpt lat="48.04824475789943" lon="11.703955190147846"><ele>570.4</ele><time>2026-04-18T11:33:13Z</time></trkpt><trkpt lat="48.0482617883721" lon="11.70411057591216"><ele>570.0</ele><time>2026-04-18T11:33:14Z</time></trkpt><trkpt lat="48.04827445091137" lon="11.704269526148169"><ele>569.8</ele><time>2026-04-18T11:33:15Z</time></trkpt><trkpt lat="48.04828462183475" lon="11.704435301688923"><ele>569.6</ele><time>2026-04-18T11:33:16Z</time></trkpt><trkpt lat="48.0482963722314" lon="11.704602891208188"><ele>569.4</ele><time>2026-04-18T11:33:17Z</time></trkpt><trkpt lat="48.04831202809655" lon="11.70477151583055"><ele>569.2</ele><time>2026-04-18T11:33:18Z</time></trkpt><trkpt lat="48.048330220786106" lon="11.704936336411206"><ele>569.0</ele><time>2026-04-18T11:33:19Z</time></trkpt><trkpt lat="48.04835556997117" lon="11.705093951996567"><ele>569.0</ele><time>2026-04-18T11:33:20Z</time></trkpt><trkpt lat="48.04838378557872" lon="11.705242299149447"><ele>569.0</ele><time>2026-04-18T11:33:21Z</time></trkpt><trkpt lat="48.04842786629287" lon="11.705380312538681"><ele>569.0</ele><time>2026-04-18T11:33:22Z</time></trkpt><trkpt lat="48.04850017401601" lon="11.70551100379241"><ele>569.0</ele><time>2026-04-18T11:33:23Z</time></trkpt><trkpt lat="48.04859570918349" lon="11.70562509337677"><ele>569.0</ele><time>2026-04-18T11:33:24Z</time></trkpt><trkpt lat="48.048692466717284" lon="11.70571480296279"><ele>568.5</ele><time>2026-04-18T11:33:25Z</time></trkpt><trkpt lat="48.048809598649875" lon="11.705772793889802"><ele>568.0</ele><time>2026-04-18T11:33:26Z</time></trkpt><trkpt lat="48.04892563708587" lon="11.705813703013497"><ele>567.5</ele><time>2026-04-18T11:33:27Z</time></trkpt><trkpt lat="48.04904358299263" lon="11.705823777962799"><ele>567.0</ele><time>2026-04-18T11:33:28Z</time></trkpt><trkpt lat="48.04916598817463" lon="11.705806472559216"><ele>567.0</ele><time>2026-04-18T11:33:29Z</time></trkpt><trkpt lat="48.04928663952586" lon="11.705770351176797"><ele>567.0</ele><time>2026-04-18T11:33:30Z</time></trkpt><trkpt lat="48.04940379957148" lon="11.705717875265037"><ele>567.0</ele><time>2026-04-18T11:33:31Z</time></trkpt><trkpt lat="48.04951954848454" lon="11.705634731337499"><ele>567.0</ele><time>2026-04-18T11:33:32Z</time></trkpt><trkpt lat="48.04963166146641" lon="11.705528820664695"><ele>567.0</ele><time>2026-04-18T11:33:33Z</time></trkpt><trkpt lat="48.0497399270908" lon="11.70542812623552"><ele>567.0</ele><time>2026-04-18T11:33:34Z</time></trkpt><trkpt lat="48.04985012704272" lon="11.70533308273615"><ele>567.0</ele><time>2026-04-18T11:33:35Z</time></trkpt><trkpt lat="48.04995981213086" lon="11.705240212732564"><ele>567.0</ele><time>2026-04-18T11:33:36Z</time></trkpt><trkpt lat="48.05006825361119" lon="11.705153685565724"><ele>567.0</ele><time>2026-04-18T11:33:37Z</time></trkpt><trkpt lat="48.050175393430834" lon="11.705071520654965"><ele>567.0</ele><time>2026-04-18T11:33:38Z</time></trkpt><trkpt lat="48.050283826913315" lon="11.704994306503677"><ele>567.0</ele><time>2026-04-18T11:33:39Z</time></trkpt><trkpt lat="48.05039607888264" lon="11.704926562160068"><ele>567.0</ele><time>2026-04-18T11:33:40Z</time></trkpt><trkpt lat="48.05051182457435" lon="11.7048630801424"><ele>567.0</ele><time>2026-04-18T11:33:41Z</time></trkpt><trkpt lat="48.05062951684328" lon="11.704810981185311"><ele>567.0</ele><time>2026-04-18T11:33:42Z</time></trkpt><trkpt lat="48.05075079164358" lon="11.704769632674308"><ele>567.0</ele><time>2026-04-18T11:33:43Z</time></trkpt><trkpt lat="48.0508664165998" lon="11.704736331966403"><ele>567.0</ele><time>2026-04-18T11:33:44Z</time></trkpt><trkpt lat="48.05097510841055" lon="11.704704232344842"><ele>567.0</ele><time>2026-04-18T11:33:45Z</time></trkpt><trkpt lat="48.05107759681195" lon="11.704679433590277"><ele>567.0</ele><time>2026-04-18T11:33:46Z</time></trkpt><trkpt lat="48.05117092039332" lon="11.704665528523616"><ele>567.0</ele><time>2026-04-18T11:33:47Z</time></trkpt><trkpt lat="48.05125201699051" lon="11.704659665156967"><ele>567.0</ele><time>2026-04-18T11:33:48Z</time></trkpt><trkpt lat="48.051324442426235" lon="11.704659403149105"><ele>567.0</ele><time>2026-04-18T11:33:49Z</time></trkpt><trkpt lat="48.05140587309146" lon="11.704657619262516"><ele>567.0</ele><time>2026-04-18T11:33:50Z</time></trkpt><trkpt lat="48.0514802130232" lon="11.70466557366188"><ele>567.0</ele><time>2026-04-18T11:33:51Z</time></trkpt><trkpt lat="48.0515469723293" lon="11.704688239737758"><ele>567.0</ele><time>2026-04-18T11:33:52Z</time></trkpt><trkpt lat="48.051620070092845" lon="11.704733435497538"><ele>567.0</ele><time>2026-04-18T11:33:53Z</time></trkpt><trkpt lat="48.05169006012229" lon="11.70475628349878"><ele>567.0</ele><time>2026-04-18T11:33:54Z</time></trkpt><trkpt lat="48.0517715386833" lon="11.704709303628185"><ele>567.0</ele><time>2026-04-18T11:33:55Z</time></trkpt><trkpt lat="48.0518701257301" lon="11.70467730195942"><ele>567.0</ele><time>2026-04-18T11:33:56Z</time></trkpt><trkpt lat="48.051980849212015" lon="11.704689695441873"><ele>567.0</ele><time>2026-04-18T11:33:57Z</time></trkpt><trkpt lat="48.05209186894876" lon="11.704713930929008"><ele>567.0</ele><time>2026-04-18T11:33:58Z</time></trkpt><trkpt lat="48.052194380034436" lon="11.704743447988244"><ele>567.0</ele><time>2026-04-18T11:33:59Z</time></trkpt><trkpt lat="48.05230024238199" lon="11.704780231745096"><ele>567.0</ele><time>2026-04-18T11:34:00Z</time></trkpt><trkpt lat="48.052406364077186" lon="11.704814976313239"><ele>567.0</ele><time>2026-04-18T11:34:01Z</time></trkpt><trkpt lat="48.052513623609904" lon="11.704850399894232"><ele>567.0</ele><time>2026-04-18T11:34:02Z</time></trkpt><trkpt lat="48.05263839659503" lon="11.704895015053836"><ele>567.0</ele><time>2026-04-18T11:34:03Z</time></trkpt><trkpt lat="48.05276687503954" lon="11.704953649409088"><ele>567.0</ele><time>2026-04-18T11:34:04Z</time></trkpt><trkpt lat="48.05289898693323" lon="11.705015347036795"><ele>567.0</ele><time>2026-04-18T11:34:05Z</time></trkpt><trkpt lat="48.053034624917736" lon="11.705076367869143"><ele>567.0</ele><time>2026-04-18T11:34:06Z</time></trkpt><trkpt lat="48.05317864231659" lon="11.705139782355618"><ele>567.0</ele><time>2026-04-18T11:34:07Z</time></trkpt><trkpt lat="48.05332467972162" lon="11.705203320936468"><ele>567.0</ele><time>2026-04-18T11:34:08Z</time></trkpt><trkpt lat="48.05347925131009" lon="11.705264379605932"><ele>566.0</ele><time>2026-04-18T11:34:09Z</time></trkpt><trkpt lat="48.05363666505835" lon="11.705324555098931"><ele>565.0</ele><time>2026-04-18T11:34:10Z</time></trkpt><trkpt lat="48.053807060216585" lon="11.705375588414404"><ele>564.0</ele><time>2026-04-18T11:34:11Z</time></trkpt><trkpt lat="48.05398045466342" lon="11.70542533914771"><ele>564.0</ele><time>2026-04-18T11:34:12Z</time></trkpt><trkpt lat="48.05415604370226" lon="11.705474294098488"><ele>564.0</ele><time>2026-04-18T11:34:13Z</time></trkpt><trkpt lat="48.05433474102195" lon="11.70552366886472"><ele>564.0</ele><time>2026-04-18T11:34:14Z</time></trkpt><trkpt lat="48.05452016118244" lon="11.705564529734472"><ele>564.0</ele><time>2026-04-18T11:34:15Z</time></trkpt><trkpt lat="48.05471617872544" lon="11.705598962453799"><ele>564.0</ele><time>2026-04-18T11:34:16Z</time></trkpt><trkpt lat="48.0549081648597" lon="11.705629861479379"><ele>564.0</ele><time>2026-04-18T11:34:17Z</time></trkpt><trkpt lat="48.055100986278994" lon="11.705658152190777"><ele>564.6666666666666</ele><time>2026-04-18T11:34:18Z</time></trkpt><trkpt lat="48.05529431696077" lon="11.705683724689553"><ele>565.3333333333333</ele><time>2026-04-18T11:34:19Z</time></trkpt><trkpt lat="48.055489500073165" lon="11.705708725168387"><ele>566.0</ele><time>2026-04-18T11:34:20Z</time></trkpt><trkpt lat="48.05568386750308" lon="11.705732680272074"><ele>565.3333333333333</ele><time>2026-04-18T11:34:21Z</time></trkpt><trkpt lat="48.05587855333285" lon="11.70575769565482"><ele>564.6666666666666</ele><time>2026-04-18T11:34:22Z</time></trkpt><trkpt lat="48.05607772556489" lon="11.705794367832414"><ele>564.0</ele><time>2026-04-18T11:34:23Z</time></trkpt><trkpt lat="48.056269413890405" lon="11.705841752123069"><ele>564.0</ele><time>2026-04-18T11:34:24Z</time></trkpt><trkpt lat="48.05646449330592" lon="11.70589642329592"><ele>564.0</ele><time>2026-04-18T11:34:25Z</time></trkpt><trkpt lat="48.05666272012849" lon="11.705956956968613"><ele>564.0</ele><time>2026-04-18T11:34:26Z</time></trkpt><trkpt lat="48.0568617086014" lon="11.706027380598442"><ele>564.0</ele><time>2026-04-18T11:34:27Z</time></trkpt><trkpt lat="48.05706400833086" lon="11.706103660437112"><ele>564.0</ele><time>2026-04-18T11:34:28Z</time></trkpt><trkpt lat="48.0572596318192" lon="11.706180568617143"><ele>564.0</ele><time>2026-04-18T11:34:29Z</time></trkpt><trkpt lat="48.057453484180684" lon="11.706259403962756"><ele>564.0</ele><time>2026-04-18T11:34:30Z</time></trkpt><trkpt lat="48.057645738629304" lon="11.706346426893516"><ele>564.0</ele><time>2026-04-18T11:34:31Z</time></trkpt><trkpt lat="48.057828271420355" lon="11.706440227627622"><ele>564.0</ele><time>2026-04-18T11:34:32Z</time></trkpt><trkpt lat="48.05799442643506" lon="11.70653881278188"><ele>564.0</ele><time>2026-04-18T11:34:33Z</time></trkpt><trkpt lat="48.05815284497108" lon="11.70663877658052"><ele>564.0</ele><time>2026-04-18T11:34:34Z</time></trkpt><trkpt lat="48.05830670939993" lon="11.706737472126358"><ele>564.0</ele><time>2026-04-18T11:34:35Z</time></trkpt><trkpt lat="48.05845141471793" lon="11.706829775727403"><ele>564.0</ele><time>2026-04-18T11:34:36Z</time></trkpt><trkpt lat="48.058587636157554" lon="11.706911782390561"><ele>564.0</ele><time>2026-04-18T11:34:37Z</time></trkpt><trkpt lat="48.05872118911952" lon="11.70699146205334"><ele>564.0</ele><time>2026-04-18T11:34:38Z</time></trkpt><trkpt lat="48.058850840053246" lon="11.70707822343425"><ele>564.0</ele><time>2026-04-18T11:34:39Z</time></trkpt><trkpt lat="48.0589719409339" lon="11.707159680950236"><ele>564.0</ele><time>2026-04-18T11:34:40Z</time></trkpt><trkpt lat="48.05909091290403" lon="11.707241836022801"><ele>564.0</ele><time>2026-04-18T11:34:41Z</time></trkpt><trkpt lat="48.05919917815912" lon="11.7073260145289"><ele>564.0</ele><time>2026-04-18T11:34:42Z</time></trkpt><trkpt lat="48.059307740861385" lon="11.707411163058612"><ele>564.0</ele><time>2026-04-18T11:34:43Z</time></trkpt><trkpt lat="48.05941261260748" lon="11.707494292846082"><ele>563.4</ele><time>2026-04-18T11:34:44Z</time></trkpt><trkpt lat="48.05950669727406" lon="11.707568248669114"><ele>562.8</ele><time>2026-04-18T11:34:45Z</time></trkpt><trkpt lat="48.05959383835574" lon="11.707636924959486"><ele>562.2</ele><time>2026-04-18T11:34:46Z</time></trkpt><trkpt lat="48.05967718039809" lon="11.707704578175381"><ele>561.6</ele><time>2026-04-18T11:34:47Z</time></trkpt><trkpt lat="48.059753710849726" lon="11.707764671731681"><ele>561.0</ele><time>2026-04-18T11:34:48Z</time></trkpt><trkpt lat="48.05981846759481" lon="11.70781528721456"><ele>561.0</ele><time>2026-04-18T11:34:49Z</time></trkpt><trkpt lat="48.059910904818935" lon="11.707885602558516"><ele>561.0</ele><time>2026-04-18T11:34:51Z</time></trkpt><trkpt lat="48.05997685413189" lon="11.707942655659693"><ele>561.0</ele><time>2026-04-18T11:34:54Z</time></trkpt><trkpt lat="48.06003298732347" lon="11.707992948776877"><ele>561.0</ele><time>2026-04-18T11:34:57Z</time></trkpt><trkpt lat="48.06009416562132" lon="11.708020492293539"><ele>561.0</ele><time>2026-04-18T11:34:59Z</time></trkpt><trkpt lat="48.06018555785783" lon="11.707890868102027"><ele>561.0</ele><time>2026-04-18T11:35:01Z</time></trkpt><trkpt lat="48.06021349680145" lon="11.707769942283083"><ele>561.4</ele><time>2026-04-18T11:35:02Z</time></trkpt><trkpt lat="48.060243511031814" lon="11.707641675191164"><ele>561.8</ele><time>2026-04-18T11:35:03Z</time></trkpt><trkpt lat="48.06028143604659" lon="11.7074909132768"><ele>562.1999999999999</ele><time>2026-04-18T11:35:04Z</time></trkpt><trkpt lat="48.0603274793607" lon="11.707346197971521"><ele>562.6</ele><time>2026-04-18T11:35:05Z</time></trkpt><trkpt lat="48.06038833084844" lon="11.707203102402909"><ele>563.0</ele><time>2026-04-18T11:35:06Z</time></trkpt><trkpt lat="48.060464588740075" lon="11.707060461695708"><ele>563.0</ele><time>2026-04-18T11:35:07Z</time></trkpt><trkpt lat="48.06055511616774" lon="11.706914623697935"><ele>563.0</ele><time>2026-04-18T11:35:08Z</time></trkpt><trkpt lat="48.06065361673783" lon="11.70676817324354"><ele>563.0</ele><time>2026-04-18T11:35:09Z</time></trkpt><trkpt lat="48.0607492995925" lon="11.706639222934873"><ele>563.0</ele><time>2026-04-18T11:35:10Z</time></trkpt><trkpt lat="48.06084605541303" lon="11.70653028747699"><ele>563.5</ele><time>2026-04-18T11:35:11Z</time></trkpt><trkpt lat="48.06096189490601" lon="11.7064497574188"><ele>564.0</ele><time>2026-04-18T11:35:12Z</time></trkpt><trkpt lat="48.06108641636355" lon="11.706390329123487"><ele>564.5</ele><time>2026-04-18T11:35:13Z</time></trkpt><trkpt lat="48.06122642166837" lon="11.706394688048077"><ele>565.0</ele><time>2026-04-18T11:35:14Z</time></trkpt><trkpt lat="48.06136253624628" lon="11.706448120925074"><ele>565.0</ele><time>2026-04-18T11:35:15Z</time></trkpt><trkpt lat="48.06149190614249" lon="11.70654423035783"><ele>565.0</ele><time>2026-04-18T11:35:16Z</time></trkpt><trkpt lat="48.06160723944346" lon="11.706701600800647"><ele>565.0</ele><time>2026-04-18T11:35:17Z</time></trkpt><trkpt lat="48.06171283193357" lon="11.70690368734519"><ele>565.6666666666667</ele><time>2026-04-18T11:35:18Z</time></trkpt><trkpt lat="48.06180999839086" lon="11.70712711692338"><ele>566.3333333333334</ele><time>2026-04-18T11:35:19Z</time></trkpt><trkpt lat="48.061951511702546" lon="11.707339089484368"><ele>567.0</ele><time>2026-04-18T11:35:20Z</time></trkpt><trkpt lat="48.062059354455236" lon="11.707670902595849"><ele>569.0</ele><time>2026-04-18T11:35:21Z</time></trkpt><trkpt lat="48.062208729241284" lon="11.707976218100509"><ele>571.0</ele><time>2026-04-18T11:35:22Z</time></trkpt><trkpt lat="48.0623560453788" lon="11.708290553225117"><ele>567.5</ele><time>2026-04-18T11:35:23Z</time></trkpt><trkpt lat="48.062503129649684" lon="11.708596144567695"><ele>564.0</ele><time>2026-04-18T11:35:24Z</time></trkpt><trkpt lat="48.062647021043745" lon="11.708890680461478"><ele>564.0</ele><time>2026-04-18T11:35:25Z</time></trkpt><trkpt lat="48.06279996187611" lon="11.709187790439902"><ele>564.0</ele><time>2026-04-18T11:35:26Z</time></trkpt><trkpt lat="48.062951765153784" lon="11.709488282804875"><ele>564.0</ele><time>2026-04-18T11:35:27Z</time></trkpt><trkpt lat="48.06309907366928" lon="11.709788883300149"><ele>564.0</ele><time>2026-04-18T11:35:28Z</time></trkpt><trkpt lat="48.06324257573512" lon="11.710090130612624"><ele>563.5</ele><time>2026-04-18T11:35:29Z</time></trkpt><trkpt lat="48.06338454776318" lon="11.710389193006517"><ele>563.0</ele><time>2026-04-18T11:35:30Z</time></trkpt><trkpt lat="48.063524866539325" lon="11.710680928502427"><ele>563.0</ele><time>2026-04-18T11:35:31Z</time></trkpt><trkpt lat="48.06366250263992" lon="11.710971860498095"><ele>563.0</ele><time>2026-04-18T11:35:32Z</time></trkpt><trkpt lat="48.06381644314352" lon="11.711270344820674"><ele>562.5</ele><time>2026-04-18T11:35:33Z</time></trkpt><trkpt lat="48.063982119828474" lon="11.711581456100427"><ele>562.0</ele><time>2026-04-18T11:35:34Z</time></trkpt><trkpt lat="48.0641488137535" lon="11.711901347315532"><ele>564.5</ele><time>2026-04-18T11:35:35Z</time></trkpt><trkpt lat="48.064313255989546" lon="11.712245068128508"><ele>567.0</ele><time>2026-04-18T11:35:36Z</time></trkpt><trkpt lat="48.06448029341975" lon="11.71258520895297"><ele>567.5</ele><time>2026-04-18T11:35:37Z</time></trkpt><trkpt lat="48.06465095720934" lon="11.712927887186638"><ele>568.0</ele><time>2026-04-18T11:35:38Z</time></trkpt><trkpt lat="48.0648239570478" lon="11.713274791819426"><ele>565.0</ele><time>2026-04-18T11:35:39Z</time></trkpt><trkpt lat="48.06499693284369" lon="11.71362735751505"><ele>562.0</ele><time>2026-04-18T11:35:40Z</time></trkpt><trkpt lat="48.065175630896945" lon="11.713976587418182"><ele>562.0</ele><time>2026-04-18T11:35:41Z</time></trkpt><trkpt lat="48.06535841744269" lon="11.714327081038142"><ele>562.0</ele><time>2026-04-18T11:35:42Z</time></trkpt><trkpt lat="48.06554282007052" lon="11.71468752744236"><ele>561.5</ele><time>2026-04-18T11:35:43Z</time></trkpt><trkpt lat="48.065741399756526" lon="11.715060630584139"><ele>561.0</ele><time>2026-04-18T11:35:44Z</time></trkpt><trkpt lat="48.065948674472146" lon="11.715441300961166"><ele>560.0</ele><time>2026-04-18T11:35:45Z</time></trkpt><trkpt lat="48.06615583482992" lon="11.715826002363437"><ele>559.0</ele><time>2026-04-18T11:35:46Z</time></trkpt><trkpt lat="48.066364368211666" lon="11.71621510575273"><ele>559.0</ele><time>2026-04-18T11:35:47Z</time></trkpt><trkpt lat="48.066570789791975" lon="11.716593162715466"><ele>559.0</ele><time>2026-04-18T11:35:48Z</time></trkpt><trkpt lat="48.066776653697644" lon="11.71697123660603"><ele>559.5</ele><time>2026-04-18T11:35:49Z</time></trkpt><trkpt lat="48.066975940566984" lon="11.717330349656255"><ele>560.0</ele><time>2026-04-18T11:35:50Z</time></trkpt><trkpt lat="48.06717648940727" lon="11.717692753641213"><ele>559.5</ele><time>2026-04-18T11:35:51Z</time></trkpt><trkpt lat="48.06737324979793" lon="11.718047890916736"><ele>559.0</ele><time>2026-04-18T11:35:52Z</time></trkpt><trkpt lat="48.06757112211615" lon="11.71840009313322"><ele>559.0</ele><time>2026-04-18T11:35:53Z</time></trkpt><trkpt lat="48.06777009468257" lon="11.718750872678692"><ele>559.0</ele><time>2026-04-18T11:35:54Z</time></trkpt><trkpt lat="48.06797249579581" lon="11.719096654986204"><ele>558.5</ele><time>2026-04-18T11:35:55Z</time></trkpt><trkpt lat="48.06817361829587" lon="11.719437806860007"><ele>558.0</ele><time>2026-04-18T11:35:56Z</time></trkpt><trkpt lat="48.06837280382375" lon="11.719777508069855"><ele>558.0</ele><time>2026-04-18T11:35:57Z</time></trkpt><trkpt lat="48.068570502306784" lon="11.720111316140608"><ele>558.0</ele><time>2026-04-18T11:35:58Z</time></trkpt><trkpt lat="48.06877551543883" lon="11.720451579210563"><ele>558.5</ele><time>2026-04-18T11:35:59Z</time></trkpt><trkpt lat="48.06898463982226" lon="11.72079485166723"><ele>559.0</ele><time>2026-04-18T11:36:00Z</time></trkpt><trkpt lat="48.06919258815453" lon="11.721134943983989"><ele>559.5</ele><time>2026-04-18T11:36:01Z</time></trkpt><trkpt lat="48.06939944265645" lon="11.721471920699994"><ele>560.0</ele><time>2026-04-18T11:36:02Z</time></trkpt><trkpt lat="48.06960681947864" lon="11.721804798693814"><ele>559.5</ele><time>2026-04-18T11:36:03Z</time></trkpt><trkpt lat="48.06980870459902" lon="11.722132529469512"><ele>559.0</ele><time>2026-04-18T11:36:04Z</time></trkpt><trkpt lat="48.070010665664356" lon="11.722454509207887"><ele>559.0</ele><time>2026-04-18T11:36:05Z</time></trkpt><trkpt lat="48.070212776547464" lon="11.722774239217415"><ele>559.0</ele><time>2026-04-18T11:36:06Z</time></trkpt><trkpt lat="48.070414524811135" lon="11.723088856522676"><ele>559.0</ele><time>2026-04-18T11:36:07Z</time></trkpt><trkpt lat="48.07061202631603" lon="11.723396348431484"><ele>559.0</ele><time>2026-04-18T11:36:08Z</time></trkpt><trkpt lat="48.070795665805896" lon="11.723680567367971"><ele>560.5</ele><time>2026-04-18T11:36:09Z</time></trkpt><trkpt lat="48.070978241063635" lon="11.723960205213043"><ele>562.0</ele><time>2026-04-18T11:36:10Z</time></trkpt><trkpt lat="48.071159887690335" lon="11.724238833242918"><ele>562.0</ele><time>2026-04-18T11:36:11Z</time></trkpt><trkpt lat="48.07133671298675" lon="11.724506249060207"><ele>562.0</ele><time>2026-04-18T11:36:12Z</time></trkpt><trkpt lat="48.071509386764696" lon="11.724765458490417"><ele>560.0</ele><time>2026-04-18T11:36:13Z</time></trkpt><trkpt lat="48.07168034246569" lon="11.725017022862756"><ele>558.0</ele><time>2026-04-18T11:36:14Z</time></trkpt><trkpt lat="48.07184914669506" lon="11.72526375624852"><ele>558.0</ele><time>2026-04-18T11:36:15Z</time></trkpt><trkpt lat="48.07201189791639" lon="11.725494771233874"><ele>558.0</ele><time>2026-04-18T11:36:16Z</time></trkpt><trkpt lat="48.07217421355024" lon="11.72573085891549"><ele>558.0</ele><time>2026-04-18T11:36:17Z</time></trkpt><trkpt lat="48.072337271589525" lon="11.725967274292591"><ele>558.0</ele><time>2026-04-18T11:36:18Z</time></trkpt><trkpt lat="48.072502619560694" lon="11.726209054070305"><ele>559.0</ele><time>2026-04-18T11:36:19Z</time></trkpt><trkpt lat="48.07266684245837" lon="11.726452671743811"><ele>560.0</ele><time>2026-04-18T11:36:20Z</time></trkpt><trkpt lat="48.07283497964808" lon="11.726695204210495"><ele>560.0</ele><time>2026-04-18T11:36:21Z</time></trkpt><trkpt lat="48.0730066305968" lon="11.726940672612825"><ele>560.0</ele><time>2026-04-18T11:36:22Z</time></trkpt><trkpt lat="48.07318050051074" lon="11.727188040493942"><ele>559.5</ele><time>2026-04-18T11:36:23Z</time></trkpt><trkpt lat="48.073361029962044" lon="11.727443090621293"><ele>559.0</ele><time>2026-04-18T11:36:24Z</time></trkpt><trkpt lat="48.07354159131121" lon="11.727700924968895"><ele>558.0</ele><time>2026-04-18T11:36:25Z</time></trkpt><trkpt lat="48.07372785937726" lon="11.727958586414777"><ele>557.0</ele><time>2026-04-18T11:36:26Z</time></trkpt><trkpt lat="48.0739167663237" lon="11.728215536380148"><ele>557.5</ele><time>2026-04-18T11:36:27Z</time></trkpt><trkpt lat="48.07410860678887" lon="11.728473566622723"><ele>558.0</ele><time>2026-04-18T11:36:28Z</time></trkpt><trkpt lat="48.07430519683572" lon="11.728734019359065"><ele>558.0</ele><time>2026-04-18T11:36:29Z</time></trkpt><trkpt lat="48.07450307735953" lon="11.728990405910995"><ele>558.0</ele><time>2026-04-18T11:36:30Z</time></trkpt><trkpt lat="48.07470147311241" lon="11.729246898480739"><ele>557.5</ele><time>2026-04-18T11:36:31Z</time></trkpt><trkpt lat="48.07490355059067" lon="11.729508836484198"><ele>557.0</ele><time>2026-04-18T11:36:32Z</time></trkpt><trkpt lat="48.0751058535758" lon="11.72977396745189"><ele>556.5</ele><time>2026-04-18T11:36:33Z</time></trkpt><trkpt lat="48.075311577449206" lon="11.730046762768694"><ele>556.0</ele><time>2026-04-18T11:36:34Z</time></trkpt><trkpt lat="48.07552364923574" lon="11.73032153714007"><ele>556.0</ele><time>2026-04-18T11:36:35Z</time></trkpt><trkpt lat="48.07573873536384" lon="11.730595973217978"><ele>556.0</ele><time>2026-04-18T11:36:36Z</time></trkpt><trkpt lat="48.0759562953712" lon="11.73086991677839"><ele>556.0</ele><time>2026-04-18T11:36:37Z</time></trkpt><trkpt lat="48.07617587608343" lon="11.731145031997453"><ele>556.0</ele><time>2026-04-18T11:36:38Z</time></trkpt><trkpt lat="48.076391768455665" lon="11.73141590100617"><ele>556.5</ele><time>2026-04-18T11:36:39Z</time></trkpt><trkpt lat="48.07660738017537" lon="11.731684933630508"><ele>557.0</ele><time>2026-04-18T11:36:40Z</time></trkpt><trkpt lat="48.076821667211036" lon="11.731953199693622"><ele>557.0</ele><time>2026-04-18T11:36:41Z</time></trkpt><trkpt lat="48.0770373912493" lon="11.73222315907585"><ele>557.0</ele><time>2026-04-18T11:36:42Z</time></trkpt><trkpt lat="48.07725575682204" lon="11.732488837411742"><ele>556.5</ele><time>2026-04-18T11:36:43Z</time></trkpt><trkpt lat="48.07747357058917" lon="11.73275205549504"><ele>556.0</ele><time>2026-04-18T11:36:44Z</time></trkpt><trkpt lat="48.07769452093815" lon="11.73301403253682"><ele>556.0</ele><time>2026-04-18T11:36:45Z</time></trkpt><trkpt lat="48.07791688107296" lon="11.733278245989162"><ele>556.0</ele><time>2026-04-18T11:36:46Z</time></trkpt><trkpt lat="48.078140758697494" lon="11.733544148599771"><ele>555.5</ele><time>2026-04-18T11:36:47Z</time></trkpt><trkpt lat="48.078366924588536" lon="11.733808176054335"><ele>555.0</ele><time>2026-04-18T11:36:48Z</time></trkpt><trkpt lat="48.07859369648126" lon="11.734063884134263"><ele>555.0</ele><time>2026-04-18T11:36:49Z</time></trkpt><trkpt lat="48.07881804795452" lon="11.7343171253098"><ele>555.0</ele><time>2026-04-18T11:36:50Z</time></trkpt><trkpt lat="48.07904198651659" lon="11.734569821695551"><ele>556.5</ele><time>2026-04-18T11:36:51Z</time></trkpt><trkpt lat="48.079263323533795" lon="11.73482189655173"><ele>558.0</ele><time>2026-04-18T11:36:52Z</time></trkpt><trkpt lat="48.079483271965465" lon="11.735073243793659"><ele>557.0</ele><time>2026-04-18T11:36:53Z</time></trkpt><trkpt lat="48.079703933048776" lon="11.735324352563822"><ele>556.0</ele><time>2026-04-18T11:36:54Z</time></trkpt><trkpt lat="48.07992506843081" lon="11.735570045289778"><ele>555.0</ele><time>2026-04-18T11:36:55Z</time></trkpt><trkpt lat="48.080152702453795" lon="11.735808226717248"><ele>554.0</ele><time>2026-04-18T11:36:56Z</time></trkpt><trkpt lat="48.08038179706151" lon="11.73604691075862"><ele>554.0</ele><time>2026-04-18T11:36:57Z</time></trkpt><trkpt lat="48.08060879911377" lon="11.736285561547952"><ele>554.0</ele><time>2026-04-18T11:36:58Z</time></trkpt><trkpt lat="48.0808332777686" lon="11.736523706334733"><ele>553.5</ele><time>2026-04-18T11:36:59Z</time></trkpt><trkpt lat="48.0810600215789" lon="11.736758608028538"><ele>553.0</ele><time>2026-04-18T11:37:00Z</time></trkpt><trkpt lat="48.08128422768586" lon="11.736992478783815"><ele>554.0</ele><time>2026-04-18T11:37:01Z</time></trkpt><trkpt lat="48.08150611237065" lon="11.737226600541835"><ele>555.0</ele><time>2026-04-18T11:37:02Z</time></trkpt><trkpt lat="48.08172930198225" lon="11.737459834815954"><ele>555.5</ele><time>2026-04-18T11:37:03Z</time></trkpt><trkpt lat="48.08195266617659" lon="11.737689721923246"><ele>556.0</ele><time>2026-04-18T11:37:04Z</time></trkpt><trkpt lat="48.08217384098423" lon="11.737916184595177"><ele>555.5</ele><time>2026-04-18T11:37:05Z</time></trkpt><trkpt lat="48.082392924381665" lon="11.738135394486875"><ele>555.0</ele><time>2026-04-18T11:37:06Z</time></trkpt><trkpt lat="48.08261565761413" lon="11.738348724766526"><ele>554.5</ele><time>2026-04-18T11:37:07Z</time></trkpt><trkpt lat="48.0828361885881" lon="11.738562625881922"><ele>554.0</ele><time>2026-04-18T11:37:08Z</time></trkpt><trkpt lat="48.08305560290185" lon="11.738778714700764"><ele>554.5</ele><time>2026-04-18T11:37:09Z</time></trkpt><trkpt lat="48.08327116857218" lon="11.73899926842566"><ele>555.0</ele><time>2026-04-18T11:37:10Z</time></trkpt><trkpt lat="48.08348418754822" lon="11.739218090934179"><ele>554.5</ele><time>2026-04-18T11:37:11Z</time></trkpt><trkpt lat="48.08369045508356" lon="11.739431650517204"><ele>554.0</ele><time>2026-04-18T11:37:12Z</time></trkpt><trkpt lat="48.08389013412273" lon="11.73964820212342"><ele>554.0</ele><time>2026-04-18T11:37:13Z</time></trkpt><trkpt lat="48.08408638597646" lon="11.739856943499314"><ele>554.0</ele><time>2026-04-18T11:37:14Z</time></trkpt><trkpt lat="48.084283506785276" lon="11.740058159517224"><ele>554.0</ele><time>2026-04-18T11:37:15Z</time></trkpt><trkpt lat="48.084482875753686" lon="11.74024521928106"><ele>554.0</ele><time>2026-04-18T11:37:16Z</time></trkpt><trkpt lat="48.08467671261578" lon="11.740422110273403"><ele>554.0</ele><time>2026-04-18T11:37:17Z</time></trkpt><trkpt lat="48.08486786711322" lon="11.740596425818211"><ele>554.0</ele><time>2026-04-18T11:37:18Z</time></trkpt><trkpt lat="48.08505949530273" lon="11.740771558532042"><ele>554.0</ele><time>2026-04-18T11:37:19Z</time></trkpt><trkpt lat="48.08525415940276" lon="11.740947695785467"><ele>552.5</ele><time>2026-04-18T11:37:20Z</time></trkpt><trkpt lat="48.085451175242696" lon="11.741123831912834"><ele>551.0</ele><time>2026-04-18T11:37:21Z</time></trkpt><trkpt lat="48.085651776593224" lon="11.741297831163285"><ele>550.5</ele><time>2026-04-18T11:37:22Z</time></trkpt><trkpt lat="48.08585250665385" lon="11.741470337329732"><ele>550.0</ele><time>2026-04-18T11:37:23Z</time></trkpt><trkpt lat="48.086052679769054" lon="11.74164415404203"><ele>550.0</ele><time>2026-04-18T11:37:24Z</time></trkpt><trkpt lat="48.08625321692997" lon="11.741818404546919"><ele>550.0</ele><time>2026-04-18T11:37:25Z</time></trkpt><trkpt lat="48.086454275129796" lon="11.74199135792372"><ele>551.5</ele><time>2026-04-18T11:37:26Z</time></trkpt><trkpt lat="48.086655552068436" lon="11.742164693124963"><ele>553.0</ele><time>2026-04-18T11:37:27Z</time></trkpt><trkpt lat="48.086856163994916" lon="11.742338515275476"><ele>553.0</ele><time>2026-04-18T11:37:28Z</time></trkpt><trkpt lat="48.08705781268316" lon="11.742510902171343"><ele>553.0</ele><time>2026-04-18T11:37:29Z</time></trkpt><trkpt lat="48.08726210649153" lon="11.742687434055197"><ele>552.0</ele><time>2026-04-18T11:37:30Z</time></trkpt><trkpt lat="48.08746482284194" lon="11.74285825933017"><ele>551.0</ele><time>2026-04-18T11:37:31Z</time></trkpt><trkpt lat="48.087664714278716" lon="11.743025701164502"><ele>551.0</ele><time>2026-04-18T11:37:32Z</time></trkpt><trkpt lat="48.08785996904675" lon="11.743187959195907"><ele>551.0</ele><time>2026-04-18T11:37:33Z</time></trkpt><trkpt lat="48.088055401330266" lon="11.743348316986362"><ele>551.0</ele><time>2026-04-18T11:37:34Z</time></trkpt><trkpt lat="48.08824934247883" lon="11.743508573630125"><ele>551.0</ele><time>2026-04-18T11:37:35Z</time></trkpt><trkpt lat="48.088442228062306" lon="11.74366741625236"><ele>551.0</ele><time>2026-04-18T11:37:36Z</time></trkpt><trkpt lat="48.08863635637093" lon="11.743822952519103"><ele>551.0</ele><time>2026-04-18T11:37:37Z</time></trkpt><trkpt lat="48.088821737226205" lon="11.743967662634969"><ele>551.0</ele><time>2026-04-18T11:37:38Z</time></trkpt><trkpt lat="48.08900071928293" lon="11.744107407161977"><ele>551.0</ele><time>2026-04-18T11:37:39Z</time></trkpt><trkpt lat="48.0891797073728" lon="11.744248172391337"><ele>551.0</ele><time>2026-04-18T11:37:40Z</time></trkpt><trkpt lat="48.08936104245375" lon="11.744392766124257"><ele>552.0</ele><time>2026-04-18T11:37:41Z</time></trkpt><trkpt lat="48.08954619638992" lon="11.744538460849263"><ele>553.0</ele><time>2026-04-18T11:37:42Z</time></trkpt><trkpt lat="48.08972766235821" lon="11.744678304492673"><ele>554.0</ele><time>2026-04-18T11:37:43Z</time></trkpt><trkpt lat="48.08990838433126" lon="11.744815246755493"><ele>553.6666666666666</ele><time>2026-04-18T11:37:44Z</time></trkpt><trkpt lat="48.090089221581266" lon="11.744950889651818"><ele>553.3333333333334</ele><time>2026-04-18T11:37:45Z</time></trkpt><trkpt lat="48.09026711699441" lon="11.745085853269027"><ele>553.0</ele><time>2026-04-18T11:37:46Z</time></trkpt><trkpt lat="48.09044617330061" lon="11.745220221395654"><ele>553.0</ele><time>2026-04-18T11:37:47Z</time></trkpt><trkpt lat="48.0906259851173" lon="11.745355737553913"><ele>553.0</ele><time>2026-04-18T11:37:48Z</time></trkpt><trkpt lat="48.09080453449735" lon="11.745490114157441"><ele>553.0</ele><time>2026-04-18T11:37:49Z</time></trkpt><trkpt lat="48.09098499897365" lon="11.745625234657012"><ele>552.3333333333334</ele><time>2026-04-18T11:37:50Z</time></trkpt><trkpt lat="48.09116980888771" lon="11.7457634023894"><ele>551.6666666666666</ele><time>2026-04-18T11:37:51Z</time></trkpt><trkpt lat="48.09135198344082" lon="11.745899948322371"><ele>551.0</ele><time>2026-04-18T11:37:52Z</time></trkpt><trkpt lat="48.09153435961995" lon="11.746033652309649"><ele>552.3333333333333</ele><time>2026-04-18T11:37:53Z</time></trkpt><trkpt lat="48.09171859813944" lon="11.74616482072331"><ele>553.6666666666666</ele><time>2026-04-18T11:37:54Z</time></trkpt><trkpt lat="48.09190442677174" lon="11.746292335177769"><ele>555.0</ele><time>2026-04-18T11:37:55Z</time></trkpt><trkpt lat="48.09208758433948" lon="11.746420801108167"><ele>555.0</ele><time>2026-04-18T11:37:56Z</time></trkpt><trkpt lat="48.092270764116364" lon="11.746555243936502"><ele>555.0</ele><time>2026-04-18T11:37:57Z</time></trkpt><trkpt lat="48.09245183165729" lon="11.74668798854336"><ele>555.0</ele><time>2026-04-18T11:37:58Z</time></trkpt><trkpt lat="48.09263498649765" lon="11.74681562002021"><ele>554.6666666666666</ele><time>2026-04-18T11:37:59Z</time></trkpt><trkpt lat="48.09281609068544" lon="11.746941250487964"><ele>554.3333333333333</ele><time>2026-04-18T11:38:00Z</time></trkpt><trkpt lat="48.0929952490345" lon="11.74706230391817"><ele>554.0</ele><time>2026-04-18T11:38:01Z</time></trkpt><trkpt lat="48.09317598297941" lon="11.747182359905903"><ele>553.6666666666666</ele><time>2026-04-18T11:38:02Z</time></trkpt><trkpt lat="48.093353463846476" lon="11.74730337881256"><ele>553.3333333333334</ele><time>2026-04-18T11:38:03Z</time></trkpt><trkpt lat="48.09353102031866" lon="11.747428781898689"><ele>553.0</ele><time>2026-04-18T11:38:04Z</time></trkpt><trkpt lat="48.09370966087812" lon="11.747550096341737"><ele>553.0</ele><time>2026-04-18T11:38:05Z</time></trkpt><trkpt lat="48.093885120614736" lon="11.74767149493756"><ele>553.0</ele><time>2026-04-18T11:38:06Z</time></trkpt><trkpt lat="48.094065499666925" lon="11.747790351018384"><ele>553.0</ele><time>2026-04-18T11:38:07Z</time></trkpt><trkpt lat="48.094240125219365" lon="11.747904315713658"><ele>554.0</ele><time>2026-04-18T11:38:08Z</time></trkpt><trkpt lat="48.09441414228413" lon="11.748016798979798"><ele>555.0</ele><time>2026-04-18T11:38:09Z</time></trkpt><trkpt lat="48.09459357612985" lon="11.748137210190455"><ele>556.0</ele><time>2026-04-18T11:38:10Z</time></trkpt><trkpt lat="48.09477398214051" lon="11.74825822946467"><ele>554.3333333333334</ele><time>2026-04-18T11:38:11Z</time></trkpt><trkpt lat="48.09495489665184" lon="11.748372654245316"><ele>552.6666666666666</ele><time>2026-04-18T11:38:12Z</time></trkpt><trkpt lat="48.095132532483284" lon="11.748486913382251"><ele>551.0</ele><time>2026-04-18T11:38:13Z</time></trkpt><trkpt lat="48.095314574794614" lon="11.748599377716207"><ele>551.0</ele><time>2026-04-18T11:38:14Z</time></trkpt><trkpt lat="48.095495687886626" lon="11.748714922944247"><ele>551.0</ele><time>2026-04-18T11:38:15Z</time></trkpt><trkpt lat="48.095677244209426" lon="11.748828763078977"><ele>551.0</ele><time>2026-04-18T11:38:16Z</time></trkpt><trkpt lat="48.095855148105024" lon="11.748939759444987"><ele>551.0</ele><time>2026-04-18T11:38:17Z</time></trkpt><trkpt lat="48.09603017392651" lon="11.74904936515873"><ele>551.0</ele><time>2026-04-18T11:38:18Z</time></trkpt><trkpt lat="48.096205958548815" lon="11.74915926370237"><ele>551.0</ele><time>2026-04-18T11:38:19Z</time></trkpt><trkpt lat="48.096382206404016" lon="11.749269145447043"><ele>551.3333333333333</ele><time>2026-04-18T11:38:20Z</time></trkpt><trkpt lat="48.0965605096315" lon="11.749375652859152"><ele>551.6666666666666</ele><time>2026-04-18T11:38:21Z</time></trkpt><trkpt lat="48.096740451076364" lon="11.749487275819707"><ele>552.0</ele><time>2026-04-18T11:38:22Z</time></trkpt><trkpt lat="48.096921256128184" lon="11.749596998282357"><ele>552.0</ele><time>2026-04-18T11:38:23Z</time></trkpt><trkpt lat="48.097102526076256" lon="11.749706082027005"><ele>552.0</ele><time>2026-04-18T11:38:24Z</time></trkpt><trkpt lat="48.097282940349956" lon="11.74981374609961"><ele>552.0</ele><time>2026-04-18T11:38:25Z</time></trkpt><trkpt lat="48.09746395530444" lon="11.749922435080213"><ele>551.3333333333334</ele><time>2026-04-18T11:38:26Z</time></trkpt><trkpt lat="48.097649089083255" lon="11.750033058659792"><ele>550.6666666666667</ele><time>2026-04-18T11:38:27Z</time></trkpt><trkpt lat="48.09783177848106" lon="11.750141084221026"><ele>550.0</ele><time>2026-04-18T11:38:28Z</time></trkpt><trkpt lat="48.09801162233611" lon="11.750250840827578"><ele>550.0</ele><time>2026-04-18T11:38:29Z</time></trkpt><trkpt lat="48.09819587095167" lon="11.750348427714272"><ele>550.0</ele><time>2026-04-18T11:38:30Z</time></trkpt><trkpt lat="48.09837814054368" lon="11.750448102279382"><ele>550.0</ele><time>2026-04-18T11:38:31Z</time></trkpt><trkpt lat="48.09856093536228" lon="11.750546689892802"><ele>549.3333333333334</ele><time>2026-04-18T11:38:32Z</time></trkpt><trkpt lat="48.09873973421417" lon="11.750647684961365"><ele>548.6666666666666</ele><time>2026-04-18T11:38:33Z</time></trkpt><trkpt lat="48.098924863046264" lon="11.750752875305547"><ele>548.0</ele><time>2026-04-18T11:38:34Z</time></trkpt><trkpt lat="48.09911117440928" lon="11.750859251226894"><ele>547.6666666666666</ele><time>2026-04-18T11:38:35Z</time></trkpt><trkpt lat="48.09929878836953" lon="11.750962145211338"><ele>547.3333333333334</ele><time>2026-04-18T11:38:36Z</time></trkpt><trkpt lat="48.09949175141953" lon="11.751065937063194"><ele>547.0</ele><time>2026-04-18T11:38:37Z</time></trkpt><trkpt lat="48.0996763111122" lon="11.751168871809062"><ele>547.0</ele><time>2026-04-18T11:38:38Z</time></trkpt><trkpt lat="48.09985424631995" lon="11.751265104909935"><ele>547.0</ele><time>2026-04-18T11:38:39Z</time></trkpt><trkpt lat="48.10003548963164" lon="11.751367012103527"><ele>547.0</ele><time>2026-04-18T11:38:40Z</time></trkpt><trkpt lat="48.100216049654634" lon="11.751479888735913"><ele>546.6666666666667</ele><time>2026-04-18T11:38:41Z</time></trkpt><trkpt lat="48.10039924217134" lon="11.751593173018794"><ele>546.3333333333334</ele><time>2026-04-18T11:38:42Z</time></trkpt><trkpt lat="48.10058255278057" lon="11.75170137526472"><ele>546.0</ele><time>2026-04-18T11:38:43Z</time></trkpt><trkpt lat="48.100761401102126" lon="11.751804966126196"><ele>546.3333333333334</ele><time>2026-04-18T11:38:44Z</time></trkpt><trkpt lat="48.10094260861942" lon="11.751905998701721"><ele>546.6666666666667</ele><time>2026-04-18T11:38:45Z</time></trkpt><trkpt lat="48.101123275926554" lon="11.752003528119777"><ele>547.0</ele><time>2026-04-18T11:38:46Z</time></trkpt><trkpt lat="48.10130222332381" lon="11.752098769715145"><ele>547.0</ele><time>2026-04-18T11:38:47Z</time></trkpt><trkpt lat="48.10148092009342" lon="11.752194888744338"><ele>547.0</ele><time>2026-04-18T11:38:48Z</time></trkpt><trkpt lat="48.101658045250225" lon="11.752289305165336"><ele>547.0</ele><time>2026-04-18T11:38:49Z</time></trkpt><trkpt lat="48.101832505861125" lon="11.752378588921443"><ele>546.6666666666667</ele><time>2026-04-18T11:38:50Z</time></trkpt><trkpt lat="48.102002561782534" lon="11.752469226558471"><ele>546.3333333333334</ele><time>2026-04-18T11:38:51Z</time></trkpt><trkpt lat="48.1021715116122" lon="11.752556922089946"><ele>546.0</ele><time>2026-04-18T11:38:52Z</time></trkpt><trkpt lat="48.10234300820912" lon="11.752646952167336"><ele>546.3333333333334</ele><time>2026-04-18T11:38:53Z</time></trkpt><trkpt lat="48.102513927966065" lon="11.752733914039789"><ele>546.6666666666667</ele><time>2026-04-18T11:38:54Z</time></trkpt><trkpt lat="48.10269123767865" lon="11.752816931923523"><ele>547.0</ele><time>2026-04-18T11:38:55Z</time></trkpt><trkpt lat="48.1028731886458" lon="11.752903106112415"><ele>547.0</ele><time>2026-04-18T11:38:56Z</time></trkpt><trkpt lat="48.10305056281369" lon="11.752993221806449"><ele>547.0</ele><time>2026-04-18T11:38:57Z</time></trkpt><trkpt lat="48.10322998930561" lon="11.753074702523534"><ele>547.0</ele><time>2026-04-18T11:38:58Z</time></trkpt><trkpt lat="48.10340154460069" lon="11.753161854455335"><ele>546.3333333333334</ele><time>2026-04-18T11:38:59Z</time></trkpt><trkpt lat="48.103578232385594" lon="11.753244979038243"><ele>545.6666666666666</ele><time>2026-04-18T11:39:00Z</time></trkpt><trkpt lat="48.10375653884024" lon="11.753327592292766"><ele>545.0</ele><time>2026-04-18T11:39:01Z</time></trkpt><trkpt lat="48.1039329958995" lon="11.753414304551239"><ele>545.0</ele><time>2026-04-18T11:39:02Z</time></trkpt><trkpt lat="48.104111957650254" lon="11.753491054442804"><ele>545.0</ele><time>2026-04-18T11:39:03Z</time></trkpt><trkpt lat="48.10429315766567" lon="11.753569776394947"><ele>545.0</ele><time>2026-04-18T11:39:04Z</time></trkpt><trkpt lat="48.10447927955164" lon="11.753638871927944"><ele>545.0</ele><time>2026-04-18T11:39:05Z</time></trkpt><trkpt lat="48.10466336788291" lon="11.753704753547312"><ele>545.0</ele><time>2026-04-18T11:39:06Z</time></trkpt><trkpt lat="48.104848672221124" lon="11.753782180217375"><ele>545.0</ele><time>2026-04-18T11:39:07Z</time></trkpt><trkpt lat="48.10503625830734" lon="11.75386133394186"><ele>543.0</ele><time>2026-04-18T11:39:08Z</time></trkpt><trkpt lat="48.1052251261783" lon="11.75394240121933"><ele>541.0</ele><time>2026-04-18T11:39:09Z</time></trkpt><trkpt lat="48.1054101192936" lon="11.754024614866747"><ele>539.0</ele><time>2026-04-18T11:39:10Z</time></trkpt><trkpt lat="48.10559346717142" lon="11.754115315260545"><ele>539.0</ele><time>2026-04-18T11:39:11Z</time></trkpt><trkpt lat="48.10577143973459" lon="11.754188141793502"><ele>539.0</ele><time>2026-04-18T11:39:12Z</time></trkpt><trkpt lat="48.10594673783238" lon="11.754266740447585"><ele>539.0</ele><time>2026-04-18T11:39:13Z</time></trkpt><trkpt lat="48.10612220516248" lon="11.75433978446368"><ele>540.3333333333333</ele><time>2026-04-18T11:39:14Z</time></trkpt><trkpt lat="48.10631749162084" lon="11.754415313089172"><ele>541.6666666666666</ele><time>2026-04-18T11:39:15Z</time></trkpt><trkpt lat="48.10651637996995" lon="11.754493934017047"><ele>543.0</ele><time>2026-04-18T11:39:16Z</time></trkpt><trkpt lat="48.10671550092543" lon="11.754581382057754"><ele>543.0</ele><time>2026-04-18T11:39:17Z</time></trkpt><trkpt lat="48.106918206561616" lon="11.754667676444864"><ele>543.0</ele><time>2026-04-18T11:39:18Z</time></trkpt><trkpt lat="48.10711649560004" lon="11.754751089663777"><ele>543.0</ele><time>2026-04-18T11:39:19Z</time></trkpt><trkpt lat="48.107313902722225" lon="11.754830191284343"><ele>542.3333333333334</ele><time>2026-04-18T11:39:20Z</time></trkpt><trkpt lat="48.10751559364624" lon="11.754907085203891"><ele>541.6666666666667</ele><time>2026-04-18T11:39:21Z</time></trkpt><trkpt lat="48.10771415801353" lon="11.754982602051935"><ele>541.0</ele><time>2026-04-18T11:39:22Z</time></trkpt><trkpt lat="48.1079105522835" lon="11.7550589414918"><ele>541.0</ele><time>2026-04-18T11:39:23Z</time></trkpt><trkpt lat="48.108106394986876" lon="11.755134589031817"><ele>541.0</ele><time>2026-04-18T11:39:24Z</time></trkpt><trkpt lat="48.10830281015705" lon="11.755209785289194"><ele>541.0</ele><time>2026-04-18T11:39:25Z</time></trkpt><trkpt lat="48.10849564673304" lon="11.75528321335671"><ele>541.6666666666667</ele><time>2026-04-18T11:39:26Z</time></trkpt><trkpt lat="48.10868783486502" lon="11.7553559954993"><ele>542.3333333333334</ele><time>2026-04-18T11:39:27Z</time></trkpt><trkpt lat="48.1088785100658" lon="11.755427271933078"><ele>543.0</ele><time>2026-04-18T11:39:28Z</time></trkpt><trkpt lat="48.1090694348379" lon="11.755498517659708"><ele>542.6666666666666</ele><time>2026-04-18T11:39:29Z</time></trkpt><trkpt lat="48.10925767229007" lon="11.755570169921663"><ele>542.3333333333333</ele><time>2026-04-18T11:39:30Z</time></trkpt><trkpt lat="48.109447691146514" lon="11.755640320459705"><ele>542.0</ele><time>2026-04-18T11:39:31Z</time></trkpt><trkpt lat="48.10964007493514" lon="11.755709671506278"><ele>542.0</ele><time>2026-04-18T11:39:32Z</time></trkpt><trkpt lat="48.10983684646693" lon="11.755777988990369"><ele>542.0</ele><time>2026-04-18T11:39:33Z</time></trkpt><trkpt lat="48.11003266451692" lon="11.755845102199373"><ele>542.0</ele><time>2026-04-18T11:39:34Z</time></trkpt><trkpt lat="48.11022756803989" lon="11.755913209780058"><ele>542.0</ele><time>2026-04-18T11:39:35Z</time></trkpt><trkpt lat="48.11042111928741" lon="11.75598013947421"><ele>542.0</ele><time>2026-04-18T11:39:36Z</time></trkpt><trkpt lat="48.11061396566269" lon="11.7560472962266"><ele>542.0</ele><time>2026-04-18T11:39:37Z</time></trkpt><trkpt lat="48.11080801092531" lon="11.756115117183075"><ele>543.0</ele><time>2026-04-18T11:39:38Z</time></trkpt><trkpt lat="48.11100255412066" lon="11.75618436381811"><ele>544.0</ele><time>2026-04-18T11:39:39Z</time></trkpt><trkpt lat="48.111195543235674" lon="11.756249362581825"><ele>545.0</ele><time>2026-04-18T11:39:40Z</time></trkpt><trkpt lat="48.111390238457915" lon="11.756311850084924"><ele>544.3333333333333</ele><time>2026-04-18T11:39:41Z</time></trkpt><trkpt lat="48.1115872603684" lon="11.756373395536567"><ele>543.6666666666666</ele><time>2026-04-18T11:39:42Z</time></trkpt><trkpt lat="48.1117818540604" lon="11.756432875280778"><ele>543.0</ele><time>2026-04-18T11:39:43Z</time></trkpt><trkpt lat="48.111974258850765" lon="11.756491561749547"><ele>543.0</ele><time>2026-04-18T11:39:44Z</time></trkpt><trkpt lat="48.11216386781306" lon="11.756552764029163"><ele>543.0</ele><time>2026-04-18T11:39:45Z</time></trkpt><trkpt lat="48.11235243771694" lon="11.75661267588114"><ele>543.0</ele><time>2026-04-18T11:39:46Z</time></trkpt><trkpt lat="48.1125381311758" lon="11.756671791845521"><ele>542.3333333333334</ele><time>2026-04-18T11:39:47Z</time></trkpt><trkpt lat="48.11272576887454" lon="11.756731889580342"><ele>541.6666666666667</ele><time>2026-04-18T11:39:48Z</time></trkpt><trkpt lat="48.112913129105536" lon="11.756789935635917"><ele>541.0</ele><time>2026-04-18T11:39:49Z</time></trkpt><trkpt lat="48.11310104011221" lon="11.7568460810816"><ele>540.6666666666667</ele><time>2026-04-18T11:39:50Z</time></trkpt><trkpt lat="48.11328818610485" lon="11.756901075824263"><ele>540.3333333333334</ele><time>2026-04-18T11:39:51Z</time></trkpt><trkpt lat="48.113471501065746" lon="11.756953375959263"><ele>540.0</ele><time>2026-04-18T11:39:52Z</time></trkpt><trkpt lat="48.113656163775886" lon="11.757006489220556"><ele>540.0</ele><time>2026-04-18T11:39:53Z</time></trkpt><trkpt lat="48.113841977515634" lon="11.757056103864672"><ele>540.0</ele><time>2026-04-18T11:39:54Z</time></trkpt><trkpt lat="48.114032907968436" lon="11.757113447793849"><ele>540.0</ele><time>2026-04-18T11:39:55Z</time></trkpt><trkpt lat="48.114226120482265" lon="11.757169427335285"><ele>540.0</ele><time>2026-04-18T11:39:56Z</time></trkpt><trkpt lat="48.11441254487203" lon="11.757222637855005"><ele>540.0</ele><time>2026-04-18T11:39:57Z</time></trkpt><trkpt lat="48.1146011864371" lon="11.757275619876207"><ele>540.0</ele><time>2026-04-18T11:39:58Z</time></trkpt><trkpt lat="48.114790549777844" lon="11.75732779056213"><ele>539.6666666666666</ele><time>2026-04-18T11:39:59Z</time></trkpt><trkpt lat="48.11497782794042" lon="11.757377803448932"><ele>539.3333333333333</ele><time>2026-04-18T11:40:00Z</time></trkpt><trkpt lat="48.115162587460134" lon="11.757426144261895"><ele>539.0</ele><time>2026-04-18T11:40:01Z</time></trkpt><trkpt lat="48.115348840867604" lon="11.757474555718964"><ele>539.0</ele><time>2026-04-18T11:40:02Z</time></trkpt><trkpt lat="48.115533731008036" lon="11.757521272252905"><ele>539.0</ele><time>2026-04-18T11:40:03Z</time></trkpt><trkpt lat="48.11572162357417" lon="11.757569381772333"><ele>539.0</ele><time>2026-04-18T11:40:04Z</time></trkpt><trkpt lat="48.115912974903175" lon="11.757617234113471"><ele>538.6666666666666</ele><time>2026-04-18T11:40:05Z</time></trkpt><trkpt lat="48.11610652783369" lon="11.757663906703087"><ele>538.3333333333334</ele><time>2026-04-18T11:40:06Z</time></trkpt><trkpt lat="48.116298647575036" lon="11.757709731893485"><ele>538.0</ele><time>2026-04-18T11:40:07Z</time></trkpt><trkpt lat="48.116491055018066" lon="11.757755693204253"><ele>538.6666666666667</ele><time>2026-04-18T11:40:08Z</time></trkpt><trkpt lat="48.116686914390954" lon="11.757801944284312"><ele>539.3333333333334</ele><time>2026-04-18T11:40:09Z</time></trkpt><trkpt lat="48.116892462046145" lon="11.757847801874933"><ele>540.0</ele><time>2026-04-18T11:40:10Z</time></trkpt><trkpt lat="48.11710207972671" lon="11.757891779367736"><ele>540.0</ele><time>2026-04-18T11:40:11Z</time></trkpt><trkpt lat="48.1173161399259" lon="11.757937368877137"><ele>540.0</ele><time>2026-04-18T11:40:12Z</time></trkpt><trkpt lat="48.117532600907175" lon="11.757983553726056"><ele>540.0</ele><time>2026-04-18T11:40:13Z</time></trkpt><trkpt lat="48.117749381472635" lon="11.758031006057633"><ele>539.6666666666666</ele><time>2026-04-18T11:40:14Z</time></trkpt><trkpt lat="48.11796670190057" lon="11.758080881655806"><ele>539.3333333333333</ele><time>2026-04-18T11:40:15Z</time></trkpt><trkpt lat="48.118184898289954" lon="11.758130256312867"><ele>539.0</ele><time>2026-04-18T11:40:16Z</time></trkpt><trkpt lat="48.11840572295325" lon="11.758174991834796"><ele>538.6666666666666</ele><time>2026-04-18T11:40:17Z</time></trkpt><trkpt lat="48.118627373507934" lon="11.758217218707411"><ele>538.3333333333334</ele><time>2026-04-18T11:40:18Z</time></trkpt><trkpt lat="48.118848404078676" lon="11.758259709266667"><ele>538.0</ele><time>2026-04-18T11:40:19Z</time></trkpt><trkpt lat="48.119069917346046" lon="11.75830426932122"><ele>537.3333333333334</ele><time>2026-04-18T11:40:20Z</time></trkpt><trkpt lat="48.11929213224961" lon="11.758351069578639"><ele>536.6666666666666</ele><time>2026-04-18T11:40:21Z</time></trkpt><trkpt lat="48.11951414881377" lon="11.758393787642255"><ele>536.0</ele><time>2026-04-18T11:40:22Z</time></trkpt><trkpt lat="48.11973654573994" lon="11.75843263389104"><ele>536.6666666666666</ele><time>2026-04-18T11:40:23Z</time></trkpt><trkpt lat="48.11995835311682" lon="11.75847145844971"><ele>537.3333333333334</ele><time>2026-04-18T11:40:24Z</time></trkpt><trkpt lat="48.120180301929935" lon="11.758508371706279"><ele>538.0</ele><time>2026-04-18T11:40:25Z</time></trkpt><trkpt lat="48.12040415510376" lon="11.758544883354366"><ele>538.0</ele><time>2026-04-18T11:40:26Z</time></trkpt><trkpt lat="48.12062784585867" lon="11.758581027270742"><ele>538.0</ele><time>2026-04-18T11:40:27Z</time></trkpt><trkpt lat="48.12084785314165" lon="11.758618552404178"><ele>538.0</ele><time>2026-04-18T11:40:28Z</time></trkpt><trkpt lat="48.121064425761894" lon="11.758655312230928"><ele>538.3333333333334</ele><time>2026-04-18T11:40:29Z</time></trkpt><trkpt lat="48.1212776448542" lon="11.758690553718637"><ele>538.6666666666666</ele><time>2026-04-18T11:40:30Z</time></trkpt><trkpt lat="48.12148940461841" lon="11.758724117553198"><ele>539.0</ele><time>2026-04-18T11:40:31Z</time></trkpt><trkpt lat="48.12169967588715" lon="11.758756400909"><ele>539.0</ele><time>2026-04-18T11:40:32Z</time></trkpt><trkpt lat="48.12191089787543" lon="11.758788516273244"><ele>539.0</ele><time>2026-04-18T11:40:33Z</time></trkpt><trkpt lat="48.12212209955771" lon="11.75881978518627"><ele>539.0</ele><time>2026-04-18T11:40:34Z</time></trkpt><trkpt lat="48.12233705769229" lon="11.758851479861416"><ele>538.3333333333333</ele><time>2026-04-18T11:40:35Z</time></trkpt><trkpt lat="48.12255489971013" lon="11.758882650113113"><ele>537.6666666666666</ele><time>2026-04-18T11:40:36Z</time></trkpt><trkpt lat="48.12277498833528" lon="11.758912532718748"><ele>537.0</ele><time>2026-04-18T11:40:37Z</time></trkpt><trkpt lat="48.12299715836997" lon="11.758942696426029"><ele>537.0</ele><time>2026-04-18T11:40:38Z</time></trkpt><trkpt lat="48.12321462779106" lon="11.758969217742"><ele>537.0</ele><time>2026-04-18T11:40:39Z</time></trkpt><trkpt lat="48.123423336288404" lon="11.758993939433946"><ele>537.0</ele><time>2026-04-18T11:40:40Z</time></trkpt><trkpt lat="48.12363399927601" lon="11.759016744377577"><ele>536.6666666666666</ele><time>2026-04-18T11:40:41Z</time></trkpt><trkpt lat="48.12384075998679" lon="11.759040380609125"><ele>536.3333333333333</ele><time>2026-04-18T11:40:42Z</time></trkpt><trkpt lat="48.12404241699058" lon="11.759063525955407"><ele>536.0</ele><time>2026-04-18T11:40:43Z</time></trkpt><trkpt lat="48.124242663085035" lon="11.759086431053719"><ele>535.6666666666666</ele><time>2026-04-18T11:40:44Z</time></trkpt><trkpt lat="48.124441864542106" lon="11.759107157987097"><ele>535.3333333333334</ele><time>2026-04-18T11:40:45Z</time></trkpt><trkpt lat="48.12464047356349" lon="11.759124663754587"><ele>535.0</ele><time>2026-04-18T11:40:46Z</time></trkpt><trkpt lat="48.12484345708782" lon="11.759146475239795"><ele>535.3333333333334</ele><time>2026-04-18T11:40:47Z</time></trkpt><trkpt lat="48.12504837826485" lon="11.759169106592248"><ele>535.6666666666666</ele><time>2026-04-18T11:40:48Z</time></trkpt><trkpt lat="48.12525664477334" lon="11.759187333402426"><ele>536.0</ele><time>2026-04-18T11:40:49Z</time></trkpt><trkpt lat="48.12546806648897" lon="11.759205813311176"><ele>536.0</ele><time>2026-04-18T11:40:50Z</time></trkpt><trkpt lat="48.12568324110889" lon="11.759215433041431"><ele>536.0</ele><time>2026-04-18T11:40:51Z</time></trkpt><trkpt lat="48.12590952250236" lon="11.759233093945"><ele>536.0</ele><time>2026-04-18T11:40:52Z</time></trkpt><trkpt lat="48.126146244052194" lon="11.759236902629963"><ele>535.5</ele><time>2026-04-18T11:40:53Z</time></trkpt><trkpt lat="48.12639134568688" lon="11.75923626561223"><ele>535.0</ele><time>2026-04-18T11:40:54Z</time></trkpt><trkpt lat="48.12663662911341" lon="11.759238346008654"><ele>534.0</ele><time>2026-04-18T11:40:55Z</time></trkpt><trkpt lat="48.12687923057382" lon="11.759255229893375"><ele>533.0</ele><time>2026-04-18T11:40:56Z</time></trkpt><trkpt lat="48.127120266910715" lon="11.759270320284061"><ele>533.0</ele><time>2026-04-18T11:40:57Z</time></trkpt><trkpt lat="48.12735935175781" lon="11.759285528641534"><ele>533.0</ele><time>2026-04-18T11:40:58Z</time></trkpt><trkpt lat="48.12760451279241" lon="11.75929826795137"><ele>533.5</ele><time>2026-04-18T11:40:59Z</time></trkpt><trkpt lat="48.127850143367894" lon="11.759307055186055"><ele>534.0</ele><time>2026-04-18T11:41:00Z</time></trkpt><trkpt lat="48.12809607458034" lon="11.759315118937462"><ele>533.5</ele><time>2026-04-18T11:41:01Z</time></trkpt><trkpt lat="48.12834578906272" lon="11.75932473469044"><ele>533.0</ele><time>2026-04-18T11:41:02Z</time></trkpt><trkpt lat="48.1285946571306" lon="11.759340600159964"><ele>533.0</ele><time>2026-04-18T11:41:03Z</time></trkpt><trkpt lat="48.128840899782936" lon="11.759351322908783"><ele>533.0</ele><time>2026-04-18T11:41:04Z</time></trkpt><trkpt lat="48.129084446915485" lon="11.75935789838899"><ele>532.5</ele><time>2026-04-18T11:41:05Z</time></trkpt><trkpt lat="48.129327245493776" lon="11.75936138628363"><ele>532.0</ele><time>2026-04-18T11:41:06Z</time></trkpt><trkpt lat="48.12956543286171" lon="11.759364381168155"><ele>532.0</ele><time>2026-04-18T11:41:07Z</time></trkpt><trkpt lat="48.12980153098627" lon="11.759368735379477"><ele>532.0</ele><time>2026-04-18T11:41:08Z</time></trkpt><trkpt lat="48.1300403593309" lon="11.759372475492837"><ele>531.5</ele><time>2026-04-18T11:41:09Z</time></trkpt><trkpt lat="48.13027625829532" lon="11.759377940413588"><ele>531.0</ele><time>2026-04-18T11:41:10Z</time></trkpt><trkpt lat="48.13051160643832" lon="11.75938026755683"><ele>530.5</ele><time>2026-04-18T11:41:11Z</time></trkpt><trkpt lat="48.130747685402746" lon="11.75938058357566"><ele>530.0</ele><time>2026-04-18T11:41:12Z</time></trkpt><trkpt lat="48.13098319672481" lon="11.759381228418894"><ele>530.0</ele><time>2026-04-18T11:41:13Z</time></trkpt><trkpt lat="48.13121536407087" lon="11.759380071722505"><ele>530.0</ele><time>2026-04-18T11:41:14Z</time></trkpt><trkpt lat="48.13144971810557" lon="11.759379915435293"><ele>530.5</ele><time>2026-04-18T11:41:15Z</time></trkpt><trkpt lat="48.13168340036908" lon="11.759383146486657"><ele>531.0</ele><time>2026-04-18T11:41:16Z</time></trkpt><trkpt lat="48.13191865290387" lon="11.759390477108083"><ele>531.0</ele><time>2026-04-18T11:41:17Z</time></trkpt><trkpt lat="48.13215703845812" lon="11.759400355200711"><ele>531.0</ele><time>2026-04-18T11:41:18Z</time></trkpt><trkpt lat="48.13239478504824" lon="11.75941140906081"><ele>530.0</ele><time>2026-04-18T11:41:19Z</time></trkpt><trkpt lat="48.132626366365486" lon="11.759416801308571"><ele>529.0</ele><time>2026-04-18T11:41:20Z</time></trkpt><trkpt lat="48.13285464067035" lon="11.75940780661056"><ele>529.0</ele><time>2026-04-18T11:41:21Z</time></trkpt><trkpt lat="48.13308320992827" lon="11.759395728596338"><ele>529.0</ele><time>2026-04-18T11:41:22Z</time></trkpt><trkpt lat="48.13331095211661" lon="11.759386962744895"><ele>529.0</ele><time>2026-04-18T11:41:23Z</time></trkpt><trkpt lat="48.13353642689419" lon="11.7593770259574"><ele>529.0</ele><time>2026-04-18T11:41:24Z</time></trkpt><trkpt lat="48.13376187776835" lon="11.759364812873915"><ele>529.0</ele><time>2026-04-18T11:41:25Z</time></trkpt><trkpt lat="48.13399313827334" lon="11.759348973072955"><ele>529.0</ele><time>2026-04-18T11:41:26Z</time></trkpt><trkpt lat="48.134223574158796" lon="11.759339610280973"><ele>530.0</ele><time>2026-04-18T11:41:27Z</time></trkpt><trkpt lat="48.13445052057732" lon="11.759325520495755"><ele>531.0</ele><time>2026-04-18T11:41:28Z</time></trkpt><trkpt lat="48.13468220128865" lon="11.759304834687523"><ele>530.5</ele><time>2026-04-18T11:41:29Z</time></trkpt><trkpt lat="48.134916827783144" lon="11.7592834792923"><ele>530.0</ele><time>2026-04-18T11:41:30Z</time></trkpt><trkpt lat="48.135156957671974" lon="11.759264818961114"><ele>530.0</ele><time>2026-04-18T11:41:31Z</time></trkpt><trkpt lat="48.13539935544162" lon="11.759250915604044"><ele>530.0</ele><time>2026-04-18T11:41:32Z</time></trkpt><trkpt lat="48.13564057273308" lon="11.759235166289436"><ele>530.5</ele><time>2026-04-18T11:41:33Z</time></trkpt><trkpt lat="48.135880950492606" lon="11.75921205212023"><ele>531.0</ele><time>2026-04-18T11:41:34Z</time></trkpt><trkpt lat="48.13612023159284" lon="11.759189821956209"><ele>531.0</ele><time>2026-04-18T11:41:35Z</time></trkpt><trkpt lat="48.136358689036136" lon="11.759168425911353"><ele>531.0</ele><time>2026-04-18T11:41:36Z</time></trkpt><trkpt lat="48.13659806590562" lon="11.759144289875003"><ele>530.5</ele><time>2026-04-18T11:41:37Z</time></trkpt><trkpt lat="48.13683559624255" lon="11.759118743550694"><ele>530.0</ele><time>2026-04-18T11:41:38Z</time></trkpt><trkpt lat="48.13707326165597" lon="11.759095346544916"><ele>530.0</ele><time>2026-04-18T11:41:39Z</time></trkpt><trkpt lat="48.137312248961486" lon="11.759070731093303"><ele>530.0</ele><time>2026-04-18T11:41:40Z</time></trkpt><trkpt lat="48.1375519064319" lon="11.75904326440165"><ele>529.0</ele><time>2026-04-18T11:41:41Z</time></trkpt><trkpt lat="48.137795413568185" lon="11.759014979385649"><ele>528.0</ele><time>2026-04-18T11:41:42Z</time></trkpt><trkpt lat="48.13803860164944" lon="11.758983835195771"><ele>527.5</ele><time>2026-04-18T11:41:43Z</time></trkpt><trkpt lat="48.138283395949735" lon="11.75895322493697"><ele>527.0</ele><time>2026-04-18T11:41:44Z</time></trkpt><trkpt lat="48.13852813953277" lon="11.758918143104076"><ele>527.0</ele><time>2026-04-18T11:41:45Z</time></trkpt><trkpt lat="48.138772850452334" lon="11.758877848609519"><ele>527.0</ele><time>2026-04-18T11:41:46Z</time></trkpt><trkpt lat="48.139012084294805" lon="11.758838157134864"><ele>527.0</ele><time>2026-04-18T11:41:47Z</time></trkpt><trkpt lat="48.13924649829738" lon="11.758799303945711"><ele>527.0</ele><time>2026-04-18T11:41:48Z</time></trkpt><trkpt lat="48.13947926198309" lon="11.758761243285642"><ele>527.0</ele><time>2026-04-18T11:41:49Z</time></trkpt><trkpt lat="48.13971446438927" lon="11.75872358241176"><ele>527.0</ele><time>2026-04-18T11:41:50Z</time></trkpt><trkpt lat="48.13995204167697" lon="11.7586831275999"><ele>526.0</ele><time>2026-04-18T11:41:51Z</time></trkpt><trkpt lat="48.1401908475099" lon="11.758638111756543"><ele>525.0</ele><time>2026-04-18T11:41:52Z</time></trkpt><trkpt lat="48.14042245663565" lon="11.758592950308666"><ele>525.0</ele><time>2026-04-18T11:41:53Z</time></trkpt><trkpt lat="48.14065020119436" lon="11.758547200029946"><ele>525.0</ele><time>2026-04-18T11:41:54Z</time></trkpt><trkpt lat="48.14087670859945" lon="11.758500854262282"><ele>524.5</ele><time>2026-04-18T11:41:55Z</time></trkpt><trkpt lat="48.14110323344084" lon="11.758454117294912"><ele>524.0</ele><time>2026-04-18T11:41:56Z</time></trkpt><trkpt lat="48.141329162622654" lon="11.75840280100716"><ele>526.0</ele><time>2026-04-18T11:41:57Z</time></trkpt><trkpt lat="48.14155389345658" lon="11.75834937006447"><ele>528.0</ele><time>2026-04-18T11:41:58Z</time></trkpt><trkpt lat="48.14178041651528" lon="11.758293840687053"><ele>528.0</ele><time>2026-04-18T11:41:59Z</time></trkpt><trkpt lat="48.14201002651304" lon="11.758242037771389"><ele>528.0</ele><time>2026-04-18T11:42:00Z</time></trkpt><trkpt lat="48.14224098450481" lon="11.75818576501197"><ele>527.5</ele><time>2026-04-18T11:42:01Z</time></trkpt><trkpt lat="48.14247480043937" lon="11.758127687836007"><ele>527.0</ele><time>2026-04-18T11:42:01.999Z</time></trkpt><trkpt lat="48.14270862486703" lon="11.758069952249757"><ele>527.0</ele><time>2026-04-18T11:42:02.999Z</time></trkpt><trkpt lat="48.142944995666845" lon="11.758009226610461"><ele>527.0</ele><time>2026-04-18T11:42:03.999Z</time></trkpt><trkpt lat="48.14318344504279" lon="11.7579474059174"><ele>525.5</ele><time>2026-04-18T11:42:04.999Z</time></trkpt><trkpt lat="48.143414844086465" lon="11.757878665990512"><ele>524.0</ele><time>2026-04-18T11:42:05.999Z</time></trkpt><trkpt lat="48.14364092952792" lon="11.757811613206469"><ele>524.0</ele><time>2026-04-18T11:42:06.999Z</time></trkpt><trkpt lat="48.14388904535489" lon="11.757728405217406"><ele>524.0</ele><time>2026-04-18T11:42:07.999Z</time></trkpt><trkpt lat="48.1441303619395" lon="11.757656848191743"><ele>523.0</ele><time>2026-04-18T11:42:08.999Z</time></trkpt><trkpt lat="48.14435079661045" lon="11.757580188532978"><ele>522.0</ele><time>2026-04-18T11:42:10Z</time></trkpt><trkpt lat="48.14458257453085" lon="11.757506308389168"><ele>522.0</ele><time>2026-04-18T11:42:11Z</time></trkpt><trkpt lat="48.144806766377734" lon="11.757428360454496"><ele>522.0</ele><time>2026-04-18T11:42:12Z</time></trkpt><trkpt lat="48.145031584163064" lon="11.757349116847335"><ele>523.0</ele><time>2026-04-18T11:42:13Z</time></trkpt><trkpt lat="48.14524356270542" lon="11.757264001576004"><ele>524.0</ele><time>2026-04-18T11:42:14Z</time></trkpt><trkpt lat="48.145453426335926" lon="11.757179729417269"><ele>525.0</ele><time>2026-04-18T11:42:15Z</time></trkpt><trkpt lat="48.145671731880974" lon="11.75709620918923"><ele>524.0</ele><time>2026-04-18T11:42:16Z</time></trkpt><trkpt lat="48.145892259526825" lon="11.757012962451022"><ele>523.0</ele><time>2026-04-18T11:42:17Z</time></trkpt><trkpt lat="48.14611484983139" lon="11.756921896464949"><ele>522.5</ele><time>2026-04-18T11:42:18Z</time></trkpt><trkpt lat="48.146340808861986" lon="11.756822839540028"><ele>522.0</ele><time>2026-04-18T11:42:19Z</time></trkpt><trkpt lat="48.146567599253586" lon="11.756725307916977"><ele>523.0</ele><time>2026-04-18T11:42:20Z</time></trkpt><trkpt lat="48.146794167769116" lon="11.756623380724442"><ele>524.0</ele><time>2026-04-18T11:42:21Z</time></trkpt><trkpt lat="48.14702300329684" lon="11.75652477239958"><ele>524.0</ele><time>2026-04-18T11:42:22Z</time></trkpt><trkpt lat="48.147250308251515" lon="11.75642591590049"><ele>524.0</ele><time>2026-04-18T11:42:23Z</time></trkpt><trkpt lat="48.147475600197616" lon="11.756323940426611"><ele>523.5</ele><time>2026-04-18T11:42:24.001Z</time></trkpt><trkpt lat="48.14769954647771" lon="11.756218389655352"><ele>523.0</ele><time>2026-04-18T11:42:25.001Z</time></trkpt><trkpt lat="48.147924919842325" lon="11.756108793641353"><ele>523.0</ele><time>2026-04-18T11:42:26.001Z</time></trkpt><trkpt lat="48.14814868323231" lon="11.755998809809576"><ele>523.0</ele><time>2026-04-18T11:42:27.001Z</time></trkpt><trkpt lat="48.14836864764154" lon="11.755888316940442"><ele>523.0</ele><time>2026-04-18T11:42:28.001Z</time></trkpt><trkpt lat="48.14859205667791" lon="11.755771652174502"><ele>523.0</ele><time>2026-04-18T11:42:29.001Z</time></trkpt><trkpt lat="48.14882336288806" lon="11.755641780560413"><ele>523.0</ele><time>2026-04-18T11:42:30.001Z</time></trkpt><trkpt lat="48.14905315902332" lon="11.755515170427758"><ele>523.0</ele><time>2026-04-18T11:42:31.001Z</time></trkpt><trkpt lat="48.1492743239403" lon="11.755396671568608"><ele>523.0</ele><time>2026-04-18T11:42:32.001Z</time></trkpt><trkpt lat="48.14949232352332" lon="11.755280816843836"><ele>523.0</ele><time>2026-04-18T11:42:33.001Z</time></trkpt><trkpt lat="48.14971209643117" lon="11.755160434365964"><ele>522.5</ele><time>2026-04-18T11:42:34.001Z</time></trkpt><trkpt lat="48.149929281189834" lon="11.755036964778785"><ele>522.0</ele><time>2026-04-18T11:42:35.001Z</time></trkpt><trkpt lat="48.15014270297184" lon="11.754916357535848"><ele>522.0</ele><time>2026-04-18T11:42:36.001Z</time></trkpt><trkpt lat="48.15036061250962" lon="11.754788717607159"><ele>522.0</ele><time>2026-04-18T11:42:37.001Z</time></trkpt><trkpt lat="48.15057911734635" lon="11.754653572648714"><ele>521.0</ele><time>2026-04-18T11:42:38.001Z</time></trkpt><trkpt lat="48.150798124799024" lon="11.754518480680836"><ele>520.0</ele><time>2026-04-18T11:42:39.001Z</time></trkpt><trkpt lat="48.151019288255476" lon="11.754381768605795"><ele>520.0</ele><time>2026-04-18T11:42:40.001Z</time></trkpt><trkpt lat="48.15124251684808" lon="11.75423764029187"><ele>520.0</ele><time>2026-04-18T11:42:41.001Z</time></trkpt><trkpt lat="48.15146531443438" lon="11.754092873788128"><ele>521.0</ele><time>2026-04-18T11:42:42.001Z</time></trkpt><trkpt lat="48.151687186909356" lon="11.753952728777248"><ele>522.0</ele><time>2026-04-18T11:42:43.001Z</time></trkpt><trkpt lat="48.15190897416471" lon="11.75381113069142"><ele>522.0</ele><time>2026-04-18T11:42:44.001Z</time></trkpt><trkpt lat="48.15212926965128" lon="11.753662618191926"><ele>522.0</ele><time>2026-04-18T11:42:45.001Z</time></trkpt><trkpt lat="48.152348736744166" lon="11.753514624400404"><ele>521.5</ele><time>2026-04-18T11:42:46Z</time></trkpt><trkpt lat="48.15256615060945" lon="11.753371481498943"><ele>521.0</ele><time>2026-04-18T11:42:47Z</time></trkpt><trkpt lat="48.15278314688298" lon="11.753222491726845"><ele>521.0</ele><time>2026-04-18T11:42:48Z</time></trkpt><trkpt lat="48.153002125330744" lon="11.75306664564407"><ele>521.0</ele><time>2026-04-18T11:42:49Z</time></trkpt><trkpt lat="48.153234943557955" lon="11.752917172451117"><ele>520.5</ele><time>2026-04-18T11:42:50Z</time></trkpt><trkpt lat="48.1534530248687" lon="11.752761867070868"><ele>520.0</ele><time>2026-04-18T11:42:51Z</time></trkpt><trkpt lat="48.15367051754702" lon="11.752603611875408"><ele>520.0</ele><time>2026-04-18T11:42:52Z</time></trkpt><trkpt lat="48.15389005445107" lon="11.752443290631838"><ele>520.0</ele><time>2026-04-18T11:42:53Z</time></trkpt><trkpt lat="48.154114025480986" lon="11.752280132191597"><ele>519.5</ele><time>2026-04-18T11:42:54Z</time></trkpt><trkpt lat="48.154342213344805" lon="11.752112378344773"><ele>519.0</ele><time>2026-04-18T11:42:55Z</time></trkpt><trkpt lat="48.15457486429711" lon="11.751941387383491"><ele>519.0</ele><time>2026-04-18T11:42:56Z</time></trkpt><trkpt lat="48.15480708634857" lon="11.751766967268729"><ele>519.0</ele><time>2026-04-18T11:42:57Z</time></trkpt><trkpt lat="48.15503681499244" lon="11.751587594804263"><ele>519.0</ele><time>2026-04-18T11:42:58Z</time></trkpt><trkpt lat="48.155261320864845" lon="11.751412912626135"><ele>519.0</ele><time>2026-04-18T11:42:59Z</time></trkpt><trkpt lat="48.155481537564576" lon="11.751239421494343"><ele>519.0</ele><time>2026-04-18T11:43:00Z</time></trkpt><trkpt lat="48.15569796987412" lon="11.751070827031409"><ele>519.0</ele><time>2026-04-18T11:43:01Z</time></trkpt><trkpt lat="48.15591141597885" lon="11.750902786189393"><ele>518.5</ele><time>2026-04-18T11:43:02Z</time></trkpt><trkpt lat="48.15612355902744" lon="11.750735305478297"><ele>518.0</ele><time>2026-04-18T11:43:03Z</time></trkpt><trkpt lat="48.15633478951779" lon="11.750565476567882"><ele>518.5</ele><time>2026-04-18T11:43:04Z</time></trkpt><trkpt lat="48.15654024774426" lon="11.75039521171877"><ele>519.0</ele><time>2026-04-18T11:43:05Z</time></trkpt><trkpt lat="48.15674545036711" lon="11.750228854535319"><ele>518.5</ele><time>2026-04-18T11:43:06Z</time></trkpt><trkpt lat="48.15695148954217" lon="11.750064672042251"><ele>518.0</ele><time>2026-04-18T11:43:07Z</time></trkpt><trkpt lat="48.15716012781522" lon="11.749896073174241"><ele>518.5</ele><time>2026-04-18T11:43:08Z</time></trkpt><trkpt lat="48.15736924614225" lon="11.749721192446033"><ele>519.0</ele><time>2026-04-18T11:43:09Z</time></trkpt><trkpt lat="48.1575793209012" lon="11.749546763626723"><ele>519.0</ele><time>2026-04-18T11:43:10Z</time></trkpt><trkpt lat="48.15778239375246" lon="11.749379852803413"><ele>519.0</ele><time>2026-04-18T11:43:11Z</time></trkpt><trkpt lat="48.15797743777306" lon="11.749214376897921"><ele>517.5</ele><time>2026-04-18T11:43:12Z</time></trkpt><trkpt lat="48.1581792954371" lon="11.749049843069617"><ele>516.0</ele><time>2026-04-18T11:43:13Z</time></trkpt><trkpt lat="48.158383991135985" lon="11.748883207463383"><ele>516.0</ele><time>2026-04-18T11:43:14Z</time></trkpt><trkpt lat="48.15858994060622" lon="11.748713118119678"><ele>516.0</ele><time>2026-04-18T11:43:15Z</time></trkpt><trkpt lat="48.15879067573206" lon="11.748546086705502"><ele>516.0</ele><time>2026-04-18T11:43:16Z</time></trkpt><trkpt lat="48.158984379867945" lon="11.748379701328448"><ele>516.0</ele><time>2026-04-18T11:43:17Z</time></trkpt><trkpt lat="48.159177491272246" lon="11.748214281879589"><ele>516.0</ele><time>2026-04-18T11:43:18Z</time></trkpt><trkpt lat="48.15936976839882" lon="11.748052134723846"><ele>516.0</ele><time>2026-04-18T11:43:19Z</time></trkpt><trkpt lat="48.159560231382095" lon="11.747887912227258"><ele>516.0</ele><time>2026-04-18T11:43:20Z</time></trkpt><trkpt lat="48.159742941670984" lon="11.747729058020019"><ele>516.0</ele><time>2026-04-18T11:43:21Z</time></trkpt><trkpt lat="48.15992986396395" lon="11.747570497681494"><ele>516.0</ele><time>2026-04-18T11:43:22Z</time></trkpt><trkpt lat="48.16011586571003" lon="11.747412563369537"><ele>516.0</ele><time>2026-04-18T11:43:23Z</time></trkpt><trkpt lat="48.16029790471884" lon="11.74725368887501"><ele>516.0</ele><time>2026-04-18T11:43:24Z</time></trkpt><trkpt lat="48.16047893661414" lon="11.747097008659134"><ele>516.0</ele><time>2026-04-18T11:43:25Z</time></trkpt><trkpt lat="48.160659392121595" lon="11.746938605860112"><ele>516.0</ele><time>2026-04-18T11:43:26Z</time></trkpt><trkpt lat="48.16083789607845" lon="11.746786649472574"><ele>516.0</ele><time>2026-04-18T11:43:27Z</time></trkpt><trkpt lat="48.16102076551068" lon="11.74665067064382"><ele>516.0</ele><time>2026-04-18T11:43:28Z</time></trkpt><trkpt lat="48.161197421661164" lon="11.746515179712942"><ele>516.0</ele><time>2026-04-18T11:43:29Z</time></trkpt><trkpt lat="48.161372339975074" lon="11.746370583533253"><ele>516.0</ele><time>2026-04-18T11:43:30Z</time></trkpt><trkpt lat="48.16153868388798" lon="11.746226989797757"><ele>516.0</ele><time>2026-04-18T11:43:31Z</time></trkpt><trkpt lat="48.16169068031042" lon="11.74609360470471"><ele>516.0</ele><time>2026-04-18T11:43:32Z</time></trkpt><trkpt lat="48.16183256201116" lon="11.745966890942398"><ele>516.0</ele><time>2026-04-18T11:43:33Z</time></trkpt><trkpt lat="48.161962256391526" lon="11.7458483396181"><ele>516.0</ele><time>2026-04-18T11:43:34Z</time></trkpt><trkpt lat="48.16208800566107" lon="11.745733313874554"><ele>516.0</ele><time>2026-04-18T11:43:35Z</time></trkpt><trkpt lat="48.16221288887274" lon="11.745616054646575"><ele>516.0</ele><time>2026-04-18T11:43:36Z</time></trkpt><trkpt lat="48.16234544864806" lon="11.745500137621015"><ele>516.0</ele><time>2026-04-18T11:43:37Z</time></trkpt><trkpt lat="48.16247644785892" lon="11.745386582171566"><ele>516.25</ele><time>2026-04-18T11:43:38Z</time></trkpt><trkpt lat="48.16260189037536" lon="11.745272852871748"><ele>516.5</ele><time>2026-04-18T11:43:39Z</time></trkpt><trkpt lat="48.162731509657" lon="11.74515999839008"><ele>516.75</ele><time>2026-04-18T11:43:40Z</time></trkpt><trkpt lat="48.16286421108939" lon="11.745047252976223"><ele>517.0</ele><time>2026-04-18T11:43:41Z</time></trkpt><trkpt lat="48.163004291454115" lon="11.744945703446888"><ele>517.0</ele><time>2026-04-18T11:43:42Z</time></trkpt><trkpt lat="48.16314392133949" lon="11.744843658610954"><ele>517.0</ele><time>2026-04-18T11:43:43Z</time></trkpt><trkpt lat="48.16327939673517" lon="11.74473001503722"><ele>517.0</ele><time>2026-04-18T11:43:44Z</time></trkpt><trkpt lat="48.163415108588325" lon="11.74460966624615"><ele>516.3333333333334</ele><time>2026-04-18T11:43:45Z</time></trkpt><trkpt lat="48.16354949131943" lon="11.744488134115638"><ele>515.6666666666666</ele><time>2026-04-18T11:43:46Z</time></trkpt><trkpt lat="48.163687546922496" lon="11.744361637575564"><ele>515.0</ele><time>2026-04-18T11:43:47Z</time></trkpt><trkpt lat="48.163827979233595" lon="11.744229850336335"><ele>515.0</ele><time>2026-04-18T11:43:48Z</time></trkpt><trkpt lat="48.16397045845161" lon="11.744085132263692"><ele>515.0</ele><time>2026-04-18T11:43:49Z</time></trkpt><trkpt lat="48.16411994360947" lon="11.743937352637225"><ele>515.0</ele><time>2026-04-18T11:43:50Z</time></trkpt><trkpt lat="48.1642685102366" lon="11.74379087003661"><ele>514.6666666666666</ele><time>2026-04-18T11:43:51Z</time></trkpt><trkpt lat="48.16441804528759" lon="11.743651264671026"><ele>514.3333333333334</ele><time>2026-04-18T11:43:52Z</time></trkpt><trkpt lat="48.16456616555966" lon="11.74351226362129"><ele>514.0</ele><time>2026-04-18T11:43:53Z</time></trkpt><trkpt lat="48.1647114232667" lon="11.74337988696812"><ele>514.0</ele><time>2026-04-18T11:43:54Z</time></trkpt><trkpt lat="48.16485544207422" lon="11.743251521787572"><ele>514.0</ele><time>2026-04-18T11:43:55Z</time></trkpt><trkpt lat="48.16499476928744" lon="11.743124008568236"><ele>514.0</ele><time>2026-04-18T11:43:56Z</time></trkpt><trkpt lat="48.165131194217096" lon="11.742996213060865"><ele>514.3333333333334</ele><time>2026-04-18T11:43:57Z</time></trkpt><trkpt lat="48.16526806952664" lon="11.74286656407751"><ele>514.6666666666666</ele><time>2026-04-18T11:43:58Z</time></trkpt><trkpt lat="48.1654046440494" lon="11.742744441427021"><ele>515.0</ele><time>2026-04-18T11:43:59Z</time></trkpt><trkpt lat="48.1655410081031" lon="11.742626305077156"><ele>515.0</ele><time>2026-04-18T11:44:00Z</time></trkpt><trkpt lat="48.16567947725305" lon="11.74251205863285"><ele>515.0</ele><time>2026-04-18T11:44:01Z</time></trkpt><trkpt lat="48.16582025222634" lon="11.7423993644323"><ele>515.0</ele><time>2026-04-18T11:44:02Z</time></trkpt><trkpt lat="48.16596418742791" lon="11.742284989731237"><ele>515.0</ele><time>2026-04-18T11:44:03Z</time></trkpt><trkpt lat="48.16611264703485" lon="11.74216784328248"><ele>515.0</ele><time>2026-04-18T11:44:04Z</time></trkpt><trkpt lat="48.166264936423765" lon="11.742036445923173"><ele>515.0</ele><time>2026-04-18T11:44:05Z</time></trkpt><trkpt lat="48.166421194708015" lon="11.74189540897337"><ele>515.0</ele><time>2026-04-18T11:44:06Z</time></trkpt><trkpt lat="48.166572289710786" lon="11.74175234812492"><ele>515.0</ele><time>2026-04-18T11:44:07Z</time></trkpt><trkpt lat="48.16671326370671" lon="11.741619763642104"><ele>515.0</ele><time>2026-04-18T11:44:08Z</time></trkpt><trkpt lat="48.16685037704836" lon="11.74148709014427"><ele>515.0</ele><time>2026-04-18T11:44:09Z</time></trkpt><trkpt lat="48.1669867906915" lon="11.74135897141407"><ele>515.0</ele><time>2026-04-18T11:44:10Z</time></trkpt><trkpt lat="48.16712507130045" lon="11.741231918531273"><ele>515.0</ele><time>2026-04-18T11:44:11Z</time></trkpt><trkpt lat="48.16726468801949" lon="11.741105716045316"><ele>515.3333333333333</ele><time>2026-04-18T11:44:12Z</time></trkpt><trkpt lat="48.16740046332556" lon="11.740973226594475"><ele>515.6666666666666</ele><time>2026-04-18T11:44:13Z</time></trkpt><trkpt lat="48.167538158088504" lon="11.74083929198036"><ele>516.0</ele><time>2026-04-18T11:44:14Z</time></trkpt><trkpt lat="48.167676725837374" lon="11.740704932927889"><ele>516.0</ele><time>2026-04-18T11:44:15Z</time></trkpt><trkpt lat="48.16781793122166" lon="11.740570121493057"><ele>516.0</ele><time>2026-04-18T11:44:16Z</time></trkpt><trkpt lat="48.167962320988536" lon="11.740438424014927"><ele>516.0</ele><time>2026-04-18T11:44:17Z</time></trkpt><trkpt lat="48.16810698947121" lon="11.740305571484848"><ele>515.0</ele><time>2026-04-18T11:44:18Z</time></trkpt><trkpt lat="48.16825116314228" lon="11.740177155992383"><ele>514.0</ele><time>2026-04-18T11:44:19Z</time></trkpt><trkpt lat="48.16839665667012" lon="11.740061539345172"><ele>513.0</ele><time>2026-04-18T11:44:20Z</time></trkpt><trkpt lat="48.16854260651501" lon="11.73995913159094"><ele>513.0</ele><time>2026-04-18T11:44:21Z</time></trkpt><trkpt lat="48.16868202343891" lon="11.73985241563282"><ele>513.0</ele><time>2026-04-18T11:44:22Z</time></trkpt><trkpt lat="48.16880830130182" lon="11.739737615850565"><ele>513.0</ele><time>2026-04-18T11:44:23Z</time></trkpt><trkpt lat="48.16892457630451" lon="11.739624398981913"><ele>513.0</ele><time>2026-04-18T11:44:24Z</time></trkpt><trkpt lat="48.16904512449822" lon="11.739508761786363"><ele>513.0</ele><time>2026-04-18T11:44:25Z</time></trkpt><trkpt lat="48.16916906736302" lon="11.73938745380499"><ele>513.0</ele><time>2026-04-18T11:44:26Z</time></trkpt><trkpt lat="48.169281959864016" lon="11.739277707622154"><ele>513.0</ele><time>2026-04-18T11:44:27Z</time></trkpt><trkpt lat="48.16938756204379" lon="11.739182066537866"><ele>513.0</ele><time>2026-04-18T11:44:28Z</time></trkpt><trkpt lat="48.16949693170074" lon="11.73908212400594"><ele>513.0</ele><time>2026-04-18T11:44:29Z</time></trkpt><trkpt lat="48.169605544603314" lon="11.738998716909007"><ele>513.0</ele><time>2026-04-18T11:44:30Z</time></trkpt><trkpt lat="48.169711754589905" lon="11.738942168023675"><ele>513.0</ele><time>2026-04-18T11:44:31Z</time></trkpt><trkpt lat="48.169819493547664" lon="11.738907038693645"><ele>513.0</ele><time>2026-04-18T11:44:32Z</time></trkpt><trkpt lat="48.16992296821614" lon="11.73890770735347"><ele>513.0</ele><time>2026-04-18T11:44:33Z</time></trkpt><trkpt lat="48.170041163879425" lon="11.738895646807611"><ele>512.75</ele><time>2026-04-18T11:44:34Z</time></trkpt><trkpt lat="48.17016055744947" lon="11.738941292301831"><ele>512.5</ele><time>2026-04-18T11:44:35Z</time></trkpt><trkpt lat="48.170285302421966" lon="11.739027200100372"><ele>512.25</ele><time>2026-04-18T11:44:36Z</time></trkpt><trkpt lat="48.17038745304038" lon="11.73917028853313"><ele>512.0</ele><time>2026-04-18T11:44:37Z</time></trkpt><trkpt lat="48.17047046453413" lon="11.739335497963472"><ele>512.75</ele><time>2026-04-18T11:44:38Z</time></trkpt><trkpt lat="48.170526916349495" lon="11.7395377475369"><ele>513.5</ele><time>2026-04-18T11:44:39Z</time></trkpt><trkpt lat="48.170536555668455" lon="11.73975147442767"><ele>514.25</ele><time>2026-04-18T11:44:40Z</time></trkpt><trkpt lat="48.17050821936643" lon="11.739951809277489"><ele>515.0</ele><time>2026-04-18T11:44:41Z</time></trkpt><trkpt lat="48.170475774353136" lon="11.740142120278527"><ele>515.5</ele><time>2026-04-18T11:44:42Z</time></trkpt><trkpt lat="48.17041839722448" lon="11.740314122632638"><ele>516.0</ele><time>2026-04-18T11:44:43Z</time></trkpt><trkpt lat="48.170333616906184" lon="11.740455291937861"><ele>516.5</ele><time>2026-04-18T11:44:44Z</time></trkpt><trkpt lat="48.17023970427365" lon="11.740572309787703"><ele>517.0</ele><time>2026-04-18T11:44:45Z</time></trkpt><trkpt lat="48.17013286462929" lon="11.74065801149411"><ele>517.0</ele><time>2026-04-18T11:44:46Z</time></trkpt><trkpt lat="48.17000902175882" lon="11.740683794502692"><ele>517.0</ele><time>2026-04-18T11:44:47Z</time></trkpt><trkpt lat="48.16988850807602" lon="11.740672940815397"><ele>517.0</ele><time>2026-04-18T11:44:48Z</time></trkpt><trkpt lat="48.16976094139988" lon="11.740623626837186"><ele>517.0</ele><time>2026-04-18T11:44:49Z</time></trkpt><trkpt lat="48.16964092164748" lon="11.74053675898178"><ele>516.5</ele><time>2026-04-18T11:44:50Z</time></trkpt><trkpt lat="48.16953347532561" lon="11.740413142930583"><ele>516.0</ele><time>2026-04-18T11:44:51Z</time></trkpt><trkpt lat="48.16944270224636" lon="11.740253610164878"><ele>515.5</ele><time>2026-04-18T11:44:52Z</time></trkpt><trkpt lat="48.16937415338673" lon="11.740062251814525"><ele>515.0</ele><time>2026-04-18T11:44:53Z</time></trkpt><trkpt lat="48.1693061126171" lon="11.739823518943718"><ele>515.0</ele><time>2026-04-18T11:44:54Z</time></trkpt><trkpt lat="48.16922948068051" lon="11.739530744173997"><ele>515.0</ele><time>2026-04-18T11:44:55Z</time></trkpt><trkpt lat="48.16911565756431" lon="11.73926916438673"><ele>515.0</ele><time>2026-04-18T11:44:56Z</time></trkpt><trkpt lat="48.16906174795133" lon="11.738994692522736"><ele>514.6666666666666</ele><time>2026-04-18T11:44:57Z</time></trkpt><trkpt lat="48.16898257113265" lon="11.738708396812521"><ele>514.3333333333334</ele><time>2026-04-18T11:44:58Z</time></trkpt><trkpt lat="48.16890633609861" lon="11.738429911934954"><ele>514.0</ele><time>2026-04-18T11:44:59Z</time></trkpt><trkpt lat="48.16883436665979" lon="11.738174366124216"><ele>514.0</ele><time>2026-04-18T11:45:00Z</time></trkpt><trkpt lat="48.16876339293965" lon="11.737927538282095"><ele>514.0</ele><time>2026-04-18T11:45:01Z</time></trkpt><trkpt lat="48.16869058175644" lon="11.737673140124867"><ele>514.0</ele><time>2026-04-18T11:45:02Z</time></trkpt><trkpt lat="48.168623713188666" lon="11.737440764861715"><ele>514.6666666666667</ele><time>2026-04-18T11:45:03Z</time></trkpt><trkpt lat="48.16855116749245" lon="11.737190848534011"><ele>515.3333333333334</ele><time>2026-04-18T11:45:04Z</time></trkpt><trkpt lat="48.16847949509701" lon="11.73694701688827"><ele>516.0</ele><time>2026-04-18T11:45:05Z</time></trkpt><trkpt lat="48.16840792904661" lon="11.73670952613795"><ele>516.0</ele><time>2026-04-18T11:45:06Z</time></trkpt><trkpt lat="48.168329182603486" lon="11.736454369136379"><ele>516.0</ele><time>2026-04-18T11:45:07Z</time></trkpt><trkpt lat="48.16824160733185" lon="11.73619396315379"><ele>516.0</ele><time>2026-04-18T11:45:08Z</time></trkpt><trkpt lat="48.16814533475854" lon="11.735942841163029"><ele>515.6666666666666</ele><time>2026-04-18T11:45:09Z</time></trkpt><trkpt lat="48.16803824652996" lon="11.735705993735023"><ele>515.3333333333333</ele><time>2026-04-18T11:45:10Z</time></trkpt><trkpt lat="48.167925057204535" lon="11.735487276846007"><ele>515.0</ele><time>2026-04-18T11:45:11Z</time></trkpt><trkpt lat="48.167807600889404" lon="11.735281521652073"><ele>515.3333333333333</ele><time>2026-04-18T11:45:12Z</time></trkpt><trkpt lat="48.167674807099104" lon="11.735093480694884"><ele>515.6666666666666</ele><time>2026-04-18T11:45:13Z</time></trkpt><trkpt lat="48.16756031609456" lon="11.734908929923305"><ele>516.0</ele><time>2026-04-18T11:45:14Z</time></trkpt><trkpt lat="48.167452321874606" lon="11.734707967948731"><ele>515.6666666666666</ele><time>2026-04-18T11:45:15Z</time></trkpt><trkpt lat="48.16732700261507" lon="11.734531272866388"><ele>515.3333333333333</ele><time>2026-04-18T11:45:16Z</time></trkpt><trkpt lat="48.167187686594794" lon="11.734370503612169"><ele>515.0</ele><time>2026-04-18T11:45:17Z</time></trkpt><trkpt lat="48.16704053862943" lon="11.734223421831503"><ele>515.6666666666666</ele><time>2026-04-18T11:45:18Z</time></trkpt><trkpt lat="48.1668833247727" lon="11.734085183875393"><ele>516.3333333333334</ele><time>2026-04-18T11:45:19Z</time></trkpt><trkpt lat="48.16672635587224" lon="11.733961717384668"><ele>517.0</ele><time>2026-04-18T11:45:20Z</time></trkpt><trkpt lat="48.166558833429654" lon="11.733875994080151"><ele>516.3333333333334</ele><time>2026-04-18T11:45:21Z</time></trkpt><trkpt lat="48.16641001057094" lon="11.733780587277028"><ele>515.6666666666666</ele><time>2026-04-18T11:45:22Z</time></trkpt><trkpt lat="48.166266364285306" lon="11.733698036370741"><ele>515.0</ele><time>2026-04-18T11:45:23Z</time></trkpt><trkpt lat="48.16611864407793" lon="11.733624188579668"><ele>515.0</ele><time>2026-04-18T11:45:24Z</time></trkpt><trkpt lat="48.16596724940737" lon="11.73356361202495"><ele>515.0</ele><time>2026-04-18T11:45:25Z</time></trkpt><trkpt lat="48.16582104235557" lon="11.733514617728344"><ele>515.0</ele><time>2026-04-18T11:45:26Z</time></trkpt><trkpt lat="48.165685796156986" lon="11.733472905248181"><ele>515.0</ele><time>2026-04-18T11:45:27Z</time></trkpt><trkpt lat="48.1655470540459" lon="11.733436140368752"><ele>515.0</ele><time>2026-04-18T11:45:28Z</time></trkpt><trkpt lat="48.165417019941536" lon="11.733403799077408"><ele>515.0</ele><time>2026-04-18T11:45:29Z</time></trkpt><trkpt lat="48.16529779712886" lon="11.733369041312274"><ele>515.0</ele><time>2026-04-18T11:45:30Z</time></trkpt><trkpt lat="48.165187259482046" lon="11.733349794575753"><ele>515.0</ele><time>2026-04-18T11:45:31Z</time></trkpt><trkpt lat="48.16508735367081" lon="11.733335628561987"><ele>515.0</ele><time>2026-04-18T11:45:32Z</time></trkpt><trkpt lat="48.16501265231673" lon="11.733320711637392"><ele>515.0</ele><time>2026-04-18T11:45:33Z</time></trkpt><trkpt lat="48.16491343061819" lon="11.7333010553103"><ele>515.0</ele><time>2026-04-18T11:45:35Z</time></trkpt><trkpt lat="48.164839529905805" lon="11.733270341139969"><ele>515.0</ele><time>2026-04-18T11:45:36Z</time></trkpt><trkpt lat="48.164773002682296" lon="11.733223707592728"><ele>515.0</ele><time>2026-04-18T11:45:37Z</time></trkpt><trkpt lat="48.164776686954355" lon="11.733059883497091"><ele>515.0</ele><time>2026-04-18T11:45:38Z</time></trkpt><trkpt lat="48.16475754962221" lon="11.732958040089366"><ele>514.8571428571429</ele><time>2026-04-18T11:45:39Z</time></trkpt><trkpt lat="48.164726485052526" lon="11.732858107049562"><ele>514.7142857142857</ele><time>2026-04-18T11:45:40Z</time></trkpt><trkpt lat="48.16477407512499" lon="11.732752574843568"><ele>514.5714285714286</ele><time>2026-04-18T11:45:41Z</time></trkpt><trkpt lat="48.16479568717979" lon="11.732650736069509"><ele>514.4285714285714</ele><time>2026-04-18T11:45:42Z</time></trkpt><trkpt lat="48.16482071553365" lon="11.7325609759088"><ele>514.2857142857143</ele><time>2026-04-18T11:45:43Z</time></trkpt><trkpt lat="48.164877376482174" lon="11.73250080668325"><ele>514.1428571428571</ele><time>2026-04-18T11:45:44Z</time></trkpt><trkpt lat="48.16493069858808" lon="11.732444995576925"><ele>514.0</ele><time>2026-04-18T11:45:45Z</time></trkpt><trkpt lat="48.16498933374072" lon="11.732396335340914"><ele>514.0</ele><time>2026-04-18T11:45:46Z</time></trkpt><trkpt lat="48.165048195115936" lon="11.7323380048059"><ele>514.0</ele><time>2026-04-18T11:45:47Z</time></trkpt><trkpt lat="48.1651328081544" lon="11.732314454529481"><ele>514.0</ele><time>2026-04-18T11:45:48Z</time></trkpt><trkpt lat="48.16521501260166" lon="11.732315533395274"><ele>514.0</ele><time>2026-04-18T11:45:49Z</time></trkpt><trkpt lat="48.16529699860593" lon="11.732328343493412"><ele>514.0</ele><time>2026-04-18T11:45:50Z</time></trkpt><trkpt lat="48.16535914222893" lon="11.732350494218846"><ele>514.0</ele><time>2026-04-18T11:45:51Z</time></trkpt><trkpt lat="48.16547236816816" lon="11.732393759431774"><ele>514.0</ele><time>2026-04-18T11:45:53Z</time></trkpt><trkpt lat="48.16557198146157" lon="11.73244093877051"><ele>514.0</ele><time>2026-04-18T11:45:55Z</time></trkpt><trkpt lat="48.16559138884913" lon="11.7325945649541"><ele>514.0</ele><time>2026-04-18T11:45:56Z</time></trkpt><trkpt lat="48.16564044164619" lon="11.73266936003379"><ele>514.0</ele><time>2026-04-18T11:45:59Z</time></trkpt><trkpt lat="48.16569239286321" lon="11.732724699580839"><ele>514.0</ele><time>2026-04-18T11:46:03Z</time></trkpt><trkpt lat="48.165730398924346" lon="11.732871201799673"><ele>514.0</ele><time>2026-04-18T11:46:06Z</time></trkpt><trkpt lat="48.16569168015781" lon="11.733069732723084"><ele>514.2</ele><time>2026-04-18T11:46:08Z</time></trkpt><trkpt lat="48.16567753165329" lon="11.733167576683417"><ele>514.4</ele><time>2026-04-18T11:46:09Z</time></trkpt><trkpt lat="48.16566467689199" lon="11.733298959129492"><ele>514.6</ele><time>2026-04-18T11:46:10Z</time></trkpt><trkpt lat="48.16564776498327" lon="11.733440049762672"><ele>514.8</ele><time>2026-04-18T11:46:11Z</time></trkpt><trkpt lat="48.16562634967337" lon="11.733594973233886"><ele>515.0</ele><time>2026-04-18T11:46:12Z</time></trkpt><trkpt lat="48.165599787769054" lon="11.733753239300547"><ele>515.0</ele><time>2026-04-18T11:46:13Z</time></trkpt><trkpt lat="48.16557577411084" lon="11.733918382219226"><ele>515.0</ele><time>2026-04-18T11:46:14Z</time></trkpt><trkpt lat="48.165551424563446" lon="11.734082694320692"><ele>515.0</ele><time>2026-04-18T11:46:15Z</time></trkpt><trkpt lat="48.165524593448886" lon="11.734248506992444"><ele>515.0</ele><time>2026-04-18T11:46:16Z</time></trkpt><trkpt lat="48.1654966708143" lon="11.734411050882668"><ele>515.0</ele><time>2026-04-18T11:46:17Z</time></trkpt><trkpt lat="48.16546946521569" lon="11.734575802414621"><ele>515.0</ele><time>2026-04-18T11:46:18Z</time></trkpt><trkpt lat="48.16543992427226" lon="11.73474462215298"><ele>515.0</ele><time>2026-04-18T11:46:19Z</time></trkpt><trkpt lat="48.165407551124375" lon="11.734918822139278"><ele>515.0</ele><time>2026-04-18T11:46:20Z</time></trkpt><trkpt lat="48.165378364488575" lon="11.735097017723415"><ele>515.0</ele><time>2026-04-18T11:46:21Z</time></trkpt><trkpt lat="48.16535319305243" lon="11.735269098280442"><ele>515.0</ele><time>2026-04-18T11:46:22Z</time></trkpt><trkpt lat="48.165325661568716" lon="11.735426987465754"><ele>515.0</ele><time>2026-04-18T11:46:23Z</time></trkpt><trkpt lat="48.16529758898709" lon="11.735580280760209"><ele>515.0</ele><time>2026-04-18T11:46:24Z</time></trkpt><trkpt lat="48.16527300893188" lon="11.73573133534623"><ele>515.0</ele><time>2026-04-18T11:46:25Z</time></trkpt><trkpt lat="48.165247941523916" lon="11.735883894003097"><ele>515.0</ele><time>2026-04-18T11:46:26Z</time></trkpt><trkpt lat="48.16522309281301" lon="11.736036095024478"><ele>515.0</ele><time>2026-04-18T11:46:27Z</time></trkpt><trkpt lat="48.16519899268858" lon="11.736188421154958"><ele>515.0</ele><time>2026-04-18T11:46:28Z</time></trkpt><trkpt lat="48.16517563848355" lon="11.736331753338687"><ele>515.0</ele><time>2026-04-18T11:46:29Z</time></trkpt><trkpt lat="48.165154259068856" lon="11.736461275287157"><ele>515.0</ele><time>2026-04-18T11:46:30Z</time></trkpt><trkpt lat="48.16513310785195" lon="11.736590783065086"><ele>515.0</ele><time>2026-04-18T11:46:31Z</time></trkpt><trkpt lat="48.16511211751815" lon="11.73671013587981"><ele>515.0</ele><time>2026-04-18T11:46:32Z</time></trkpt><trkpt lat="48.1650677324153" lon="11.736809183704285"><ele>515.0</ele><time>2026-04-18T11:46:33Z</time></trkpt><trkpt lat="48.165007245110964" lon="11.736882238948054"><ele>515.0</ele><time>2026-04-18T11:46:34Z</time></trkpt><trkpt lat="48.16494424275468" lon="11.736939687333583"><ele>515.0</ele><time>2026-04-18T11:46:35Z</time></trkpt><trkpt lat="48.16495232111834" lon="11.7370829902965"><ele>515.0</ele><time>2026-04-18T11:46:36Z</time></trkpt><trkpt lat="48.164917802857715" lon="11.737251063046921"><ele>515.0</ele><time>2026-04-18T11:46:38Z</time></trkpt><trkpt lat="48.16492013017594" lon="11.737345437272559"><ele>515.0</ele><time>2026-04-18T11:46:39Z</time></trkpt><trkpt lat="48.1649433503927" lon="11.737450163867775"><ele>515.0</ele><time>2026-04-18T11:46:40Z</time></trkpt><trkpt lat="48.16498510299761" lon="11.737560138285922"><ele>515.0</ele><time>2026-04-18T11:46:41Z</time></trkpt><trkpt lat="48.16506891913919" lon="11.737616677944784"><ele>515.0</ele><time>2026-04-18T11:46:42Z</time></trkpt><trkpt lat="48.16515558447694" lon="11.7376340389056"><ele>515.0</ele><time>2026-04-18T11:46:43Z</time></trkpt><trkpt lat="48.16523180395549" lon="11.737608311726888"><ele>515.0</ele><time>2026-04-18T11:46:44Z</time></trkpt><trkpt lat="48.165299204560945" lon="11.737552886264274"><ele>515.0</ele><time>2026-04-18T11:46:45Z</time></trkpt><trkpt lat="48.165379568921125" lon="11.737519354201142"><ele>515.0</ele><time>2026-04-18T11:46:46Z</time></trkpt><trkpt lat="48.16547694505179" lon="11.73755363512228"><ele>515.0</ele><time>2026-04-18T11:46:47Z</time></trkpt><trkpt lat="48.165582099299534" lon="11.73765662134058"><ele>515.0</ele><time>2026-04-18T11:46:48Z</time></trkpt><trkpt lat="48.16567344390256" lon="11.737799738549759"><ele>514.8</ele><time>2026-04-18T11:46:49Z</time></trkpt><trkpt lat="48.16574122892987" lon="11.737940729818117"><ele>514.6</ele><time>2026-04-18T11:46:50Z</time></trkpt><trkpt lat="48.165789975860704" lon="11.738091877079167"><ele>514.4</ele><time>2026-04-18T11:46:51Z</time></trkpt><trkpt lat="48.16583337456602" lon="11.738236242483994"><ele>514.2</ele><time>2026-04-18T11:46:52Z</time></trkpt><trkpt lat="48.165868780683155" lon="11.738359264468837"><ele>514.0</ele><time>2026-04-18T11:46:53Z</time></trkpt><trkpt lat="48.16590565013448" lon="11.738473044665392"><ele>514.0</ele><time>2026-04-18T11:46:54Z</time></trkpt><trkpt lat="48.165942131600154" lon="11.738574649160483"><ele>514.0</ele><time>2026-04-18T11:46:55Z</time></trkpt><trkpt lat="48.16598010622769" lon="11.738676203623795"><ele>514.0</ele><time>2026-04-18T11:46:56Z</time></trkpt><trkpt lat="48.16601914493957" lon="11.738775699277287"><ele>514.0</ele><time>2026-04-18T11:46:57Z</time></trkpt><trkpt lat="48.16606244992993" lon="11.738870636717166"><ele>514.0</ele><time>2026-04-18T11:46:58Z</time></trkpt><trkpt lat="48.16610037267962" lon="11.738954122380365"><ele>514.0</ele><time>2026-04-18T11:46:59Z</time></trkpt><trkpt lat="48.16614411105307" lon="11.739047448244987"><ele>514.0</ele><time>2026-04-18T11:47:00Z</time></trkpt><trkpt lat="48.16618564022472" lon="11.739149751348572"><ele>514.0</ele><time>2026-04-18T11:47:01Z</time></trkpt><trkpt lat="48.16621128051618" lon="11.739263879348291"><ele>514.0</ele><time>2026-04-18T11:47:02Z</time></trkpt><trkpt lat="48.16623932965235" lon="11.739377439138327"><ele>514.0</ele><time>2026-04-18T11:47:03Z</time></trkpt><trkpt lat="48.166244610409066" lon="11.739490569929163"><ele>514.0</ele><time>2026-04-18T11:47:04Z</time></trkpt><trkpt lat="48.16630008435295" lon="11.739582485241959"><ele>514.0</ele><time>2026-04-18T11:47:05Z</time></trkpt><trkpt lat="48.16637073072493" lon="11.739645585815"><ele>514.0</ele><time>2026-04-18T11:47:06Z</time></trkpt><trkpt lat="48.16645432051812" lon="11.739683792320728"><ele>514.0</ele><time>2026-04-18T11:47:07Z</time></trkpt><trkpt lat="48.16654087495889" lon="11.739681473097228"><ele>514.0</ele><time>2026-04-18T11:47:08Z</time></trkpt><trkpt lat="48.1666279231231" lon="11.739661808157104"><ele>514.0</ele><time>2026-04-18T11:47:09Z</time></trkpt><trkpt lat="48.166694641388574" lon="11.739559473771482"><ele>514.0</ele><time>2026-04-18T11:47:10Z</time></trkpt><trkpt lat="48.16674260960221" lon="11.73944368692019"><ele>514.0</ele><time>2026-04-18T11:47:11Z</time></trkpt><trkpt lat="48.16676476070184" lon="11.73930925411233"><ele>514.0</ele><time>2026-04-18T11:47:12Z</time></trkpt><trkpt lat="48.166758582313605" lon="11.73917148165202"><ele>514.0</ele><time>2026-04-18T11:47:13Z</time></trkpt><trkpt lat="48.16669856634283" lon="11.739066810122896"><ele>514.0</ele><time>2026-04-18T11:47:14Z</time></trkpt><trkpt lat="48.16663641434335" lon="11.738993986660342"><ele>514.0</ele><time>2026-04-18T11:47:15Z</time></trkpt><trkpt lat="48.166564557391276" lon="11.738950760199593"><ele>514.0</ele><time>2026-04-18T11:47:16Z</time></trkpt><trkpt lat="48.16649256537008" lon="11.738874139503766"><ele>514.0</ele><time>2026-04-18T11:47:17Z</time></trkpt><trkpt lat="48.16640974333344" lon="11.73889438191001"><ele>514.0</ele><time>2026-04-18T11:47:18Z</time></trkpt><trkpt lat="48.16633173168632" lon="11.738947575391977"><ele>514.0</ele><time>2026-04-18T11:47:19Z</time></trkpt><trkpt lat="48.16626678636755" lon="11.739028249797311"><ele>514.0</ele><time>2026-04-18T11:47:20Z</time></trkpt><trkpt lat="48.16626145077874" lon="11.739171799972503"><ele>514.0</ele><time>2026-04-18T11:47:21Z</time></trkpt><trkpt lat="48.16624176377741" lon="11.739271728130072"><ele>514.0</ele><time>2026-04-18T11:47:22Z</time></trkpt><trkpt lat="48.16622252892718" lon="11.73938584732162"><ele>514.0</ele><time>2026-04-18T11:47:23Z</time></trkpt><trkpt lat="48.16625393177738" lon="11.739496241084412"><ele>514.0</ele><time>2026-04-18T11:47:24Z</time></trkpt><trkpt lat="48.16631330006816" lon="11.739587036395408"><ele>514.0</ele><time>2026-04-18T11:47:25Z</time></trkpt><trkpt lat="48.16638523478185" lon="11.739657043301845"><ele>514.0</ele><time>2026-04-18T11:47:26Z</time></trkpt><trkpt lat="48.1664718988541" lon="11.739688505720771"><ele>514.0</ele><time>2026-04-18T11:47:27Z</time></trkpt><trkpt lat="48.166561580294925" lon="11.739702016488474"><ele>514.0</ele><time>2026-04-18T11:47:28Z</time></trkpt><trkpt lat="48.16664037400392" lon="11.739617692394166"><ele>514.0</ele><time>2026-04-18T11:47:29Z</time></trkpt><trkpt lat="48.166701633871995" lon="11.739528863093875"><ele>514.0</ele><time>2026-04-18T11:47:30Z</time></trkpt><trkpt lat="48.16673474702601" lon="11.73941425763345"><ele>514.0</ele><time>2026-04-18T11:47:31Z</time></trkpt><trkpt lat="48.166744400300715" lon="11.739291641571294"><ele>514.0</ele><time>2026-04-18T11:47:32Z</time></trkpt><trkpt lat="48.16673321748749" lon="11.739171404074236"><ele>514.0</ele><time>2026-04-18T11:47:33Z</time></trkpt><trkpt lat="48.16671152656483" lon="11.739068915035718"><ele>514.0</ele><time>2026-04-18T11:47:34Z</time></trkpt><trkpt lat="48.16668686527695" lon="11.738957294984063"><ele>514.0</ele><time>2026-04-18T11:47:35Z</time></trkpt><trkpt lat="48.16670397851442" lon="11.738831829847284"><ele>514.0</ele><time>2026-04-18T11:47:36Z</time></trkpt><trkpt lat="48.16671546079642" lon="11.738683696686275"><ele>514.0</ele><time>2026-04-18T11:47:37Z</time></trkpt><trkpt lat="48.166757303160274" lon="11.73853559572518"><ele>514.0</ele><time>2026-04-18T11:47:38Z</time></trkpt><trkpt lat="48.166836957172826" lon="11.738397414200342"><ele>514.0</ele><time>2026-04-18T11:47:39Z</time></trkpt><trkpt lat="48.166891187249824" lon="11.738245393457804"><ele>514.0</ele><time>2026-04-18T11:47:40Z</time></trkpt><trkpt lat="48.16695314712904" lon="11.738079159066187"><ele>514.25</ele><time>2026-04-18T11:47:41Z</time></trkpt><trkpt lat="48.1670213331298" lon="11.737914237521343"><ele>514.5</ele><time>2026-04-18T11:47:42Z</time></trkpt><trkpt lat="48.16709284495846" lon="11.737750489286242"><ele>514.75</ele><time>2026-04-18T11:47:43Z</time></trkpt><trkpt lat="48.167172919436815" lon="11.73758726142909"><ele>515.0</ele><time>2026-04-18T11:47:44Z</time></trkpt><trkpt lat="48.167265154188854" lon="11.737411056476184"><ele>514.6666666666666</ele><time>2026-04-18T11:47:45Z</time></trkpt><trkpt lat="48.16736390644179" lon="11.737228726895317"><ele>514.3333333333334</ele><time>2026-04-18T11:47:46Z</time></trkpt><trkpt lat="48.16747238323219" lon="11.737043872675727"><ele>514.0</ele><time>2026-04-18T11:47:47Z</time></trkpt><trkpt lat="48.167591832706684" lon="11.736864775796052"><ele>514.0</ele><time>2026-04-18T11:47:48Z</time></trkpt><trkpt lat="48.167717647835204" lon="11.73668987708935"><ele>514.0</ele><time>2026-04-18T11:47:49Z</time></trkpt><trkpt lat="48.167841845586466" lon="11.736532604656444"><ele>514.0</ele><time>2026-04-18T11:47:50Z</time></trkpt><trkpt lat="48.16796635476793" lon="11.736387309969166"><ele>514.0</ele><time>2026-04-18T11:47:51Z</time></trkpt><trkpt lat="48.168099649701034" lon="11.736248356674116"><ele>514.0</ele><time>2026-04-18T11:47:52Z</time></trkpt><trkpt lat="48.16824302151342" lon="11.7361125241814"><ele>514.0</ele><time>2026-04-18T11:47:53Z</time></trkpt><trkpt lat="48.168391705717745" lon="11.73597739982978"><ele>514.3333333333334</ele><time>2026-04-18T11:47:54Z</time></trkpt><trkpt lat="48.1685479799993" lon="11.7358475415513"><ele>514.6666666666666</ele><time>2026-04-18T11:47:55Z</time></trkpt><trkpt lat="48.16870745882617" lon="11.735720805253242"><ele>515.0</ele><time>2026-04-18T11:47:56Z</time></trkpt><trkpt lat="48.168860178130906" lon="11.735599440685917"><ele>515.0</ele><time>2026-04-18T11:47:57Z</time></trkpt><trkpt lat="48.169008500011095" lon="11.73548157070827"><ele>515.0</ele><time>2026-04-18T11:47:58Z</time></trkpt><trkpt lat="48.16915189900527" lon="11.735367612903731"><ele>515.0</ele><time>2026-04-18T11:47:59Z</time></trkpt><trkpt lat="48.16929457025552" lon="11.73525423342689"><ele>514.0</ele><time>2026-04-18T11:48:00Z</time></trkpt><trkpt lat="48.16943563941357" lon="11.735142127120984"><ele>513.0</ele><time>2026-04-18T11:48:01Z</time></trkpt><trkpt lat="48.1695747047076" lon="11.735031613262295"><ele>512.0</ele><time>2026-04-18T11:48:02Z</time></trkpt><trkpt lat="48.16971338954835" lon="11.734922840190949"><ele>512.0</ele><time>2026-04-18T11:48:03Z</time></trkpt><trkpt lat="48.16985238077421" lon="11.73481589012808"><ele>512.0</ele><time>2026-04-18T11:48:04Z</time></trkpt><trkpt lat="48.169993102299884" lon="11.734708528949117"><ele>512.0</ele><time>2026-04-18T11:48:05Z</time></trkpt><trkpt lat="48.170135533884036" lon="11.734599863108794"><ele>511.66666666666663</ele><time>2026-04-18T11:48:06Z</time></trkpt><trkpt lat="48.170279864314466" lon="11.73448951997805"><ele>511.33333333333337</ele><time>2026-04-18T11:48:07Z</time></trkpt><trkpt lat="48.17042460518628" lon="11.734376963723111"><ele>511.0</ele><time>2026-04-18T11:48:08Z</time></trkpt><trkpt lat="48.170564172312154" lon="11.734240596820378"><ele>511.0</ele><time>2026-04-18T11:48:09Z</time></trkpt><trkpt lat="48.17071246437925" lon="11.734130394670073"><ele>511.0</ele><time>2026-04-18T11:48:10Z</time></trkpt><trkpt lat="48.17085528851407" lon="11.73401017556327"><ele>511.0</ele><time>2026-04-18T11:48:11Z</time></trkpt><trkpt lat="48.17100089198399" lon="11.733890551437046"><ele>511.0</ele><time>2026-04-18T11:48:12Z</time></trkpt><trkpt lat="48.171153899679084" lon="11.733789182149804"><ele>511.0</ele><time>2026-04-18T11:48:13Z</time></trkpt><trkpt lat="48.17129947174469" lon="11.733668588074025"><ele>511.0</ele><time>2026-04-18T11:48:14Z</time></trkpt><trkpt lat="48.171446342093496" lon="11.733546918480602"><ele>511.33333333333337</ele><time>2026-04-18T11:48:15Z</time></trkpt><trkpt lat="48.17159352421141" lon="11.733424990613557"><ele>511.66666666666663</ele><time>2026-04-18T11:48:16Z</time></trkpt><trkpt lat="48.171739684888884" lon="11.733306764614309"><ele>512.0</ele><time>2026-04-18T11:48:17Z</time></trkpt><trkpt lat="48.17188345419296" lon="11.733192381635686"><ele>512.0</ele><time>2026-04-18T11:48:18Z</time></trkpt><trkpt lat="48.172026354963094" lon="11.733079166973631"><ele>512.0</ele><time>2026-04-18T11:48:19Z</time></trkpt><trkpt lat="48.17216134326196" lon="11.732947509660766"><ele>512.0</ele><time>2026-04-18T11:48:20Z</time></trkpt><trkpt lat="48.172303857605556" lon="11.732840666699882"><ele>511.66666666666663</ele><time>2026-04-18T11:48:21Z</time></trkpt><trkpt lat="48.17244812145084" lon="11.732730559488836"><ele>511.33333333333337</ele><time>2026-04-18T11:48:22Z</time></trkpt><trkpt lat="48.172593516439626" lon="11.732610160479322"><ele>511.0</ele><time>2026-04-18T11:48:23Z</time></trkpt><trkpt lat="48.17274083838941" lon="11.732484719659137"><ele>511.0</ele><time>2026-04-18T11:48:24Z</time></trkpt><trkpt lat="48.1728977782476" lon="11.732383803720161"><ele>511.0</ele><time>2026-04-18T11:48:25Z</time></trkpt><trkpt lat="48.17304751796592" lon="11.732264448012586"><ele>511.0</ele><time>2026-04-18T11:48:26Z</time></trkpt><trkpt lat="48.173188084125776" lon="11.732125980492143"><ele>511.0</ele><time>2026-04-18T11:48:27Z</time></trkpt><trkpt lat="48.17333805602173" lon="11.732034297173872"><ele>511.0</ele><time>2026-04-18T11:48:28Z</time></trkpt><trkpt lat="48.17348108695793" lon="11.731920854246521"><ele>511.0</ele><time>2026-04-18T11:48:29Z</time></trkpt><trkpt lat="48.173624193107294" lon="11.731807115523251"><ele>510.6666666666667</ele><time>2026-04-18T11:48:30Z</time></trkpt><trkpt lat="48.173768197639774" lon="11.731692664853812"><ele>510.33333333333337</ele><time>2026-04-18T11:48:31Z</time></trkpt><trkpt lat="48.1739127975795" lon="11.731577738846223"><ele>510.0</ele><time>2026-04-18T11:48:32Z</time></trkpt><trkpt lat="48.174059833703" lon="11.731460876593728"><ele>510.0</ele><time>2026-04-18T11:48:33Z</time></trkpt><trkpt lat="48.17420231107022" lon="11.731334198507545"><ele>510.0</ele><time>2026-04-18T11:48:34Z</time></trkpt><trkpt lat="48.174349992150205" lon="11.731229448323838"><ele>510.0</ele><time>2026-04-18T11:48:35Z</time></trkpt><trkpt lat="48.17448707974601" lon="11.73109635216562"><ele>510.0</ele><time>2026-04-18T11:48:36Z</time></trkpt><trkpt lat="48.17463495260901" lon="11.7309789322741"><ele>510.0</ele><time>2026-04-18T11:48:37Z</time></trkpt><trkpt lat="48.17478085536812" lon="11.7308615385221"><ele>510.0</ele><time>2026-04-18T11:48:38Z</time></trkpt><trkpt lat="48.1749202636918" lon="11.730752549262997"><ele>510.0</ele><time>2026-04-18T11:48:39Z</time></trkpt><trkpt lat="48.17506353568733" lon="11.730643768672415"><ele>510.0</ele><time>2026-04-18T11:48:40Z</time></trkpt><trkpt lat="48.17520861081476" lon="11.73053212894197"><ele>510.0</ele><time>2026-04-18T11:48:41Z</time></trkpt><trkpt lat="48.1753557127902" lon="11.730410733040786"><ele>510.0</ele><time>2026-04-18T11:48:42Z</time></trkpt><trkpt lat="48.17550910910775" lon="11.730290463659562"><ele>510.0</ele><time>2026-04-18T11:48:43Z</time></trkpt><trkpt lat="48.17564930684981" lon="11.73017540555222"><ele>510.0</ele><time>2026-04-18T11:48:44Z</time></trkpt><trkpt lat="48.17579074980151" lon="11.730061687586645"><ele>509.66666666666663</ele><time>2026-04-18T11:48:45Z</time></trkpt><trkpt lat="48.17593820017944" lon="11.729969991491274"><ele>509.3333333333333</ele><time>2026-04-18T11:48:46Z</time></trkpt><trkpt lat="48.176075466027385" lon="11.729861364677227"><ele>509.0</ele><time>2026-04-18T11:48:47Z</time></trkpt><trkpt lat="48.176213396986" lon="11.729752211524227"><ele>509.0</ele><time>2026-04-18T11:48:48Z</time></trkpt><trkpt lat="48.176349789953136" lon="11.729644275474447"><ele>509.0</ele><time>2026-04-18T11:48:49Z</time></trkpt><trkpt lat="48.17648607768885" lon="11.72953642270022"><ele>509.0</ele><time>2026-04-18T11:48:50Z</time></trkpt><trkpt lat="48.17662112748597" lon="11.729428817842486"><ele>508.66666666666663</ele><time>2026-04-18T11:48:51Z</time></trkpt><trkpt lat="48.17676871538754" lon="11.729307438673159"><ele>508.33333333333337</ele><time>2026-04-18T11:48:52Z</time></trkpt><trkpt lat="48.17692778619945" lon="11.729176615721114"><ele>508.0</ele><time>2026-04-18T11:48:53Z</time></trkpt><trkpt lat="48.177100035822846" lon="11.72903107962936"><ele>508.0</ele><time>2026-04-18T11:48:54Z</time></trkpt><trkpt lat="48.177279983086045" lon="11.72887719436486"><ele>508.0</ele><time>2026-04-18T11:48:55Z</time></trkpt><trkpt lat="48.17744864857079" lon="11.728728591650519"><ele>508.0</ele><time>2026-04-18T11:48:56Z</time></trkpt><trkpt lat="48.17761341527204" lon="11.728577304215705"><ele>508.33333333333337</ele><time>2026-04-18T11:48:57Z</time></trkpt><trkpt lat="48.177772265202954" lon="11.728426876823503"><ele>508.66666666666663</ele><time>2026-04-18T11:48:58Z</time></trkpt><trkpt lat="48.177933276475095" lon="11.728269394076351"><ele>509.0</ele><time>2026-04-18T11:48:59Z</time></trkpt><trkpt lat="48.17809695566277" lon="11.728105282217935"><ele>509.0</ele><time>2026-04-18T11:49:00Z</time></trkpt><trkpt lat="48.17826113913468" lon="11.727932249408346"><ele>509.0</ele><time>2026-04-18T11:49:01Z</time></trkpt><trkpt lat="48.178426620151356" lon="11.727753466081035"><ele>509.0</ele><time>2026-04-18T11:49:02Z</time></trkpt><trkpt lat="48.1785898915302" lon="11.727569699897206"><ele>509.0</ele><time>2026-04-18T11:49:03Z</time></trkpt><trkpt lat="48.17875262073187" lon="11.72738370904885"><ele>509.0</ele><time>2026-04-18T11:49:04Z</time></trkpt><trkpt lat="48.17891302217535" lon="11.727187268262131"><ele>509.0</ele><time>2026-04-18T11:49:05Z</time></trkpt><trkpt lat="48.17906362432539" lon="11.726968973359947"><ele>509.66666666666663</ele><time>2026-04-18T11:49:06Z</time></trkpt><trkpt lat="48.1792346954346" lon="11.726787296753924"><ele>510.33333333333337</ele><time>2026-04-18T11:49:07Z</time></trkpt><trkpt lat="48.17939432615761" lon="11.726584402518025"><ele>511.0</ele><time>2026-04-18T11:49:08Z</time></trkpt><trkpt lat="48.17955911518569" lon="11.726370443469548"><ele>511.0</ele><time>2026-04-18T11:49:09Z</time></trkpt><trkpt lat="48.1797340286023" lon="11.726142215669983"><ele>511.0</ele><time>2026-04-18T11:49:10Z</time></trkpt><trkpt lat="48.17991209945681" lon="11.725905961069518"><ele>511.5</ele><time>2026-04-18T11:49:11Z</time></trkpt><trkpt lat="48.18009162523789" lon="11.72566614040861"><ele>512.0</ele><time>2026-04-18T11:49:12Z</time></trkpt><trkpt lat="48.180271868767846" lon="11.72542250821227"><ele>512.0</ele><time>2026-04-18T11:49:13Z</time></trkpt><trkpt lat="48.18045075861264" lon="11.725180706196"><ele>512.0</ele><time>2026-04-18T11:49:14Z</time></trkpt><trkpt lat="48.18062088263416" lon="11.724946613247381"><ele>510.66666666666663</ele><time>2026-04-18T11:49:15Z</time></trkpt><trkpt lat="48.18078684745415" lon="11.724715737990412"><ele>509.33333333333337</ele><time>2026-04-18T11:49:16Z</time></trkpt><trkpt lat="48.180946018392724" lon="11.724492422060015"><ele>508.0</ele><time>2026-04-18T11:49:17Z</time></trkpt><trkpt lat="48.181101499242" lon="11.724272633664938"><ele>508.0</ele><time>2026-04-18T11:49:18Z</time></trkpt><trkpt lat="48.18124862400796" lon="11.72405947622674"><ele>508.0</ele><time>2026-04-18T11:49:19Z</time></trkpt><trkpt lat="48.18138656806355" lon="11.72385962046024"><ele>508.0</ele><time>2026-04-18T11:49:20Z</time></trkpt><trkpt lat="48.18151901602485" lon="11.72366651403037"><ele>507.6666666666667</ele><time>2026-04-18T11:49:21Z</time></trkpt><trkpt lat="48.18164866538284" lon="11.723476321804954"><ele>507.33333333333337</ele><time>2026-04-18T11:49:22Z</time></trkpt><trkpt lat="48.181781211247795" lon="11.723281754509724"><ele>507.0</ele><time>2026-04-18T11:49:23Z</time></trkpt><trkpt lat="48.181911400799905" lon="11.723085927924807"><ele>507.0</ele><time>2026-04-18T11:49:24Z</time></trkpt><trkpt lat="48.18204051142164" lon="11.722891724489862"><ele>507.0</ele><time>2026-04-18T11:49:25Z</time></trkpt><trkpt lat="48.18216972051315" lon="11.72269612584642"><ele>507.0</ele><time>2026-04-18T11:49:26Z</time></trkpt><trkpt lat="48.18230074708205" lon="11.722495804771164"><ele>506.33333333333337</ele><time>2026-04-18T11:49:27Z</time></trkpt><trkpt lat="48.182430974738935" lon="11.722292551959699"><ele>505.6666666666667</ele><time>2026-04-18T11:49:28Z</time></trkpt><trkpt lat="48.1825569417821" lon="11.72209523090873"><ele>505.0</ele><time>2026-04-18T11:49:29Z</time></trkpt><trkpt lat="48.18268246109948" lon="11.721898400535116"><ele>504.6666666666667</ele><time>2026-04-18T11:49:30Z</time></trkpt><trkpt lat="48.18280987797495" lon="11.721696636136778"><ele>504.33333333333337</ele><time>2026-04-18T11:49:31Z</time></trkpt><trkpt lat="48.18293838918295" lon="11.721491448686393"><ele>504.0</ele><time>2026-04-18T11:49:32Z</time></trkpt><trkpt lat="48.18306693378603" lon="11.721282692445518"><ele>504.66666666666663</ele><time>2026-04-18T11:49:33Z</time></trkpt><trkpt lat="48.18319599232073" lon="11.72106959996714"><ele>505.3333333333333</ele><time>2026-04-18T11:49:34Z</time></trkpt><trkpt lat="48.18332436804787" lon="11.72085466448329"><ele>506.0</ele><time>2026-04-18T11:49:35Z</time></trkpt><trkpt lat="48.183452008826414" lon="11.72063761173275"><ele>506.0</ele><time>2026-04-18T11:49:36Z</time></trkpt><trkpt lat="48.18357880898399" lon="11.7204190311113"><ele>506.0</ele><time>2026-04-18T11:49:37Z</time></trkpt><trkpt lat="48.183705719943454" lon="11.720200260210236"><ele>506.0</ele><time>2026-04-18T11:49:38Z</time></trkpt><trkpt lat="48.18383253902058" lon="11.719979759043609"><ele>505.66666666666663</ele><time>2026-04-18T11:49:39Z</time></trkpt><trkpt lat="48.18395873355273" lon="11.71975865285013"><ele>505.33333333333337</ele><time>2026-04-18T11:49:40Z</time></trkpt><trkpt lat="48.184083864724954" lon="11.719535813265331"><ele>505.0</ele><time>2026-04-18T11:49:41Z</time></trkpt><trkpt lat="48.1842073780602" lon="11.719311720415037"><ele>505.0</ele><time>2026-04-18T11:49:42Z</time></trkpt><trkpt lat="48.18432768019975" lon="11.719089420638268"><ele>505.0</ele><time>2026-04-18T11:49:43Z</time></trkpt><trkpt lat="48.184448356406484" lon="11.718866429831092"><ele>505.0</ele><time>2026-04-18T11:49:44Z</time></trkpt><trkpt lat="48.18456896526923" lon="11.718640580044024"><ele>505.0</ele><time>2026-04-18T11:49:45Z</time></trkpt><trkpt lat="48.18468965374862" lon="11.718412151024017"><ele>505.0</ele><time>2026-04-18T11:49:46Z</time></trkpt><trkpt lat="48.18481152916352" lon="11.718178742138768"><ele>505.0</ele><time>2026-04-18T11:49:47Z</time></trkpt><trkpt lat="48.18493368153138" lon="11.717941285784253"><ele>505.0</ele><time>2026-04-18T11:49:48Z</time></trkpt><trkpt lat="48.18505626022757" lon="11.717699771855703"><ele>505.0</ele><time>2026-04-18T11:49:49Z</time></trkpt><trkpt lat="48.185179232553814" lon="11.717455745286877"><ele>505.0</ele><time>2026-04-18T11:49:50Z</time></trkpt><trkpt lat="48.185304226125794" lon="11.717205591674032"><ele>505.0</ele><time>2026-04-18T11:49:51Z</time></trkpt><trkpt lat="48.18542768026158" lon="11.71695541258058"><ele>505.0</ele><time>2026-04-18T11:49:52Z</time></trkpt><trkpt lat="48.185549124702945" lon="11.716706772926"><ele>505.0</ele><time>2026-04-18T11:49:53Z</time></trkpt><trkpt lat="48.185666194688864" lon="11.716462404035228"><ele>504.6666666666667</ele><time>2026-04-18T11:49:54Z</time></trkpt><trkpt lat="48.18578067695104" lon="11.716222566660537"><ele>504.33333333333337</ele><time>2026-04-18T11:49:55Z</time></trkpt><trkpt lat="48.18589699310194" lon="11.715975160127824"><ele>504.0</ele><time>2026-04-18T11:49:56Z</time></trkpt><trkpt lat="48.18600960885839" lon="11.715731043949054"><ele>504.0</ele><time>2026-04-18T11:49:57Z</time></trkpt><trkpt lat="48.186120695407524" lon="11.715451655628687"><ele>504.0</ele><time>2026-04-18T11:49:58Z</time></trkpt><trkpt lat="48.18625062413718" lon="11.715165922208435"><ele>504.0</ele><time>2026-04-18T11:49:59Z</time></trkpt><trkpt lat="48.186382605619315" lon="11.714884278398062"><ele>504.0</ele><time>2026-04-18T11:50:00Z</time></trkpt><trkpt lat="48.18650934003723" lon="11.71460470016105"><ele>504.0</ele><time>2026-04-18T11:50:01Z</time></trkpt><trkpt lat="48.186625058020915" lon="11.714339864316164"><ele>504.0</ele><time>2026-04-18T11:50:02Z</time></trkpt><trkpt lat="48.186739095807745" lon="11.714084624062625"><ele>504.0</ele><time>2026-04-18T11:50:03Z</time></trkpt><trkpt lat="48.18685016173487" lon="11.713828226104868"><ele>504.0</ele><time>2026-04-18T11:50:04Z</time></trkpt><trkpt lat="48.18694815072839" lon="11.713570684075915"><ele>504.0</ele><time>2026-04-18T11:50:05Z</time></trkpt><trkpt lat="48.18703641871418" lon="11.71331535260632"><ele>503.66666666666663</ele><time>2026-04-18T11:50:06Z</time></trkpt><trkpt lat="48.18712497386538" lon="11.71305735234797"><ele>503.3333333333333</ele><time>2026-04-18T11:50:07Z</time></trkpt><trkpt lat="48.187204058229725" lon="11.712797839623205"><ele>503.0</ele><time>2026-04-18T11:50:08Z</time></trkpt><trkpt lat="48.18727133486048" lon="11.712533641916236"><ele>503.0</ele><time>2026-04-18T11:50:09Z</time></trkpt><trkpt lat="48.1873352917747" lon="11.712264483894018"><ele>503.0</ele><time>2026-04-18T11:50:10Z</time></trkpt><trkpt lat="48.18738996164246" lon="11.711990770616707"><ele>503.0</ele><time>2026-04-18T11:50:11Z</time></trkpt><trkpt lat="48.187438300292634" lon="11.711719241037285"><ele>503.0</ele><time>2026-04-18T11:50:12Z</time></trkpt><trkpt lat="48.18748566766883" lon="11.711452582646507"><ele>503.0</ele><time>2026-04-18T11:50:13Z</time></trkpt><trkpt lat="48.187520880714196" lon="11.711178639533221"><ele>503.0</ele><time>2026-04-18T11:50:14Z</time></trkpt><trkpt lat="48.187549266438296" lon="11.710913256743765"><ele>503.0</ele><time>2026-04-18T11:50:15Z</time></trkpt><trkpt lat="48.18757918911089" lon="11.710655381166308"><ele>503.0</ele><time>2026-04-18T11:50:16Z</time></trkpt><trkpt lat="48.187596337181624" lon="11.710378158472219"><ele>503.0</ele><time>2026-04-18T11:50:17Z</time></trkpt><trkpt lat="48.187607237454365" lon="11.710100600241832"><ele>503.0</ele><time>2026-04-18T11:50:18Z</time></trkpt><trkpt lat="48.187613824884515" lon="11.7098186981488"><ele>503.0</ele><time>2026-04-18T11:50:19Z</time></trkpt><trkpt lat="48.1876256325302" lon="11.709537979768804"><ele>503.0</ele><time>2026-04-18T11:50:20Z</time></trkpt><trkpt lat="48.187657691662345" lon="11.709260615689963"><ele>503.3333333333333</ele><time>2026-04-18T11:50:21Z</time></trkpt><trkpt lat="48.187685940975896" lon="11.708971964813333"><ele>503.66666666666663</ele><time>2026-04-18T11:50:22Z</time></trkpt><trkpt lat="48.18772184901419" lon="11.708677485603346"><ele>504.0</ele><time>2026-04-18T11:50:23Z</time></trkpt><trkpt lat="48.18777188957112" lon="11.708372385512696"><ele>504.0</ele><time>2026-04-18T11:50:24Z</time></trkpt><trkpt lat="48.18783181483766" lon="11.7080657634829"><ele>504.0</ele><time>2026-04-18T11:50:25Z</time></trkpt><trkpt lat="48.18790030412307" lon="11.707773648535863"><ele>504.0</ele><time>2026-04-18T11:50:26Z</time></trkpt><trkpt lat="48.1879778635794" lon="11.707497924262347"><ele>503.66666666666663</ele><time>2026-04-18T11:50:27Z</time></trkpt><trkpt lat="48.18805892478759" lon="11.707242763244388"><ele>503.3333333333333</ele><time>2026-04-18T11:50:28Z</time></trkpt><trkpt lat="48.188139250023404" lon="11.707013631888884"><ele>503.0</ele><time>2026-04-18T11:50:29Z</time></trkpt><trkpt lat="48.18822475006454" lon="11.706795379836965"><ele>503.0</ele><time>2026-04-18T11:50:30Z</time></trkpt><trkpt lat="48.188312000155065" lon="11.70658962474334"><ele>503.0</ele><time>2026-04-18T11:50:31Z</time></trkpt><trkpt lat="48.18840176583421" lon="11.706396787499529"><ele>503.0</ele><time>2026-04-18T11:50:32Z</time></trkpt><trkpt lat="48.18850115136515" lon="11.706197006095266"><ele>503.66666666666663</ele><time>2026-04-18T11:50:33Z</time></trkpt><trkpt lat="48.18861313786959" lon="11.705998547683812"><ele>504.33333333333337</ele><time>2026-04-18T11:50:34Z</time></trkpt><trkpt lat="48.18873283945015" lon="11.705801765197359"><ele>505.0</ele><time>2026-04-18T11:50:35Z</time></trkpt><trkpt lat="48.18886224923878" lon="11.70560622935175"><ele>505.0</ele><time>2026-04-18T11:50:36Z</time></trkpt><trkpt lat="48.1889900478099" lon="11.705398006610665"><ele>505.0</ele><time>2026-04-18T11:50:37Z</time></trkpt><trkpt lat="48.189144859195565" lon="11.705213534796663"><ele>505.0</ele><time>2026-04-18T11:50:38Z</time></trkpt><trkpt lat="48.18930419525972" lon="11.70503778411946"><ele>505.0</ele><time>2026-04-18T11:50:39Z</time></trkpt><trkpt lat="48.18947040265599" lon="11.704869788001826"><ele>505.0</ele><time>2026-04-18T11:50:40Z</time></trkpt><trkpt lat="48.18965263743229" lon="11.704706814522371"><ele>505.0</ele><time>2026-04-18T11:50:41Z</time></trkpt><trkpt lat="48.18983436094893" lon="11.704559798244027"><ele>505.33333333333337</ele><time>2026-04-18T11:50:42Z</time></trkpt><trkpt lat="48.190010879350766" lon="11.704425120045112"><ele>505.66666666666663</ele><time>2026-04-18T11:50:43Z</time></trkpt><trkpt lat="48.19019112574747" lon="11.704315626360719"><ele>506.0</ele><time>2026-04-18T11:50:44Z</time></trkpt><trkpt lat="48.190348714361896" lon="11.704185291841787"><ele>506.0</ele><time>2026-04-18T11:50:45Z</time></trkpt><trkpt lat="48.190504892947125" lon="11.704075081562923"><ele>506.0</ele><time>2026-04-18T11:50:46Z</time></trkpt><trkpt lat="48.19065290162963" lon="11.703972315819822"><ele>506.0</ele><time>2026-04-18T11:50:47Z</time></trkpt><trkpt lat="48.19079245347214" lon="11.703874663961942"><ele>505.66666666666663</ele><time>2026-04-18T11:50:48Z</time></trkpt><trkpt lat="48.19093374411834" lon="11.70377609981738"><ele>505.33333333333337</ele><time>2026-04-18T11:50:49Z</time></trkpt><trkpt lat="48.191071674959645" lon="11.703678920092004"><ele>505.0</ele><time>2026-04-18T11:50:50Z</time></trkpt><trkpt lat="48.1912225814968" lon="11.703575243888771"><ele>505.0</ele><time>2026-04-18T11:50:51Z</time></trkpt><trkpt lat="48.191371769125" lon="11.703474193072742"><ele>505.0</ele><time>2026-04-18T11:50:52Z</time></trkpt><trkpt lat="48.19153239227678" lon="11.703364842247728"><ele>505.0</ele><time>2026-04-18T11:50:53Z</time></trkpt><trkpt lat="48.19170171195269" lon="11.703255327705095"><ele>505.0</ele><time>2026-04-18T11:50:54Z</time></trkpt><trkpt lat="48.19187315187471" lon="11.703142745248869"><ele>505.0</ele><time>2026-04-18T11:50:55Z</time></trkpt><trkpt lat="48.192043601737964" lon="11.703031724193277"><ele>505.0</ele><time>2026-04-18T11:50:56Z</time></trkpt><trkpt lat="48.19221538435519" lon="11.702921789080616"><ele>505.0</ele><time>2026-04-18T11:50:57Z</time></trkpt><trkpt lat="48.192395357143994" lon="11.702817492628176"><ele>505.0</ele><time>2026-04-18T11:50:58Z</time></trkpt><trkpt lat="48.192570336076216" lon="11.702723578443996"><ele>505.0</ele><time>2026-04-18T11:50:59Z</time></trkpt><trkpt lat="48.19274745840464" lon="11.702630771450828"><ele>505.0</ele><time>2026-04-18T11:51:00Z</time></trkpt><trkpt lat="48.19291067389845" lon="11.702545832082714"><ele>505.0</ele><time>2026-04-18T11:51:01Z</time></trkpt><trkpt lat="48.19307278094474" lon="11.702465332257145"><ele>505.0</ele><time>2026-04-18T11:51:02Z</time></trkpt><trkpt lat="48.19324108659248" lon="11.702387818171578"><ele>504.6666666666667</ele><time>2026-04-18T11:51:03Z</time></trkpt><trkpt lat="48.19341556122837" lon="11.7023099693184"><ele>504.33333333333337</ele><time>2026-04-18T11:51:04Z</time></trkpt><trkpt lat="48.19358040236411" lon="11.702247525548268"><ele>504.0</ele><time>2026-04-18T11:51:05Z</time></trkpt><trkpt lat="48.19373935474523" lon="11.702188892011206"><ele>504.0</ele><time>2026-04-18T11:51:06Z</time></trkpt><trkpt lat="48.19390578952267" lon="11.702140730825203"><ele>504.0</ele><time>2026-04-18T11:51:07Z</time></trkpt><trkpt lat="48.19407830717473" lon="11.702103592125258"><ele>504.0</ele><time>2026-04-18T11:51:08Z</time></trkpt><trkpt lat="48.19424324247286" lon="11.702069317739152"><ele>503.25</ele><time>2026-04-18T11:51:09Z</time></trkpt><trkpt lat="48.19439504126154" lon="11.702055867820208"><ele>502.5</ele><time>2026-04-18T11:51:10Z</time></trkpt><trkpt lat="48.19453289571069" lon="11.702040034066977"><ele>501.75</ele><time>2026-04-18T11:51:11Z</time></trkpt><trkpt lat="48.194677258153064" lon="11.702025149978994"><ele>501.0</ele><time>2026-04-18T11:51:12Z</time></trkpt><trkpt lat="48.19484841837428" lon="11.70201061773159"><ele>501.0</ele><time>2026-04-18T11:51:13Z</time></trkpt><trkpt lat="48.195031198967165" lon="11.70200984359906"><ele>501.0</ele><time>2026-04-18T11:51:14Z</time></trkpt><trkpt lat="48.195205682047266" lon="11.702027898294682"><ele>501.0</ele><time>2026-04-18T11:51:15Z</time></trkpt><trkpt lat="48.19537695459142" lon="11.702049896783455"><ele>501.0</ele><time>2026-04-18T11:51:16Z</time></trkpt><trkpt lat="48.19556503181683" lon="11.702089902511664"><ele>501.0</ele><time>2026-04-18T11:51:17Z</time></trkpt><trkpt lat="48.195753785437454" lon="11.702145575539898"><ele>501.0</ele><time>2026-04-18T11:51:18Z</time></trkpt><trkpt lat="48.19594804471943" lon="11.70222515029449"><ele>500.33333333333337</ele><time>2026-04-18T11:51:19Z</time></trkpt><trkpt lat="48.1961325842506" lon="11.702328134441245"><ele>499.6666666666667</ele><time>2026-04-18T11:51:20Z</time></trkpt><trkpt lat="48.19630405953503" lon="11.702443624783745"><ele>499.0</ele><time>2026-04-18T11:51:21Z</time></trkpt><trkpt lat="48.196457319087116" lon="11.702563937701806"><ele>498.6666666666667</ele><time>2026-04-18T11:51:22Z</time></trkpt><trkpt lat="48.19660885116245" lon="11.702694891697206"><ele>498.33333333333337</ele><time>2026-04-18T11:51:23Z</time></trkpt><trkpt lat="48.19676371508196" lon="11.702810804513685"><ele>498.0</ele><time>2026-04-18T11:51:24Z</time></trkpt><trkpt lat="48.19691104080848" lon="11.702908006181453"><ele>498.0</ele><time>2026-04-18T11:51:25Z</time></trkpt><trkpt lat="48.1970512305358" lon="11.702968410464068"><ele>498.0</ele><time>2026-04-18T11:51:26Z</time></trkpt><trkpt lat="48.197183240176585" lon="11.702982385571014"><ele>498.0</ele><time>2026-04-18T11:51:27Z</time></trkpt><trkpt lat="48.197305784207195" lon="11.702981019457171"><ele>498.0</ele><time>2026-04-18T11:51:28Z</time></trkpt><trkpt lat="48.19741456816826" lon="11.702962723625186"><ele>498.0</ele><time>2026-04-18T11:51:29Z</time></trkpt><trkpt lat="48.19752306854013" lon="11.702922646342637"><ele>497.99999999999994</ele><time>2026-04-18T11:51:30Z</time></trkpt><trkpt lat="48.19762463338383" lon="11.702875663424615"><ele>497.99999999999994</ele><time>2026-04-18T11:51:31Z</time></trkpt><trkpt lat="48.19771194093077" lon="11.702822714044043"><ele>498.0</ele><time>2026-04-18T11:51:32Z</time></trkpt><trkpt lat="48.197784735671334" lon="11.702771266381752"><ele>498.0</ele><time>2026-04-18T11:51:33Z</time></trkpt><trkpt lat="48.1978732803415" lon="11.702713907591736"><ele>498.2</ele><time>2026-04-18T11:51:35Z</time></trkpt><trkpt lat="48.19792670886449" lon="11.70266296735037"><ele>498.4</ele><time>2026-04-18T11:51:37Z</time></trkpt><trkpt lat="48.19800510983363" lon="11.702654557938464"><ele>498.59999999999997</ele><time>2026-04-18T11:51:39Z</time></trkpt><trkpt lat="48.198116567548674" lon="11.702743855982211"><ele>498.79999999999995</ele><time>2026-04-18T11:51:41Z</time></trkpt><trkpt lat="48.19825714039796" lon="11.702729706981989"><ele>499.0</ele><time>2026-04-18T11:51:43Z</time></trkpt><trkpt lat="48.198348240646176" lon="11.702671516009326"><ele>499.0</ele><time>2026-04-18T11:51:44Z</time></trkpt><trkpt lat="48.19843253735588" lon="11.702577838919288"><ele>499.0</ele><time>2026-04-18T11:51:45Z</time></trkpt><trkpt lat="48.198482249269176" lon="11.702463949582937"><ele>499.0</ele><time>2026-04-18T11:51:46Z</time></trkpt><trkpt lat="48.19852859948765" lon="11.702347492949908"><ele>499.0</ele><time>2026-04-18T11:51:47Z</time></trkpt><trkpt lat="48.198550729426195" lon="11.70222332280908"><ele>499.0</ele><time>2026-04-18T11:51:48Z</time></trkpt><trkpt lat="48.198556464250665" lon="11.702102856062487"><ele>499.00000000000006</ele><time>2026-04-18T11:51:49Z</time></trkpt><trkpt lat="48.19854611662043" lon="11.701968123463985"><ele>499.0</ele><time>2026-04-18T11:51:50Z</time></trkpt><trkpt lat="48.19851659618626" lon="11.701865584387217"><ele>499.0</ele><time>2026-04-18T11:51:51Z</time></trkpt><trkpt lat="48.19845207160343" lon="11.701783399725691"><ele>499.0</ele><time>2026-04-18T11:51:52Z</time></trkpt><trkpt lat="48.19836427517401" lon="11.70171556491839"><ele>499.00000000000006</ele><time>2026-04-18T11:51:53Z</time></trkpt><trkpt lat="48.198296551868026" lon="11.701668029459524"><ele>499.0</ele><time>2026-04-18T11:51:54Z</time></trkpt><trkpt lat="48.19819951094283" lon="11.701627503859298"><ele>498.75</ele><time>2026-04-18T11:51:55Z</time></trkpt><trkpt lat="48.198120054122725" lon="11.701535550046264"><ele>498.5</ele><time>2026-04-18T11:51:56Z</time></trkpt><trkpt lat="48.198061006557346" lon="11.701381911797892"><ele>498.25</ele><time>2026-04-18T11:51:57Z</time></trkpt><trkpt lat="48.19801445965531" lon="11.701194438197021"><ele>498.0</ele><time>2026-04-18T11:51:58Z</time></trkpt><trkpt lat="48.19794960106745" lon="11.701014417226297"><ele>498.0</ele><time>2026-04-18T11:51:59Z</time></trkpt><trkpt lat="48.19785293885025" lon="11.70083888514099"><ele>498.0</ele><time>2026-04-18T11:52:00Z</time></trkpt><trkpt lat="48.19772056971868" lon="11.700674006753804"><ele>498.0</ele><time>2026-04-18T11:52:01Z</time></trkpt><trkpt lat="48.19756222085204" lon="11.700546760983292"><ele>498.0</ele><time>2026-04-18T11:52:02Z</time></trkpt><trkpt lat="48.19740470795936" lon="11.700435761685956"><ele>498.0</ele><time>2026-04-18T11:52:03Z</time></trkpt><trkpt lat="48.197260288342115" lon="11.700305559918148"><ele>498.0</ele><time>2026-04-18T11:52:04Z</time></trkpt><trkpt lat="48.19714389847558" lon="11.700141322136906"><ele>498.0</ele><time>2026-04-18T11:52:05Z</time></trkpt><trkpt lat="48.1970367998845" lon="11.699962664559688"><ele>498.0</ele><time>2026-04-18T11:52:06Z</time></trkpt><trkpt lat="48.19695525926102" lon="11.699738941870253"><ele>498.0</ele><time>2026-04-18T11:52:07Z</time></trkpt><trkpt lat="48.19685623492068" lon="11.699512713410593"><ele>498.0</ele><time>2026-04-18T11:52:08Z</time></trkpt><trkpt lat="48.19677614035528" lon="11.699264012519532"><ele>498.0</ele><time>2026-04-18T11:52:09Z</time></trkpt><trkpt lat="48.1967287831882" lon="11.698960621354066"><ele>498.0</ele><time>2026-04-18T11:52:10Z</time></trkpt><trkpt lat="48.19666941689785" lon="11.698671864357735"><ele>498.0</ele><time>2026-04-18T11:52:11Z</time></trkpt><trkpt lat="48.19659234165341" lon="11.698367270060519"><ele>498.0</ele><time>2026-04-18T11:52:12Z</time></trkpt><trkpt lat="48.19650533607061" lon="11.698079449859113"><ele>498.0</ele><time>2026-04-18T11:52:13Z</time></trkpt><trkpt lat="48.196405622932645" lon="11.69777106461067"><ele>498.0</ele><time>2026-04-18T11:52:14Z</time></trkpt><trkpt lat="48.19630342973185" lon="11.697468361220807"><ele>498.0</ele><time>2026-04-18T11:52:15Z</time></trkpt><trkpt lat="48.19619054654721" lon="11.69717142869844"><ele>498.0</ele><time>2026-04-18T11:52:16Z</time></trkpt><trkpt lat="48.1960591589103" lon="11.696894805533681"><ele>498.0</ele><time>2026-04-18T11:52:17Z</time></trkpt><trkpt lat="48.19592235835992" lon="11.696625273424672"><ele>498.0</ele><time>2026-04-18T11:52:18Z</time></trkpt><trkpt lat="48.19578799827981" lon="11.696340524083878"><ele>498.0</ele><time>2026-04-18T11:52:19Z</time></trkpt><trkpt lat="48.19562734944749" lon="11.696078652889511"><ele>498.5</ele><time>2026-04-18T11:52:20Z</time></trkpt><trkpt lat="48.19546127329307" lon="11.695828754077937"><ele>499.0</ele><time>2026-04-18T11:52:21Z</time></trkpt><trkpt lat="48.195284830974174" lon="11.695590189618748"><ele>499.0</ele><time>2026-04-18T11:52:22Z</time></trkpt><trkpt lat="48.19509583881069" lon="11.69536342016057"><ele>499.0</ele><time>2026-04-18T11:52:23Z</time></trkpt><trkpt lat="48.194896666954996" lon="11.695149949824058"><ele>498.5</ele><time>2026-04-18T11:52:24Z</time></trkpt><trkpt lat="48.19468894794604" lon="11.694952423628974"><ele>498.0</ele><time>2026-04-18T11:52:25Z</time></trkpt><trkpt lat="48.19446824254715" lon="11.694766186240598"><ele>498.0</ele><time>2026-04-18T11:52:26Z</time></trkpt><trkpt lat="48.19423890279923" lon="11.694602585792845"><ele>498.0</ele><time>2026-04-18T11:52:27Z</time></trkpt><trkpt lat="48.19400839000885" lon="11.694446292544585"><ele>500.0</ele><time>2026-04-18T11:52:28Z</time></trkpt><trkpt lat="48.193785541661896" lon="11.6943029414205"><ele>502.0</ele><time>2026-04-18T11:52:29Z</time></trkpt><trkpt lat="48.19356655830094" lon="11.694177524367587"><ele>502.0</ele><time>2026-04-18T11:52:30Z</time></trkpt><trkpt lat="48.193348940731155" lon="11.694061135390246"><ele>502.0</ele><time>2026-04-18T11:52:31Z</time></trkpt><trkpt lat="48.193135738053854" lon="11.69394756979609"><ele>501.5</ele><time>2026-04-18T11:52:32Z</time></trkpt><trkpt lat="48.19292183036154" lon="11.693833053122313"><ele>501.0</ele><time>2026-04-18T11:52:33Z</time></trkpt><trkpt lat="48.1927037068355" lon="11.693717085542346"><ele>501.0</ele><time>2026-04-18T11:52:34Z</time></trkpt><trkpt lat="48.19248059329444" lon="11.693604927965941"><ele>501.0</ele><time>2026-04-18T11:52:35Z</time></trkpt><trkpt lat="48.19225759174813" lon="11.693507152656453"><ele>501.0</ele><time>2026-04-18T11:52:36Z</time></trkpt><trkpt lat="48.192040310946325" lon="11.693395194593633"><ele>501.0</ele><time>2026-04-18T11:52:37Z</time></trkpt><trkpt lat="48.19183010081372" lon="11.693282297343579"><ele>501.0</ele><time>2026-04-18T11:52:38Z</time></trkpt><trkpt lat="48.19162185813526" lon="11.693172725556034"><ele>501.0</ele><time>2026-04-18T11:52:39Z</time></trkpt><trkpt lat="48.19141777026188" lon="11.693068605345605"><ele>501.0</ele><time>2026-04-18T11:52:40Z</time></trkpt><trkpt lat="48.19121036296432" lon="11.692962789527849"><ele>500.66666666666663</ele><time>2026-04-18T11:52:41Z</time></trkpt><trkpt lat="48.19100260553663" lon="11.69285679507908"><ele>500.3333333333333</ele><time>2026-04-18T11:52:42Z</time></trkpt><trkpt lat="48.190785378854464" lon="11.692796200500498"><ele>500.0</ele><time>2026-04-18T11:52:43Z</time></trkpt><trkpt lat="48.190576198413915" lon="11.692691066658062"><ele>500.0</ele><time>2026-04-18T11:52:44Z</time></trkpt><trkpt lat="48.19036765242633" lon="11.692582169307265"><ele>500.0</ele><time>2026-04-18T11:52:45Z</time></trkpt><trkpt lat="48.19015946740704" lon="11.69246878215711"><ele>500.0</ele><time>2026-04-18T11:52:46Z</time></trkpt><trkpt lat="48.18995058771685" lon="11.692353560087518"><ele>500.0</ele><time>2026-04-18T11:52:47Z</time></trkpt><trkpt lat="48.189740091587616" lon="11.692240566844166"><ele>500.0</ele><time>2026-04-18T11:52:48Z</time></trkpt><trkpt lat="48.18953041897747" lon="11.69213094503067"><ele>500.0</ele><time>2026-04-18T11:52:49Z</time></trkpt><trkpt lat="48.18932072443259" lon="11.692022029459494"><ele>500.0</ele><time>2026-04-18T11:52:50Z</time></trkpt><trkpt lat="48.18911290504049" lon="11.691915819721705"><ele>500.0</ele><time>2026-04-18T11:52:51Z</time></trkpt><trkpt lat="48.188901416669474" lon="11.691807025430467"><ele>500.0</ele><time>2026-04-18T11:52:52Z</time></trkpt><trkpt lat="48.18868583941488" lon="11.691692265552007"><ele>500.5</ele><time>2026-04-18T11:52:53Z</time></trkpt><trkpt lat="48.18846989057485" lon="11.691579792148039"><ele>501.0</ele><time>2026-04-18T11:52:54Z</time></trkpt><trkpt lat="48.188251807754305" lon="11.691469568487834"><ele>501.0</ele><time>2026-04-18T11:52:55Z</time></trkpt><trkpt lat="48.188034908540985" lon="11.691359095390064"><ele>501.0</ele><time>2026-04-18T11:52:56Z</time></trkpt><trkpt lat="48.1878164240255" lon="11.691243223071801"><ele>501.0</ele><time>2026-04-18T11:52:57Z</time></trkpt><trkpt lat="48.18759758875925" lon="11.691123224562437"><ele>501.0</ele><time>2026-04-18T11:52:58Z</time></trkpt><trkpt lat="48.18738918030622" lon="11.691013768587966"><ele>501.0</ele><time>2026-04-18T11:52:59Z</time></trkpt><trkpt lat="48.18718310430326" lon="11.69090539823673"><ele>501.0</ele><time>2026-04-18T11:53:00Z</time></trkpt><trkpt lat="48.18697863453849" lon="11.690798426732714"><ele>501.0</ele><time>2026-04-18T11:53:01Z</time></trkpt><trkpt lat="48.18677345772514" lon="11.69069334573193"><ele>501.0</ele><time>2026-04-18T11:53:02Z</time></trkpt><trkpt lat="48.1865625541465" lon="11.690586243595916"><ele>501.0</ele><time>2026-04-18T11:53:03Z</time></trkpt><trkpt lat="48.18634562575391" lon="11.690472202182079"><ele>501.0</ele><time>2026-04-18T11:53:04Z</time></trkpt><trkpt lat="48.186128800380075" lon="11.690353263926541"><ele>501.0</ele><time>2026-04-18T11:53:05Z</time></trkpt><trkpt lat="48.185917691363336" lon="11.690236860285388"><ele>501.0</ele><time>2026-04-18T11:53:06Z</time></trkpt><trkpt lat="48.1857070348339" lon="11.690116237755719"><ele>501.0</ele><time>2026-04-18T11:53:07Z</time></trkpt><trkpt lat="48.18549684324132" lon="11.68998808502381"><ele>502.0</ele><time>2026-04-18T11:53:08Z</time></trkpt><trkpt lat="48.18528730395969" lon="11.689851495932048"><ele>503.0</ele><time>2026-04-18T11:53:09Z</time></trkpt><trkpt lat="48.185084535163554" lon="11.689716754459338"><ele>503.0</ele><time>2026-04-18T11:53:10Z</time></trkpt><trkpt lat="48.184888658594154" lon="11.6895803683594"><ele>503.0</ele><time>2026-04-18T11:53:11Z</time></trkpt><trkpt lat="48.18469205555637" lon="11.68943627016231"><ele>503.0</ele><time>2026-04-18T11:53:12Z</time></trkpt><trkpt lat="48.18449812025259" lon="11.689281698582292"><ele>503.0</ele><time>2026-04-18T11:53:13Z</time></trkpt><trkpt lat="48.18430875558246" lon="11.689120877682988"><ele>503.0</ele><time>2026-04-18T11:53:14Z</time></trkpt><trkpt lat="48.18412280138156" lon="11.688952919795316"><ele>503.0</ele><time>2026-04-18T11:53:15Z</time></trkpt><trkpt lat="48.18394270380015" lon="11.688777291063818"><ele>503.3333333333333</ele><time>2026-04-18T11:53:16Z</time></trkpt><trkpt lat="48.18376543459962" lon="11.688590567070552"><ele>503.66666666666663</ele><time>2026-04-18T11:53:17Z</time></trkpt><trkpt lat="48.183599314843995" lon="11.688390876855548"><ele>504.0</ele><time>2026-04-18T11:53:18Z</time></trkpt><trkpt lat="48.1834389334285" lon="11.688183013775637"><ele>504.0</ele><time>2026-04-18T11:53:19Z</time></trkpt><trkpt lat="48.18327935675866" lon="11.687970954368376"><ele>504.0</ele><time>2026-04-18T11:53:20Z</time></trkpt><trkpt lat="48.183124658619924" lon="11.687751609431485"><ele>504.0</ele><time>2026-04-18T11:53:21Z</time></trkpt><trkpt lat="48.18297502269716" lon="11.687522779665082"><ele>503.66666666666663</ele><time>2026-04-18T11:53:22Z</time></trkpt><trkpt lat="48.182829188063394" lon="11.687278417773992"><ele>503.3333333333333</ele><time>2026-04-18T11:53:23Z</time></trkpt><trkpt lat="48.18268724912355" lon="11.687023093594787"><ele>503.0</ele><time>2026-04-18T11:53:24Z</time></trkpt><trkpt lat="48.18254795364925" lon="11.6867468077374"><ele>502.5</ele><time>2026-04-18T11:53:25Z</time></trkpt><trkpt lat="48.18241771899705" lon="11.686459850495652"><ele>502.0</ele><time>2026-04-18T11:53:26Z</time></trkpt><trkpt lat="48.18229861959871" lon="11.686179263449622"><ele>502.33333333333337</ele><time>2026-04-18T11:53:27Z</time></trkpt><trkpt lat="48.1821902362143" lon="11.685894730619333"><ele>502.66666666666663</ele><time>2026-04-18T11:53:28Z</time></trkpt><trkpt lat="48.18209125981239" lon="11.685600972409427"><ele>503.0</ele><time>2026-04-18T11:53:29Z</time></trkpt><trkpt lat="48.18199968885031" lon="11.685295420021468"><ele>503.0</ele><time>2026-04-18T11:53:30Z</time></trkpt><trkpt lat="48.18191235331526" lon="11.68497564526465"><ele>503.0</ele><time>2026-04-18T11:53:31Z</time></trkpt><trkpt lat="48.1818327735718" lon="11.684637671857432"><ele>502.5</ele><time>2026-04-18T11:53:32Z</time></trkpt><trkpt lat="48.1817612850447" lon="11.684289137377712"><ele>502.0</ele><time>2026-04-18T11:53:33Z</time></trkpt><trkpt lat="48.18169791722961" lon="11.683928775908143"><ele>502.0</ele><time>2026-04-18T11:53:34Z</time></trkpt><trkpt lat="48.18164223655409" lon="11.683566589689681"><ele>502.0</ele><time>2026-04-18T11:53:35Z</time></trkpt><trkpt lat="48.18160394381141" lon="11.68321261553581"><ele>502.0</ele><time>2026-04-18T11:53:36Z</time></trkpt><trkpt lat="48.181576953728396" lon="11.682866926959477"><ele>502.0</ele><time>2026-04-18T11:53:37Z</time></trkpt><trkpt lat="48.181555971524084" lon="11.682522691149664"><ele>502.0</ele><time>2026-04-18T11:53:38Z</time></trkpt><trkpt lat="48.18154122082152" lon="11.68218005537537"><ele>502.0</ele><time>2026-04-18T11:53:39Z</time></trkpt><trkpt lat="48.181535842608675" lon="11.681846637512537"><ele>502.5</ele><time>2026-04-18T11:53:40Z</time></trkpt><trkpt lat="48.18153645568102" lon="11.68150671090947"><ele>503.0</ele><time>2026-04-18T11:53:41Z</time></trkpt><trkpt lat="48.18154118465283" lon="11.68116107799176"><ele>503.0</ele><time>2026-04-18T11:53:42Z</time></trkpt><trkpt lat="48.18155376101732" lon="11.680814318202097"><ele>503.0</ele><time>2026-04-18T11:53:43Z</time></trkpt><trkpt lat="48.18157132204802" lon="11.680471864521135"><ele>503.0</ele><time>2026-04-18T11:53:44Z</time></trkpt><trkpt lat="48.18159225107698" lon="11.68012578152887"><ele>503.0</ele><time>2026-04-18T11:53:45Z</time></trkpt><trkpt lat="48.18161541856647" lon="11.679779800537643"><ele>503.0</ele><time>2026-04-18T11:53:46Z</time></trkpt><trkpt lat="48.18167137193797" lon="11.679445124286563"><ele>503.0</ele><time>2026-04-18T11:53:47Z</time></trkpt><trkpt lat="48.18169724927177" lon="11.679107828169746"><ele>503.0</ele><time>2026-04-18T11:53:48Z</time></trkpt><trkpt lat="48.181726711005965" lon="11.678768453035795"><ele>503.0</ele><time>2026-04-18T11:53:49Z</time></trkpt><trkpt lat="48.18175517019936" lon="11.67843925180287"><ele>503.0</ele><time>2026-04-18T11:53:50Z</time></trkpt><trkpt lat="48.181786768482766" lon="11.678112159070324"><ele>503.0</ele><time>2026-04-18T11:53:51Z</time></trkpt><trkpt lat="48.18181554376316" lon="11.677782589340323"><ele>503.0</ele><time>2026-04-18T11:53:52Z</time></trkpt><trkpt lat="48.18184365221161" lon="11.677444760282787"><ele>503.3333333333333</ele><time>2026-04-18T11:53:53Z</time></trkpt><trkpt lat="48.18187083603215" lon="11.677110113804051"><ele>503.66666666666663</ele><time>2026-04-18T11:53:54Z</time></trkpt><trkpt lat="48.181899239671594" lon="11.676779663909322"><ele>504.0</ele><time>2026-04-18T11:53:55Z</time></trkpt><trkpt lat="48.18192918368456" lon="11.676447986917626"><ele>504.0</ele><time>2026-04-18T11:53:56Z</time></trkpt><trkpt lat="48.18195902347134" lon="11.67611820232328"><ele>504.0</ele><time>2026-04-18T11:53:57Z</time></trkpt><trkpt lat="48.18198850344585" lon="11.675792394324098"><ele>504.0</ele><time>2026-04-18T11:53:58Z</time></trkpt><trkpt lat="48.18201618059827" lon="11.675464557383798"><ele>503.66666666666663</ele><time>2026-04-18T11:53:59Z</time></trkpt><trkpt lat="48.18204259710257" lon="11.675142052164148"><ele>503.3333333333333</ele><time>2026-04-18T11:54:00Z</time></trkpt><trkpt lat="48.18207031428364" lon="11.674822455724161"><ele>503.0</ele><time>2026-04-18T11:54:01Z</time></trkpt><trkpt lat="48.18209967249981" lon="11.67450311093909"><ele>503.0</ele><time>2026-04-18T11:54:02Z</time></trkpt><trkpt lat="48.182128857716265" lon="11.674185647966722"><ele>503.0</ele><time>2026-04-18T11:54:03Z</time></trkpt><trkpt lat="48.182156026869045" lon="11.673886517792436"><ele>503.0</ele><time>2026-04-18T11:54:04Z</time></trkpt><trkpt lat="48.182182748139" lon="11.67358701660564"><ele>503.0</ele><time>2026-04-18T11:54:05Z</time></trkpt><trkpt lat="48.18221020476521" lon="11.673272147041777"><ele>503.0</ele><time>2026-04-18T11:54:06Z</time></trkpt><trkpt lat="48.182237202473644" lon="11.67296174697589"><ele>503.0</ele><time>2026-04-18T11:54:07Z</time></trkpt><trkpt lat="48.18225161716316" lon="11.672649268002928"><ele>503.0</ele><time>2026-04-18T11:54:08Z</time></trkpt><trkpt lat="48.18228224050134" lon="11.672334542398751"><ele>503.0</ele><time>2026-04-18T11:54:09Z</time></trkpt><trkpt lat="48.182311968848005" lon="11.672020322010262"><ele>503.0</ele><time>2026-04-18T11:54:10Z</time></trkpt><trkpt lat="48.18233852932939" lon="11.671704422662895"><ele>503.0</ele><time>2026-04-18T11:54:11Z</time></trkpt><trkpt lat="48.182362169124026" lon="11.671392183267873"><ele>503.0</ele><time>2026-04-18T11:54:12Z</time></trkpt><trkpt lat="48.1823885576454" lon="11.671077382929187"><ele>503.0</ele><time>2026-04-18T11:54:13Z</time></trkpt><trkpt lat="48.18243124596054" lon="11.670766593833058"><ele>503.0</ele><time>2026-04-18T11:54:14Z</time></trkpt><trkpt lat="48.182457798077195" lon="11.670455723611903"><ele>503.0</ele><time>2026-04-18T11:54:15Z</time></trkpt><trkpt lat="48.182484758301214" lon="11.670145798009532"><ele>503.0</ele><time>2026-04-18T11:54:16Z</time></trkpt><trkpt lat="48.18251274210006" lon="11.6698308139411"><ele>503.3333333333333</ele><time>2026-04-18T11:54:17Z</time></trkpt><trkpt lat="48.18254133366314" lon="11.669508988906413"><ele>503.66666666666663</ele><time>2026-04-18T11:54:18Z</time></trkpt><trkpt lat="48.18257080811603" lon="11.66918251445257"><ele>504.0</ele><time>2026-04-18T11:54:19Z</time></trkpt><trkpt lat="48.18259968712828" lon="11.6688606911426"><ele>504.0</ele><time>2026-04-18T11:54:20Z</time></trkpt><trkpt lat="48.182626845829795" lon="11.668544899002647"><ele>504.0</ele><time>2026-04-18T11:54:21Z</time></trkpt><trkpt lat="48.182654121722905" lon="11.668228717765874"><ele>504.0</ele><time>2026-04-18T11:54:22Z</time></trkpt><trkpt lat="48.18268258383854" lon="11.66791021510816"><ele>504.33333333333337</ele><time>2026-04-18T11:54:23Z</time></trkpt><trkpt lat="48.18271106027136" lon="11.66759155223302"><ele>504.6666666666667</ele><time>2026-04-18T11:54:24Z</time></trkpt><trkpt lat="48.18273986409604" lon="11.667273497649079"><ele>505.0</ele><time>2026-04-18T11:54:25Z</time></trkpt><trkpt lat="48.18276862770867" lon="11.666958028491697"><ele>505.0</ele><time>2026-04-18T11:54:26Z</time></trkpt><trkpt lat="48.18279769149167" lon="11.666636436807753"><ele>505.0</ele><time>2026-04-18T11:54:27Z</time></trkpt><trkpt lat="48.18282624938097" lon="11.666314246412869"><ele>505.0</ele><time>2026-04-18T11:54:28Z</time></trkpt><trkpt lat="48.18285501380277" lon="11.665989725920516"><ele>505.0</ele><time>2026-04-18T11:54:29Z</time></trkpt><trkpt lat="48.182883509224595" lon="11.665668240284514"><ele>505.0</ele><time>2026-04-18T11:54:30Z</time></trkpt><trkpt lat="48.18291198841037" lon="11.665346915307655"><ele>505.0</ele><time>2026-04-18T11:54:31Z</time></trkpt><trkpt lat="48.182940919858815" lon="11.665026976294662"><ele>504.6666666666667</ele><time>2026-04-18T11:54:32Z</time></trkpt><trkpt lat="48.182969734323486" lon="11.664708330984041"><ele>504.33333333333337</ele><time>2026-04-18T11:54:33Z</time></trkpt><trkpt lat="48.18299659364242" lon="11.664388638590244"><ele>504.0</ele><time>2026-04-18T11:54:34Z</time></trkpt><trkpt lat="48.18302137607048" lon="11.664066700092713"><ele>504.0</ele><time>2026-04-18T11:54:35Z</time></trkpt><trkpt lat="48.183028721083105" lon="11.66373876253585"><ele>504.0</ele><time>2026-04-18T11:54:36Z</time></trkpt><trkpt lat="48.183066750429326" lon="11.663410762392026"><ele>504.0</ele><time>2026-04-18T11:54:37Z</time></trkpt><trkpt lat="48.18308356706817" lon="11.663076410265173"><ele>504.5</ele><time>2026-04-18T11:54:38Z</time></trkpt><trkpt lat="48.18308914506417" lon="11.662724097313651"><ele>505.0</ele><time>2026-04-18T11:54:39Z</time></trkpt><trkpt lat="48.18307375337879" lon="11.662347934978714"><ele>505.0</ele><time>2026-04-18T11:54:40Z</time></trkpt><trkpt lat="48.18305795316929" lon="11.661959387345615"><ele>505.0</ele><time>2026-04-18T11:54:41Z</time></trkpt><trkpt lat="48.183047542488666" lon="11.661596376338274"><ele>504.6666666666667</ele><time>2026-04-18T11:54:42Z</time></trkpt><trkpt lat="48.18301712911612" lon="11.661261809450917"><ele>504.33333333333337</ele><time>2026-04-18T11:54:43Z</time></trkpt><trkpt lat="48.18297714099696" lon="11.660944856163965"><ele>504.0</ele><time>2026-04-18T11:54:44Z</time></trkpt><trkpt lat="48.18292728106259" lon="11.660646561693811"><ele>503.33333333333337</ele><time>2026-04-18T11:54:45Z</time></trkpt><trkpt lat="48.18287340159639" lon="11.660355961609222"><ele>502.6666666666667</ele><time>2026-04-18T11:54:46Z</time></trkpt><trkpt lat="48.18281522002932" lon="11.660064372896645"><ele>502.0</ele><time>2026-04-18T11:54:47Z</time></trkpt><trkpt lat="48.182740212162436" lon="11.659786349565351"><ele>502.0</ele><time>2026-04-18T11:54:48Z</time></trkpt><trkpt lat="48.18267033117129" lon="11.659518471222695"><ele>502.0</ele><time>2026-04-18T11:54:49Z</time></trkpt><trkpt lat="48.182613941152844" lon="11.659244866647182"><ele>502.0</ele><time>2026-04-18T11:54:50Z</time></trkpt><trkpt lat="48.18254767340273" lon="11.658984591473894"><ele>502.6666666666667</ele><time>2026-04-18T11:54:51Z</time></trkpt><trkpt lat="48.1824330148403" lon="11.658756796540978"><ele>503.33333333333337</ele><time>2026-04-18T11:54:52Z</time></trkpt><trkpt lat="48.18234344008104" lon="11.658519877841387"><ele>504.0</ele><time>2026-04-18T11:54:53Z</time></trkpt><trkpt lat="48.18224780764337" lon="11.658290267634374"><ele>504.0</ele><time>2026-04-18T11:54:54Z</time></trkpt><trkpt lat="48.182151784264576" lon="11.658069919944012"><ele>504.0</ele><time>2026-04-18T11:54:55Z</time></trkpt><trkpt lat="48.18205393990416" lon="11.657857672518222"><ele>504.0</ele><time>2026-04-18T11:54:56Z</time></trkpt><trkpt lat="48.1819518197586" lon="11.65765582564482"><ele>504.33333333333337</ele><time>2026-04-18T11:54:57Z</time></trkpt><trkpt lat="48.1818464896873" lon="11.65746311194936"><ele>504.6666666666667</ele><time>2026-04-18T11:54:58Z</time></trkpt><trkpt lat="48.18173823245196" lon="11.657280910851627"><ele>505.0</ele><time>2026-04-18T11:54:59Z</time></trkpt><trkpt lat="48.18162800684545" lon="11.65710178415974"><ele>505.25</ele><time>2026-04-18T11:55:00Z</time></trkpt><trkpt lat="48.181522877651744" lon="11.656937604464831"><ele>505.5</ele><time>2026-04-18T11:55:01Z</time></trkpt><trkpt lat="48.181419192132545" lon="11.656788922747788"><ele>505.75</ele><time>2026-04-18T11:55:02Z</time></trkpt><trkpt lat="48.18132098125377" lon="11.656650856284251"><ele>506.0</ele><time>2026-04-18T11:55:03Z</time></trkpt><trkpt lat="48.18122367642639" lon="11.656516409486358"><ele>505.5</ele><time>2026-04-18T11:55:04Z</time></trkpt><trkpt lat="48.18113085791866" lon="11.656390953630837"><ele>505.0</ele><time>2026-04-18T11:55:05Z</time></trkpt><trkpt lat="48.18104013969318" lon="11.656270237501019"><ele>504.5</ele><time>2026-04-18T11:55:06Z</time></trkpt><trkpt lat="48.18095761720371" lon="11.65614879788692"><ele>504.0</ele><time>2026-04-18T11:55:07Z</time></trkpt><trkpt lat="48.18088517851946" lon="11.65601246804788"><ele>504.0</ele><time>2026-04-18T11:55:08Z</time></trkpt><trkpt lat="48.18081794811306" lon="11.655869341547142"><ele>504.0</ele><time>2026-04-18T11:55:09Z</time></trkpt><trkpt lat="48.18076892282936" lon="11.65572911617969"><ele>504.0</ele><time>2026-04-18T11:55:10Z</time></trkpt><trkpt lat="48.18073802330624" lon="11.65558139972242"><ele>504.0</ele><time>2026-04-18T11:55:11Z</time></trkpt><trkpt lat="48.18072388115747" lon="11.65541995812135"><ele>504.0</ele><time>2026-04-18T11:55:12Z</time></trkpt><trkpt lat="48.18072501010811" lon="11.655261294747136"><ele>504.0</ele><time>2026-04-18T11:55:13Z</time></trkpt><trkpt lat="48.180738387438836" lon="11.655119203438009"><ele>504.0</ele><time>2026-04-18T11:55:14Z</time></trkpt><trkpt lat="48.1807595404195" lon="11.654983127621753"><ele>504.0</ele><time>2026-04-18T11:55:15Z</time></trkpt><trkpt lat="48.18078370575967" lon="11.65487647030731"><ele>504.0</ele><time>2026-04-18T11:55:16Z</time></trkpt><trkpt lat="48.180830821584365" lon="11.654727702669533"><ele>504.0</ele><time>2026-04-18T11:55:18Z</time></trkpt><trkpt lat="48.180889309581765" lon="11.654651833535276"><ele>504.0</ele><time>2026-04-18T11:55:20Z</time></trkpt><trkpt lat="48.180936132353565" lon="11.654565859293262"><ele>504.0</ele><time>2026-04-18T11:55:22Z</time></trkpt><trkpt lat="48.18102534559781" lon="11.654455930390972"><ele>504.0</ele><time>2026-04-18T11:55:24Z</time></trkpt><trkpt lat="48.18110662288607" lon="11.654284324081017"><ele>504.0</ele><time>2026-04-18T11:55:26Z</time></trkpt><trkpt lat="48.18115481523561" lon="11.654167095489715"><ele>504.0</ele><time>2026-04-18T11:55:27Z</time></trkpt><trkpt lat="48.18120883830224" lon="11.654064168134243"><ele>503.8333333333333</ele><time>2026-04-18T11:55:28Z</time></trkpt><trkpt lat="48.18125641968301" lon="11.65398121882659"><ele>503.66666666666663</ele><time>2026-04-18T11:55:29Z</time></trkpt><trkpt lat="48.18133126698697" lon="11.653860826862742"><ele>503.5</ele><time>2026-04-18T11:55:31Z</time></trkpt><trkpt lat="48.18140763420216" lon="11.653772178592947"><ele>503.3333333333333</ele><time>2026-04-18T11:55:33Z</time></trkpt><trkpt lat="48.18146791514066" lon="11.653737983073576"><ele>503.16666666666663</ele><time>2026-04-18T11:55:35Z</time></trkpt><trkpt lat="48.18146586466952" lon="11.6536410308139"><ele>503.0</ele><time>2026-04-18T11:55:38Z</time></trkpt><trkpt lat="48.181408000741385" lon="11.653600781655129"><ele>503.0</ele><time>2026-04-18T11:55:40Z</time></trkpt><trkpt lat="48.181310155095616" lon="11.65377387123398"><ele>503.0</ele><time>2026-04-18T11:55:42Z</time></trkpt><trkpt lat="48.181256197945366" lon="11.653878351489627"><ele>503.0</ele><time>2026-04-18T11:55:43Z</time></trkpt><trkpt lat="48.18117287924557" lon="11.654024068644786"><ele>503.0</ele><time>2026-04-18T11:55:44Z</time></trkpt><trkpt lat="48.18107723037725" lon="11.65418943702421"><ele>503.0</ele><time>2026-04-18T11:55:45Z</time></trkpt><trkpt lat="48.18099275844208" lon="11.65434331392578"><ele>502.99999999999994</ele><time>2026-04-18T11:55:46Z</time></trkpt><trkpt lat="48.18092407777218" lon="11.65447265534412"><ele>502.99999999999994</ele><time>2026-04-18T11:55:47Z</time></trkpt><trkpt lat="48.180873174245676" lon="11.654558796370777"><ele>503.0</ele><time>2026-04-18T11:55:48Z</time></trkpt><trkpt lat="48.1807807586982" lon="11.654648385682579"><ele>503.0</ele><time>2026-04-18T11:55:50Z</time></trkpt><trkpt lat="48.18068826375885" lon="11.654680453316447"><ele>503.16666666666663</ele><time>2026-04-18T11:55:52Z</time></trkpt><trkpt lat="48.1806277601051" lon="11.654759531514346"><ele>503.3333333333333</ele><time>2026-04-18T11:55:54Z</time></trkpt><trkpt lat="48.18060264414009" lon="11.654879512121722"><ele>503.5</ele><time>2026-04-18T11:55:56Z</time></trkpt><trkpt lat="48.18055825462509" lon="11.65499986453251"><ele>503.66666666666663</ele><time>2026-04-18T11:55:58Z</time></trkpt><trkpt lat="48.18050497124101" lon="11.655062652191917"><ele>503.8333333333333</ele><time>2026-04-18T11:56:00Z</time></trkpt><trkpt lat="48.180569690716375" lon="11.655045853321914"><ele>504.0</ele><time>2026-04-18T11:57:06Z</time></trkpt><trkpt lat="48.18061644132591" lon="11.654957323200172"><ele>504.0</ele><time>2026-04-18T11:57:08Z</time></trkpt><trkpt lat="48.18063394050247" lon="11.655059738136393"><ele>504.0</ele><time>2026-04-18T11:57:17Z</time></trkpt><trkpt lat="48.18063088010068" lon="11.655157641291947"><ele>504.0</ele><time>2026-04-18T11:57:20Z</time></trkpt><trkpt lat="48.18058495515377" lon="11.655263477633083"><ele>504.0</ele><time>2026-04-18T11:57:23Z</time></trkpt><trkpt lat="48.18053709908102" lon="11.65536213878112"><ele>504.0</ele><time>2026-04-18T11:57:26Z</time></trkpt><trkpt lat="48.180488657178856" lon="11.65543725243804"><ele>504.0</ele><time>2026-04-18T11:57:29Z</time></trkpt><trkpt lat="48.18053919669346" lon="11.655339629222063"><ele>504.0</ele><time>2026-04-18T11:58:47Z</time></trkpt><trkpt lat="48.18058182018284" lon="11.655208631374482"><ele>504.0</ele><time>2026-04-18T11:58:50Z</time></trkpt><trkpt lat="48.18062695952635" lon="11.655113665592294"><ele>504.0</ele><time>2026-04-18T11:58:53Z</time></trkpt><trkpt lat="48.18067345589639" lon="11.655028208467806"><ele>504.0</ele><time>2026-04-18T11:58:56Z</time></trkpt><trkpt lat="48.18057383513644" lon="11.655101938691246"><ele>504.0</ele><time>2026-04-18T11:59:09Z</time></trkpt><trkpt lat="48.180511318712284" lon="11.655139397963918"><ele>504.0</ele><time>2026-04-18T11:59:34.999Z</time></trkpt><trkpt lat="48.18045381905423" lon="11.65507742160623"><ele>504.0</ele><time>2026-04-18T11:59:47.999Z</time></trkpt><trkpt lat="48.18037546811678" lon="11.655029222219927"><ele>504.0</ele><time>2026-04-18T11:59:49.999Z</time></trkpt><trkpt lat="48.180288870343745" lon="11.654943176113242"><ele>504.0</ele><time>2026-04-18T11:59:52.999Z</time></trkpt><trkpt lat="48.180210004311824" lon="11.65488013230876"><ele>504.0</ele><time>2026-04-18T11:59:54.999Z</time></trkpt><trkpt lat="48.18012915922778" lon="11.654829242213959"><ele>504.0</ele><time>2026-04-18T11:59:58.999Z</time></trkpt><trkpt lat="48.18002894145128" lon="11.65481857107779"><ele>504.0</ele><time>2026-04-18T12:00:00.999Z</time></trkpt><trkpt lat="48.17996152886055" lon="11.654806547517659"><ele>504.0</ele><time>2026-04-18T12:00:01.999Z</time></trkpt><trkpt lat="48.1798910561913" lon="11.654782030390281"><ele>504.0</ele><time>2026-04-18T12:00:02.999Z</time></trkpt><trkpt lat="48.17980051152249" lon="11.654726590149004"><ele>504.0</ele><time>2026-04-18T12:00:03.999Z</time></trkpt><trkpt lat="48.179705719246336" lon="11.654654110078166"><ele>504.0</ele><time>2026-04-18T12:00:05Z</time></trkpt><trkpt lat="48.179640345908155" lon="11.65449555030912"><ele>504.0</ele><time>2026-04-18T12:00:06Z</time></trkpt><trkpt lat="48.17955290807208" lon="11.6543415281046"><ele>504.0</ele><time>2026-04-18T12:00:07Z</time></trkpt><trkpt lat="48.179443293436385" lon="11.654167411389636"><ele>504.0</ele><time>2026-04-18T12:00:08Z</time></trkpt><trkpt lat="48.17932136710567" lon="11.653995562630888"><ele>504.0</ele><time>2026-04-18T12:00:09Z</time></trkpt><trkpt lat="48.17919954721193" lon="11.653833144927473"><ele>504.0</ele><time>2026-04-18T12:00:10Z</time></trkpt><trkpt lat="48.17904906605768" lon="11.653574097248203"><ele>504.0</ele><time>2026-04-18T12:00:11Z</time></trkpt><trkpt lat="48.1789182434312" lon="11.653306084746797"><ele>503.5</ele><time>2026-04-18T12:00:12Z</time></trkpt><trkpt lat="48.17879298455802" lon="11.653026499973164"><ele>503.0</ele><time>2026-04-18T12:00:13Z</time></trkpt><trkpt lat="48.1786686582362" lon="11.652744680500458"><ele>504.3333333333333</ele><time>2026-04-18T12:00:14Z</time></trkpt><trkpt lat="48.1785665287319" lon="11.652444585206137"><ele>505.66666666666663</ele><time>2026-04-18T12:00:15Z</time></trkpt><trkpt lat="48.17846341111841" lon="11.652147841758104"><ele>507.0</ele><time>2026-04-18T12:00:16Z</time></trkpt><trkpt lat="48.17836111045713" lon="11.65186185227807"><ele>507.66666666666663</ele><time>2026-04-18T12:00:17Z</time></trkpt><trkpt lat="48.17827730947476" lon="11.651567299925723"><ele>508.3333333333333</ele><time>2026-04-18T12:00:18Z</time></trkpt><trkpt lat="48.17821945944513" lon="11.651264215640278"><ele>509.0</ele><time>2026-04-18T12:00:19Z</time></trkpt><trkpt lat="48.17813995302377" lon="11.65095527640286"><ele>510.0</ele><time>2026-04-18T12:00:20Z</time></trkpt><trkpt lat="48.17807617213706" lon="11.650620647627862"><ele>511.0</ele><time>2026-04-18T12:00:21Z</time></trkpt><trkpt lat="48.178007356898696" lon="11.650275705450614"><ele>511.5</ele><time>2026-04-18T12:00:22Z</time></trkpt><trkpt lat="48.17793724417383" lon="11.649918206873872"><ele>512.0</ele><time>2026-04-18T12:00:23Z</time></trkpt><trkpt lat="48.1778701400311" lon="11.649562563500899"><ele>510.0</ele><time>2026-04-18T12:00:24Z</time></trkpt><trkpt lat="48.177801509115966" lon="11.649213883062234"><ele>508.0</ele><time>2026-04-18T12:00:25Z</time></trkpt><trkpt lat="48.1777521567542" lon="11.648855779760417"><ele>510.0</ele><time>2026-04-18T12:00:26Z</time></trkpt><trkpt lat="48.177689041189645" lon="11.648510016942254"><ele>512.0</ele><time>2026-04-18T12:00:27Z</time></trkpt><trkpt lat="48.17762725260489" lon="11.648169543602304"><ele>512.0</ele><time>2026-04-18T12:00:28Z</time></trkpt><trkpt lat="48.17756459115527" lon="11.64782870361472"><ele>512.0</ele><time>2026-04-18T12:00:29Z</time></trkpt><trkpt lat="48.17750027241393" lon="11.647489258192415"><ele>512.0</ele><time>2026-04-18T12:00:30Z</time></trkpt><trkpt lat="48.17743686011111" lon="11.64715182752145"><ele>512.0</ele><time>2026-04-18T12:00:31Z</time></trkpt><trkpt lat="48.177374998180774" lon="11.64681601953522"><ele>512.5</ele><time>2026-04-18T12:00:32Z</time></trkpt><trkpt lat="48.17731286395639" lon="11.646478954657894"><ele>513.0</ele><time>2026-04-18T12:00:33Z</time></trkpt><trkpt lat="48.17725024498088" lon="11.646139938211919"><ele>514.0</ele><time>2026-04-18T12:00:34Z</time></trkpt><trkpt lat="48.177188166554245" lon="11.645803067048885"><ele>515.0</ele><time>2026-04-18T12:00:35Z</time></trkpt><trkpt lat="48.17712664651114" lon="11.64546654956684"><ele>515.6666666666666</ele><time>2026-04-18T12:00:36Z</time></trkpt><trkpt lat="48.177066266019295" lon="11.645137556468041"><ele>516.3333333333334</ele><time>2026-04-18T12:00:37Z</time></trkpt><trkpt lat="48.17701035412383" lon="11.644831856050361"><ele>517.0</ele><time>2026-04-18T12:00:38Z</time></trkpt><trkpt lat="48.17695666267124" lon="11.644540311608822"><ele>516.6666666666667</ele><time>2026-04-18T12:00:39Z</time></trkpt><trkpt lat="48.176904043713265" lon="11.644254069400949"><ele>516.3333333333334</ele><time>2026-04-18T12:00:40Z</time></trkpt><trkpt lat="48.17685128264711" lon="11.643966627245176"><ele>516.0</ele><time>2026-04-18T12:00:41Z</time></trkpt><trkpt lat="48.176798998895755" lon="11.643680586758192"><ele>515.3333333333334</ele><time>2026-04-18T12:00:42Z</time></trkpt><trkpt lat="48.176746773075635" lon="11.643400090414884"><ele>514.6666666666667</ele><time>2026-04-18T12:00:43Z</time></trkpt><trkpt lat="48.17669504929163" lon="11.643122290422495"><ele>514.0</ele><time>2026-04-18T12:00:44Z</time></trkpt><trkpt lat="48.17662930499127" lon="11.642850424957812"><ele>514.3333333333334</ele><time>2026-04-18T12:00:45Z</time></trkpt><trkpt lat="48.17659296119345" lon="11.64257018291868"><ele>514.6666666666666</ele><time>2026-04-18T12:00:46Z</time></trkpt><trkpt lat="48.176527760678205" lon="11.642299823117195"><ele>515.0</ele><time>2026-04-18T12:00:47Z</time></trkpt><trkpt lat="48.176476941258606" lon="11.6420175406181"><ele>514.6666666666666</ele><time>2026-04-18T12:00:48Z</time></trkpt><trkpt lat="48.176425518408934" lon="11.641731484174088"><ele>514.3333333333334</ele><time>2026-04-18T12:00:49Z</time></trkpt><trkpt lat="48.17637683245282" lon="11.641446953132165"><ele>514.0</ele><time>2026-04-18T12:00:50Z</time></trkpt><trkpt lat="48.17633171142195" lon="11.641162889679578"><ele>514.3333333333334</ele><time>2026-04-18T12:00:51Z</time></trkpt><trkpt lat="48.176293549473755" lon="11.640880984896642"><ele>514.6666666666666</ele><time>2026-04-18T12:00:52Z</time></trkpt><trkpt lat="48.17625998355367" lon="11.64060628447044"><ele>515.0</ele><time>2026-04-18T12:00:53Z</time></trkpt><trkpt lat="48.17622901005782" lon="11.64034180668678"><ele>514.0</ele><time>2026-04-18T12:00:54Z</time></trkpt><trkpt lat="48.17620217618672" lon="11.640090991048547"><ele>513.0</ele><time>2026-04-18T12:00:55Z</time></trkpt><trkpt lat="48.1761847884719" lon="11.639851596848501"><ele>512.0</ele><time>2026-04-18T12:00:56Z</time></trkpt><trkpt lat="48.17617571037739" lon="11.639615323545511"><ele>512.0</ele><time>2026-04-18T12:00:57Z</time></trkpt><trkpt lat="48.17617880609664" lon="11.639378468046974"><ele>512.0</ele><time>2026-04-18T12:00:58Z</time></trkpt><trkpt lat="48.17619526760099" lon="11.639147987259163"><ele>512.0</ele><time>2026-04-18T12:00:59Z</time></trkpt><trkpt lat="48.176235964798934" lon="11.638924373652337"><ele>512.0</ele><time>2026-04-18T12:01:00Z</time></trkpt><trkpt lat="48.17629580141846" lon="11.6387190118742"><ele>512.0</ele><time>2026-04-18T12:01:01Z</time></trkpt><trkpt lat="48.17638247620637" lon="11.638546408807592"><ele>512.0</ele><time>2026-04-18T12:01:02Z</time></trkpt><trkpt lat="48.17647849458452" lon="11.638386538742788"><ele>512.0</ele><time>2026-04-18T12:01:03Z</time></trkpt><trkpt lat="48.17658310666659" lon="11.638245074296957"><ele>511.5</ele><time>2026-04-18T12:01:04Z</time></trkpt><trkpt lat="48.17670253257507" lon="11.638129556906527"><ele>511.0</ele><time>2026-04-18T12:01:05Z</time></trkpt><trkpt lat="48.176830751098095" lon="11.63803838319268"><ele>510.5</ele><time>2026-04-18T12:01:06Z</time></trkpt><trkpt lat="48.1769717316519" lon="11.63798643818901"><ele>510.0</ele><time>2026-04-18T12:01:07Z</time></trkpt><trkpt lat="48.177124893924926" lon="11.637951713321197"><ele>510.0</ele><time>2026-04-18T12:01:08Z</time></trkpt><trkpt lat="48.17728708552263" lon="11.637916003506128"><ele>510.0</ele><time>2026-04-18T12:01:09Z</time></trkpt><trkpt lat="48.177457273355316" lon="11.637870697536247"><ele>510.0</ele><time>2026-04-18T12:01:10Z</time></trkpt><trkpt lat="48.17762562377562" lon="11.637813657269216"><ele>510.66666666666663</ele><time>2026-04-18T12:01:11Z</time></trkpt><trkpt lat="48.17779216156337" lon="11.637730176481808"><ele>511.3333333333333</ele><time>2026-04-18T12:01:12Z</time></trkpt><trkpt lat="48.17793493034188" lon="11.637585975121832"><ele>512.0</ele><time>2026-04-18T12:01:13Z</time></trkpt><trkpt lat="48.17811586042585" lon="11.637494496454313"><ele>512.3333333333333</ele><time>2026-04-18T12:01:14Z</time></trkpt><trkpt lat="48.17825975353478" lon="11.63735225584666"><ele>512.6666666666666</ele><time>2026-04-18T12:01:15Z</time></trkpt><trkpt lat="48.17841063536494" lon="11.637183033718703"><ele>513.0</ele><time>2026-04-18T12:01:16Z</time></trkpt><trkpt lat="48.17855787127942" lon="11.637008980494311"><ele>512.3333333333334</ele><time>2026-04-18T12:01:17Z</time></trkpt><trkpt lat="48.17870799115518" lon="11.636840798335813"><ele>511.6666666666667</ele><time>2026-04-18T12:01:17.999Z</time></trkpt><trkpt lat="48.17886279509753" lon="11.636687244203495"><ele>511.0</ele><time>2026-04-18T12:01:18.999Z</time></trkpt><trkpt lat="48.17900255493836" lon="11.636527470661768"><ele>511.0</ele><time>2026-04-18T12:01:19.999Z</time></trkpt><trkpt lat="48.179158820306775" lon="11.636366214986834"><ele>511.0</ele><time>2026-04-18T12:01:20.999Z</time></trkpt><trkpt lat="48.179300637533814" lon="11.636199367026169"><ele>511.0</ele><time>2026-04-18T12:01:21.999Z</time></trkpt><trkpt lat="48.179423326790086" lon="11.636038900954112"><ele>510.6666666666667</ele><time>2026-04-18T12:01:22.999Z</time></trkpt><trkpt lat="48.17954385987241" lon="11.635872512158699"><ele>510.33333333333337</ele><time>2026-04-18T12:01:23.999Z</time></trkpt><trkpt lat="48.17966133820185" lon="11.63571236802469"><ele>510.0</ele><time>2026-04-18T12:01:24.999Z</time></trkpt><trkpt lat="48.179781912884295" lon="11.63554194052996"><ele>510.0</ele><time>2026-04-18T12:01:25.999Z</time></trkpt><trkpt lat="48.17990531028422" lon="11.635363622427388"><ele>510.0</ele><time>2026-04-18T12:01:26.999Z</time></trkpt><trkpt lat="48.180031868066536" lon="11.635178722832718"><ele>510.0</ele><time>2026-04-18T12:01:27.999Z</time></trkpt><trkpt lat="48.18015509616243" lon="11.634986021221515"><ele>510.0</ele><time>2026-04-18T12:01:28.999Z</time></trkpt><trkpt lat="48.18027574945426" lon="11.63480076276273"><ele>510.0</ele><time>2026-04-18T12:01:29.999Z</time></trkpt><trkpt lat="48.18039577230481" lon="11.634615641335392"><ele>510.0</ele><time>2026-04-18T12:01:30.999Z</time></trkpt><trkpt lat="48.18051178653098" lon="11.634435508104088"><ele>510.33333333333337</ele><time>2026-04-18T12:01:31.999Z</time></trkpt><trkpt lat="48.18062324176123" lon="11.634246746528362"><ele>510.6666666666667</ele><time>2026-04-18T12:01:32.999Z</time></trkpt><trkpt lat="48.18072893247515" lon="11.63405792800313"><ele>511.0</ele><time>2026-04-18T12:01:33.999Z</time></trkpt><trkpt lat="48.18082841143409" lon="11.633873979076837"><ele>510.6666666666667</ele><time>2026-04-18T12:01:35Z</time></trkpt><trkpt lat="48.180923039641556" lon="11.63369565874299"><ele>510.33333333333337</ele><time>2026-04-18T12:01:36Z</time></trkpt><trkpt lat="48.181022278887006" lon="11.633511387886454"><ele>510.0</ele><time>2026-04-18T12:01:37Z</time></trkpt><trkpt lat="48.181127074898676" lon="11.63330905123954"><ele>510.0</ele><time>2026-04-18T12:01:38Z</time></trkpt><trkpt lat="48.18124377307337" lon="11.633120320571114"><ele>510.0</ele><time>2026-04-18T12:01:39Z</time></trkpt><trkpt lat="48.18134086482202" lon="11.632884583008991"><ele>510.0</ele><time>2026-04-18T12:01:40Z</time></trkpt><trkpt lat="48.181455678204344" lon="11.632657594952791"><ele>511.0</ele><time>2026-04-18T12:01:41Z</time></trkpt><trkpt lat="48.18156586900817" lon="11.632418512923978"><ele>512.0</ele><time>2026-04-18T12:01:42Z</time></trkpt><trkpt lat="48.18167209337714" lon="11.632182985908184"><ele>513.0</ele><time>2026-04-18T12:01:43Z</time></trkpt><trkpt lat="48.181774807329774" lon="11.63195206954263"><ele>514.3333333333334</ele><time>2026-04-18T12:01:44Z</time></trkpt><trkpt lat="48.18187446608714" lon="11.631710896449556"><ele>515.6666666666667</ele><time>2026-04-18T12:01:45Z</time></trkpt><trkpt lat="48.18198981817125" lon="11.631478638995842"><ele>517.0</ele><time>2026-04-18T12:01:46Z</time></trkpt><trkpt lat="48.18209133358915" lon="11.63123920931318"><ele>516.0</ele><time>2026-04-18T12:01:47Z</time></trkpt><trkpt lat="48.18219474012504" lon="11.630996308242006"><ele>515.0</ele><time>2026-04-18T12:01:48Z</time></trkpt><trkpt lat="48.18228854396651" lon="11.630737113325486"><ele>514.0</ele><time>2026-04-18T12:01:49Z</time></trkpt><trkpt lat="48.18239887495922" lon="11.630494738930908"><ele>511.33333333333337</ele><time>2026-04-18T12:01:50Z</time></trkpt><trkpt lat="48.182507052994744" lon="11.630249358455684"><ele>508.66666666666663</ele><time>2026-04-18T12:01:51Z</time></trkpt><trkpt lat="48.182609271692044" lon="11.63000971635588"><ele>506.0</ele><time>2026-04-18T12:01:52Z</time></trkpt><trkpt lat="48.18270824092701" lon="11.629772016503003"><ele>506.0</ele><time>2026-04-18T12:01:53Z</time></trkpt><trkpt lat="48.18280608346161" lon="11.629538778361455"><ele>506.0</ele><time>2026-04-18T12:01:54Z</time></trkpt><trkpt lat="48.182907945939824" lon="11.629319606600466"><ele>506.0</ele><time>2026-04-18T12:01:55Z</time></trkpt><trkpt lat="48.18301246837998" lon="11.629088547113627"><ele>504.3333333333333</ele><time>2026-04-18T12:01:56Z</time></trkpt><trkpt lat="48.1831121625858" lon="11.628850265657723"><ele>502.66666666666663</ele><time>2026-04-18T12:01:57Z</time></trkpt><trkpt lat="48.18321435030378" lon="11.628602896185416"><ele>501.0</ele><time>2026-04-18T12:01:58Z</time></trkpt><trkpt lat="48.18332008883636" lon="11.628353588815855"><ele>500.33333333333337</ele><time>2026-04-18T12:01:59Z</time></trkpt><trkpt lat="48.18342838906804" lon="11.628101409443085"><ele>499.6666666666667</ele><time>2026-04-18T12:02:00Z</time></trkpt><trkpt lat="48.18353764371318" lon="11.627848152916629"><ele>499.0</ele><time>2026-04-18T12:02:01Z</time></trkpt><trkpt lat="48.18364489076541" lon="11.62759457211902"><ele>499.0</ele><time>2026-04-18T12:02:02Z</time></trkpt><trkpt lat="48.18375410795593" lon="11.627339277102836"><ele>499.0</ele><time>2026-04-18T12:02:03Z</time></trkpt><trkpt lat="48.18386048467387" lon="11.627083023650936"><ele>499.0</ele><time>2026-04-18T12:02:04Z</time></trkpt><trkpt lat="48.18396538504007" lon="11.626832714284344"><ele>499.33333333333337</ele><time>2026-04-18T12:02:05Z</time></trkpt><trkpt lat="48.18406944390793" lon="11.626592612495537"><ele>499.66666666666663</ele><time>2026-04-18T12:02:06Z</time></trkpt><trkpt lat="48.184164140933376" lon="11.626370839293196"><ele>500.0</ele><time>2026-04-18T12:02:07Z</time></trkpt><trkpt lat="48.18425359655128" lon="11.626159295321516"><ele>500.66666666666663</ele><time>2026-04-18T12:02:08Z</time></trkpt><trkpt lat="48.18433598606527" lon="11.625953061676693"><ele>501.33333333333337</ele><time>2026-04-18T12:02:09Z</time></trkpt><trkpt lat="48.1844177729139" lon="11.625761871532987"><ele>502.0</ele><time>2026-04-18T12:02:10Z</time></trkpt><trkpt lat="48.18449860128962" lon="11.625575976702782"><ele>502.0</ele><time>2026-04-18T12:02:11Z</time></trkpt><trkpt lat="48.18457203086039" lon="11.625407116630099"><ele>502.0</ele><time>2026-04-18T12:02:12Z</time></trkpt><trkpt lat="48.18463081938939" lon="11.625269468098962"><ele>502.0</ele><time>2026-04-18T12:02:13Z</time></trkpt><trkpt lat="48.1846927397296" lon="11.625127057617334"><ele>502.0</ele><time>2026-04-18T12:02:14Z</time></trkpt><trkpt lat="48.18475247768829" lon="11.624981418810846"><ele>502.25</ele><time>2026-04-18T12:02:15Z</time></trkpt><trkpt lat="48.18481143117477" lon="11.62483862020561"><ele>502.5</ele><time>2026-04-18T12:02:16Z</time></trkpt><trkpt lat="48.1848713684092" lon="11.624700478476399"><ele>502.75</ele><time>2026-04-18T12:02:17Z</time></trkpt><trkpt lat="48.18493396773651" lon="11.624556700064453"><ele>503.0</ele><time>2026-04-18T12:02:18Z</time></trkpt><trkpt lat="48.18500354460316" lon="11.624396992198928"><ele>503.0</ele><time>2026-04-18T12:02:19Z</time></trkpt><trkpt lat="48.18507660782852" lon="11.624229419420146"><ele>503.0</ele><time>2026-04-18T12:02:20Z</time></trkpt><trkpt lat="48.18514882390679" lon="11.624065135771772"><ele>503.0</ele><time>2026-04-18T12:02:21Z</time></trkpt><trkpt lat="48.18521549386013" lon="11.62391495267691"><ele>503.0</ele><time>2026-04-18T12:02:22Z</time></trkpt><trkpt lat="48.18527996948156" lon="11.623767984299247"><ele>503.0</ele><time>2026-04-18T12:02:23Z</time></trkpt><trkpt lat="48.185341603515596" lon="11.623621398342706"><ele>503.0</ele><time>2026-04-18T12:02:24Z</time></trkpt><trkpt lat="48.185400154126704" lon="11.623473141418538"><ele>503.0</ele><time>2026-04-18T12:02:25Z</time></trkpt><trkpt lat="48.18546385091532" lon="11.6233217266875"><ele>503.0</ele><time>2026-04-18T12:02:26Z</time></trkpt><trkpt lat="48.18553386663984" lon="11.623159172161111"><ele>503.0</ele><time>2026-04-18T12:02:27Z</time></trkpt><trkpt lat="48.185606572111645" lon="11.622994286453082"><ele>503.0</ele><time>2026-04-18T12:02:28Z</time></trkpt><trkpt lat="48.18567819709694" lon="11.622823154190414"><ele>503.0</ele><time>2026-04-18T12:02:29Z</time></trkpt><trkpt lat="48.1857516418462" lon="11.622650348058563"><ele>503.0</ele><time>2026-04-18T12:02:30Z</time></trkpt><trkpt lat="48.18582539381479" lon="11.622479327811591"><ele>502.5</ele><time>2026-04-18T12:02:31Z</time></trkpt><trkpt lat="48.18589614457827" lon="11.62231484135236"><ele>502.0</ele><time>2026-04-18T12:02:32Z</time></trkpt><trkpt lat="48.18596714611893" lon="11.622138188054812"><ele>501.5</ele><time>2026-04-18T12:02:33Z</time></trkpt><trkpt lat="48.18603443716127" lon="11.621960152310729"><ele>501.0</ele><time>2026-04-18T12:02:34Z</time></trkpt><trkpt lat="48.186100426718035" lon="11.62178219524759"><ele>500.75</ele><time>2026-04-18T12:02:35Z</time></trkpt><trkpt lat="48.18616609879061" lon="11.621605116992791"><ele>500.5</ele><time>2026-04-18T12:02:36Z</time></trkpt><trkpt lat="48.186224395564786" lon="11.621423116832393"><ele>500.25</ele><time>2026-04-18T12:02:37Z</time></trkpt><trkpt lat="48.18628035064558" lon="11.621240604493925"><ele>500.0</ele><time>2026-04-18T12:02:38Z</time></trkpt><trkpt lat="48.18633445941442" lon="11.621058368204064"><ele>499.75</ele><time>2026-04-18T12:02:39Z</time></trkpt><trkpt lat="48.18638497706099" lon="11.620876758323252"><ele>499.5</ele><time>2026-04-18T12:02:40Z</time></trkpt><trkpt lat="48.186436161417355" lon="11.620682262401255"><ele>499.25</ele><time>2026-04-18T12:02:41Z</time></trkpt><trkpt lat="48.18648827015193" lon="11.62048268022128"><ele>499.0</ele><time>2026-04-18T12:02:42Z</time></trkpt><trkpt lat="48.186526781722215" lon="11.620283235990724"><ele>500.0</ele><time>2026-04-18T12:02:43Z</time></trkpt><trkpt lat="48.186567040613866" lon="11.620086365915581"><ele>501.0</ele><time>2026-04-18T12:02:44Z</time></trkpt><trkpt lat="48.18660100319645" lon="11.619889250056035"><ele>502.0</ele><time>2026-04-18T12:02:45Z</time></trkpt><trkpt lat="48.186628236186486" lon="11.619675851866633"><ele>503.0</ele><time>2026-04-18T12:02:46Z</time></trkpt><trkpt lat="48.18665150559736" lon="11.619454215528153"><ele>503.0</ele><time>2026-04-18T12:02:47Z</time></trkpt><trkpt lat="48.18667505641694" lon="11.619242456854582"><ele>503.0</ele><time>2026-04-18T12:02:48Z</time></trkpt><trkpt lat="48.18669076894686" lon="11.619035310037953"><ele>503.0</ele><time>2026-04-18T12:02:49Z</time></trkpt><trkpt lat="48.18671976201227" lon="11.618826579279158"><ele>503.0</ele><time>2026-04-18T12:02:50Z</time></trkpt><trkpt lat="48.18674011166575" lon="11.61861011221622"><ele>502.66666666666663</ele><time>2026-04-18T12:02:51Z</time></trkpt><trkpt lat="48.186757673432865" lon="11.618386222521561"><ele>502.33333333333337</ele><time>2026-04-18T12:02:52Z</time></trkpt><trkpt lat="48.18674275129599" lon="11.61815325705333"><ele>502.0</ele><time>2026-04-18T12:02:53Z</time></trkpt><trkpt lat="48.18673374332646" lon="11.617930267567477"><ele>501.33333333333337</ele><time>2026-04-18T12:02:54Z</time></trkpt><trkpt lat="48.18671625451685" lon="11.61770491174833"><ele>500.66666666666663</ele><time>2026-04-18T12:02:55Z</time></trkpt><trkpt lat="48.18669797631921" lon="11.617481595294851"><ele>500.0</ele><time>2026-04-18T12:02:56Z</time></trkpt><trkpt lat="48.18667996458961" lon="11.61726059169337"><ele>500.0</ele><time>2026-04-18T12:02:57Z</time></trkpt><trkpt lat="48.18666178434289" lon="11.617037520392385"><ele>500.0</ele><time>2026-04-18T12:02:58Z</time></trkpt><trkpt lat="48.18664368636186" lon="11.616812421981255"><ele>500.0</ele><time>2026-04-18T12:02:59Z</time></trkpt><trkpt lat="48.186625049009386" lon="11.61657821469353"><ele>501.0</ele><time>2026-04-18T12:03:00Z</time></trkpt><trkpt lat="48.18660618592658" lon="11.616341554333268"><ele>502.0</ele><time>2026-04-18T12:03:01Z</time></trkpt><trkpt lat="48.18658774798608" lon="11.616096652798007"><ele>503.0</ele><time>2026-04-18T12:03:02Z</time></trkpt><trkpt lat="48.18656879191734" lon="11.615843767482648"><ele>503.3333333333333</ele><time>2026-04-18T12:03:03Z</time></trkpt><trkpt lat="48.18655357102376" lon="11.615590906152487"><ele>503.66666666666663</ele><time>2026-04-18T12:03:04Z</time></trkpt><trkpt lat="48.18654241072524" lon="11.615336113947338"><ele>504.0</ele><time>2026-04-18T12:03:05Z</time></trkpt><trkpt lat="48.18653858186838" lon="11.615080442173086"><ele>504.33333333333337</ele><time>2026-04-18T12:03:06Z</time></trkpt><trkpt lat="48.18652650721446" lon="11.61482015062765"><ele>504.6666666666667</ele><time>2026-04-18T12:03:07Z</time></trkpt><trkpt lat="48.186551614815144" lon="11.61456675176033"><ele>505.0</ele><time>2026-04-18T12:03:08Z</time></trkpt><trkpt lat="48.18658713891618" lon="11.614325479475877"><ele>504.33333333333337</ele><time>2026-04-18T12:03:09Z</time></trkpt><trkpt lat="48.18662495152429" lon="11.614083652281574"><ele>503.66666666666663</ele><time>2026-04-18T12:03:10Z</time></trkpt><trkpt lat="48.186696477322386" lon="11.613856682437097"><ele>503.0</ele><time>2026-04-18T12:03:11Z</time></trkpt><trkpt lat="48.18675553765664" lon="11.613629842944782"><ele>503.0</ele><time>2026-04-18T12:03:12Z</time></trkpt><trkpt lat="48.1868156766413" lon="11.613421178917967"><ele>503.0</ele><time>2026-04-18T12:03:13Z</time></trkpt><trkpt lat="48.186862570551746" lon="11.613224083358539"><ele>503.0</ele><time>2026-04-18T12:03:14Z</time></trkpt><trkpt lat="48.186934701259844" lon="11.613046129351114"><ele>503.0</ele><time>2026-04-18T12:03:15Z</time></trkpt><trkpt lat="48.18701430018812" lon="11.612884911256517"><ele>503.0</ele><time>2026-04-18T12:03:16Z</time></trkpt><trkpt lat="48.1871029712807" lon="11.612739703758802"><ele>503.0</ele><time>2026-04-18T12:03:17Z</time></trkpt><trkpt lat="48.187200570971434" lon="11.612609175177566"><ele>503.0</ele><time>2026-04-18T12:03:18Z</time></trkpt><trkpt lat="48.18730723695391" lon="11.612501167742888"><ele>503.0</ele><time>2026-04-18T12:03:19Z</time></trkpt><trkpt lat="48.18743564613037" lon="11.612433601228801"><ele>502.25</ele><time>2026-04-18T12:03:20Z</time></trkpt><trkpt lat="48.1875761995512" lon="11.612408942619334"><ele>501.5</ele><time>2026-04-18T12:03:21Z</time></trkpt><trkpt lat="48.18772255591426" lon="11.612425364196959"><ele>500.75</ele><time>2026-04-18T12:03:22Z</time></trkpt><trkpt lat="48.18786550760118" lon="11.612481107982642"><ele>500.0</ele><time>2026-04-18T12:03:23Z</time></trkpt><trkpt lat="48.18800682354279" lon="11.612571859654407"><ele>500.0</ele><time>2026-04-18T12:03:24Z</time></trkpt><trkpt lat="48.18815902669767" lon="11.612637181535517"><ele>500.0</ele><time>2026-04-18T12:03:25Z</time></trkpt><trkpt lat="48.188296103898764" lon="11.612792035970802"><ele>500.0</ele><time>2026-04-18T12:03:26Z</time></trkpt><trkpt lat="48.188430951339974" lon="11.612907715627683"><ele>499.66666666666663</ele><time>2026-04-18T12:03:27Z</time></trkpt><trkpt lat="48.188574661826735" lon="11.612999882228198"><ele>499.33333333333337</ele><time>2026-04-18T12:03:28Z</time></trkpt><trkpt lat="48.188717694104255" lon="11.61310525999809"><ele>499.0</ele><time>2026-04-18T12:03:29Z</time></trkpt><trkpt lat="48.18886055787035" lon="11.613208367753673"><ele>499.0</ele><time>2026-04-18T12:03:30Z</time></trkpt><trkpt lat="48.18900994764731" lon="11.613312437269814"><ele>499.0</ele><time>2026-04-18T12:03:31Z</time></trkpt><trkpt lat="48.18916562594886" lon="11.613413311952"><ele>499.0</ele><time>2026-04-18T12:03:32Z</time></trkpt><trkpt lat="48.18932643655684" lon="11.613521566435075"><ele>499.0</ele><time>2026-04-18T12:03:33Z</time></trkpt><trkpt lat="48.1894860262504" lon="11.613651456506886"><ele>499.0</ele><time>2026-04-18T12:03:34Z</time></trkpt><trkpt lat="48.18966509495341" lon="11.613756288407448"><ele>499.0</ele><time>2026-04-18T12:03:35Z</time></trkpt><trkpt lat="48.18983691375278" lon="11.613850682607838"><ele>499.6666666666667</ele><time>2026-04-18T12:03:36Z</time></trkpt><trkpt lat="48.19001916731608" lon="11.613943288114175"><ele>500.33333333333337</ele><time>2026-04-18T12:03:37Z</time></trkpt><trkpt lat="48.19019735502253" lon="11.614039332691899"><ele>501.0</ele><time>2026-04-18T12:03:38Z</time></trkpt><trkpt lat="48.190381439688835" lon="11.614139777964013"><ele>501.0</ele><time>2026-04-18T12:03:39Z</time></trkpt><trkpt lat="48.190564823460036" lon="11.614239180258734"><ele>501.0</ele><time>2026-04-18T12:03:40Z</time></trkpt><trkpt lat="48.19074371813395" lon="11.614332032233024"><ele>501.0</ele><time>2026-04-18T12:03:41Z</time></trkpt><trkpt lat="48.19092844555458" lon="11.61442433601751"><ele>500.33333333333337</ele><time>2026-04-18T12:03:42Z</time></trkpt><trkpt lat="48.191118711860994" lon="11.614514920550096"><ele>499.6666666666667</ele><time>2026-04-18T12:03:43Z</time></trkpt><trkpt lat="48.19130790776559" lon="11.61461030303812"><ele>499.0</ele><time>2026-04-18T12:03:44Z</time></trkpt><trkpt lat="48.19150219866416" lon="11.614707440654238"><ele>498.6666666666667</ele><time>2026-04-18T12:03:45Z</time></trkpt><trkpt lat="48.19169548617693" lon="11.614800441626514"><ele>498.33333333333337</ele><time>2026-04-18T12:03:46Z</time></trkpt><trkpt lat="48.191890524386366" lon="11.614895037869651"><ele>498.0</ele><time>2026-04-18T12:03:47Z</time></trkpt><trkpt lat="48.19208526007741" lon="11.614994050703492"><ele>498.0</ele><time>2026-04-18T12:03:48Z</time></trkpt><trkpt lat="48.19227957231159" lon="11.615091526354265"><ele>498.0</ele><time>2026-04-18T12:03:49Z</time></trkpt><trkpt lat="48.19247083669433" lon="11.61518529500326"><ele>498.0</ele><time>2026-04-18T12:03:50Z</time></trkpt><trkpt lat="48.1926631259324" lon="11.61528016819957"><ele>498.0</ele><time>2026-04-18T12:03:51Z</time></trkpt><trkpt lat="48.19286291271602" lon="11.615370963253113"><ele>498.0</ele><time>2026-04-18T12:03:52Z</time></trkpt><trkpt lat="48.193061464324686" lon="11.615464582531661"><ele>498.0</ele><time>2026-04-18T12:03:53Z</time></trkpt><trkpt lat="48.193257693968164" lon="11.615558536106661"><ele>498.0</ele><time>2026-04-18T12:03:54Z</time></trkpt><trkpt lat="48.1934527172552" lon="11.615656567826315"><ele>498.0</ele><time>2026-04-18T12:03:55Z</time></trkpt><trkpt lat="48.19365064155405" lon="11.615749356764356"><ele>498.0</ele><time>2026-04-18T12:03:56Z</time></trkpt><trkpt lat="48.19384126248703" lon="11.61585427310312"><ele>498.33333333333337</ele><time>2026-04-18T12:03:57Z</time></trkpt><trkpt lat="48.19403284475847" lon="11.615959608984726"><ele>498.6666666666667</ele><time>2026-04-18T12:03:58Z</time></trkpt><trkpt lat="48.194259264525996" lon="11.615966110601878"><ele>499.0</ele><time>2026-04-18T12:03:59Z</time></trkpt><trkpt lat="48.19445861473997" lon="11.616059241185972"><ele>499.0</ele><time>2026-04-18T12:04:00Z</time></trkpt><trkpt lat="48.19464914285329" lon="11.616152182931774"><ele>499.0</ele><time>2026-04-18T12:04:01Z</time></trkpt><trkpt lat="48.19483990868845" lon="11.616243810428738"><ele>499.0</ele><time>2026-04-18T12:04:02Z</time></trkpt><trkpt lat="48.195036412206456" lon="11.616329935901287"><ele>499.0</ele><time>2026-04-18T12:04:03Z</time></trkpt><trkpt lat="48.19522718674486" lon="11.616423797527268"><ele>499.0</ele><time>2026-04-18T12:04:04Z</time></trkpt><trkpt lat="48.19542114511556" lon="11.616513091040975"><ele>499.0</ele><time>2026-04-18T12:04:05Z</time></trkpt><trkpt lat="48.19560662832352" lon="11.616605740662825"><ele>499.33333333333337</ele><time>2026-04-18T12:04:06Z</time></trkpt><trkpt lat="48.195776708275766" lon="11.616697234811602"><ele>499.66666666666663</ele><time>2026-04-18T12:04:07Z</time></trkpt><trkpt lat="48.19593358089218" lon="11.616774978005003"><ele>500.0</ele><time>2026-04-18T12:04:08Z</time></trkpt><trkpt lat="48.19608274163865" lon="11.616843762737739"><ele>500.0</ele><time>2026-04-18T12:04:09Z</time></trkpt><trkpt lat="48.19622117196363" lon="11.616903487006901"><ele>500.0</ele><time>2026-04-18T12:04:10Z</time></trkpt><trkpt lat="48.196353594306046" lon="11.616970682074502"><ele>500.0</ele><time>2026-04-18T12:04:11Z</time></trkpt><trkpt lat="48.196488653021525" lon="11.617024875643002"><ele>500.0</ele><time>2026-04-18T12:04:12Z</time></trkpt><trkpt lat="48.19661056968562" lon="11.61711060189749"><ele>500.25</ele><time>2026-04-18T12:04:13Z</time></trkpt><trkpt lat="48.19671979882285" lon="11.617226517410975"><ele>500.5</ele><time>2026-04-18T12:04:14Z</time></trkpt><trkpt lat="48.19681230684566" lon="11.617372714799384"><ele>500.75</ele><time>2026-04-18T12:04:15Z</time></trkpt><trkpt lat="48.19691659438649" lon="11.617407162080275"><ele>501.0</ele><time>2026-04-18T12:04:16Z</time></trkpt><trkpt lat="48.196737419355124" lon="11.617733700881102"><ele>499.0</ele><time>2026-04-18T12:04:17Z</time></trkpt><trkpt lat="48.19676762565646" lon="11.617967479382234"><ele>497.0</ele><time>2026-04-18T12:04:18Z</time></trkpt><trkpt lat="48.19676483043497" lon="11.618201487111849"><ele>495.0</ele><time>2026-04-18T12:04:19Z</time></trkpt><trkpt lat="48.19683009240731" lon="11.618494435833219"><ele>494.5</ele><time>2026-04-18T12:04:20Z</time></trkpt><trkpt lat="48.1968773351218" lon="11.618756200570239"><ele>494.0</ele><time>2026-04-18T12:04:21Z</time></trkpt><trkpt lat="48.19693129797669" lon="11.618911315455984"><ele>493.5</ele><time>2026-04-18T12:04:22Z</time></trkpt><trkpt lat="48.19699102149184" lon="11.619066513764729"><ele>493.0</ele><time>2026-04-18T12:04:23Z</time></trkpt><trkpt lat="48.19704306592391" lon="11.619194271730724"><ele>493.00000000000006</ele><time>2026-04-18T12:04:24Z</time></trkpt><trkpt lat="48.19709301245264" lon="11.619312767667703"><ele>493.0</ele><time>2026-04-18T12:04:25Z</time></trkpt><trkpt lat="48.197136599669996" lon="11.61941304021371"><ele>493.0</ele><time>2026-04-18T12:04:26Z</time></trkpt><trkpt lat="48.19718813864481" lon="11.619526053400389"><ele>493.0</ele><time>2026-04-18T12:04:27Z</time></trkpt><trkpt lat="48.19722963107145" lon="11.619613841203192"><ele>493.00000000000006</ele><time>2026-04-18T12:04:28Z</time></trkpt><trkpt lat="48.197281986505224" lon="11.619719387368423"><ele>493.0</ele><time>2026-04-18T12:04:29Z</time></trkpt><trkpt lat="48.19734438152288" lon="11.61983326279355"><ele>493.5</ele><time>2026-04-18T12:04:31Z</time></trkpt><trkpt lat="48.197475074862474" lon="11.620037903862283"><ele>494.0</ele><time>2026-04-18T12:05:46Z</time></trkpt><trkpt lat="48.197540880029166" lon="11.62003803615468"><ele>494.5</ele><time>2026-04-18T12:05:47Z</time></trkpt><trkpt lat="48.1975981461618" lon="11.619964389550768"><ele>495.0</ele><time>2026-04-18T12:05:48Z</time></trkpt><trkpt lat="48.197697692617105" lon="11.619829958075597"><ele>495.0</ele><time>2026-04-18T12:05:49Z</time></trkpt><trkpt lat="48.197770847142614" lon="11.61970550236677"><ele>495.0</ele><time>2026-04-18T12:05:50Z</time></trkpt><trkpt lat="48.19785983153002" lon="11.619563802488795"><ele>495.0</ele><time>2026-04-18T12:05:51Z</time></trkpt><trkpt lat="48.197960154810154" lon="11.619400205523009"><ele>495.0</ele><time>2026-04-18T12:05:52Z</time></trkpt><trkpt lat="48.19806387207374" lon="11.619227108867232"><ele>495.0</ele><time>2026-04-18T12:05:53Z</time></trkpt><trkpt lat="48.198158233565685" lon="11.619035449097217"><ele>495.0</ele><time>2026-04-18T12:05:54Z</time></trkpt><trkpt lat="48.198245644828965" lon="11.618818358570584"><ele>495.0</ele><time>2026-04-18T12:05:55Z</time></trkpt><trkpt lat="48.198322818902746" lon="11.618590246731832"><ele>495.0</ele><time>2026-04-18T12:05:56Z</time></trkpt><trkpt lat="48.19838956299655" lon="11.61836201634648"><ele>495.0</ele><time>2026-04-18T12:05:57Z</time></trkpt><trkpt lat="48.19842576537936" lon="11.618127759241954"><ele>495.0</ele><time>2026-04-18T12:05:58Z</time></trkpt><trkpt lat="48.19846894159272" lon="11.617907052258236"><ele>494.25</ele><time>2026-04-18T12:05:59Z</time></trkpt><trkpt lat="48.198516824847744" lon="11.617681721229314"><ele>493.5</ele><time>2026-04-18T12:06:00Z</time></trkpt><trkpt lat="48.1985068042062" lon="11.617478239595586"><ele>492.75</ele><time>2026-04-18T12:06:01Z</time></trkpt><trkpt lat="48.198547881727826" lon="11.617295271721597"><ele>492.0</ele><time>2026-04-18T12:06:02Z</time></trkpt><trkpt lat="48.198579431403076" lon="11.617154742869566"><ele>492.0</ele><time>2026-04-18T12:06:03Z</time></trkpt><trkpt lat="48.1986114508756" lon="11.61701250419418"><ele>492.00000000000006</ele><time>2026-04-18T12:06:04Z</time></trkpt><trkpt lat="48.19864237262663" lon="11.61687533944144"><ele>492.00000000000006</ele><time>2026-04-18T12:06:05Z</time></trkpt><trkpt lat="48.19867813515689" lon="11.616744400553323"><ele>492.0</ele><time>2026-04-18T12:06:06Z</time></trkpt><trkpt lat="48.198704355463725" lon="11.616623914091779"><ele>492.0</ele><time>2026-04-18T12:06:07Z</time></trkpt><trkpt lat="48.198731701404945" lon="11.616519678471729"><ele>492.3333333333333</ele><time>2026-04-18T12:06:08Z</time></trkpt><trkpt lat="48.19875486211436" lon="11.616407521752441"><ele>492.66666666666663</ele><time>2026-04-18T12:06:09Z</time></trkpt><trkpt lat="48.19876386157464" lon="11.616310147874898"><ele>493.0</ele><time>2026-04-18T12:06:10Z</time></trkpt><trkpt lat="48.198789909786086" lon="11.616208479956999"><ele>493.3333333333333</ele><time>2026-04-18T12:06:11Z</time></trkpt><trkpt lat="48.198814516032726" lon="11.6160985824417"><ele>493.66666666666663</ele><time>2026-04-18T12:06:12Z</time></trkpt><trkpt lat="48.19885373304227" lon="11.615993421666282"><ele>494.0</ele><time>2026-04-18T12:06:13Z</time></trkpt><trkpt lat="48.198888941136936" lon="11.615873580336686"><ele>494.79999999999995</ele><time>2026-04-18T12:06:14Z</time></trkpt><trkpt lat="48.19892819367238" lon="11.61573723005258"><ele>495.59999999999997</ele><time>2026-04-18T12:06:15Z</time></trkpt><trkpt lat="48.19896860622333" lon="11.615596342538787"><ele>496.4</ele><time>2026-04-18T12:06:16Z</time></trkpt><trkpt lat="48.19899361005485" lon="11.615433426106936"><ele>497.2</ele><time>2026-04-18T12:06:17Z</time></trkpt><trkpt lat="48.19903216327245" lon="11.615272808134998"><ele>498.0</ele><time>2026-04-18T12:06:18Z</time></trkpt><trkpt lat="48.199076183092714" lon="11.615124016027988"><ele>498.0</ele><time>2026-04-18T12:06:19Z</time></trkpt><trkpt lat="48.19911837814606" lon="11.61497500484931"><ele>498.0</ele><time>2026-04-18T12:06:20Z</time></trkpt><trkpt lat="48.19916355866288" lon="11.614794969603185"><ele>498.0</ele><time>2026-04-18T12:06:21Z</time></trkpt><trkpt lat="48.19919928412519" lon="11.614598289670456"><ele>498.0</ele><time>2026-04-18T12:06:22Z</time></trkpt><trkpt lat="48.19923212335718" lon="11.614436801848454"><ele>497.8333333333333</ele><time>2026-04-18T12:06:23Z</time></trkpt><trkpt lat="48.199255880617834" lon="11.614312317564279"><ele>497.66666666666663</ele><time>2026-04-18T12:06:24Z</time></trkpt><trkpt lat="48.19927559064025" lon="11.614200559285045"><ele>497.5</ele><time>2026-04-18T12:06:25Z</time></trkpt><trkpt lat="48.19930228770859" lon="11.614079431730493"><ele>497.3333333333333</ele><time>2026-04-18T12:06:26Z</time></trkpt><trkpt lat="48.199321770742536" lon="11.61396851752717"><ele>497.16666666666663</ele><time>2026-04-18T12:06:27Z</time></trkpt><trkpt lat="48.199344516962135" lon="11.613846289148183"><ele>497.0</ele><time>2026-04-18T12:06:28Z</time></trkpt><trkpt lat="48.19936338634892" lon="11.61371948518608"><ele>497.2857142857143</ele><time>2026-04-18T12:06:29Z</time></trkpt><trkpt lat="48.19937948801726" lon="11.613609838361937"><ele>497.57142857142856</ele><time>2026-04-18T12:06:30Z</time></trkpt><trkpt lat="48.19939537179813" lon="11.613512968590518"><ele>497.8571428571429</ele><time>2026-04-18T12:06:31Z</time></trkpt><trkpt lat="48.1994177906277" lon="11.613420828478088"><ele>498.14285714285717</ele><time>2026-04-18T12:06:32Z</time></trkpt><trkpt lat="48.19943301676383" lon="11.61329601284514"><ele>498.42857142857144</ele><time>2026-04-18T12:06:34Z</time></trkpt><trkpt lat="48.19945495968051" lon="11.613195672437282"><ele>498.7142857142858</ele><time>2026-04-18T12:06:36Z</time></trkpt><trkpt lat="48.19947955781267" lon="11.613072262491515"><ele>499.00000000000006</ele><time>2026-04-18T12:06:41Z</time></trkpt><trkpt lat="48.19949720013363" lon="11.612928144767558"><ele>499.00000000000006</ele><time>2026-04-18T12:06:44Z</time></trkpt><trkpt lat="48.19951418430964" lon="11.612831041931297"><ele>499.0</ele><time>2026-04-18T12:06:46Z</time></trkpt><trkpt lat="48.19953357701943" lon="11.612716764747905"><ele>499.0</ele><time>2026-04-18T12:06:48Z</time></trkpt><trkpt lat="48.19955402175683" lon="11.612592631398616"><ele>499.0</ele><time>2026-04-18T12:06:50Z</time></trkpt><trkpt lat="48.19958458648785" lon="11.612418454330353"><ele>499.00000000000006</ele><time>2026-04-18T12:06:52Z</time></trkpt><trkpt lat="48.199602985012945" lon="11.61230313147038"><ele>499.0</ele><time>2026-04-18T12:06:53Z</time></trkpt><trkpt lat="48.19963035901137" lon="11.612145732982874"><ele>499.0</ele><time>2026-04-18T12:06:54Z</time></trkpt><trkpt lat="48.19966245641422" lon="11.611976052268348"><ele>499.0</ele><time>2026-04-18T12:06:55Z</time></trkpt><trkpt lat="48.19968803773934" lon="11.611812034158959"><ele>499.0</ele><time>2026-04-18T12:06:56Z</time></trkpt><trkpt lat="48.19971392871746" lon="11.61166770391761"><ele>499.0</ele><time>2026-04-18T12:06:57Z</time></trkpt><trkpt lat="48.199754480036255" lon="11.611532206047404"><ele>499.0</ele><time>2026-04-18T12:06:58Z</time></trkpt><trkpt lat="48.19977280057519" lon="11.611372120088195"><ele>499.0</ele><time>2026-04-18T12:06:59Z</time></trkpt><trkpt lat="48.19981036196183" lon="11.611192763075442"><ele>499.0</ele><time>2026-04-18T12:07:00Z</time></trkpt><trkpt lat="48.1998514507675" lon="11.610962776514546"><ele>499.0</ele><time>2026-04-18T12:07:01Z</time></trkpt><trkpt lat="48.19988706008437" lon="11.610710730036308"><ele>499.0</ele><time>2026-04-18T12:07:02Z</time></trkpt><trkpt lat="48.19992385271608" lon="11.61045455173352"><ele>499.0</ele><time>2026-04-18T12:07:03Z</time></trkpt><trkpt lat="48.199967815617306" lon="11.61019060486742"><ele>499.0</ele><time>2026-04-18T12:07:04Z</time></trkpt><trkpt lat="48.200014407825364" lon="11.60993725982622"><ele>499.0</ele><time>2026-04-18T12:07:05Z</time></trkpt><trkpt lat="48.20005752035548" lon="11.609680869510925"><ele>499.0</ele><time>2026-04-18T12:07:06Z</time></trkpt><trkpt lat="48.200099352068236" lon="11.609419565947231"><ele>499.0</ele><time>2026-04-18T12:07:07Z</time></trkpt><trkpt lat="48.200140231614455" lon="11.609159390062002"><ele>497.6666666666667</ele><time>2026-04-18T12:07:08Z</time></trkpt><trkpt lat="48.200171870160624" lon="11.60889239852132"><ele>496.33333333333337</ele><time>2026-04-18T12:07:09Z</time></trkpt><trkpt lat="48.20020512118849" lon="11.608628553546508"><ele>495.0</ele><time>2026-04-18T12:07:10Z</time></trkpt><trkpt lat="48.20025572973708" lon="11.608381578174363"><ele>495.0</ele><time>2026-04-18T12:07:11Z</time></trkpt><trkpt lat="48.20028966834037" lon="11.608129305309"><ele>495.0</ele><time>2026-04-18T12:07:12Z</time></trkpt><trkpt lat="48.20032186204868" lon="11.607881773524904"><ele>495.0</ele><time>2026-04-18T12:07:13Z</time></trkpt><trkpt lat="48.200351691506754" lon="11.607636055081901"><ele>495.25</ele><time>2026-04-18T12:07:14Z</time></trkpt><trkpt lat="48.20037697372213" lon="11.607423728956382"><ele>495.5</ele><time>2026-04-18T12:07:15Z</time></trkpt><trkpt lat="48.20040115113022" lon="11.607223980606435"><ele>495.75</ele><time>2026-04-18T12:07:16Z</time></trkpt><trkpt lat="48.20042822455933" lon="11.607039046836961"><ele>496.0</ele><time>2026-04-18T12:07:17Z</time></trkpt><trkpt lat="48.20045208381143" lon="11.606873498296054"><ele>496.00000000000006</ele><time>2026-04-18T12:07:18Z</time></trkpt><trkpt lat="48.20045618652502" lon="11.606717850706705"><ele>496.0</ele><time>2026-04-18T12:07:19Z</time></trkpt><trkpt lat="48.200489486502946" lon="11.606587731448153"><ele>496.0</ele><time>2026-04-18T12:07:20Z</time></trkpt><trkpt lat="48.20048844838224" lon="11.606476297349372"><ele>496.0</ele><time>2026-04-18T12:07:21Z</time></trkpt><trkpt lat="48.20050455549226" lon="11.606361653131973"><ele>496.00000000000006</ele><time>2026-04-18T12:07:22Z</time></trkpt><trkpt lat="48.200517169164684" lon="11.60624808714783"><ele>496.0</ele><time>2026-04-18T12:07:23Z</time></trkpt><trkpt lat="48.20053217249634" lon="11.606141337140436"><ele>496.33333333333337</ele><time>2026-04-18T12:07:25Z</time></trkpt><trkpt lat="48.20057551711543" lon="11.605890039689541"><ele>496.66666666666663</ele><time>2026-04-18T12:08:17Z</time></trkpt><trkpt lat="48.2005943505524" lon="11.605732825432643"><ele>497.0</ele><time>2026-04-18T12:08:19Z</time></trkpt><trkpt lat="48.20037664337337" lon="11.605645173488057"><ele>497.0</ele><time>2026-04-18T12:08:20Z</time></trkpt><trkpt lat="48.20025762683995" lon="11.605598342636158"><ele>497.0</ele><time>2026-04-18T12:08:21Z</time></trkpt><trkpt lat="48.20013541494069" lon="11.605547663135058"><ele>497.0</ele><time>2026-04-18T12:08:22Z</time></trkpt><trkpt lat="48.20002397392135" lon="11.60548734342115"><ele>497.0</ele><time>2026-04-18T12:08:23Z</time></trkpt><trkpt lat="48.19992086707063" lon="11.605453463041792"><ele>497.20000000000005</ele><time>2026-04-18T12:08:24Z</time></trkpt><trkpt lat="48.199821166491574" lon="11.605384093578264"><ele>497.40000000000003</ele><time>2026-04-18T12:08:25Z</time></trkpt><trkpt lat="48.19971911945219" lon="11.605369737775614"><ele>497.59999999999997</ele><time>2026-04-18T12:08:26Z</time></trkpt><trkpt lat="48.199621014548875" lon="11.605334602593565"><ele>497.79999999999995</ele><time>2026-04-18T12:08:27Z</time></trkpt><trkpt lat="48.199523905605396" lon="11.605302347473229"><ele>498.0</ele><time>2026-04-18T12:08:28Z</time></trkpt><trkpt lat="48.199431696266224" lon="11.60527171978359"><ele>498.0</ele><time>2026-04-18T12:08:29Z</time></trkpt><trkpt lat="48.19935707367995" lon="11.60520745808376"><ele>497.99999999999994</ele><time>2026-04-18T12:08:30Z</time></trkpt><trkpt lat="48.199243211963065" lon="11.605167743544813"><ele>497.99999999999994</ele><time>2026-04-18T12:08:32Z</time></trkpt><trkpt lat="48.199166896730205" lon="11.605176954804834"><ele>498.0</ele><time>2026-04-18T12:08:34Z</time></trkpt><trkpt lat="48.19906702258868" lon="11.605139081213729"><ele>498.0</ele><time>2026-04-18T12:08:53Z</time></trkpt><trkpt lat="48.19899542985213" lon="11.605104495731183"><ele>498.0</ele><time>2026-04-18T12:08:54Z</time></trkpt><trkpt lat="48.19891627808819" lon="11.60505737560746"><ele>497.99999999999994</ele><time>2026-04-18T12:08:55Z</time></trkpt><trkpt lat="48.198825768605005" lon="11.604987245602507"><ele>497.99999999999994</ele><time>2026-04-18T12:08:56Z</time></trkpt><trkpt lat="48.19871139063925" lon="11.60492964013467"><ele>498.0</ele><time>2026-04-18T12:08:57Z</time></trkpt><trkpt lat="48.19858699255071" lon="11.604869613597659"><ele>498.0</ele><time>2026-04-18T12:08:58Z</time></trkpt><trkpt lat="48.1984520559895" lon="11.604806000691049"><ele>498.0</ele><time>2026-04-18T12:08:59Z</time></trkpt><trkpt lat="48.19831546718663" lon="11.604732072603944"><ele>498.0</ele><time>2026-04-18T12:09:00Z</time></trkpt><trkpt lat="48.19817560585903" lon="11.604660133311885"><ele>498.0</ele><time>2026-04-18T12:09:01Z</time></trkpt><trkpt lat="48.19803786410017" lon="11.60458897176831"><ele>498.0</ele><time>2026-04-18T12:09:02Z</time></trkpt><trkpt lat="48.197903340548955" lon="11.604523040926164"><ele>497.75</ele><time>2026-04-18T12:09:03Z</time></trkpt><trkpt lat="48.197770164520165" lon="11.604455904686452"><ele>497.5</ele><time>2026-04-18T12:09:04Z</time></trkpt><trkpt lat="48.19763708008294" lon="11.604386631022193"><ele>497.25</ele><time>2026-04-18T12:09:05Z</time></trkpt><trkpt lat="48.19750425001114" lon="11.60431948561611"><ele>497.0</ele><time>2026-04-18T12:09:06Z</time></trkpt><trkpt lat="48.1973719636952" lon="11.604253527417477"><ele>497.75</ele><time>2026-04-18T12:09:07Z</time></trkpt><trkpt lat="48.197240313908104" lon="11.604191510220184"><ele>498.5</ele><time>2026-04-18T12:09:08Z</time></trkpt><trkpt lat="48.19711001733857" lon="11.604128035065273"><ele>499.25</ele><time>2026-04-18T12:09:09Z</time></trkpt><trkpt lat="48.196979248066576" lon="11.604067386977206"><ele>500.0</ele><time>2026-04-18T12:09:10Z</time></trkpt><trkpt lat="48.19684683473405" lon="11.604011247753382"><ele>500.0</ele><time>2026-04-18T12:09:11Z</time></trkpt><trkpt lat="48.196716236318274" lon="11.60395634865137"><ele>500.0</ele><time>2026-04-18T12:09:12Z</time></trkpt><trkpt lat="48.1965840166157" lon="11.603893331098323"><ele>500.0</ele><time>2026-04-18T12:09:13Z</time></trkpt><trkpt lat="48.19645585446319" lon="11.603815295875673"><ele>500.0</ele><time>2026-04-18T12:09:14Z</time></trkpt><trkpt lat="48.19632946897324" lon="11.603737974789233"><ele>499.75</ele><time>2026-04-18T12:09:15Z</time></trkpt><trkpt lat="48.19620014623351" lon="11.603666483313651"><ele>499.5</ele><time>2026-04-18T12:09:16Z</time></trkpt><trkpt lat="48.19606916017541" lon="11.60360304670236"><ele>499.25</ele><time>2026-04-18T12:09:17Z</time></trkpt><trkpt lat="48.195939893249054" lon="11.603536586516368"><ele>499.0</ele><time>2026-04-18T12:09:18Z</time></trkpt><trkpt lat="48.195808803200904" lon="11.603471535753519"><ele>499.0</ele><time>2026-04-18T12:09:19Z</time></trkpt><trkpt lat="48.19567595909526" lon="11.60340984049492"><ele>499.0</ele><time>2026-04-18T12:09:20Z</time></trkpt><trkpt lat="48.195543855205" lon="11.603345822866347"><ele>499.0</ele><time>2026-04-18T12:09:21Z</time></trkpt><trkpt lat="48.1954140554201" lon="11.603280436771776"><ele>499.0</ele><time>2026-04-18T12:09:22Z</time></trkpt><trkpt lat="48.195283791580415" lon="11.603213250498767"><ele>499.0</ele><time>2026-04-18T12:09:23Z</time></trkpt><trkpt lat="48.195153782453914" lon="11.603148447190874"><ele>499.0</ele><time>2026-04-18T12:09:24Z</time></trkpt><trkpt lat="48.19502961739932" lon="11.603086381605895"><ele>499.0</ele><time>2026-04-18T12:09:25Z</time></trkpt><trkpt lat="48.19491147274397" lon="11.603026067405747"><ele>499.0</ele><time>2026-04-18T12:09:26Z</time></trkpt><trkpt lat="48.19479846639097" lon="11.602969543891211"><ele>499.00000000000006</ele><time>2026-04-18T12:09:27Z</time></trkpt><trkpt lat="48.19468902623696" lon="11.602917458740315"><ele>499.0</ele><time>2026-04-18T12:09:28Z</time></trkpt><trkpt lat="48.19460509207227" lon="11.602876836445137"><ele>499.0</ele><time>2026-04-18T12:09:29Z</time></trkpt><trkpt lat="48.194531862783045" lon="11.602835606441204"><ele>499.0</ele><time>2026-04-18T12:09:30Z</time></trkpt><trkpt lat="48.194465394020796" lon="11.602801876508979"><ele>499.00000000000006</ele><time>2026-04-18T12:09:31Z</time></trkpt><trkpt lat="48.19440066685643" lon="11.602770929373015"><ele>499.0</ele><time>2026-04-18T12:09:32Z</time></trkpt><trkpt lat="48.194323174879194" lon="11.602731147409907"><ele>499.0</ele><time>2026-04-18T12:09:33Z</time></trkpt><trkpt lat="48.19423322518124" lon="11.60268529551011"><ele>499.0</ele><time>2026-04-18T12:09:34Z</time></trkpt><trkpt lat="48.19414539727045" lon="11.60264258791167"><ele>499.0</ele><time>2026-04-18T12:09:35Z</time></trkpt><trkpt lat="48.19405785571268" lon="11.602597979158373"><ele>499.0</ele><time>2026-04-18T12:09:36Z</time></trkpt><trkpt lat="48.193964907229216" lon="11.602551314558163"><ele>499.0</ele><time>2026-04-18T12:09:37Z</time></trkpt><trkpt lat="48.19386935497054" lon="11.602508746495719"><ele>499.25</ele><time>2026-04-18T12:09:38Z</time></trkpt><trkpt lat="48.1937581985281" lon="11.60245442334213"><ele>499.5</ele><time>2026-04-18T12:09:39Z</time></trkpt><trkpt lat="48.193628918340764" lon="11.602377586434553"><ele>499.75</ele><time>2026-04-18T12:09:40Z</time></trkpt><trkpt lat="48.193503002381746" lon="11.60227813599226"><ele>500.0</ele><time>2026-04-18T12:09:41Z</time></trkpt><trkpt lat="48.1933968082397" lon="11.602151629063352"><ele>500.0</ele><time>2026-04-18T12:09:42Z</time></trkpt><trkpt lat="48.193303470580176" lon="11.602000289358438"><ele>500.0</ele><time>2026-04-18T12:09:43Z</time></trkpt><trkpt lat="48.19321559732331" lon="11.601819306547322"><ele>500.0</ele><time>2026-04-18T12:09:44Z</time></trkpt><trkpt lat="48.19314818934979" lon="11.601631554959276"><ele>500.0</ele><time>2026-04-18T12:09:45Z</time></trkpt><trkpt lat="48.19308933808902" lon="11.601458075952204"><ele>500.0</ele><time>2026-04-18T12:09:46Z</time></trkpt><trkpt lat="48.19303130337068" lon="11.601298017854086"><ele>500.0</ele><time>2026-04-18T12:09:47Z</time></trkpt><trkpt lat="48.1929724888216" lon="11.601141549055669"><ele>500.0</ele><time>2026-04-18T12:09:48Z</time></trkpt><trkpt lat="48.19290957588135" lon="11.600975805414304"><ele>500.0</ele><time>2026-04-18T12:09:49Z</time></trkpt><trkpt lat="48.19286484726392" lon="11.600799334875243"><ele>500.0</ele><time>2026-04-18T12:09:50Z</time></trkpt><trkpt lat="48.192855215549315" lon="11.600605669929012"><ele>500.0</ele><time>2026-04-18T12:09:51Z</time></trkpt><trkpt lat="48.19285053624404" lon="11.60040799589697"><ele>500.0</ele><time>2026-04-18T12:09:52Z</time></trkpt><trkpt lat="48.192834399870925" lon="11.600206895499612"><ele>500.0</ele><time>2026-04-18T12:09:53Z</time></trkpt><trkpt lat="48.1928358378203" lon="11.600006685658439"><ele>500.25</ele><time>2026-04-18T12:09:54Z</time></trkpt><trkpt lat="48.192836329647115" lon="11.599805856946668"><ele>500.5</ele><time>2026-04-18T12:09:55Z</time></trkpt><trkpt lat="48.1928372032709" lon="11.599603763755763"><ele>500.75</ele><time>2026-04-18T12:09:56Z</time></trkpt><trkpt lat="48.19283792957604" lon="11.599397504810794"><ele>501.0</ele><time>2026-04-18T12:09:57Z</time></trkpt><trkpt lat="48.19284557438728" lon="11.599187395266823"><ele>500.75</ele><time>2026-04-18T12:09:58Z</time></trkpt><trkpt lat="48.19284300145933" lon="11.598974177714217"><ele>500.5</ele><time>2026-04-18T12:09:59Z</time></trkpt><trkpt lat="48.19284358146167" lon="11.598756728842059"><ele>500.25</ele><time>2026-04-18T12:10:00Z</time></trkpt><trkpt lat="48.192843796056344" lon="11.598541770416581"><ele>500.0</ele><time>2026-04-18T12:10:01Z</time></trkpt><trkpt lat="48.19284290709624" lon="11.598326315321472"><ele>500.0</ele><time>2026-04-18T12:10:02Z</time></trkpt><trkpt lat="48.192843886924145" lon="11.59812003494094"><ele>500.0</ele><time>2026-04-18T12:10:03Z</time></trkpt><trkpt lat="48.19284226809432" lon="11.597908042668685"><ele>500.0</ele><time>2026-04-18T12:10:04Z</time></trkpt><trkpt lat="48.19284133151789" lon="11.597704367020675"><ele>500.0</ele><time>2026-04-18T12:10:05Z</time></trkpt><trkpt lat="48.192840053256475" lon="11.597498427463533"><ele>500.0</ele><time>2026-04-18T12:10:06Z</time></trkpt><trkpt lat="48.19284022622059" lon="11.597294416777608"><ele>500.0</ele><time>2026-04-18T12:10:07Z</time></trkpt><trkpt lat="48.192838510931125" lon="11.597091166526727"><ele>500.0</ele><time>2026-04-18T12:10:08Z</time></trkpt><trkpt lat="48.192839040750705" lon="11.59687952040771"><ele>500.0</ele><time>2026-04-18T12:10:09Z</time></trkpt><trkpt lat="48.192841183067316" lon="11.596663036249947"><ele>500.0</ele><time>2026-04-18T12:10:10Z</time></trkpt><trkpt lat="48.192836314741456" lon="11.596450949234006"><ele>500.0</ele><time>2026-04-18T12:10:11Z</time></trkpt><trkpt lat="48.19282918319931" lon="11.596233813793193"><ele>500.0</ele><time>2026-04-18T12:10:12Z</time></trkpt><trkpt lat="48.19282491169099" lon="11.596011756742026"><ele>500.0</ele><time>2026-04-18T12:10:13Z</time></trkpt><trkpt lat="48.192816063275274" lon="11.595786877529871"><ele>500.25</ele><time>2026-04-18T12:10:14Z</time></trkpt><trkpt lat="48.1928044408247" lon="11.595567192266154"><ele>500.5</ele><time>2026-04-18T12:10:15Z</time></trkpt><trkpt lat="48.192797760945425" lon="11.595348141753405"><ele>500.75</ele><time>2026-04-18T12:10:16Z</time></trkpt><trkpt lat="48.192809033659316" lon="11.595120367668462"><ele>501.0</ele><time>2026-04-18T12:10:17Z</time></trkpt><trkpt lat="48.19279130252133" lon="11.594895374351095"><ele>501.0</ele><time>2026-04-18T12:10:18Z</time></trkpt><trkpt lat="48.192787362590146" lon="11.594666002145226"><ele>501.0</ele><time>2026-04-18T12:10:19Z</time></trkpt><trkpt lat="48.19278339063349" lon="11.594438618743254"><ele>501.0</ele><time>2026-04-18T12:10:20Z</time></trkpt><trkpt lat="48.192780543247046" lon="11.594206221486543"><ele>501.0</ele><time>2026-04-18T12:10:21Z</time></trkpt><trkpt lat="48.19277953521582" lon="11.593976404323152"><ele>501.0</ele><time>2026-04-18T12:10:22Z</time></trkpt><trkpt lat="48.192778207388045" lon="11.593746668865357"><ele>501.0</ele><time>2026-04-18T12:10:23Z</time></trkpt><trkpt lat="48.1927762172127" lon="11.593515548414869"><ele>501.0</ele><time>2026-04-18T12:10:24Z</time></trkpt><trkpt lat="48.19277336187974" lon="11.593282054363248"><ele>501.0</ele><time>2026-04-18T12:10:25Z</time></trkpt><trkpt lat="48.19276836988417" lon="11.593048122182442"><ele>501.0</ele><time>2026-04-18T12:10:26Z</time></trkpt><trkpt lat="48.19276511860815" lon="11.592812257831193"><ele>500.66666666666663</ele><time>2026-04-18T12:10:27Z</time></trkpt><trkpt lat="48.19276252874223" lon="11.592571709106219"><ele>500.3333333333333</ele><time>2026-04-18T12:10:28Z</time></trkpt><trkpt lat="48.192761724627246" lon="11.592333616206238"><ele>500.0</ele><time>2026-04-18T12:10:29Z</time></trkpt><trkpt lat="48.19275934730357" lon="11.5920906677583"><ele>500.0</ele><time>2026-04-18T12:10:30Z</time></trkpt><trkpt lat="48.192757948441795" lon="11.59185030889867"><ele>500.0</ele><time>2026-04-18T12:10:31Z</time></trkpt><trkpt lat="48.19275645458699" lon="11.591616380688448"><ele>500.0</ele><time>2026-04-18T12:10:32Z</time></trkpt><trkpt lat="48.192756196074654" lon="11.591405526682518"><ele>500.0</ele><time>2026-04-18T12:10:33Z</time></trkpt><trkpt lat="48.19275603646496" lon="11.59124140184173"><ele>500.0</ele><time>2026-04-18T12:10:34Z</time></trkpt><trkpt lat="48.19275452890371" lon="11.591111367112767"><ele>500.0</ele><time>2026-04-18T12:10:35Z</time></trkpt><trkpt lat="48.19275894417036" lon="11.590931753790128"><ele>500.0</ele><time>2026-04-18T12:10:37Z</time></trkpt><trkpt lat="48.192758226273945" lon="11.590760789584358"><ele>500.0</ele><time>2026-04-18T12:10:39Z</time></trkpt><trkpt lat="48.19272924227092" lon="11.59043193776306"><ele>500.25</ele><time>2026-04-18T12:11:45Z</time></trkpt><trkpt lat="48.1927016895804" lon="11.590343998898092"><ele>500.5</ele><time>2026-04-18T12:11:46Z</time></trkpt><trkpt lat="48.19256810123968" lon="11.590262478498024"><ele>500.75</ele><time>2026-04-18T12:11:48Z</time></trkpt><trkpt lat="48.19245479887011" lon="11.59026179817191"><ele>501.0</ele><time>2026-04-18T12:11:49Z</time></trkpt><trkpt lat="48.192316829739475" lon="11.590312385255906"><ele>501.0</ele><time>2026-04-18T12:11:50Z</time></trkpt><trkpt lat="48.19216890582694" lon="11.590296752488694"><ele>501.0</ele><time>2026-04-18T12:11:51Z</time></trkpt><trkpt lat="48.1920125380296" lon="11.59029764180681"><ele>501.0</ele><time>2026-04-18T12:11:52Z</time></trkpt><trkpt lat="48.19185675847864" lon="11.590309990138433"><ele>501.0</ele><time>2026-04-18T12:11:53Z</time></trkpt><trkpt lat="48.191713796649324" lon="11.59030718378695"><ele>501.0</ele><time>2026-04-18T12:11:54Z</time></trkpt><trkpt lat="48.191595654791364" lon="11.590262428291858"><ele>501.0</ele><time>2026-04-18T12:11:55Z</time></trkpt><trkpt lat="48.19148082770286" lon="11.590185125723634"><ele>501.0</ele><time>2026-04-18T12:11:56Z</time></trkpt><trkpt lat="48.19137887801735" lon="11.590068847950656"><ele>501.0</ele><time>2026-04-18T12:11:57Z</time></trkpt><trkpt lat="48.191307205868505" lon="11.589912369882239"><ele>501.0</ele><time>2026-04-18T12:11:58Z</time></trkpt><trkpt lat="48.191222183391666" lon="11.589797117758044"><ele>501.0</ele><time>2026-04-18T12:11:59Z</time></trkpt><trkpt lat="48.19117462213215" lon="11.589657494431691"><ele>501.0</ele><time>2026-04-18T12:12:00Z</time></trkpt><trkpt lat="48.19113624225491" lon="11.58948922259615"><ele>501.0</ele><time>2026-04-18T12:12:01Z</time></trkpt><trkpt lat="48.1911149567681" lon="11.589337472903077"><ele>501.0</ele><time>2026-04-18T12:12:02Z</time></trkpt><trkpt lat="48.19109525724106" lon="11.589191962720045"><ele>501.0</ele><time>2026-04-18T12:12:03Z</time></trkpt><trkpt lat="48.191073605212175" lon="11.589055379158145"><ele>501.0</ele><time>2026-04-18T12:12:04Z</time></trkpt><trkpt lat="48.191055717596825" lon="11.58891346764829"><ele>501.0</ele><time>2026-04-18T12:12:05Z</time></trkpt><trkpt lat="48.19103746307689" lon="11.58876223609"><ele>502.0</ele><time>2026-04-18T12:12:06Z</time></trkpt><trkpt lat="48.19102253640199" lon="11.588613532859831"><ele>503.0</ele><time>2026-04-18T12:12:07Z</time></trkpt><trkpt lat="48.19100104299622" lon="11.58847253851328"><ele>504.0</ele><time>2026-04-18T12:12:08Z</time></trkpt><trkpt lat="48.190984230961405" lon="11.588313277290453"><ele>505.0</ele><time>2026-04-18T12:12:09Z</time></trkpt><trkpt lat="48.190967077271495" lon="11.588155945129541"><ele>506.0</ele><time>2026-04-18T12:12:10Z</time></trkpt><trkpt lat="48.19094746324443" lon="11.58799482995363"><ele>506.25</ele><time>2026-04-18T12:12:11Z</time></trkpt><trkpt lat="48.19092827163762" lon="11.587803763805756"><ele>506.5</ele><time>2026-04-18T12:12:12Z</time></trkpt><trkpt lat="48.190911158270346" lon="11.587625832043123"><ele>506.75</ele><time>2026-04-18T12:12:13Z</time></trkpt><trkpt lat="48.190890192050816" lon="11.587446230496283"><ele>507.0</ele><time>2026-04-18T12:12:14Z</time></trkpt><trkpt lat="48.19086941051158" lon="11.587255097049534"><ele>507.0</ele><time>2026-04-18T12:12:15Z</time></trkpt><trkpt lat="48.19084764030663" lon="11.587061876492129"><ele>507.0</ele><time>2026-04-18T12:12:16Z</time></trkpt><trkpt lat="48.19083111052533" lon="11.586881748492418"><ele>507.0</ele><time>2026-04-18T12:12:17Z</time></trkpt><trkpt lat="48.190819031190614" lon="11.586713462080438"><ele>507.0</ele><time>2026-04-18T12:12:18Z</time></trkpt><trkpt lat="48.19080405911397" lon="11.58653761350549"><ele>506.0</ele><time>2026-04-18T12:12:19Z</time></trkpt><trkpt lat="48.19079110544756" lon="11.586357389735614"><ele>505.0</ele><time>2026-04-18T12:12:20Z</time></trkpt><trkpt lat="48.19078407551971" lon="11.586172746395004"><ele>504.0</ele><time>2026-04-18T12:12:21Z</time></trkpt><trkpt lat="48.190781807807475" lon="11.58598598398939"><ele>503.0</ele><time>2026-04-18T12:12:22Z</time></trkpt><trkpt lat="48.19078130492894" lon="11.585796326097011"><ele>503.0</ele><time>2026-04-18T12:12:23Z</time></trkpt><trkpt lat="48.190778103137454" lon="11.585578342002602"><ele>503.0</ele><time>2026-04-18T12:12:24Z</time></trkpt><trkpt lat="48.1907739941403" lon="11.5853533952579"><ele>503.0</ele><time>2026-04-18T12:12:25Z</time></trkpt><trkpt lat="48.19077049151534" lon="11.585158373020372"><ele>503.0</ele><time>2026-04-18T12:12:26Z</time></trkpt><trkpt lat="48.19076591683549" lon="11.584962109874569"><ele>503.0</ele><time>2026-04-18T12:12:27Z</time></trkpt><trkpt lat="48.1907644245045" lon="11.584783288669618"><ele>503.0</ele><time>2026-04-18T12:12:28Z</time></trkpt><trkpt lat="48.1907631838032" lon="11.584607762175535"><ele>503.0</ele><time>2026-04-18T12:12:29Z</time></trkpt><trkpt lat="48.19076103769533" lon="11.584435469893"><ele>503.0</ele><time>2026-04-18T12:12:30Z</time></trkpt><trkpt lat="48.19075656288694" lon="11.584269372091821"><ele>503.0</ele><time>2026-04-18T12:12:31Z</time></trkpt><trkpt lat="48.190752647414506" lon="11.584098837618646"><ele>502.99999999999994</ele><time>2026-04-18T12:12:32Z</time></trkpt><trkpt lat="48.19074451324862" lon="11.583927597754"><ele>502.99999999999994</ele><time>2026-04-18T12:12:33Z</time></trkpt><trkpt lat="48.19074009040832" lon="11.583770967883417"><ele>503.0</ele><time>2026-04-18T12:12:34Z</time></trkpt><trkpt lat="48.190738247112776" lon="11.583611378666852"><ele>503.0</ele><time>2026-04-18T12:12:35Z</time></trkpt><trkpt lat="48.19073744326503" lon="11.583454777618659"><ele>503.0</ele><time>2026-04-18T12:12:36Z</time></trkpt><trkpt lat="48.19074106608271" lon="11.583320440681899"><ele>502.99999999999994</ele><time>2026-04-18T12:12:37Z</time></trkpt><trkpt lat="48.190739550944784" lon="11.583176239045399"><ele>502.99999999999994</ele><time>2026-04-18T12:12:38Z</time></trkpt><trkpt lat="48.19074417566524" lon="11.583033027105614"><ele>503.0</ele><time>2026-04-18T12:12:39Z</time></trkpt><trkpt lat="48.19076083383449" lon="11.582865731578224"><ele>503.0</ele><time>2026-04-18T12:12:40Z</time></trkpt><trkpt lat="48.19076065427384" lon="11.58271241843991"><ele>503.16666666666663</ele><time>2026-04-18T12:12:41Z</time></trkpt><trkpt lat="48.190779531527724" lon="11.582595472710594"><ele>503.3333333333333</ele><time>2026-04-18T12:12:42Z</time></trkpt><trkpt lat="48.19079825548192" lon="11.58249357354002"><ele>503.5</ele><time>2026-04-18T12:12:43Z</time></trkpt><trkpt lat="48.190848431622" lon="11.582426492961268"><ele>503.66666666666663</ele><time>2026-04-18T12:12:44Z</time></trkpt><trkpt lat="48.19088400544458" lon="11.582347355329711"><ele>503.8333333333333</ele><time>2026-04-18T12:12:45Z</time></trkpt><trkpt lat="48.19081064417816" lon="11.582154371741305"><ele>504.0</ele><time>2026-04-18T12:12:46Z</time></trkpt><trkpt lat="48.190767403385024" lon="11.582007649596255"><ele>504.25</ele><time>2026-04-18T12:12:47Z</time></trkpt><trkpt lat="48.19073234026448" lon="11.581827843725202"><ele>504.5</ele><time>2026-04-18T12:12:48Z</time></trkpt><trkpt lat="48.19073053763839" lon="11.581620263838547"><ele>504.75</ele><time>2026-04-18T12:12:49Z</time></trkpt><trkpt lat="48.190734473178445" lon="11.581394165717747"><ele>505.0</ele><time>2026-04-18T12:12:50Z</time></trkpt><trkpt lat="48.19073563291052" lon="11.581159058310037"><ele>505.0</ele><time>2026-04-18T12:12:51Z</time></trkpt><trkpt lat="48.19073096352456" lon="11.580917697935673"><ele>505.0</ele><time>2026-04-18T12:12:52Z</time></trkpt><trkpt lat="48.190726584804416" lon="11.580673089137608"><ele>505.0</ele><time>2026-04-18T12:12:53Z</time></trkpt><trkpt lat="48.190722354592275" lon="11.58042695986152"><ele>504.33333333333337</ele><time>2026-04-18T12:12:54Z</time></trkpt><trkpt lat="48.19072463015672" lon="11.580186751018875"><ele>503.66666666666663</ele><time>2026-04-18T12:12:55Z</time></trkpt><trkpt lat="48.19072337709468" lon="11.579942305389942"><ele>503.0</ele><time>2026-04-18T12:12:56Z</time></trkpt><trkpt lat="48.19072306239079" lon="11.579699133138229"><ele>502.66666666666663</ele><time>2026-04-18T12:12:57Z</time></trkpt><trkpt lat="48.190723572929095" lon="11.579457872595459"><ele>502.33333333333337</ele><time>2026-04-18T12:12:58Z</time></trkpt><trkpt lat="48.190722464886264" lon="11.579217435247806"><ele>502.0</ele><time>2026-04-18T12:12:59Z</time></trkpt><trkpt lat="48.19071841968646" lon="11.578973064668057"><ele>502.0</ele><time>2026-04-18T12:13:00Z</time></trkpt><trkpt lat="48.190716211319554" lon="11.578729359322303"><ele>502.0</ele><time>2026-04-18T12:13:01Z</time></trkpt><trkpt lat="48.19071454622833" lon="11.578496053997153"><ele>502.0</ele><time>2026-04-18T12:13:02Z</time></trkpt><trkpt lat="48.19071576495362" lon="11.578276097104617"><ele>501.75</ele><time>2026-04-18T12:13:03Z</time></trkpt><trkpt lat="48.19071379413187" lon="11.578055959698428"><ele>501.5</ele><time>2026-04-18T12:13:04Z</time></trkpt><trkpt lat="48.190704738986845" lon="11.57785446802294"><ele>501.25</ele><time>2026-04-18T12:13:05Z</time></trkpt><trkpt lat="48.1906964285426" lon="11.577673915830069"><ele>501.0</ele><time>2026-04-18T12:13:06Z</time></trkpt><trkpt lat="48.1906922974574" lon="11.577519679332282"><ele>501.0</ele><time>2026-04-18T12:13:07Z</time></trkpt><trkpt lat="48.19071282830066" lon="11.577378453205249"><ele>501.0</ele><time>2026-04-18T12:13:08Z</time></trkpt><trkpt lat="48.19076438778185" lon="11.577270606654467"><ele>501.0</ele><time>2026-04-18T12:13:09Z</time></trkpt><trkpt lat="48.19085259138208" lon="11.577195810696253"><ele>501.0</ele><time>2026-04-18T12:13:10Z</time></trkpt><trkpt lat="48.190976145505815" lon="11.577173362623665"><ele>501.0</ele><time>2026-04-18T12:13:11Z</time></trkpt><trkpt lat="48.19111502684127" lon="11.57717050785703"><ele>501.0</ele><time>2026-04-18T12:13:12Z</time></trkpt><trkpt lat="48.19126266005518" lon="11.577169149092384"><ele>501.0</ele><time>2026-04-18T12:13:13Z</time></trkpt><trkpt lat="48.191421034063346" lon="11.577161852978433"><ele>501.0</ele><time>2026-04-18T12:13:14Z</time></trkpt><trkpt lat="48.191586242783686" lon="11.577148939038654"><ele>501.0</ele><time>2026-04-18T12:13:15Z</time></trkpt><trkpt lat="48.19173801875258" lon="11.577146524837689"><ele>501.0</ele><time>2026-04-18T12:13:16Z</time></trkpt><trkpt lat="48.19187932013396" lon="11.577142181243897"><ele>501.0</ele><time>2026-04-18T12:13:17Z</time></trkpt><trkpt lat="48.191999189830035" lon="11.57713611580438"><ele>501.0</ele><time>2026-04-18T12:13:18Z</time></trkpt><trkpt lat="48.19210145532289" lon="11.577128292056068"><ele>501.0</ele><time>2026-04-18T12:13:19Z</time></trkpt><trkpt lat="48.19219275944945" lon="11.577118990568957"><ele>501.0</ele><time>2026-04-18T12:13:20Z</time></trkpt><trkpt lat="48.19226999777253" lon="11.577110625472693"><ele>501.0</ele><time>2026-04-18T12:13:21Z</time></trkpt><trkpt lat="48.19236047225556" lon="11.577109684809852"><ele>501.0</ele><time>2026-04-18T12:13:23Z</time></trkpt><trkpt lat="48.192446884771286" lon="11.577079207104063"><ele>501.0</ele><time>2026-04-18T12:13:25Z</time></trkpt><trkpt lat="48.19255400127079" lon="11.576890840240427"><ele>502.0</ele><time>2026-04-18T12:13:27Z</time></trkpt><trkpt lat="48.19254795592725" lon="11.576746676236905"><ele>503.0</ele><time>2026-04-18T12:13:28Z</time></trkpt><trkpt lat="48.19253869901466" lon="11.57658129144014"><ele>504.0</ele><time>2026-04-18T12:13:29Z</time></trkpt><trkpt lat="48.192517683757096" lon="11.576399974763298"><ele>505.0</ele><time>2026-04-18T12:13:30Z</time></trkpt><trkpt lat="48.19246815689908" lon="11.576199178742282"><ele>505.25</ele><time>2026-04-18T12:13:31Z</time></trkpt><trkpt lat="48.192418645107445" lon="11.575996339981849"><ele>505.5</ele><time>2026-04-18T12:13:32Z</time></trkpt><trkpt lat="48.192383207578175" lon="11.575784107657737"><ele>505.75</ele><time>2026-04-18T12:13:33Z</time></trkpt><trkpt lat="48.192349766021096" lon="11.575564740459098"><ele>506.0</ele><time>2026-04-18T12:13:34Z</time></trkpt><trkpt lat="48.19234525035027" lon="11.575330586276648"><ele>506.0</ele><time>2026-04-18T12:13:35Z</time></trkpt><trkpt lat="48.19234171835316" lon="11.575103699181073"><ele>506.0</ele><time>2026-04-18T12:13:36Z</time></trkpt><trkpt lat="48.19234077000643" lon="11.57488278266761"><ele>506.0</ele><time>2026-04-18T12:13:37Z</time></trkpt><trkpt lat="48.19233573239003" lon="11.574676850183613"><ele>506.0</ele><time>2026-04-18T12:13:38Z</time></trkpt><trkpt lat="48.192327945036034" lon="11.5744582435456"><ele>506.0</ele><time>2026-04-18T12:13:39Z</time></trkpt><trkpt lat="48.19232458160757" lon="11.574252462805383"><ele>506.0</ele><time>2026-04-18T12:13:40Z</time></trkpt><trkpt lat="48.1923216964598" lon="11.574053549428383"><ele>506.0</ele><time>2026-04-18T12:13:41Z</time></trkpt><trkpt lat="48.192318914349386" lon="11.57385492629268"><ele>506.0</ele><time>2026-04-18T12:13:42Z</time></trkpt><trkpt lat="48.192313360880085" lon="11.573665150028193"><ele>506.4</ele><time>2026-04-18T12:13:43Z</time></trkpt><trkpt lat="48.19230887989702" lon="11.573478049742432"><ele>506.8</ele><time>2026-04-18T12:13:44Z</time></trkpt><trkpt lat="48.19230666307684" lon="11.573316403380828"><ele>507.19999999999993</ele><time>2026-04-18T12:13:45Z</time></trkpt><trkpt lat="48.1923028477707" lon="11.573185960832005"><ele>507.59999999999997</ele><time>2026-04-18T12:13:46Z</time></trkpt><trkpt lat="48.19229813309168" lon="11.57306994578041"><ele>508.0</ele><time>2026-04-18T12:13:47Z</time></trkpt><trkpt lat="48.192299171029774" lon="11.572904962708831"><ele>507.79999999999995</ele><time>2026-04-18T12:13:49Z</time></trkpt><trkpt lat="48.19230653009347" lon="11.572792218307049"><ele>507.59999999999997</ele><time>2026-04-18T12:13:52Z</time></trkpt><trkpt lat="48.192303735916674" lon="11.572661933464836"><ele>507.40000000000003</ele><time>2026-04-18T12:14:19Z</time></trkpt><trkpt lat="48.19229499657802" lon="11.572497928756041"><ele>507.20000000000005</ele><time>2026-04-18T12:14:21Z</time></trkpt><trkpt lat="48.19229453059282" lon="11.572370081680143"><ele>507.0</ele><time>2026-04-18T12:14:23Z</time></trkpt><trkpt lat="48.192179277803085" lon="11.57230329334251"><ele>507.0</ele><time>2026-04-18T12:14:24Z</time></trkpt><trkpt lat="48.1920871023835" lon="11.572307189301243"><ele>507.00000000000006</ele><time>2026-04-18T12:14:25Z</time></trkpt><trkpt lat="48.191989147869734" lon="11.57231322939083"><ele>507.00000000000006</ele><time>2026-04-18T12:14:26Z</time></trkpt><trkpt lat="48.19187391154071" lon="11.572320335115005"><ele>507.0</ele><time>2026-04-18T12:14:27Z</time></trkpt><trkpt lat="48.191757368569256" lon="11.572328456304877"><ele>507.0</ele><time>2026-04-18T12:14:28Z</time></trkpt><trkpt lat="48.19166958244405" lon="11.572335504697465"><ele>507.0</ele><time>2026-04-18T12:14:29Z</time></trkpt><trkpt lat="48.19158653201409" lon="11.572342487472703"><ele>507.00000000000006</ele><time>2026-04-18T12:14:30Z</time></trkpt><trkpt lat="48.19149804688947" lon="11.572366299873742"><ele>507.00000000000006</ele><time>2026-04-18T12:14:31Z</time></trkpt><trkpt lat="48.191398543089036" lon="11.572368716511846"><ele>507.0</ele><time>2026-04-18T12:14:32Z</time></trkpt><trkpt lat="48.191287287143055" lon="11.572368829294843"><ele>507.0</ele><time>2026-04-18T12:14:33Z</time></trkpt><trkpt lat="48.19117081863549" lon="11.572373912041103"><ele>507.0</ele><time>2026-04-18T12:14:34Z</time></trkpt><trkpt lat="48.19105165967705" lon="11.572380447412819"><ele>507.0</ele><time>2026-04-18T12:14:35Z</time></trkpt><trkpt lat="48.190929634706826" lon="11.572387529436659"><ele>507.0</ele><time>2026-04-18T12:14:36Z</time></trkpt><trkpt lat="48.190809709797236" lon="11.572390524542762"><ele>507.0</ele><time>2026-04-18T12:14:37Z</time></trkpt><trkpt lat="48.19068328149021" lon="11.572394348598428"><ele>506.5</ele><time>2026-04-18T12:14:38Z</time></trkpt><trkpt lat="48.19054517054307" lon="11.572399199954386"><ele>506.0</ele><time>2026-04-18T12:14:39Z</time></trkpt><trkpt lat="48.19041383061837" lon="11.572395186383456"><ele>505.5</ele><time>2026-04-18T12:14:40Z</time></trkpt><trkpt lat="48.19027198199546" lon="11.572402944216053"><ele>505.0</ele><time>2026-04-18T12:14:41Z</time></trkpt><trkpt lat="48.190128321016616" lon="11.57239908480211"><ele>505.0</ele><time>2026-04-18T12:14:42Z</time></trkpt><trkpt lat="48.18996862677308" lon="11.572404322090165"><ele>505.0</ele><time>2026-04-18T12:14:43Z</time></trkpt><trkpt lat="48.1898225594588" lon="11.572433685001045"><ele>505.0</ele><time>2026-04-18T12:14:44Z</time></trkpt><trkpt lat="48.18968281867675" lon="11.572437009007986"><ele>505.0</ele><time>2026-04-18T12:14:45Z</time></trkpt><trkpt lat="48.1895350463555" lon="11.572442637165661"><ele>504.75</ele><time>2026-04-18T12:14:46Z</time></trkpt><trkpt lat="48.18938573333368" lon="11.57244413117083"><ele>504.5</ele><time>2026-04-18T12:14:47Z</time></trkpt><trkpt lat="48.189236565023876" lon="11.572458566413006"><ele>504.25</ele><time>2026-04-18T12:14:48Z</time></trkpt><trkpt lat="48.189092109481635" lon="11.572473537682276"><ele>504.0</ele><time>2026-04-18T12:14:49Z</time></trkpt><trkpt lat="48.18895802421861" lon="11.572479683336425"><ele>504.0</ele><time>2026-04-18T12:14:50Z</time></trkpt><trkpt lat="48.188831153143184" lon="11.572485645688714"><ele>504.0</ele><time>2026-04-18T12:14:51Z</time></trkpt><trkpt lat="48.1887124476809" lon="11.572491890687896"><ele>504.0</ele><time>2026-04-18T12:14:52Z</time></trkpt><trkpt lat="48.188593804083425" lon="11.572493638328124"><ele>504.0</ele><time>2026-04-18T12:14:53Z</time></trkpt><trkpt lat="48.18847704470239" lon="11.572498903735816"><ele>504.0</ele><time>2026-04-18T12:14:54Z</time></trkpt><trkpt lat="48.18836498941428" lon="11.572505259448516"><ele>504.0</ele><time>2026-04-18T12:14:55Z</time></trkpt><trkpt lat="48.18826250971458" lon="11.572509373622713"><ele>504.0</ele><time>2026-04-18T12:14:56Z</time></trkpt><trkpt lat="48.18816143282322" lon="11.572514157956794"><ele>504.0</ele><time>2026-04-18T12:14:57Z</time></trkpt><trkpt lat="48.188066154188306" lon="11.572516246732423"><ele>504.0</ele><time>2026-04-18T12:14:58Z</time></trkpt><trkpt lat="48.18797953134898" lon="11.572545643727674"><ele>504.0</ele><time>2026-04-18T12:14:59Z</time></trkpt><trkpt lat="48.18790914349696" lon="11.572525757042586"><ele>504.0</ele><time>2026-04-18T12:15:00Z</time></trkpt><trkpt lat="48.18781523315781" lon="11.572539653359163"><ele>504.0</ele><time>2026-04-18T12:15:02Z</time></trkpt><trkpt lat="48.18773976334996" lon="11.572544707694131"><ele>504.0</ele><time>2026-04-18T12:15:05Z</time></trkpt><trkpt lat="48.18766948282246" lon="11.5725652523428"><ele>504.0</ele><time>2026-04-18T12:15:51Z</time></trkpt><trkpt lat="48.1875863577529" lon="11.572521544377826"><ele>504.0</ele><time>2026-04-18T12:15:53Z</time></trkpt><trkpt lat="48.187537995101984" lon="11.572426372650778"><ele>504.0</ele><time>2026-04-18T12:15:58Z</time></trkpt><trkpt lat="48.18752909037401" lon="11.572311426886245"><ele>504.0</ele><time>2026-04-18T12:16:00Z</time></trkpt><trkpt lat="48.18753042755211" lon="11.572215020357788"><ele>504.0</ele><time>2026-04-18T12:16:01Z</time></trkpt><trkpt lat="48.187531095744696" lon="11.572102200528876"><ele>504.0</ele><time>2026-04-18T12:16:02Z</time></trkpt><trkpt lat="48.187530862294935" lon="11.571974004306329"><ele>504.0</ele><time>2026-04-18T12:16:03Z</time></trkpt><trkpt lat="48.187526100371365" lon="11.57180596508927"><ele>504.0</ele><time>2026-04-18T12:16:04Z</time></trkpt><trkpt lat="48.18751877411779" lon="11.571607769802489"><ele>504.0</ele><time>2026-04-18T12:16:05Z</time></trkpt><trkpt lat="48.18751333670552" lon="11.571395011367278"><ele>504.0</ele><time>2026-04-18T12:16:06Z</time></trkpt><trkpt lat="48.18750647889713" lon="11.571156727608258"><ele>504.0</ele><time>2026-04-18T12:16:07Z</time></trkpt><trkpt lat="48.18749776318478" lon="11.570910208063086"><ele>504.33333333333337</ele><time>2026-04-18T12:16:08Z</time></trkpt><trkpt lat="48.18748875024998" lon="11.57065613261028"><ele>504.6666666666667</ele><time>2026-04-18T12:16:09Z</time></trkpt><trkpt lat="48.1874774814796" lon="11.570403549831118"><ele>505.0</ele><time>2026-04-18T12:16:10Z</time></trkpt><trkpt lat="48.18746916856871" lon="11.570169174740872"><ele>505.0</ele><time>2026-04-18T12:16:11Z</time></trkpt><trkpt lat="48.18746038462973" lon="11.569947053857753"><ele>505.0</ele><time>2026-04-18T12:16:12Z</time></trkpt><trkpt lat="48.18745165509471" lon="11.569734373327694"><ele>505.0</ele><time>2026-04-18T12:16:13Z</time></trkpt><trkpt lat="48.187445713121015" lon="11.569520019359949"><ele>505.0</ele><time>2026-04-18T12:16:14Z</time></trkpt><trkpt lat="48.18743794160929" lon="11.569308856681525"><ele>505.0</ele><time>2026-04-18T12:16:15Z</time></trkpt><trkpt lat="48.187429146645975" lon="11.56910174738178"><ele>505.0</ele><time>2026-04-18T12:16:16Z</time></trkpt><trkpt lat="48.187418621906296" lon="11.568895140344713"><ele>505.0</ele><time>2026-04-18T12:16:17Z</time></trkpt><trkpt lat="48.18740542910001" lon="11.568689946626307"><ele>505.0</ele><time>2026-04-18T12:16:18Z</time></trkpt><trkpt lat="48.1873879392245" lon="11.568490569998193"><ele>505.0</ele><time>2026-04-18T12:16:19Z</time></trkpt><trkpt lat="48.1873685811595" lon="11.568292471467291"><ele>505.0</ele><time>2026-04-18T12:16:20Z</time></trkpt><trkpt lat="48.18735201656467" lon="11.568107041142943"><ele>505.0</ele><time>2026-04-18T12:16:21Z</time></trkpt><trkpt lat="48.18734106592918" lon="11.567937056025187"><ele>505.0</ele><time>2026-04-18T12:16:22Z</time></trkpt><trkpt lat="48.18733081469789" lon="11.56777044153288"><ele>506.0</ele><time>2026-04-18T12:16:23Z</time></trkpt><trkpt lat="48.18732490365328" lon="11.567611787578608"><ele>507.0</ele><time>2026-04-18T12:16:24Z</time></trkpt><trkpt lat="48.18731427089478" lon="11.567458382130207"><ele>508.0</ele><time>2026-04-18T12:16:25Z</time></trkpt><trkpt lat="48.187302671624515" lon="11.567311428767983"><ele>509.0</ele><time>2026-04-18T12:16:26Z</time></trkpt><trkpt lat="48.187291406285425" lon="11.567173240391206"><ele>510.0</ele><time>2026-04-18T12:16:27Z</time></trkpt><trkpt lat="48.18728094276133" lon="11.567041298402598"><ele>510.0</ele><time>2026-04-18T12:16:28Z</time></trkpt><trkpt lat="48.187270455826166" lon="11.566927493507345"><ele>510.0</ele><time>2026-04-18T12:16:29Z</time></trkpt><trkpt lat="48.187259705228406" lon="11.566825912701184"><ele>510.0</ele><time>2026-04-18T12:16:30Z</time></trkpt><trkpt lat="48.1872439490887" lon="11.566673223515789"><ele>510.0</ele><time>2026-04-18T12:16:32Z</time></trkpt><trkpt lat="48.18723556045404" lon="11.566550451215678"><ele>510.0</ele><time>2026-04-18T12:16:35Z</time></trkpt><trkpt lat="48.18723976642105" lon="11.566449254466404"><ele>510.0</ele><time>2026-04-18T12:17:06Z</time></trkpt><trkpt lat="48.187228941568904" lon="11.566311395567883"><ele>510.0</ele><time>2026-04-18T12:17:08Z</time></trkpt><trkpt lat="48.18722025404032" lon="11.566200078505034"><ele>510.0</ele><time>2026-04-18T12:17:09Z</time></trkpt><trkpt lat="48.18721262412834" lon="11.566072561169872"><ele>510.0</ele><time>2026-04-18T12:17:10Z</time></trkpt><trkpt lat="48.18719053325221" lon="11.5659091546217"><ele>510.0</ele><time>2026-04-18T12:17:11Z</time></trkpt><trkpt lat="48.187200011990676" lon="11.56572617789743"><ele>510.0</ele><time>2026-04-18T12:17:12.001Z</time></trkpt><trkpt lat="48.18717084515389" lon="11.56553423758742"><ele>508.75</ele><time>2026-04-18T12:17:13.001Z</time></trkpt><trkpt lat="48.187156164360275" lon="11.565332159196327"><ele>507.5</ele><time>2026-04-18T12:17:14.001Z</time></trkpt><trkpt lat="48.187149331170986" lon="11.565104094774753"><ele>506.25</ele><time>2026-04-18T12:17:15.001Z</time></trkpt><trkpt lat="48.18712937960934" lon="11.564881372721059"><ele>505.0</ele><time>2026-04-18T12:17:16.001Z</time></trkpt><trkpt lat="48.18710910624596" lon="11.564656726800381"><ele>505.5</ele><time>2026-04-18T12:17:17.001Z</time></trkpt><trkpt lat="48.18708938793111" lon="11.564438231262928"><ele>506.0</ele><time>2026-04-18T12:17:18.001Z</time></trkpt><trkpt lat="48.18707103626206" lon="11.564234879342196"><ele>506.5</ele><time>2026-04-18T12:17:19.001Z</time></trkpt><trkpt lat="48.187054005682874" lon="11.564044981902128"><ele>507.0</ele><time>2026-04-18T12:17:20.001Z</time></trkpt><trkpt lat="48.187038561264444" lon="11.563865537146997"><ele>507.0</ele><time>2026-04-18T12:17:21.001Z</time></trkpt><trkpt lat="48.18701240668507" lon="11.563703051580301"><ele>507.00000000000006</ele><time>2026-04-18T12:17:22.001Z</time></trkpt><trkpt lat="48.187007884090406" lon="11.563551783164495"><ele>507.00000000000006</ele><time>2026-04-18T12:17:23.001Z</time></trkpt><trkpt lat="48.18699879001866" lon="11.56341534994756"><ele>507.0</ele><time>2026-04-18T12:17:24.001Z</time></trkpt><trkpt lat="48.18698843769818" lon="11.563281421464806"><ele>507.0</ele><time>2026-04-18T12:17:25.001Z</time></trkpt><trkpt lat="48.18697393244858" lon="11.563145957754207"><ele>507.3333333333333</ele><time>2026-04-18T12:17:26.001Z</time></trkpt><trkpt lat="48.18695645767417" lon="11.563016350108388"><ele>507.66666666666663</ele><time>2026-04-18T12:17:27.001Z</time></trkpt><trkpt lat="48.186945209330304" lon="11.562901810786476"><ele>508.0</ele><time>2026-04-18T12:17:28.001Z</time></trkpt><trkpt lat="48.18693722970014" lon="11.562802640228293"><ele>508.3333333333333</ele><time>2026-04-18T12:17:29.001Z</time></trkpt><trkpt lat="48.18693120355299" lon="11.562676959523065"><ele>508.66666666666663</ele><time>2026-04-18T12:17:31.001Z</time></trkpt><trkpt lat="48.1869286079718" lon="11.562578578268521"><ele>509.0</ele><time>2026-04-18T12:17:34.001Z</time></trkpt><trkpt lat="48.18692213499906" lon="11.56246792056377"><ele>509.0</ele><time>2026-04-18T12:17:38.001Z</time></trkpt><trkpt lat="48.18689590857517" lon="11.562293138187297"><ele>509.0</ele><time>2026-04-18T12:18:06.001Z</time></trkpt><trkpt lat="48.18675848168004" lon="11.562312939115332"><ele>509.0</ele><time>2026-04-18T12:18:07.001Z</time></trkpt><trkpt lat="48.1866820494167" lon="11.562329522892101"><ele>509.0</ele><time>2026-04-18T12:18:08.001Z</time></trkpt><trkpt lat="48.186591550210544" lon="11.562344642546982"><ele>509.0</ele><time>2026-04-18T12:18:09.001Z</time></trkpt><trkpt lat="48.186478153725304" lon="11.562351982949131"><ele>509.25</ele><time>2026-04-18T12:18:10.001Z</time></trkpt><trkpt lat="48.186364121704166" lon="11.562367880072225"><ele>509.5</ele><time>2026-04-18T12:18:11.001Z</time></trkpt><trkpt lat="48.18623642991669" lon="11.562383937662878"><ele>509.75</ele><time>2026-04-18T12:18:12.001Z</time></trkpt><trkpt lat="48.18610730434367" lon="11.562414766683792"><ele>510.0</ele><time>2026-04-18T12:18:13.001Z</time></trkpt><trkpt lat="48.185983281273565" lon="11.562437970958229"><ele>510.0</ele><time>2026-04-18T12:18:14.001Z</time></trkpt><trkpt lat="48.18585143254435" lon="11.562464155240315"><ele>510.0</ele><time>2026-04-18T12:18:15.001Z</time></trkpt><trkpt lat="48.18573797087529" lon="11.562486095164346"><ele>510.0</ele><time>2026-04-18T12:18:16.001Z</time></trkpt><trkpt lat="48.18561464853583" lon="11.562513066637816"><ele>510.0</ele><time>2026-04-18T12:18:17.001Z</time></trkpt><trkpt lat="48.185477752774304" lon="11.562538199729158"><ele>510.25</ele><time>2026-04-18T12:18:18.001Z</time></trkpt><trkpt lat="48.1853683324651" lon="11.562551669228808"><ele>510.5</ele><time>2026-04-18T12:18:19.001Z</time></trkpt><trkpt lat="48.18524795179141" lon="11.56257070167925"><ele>510.75</ele><time>2026-04-18T12:18:20.001Z</time></trkpt><trkpt lat="48.18510925899882" lon="11.562601373685547"><ele>511.0</ele><time>2026-04-18T12:18:21.001Z</time></trkpt><trkpt lat="48.18500219980461" lon="11.562597602277371"><ele>511.0</ele><time>2026-04-18T12:18:22.001Z</time></trkpt><trkpt lat="48.18489712327134" lon="11.562609090755792"><ele>511.0</ele><time>2026-04-18T12:18:23.001Z</time></trkpt><trkpt lat="48.18479966779892" lon="11.56263198593279"><ele>511.0</ele><time>2026-04-18T12:18:24.001Z</time></trkpt><trkpt lat="48.18470457568896" lon="11.562647786222165"><ele>511.0</ele><time>2026-04-18T12:18:25.001Z</time></trkpt><trkpt lat="48.184615064365886" lon="11.562666785467894"><ele>511.0</ele><time>2026-04-18T12:18:26.001Z</time></trkpt><trkpt lat="48.18452764124055" lon="11.562680590820055"><ele>510.83333333333337</ele><time>2026-04-18T12:18:27.001Z</time></trkpt><trkpt lat="48.18444388377441" lon="11.56269892622036"><ele>510.6666666666667</ele><time>2026-04-18T12:18:28.001Z</time></trkpt><trkpt lat="48.184364798455306" lon="11.562708399192882"><ele>510.5</ele><time>2026-04-18T12:18:29.001Z</time></trkpt><trkpt lat="48.184283697372784" lon="11.562723091509218"><ele>510.33333333333337</ele><time>2026-04-18T12:18:30.001Z</time></trkpt><trkpt lat="48.184202985505976" lon="11.562741539982706"><ele>510.1666666666667</ele><time>2026-04-18T12:18:31.001Z</time></trkpt><trkpt lat="48.184122409908184" lon="11.562765567926412"><ele>510.0</ele><time>2026-04-18T12:18:32.001Z</time></trkpt><trkpt lat="48.18404464996692" lon="11.562787430986933"><ele>509.6666666666667</ele><time>2026-04-18T12:18:33.001Z</time></trkpt><trkpt lat="48.18396555696827" lon="11.562798735090078"><ele>509.33333333333337</ele><time>2026-04-18T12:18:34.001Z</time></trkpt><trkpt lat="48.18389153690799" lon="11.562831988108131"><ele>509.0</ele><time>2026-04-18T12:18:35.001Z</time></trkpt><trkpt lat="48.18380653048339" lon="11.562842576497358"><ele>508.6666666666667</ele><time>2026-04-18T12:18:36.001Z</time></trkpt><trkpt lat="48.18373391915732" lon="11.562886315606022"><ele>508.33333333333337</ele><time>2026-04-18T12:18:37.001Z</time></trkpt><trkpt lat="48.18365442635386" lon="11.562936452209323"><ele>508.0</ele><time>2026-04-18T12:18:38.001Z</time></trkpt><trkpt lat="48.18356779675089" lon="11.562957066131942"><ele>508.00000000000006</ele><time>2026-04-18T12:18:39.001Z</time></trkpt><trkpt lat="48.183486800452" lon="11.562979033943938"><ele>508.0</ele><time>2026-04-18T12:18:40.001Z</time></trkpt><trkpt lat="48.18341807735078" lon="11.563009257370975"><ele>508.0</ele><time>2026-04-18T12:18:41.001Z</time></trkpt><trkpt lat="48.18333579713255" lon="11.563013621209345"><ele>508.0</ele><time>2026-04-18T12:18:42.001Z</time></trkpt><trkpt lat="48.18325817381725" lon="11.56302461917448"><ele>508.00000000000006</ele><time>2026-04-18T12:18:43.001Z</time></trkpt><trkpt lat="48.183172802958815" lon="11.563025212962124"><ele>508.0</ele><time>2026-04-18T12:18:44.001Z</time></trkpt><trkpt lat="48.18308664539291" lon="11.563035136592429"><ele>508.6666666666667</ele><time>2026-04-18T12:18:45.001Z</time></trkpt><trkpt lat="48.183003946877655" lon="11.56306027388232"><ele>509.33333333333337</ele><time>2026-04-18T12:18:46.001Z</time></trkpt><trkpt lat="48.18291451291095" lon="11.563071926927774"><ele>510.0</ele><time>2026-04-18T12:18:47.001Z</time></trkpt><trkpt lat="48.18284013479271" lon="11.563081529309937"><ele>510.66666666666663</ele><time>2026-04-18T12:18:48.001Z</time></trkpt><trkpt lat="48.182758645556085" lon="11.563088350929085"><ele>511.3333333333333</ele><time>2026-04-18T12:18:49.001Z</time></trkpt><trkpt lat="48.18267842293808" lon="11.56309697208315"><ele>512.0</ele><time>2026-04-18T12:18:50.001Z</time></trkpt><trkpt lat="48.18259659544056" lon="11.563103954341878"><ele>512.0</ele><time>2026-04-18T12:18:51.001Z</time></trkpt><trkpt lat="48.18250857205024" lon="11.563108793961138"><ele>512.0</ele><time>2026-04-18T12:18:52.001Z</time></trkpt><trkpt lat="48.1824165941352" lon="11.563112965415609"><ele>512.0</ele><time>2026-04-18T12:18:53.001Z</time></trkpt><trkpt lat="48.18232159170493" lon="11.563111108959514"><ele>512.0</ele><time>2026-04-18T12:18:54.001Z</time></trkpt><trkpt lat="48.18222753087459" lon="11.563110617275925"><ele>512.0</ele><time>2026-04-18T12:18:55.001Z</time></trkpt><trkpt lat="48.18213101782644" lon="11.563111088094761"><ele>512.0</ele><time>2026-04-18T12:18:56.001Z</time></trkpt><trkpt lat="48.18202005673755" lon="11.563115257857085"><ele>512.0</ele><time>2026-04-18T12:18:57.001Z</time></trkpt><trkpt lat="48.18190846377643" lon="11.563122961337289"><ele>512.0</ele><time>2026-04-18T12:18:58.001Z</time></trkpt><trkpt lat="48.181802813111965" lon="11.563127995977398"><ele>512.0</ele><time>2026-04-18T12:18:59.001Z</time></trkpt><trkpt lat="48.18170168956157" lon="11.563128337058597"><ele>512.0</ele><time>2026-04-18T12:19:00.001Z</time></trkpt><trkpt lat="48.18160494518858" lon="11.563130613787349"><ele>512.2</ele><time>2026-04-18T12:19:01.001Z</time></trkpt><trkpt lat="48.18151090744908" lon="11.563132625208318"><ele>512.4000000000001</ele><time>2026-04-18T12:19:02.001Z</time></trkpt><trkpt lat="48.181421169341" lon="11.56313654050026"><ele>512.5999999999999</ele><time>2026-04-18T12:19:03.001Z</time></trkpt><trkpt lat="48.18132854354984" lon="11.563147960560112"><ele>512.8</ele><time>2026-04-18T12:19:04.001Z</time></trkpt><trkpt lat="48.18123226018307" lon="11.563166850895787"><ele>513.0</ele><time>2026-04-18T12:19:05.001Z</time></trkpt><trkpt lat="48.18113104405426" lon="11.563193778561157"><ele>513.0</ele><time>2026-04-18T12:19:06.001Z</time></trkpt><trkpt lat="48.1810276541235" lon="11.563227560710327"><ele>513.0</ele><time>2026-04-18T12:19:07.001Z</time></trkpt><trkpt lat="48.18092357636256" lon="11.563262712649967"><ele>513.0</ele><time>2026-04-18T12:19:08.001Z</time></trkpt><trkpt lat="48.18082072992727" lon="11.563301858113126"><ele>513.0</ele><time>2026-04-18T12:19:09.001Z</time></trkpt><trkpt lat="48.180721124966006" lon="11.563346158846072"><ele>513.0</ele><time>2026-04-18T12:19:10.001Z</time></trkpt><trkpt lat="48.180620790936814" lon="11.563385604466"><ele>513.0</ele><time>2026-04-18T12:19:11.001Z</time></trkpt><trkpt lat="48.18051920190722" lon="11.563428471538353"><ele>513.0</ele><time>2026-04-18T12:19:12.001Z</time></trkpt><trkpt lat="48.18041643427474" lon="11.563471951720338"><ele>513.0</ele><time>2026-04-18T12:19:13.001Z</time></trkpt><trkpt lat="48.18031390945875" lon="11.56351285670151"><ele>513.0</ele><time>2026-04-18T12:19:14.001Z</time></trkpt><trkpt lat="48.18021155254204" lon="11.563550802330937"><ele>513.0</ele><time>2026-04-18T12:19:15.001Z</time></trkpt><trkpt lat="48.18010794489641" lon="11.563587685288427"><ele>513.0</ele><time>2026-04-18T12:19:16.001Z</time></trkpt><trkpt lat="48.18000929409503" lon="11.563624937607912"><ele>513.0</ele><time>2026-04-18T12:19:17.001Z</time></trkpt><trkpt lat="48.179910664198154" lon="11.563668052311813"><ele>513.0</ele><time>2026-04-18T12:19:18.001Z</time></trkpt><trkpt lat="48.17981522976796" lon="11.563709097554515"><ele>513.0</ele><time>2026-04-18T12:19:19.001Z</time></trkpt><trkpt lat="48.17971967331121" lon="11.563747591972547"><ele>513.0</ele><time>2026-04-18T12:19:20.001Z</time></trkpt><trkpt lat="48.179625755570804" lon="11.563784581822649"><ele>512.6</ele><time>2026-04-18T12:19:21.001Z</time></trkpt><trkpt lat="48.17953183659284" lon="11.563822452899773"><ele>512.1999999999999</ele><time>2026-04-18T12:19:22.001Z</time></trkpt><trkpt lat="48.17943720773382" lon="11.563864770692154"><ele>511.8</ele><time>2026-04-18T12:19:23.001Z</time></trkpt><trkpt lat="48.17934300334396" lon="11.563903939264222"><ele>511.4</ele><time>2026-04-18T12:19:24.001Z</time></trkpt><trkpt lat="48.179250296235516" lon="11.563946384821035"><ele>511.0</ele><time>2026-04-18T12:19:25.001Z</time></trkpt><trkpt lat="48.179158089759625" lon="11.563987092515015"><ele>511.00000000000006</ele><time>2026-04-18T12:19:26.001Z</time></trkpt><trkpt lat="48.1790701698022" lon="11.564027162743354"><ele>511.0</ele><time>2026-04-18T12:19:27.001Z</time></trkpt><trkpt lat="48.17899564901708" lon="11.564061265266664"><ele>511.0</ele><time>2026-04-18T12:19:28.001Z</time></trkpt><trkpt lat="48.17892517755641" lon="11.564096667434006"><ele>511.0</ele><time>2026-04-18T12:19:29.001Z</time></trkpt><trkpt lat="48.17886364368801" lon="11.564126066565551"><ele>511.00000000000006</ele><time>2026-04-18T12:19:30.001Z</time></trkpt><trkpt lat="48.178756453507255" lon="11.564173683527526"><ele>511.0</ele><time>2026-04-18T12:19:32.001Z</time></trkpt><trkpt lat="48.1786626433514" lon="11.564213502250974"><ele>511.1666666666667</ele><time>2026-04-18T12:19:34.001Z</time></trkpt><trkpt lat="48.17860060271117" lon="11.564247073807346"><ele>511.33333333333337</ele><time>2026-04-18T12:19:36.001Z</time></trkpt><trkpt lat="48.17867714517628" lon="11.564222981094394"><ele>511.5</ele><time>2026-04-18T12:19:46.001Z</time></trkpt><trkpt lat="48.178744492078096" lon="11.564190722586421"><ele>511.66666666666663</ele><time>2026-04-18T12:19:50.001Z</time></trkpt><trkpt lat="48.178814739715804" lon="11.5641707098293"><ele>511.8333333333333</ele><time>2026-04-18T12:20:36Z</time></trkpt><trkpt lat="48.17883984011339" lon="11.564260759001154"><ele>512.0</ele><time>2026-04-18T12:21:10Z</time></trkpt><trkpt lat="48.17885315474824" lon="11.56442563513546"><ele>511.99999999999994</ele><time>2026-04-18T12:21:37Z</time></trkpt><trkpt lat="48.1788282088875" lon="11.564274891093246"><ele>512.0</ele><time>2026-04-18T12:21:51Z</time></trkpt><trkpt lat="48.1787890398765" lon="11.564184912099444"><ele>512.0</ele><time>2026-04-18T12:21:54Z</time></trkpt><trkpt lat="48.17876312659258" lon="11.564279023294718"><ele>512.0</ele><time>2026-04-18T12:21:59Z</time></trkpt><trkpt lat="48.17869429869687" lon="11.564269600318285"><ele>511.99999999999994</ele><time>2026-04-18T12:22:01Z</time></trkpt><trkpt lat="48.17877984690838" lon="11.56425020379835"><ele>512.0</ele><time>2026-04-18T12:22:04Z</time></trkpt><trkpt lat="48.17884713857318" lon="11.564200042658502"><ele>512.0</ele><time>2026-04-18T12:22:47Z</time></trkpt><trkpt lat="48.178835589825674" lon="11.564080268163433"><ele>512.0</ele><time>2026-04-18T12:22:51Z</time></trkpt><trkpt lat="48.17881098110285" lon="11.563986290780319"><ele>512.0</ele><time>2026-04-18T12:22:54Z</time></trkpt><trkpt lat="48.1787031200259" lon="11.563960177295034"><ele>512.0</ele><time>2026-04-18T12:23:10Z</time></trkpt><trkpt lat="48.17875974240647" lon="11.563829757740642"><ele>512.0</ele><time>2026-04-18T12:23:12Z</time></trkpt><trkpt lat="48.178846359794456" lon="11.563725715123153"><ele>512.0</ele><time>2026-04-18T12:23:16Z</time></trkpt><trkpt lat="48.17888242836052" lon="11.563825167683193"><ele>512.0</ele><time>2026-04-18T12:23:18Z</time></trkpt><trkpt lat="48.17890527095249" lon="11.564028593668862"><ele>512.0</ele><time>2026-04-18T12:23:26Z</time></trkpt><trkpt lat="48.17893892345612" lon="11.564154090101429"><ele>512.0</ele><time>2026-04-18T12:23:28Z</time></trkpt><trkpt lat="48.17883510522644" lon="11.564260715283195"><ele>512.0</ele><time>2026-04-18T12:26:41.999Z</time></trkpt><trkpt lat="48.178902222358744" lon="11.564336681127685"><ele>512.0</ele><time>2026-04-18T12:28:53.999Z</time></trkpt><trkpt lat="48.1788545225426" lon="11.564170203621844"><ele>512.0</ele><time>2026-04-18T12:28:58.999Z</time></trkpt><trkpt lat="48.17890788470524" lon="11.56424546161885"><ele>512.0</ele><time>2026-04-18T12:29:17Z</time></trkpt><trkpt lat="48.17897884995833" lon="11.564333980361035"><ele>512.0</ele><time>2026-04-18T12:29:24Z</time></trkpt><trkpt lat="48.178983878729305" lon="11.564474721668889"><ele>512.0</ele><time>2026-04-18T12:29:26Z</time></trkpt></trkseg><trkseg><trkpt lat="47.67367216405706" lon="12.011710423842581"><ele>801.9999999999999</ele><time>2026-04-18T16:21:14.998Z</time></trkpt><trkpt lat="47.67369439137032" lon="12.011810733033924"><ele>802.0</ele><time>2026-04-18T16:22:06.001Z</time></trkpt><trkpt lat="47.673652080118224" lon="12.011724192664738"><ele>802.0</ele><time>2026-04-18T16:26:17.001Z</time></trkpt><trkpt lat="47.673710111414536" lon="12.011769849437856"><ele>802.0</ele><time>2026-04-18T16:26:25.001Z</time></trkpt><trkpt lat="47.67367542896471" lon="12.011689955530626"><ele>801.9999999999999</ele><time>2026-04-18T16:26:37.001Z</time></trkpt><trkpt lat="47.67364794996755" lon="12.011825440753757"><ele>802.0</ele><time>2026-04-18T16:27:58Z</time></trkpt><trkpt lat="47.67367044390756" lon="12.011689913979376"><ele>802.0</ele><time>2026-04-18T16:28:38.001Z</time></trkpt><trkpt lat="47.67368498537969" lon="12.011787676558559"><ele>802.0</ele><time>2026-04-18T16:28:46.001Z</time></trkpt><trkpt lat="47.67364678385151" lon="12.011862053655545"><ele>802.0</ele><time>2026-04-18T16:47:14Z</time></trkpt><trkpt lat="47.67367277581755" lon="12.011762883652962"><ele>802.0</ele><time>2026-04-18T16:56:54.999Z</time></trkpt><trkpt lat="47.673662013214994" lon="12.011858590377512"><ele>802.0</ele><time>2026-04-18T17:01:27Z</time></trkpt><trkpt lat="47.67372481175339" lon="12.011822125300483"><ele>802.0</ele><time>2026-04-18T17:05:13Z</time></trkpt><trkpt lat="47.67365855481931" lon="12.011809362109286"><ele>802.0</ele><time>2026-04-18T17:09:48Z</time></trkpt><trkpt lat="47.6737144431492" lon="12.011874312915312"><ele>801.9999999999999</ele><time>2026-04-18T17:17:03Z</time></trkpt><trkpt lat="47.67368719980598" lon="12.011786742694852"><ele>802.0</ele><time>2026-04-18T17:23:32Z</time></trkpt><trkpt lat="47.673620549533275" lon="12.011757083575965"><ele>802.0</ele><time>2026-04-18T17:23:35Z</time></trkpt><trkpt lat="47.67370263869568" lon="12.011841577331289"><ele>802.0</ele><time>2026-04-18T17:27:26Z</time></trkpt><trkpt lat="47.673730188613085" lon="12.011927590032089"><ele>801.9999999999999</ele><time>2026-04-18T17:29:49Z</time></trkpt><trkpt lat="47.673741342335624" lon="12.012042666176104"><ele>802.0</ele><time>2026-04-18T17:30:01Z</time></trkpt><trkpt lat="47.67374449920022" lon="12.012152049871645"><ele>801.9999999999999</ele><time>2026-04-18T17:30:03Z</time></trkpt><trkpt lat="47.673718992031105" lon="12.012058096430229"><ele>802.0</ele><time>2026-04-18T17:30:15Z</time></trkpt><trkpt lat="47.67371314522479" lon="12.012169019492891"><ele>802.0</ele><time>2026-04-18T17:30:23Z</time></trkpt><trkpt lat="47.673660325000476" lon="12.012349851092525"><ele>802.0</ele><time>2026-04-18T17:30:30Z</time></trkpt><trkpt lat="47.67372273466816" lon="12.012313700901682"><ele>801.9999999999999</ele><time>2026-04-18T17:30:33Z</time></trkpt><trkpt lat="47.67367345208462" lon="12.012213035723777"><ele>802.0</ele><time>2026-04-18T17:30:45Z</time></trkpt><trkpt lat="47.67365941290489" lon="12.012120707278088"><ele>802.0</ele><time>2026-04-18T17:31:02Z</time></trkpt><trkpt lat="47.673607767068106" lon="12.012062568298704"><ele>802.0</ele><time>2026-04-18T17:31:11Z</time></trkpt><trkpt lat="47.673545439176955" lon="12.012038518825674"><ele>802.0</ele><time>2026-04-18T17:31:29Z</time></trkpt><trkpt lat="47.67347489346309" lon="12.012021099933987"><ele>802.0</ele><time>2026-04-18T17:31:36Z</time></trkpt><trkpt lat="47.67354752985326" lon="12.012043241309938"><ele>802.0</ele><time>2026-04-18T17:32:41Z</time></trkpt><trkpt lat="47.67361357394817" lon="12.012048348200755"><ele>802.0</ele><time>2026-04-18T17:32:47Z</time></trkpt><trkpt lat="47.67364008379114" lon="12.012142047166762"><ele>802.0</ele><time>2026-04-18T17:35:35.001Z</time></trkpt><trkpt lat="47.673713179618034" lon="12.012226942013344"><ele>802.0</ele><time>2026-04-18T17:35:37.001Z</time></trkpt><trkpt lat="47.67380539870341" lon="12.012293295944648"><ele>802.0</ele><time>2026-04-18T17:35:39.001Z</time></trkpt><trkpt lat="47.67390101011215" lon="12.0123669426659"><ele>802.0</ele><time>2026-04-18T17:35:41.001Z</time></trkpt><trkpt lat="47.67397375308835" lon="12.012436400739528"><ele>802.0</ele><time>2026-04-18T17:35:43.001Z</time></trkpt><trkpt lat="47.674033932968115" lon="12.012501099200978"><ele>802.0</ele><time>2026-04-18T17:35:45.001Z</time></trkpt><trkpt lat="47.6741002332332" lon="12.012578881850255"><ele>801.8333333333333</ele><time>2026-04-18T17:35:48.001Z</time></trkpt><trkpt lat="47.67417735758371" lon="12.012627684031429"><ele>801.6666666666666</ele><time>2026-04-18T17:35:50.001Z</time></trkpt><trkpt lat="47.67425331252727" lon="12.012675601814312"><ele>801.5</ele><time>2026-04-18T17:35:53.001Z</time></trkpt><trkpt lat="47.674314939724276" lon="12.012737687552393"><ele>801.3333333333333</ele><time>2026-04-18T17:35:56.001Z</time></trkpt><trkpt lat="47.67433187499201" lon="12.012834829574246"><ele>801.1666666666666</ele><time>2026-04-18T17:35:58.001Z</time></trkpt><trkpt lat="47.67426193137191" lon="12.01298017245481"><ele>801.0</ele><time>2026-04-18T17:36:00.001Z</time></trkpt><trkpt lat="47.674226125811394" lon="12.013065886515177"><ele>801.0</ele><time>2026-04-18T17:36:01.001Z</time></trkpt><trkpt lat="47.674169481275584" lon="12.013130648179027"><ele>801.0</ele><time>2026-04-18T17:36:02.001Z</time></trkpt><trkpt lat="47.67410886157531" lon="12.013269526682844"><ele>801.0</ele><time>2026-04-18T17:36:04.001Z</time></trkpt><trkpt lat="47.674054276883915" lon="12.01339375284662"><ele>801.0</ele><time>2026-04-18T17:36:06.001Z</time></trkpt><trkpt lat="47.6740150131803" lon="12.013505588222394"><ele>801.0</ele><time>2026-04-18T17:36:08.001Z</time></trkpt><trkpt lat="47.67398013012639" lon="12.013618304894559"><ele>801.0</ele><time>2026-04-18T17:36:10.001Z</time></trkpt><trkpt lat="47.67395525879625" lon="12.013734122221045"><ele>801.0</ele><time>2026-04-18T17:36:13.001Z</time></trkpt><trkpt lat="47.67388615543836" lon="12.013822531302935"><ele>801.0</ele><time>2026-04-18T17:36:16.001Z</time></trkpt><trkpt lat="47.67381918843977" lon="12.01390165305185"><ele>801.0</ele><time>2026-04-18T17:36:19.001Z</time></trkpt><trkpt lat="47.67374874773351" lon="12.013986128657764"><ele>801.0</ele><time>2026-04-18T17:36:22.001Z</time></trkpt><trkpt lat="47.673690076278135" lon="12.014046325492018"><ele>801.0</ele><time>2026-04-18T17:36:24.001Z</time></trkpt><trkpt lat="47.67362676012798" lon="12.014066645672889"><ele>801.0</ele><time>2026-04-18T17:36:26.001Z</time></trkpt><trkpt lat="47.6735498310004" lon="12.014075882050657"><ele>801.0</ele><time>2026-04-18T17:36:28.001Z</time></trkpt><trkpt lat="47.673480361712585" lon="12.014077238484292"><ele>801.0</ele><time>2026-04-18T17:36:30.001Z</time></trkpt><trkpt lat="47.67341013925596" lon="12.01406586356896"><ele>801.0</ele><time>2026-04-18T17:36:32.001Z</time></trkpt><trkpt lat="47.673334407613766" lon="12.014049378521419"><ele>801.0</ele><time>2026-04-18T17:36:34.001Z</time></trkpt><trkpt lat="47.67326329628176" lon="12.014024268925043"><ele>801.0</ele><time>2026-04-18T17:36:36.001Z</time></trkpt><trkpt lat="47.67318959244158" lon="12.014001435410336"><ele>801.0</ele><time>2026-04-18T17:36:38.001Z</time></trkpt><trkpt lat="47.67310002592505" lon="12.01399400728676"><ele>801.0</ele><time>2026-04-18T17:36:40.001Z</time></trkpt><trkpt lat="47.67299570452419" lon="12.013985429377582"><ele>801.0</ele><time>2026-04-18T17:36:42.001Z</time></trkpt><trkpt lat="47.672863611219135" lon="12.013992587675718"><ele>801.0</ele><time>2026-04-18T17:36:44.001Z</time></trkpt><trkpt lat="47.672771949269055" lon="12.014003188992472"><ele>801.0</ele><time>2026-04-18T17:36:45.001Z</time></trkpt><trkpt lat="47.67267602000639" lon="12.014020008978763"><ele>801.0</ele><time>2026-04-18T17:36:46.001Z</time></trkpt><trkpt lat="47.67257665723839" lon="12.014055933689383"><ele>800.6666666666666</ele><time>2026-04-18T17:36:47.001Z</time></trkpt><trkpt lat="47.672487414993796" lon="12.014088858842964"><ele>800.3333333333333</ele><time>2026-04-18T17:36:48.001Z</time></trkpt><trkpt lat="47.67240275413837" lon="12.01413949743039"><ele>800.0</ele><time>2026-04-18T17:36:49.001Z</time></trkpt><trkpt lat="47.67232519705909" lon="12.014189428328098"><ele>799.6666666666666</ele><time>2026-04-18T17:36:50.001Z</time></trkpt><trkpt lat="47.67225328366665" lon="12.01423095118874"><ele>799.3333333333333</ele><time>2026-04-18T17:36:51.001Z</time></trkpt><trkpt lat="47.672184283054634" lon="12.014269554360592"><ele>799.0</ele><time>2026-04-18T17:36:52.001Z</time></trkpt><trkpt lat="47.67211589831455" lon="12.014309190442242"><ele>798.9999999999999</ele><time>2026-04-18T17:36:53.001Z</time></trkpt><trkpt lat="47.67205439944857" lon="12.014342469060992"><ele>799.0</ele><time>2026-04-18T17:36:54.001Z</time></trkpt><trkpt lat="47.67199410196308" lon="12.014379400242506"><ele>799.0</ele><time>2026-04-18T17:36:55.001Z</time></trkpt><trkpt lat="47.6719037377735" lon="12.014434176225464"><ele>799.0</ele><time>2026-04-18T17:36:57.001Z</time></trkpt><trkpt lat="47.671811552289206" lon="12.014489089492123"><ele>798.9999999999999</ele><time>2026-04-18T17:36:59.001Z</time></trkpt><trkpt lat="47.67174026746743" lon="12.014527150875459"><ele>799.0</ele><time>2026-04-18T17:37:01.001Z</time></trkpt><trkpt lat="47.67168031567205" lon="12.014564492815394"><ele>798.8333333333333</ele><time>2026-04-18T17:37:03.001Z</time></trkpt><trkpt lat="47.67161281457482" lon="12.014583972279796"><ele>798.6666666666666</ele><time>2026-04-18T17:37:06.001Z</time></trkpt><trkpt lat="47.67155070036119" lon="12.014606202170633"><ele>798.5</ele><time>2026-04-18T17:37:16.001Z</time></trkpt><trkpt lat="47.6714866453719" lon="12.01468770634277"><ele>798.3333333333333</ele><time>2026-04-18T17:37:21.001Z</time></trkpt><trkpt lat="47.6714687402606" lon="12.014791896977561"><ele>798.1666666666666</ele><time>2026-04-18T17:37:22.001Z</time></trkpt><trkpt lat="47.671457653845536" lon="12.014925539425334"><ele>798.0</ele><time>2026-04-18T17:37:23.001Z</time></trkpt><trkpt lat="47.67141897471558" lon="12.01504838161909"><ele>798.0</ele><time>2026-04-18T17:37:24.001Z</time></trkpt><trkpt lat="47.67140547184964" lon="12.015182817587132"><ele>798.0</ele><time>2026-04-18T17:37:25.001Z</time></trkpt><trkpt lat="47.67140492934612" lon="12.01534771980601"><ele>798.0</ele><time>2026-04-18T17:37:26.001Z</time></trkpt><trkpt lat="47.67138618513831" lon="12.015526915440022"><ele>798.0</ele><time>2026-04-18T17:37:27.001Z</time></trkpt><trkpt lat="47.67135246722186" lon="12.015715536063095"><ele>798.75</ele><time>2026-04-18T17:37:28.001Z</time></trkpt><trkpt lat="47.67134650539047" lon="12.015910395917322"><ele>799.5</ele><time>2026-04-18T17:37:29.001Z</time></trkpt><trkpt lat="47.67132186466051" lon="12.0161009695437"><ele>800.25</ele><time>2026-04-18T17:37:30.001Z</time></trkpt><trkpt lat="47.6712947005167" lon="12.01630570109898"><ele>801.0</ele><time>2026-04-18T17:37:31.001Z</time></trkpt><trkpt lat="47.671269114548544" lon="12.016540426791199"><ele>799.75</ele><time>2026-04-18T17:37:32.001Z</time></trkpt><trkpt lat="47.671244545580365" lon="12.016766012730638"><ele>798.5</ele><time>2026-04-18T17:37:33.001Z</time></trkpt><trkpt lat="47.67122670581135" lon="12.016978753392907"><ele>797.25</ele><time>2026-04-18T17:37:34.001Z</time></trkpt><trkpt lat="47.67120438365269" lon="12.017182380938264"><ele>796.0</ele><time>2026-04-18T17:37:35.001Z</time></trkpt><trkpt lat="47.67118456600872" lon="12.01739065467024"><ele>796.0</ele><time>2026-04-18T17:37:36.001Z</time></trkpt><trkpt lat="47.67116339606664" lon="12.017600230300856"><ele>796.0</ele><time>2026-04-18T17:37:37.001Z</time></trkpt><trkpt lat="47.67114296870963" lon="12.017807928139812"><ele>796.0</ele><time>2026-04-18T17:37:38.001Z</time></trkpt><trkpt lat="47.67112523988874" lon="12.018010913128238"><ele>796.0</ele><time>2026-04-18T17:37:39.001Z</time></trkpt><trkpt lat="47.67111620857373" lon="12.018210610619839"><ele>796.75</ele><time>2026-04-18T17:37:40.001Z</time></trkpt><trkpt lat="47.67111474930734" lon="12.018405704699235"><ele>797.5</ele><time>2026-04-18T17:37:41.001Z</time></trkpt><trkpt lat="47.67113432844043" lon="12.01859094540705"><ele>798.25</ele><time>2026-04-18T17:37:42.001Z</time></trkpt><trkpt lat="47.67117212059033" lon="12.01876825957517"><ele>799.0</ele><time>2026-04-18T17:37:43.001Z</time></trkpt><trkpt lat="47.671226960621254" lon="12.018937779817739"><ele>799.0</ele><time>2026-04-18T17:37:44.001Z</time></trkpt><trkpt lat="47.67129652196054" lon="12.019090628635457"><ele>799.0</ele><time>2026-04-18T17:37:45.001Z</time></trkpt><trkpt lat="47.67137833872739" lon="12.019227190191565"><ele>799.0</ele><time>2026-04-18T17:37:46.001Z</time></trkpt><trkpt lat="47.67147088623964" lon="12.019353412079225"><ele>799.0</ele><time>2026-04-18T17:37:47.001Z</time></trkpt><trkpt lat="47.67157576907383" lon="12.019458631676892"><ele>799.75</ele><time>2026-04-18T17:37:48.001Z</time></trkpt><trkpt lat="47.67169038359549" lon="12.019542190056185"><ele>800.5</ele><time>2026-04-18T17:37:49.001Z</time></trkpt><trkpt lat="47.671806484933434" lon="12.01961065471373"><ele>801.25</ele><time>2026-04-18T17:37:50.001Z</time></trkpt><trkpt lat="47.67192479123729" lon="12.019673462016952"><ele>802.0</ele><time>2026-04-18T17:37:51.001Z</time></trkpt><trkpt lat="47.67205093335267" lon="12.0197409301005"><ele>803.5</ele><time>2026-04-18T17:37:52.001Z</time></trkpt><trkpt lat="47.672182153597234" lon="12.019809551876582"><ele>805.0</ele><time>2026-04-18T17:37:53.001Z</time></trkpt><trkpt lat="47.67231540403144" lon="12.019879398109888"><ele>806.5</ele><time>2026-04-18T17:37:54.001Z</time></trkpt><trkpt lat="47.67243588081337" lon="12.019944914225773"><ele>808.0</ele><time>2026-04-18T17:37:55.001Z</time></trkpt><trkpt lat="47.67255225403475" lon="12.020006622301867"><ele>808.5</ele><time>2026-04-18T17:37:56.001Z</time></trkpt><trkpt lat="47.672671830714286" lon="12.02007114620106"><ele>809.0</ele><time>2026-04-18T17:37:57.001Z</time></trkpt><trkpt lat="47.67279974118548" lon="12.02013911339642"><ele>809.5</ele><time>2026-04-18T17:37:58.001Z</time></trkpt><trkpt lat="47.67292623721588" lon="12.020208984414321"><ele>810.0</ele><time>2026-04-18T17:37:59.001Z</time></trkpt><trkpt lat="47.67305810208488" lon="12.02027796472638"><ele>810.25</ele><time>2026-04-18T17:38:00.001Z</time></trkpt><trkpt lat="47.67318915204699" lon="12.020350730880692"><ele>810.5</ele><time>2026-04-18T17:38:01.001Z</time></trkpt><trkpt lat="47.673321392746026" lon="12.020422566618267"><ele>810.75</ele><time>2026-04-18T17:38:02.001Z</time></trkpt><trkpt lat="47.67345231833433" lon="12.020492875724218"><ele>811.0</ele><time>2026-04-18T17:38:03.001Z</time></trkpt><trkpt lat="47.673585509504136" lon="12.020563789486943"><ele>812.75</ele><time>2026-04-18T17:38:04.001Z</time></trkpt><trkpt lat="47.67371540201745" lon="12.020634080115896"><ele>814.5</ele><time>2026-04-18T17:38:05.001Z</time></trkpt><trkpt lat="47.67384294783379" lon="12.020702802551536"><ele>816.25</ele><time>2026-04-18T17:38:06.001Z</time></trkpt><trkpt lat="47.67396793922306" lon="12.020768710256068"><ele>818.0</ele><time>2026-04-18T17:38:07.001Z</time></trkpt><trkpt lat="47.674090837023" lon="12.020832757172167"><ele>819.0</ele><time>2026-04-18T17:38:08.001Z</time></trkpt><trkpt lat="47.67421284554457" lon="12.020893919088998"><ele>820.0</ele><time>2026-04-18T17:38:09.001Z</time></trkpt><trkpt lat="47.674334420591954" lon="12.020957019917253"><ele>821.0</ele><time>2026-04-18T17:38:10.001Z</time></trkpt><trkpt lat="47.674454103387426" lon="12.021022099062748"><ele>822.0</ele><time>2026-04-18T17:38:11.001Z</time></trkpt><trkpt lat="47.67457154587717" lon="12.021087017287313"><ele>823.25</ele><time>2026-04-18T17:38:12.001Z</time></trkpt><trkpt lat="47.67469098217301" lon="12.02114993090096"><ele>824.5</ele><time>2026-04-18T17:38:13.001Z</time></trkpt><trkpt lat="47.674811218107074" lon="12.02120555487738"><ele>825.75</ele><time>2026-04-18T17:38:14.001Z</time></trkpt><trkpt lat="47.674923176169926" lon="12.02124311460961"><ele>827.0</ele><time>2026-04-18T17:38:15.001Z</time></trkpt><trkpt lat="47.67504112536297" lon="12.02126824198617"><ele>827.0</ele><time>2026-04-18T17:38:16.001Z</time></trkpt><trkpt lat="47.67515317987331" lon="12.021283252027642"><ele>827.0</ele><time>2026-04-18T17:38:17.001Z</time></trkpt><trkpt lat="47.67526163457518" lon="12.021289008049584"><ele>827.0</ele><time>2026-04-18T17:38:18.001Z</time></trkpt><trkpt lat="47.67536972980949" lon="12.021284129413305"><ele>827.0</ele><time>2026-04-18T17:38:19.001Z</time></trkpt><trkpt lat="47.67548004404309" lon="12.021267542111651"><ele>827.0</ele><time>2026-04-18T17:38:20.001Z</time></trkpt><trkpt lat="47.675595005151386" lon="12.02123496977955"><ele>828.6</ele><time>2026-04-18T17:38:21.001Z</time></trkpt><trkpt lat="47.67570413360984" lon="12.021197372364469"><ele>830.2</ele><time>2026-04-18T17:38:22.001Z</time></trkpt><trkpt lat="47.67581061104139" lon="12.021155118174217"><ele>831.8</ele><time>2026-04-18T17:38:23.001Z</time></trkpt><trkpt lat="47.67591640028438" lon="12.021108971302873"><ele>833.4</ele><time>2026-04-18T17:38:24.001Z</time></trkpt><trkpt lat="47.67602190108195" lon="12.021050133129767"><ele>835.0</ele><time>2026-04-18T17:38:25.001Z</time></trkpt><trkpt lat="47.67612433992223" lon="12.020985814952022"><ele>836.75</ele><time>2026-04-18T17:38:26.001Z</time></trkpt><trkpt lat="47.67622589070136" lon="12.020922185372234"><ele>838.5</ele><time>2026-04-18T17:38:27.001Z</time></trkpt><trkpt lat="47.67633562129143" lon="12.02085380562312"><ele>840.25</ele><time>2026-04-18T17:38:28.001Z</time></trkpt><trkpt lat="47.676452505647966" lon="12.020784251108067"><ele>842.0</ele><time>2026-04-18T17:38:29.001Z</time></trkpt><trkpt lat="47.67657066464159" lon="12.020712978278501"><ele>842.0</ele><time>2026-04-18T17:38:30.001Z</time></trkpt><trkpt lat="47.67669037658689" lon="12.020642058308654"><ele>842.0</ele><time>2026-04-18T17:38:31.001Z</time></trkpt><trkpt lat="47.67681116994719" lon="12.02056675892922"><ele>842.0</ele><time>2026-04-18T17:38:32.001Z</time></trkpt><trkpt lat="47.67693084721955" lon="12.020489761119958"><ele>842.0</ele><time>2026-04-18T17:38:33.001Z</time></trkpt><trkpt lat="47.67704385318275" lon="12.020413796766018"><ele>846.0</ele><time>2026-04-18T17:38:34Z</time></trkpt><trkpt lat="47.677147299972816" lon="12.02033037247285"><ele>850.0</ele><time>2026-04-18T17:38:35Z</time></trkpt><trkpt lat="47.67724410583127" lon="12.020236856473655"><ele>854.0</ele><time>2026-04-18T17:38:36Z</time></trkpt><trkpt lat="47.677338384672815" lon="12.02013180035397"><ele>858.0</ele><time>2026-04-18T17:38:37Z</time></trkpt><trkpt lat="47.677435275081706" lon="12.0200297617817"><ele>856.5</ele><time>2026-04-18T17:38:38Z</time></trkpt><trkpt lat="47.67753325961149" lon="12.019928069420505"><ele>855.0</ele><time>2026-04-18T17:38:39Z</time></trkpt><trkpt lat="47.677628428252845" lon="12.019824334625431"><ele>853.5</ele><time>2026-04-18T17:38:40Z</time></trkpt><trkpt lat="47.67772393610621" lon="12.019717831878802"><ele>852.0</ele><time>2026-04-18T17:38:41Z</time></trkpt><trkpt lat="47.67782216729835" lon="12.01961394956117"><ele>855.0</ele><time>2026-04-18T17:38:42Z</time></trkpt><trkpt lat="47.67792060375761" lon="12.01950972234284"><ele>858.0</ele><time>2026-04-18T17:38:43Z</time></trkpt><trkpt lat="47.678008848322264" lon="12.01941423212283"><ele>861.0</ele><time>2026-04-18T17:38:44Z</time></trkpt><trkpt lat="47.67808898880632" lon="12.019323319041774"><ele>864.0</ele><time>2026-04-18T17:38:45Z</time></trkpt><trkpt lat="47.67817114576787" lon="12.019231852874947"><ele>867.0</ele><time>2026-04-18T17:38:46Z</time></trkpt><trkpt lat="47.678239408203495" lon="12.019150724452802"><ele>867.0</ele><time>2026-04-18T17:38:47Z</time></trkpt><trkpt lat="47.67828961483546" lon="12.019088946569301"><ele>867.0</ele><time>2026-04-18T17:38:48Z</time></trkpt><trkpt lat="47.67833610862456" lon="12.019016363043479"><ele>867.0</ele><time>2026-04-18T17:38:49Z</time></trkpt><trkpt lat="47.678389717126905" lon="12.018933294309917"><ele>867.0</ele><time>2026-04-18T17:38:50Z</time></trkpt><trkpt lat="47.67844105747357" lon="12.018839290522711"><ele>867.0</ele><time>2026-04-18T17:38:51Z</time></trkpt><trkpt lat="47.678492487410615" lon="12.018735909881903"><ele>867.0</ele><time>2026-04-18T17:38:52Z</time></trkpt><trkpt lat="47.67854301975429" lon="12.018608704824842"><ele>867.0</ele><time>2026-04-18T17:38:53Z</time></trkpt><trkpt lat="47.67858771698281" lon="12.018453215266847"><ele>867.0</ele><time>2026-04-18T17:38:54Z</time></trkpt><trkpt lat="47.67862917950869" lon="12.018272554005401"><ele>867.0</ele><time>2026-04-18T17:38:55Z</time></trkpt><trkpt lat="47.6786716174409" lon="12.018087979017933"><ele>867.0</ele><time>2026-04-18T17:38:56Z</time></trkpt><trkpt lat="47.67871195487256" lon="12.017899565619352"><ele>874.5</ele><time>2026-04-18T17:38:57Z</time></trkpt><trkpt lat="47.67875013829008" lon="12.017723378628832"><ele>882.0</ele><time>2026-04-18T17:38:58Z</time></trkpt><trkpt lat="47.67877691496184" lon="12.017559742940238"><ele>889.5</ele><time>2026-04-18T17:38:59Z</time></trkpt><trkpt lat="47.67880752220173" lon="12.017389335192341"><ele>897.0</ele><time>2026-04-18T17:39:00Z</time></trkpt><trkpt lat="47.678838974971164" lon="12.017247147650895"><ele>899.0</ele><time>2026-04-18T17:39:01Z</time></trkpt><trkpt lat="47.67886433827938" lon="12.017106882539814"><ele>901.0</ele><time>2026-04-18T17:39:02Z</time></trkpt><trkpt lat="47.6788934143359" lon="12.01697654265822"><ele>903.0</ele><time>2026-04-18T17:39:03Z</time></trkpt><trkpt lat="47.67891713307965" lon="12.016842557678382"><ele>905.0</ele><time>2026-04-18T17:39:04Z</time></trkpt><trkpt lat="47.678925042854075" lon="12.016702365997672"><ele>907.0</ele><time>2026-04-18T17:39:05Z</time></trkpt><trkpt lat="47.67890194065124" lon="12.016551812417783"><ele>909.6</ele><time>2026-04-18T17:39:06Z</time></trkpt><trkpt lat="47.67886025831829" lon="12.016405172431545"><ele>912.2</ele><time>2026-04-18T17:39:07Z</time></trkpt><trkpt lat="47.67879941879046" lon="12.016267500448516"><ele>914.8</ele><time>2026-04-18T17:39:08Z</time></trkpt><trkpt lat="47.67872568387557" lon="12.016137458516447"><ele>917.4</ele><time>2026-04-18T17:39:09Z</time></trkpt><trkpt lat="47.67865742524336" lon="12.016017262170312"><ele>920.0</ele><time>2026-04-18T17:39:10Z</time></trkpt><trkpt lat="47.67861949639443" lon="12.015865805852517"><ele>915.25</ele><time>2026-04-18T17:39:11Z</time></trkpt><trkpt lat="47.678590891261635" lon="12.015712260456723"><ele>910.5</ele><time>2026-04-18T17:39:12Z</time></trkpt><trkpt lat="47.6785757680574" lon="12.015549874594297"><ele>905.75</ele><time>2026-04-18T17:39:13Z</time></trkpt><trkpt lat="47.67857355396709" lon="12.015379484073096"><ele>901.0</ele><time>2026-04-18T17:39:14Z</time></trkpt><trkpt lat="47.678588843222556" lon="12.01519803449693"><ele>904.0</ele><time>2026-04-18T17:39:15Z</time></trkpt><trkpt lat="47.678627833886004" lon="12.015030305706354"><ele>907.0</ele><time>2026-04-18T17:39:16Z</time></trkpt><trkpt lat="47.6786840945421" lon="12.014877357845336"><ele>910.0</ele><time>2026-04-18T17:39:17Z</time></trkpt><trkpt lat="47.67875921917221" lon="12.014734274053602"><ele>913.0</ele><time>2026-04-18T17:39:18Z</time></trkpt><trkpt lat="47.6788470058688" lon="12.014616730665297"><ele>913.0</ele><time>2026-04-18T17:39:19Z</time></trkpt><trkpt lat="47.67894696016538" lon="12.01451509913076"><ele>913.0</ele><time>2026-04-18T17:39:20Z</time></trkpt><trkpt lat="47.679048076162054" lon="12.014413956834598"><ele>913.0</ele><time>2026-04-18T17:39:21Z</time></trkpt><trkpt lat="47.679136332098004" lon="12.014326492114497"><ele>913.0</ele><time>2026-04-18T17:39:22Z</time></trkpt><trkpt lat="47.67921564827555" lon="12.014257461845798"><ele>913.0</ele><time>2026-04-18T17:39:23Z</time></trkpt><trkpt lat="47.67928482754525" lon="12.014201350420299"><ele>911.5999999999999</ele><time>2026-04-18T17:39:24Z</time></trkpt><trkpt lat="47.679356068785665" lon="12.014141884528266"><ele>910.1999999999999</ele><time>2026-04-18T17:39:25Z</time></trkpt><trkpt lat="47.679435401503284" lon="12.014078315994876"><ele>908.8</ele><time>2026-04-18T17:39:26Z</time></trkpt><trkpt lat="47.679523703630224" lon="12.014014811230746"><ele>907.4</ele><time>2026-04-18T17:39:27Z</time></trkpt><trkpt lat="47.67962073941001" lon="12.013954002761599"><ele>906.0</ele><time>2026-04-18T17:39:28Z</time></trkpt><trkpt lat="47.67972067832897" lon="12.013892562676913"><ele>906.0</ele><time>2026-04-18T17:39:29Z</time></trkpt><trkpt lat="47.67980438596233" lon="12.013842189664159"><ele>906.0</ele><time>2026-04-18T17:39:30Z</time></trkpt><trkpt lat="47.67988546540185" lon="12.013796694759892"><ele>906.0</ele><time>2026-04-18T17:39:31Z</time></trkpt><trkpt lat="47.67996603865248" lon="12.013756489373717"><ele>906.0</ele><time>2026-04-18T17:39:32Z</time></trkpt><trkpt lat="47.680048716414106" lon="12.01371990115503"><ele>906.0</ele><time>2026-04-18T17:39:33Z</time></trkpt><trkpt lat="47.68013195671086" lon="12.013685073734312"><ele>906.0</ele><time>2026-04-18T17:39:34Z</time></trkpt><trkpt lat="47.68021943335691" lon="12.013653999161596"><ele>908.4</ele><time>2026-04-18T17:39:35Z</time></trkpt><trkpt lat="47.68031080004897" lon="12.013625191943673"><ele>910.8</ele><time>2026-04-18T17:39:36Z</time></trkpt><trkpt lat="47.680406540900265" lon="12.013599167667136"><ele>913.1999999999999</ele><time>2026-04-18T17:39:37Z</time></trkpt><trkpt lat="47.680502907376905" lon="12.013572872690062"><ele>915.5999999999999</ele><time>2026-04-18T17:39:38Z</time></trkpt><trkpt lat="47.68059697521212" lon="12.01355345124331"><ele>918.0</ele><time>2026-04-18T17:39:39Z</time></trkpt><trkpt lat="47.68068976305451" lon="12.013540205051713"><ele>918.0</ele><time>2026-04-18T17:39:40Z</time></trkpt><trkpt lat="47.680781919741854" lon="12.01352363109941"><ele>918.0</ele><time>2026-04-18T17:39:41Z</time></trkpt><trkpt lat="47.68087265074556" lon="12.013512648863605"><ele>918.0</ele><time>2026-04-18T17:39:42Z</time></trkpt><trkpt lat="47.68096673119749" lon="12.013510247978065"><ele>918.0</ele><time>2026-04-18T17:39:43Z</time></trkpt><trkpt lat="47.681061250329414" lon="12.013512395223316"><ele>918.0</ele><time>2026-04-18T17:39:44Z</time></trkpt><trkpt lat="47.68116323822002" lon="12.01352327214415"><ele>918.5999999999999</ele><time>2026-04-18T17:39:45Z</time></trkpt><trkpt lat="47.68127016231979" lon="12.013544915278464"><ele>919.1999999999999</ele><time>2026-04-18T17:39:46Z</time></trkpt><trkpt lat="47.68137710043304" lon="12.01357476762263"><ele>919.8</ele><time>2026-04-18T17:39:47Z</time></trkpt><trkpt lat="47.68147185371323" lon="12.013610861323668"><ele>920.4</ele><time>2026-04-18T17:39:48Z</time></trkpt><trkpt lat="47.681556816751645" lon="12.013646685186147"><ele>921.0</ele><time>2026-04-18T17:39:49Z</time></trkpt><trkpt lat="47.68162470574375" lon="12.013673644825433"><ele>921.0</ele><time>2026-04-18T17:39:50Z</time></trkpt><trkpt lat="47.68168792409888" lon="12.013702575541355"><ele>921.0</ele><time>2026-04-18T17:39:51Z</time></trkpt><trkpt lat="47.68175480279986" lon="12.013733551665885"><ele>921.0</ele><time>2026-04-18T17:39:52Z</time></trkpt><trkpt lat="47.6818345433305" lon="12.013765341463566"><ele>921.0</ele><time>2026-04-18T17:39:53Z</time></trkpt><trkpt lat="47.681933036182805" lon="12.013805613510366"><ele>921.0</ele><time>2026-04-18T17:39:54Z</time></trkpt><trkpt lat="47.68205494564102" lon="12.013857356769215"><ele>921.0</ele><time>2026-04-18T17:39:55Z</time></trkpt><trkpt lat="47.68218896225266" lon="12.013911589230203"><ele>922.0</ele><time>2026-04-18T17:39:56Z</time></trkpt><trkpt lat="47.682294302352624" lon="12.013954754427184"><ele>923.0</ele><time>2026-04-18T17:39:57Z</time></trkpt><trkpt lat="47.682382847501366" lon="12.013992938342584"><ele>924.0</ele><time>2026-04-18T17:39:58Z</time></trkpt><trkpt lat="47.682456273302385" lon="12.014029428018787"><ele>925.0</ele><time>2026-04-18T17:39:59Z</time></trkpt><trkpt lat="47.68251156145027" lon="12.014076343803136"><ele>926.0</ele><time>2026-04-18T17:40:00Z</time></trkpt><trkpt lat="47.682544204154254" lon="12.01415966339825"><ele>927.0</ele><time>2026-04-18T17:40:01Z</time></trkpt><trkpt lat="47.68253809360143" lon="12.014269590400097"><ele>929.4000000000001</ele><time>2026-04-18T17:40:02Z</time></trkpt><trkpt lat="47.682489376439435" lon="12.014357550892727"><ele>931.8000000000001</ele><time>2026-04-18T17:40:03Z</time></trkpt><trkpt lat="47.68240726023893" lon="12.014383812533161"><ele>934.2</ele><time>2026-04-18T17:40:04Z</time></trkpt><trkpt lat="47.682308112835784" lon="12.014341173715358"><ele>936.6</ele><time>2026-04-18T17:40:05Z</time></trkpt><trkpt lat="47.682201972565245" lon="12.014258229799871"><ele>939.0</ele><time>2026-04-18T17:40:06Z</time></trkpt><trkpt lat="47.682060422389" lon="12.014163716221216"><ele>934.5</ele><time>2026-04-18T17:40:07Z</time></trkpt><trkpt lat="47.68192861796792" lon="12.014089879553703"><ele>930.0</ele><time>2026-04-18T17:40:08Z</time></trkpt><trkpt lat="47.681791063235714" lon="12.01401695366912"><ele>925.5</ele><time>2026-04-18T17:40:09Z</time></trkpt><trkpt lat="47.681664400287005" lon="12.0139703125426"><ele>921.0</ele><time>2026-04-18T17:40:10Z</time></trkpt><trkpt lat="47.68153851124629" lon="12.013954762307833"><ele>921.0</ele><time>2026-04-18T17:40:11Z</time></trkpt><trkpt lat="47.68140028955087" lon="12.013959887513275"><ele>921.0</ele><time>2026-04-18T17:40:12Z</time></trkpt><trkpt lat="47.68126220816696" lon="12.013989212898798"><ele>921.0</ele><time>2026-04-18T17:40:13Z</time></trkpt><trkpt lat="47.681133699490196" lon="12.014055875788364"><ele>921.0</ele><time>2026-04-18T17:40:14Z</time></trkpt><trkpt lat="47.68101156624687" lon="12.014122317874014"><ele>920.4</ele><time>2026-04-18T17:40:15Z</time></trkpt><trkpt lat="47.68089458855888" lon="12.01414822435056"><ele>919.8</ele><time>2026-04-18T17:40:16Z</time></trkpt><trkpt lat="47.68079165869311" lon="12.014187941296264"><ele>919.1999999999999</ele><time>2026-04-18T17:40:17Z</time></trkpt><trkpt lat="47.680699104697474" lon="12.014224825407805"><ele>918.5999999999999</ele><time>2026-04-18T17:40:18Z</time></trkpt><trkpt lat="47.68060142613612" lon="12.014286550931182"><ele>918.0</ele><time>2026-04-18T17:40:19Z</time></trkpt><trkpt lat="47.68050840343442" lon="12.014313024716397"><ele>921.8</ele><time>2026-04-18T17:40:20Z</time></trkpt><trkpt lat="47.68041579597503" lon="12.014347899056594"><ele>925.5999999999999</ele><time>2026-04-18T17:40:21Z</time></trkpt><trkpt lat="47.68032140471683" lon="12.014379231949764"><ele>929.4000000000001</ele><time>2026-04-18T17:40:22Z</time></trkpt><trkpt lat="47.68024133205016" lon="12.01440865888939"><ele>933.2</ele><time>2026-04-18T17:40:23Z</time></trkpt><trkpt lat="47.680153649886094" lon="12.014441118129072"><ele>937.0</ele><time>2026-04-18T17:40:24Z</time></trkpt><trkpt lat="47.68007068334526" lon="12.014490313706917"><ele>937.0</ele><time>2026-04-18T17:40:25Z</time></trkpt><trkpt lat="47.68000313964399" lon="12.014563957044226"><ele>937.0</ele><time>2026-04-18T17:40:26Z</time></trkpt><trkpt lat="47.67995577148668" lon="12.014666470415877"><ele>937.0</ele><time>2026-04-18T17:40:27Z</time></trkpt><trkpt lat="47.6799331535497" lon="12.014801717526108"><ele>937.0</ele><time>2026-04-18T17:40:28Z</time></trkpt><trkpt lat="47.67994331608162" lon="12.014943521565765"><ele>937.0</ele><time>2026-04-18T17:40:29Z</time></trkpt><trkpt lat="47.67998007070505" lon="12.015070558548224"><ele>940.2</ele><time>2026-04-18T17:40:30Z</time></trkpt><trkpt lat="47.68004113037749" lon="12.015171266457402"><ele>943.4000000000001</ele><time>2026-04-18T17:40:31Z</time></trkpt><trkpt lat="47.680124644410704" lon="12.015226698628817"><ele>946.5999999999999</ele><time>2026-04-18T17:40:32Z</time></trkpt><trkpt lat="47.68021810707766" lon="12.015250608881365"><ele>949.8</ele><time>2026-04-18T17:40:33Z</time></trkpt><trkpt lat="47.68031944353587" lon="12.015214203812196"><ele>953.0</ele><time>2026-04-18T17:40:34Z</time></trkpt><trkpt lat="47.680424153682324" lon="12.01513160918249"><ele>952.0</ele><time>2026-04-18T17:40:35Z</time></trkpt><trkpt lat="47.68052722868345" lon="12.014992087432235"><ele>951.0</ele><time>2026-04-18T17:40:36Z</time></trkpt><trkpt lat="47.68063473687151" lon="12.014849082862602"><ele>950.0</ele><time>2026-04-18T17:40:37Z</time></trkpt><trkpt lat="47.68074246112393" lon="12.01473445990481"><ele>949.0</ele><time>2026-04-18T17:40:38Z</time></trkpt><trkpt lat="47.68085594925642" lon="12.014651953365165"><ele>949.0</ele><time>2026-04-18T17:40:39Z</time></trkpt><trkpt lat="47.68097416495037" lon="12.014623169268155"><ele>949.0</ele><time>2026-04-18T17:40:40Z</time></trkpt><trkpt lat="47.68108195355127" lon="12.014643834697875"><ele>949.0</ele><time>2026-04-18T17:40:41Z</time></trkpt><trkpt lat="47.68118551454789" lon="12.014707323924899"><ele>949.0</ele><time>2026-04-18T17:40:42Z</time></trkpt><trkpt lat="47.68128770189571" lon="12.01480580099673"><ele>948.25</ele><time>2026-04-18T17:40:43Z</time></trkpt><trkpt lat="47.681367682080996" lon="12.014931746679895"><ele>947.5</ele><time>2026-04-18T17:40:44Z</time></trkpt><trkpt lat="47.681430809363256" lon="12.015088329201632"><ele>946.75</ele><time>2026-04-18T17:40:45Z</time></trkpt><trkpt lat="47.681493188033784" lon="12.015236710530662"><ele>946.0</ele><time>2026-04-18T17:40:46Z</time></trkpt><trkpt lat="47.68155261330731" lon="12.015366063743699"><ele>951.0</ele><time>2026-04-18T17:40:47Z</time></trkpt><trkpt lat="47.68161077112474" lon="12.015485853250695"><ele>956.0</ele><time>2026-04-18T17:40:48Z</time></trkpt><trkpt lat="47.681680649048346" lon="12.015608428328475"><ele>961.0</ele><time>2026-04-18T17:40:49Z</time></trkpt><trkpt lat="47.68176027603216" lon="12.01573751844957"><ele>966.0</ele><time>2026-04-18T17:40:50Z</time></trkpt><trkpt lat="47.6818622136447" lon="12.015860105979316"><ele>968.1999999999999</ele><time>2026-04-18T17:40:51Z</time></trkpt><trkpt lat="47.681977705089395" lon="12.015968381328328"><ele>970.3999999999999</ele><time>2026-04-18T17:40:52Z</time></trkpt><trkpt lat="47.68208283991535" lon="12.016043174732092"><ele>972.6</ele><time>2026-04-18T17:40:53Z</time></trkpt><trkpt lat="47.682179727485064" lon="12.016109054872674"><ele>974.8</ele><time>2026-04-18T17:40:54Z</time></trkpt><trkpt lat="47.68225509082989" lon="12.016172702288568"><ele>977.0</ele><time>2026-04-18T17:40:55Z</time></trkpt><trkpt lat="47.682319686240845" lon="12.016219621104876"><ele>977.0000000000001</ele><time>2026-04-18T17:40:56Z</time></trkpt><trkpt lat="47.6823864066459" lon="12.016272812045324"><ele>977.0</ele><time>2026-04-18T17:40:57Z</time></trkpt><trkpt lat="47.682456713670696" lon="12.016335460123637"><ele>977.0</ele><time>2026-04-18T17:40:58Z</time></trkpt><trkpt lat="47.68253156147049" lon="12.016414462033522"><ele>977.0</ele><time>2026-04-18T17:40:59Z</time></trkpt><trkpt lat="47.682600249992106" lon="12.016514372633152"><ele>977.0000000000001</ele><time>2026-04-18T17:41:00Z</time></trkpt><trkpt lat="47.68265015295638" lon="12.016624818460734"><ele>977.0</ele><time>2026-04-18T17:41:01Z</time></trkpt><trkpt lat="47.68269904268409" lon="12.016771254461897"><ele>979.75</ele><time>2026-04-18T17:41:02Z</time></trkpt><trkpt lat="47.682739660045684" lon="12.016943790183715"><ele>982.5</ele><time>2026-04-18T17:41:03Z</time></trkpt><trkpt lat="47.68275358211451" lon="12.01711550325534"><ele>985.25</ele><time>2026-04-18T17:41:04Z</time></trkpt><trkpt lat="47.68273615164063" lon="12.017286302799693"><ele>988.0</ele><time>2026-04-18T17:41:05Z</time></trkpt><trkpt lat="47.682703069881505" lon="12.017448440726362"><ele>990.0</ele><time>2026-04-18T17:41:06Z</time></trkpt><trkpt lat="47.68263342320494" lon="12.017594111802085"><ele>992.0</ele><time>2026-04-18T17:41:07Z</time></trkpt><trkpt lat="47.68254935505201" lon="12.017745274461797"><ele>994.0</ele><time>2026-04-18T17:41:08Z</time></trkpt><trkpt lat="47.68245661422548" lon="12.017904078555626"><ele>996.0</ele><time>2026-04-18T17:41:09Z</time></trkpt><trkpt lat="47.68236389694971" lon="12.018006368150361"><ele>996.0</ele><time>2026-04-18T17:41:10Z</time></trkpt><trkpt lat="47.68227776444829" lon="12.018114386940741"><ele>996.0</ele><time>2026-04-18T17:41:11Z</time></trkpt><trkpt lat="47.68220597374092" lon="12.018256101542757"><ele>996.0</ele><time>2026-04-18T17:41:12Z</time></trkpt><trkpt lat="47.6821371580449" lon="12.01840296546446"><ele>996.0</ele><time>2026-04-18T17:41:13Z</time></trkpt><trkpt lat="47.68207770018627" lon="12.01856940021658"><ele>998.0</ele><time>2026-04-18T17:41:14Z</time></trkpt><trkpt lat="47.68203590195408" lon="12.018746284298217"><ele>1000.0</ele><time>2026-04-18T17:41:15Z</time></trkpt><trkpt lat="47.682004941953" lon="12.01895463969469"><ele>1002.0</ele><time>2026-04-18T17:41:16Z</time></trkpt><trkpt lat="47.68197414070877" lon="12.019171939861097"><ele>1004.0</ele><time>2026-04-18T17:41:17Z</time></trkpt><trkpt lat="47.681939559635175" lon="12.01937675600598"><ele>1003.8000000000001</ele><time>2026-04-18T17:41:18Z</time></trkpt><trkpt lat="47.68191119417019" lon="12.019544425871159"><ele>1003.6000000000001</ele><time>2026-04-18T17:41:19Z</time></trkpt><trkpt lat="47.681888587970946" lon="12.019707211044203"><ele>1003.4</ele><time>2026-04-18T17:41:20Z</time></trkpt><trkpt lat="47.68186451801398" lon="12.019873598488402"><ele>1003.2</ele><time>2026-04-18T17:41:21Z</time></trkpt><trkpt lat="47.68183962689621" lon="12.02001947669703"><ele>1003.0</ele><time>2026-04-18T17:41:22Z</time></trkpt><trkpt lat="47.68181394722671" lon="12.020164165664399"><ele>1003.0</ele><time>2026-04-18T17:41:23Z</time></trkpt><trkpt lat="47.68178997411663" lon="12.02029840116864"><ele>1003.0</ele><time>2026-04-18T17:41:24Z</time></trkpt><trkpt lat="47.68176765553058" lon="12.020437898901601"><ele>1003.0</ele><time>2026-04-18T17:41:25Z</time></trkpt><trkpt lat="47.68174157641315" lon="12.020600421455606"><ele>1003.0</ele><time>2026-04-18T17:41:26Z</time></trkpt><trkpt lat="47.68171064931062" lon="12.020774366814123"><ele>1003.0</ele><time>2026-04-18T17:41:27Z</time></trkpt><trkpt lat="47.68168092237871" lon="12.02095794098225"><ele>1007.25</ele><time>2026-04-18T17:41:28Z</time></trkpt><trkpt lat="47.681648205790424" lon="12.02114623713646"><ele>1011.5</ele><time>2026-04-18T17:41:29Z</time></trkpt><trkpt lat="47.68161588146228" lon="12.021330439976639"><ele>1015.75</ele><time>2026-04-18T17:41:30Z</time></trkpt><trkpt lat="47.68158980449677" lon="12.021522083906465"><ele>1020.0</ele><time>2026-04-18T17:41:31Z</time></trkpt><trkpt lat="47.68157697850004" lon="12.021723782666749"><ele>1023.25</ele><time>2026-04-18T17:41:32Z</time></trkpt><trkpt lat="47.68157861711815" lon="12.021916807206562"><ele>1026.5</ele><time>2026-04-18T17:41:33Z</time></trkpt><trkpt lat="47.68159151581365" lon="12.022095186632693"><ele>1029.75</ele><time>2026-04-18T17:41:34Z</time></trkpt><trkpt lat="47.68162306296915" lon="12.022277620943258"><ele>1033.0</ele><time>2026-04-18T17:41:35Z</time></trkpt><trkpt lat="47.68167087945343" lon="12.02246221322755"><ele>1034.0</ele><time>2026-04-18T17:41:36Z</time></trkpt><trkpt lat="47.68172106107512" lon="12.022652814667305"><ele>1035.0</ele><time>2026-04-18T17:41:37Z</time></trkpt><trkpt lat="47.681757899599745" lon="12.022814865191233"><ele>1036.0</ele><time>2026-04-18T17:41:38Z</time></trkpt><trkpt lat="47.681761353601914" lon="12.022975563800006"><ele>1037.0</ele><time>2026-04-18T17:41:39Z</time></trkpt><trkpt lat="47.681775066156355" lon="12.023135504877633"><ele>1037.0</ele><time>2026-04-18T17:41:40Z</time></trkpt><trkpt lat="47.68175548655894" lon="12.023300814639182"><ele>1037.0</ele><time>2026-04-18T17:41:41Z</time></trkpt><trkpt lat="47.681710748823576" lon="12.02346502274114"><ele>1037.0</ele><time>2026-04-18T17:41:42Z</time></trkpt><trkpt lat="47.681670674518955" lon="12.023637519788704"><ele>1037.0</ele><time>2026-04-18T17:41:43Z</time></trkpt><trkpt lat="47.681615628589405" lon="12.023793600891313"><ele>1038.5</ele><time>2026-04-18T17:41:44Z</time></trkpt><trkpt lat="47.68154357529937" lon="12.023937270047233"><ele>1040.0</ele><time>2026-04-18T17:41:45Z</time></trkpt><trkpt lat="47.68147209411524" lon="12.024101434509689"><ele>1041.5</ele><time>2026-04-18T17:41:46Z</time></trkpt><trkpt lat="47.681387839935105" lon="12.02424744289597"><ele>1043.0</ele><time>2026-04-18T17:41:47Z</time></trkpt><trkpt lat="47.68130450176158" lon="12.02438529399491"><ele>1039.6</ele><time>2026-04-18T17:41:48Z</time></trkpt><trkpt lat="47.681208426233326" lon="12.024499580658382"><ele>1036.1999999999998</ele><time>2026-04-18T17:41:49Z</time></trkpt><trkpt lat="47.68111359758067" lon="12.024600252426339"><ele>1032.8</ele><time>2026-04-18T17:41:50Z</time></trkpt><trkpt lat="47.68104550742245" lon="12.024686344076768"><ele>1029.3999999999999</ele><time>2026-04-18T17:41:51Z</time></trkpt><trkpt lat="47.680966341224504" lon="12.024784058350402"><ele>1026.0</ele><time>2026-04-18T17:41:52Z</time></trkpt><trkpt lat="47.68088055926351" lon="12.024883207651692"><ele>1032.0</ele><time>2026-04-18T17:41:53Z</time></trkpt><trkpt lat="47.68079784142998" lon="12.024984137166147"><ele>1038.0</ele><time>2026-04-18T17:41:54Z</time></trkpt><trkpt lat="47.68072436231223" lon="12.025095450644532"><ele>1044.0</ele><time>2026-04-18T17:41:55Z</time></trkpt><trkpt lat="47.680646489297324" lon="12.025218520876756"><ele>1050.0</ele><time>2026-04-18T17:41:56Z</time></trkpt><trkpt lat="47.680591246249456" lon="12.025379209159142"><ele>1056.0</ele><time>2026-04-18T17:41:57Z</time></trkpt><trkpt lat="47.680556486369646" lon="12.02556232518464"><ele>1056.0</ele><time>2026-04-18T17:41:58Z</time></trkpt><trkpt lat="47.68054216714443" lon="12.025765245837922"><ele>1056.0</ele><time>2026-04-18T17:41:59Z</time></trkpt><trkpt lat="47.68053295657839" lon="12.025967265104953"><ele>1056.0</ele><time>2026-04-18T17:42:00Z</time></trkpt><trkpt lat="47.680524287630945" lon="12.026125623934895"><ele>1056.0</ele><time>2026-04-18T17:42:01Z</time></trkpt><trkpt lat="47.68049973340754" lon="12.026257523617343"><ele>1061.2</ele><time>2026-04-18T17:42:02Z</time></trkpt><trkpt lat="47.68045354792654" lon="12.02638775759087"><ele>1066.3999999999999</ele><time>2026-04-18T17:42:03Z</time></trkpt><trkpt lat="47.68040844181924" lon="12.026531420521184"><ele>1071.6</ele><time>2026-04-18T17:42:04Z</time></trkpt><trkpt lat="47.68036104222125" lon="12.026649416427516"><ele>1076.8</ele><time>2026-04-18T17:42:05Z</time></trkpt><trkpt lat="47.680316007687" lon="12.02677125305286"><ele>1082.0</ele><time>2026-04-18T17:42:06Z</time></trkpt><trkpt lat="47.68028344247592" lon="12.026916085233022"><ele>1076.75</ele><time>2026-04-18T17:42:07Z</time></trkpt><trkpt lat="47.68026046441992" lon="12.02709278512677"><ele>1071.5</ele><time>2026-04-18T17:42:08Z</time></trkpt><trkpt lat="47.68026189531414" lon="12.027274022163398"><ele>1066.25</ele><time>2026-04-18T17:42:09Z</time></trkpt><trkpt lat="47.68026451465601" lon="12.027439913398863"><ele>1061.0</ele><time>2026-04-18T17:42:10Z</time></trkpt><trkpt lat="47.68026249966932" lon="12.027611986736941"><ele>1061.0</ele><time>2026-04-18T17:42:11Z</time></trkpt><trkpt lat="47.68023719407374" lon="12.027782338727521"><ele>1061.0</ele><time>2026-04-18T17:42:12Z</time></trkpt><trkpt lat="47.68019574957933" lon="12.027958826676015"><ele>1061.0</ele><time>2026-04-18T17:42:13Z</time></trkpt><trkpt lat="47.68015855185142" lon="12.028114615905741"><ele>1061.0</ele><time>2026-04-18T17:42:14Z</time></trkpt><trkpt lat="47.68012375420207" lon="12.028265258841088"><ele>1063.8</ele><time>2026-04-18T17:42:15Z</time></trkpt><trkpt lat="47.68009013614606" lon="12.0284142523608"><ele>1066.6</ele><time>2026-04-18T17:42:16Z</time></trkpt><trkpt lat="47.68006465345436" lon="12.028557277859358"><ele>1069.4</ele><time>2026-04-18T17:42:17Z</time></trkpt><trkpt lat="47.68004529645576" lon="12.028696090944905"><ele>1072.2</ele><time>2026-04-18T17:42:18Z</time></trkpt><trkpt lat="47.680028769998714" lon="12.028857323954075"><ele>1075.0</ele><time>2026-04-18T17:42:19Z</time></trkpt><trkpt lat="47.680013065563436" lon="12.029012079041024"><ele>1075.0</ele><time>2026-04-18T17:42:20Z</time></trkpt><trkpt lat="47.67999636785946" lon="12.029134320701528"><ele>1075.0</ele><time>2026-04-18T17:42:21Z</time></trkpt><trkpt lat="47.67995157920636" lon="12.029253670254237"><ele>1075.0</ele><time>2026-04-18T17:42:22Z</time></trkpt><trkpt lat="47.679889241855925" lon="12.029387405436264"><ele>1075.0</ele><time>2026-04-18T17:42:23Z</time></trkpt><trkpt lat="47.67981693566292" lon="12.029530694911937"><ele>1075.0</ele><time>2026-04-18T17:42:24Z</time></trkpt><trkpt lat="47.6797390669032" lon="12.029688668907967"><ele>1080.25</ele><time>2026-04-18T17:42:25Z</time></trkpt><trkpt lat="47.67967198727842" lon="12.029822066350535"><ele>1085.5</ele><time>2026-04-18T17:42:26Z</time></trkpt><trkpt lat="47.6796002392248" lon="12.029962398074149"><ele>1090.75</ele><time>2026-04-18T17:42:27Z</time></trkpt><trkpt lat="47.67952977969042" lon="12.030115435327016"><ele>1096.0</ele><time>2026-04-18T17:42:28Z</time></trkpt><trkpt lat="47.679468535941545" lon="12.030273058582969"><ele>1096.0</ele><time>2026-04-18T17:42:29Z</time></trkpt><trkpt lat="47.67941802227753" lon="12.030411564265316"><ele>1096.0</ele><time>2026-04-18T17:42:30Z</time></trkpt><trkpt lat="47.67936870039928" lon="12.030551424248978"><ele>1096.0</ele><time>2026-04-18T17:42:31Z</time></trkpt><trkpt lat="47.67931406728973" lon="12.030706345000558"><ele>1096.0</ele><time>2026-04-18T17:42:32Z</time></trkpt><trkpt lat="47.67925421584793" lon="12.03087606335874"><ele>1096.0</ele><time>2026-04-18T17:42:33Z</time></trkpt><trkpt lat="47.67919459979795" lon="12.031045114167515"><ele>1096.0</ele><time>2026-04-18T17:42:34Z</time></trkpt><trkpt lat="47.67914137606563" lon="12.031196038439155"><ele>1096.0</ele><time>2026-04-18T17:42:35Z</time></trkpt><trkpt lat="47.679091937113036" lon="12.03133623053321"><ele>1096.0</ele><time>2026-04-18T17:42:36Z</time></trkpt><trkpt lat="47.67903674597145" lon="12.031492733498062"><ele>1100.5</ele><time>2026-04-18T17:42:37Z</time></trkpt><trkpt lat="47.67900232052855" lon="12.031672208718184"><ele>1105.0</ele><time>2026-04-18T17:42:38Z</time></trkpt><trkpt lat="47.67895181126012" lon="12.031817871430702"><ele>1109.5</ele><time>2026-04-18T17:42:39Z</time></trkpt><trkpt lat="47.6789011769111" lon="12.031957840511447"><ele>1114.0</ele><time>2026-04-18T17:42:40Z</time></trkpt><trkpt lat="47.67884699179066" lon="12.032101123490792"><ele>1114.0</ele><time>2026-04-18T17:42:41Z</time></trkpt><trkpt lat="47.67879491035863" lon="12.032248905276168"><ele>1114.0</ele><time>2026-04-18T17:42:42Z</time></trkpt><trkpt lat="47.67873227768712" lon="12.032395318559587"><ele>1114.0</ele><time>2026-04-18T17:42:43Z</time></trkpt><trkpt lat="47.6786909634194" lon="12.032552118267628"><ele>1114.0</ele><time>2026-04-18T17:42:44Z</time></trkpt><trkpt lat="47.678654698173524" lon="12.032716884390243"><ele>1113.25</ele><time>2026-04-18T17:42:45Z</time></trkpt><trkpt lat="47.678636879007044" lon="12.032892961166041"><ele>1112.5</ele><time>2026-04-18T17:42:46Z</time></trkpt><trkpt lat="47.67860256498143" lon="12.03306878481878"><ele>1111.75</ele><time>2026-04-18T17:42:47Z</time></trkpt><trkpt lat="47.678571787341774" lon="12.033252535089954"><ele>1111.0</ele><time>2026-04-18T17:42:48Z</time></trkpt><trkpt lat="47.67855137695368" lon="12.033438443635255"><ele>1112.5</ele><time>2026-04-18T17:42:49Z</time></trkpt><trkpt lat="47.678538776032504" lon="12.033625625104165"><ele>1114.0</ele><time>2026-04-18T17:42:50Z</time></trkpt><trkpt lat="47.67851996631615" lon="12.033814408407915"><ele>1115.5</ele><time>2026-04-18T17:42:51Z</time></trkpt><trkpt lat="47.67852136889724" lon="12.034005854505656"><ele>1117.0</ele><time>2026-04-18T17:42:52Z</time></trkpt><trkpt lat="47.67851913476834" lon="12.034200525091789"><ele>1118.0</ele><time>2026-04-18T17:42:53Z</time></trkpt><trkpt lat="47.67851936173191" lon="12.034398769359889"><ele>1119.0</ele><time>2026-04-18T17:42:54Z</time></trkpt><trkpt lat="47.67852175815533" lon="12.034579083510422"><ele>1120.0</ele><time>2026-04-18T17:42:55Z</time></trkpt><trkpt lat="47.67852931261239" lon="12.034742092133065"><ele>1121.0</ele><time>2026-04-18T17:42:56Z</time></trkpt><trkpt lat="47.67853789921968" lon="12.034886308746964"><ele>1120.5</ele><time>2026-04-18T17:42:57Z</time></trkpt><trkpt lat="47.678547234810615" lon="12.035022713513433"><ele>1120.0</ele><time>2026-04-18T17:42:58Z</time></trkpt><trkpt lat="47.6785606021457" lon="12.035153721476755"><ele>1119.5</ele><time>2026-04-18T17:42:59Z</time></trkpt><trkpt lat="47.67857782498028" lon="12.035273272109052"><ele>1119.0</ele><time>2026-04-18T17:43:00Z</time></trkpt><trkpt lat="47.67860623421783" lon="12.035383596251263"><ele>1118.5</ele><time>2026-04-18T17:43:01Z</time></trkpt><trkpt lat="47.678652833680175" lon="12.03548842640629"><ele>1118.0</ele><time>2026-04-18T17:43:02Z</time></trkpt><trkpt lat="47.678719542776115" lon="12.035572426353562"><ele>1121.2</ele><time>2026-04-18T17:43:03Z</time></trkpt><trkpt lat="47.67879748721704" lon="12.03562544937981"><ele>1124.4</ele><time>2026-04-18T17:43:04Z</time></trkpt><trkpt lat="47.678885757075406" lon="12.035633694705934"><ele>1127.6000000000001</ele><time>2026-04-18T17:43:05Z</time></trkpt><trkpt lat="47.67897295921151" lon="12.035590354932836"><ele>1130.8</ele><time>2026-04-18T17:43:06Z</time></trkpt><trkpt lat="47.679046672945205" lon="12.035494993224882"><ele>1134.0</ele><time>2026-04-18T17:43:07Z</time></trkpt><trkpt lat="47.67910614670448" lon="12.035359075291248"><ele>1134.0</ele><time>2026-04-18T17:43:08Z</time></trkpt><trkpt lat="47.67916958116723" lon="12.035204796185932"><ele>1134.0</ele><time>2026-04-18T17:43:09Z</time></trkpt><trkpt lat="47.679225919067434" lon="12.035072083975766"><ele>1134.0</ele><time>2026-04-18T17:43:10Z</time></trkpt><trkpt lat="47.6792865569652" lon="12.034939513830794"><ele>1134.0</ele><time>2026-04-18T17:43:11Z</time></trkpt><trkpt lat="47.679355063872244" lon="12.03480508124749"><ele>1134.0</ele><time>2026-04-18T17:43:12Z</time></trkpt><trkpt lat="47.67942124354351" lon="12.034662636324168"><ele>1131.75</ele><time>2026-04-18T17:43:13Z</time></trkpt><trkpt lat="47.67949291259379" lon="12.034548417882355"><ele>1129.5</ele><time>2026-04-18T17:43:14Z</time></trkpt><trkpt lat="47.67958022464753" lon="12.034437151587806"><ele>1127.25</ele><time>2026-04-18T17:43:15Z</time></trkpt><trkpt lat="47.67969683207256" lon="12.034359380566269"><ele>1125.0</ele><time>2026-04-18T17:43:16Z</time></trkpt><trkpt lat="47.67983121319255" lon="12.034322532994137"><ele>1125.0</ele><time>2026-04-18T17:43:17Z</time></trkpt><trkpt lat="47.679952079111466" lon="12.034322179211518"><ele>1125.0</ele><time>2026-04-18T17:43:18Z</time></trkpt><trkpt lat="47.680068318737895" lon="12.03431387645949"><ele>1125.0</ele><time>2026-04-18T17:43:19Z</time></trkpt><trkpt lat="47.680178178724134" lon="12.03430032837459"><ele>1125.0</ele><time>2026-04-18T17:43:20Z</time></trkpt><trkpt lat="47.68027852171485" lon="12.034283137391673"><ele>1125.0</ele><time>2026-04-18T17:43:21Z</time></trkpt><trkpt lat="47.68038380081641" lon="12.034270769632897"><ele>1123.6</ele><time>2026-04-18T17:43:22Z</time></trkpt><trkpt lat="47.68046840490758" lon="12.034254232696641"><ele>1122.2</ele><time>2026-04-18T17:43:23Z</time></trkpt><trkpt lat="47.68056047044929" lon="12.034218992629155"><ele>1120.8</ele><time>2026-04-18T17:43:24Z</time></trkpt><trkpt lat="47.68064586508586" lon="12.034167994982418"><ele>1119.4</ele><time>2026-04-18T17:43:25Z</time></trkpt><trkpt lat="47.68073080858588" lon="12.03411963388551"><ele>1118.0</ele><time>2026-04-18T17:43:26Z</time></trkpt><trkpt lat="47.6808224824564" lon="12.034078951565636"><ele>1118.0</ele><time>2026-04-18T17:43:27Z</time></trkpt><trkpt lat="47.680917150273196" lon="12.034052463729141"><ele>1118.0</ele><time>2026-04-18T17:43:28Z</time></trkpt><trkpt lat="47.681014878736" lon="12.034048409756284"><ele>1118.0</ele><time>2026-04-18T17:43:29Z</time></trkpt><trkpt lat="47.681111559617115" lon="12.034073405890332"><ele>1118.0</ele><time>2026-04-18T17:43:30Z</time></trkpt><trkpt lat="47.6812109450297" lon="12.034121341441683"><ele>1118.0</ele><time>2026-04-18T17:43:31Z</time></trkpt><trkpt lat="47.681318216597724" lon="12.034189181042247"><ele>1117.6</ele><time>2026-04-18T17:43:32Z</time></trkpt><trkpt lat="47.68142855996029" lon="12.034254873462995"><ele>1117.1999999999998</ele><time>2026-04-18T17:43:33Z</time></trkpt><trkpt lat="47.681537728851886" lon="12.034303789501527"><ele>1116.8</ele><time>2026-04-18T17:43:34Z</time></trkpt><trkpt lat="47.68164046896159" lon="12.034341816367977"><ele>1116.3999999999999</ele><time>2026-04-18T17:43:35Z</time></trkpt><trkpt lat="47.681742557578104" lon="12.034376710493547"><ele>1116.0</ele><time>2026-04-18T17:43:36Z</time></trkpt><trkpt lat="47.68183621076306" lon="12.034410982904248"><ele>1116.0</ele><time>2026-04-18T17:43:37Z</time></trkpt><trkpt lat="47.68193134529736" lon="12.034438740522171"><ele>1116.0</ele><time>2026-04-18T17:43:38Z</time></trkpt><trkpt lat="47.68203363711352" lon="12.034442561173424"><ele>1116.0</ele><time>2026-04-18T17:43:39Z</time></trkpt><trkpt lat="47.6821438813802" lon="12.034407564771632"><ele>1116.0</ele><time>2026-04-18T17:43:40Z</time></trkpt><trkpt lat="47.68224649434919" lon="12.034365417132012"><ele>1116.0</ele><time>2026-04-18T17:43:41Z</time></trkpt><trkpt lat="47.682340473426706" lon="12.034336529866597"><ele>1115.8</ele><time>2026-04-18T17:43:42Z</time></trkpt><trkpt lat="47.68243947149155" lon="12.034315301564062"><ele>1115.6</ele><time>2026-04-18T17:43:43Z</time></trkpt><trkpt lat="47.682545184735275" lon="12.034315508242331"><ele>1115.4</ele><time>2026-04-18T17:43:44Z</time></trkpt><trkpt lat="47.68265229775753" lon="12.034352931664115"><ele>1115.2</ele><time>2026-04-18T17:43:45Z</time></trkpt><trkpt lat="47.68274919553111" lon="12.034440448426382"><ele>1115.0</ele><time>2026-04-18T17:43:46Z</time></trkpt><trkpt lat="47.682831829735655" lon="12.03453575761189"><ele>1114.6</ele><time>2026-04-18T17:43:47Z</time></trkpt><trkpt lat="47.682898299368944" lon="12.034643204773689"><ele>1114.2</ele><time>2026-04-18T17:43:48Z</time></trkpt><trkpt lat="47.68295023571023" lon="12.034765674253546"><ele>1113.8</ele><time>2026-04-18T17:43:49Z</time></trkpt><trkpt lat="47.68300211060884" lon="12.034901533174445"><ele>1113.4</ele><time>2026-04-18T17:43:50Z</time></trkpt><trkpt lat="47.683013128338004" lon="12.035071865335095"><ele>1113.0</ele><time>2026-04-18T17:43:51Z</time></trkpt><trkpt lat="47.68300970494113" lon="12.035251765729502"><ele>1113.0</ele><time>2026-04-18T17:43:52Z</time></trkpt><trkpt lat="47.68300501840215" lon="12.03543987371077"><ele>1113.0</ele><time>2026-04-18T17:43:53Z</time></trkpt><trkpt lat="47.68300360701039" lon="12.035605047512725"><ele>1113.0</ele><time>2026-04-18T17:43:54Z</time></trkpt><trkpt lat="47.683005096054146" lon="12.035757865739187"><ele>1113.0</ele><time>2026-04-18T17:43:55Z</time></trkpt><trkpt lat="47.683010523602526" lon="12.035901470069788"><ele>1113.0</ele><time>2026-04-18T17:43:56Z</time></trkpt><trkpt lat="47.68301671772088" lon="12.036040170863313"><ele>1110.4</ele><time>2026-04-18T17:43:57Z</time></trkpt><trkpt lat="47.68302536021115" lon="12.036182067653085"><ele>1107.8</ele><time>2026-04-18T17:43:58Z</time></trkpt><trkpt lat="47.683047665661455" lon="12.036327964964164"><ele>1105.2</ele><time>2026-04-18T17:43:59Z</time></trkpt><trkpt lat="47.68308884848562" lon="12.036471273487757"><ele>1102.6</ele><time>2026-04-18T17:44:00Z</time></trkpt><trkpt lat="47.683154171243245" lon="12.036601111528952"><ele>1100.0</ele><time>2026-04-18T17:44:01Z</time></trkpt><trkpt lat="47.683240344442495" lon="12.036704914540849"><ele>1098.25</ele><time>2026-04-18T17:44:02Z</time></trkpt><trkpt lat="47.68334568692963" lon="12.03677289379554"><ele>1096.5</ele><time>2026-04-18T17:44:03Z</time></trkpt><trkpt lat="47.6834745301069" lon="12.036803311408468"><ele>1094.75</ele><time>2026-04-18T17:44:04Z</time></trkpt><trkpt lat="47.68359499329929" lon="12.036805235848664"><ele>1093.0</ele><time>2026-04-18T17:44:05Z</time></trkpt><trkpt lat="47.68370971415328" lon="12.03684047179778"><ele>1092.0</ele><time>2026-04-18T17:44:06Z</time></trkpt><trkpt lat="47.68382609293363" lon="12.036860300508913"><ele>1091.0</ele><time>2026-04-18T17:44:07Z</time></trkpt><trkpt lat="47.68393625054096" lon="12.036862783263128"><ele>1090.0</ele><time>2026-04-18T17:44:08Z</time></trkpt><trkpt lat="47.68404606298927" lon="12.036937196204004"><ele>1089.0</ele><time>2026-04-18T17:44:09Z</time></trkpt><trkpt lat="47.684152553587765" lon="12.037029036506954"><ele>1089.0</ele><time>2026-04-18T17:44:10Z</time></trkpt><trkpt lat="47.68425555163001" lon="12.037108635728233"><ele>1089.0</ele><time>2026-04-18T17:44:11Z</time></trkpt><trkpt lat="47.68433785226685" lon="12.03723513235307"><ele>1089.0</ele><time>2026-04-18T17:44:12Z</time></trkpt><trkpt lat="47.684383971928845" lon="12.037402360687233"><ele>1089.0</ele><time>2026-04-18T17:44:13Z</time></trkpt><trkpt lat="47.684425999295144" lon="12.037570487092655"><ele>1086.25</ele><time>2026-04-18T17:44:14Z</time></trkpt><trkpt lat="47.68446748370492" lon="12.037753815049571"><ele>1083.5</ele><time>2026-04-18T17:44:15Z</time></trkpt><trkpt lat="47.684450377884865" lon="12.03795618033906"><ele>1080.75</ele><time>2026-04-18T17:44:16Z</time></trkpt><trkpt lat="47.68443635129609" lon="12.038149846116363"><ele>1078.0</ele><time>2026-04-18T17:44:17Z</time></trkpt><trkpt lat="47.68442853854541" lon="12.038338134306784"><ele>1078.0</ele><time>2026-04-18T17:44:18Z</time></trkpt><trkpt lat="47.68440303464398" lon="12.038511960445945"><ele>1078.0</ele><time>2026-04-18T17:44:19Z</time></trkpt><trkpt lat="47.68438511481192" lon="12.038685649710184"><ele>1078.0</ele><time>2026-04-18T17:44:20Z</time></trkpt><trkpt lat="47.684379817743675" lon="12.038866033015745"><ele>1078.0</ele><time>2026-04-18T17:44:21Z</time></trkpt><trkpt lat="47.68439091789379" lon="12.039060232371044"><ele>1076.0</ele><time>2026-04-18T17:44:22Z</time></trkpt><trkpt lat="47.68441893870903" lon="12.039244013655077"><ele>1074.0</ele><time>2026-04-18T17:44:23Z</time></trkpt><trkpt lat="47.68445517601125" lon="12.039414200913349"><ele>1072.0</ele><time>2026-04-18T17:44:24Z</time></trkpt><trkpt lat="47.684501687263406" lon="12.03957693085671"><ele>1070.0</ele><time>2026-04-18T17:44:25Z</time></trkpt><trkpt lat="47.684550489965616" lon="12.039738201923953"><ele>1071.0</ele><time>2026-04-18T17:44:26Z</time></trkpt><trkpt lat="47.684597938454104" lon="12.0398898484754"><ele>1072.0</ele><time>2026-04-18T17:44:27Z</time></trkpt><trkpt lat="47.68464148692007" lon="12.04002691296612"><ele>1073.0</ele><time>2026-04-18T17:44:28Z</time></trkpt><trkpt lat="47.6846819836535" lon="12.04014999898996"><ele>1074.0</ele><time>2026-04-18T17:44:29Z</time></trkpt><trkpt lat="47.68472201523728" lon="12.040274887575823"><ele>1075.0</ele><time>2026-04-18T17:44:30Z</time></trkpt><trkpt lat="47.684757387529636" lon="12.040395582120542"><ele>1075.0</ele><time>2026-04-18T17:44:31Z</time></trkpt><trkpt lat="47.68478765941498" lon="12.040500026105237"><ele>1075.0</ele><time>2026-04-18T17:44:32Z</time></trkpt><trkpt lat="47.68481917037361" lon="12.04060558372188"><ele>1075.0</ele><time>2026-04-18T17:44:33Z</time></trkpt><trkpt lat="47.684848499527504" lon="12.04070365957368"><ele>1075.0</ele><time>2026-04-18T17:44:34Z</time></trkpt><trkpt lat="47.684877761364525" lon="12.040809046049702"><ele>1075.0</ele><time>2026-04-18T17:44:35Z</time></trkpt><trkpt lat="47.68490768966041" lon="12.040920099290778"><ele>1075.0</ele><time>2026-04-18T17:44:36Z</time></trkpt><trkpt lat="47.684934844916235" lon="12.041033062869861"><ele>1073.0</ele><time>2026-04-18T17:44:37Z</time></trkpt><trkpt lat="47.684957419836685" lon="12.041141021846649"><ele>1071.0</ele><time>2026-04-18T17:44:38Z</time></trkpt><trkpt lat="47.684976766875025" lon="12.041245261520864"><ele>1069.0</ele><time>2026-04-18T17:44:39Z</time></trkpt><trkpt lat="47.684996035700834" lon="12.041353094632578"><ele>1067.0</ele><time>2026-04-18T17:44:40Z</time></trkpt><trkpt lat="47.68501435253124" lon="12.0414655643846"><ele>1065.0</ele><time>2026-04-18T17:44:41Z</time></trkpt><trkpt lat="47.68503313290404" lon="12.041587344267207"><ele>1063.0</ele><time>2026-04-18T17:44:42Z</time></trkpt><trkpt lat="47.68501968811608" lon="12.041739073545235"><ele>1063.0</ele><time>2026-04-18T17:44:43Z</time></trkpt><trkpt lat="47.685024175380924" lon="12.041874382833008"><ele>1063.0</ele><time>2026-04-18T17:44:44Z</time></trkpt><trkpt lat="47.68499736235571" lon="12.04199937878074"><ele>1063.0</ele><time>2026-04-18T17:44:45Z</time></trkpt><trkpt lat="47.684961086809" lon="12.042105153249748"><ele>1063.0</ele><time>2026-04-18T17:44:46Z</time></trkpt><trkpt lat="47.68491954544838" lon="12.042207284233719"><ele>1063.0</ele><time>2026-04-18T17:44:47Z</time></trkpt><trkpt lat="47.68487204988863" lon="12.04230808923268"><ele>1063.0</ele><time>2026-04-18T17:44:48Z</time></trkpt><trkpt lat="47.684817450895174" lon="12.042418208668137"><ele>1064.4</ele><time>2026-04-18T17:44:49Z</time></trkpt><trkpt lat="47.6847638705549" lon="12.042526634624931"><ele>1065.8</ele><time>2026-04-18T17:44:50Z</time></trkpt><trkpt lat="47.68471052993505" lon="12.04263714969068"><ele>1067.2</ele><time>2026-04-18T17:44:51Z</time></trkpt><trkpt lat="47.68465693052388" lon="12.04275372792504"><ele>1068.6</ele><time>2026-04-18T17:44:52Z</time></trkpt><trkpt lat="47.68460087279011" lon="12.042870654370937"><ele>1070.0</ele><time>2026-04-18T17:44:53Z</time></trkpt><trkpt lat="47.684544059450594" lon="12.042988762564526"><ele>1070.0</ele><time>2026-04-18T17:44:54Z</time></trkpt><trkpt lat="47.68449161389097" lon="12.043107762549193"><ele>1070.0</ele><time>2026-04-18T17:44:55Z</time></trkpt><trkpt lat="47.68443781843536" lon="12.04322928838706"><ele>1070.0</ele><time>2026-04-18T17:44:56Z</time></trkpt><trkpt lat="47.68438151554377" lon="12.043352702382265"><ele>1070.0</ele><time>2026-04-18T17:44:57Z</time></trkpt><trkpt lat="47.68432912277555" lon="12.043468265675555"><ele>1070.0</ele><time>2026-04-18T17:44:58Z</time></trkpt><trkpt lat="47.684280349067386" lon="12.043571125226023"><ele>1066.8</ele><time>2026-04-18T17:44:59Z</time></trkpt><trkpt lat="47.68422691918697" lon="12.043680638133957"><ele>1063.6</ele><time>2026-04-18T17:45:00Z</time></trkpt><trkpt lat="47.684176556060585" lon="12.043796569028057"><ele>1060.4</ele><time>2026-04-18T17:45:01Z</time></trkpt><trkpt lat="47.684127123712074" lon="12.043922266388865"><ele>1057.2</ele><time>2026-04-18T17:45:02Z</time></trkpt><trkpt lat="47.68408268560214" lon="12.0440612008563"><ele>1054.0</ele><time>2026-04-18T17:45:03Z</time></trkpt><trkpt lat="47.684052188484614" lon="12.0442188184261"><ele>1054.0</ele><time>2026-04-18T17:45:04Z</time></trkpt><trkpt lat="47.684033584656326" lon="12.044389432223003"><ele>1054.0</ele><time>2026-04-18T17:45:05Z</time></trkpt><trkpt lat="47.684027546086604" lon="12.044549261884665"><ele>1054.0</ele><time>2026-04-18T17:45:06Z</time></trkpt><trkpt lat="47.68403443705866" lon="12.044699682874075"><ele>1054.0</ele><time>2026-04-18T17:45:07Z</time></trkpt><trkpt lat="47.68404998848492" lon="12.044857132386786"><ele>1054.0</ele><time>2026-04-18T17:45:08Z</time></trkpt><trkpt lat="47.684066618268" lon="12.045017470971775"><ele>1055.0</ele><time>2026-04-18T17:45:09Z</time></trkpt><trkpt lat="47.68405556370028" lon="12.045168374557624"><ele>1056.0</ele><time>2026-04-18T17:45:10Z</time></trkpt><trkpt lat="47.68407006852849" lon="12.045315189843153"><ele>1057.0</ele><time>2026-04-18T17:45:11Z</time></trkpt><trkpt lat="47.68405273892666" lon="12.045466268426882"><ele>1058.0</ele><time>2026-04-18T17:45:12Z</time></trkpt><trkpt lat="47.68402329599553" lon="12.045610373634483"><ele>1059.0</ele><time>2026-04-18T17:45:13Z</time></trkpt><trkpt lat="47.68397913230569" lon="12.045748327905638"><ele>1060.2</ele><time>2026-04-18T17:45:14Z</time></trkpt><trkpt lat="47.68391696621194" lon="12.045878124736584"><ele>1061.4</ele><time>2026-04-18T17:45:15Z</time></trkpt><trkpt lat="47.68383823198932" lon="12.045987007719"><ele>1062.6</ele><time>2026-04-18T17:45:16Z</time></trkpt><trkpt lat="47.683747840600624" lon="12.046087246794112"><ele>1063.8</ele><time>2026-04-18T17:45:17Z</time></trkpt><trkpt lat="47.68366195168133" lon="12.046194276777838"><ele>1065.0</ele><time>2026-04-18T17:45:18Z</time></trkpt><trkpt lat="47.683588636755616" lon="12.046298135312918"><ele>1062.0</ele><time>2026-04-18T17:45:19Z</time></trkpt><trkpt lat="47.68351223499476" lon="12.046410040171988"><ele>1059.0</ele><time>2026-04-18T17:45:20Z</time></trkpt><trkpt lat="47.6834321653738" lon="12.046509566141344"><ele>1056.0</ele><time>2026-04-18T17:45:21Z</time></trkpt><trkpt lat="47.683353115621905" lon="12.046615673767377"><ele>1053.0</ele><time>2026-04-18T17:45:22Z</time></trkpt><trkpt lat="47.68326605981776" lon="12.046729519671056"><ele>1050.0</ele><time>2026-04-18T17:45:23Z</time></trkpt><trkpt lat="47.68318330097253" lon="12.046840641488629"><ele>1050.0</ele><time>2026-04-18T17:45:24Z</time></trkpt><trkpt lat="47.68308786437638" lon="12.046962186589935"><ele>1050.0</ele><time>2026-04-18T17:45:25Z</time></trkpt><trkpt lat="47.68298301035184" lon="12.047102515779278"><ele>1050.0</ele><time>2026-04-18T17:45:26Z</time></trkpt><trkpt lat="47.68287288441282" lon="12.047249753396414"><ele>1050.0</ele><time>2026-04-18T17:45:27Z</time></trkpt><trkpt lat="47.6827656320803" lon="12.047395979133032"><ele>1047.25</ele><time>2026-04-18T17:45:28Z</time></trkpt><trkpt lat="47.682663032319134" lon="12.047535077871702"><ele>1044.5</ele><time>2026-04-18T17:45:29Z</time></trkpt><trkpt lat="47.68256653113699" lon="12.047677646682047"><ele>1041.75</ele><time>2026-04-18T17:45:30Z</time></trkpt><trkpt lat="47.68247683101203" lon="12.047831642129776"><ele>1039.0</ele><time>2026-04-18T17:45:31Z</time></trkpt><trkpt lat="47.68239188504917" lon="12.048002663633365"><ele>1039.0</ele><time>2026-04-18T17:45:32Z</time></trkpt><trkpt lat="47.6823158375791" lon="12.048176768030634"><ele>1039.0</ele><time>2026-04-18T17:45:33Z</time></trkpt><trkpt lat="47.682247756135354" lon="12.048354690071326"><ele>1039.0</ele><time>2026-04-18T17:45:34Z</time></trkpt><trkpt lat="47.68218322023026" lon="12.04853895127298"><ele>1039.0</ele><time>2026-04-18T17:45:35Z</time></trkpt><trkpt lat="47.68211753494981" lon="12.048729254196603"><ele>1040.75</ele><time>2026-04-18T17:45:36Z</time></trkpt><trkpt lat="47.68205072655246" lon="12.04892032879792"><ele>1042.5</ele><time>2026-04-18T17:45:37Z</time></trkpt><trkpt lat="47.68198563811605" lon="12.04911535258712"><ele>1044.25</ele><time>2026-04-18T17:45:38Z</time></trkpt><trkpt lat="47.68192437238294" lon="12.049310931164317"><ele>1046.0</ele><time>2026-04-18T17:45:39Z</time></trkpt><trkpt lat="47.68186618874872" lon="12.04950674740982"><ele>1042.25</ele><time>2026-04-18T17:45:40Z</time></trkpt><trkpt lat="47.68181136381617" lon="12.049706797668605"><ele>1038.5</ele><time>2026-04-18T17:45:41Z</time></trkpt><trkpt lat="47.68176289287003" lon="12.04989648352316"><ele>1034.75</ele><time>2026-04-18T17:45:42Z</time></trkpt><trkpt lat="47.681714500193635" lon="12.05008344244302"><ele>1031.0</ele><time>2026-04-18T17:45:43Z</time></trkpt><trkpt lat="47.68166500589179" lon="12.050268440383048"><ele>1031.0</ele><time>2026-04-18T17:45:44Z</time></trkpt><trkpt lat="47.68161608016847" lon="12.05044693565063"><ele>1031.0</ele><time>2026-04-18T17:45:45Z</time></trkpt><trkpt lat="47.6815638064858" lon="12.050638161918483"><ele>1031.0</ele><time>2026-04-18T17:45:46Z</time></trkpt><trkpt lat="47.681508241717395" lon="12.050842723343791"><ele>1031.0</ele><time>2026-04-18T17:45:47Z</time></trkpt><trkpt lat="47.681453116190184" lon="12.05104041115337"><ele>1032.25</ele><time>2026-04-18T17:45:48Z</time></trkpt><trkpt lat="47.681401104538544" lon="12.051239316036925"><ele>1033.5</ele><time>2026-04-18T17:45:49Z</time></trkpt><trkpt lat="47.68135258673564" lon="12.051447787221248"><ele>1034.75</ele><time>2026-04-18T17:45:50Z</time></trkpt><trkpt lat="47.68131053391755" lon="12.0516509448551"><ele>1036.0</ele><time>2026-04-18T17:45:51Z</time></trkpt><trkpt lat="47.68127384556124" lon="12.051850456848548"><ele>1037.25</ele><time>2026-04-18T17:45:52Z</time></trkpt><trkpt lat="47.68124045105222" lon="12.052051496911629"><ele>1038.5</ele><time>2026-04-18T17:45:53Z</time></trkpt><trkpt lat="47.68120982278188" lon="12.052258467212706"><ele>1039.75</ele><time>2026-04-18T17:45:54Z</time></trkpt><trkpt lat="47.68118021626971" lon="12.052465115541297"><ele>1041.0</ele><time>2026-04-18T17:45:55Z</time></trkpt><trkpt lat="47.681148129876796" lon="12.052660748927867"><ele>1042.5</ele><time>2026-04-18T17:45:56Z</time></trkpt><trkpt lat="47.68112018892527" lon="12.052852128107393"><ele>1044.0</ele><time>2026-04-18T17:45:57Z</time></trkpt><trkpt lat="47.681096287589924" lon="12.053044491440668"><ele>1045.5</ele><time>2026-04-18T17:45:58Z</time></trkpt><trkpt lat="47.68108162697617" lon="12.05323739244785"><ele>1047.0</ele><time>2026-04-18T17:45:59Z</time></trkpt><trkpt lat="47.68107620339814" lon="12.05342822593478"><ele>1046.75</ele><time>2026-04-18T17:46:00Z</time></trkpt><trkpt lat="47.68107299518176" lon="12.053619714272541"><ele>1046.5</ele><time>2026-04-18T17:46:01Z</time></trkpt><trkpt lat="47.68110153825047" lon="12.053779793763375"><ele>1046.25</ele><time>2026-04-18T17:46:02Z</time></trkpt><trkpt lat="47.681143556835664" lon="12.053954131068561"><ele>1046.0</ele><time>2026-04-18T17:46:03Z</time></trkpt><trkpt lat="47.6812019722073" lon="12.05411548816744"><ele>1042.25</ele><time>2026-04-18T17:46:04Z</time></trkpt><trkpt lat="47.6812779910308" lon="12.054269765060479"><ele>1038.5</ele><time>2026-04-18T17:46:05Z</time></trkpt><trkpt lat="47.681372080698026" lon="12.054410495627996"><ele>1034.75</ele><time>2026-04-18T17:46:06Z</time></trkpt><trkpt lat="47.681478860115135" lon="12.054529045546097"><ele>1031.0</ele><time>2026-04-18T17:46:07Z</time></trkpt><trkpt lat="47.6816058381554" lon="12.054639649844287"><ele>1031.0</ele><time>2026-04-18T17:46:08Z</time></trkpt><trkpt lat="47.68175515575449" lon="12.054723261313923"><ele>1031.0</ele><time>2026-04-18T17:46:09Z</time></trkpt><trkpt lat="47.68189624760793" lon="12.054783300971648"><ele>1031.0</ele><time>2026-04-18T17:46:10Z</time></trkpt><trkpt lat="47.68202666341184" lon="12.054842776686206"><ele>1031.0</ele><time>2026-04-18T17:46:11Z</time></trkpt><trkpt lat="47.68215637598439" lon="12.054893649427168"><ele>1032.5</ele><time>2026-04-18T17:46:12Z</time></trkpt><trkpt lat="47.68228974049264" lon="12.054937064423704"><ele>1034.0</ele><time>2026-04-18T17:46:13Z</time></trkpt><trkpt lat="47.682430270004126" lon="12.054971135069671"><ele>1035.5</ele><time>2026-04-18T17:46:14Z</time></trkpt><trkpt lat="47.68257418919036" lon="12.054989886644904"><ele>1037.0</ele><time>2026-04-18T17:46:15Z</time></trkpt><trkpt lat="47.68272903135749" lon="12.054982570644235"><ele>1037.0</ele><time>2026-04-18T17:46:16Z</time></trkpt><trkpt lat="47.68288561207562" lon="12.054952833733092"><ele>1037.0</ele><time>2026-04-18T17:46:17Z</time></trkpt><trkpt lat="47.68302779612279" lon="12.054909734369648"><ele>1037.0</ele><time>2026-04-18T17:46:18Z</time></trkpt><trkpt lat="47.68317051287268" lon="12.05487454805572"><ele>1037.0</ele><time>2026-04-18T17:46:19Z</time></trkpt><trkpt lat="47.68330858252637" lon="12.054837930823558"><ele>1037.0</ele><time>2026-04-18T17:46:20Z</time></trkpt><trkpt lat="47.68344195752958" lon="12.054815112375787"><ele>1037.0</ele><time>2026-04-18T17:46:21Z</time></trkpt><trkpt lat="47.683574444725856" lon="12.054805575692832"><ele>1037.0</ele><time>2026-04-18T17:46:22Z</time></trkpt><trkpt lat="47.68371222470668" lon="12.054834970625476"><ele>1037.0</ele><time>2026-04-18T17:46:23Z</time></trkpt><trkpt lat="47.68385000852555" lon="12.054857368395956"><ele>1036.0</ele><time>2026-04-18T17:46:24Z</time></trkpt><trkpt lat="47.683984067720864" lon="12.05486586146158"><ele>1035.0</ele><time>2026-04-18T17:46:25Z</time></trkpt><trkpt lat="47.684110771585004" lon="12.05490440697639"><ele>1034.0</ele><time>2026-04-18T17:46:26Z</time></trkpt><trkpt lat="47.68424303896391" lon="12.054931828619463"><ele>1033.0</ele><time>2026-04-18T17:46:27Z</time></trkpt><trkpt lat="47.684377954658046" lon="12.054942030624783"><ele>1029.0</ele><time>2026-04-18T17:46:28Z</time></trkpt><trkpt lat="47.684518974795864" lon="12.054936267175634"><ele>1025.0</ele><time>2026-04-18T17:46:29Z</time></trkpt><trkpt lat="47.68465715036705" lon="12.054905317112148"><ele>1021.0</ele><time>2026-04-18T17:46:30Z</time></trkpt><trkpt lat="47.68478859679671" lon="12.054856126087161"><ele>1017.0</ele><time>2026-04-18T17:46:31Z</time></trkpt><trkpt lat="47.68491963948365" lon="12.054806943373856"><ele>1017.0</ele><time>2026-04-18T17:46:32Z</time></trkpt><trkpt lat="47.68505512645732" lon="12.054763129357548"><ele>1017.0</ele><time>2026-04-18T17:46:33Z</time></trkpt><trkpt lat="47.6851876001379" lon="12.054719452023953"><ele>1017.0</ele><time>2026-04-18T17:46:34Z</time></trkpt><trkpt lat="47.68531512867514" lon="12.054684346883722"><ele>1017.0</ele><time>2026-04-18T17:46:35Z</time></trkpt><trkpt lat="47.6854337362533" lon="12.05464945660506"><ele>1015.25</ele><time>2026-04-18T17:46:36Z</time></trkpt><trkpt lat="47.68554674208725" lon="12.05461995421905"><ele>1013.5</ele><time>2026-04-18T17:46:37Z</time></trkpt><trkpt lat="47.6856597535578" lon="12.054639336809092"><ele>1011.75</ele><time>2026-04-18T17:46:38Z</time></trkpt><trkpt lat="47.685771868478994" lon="12.05462472012206"><ele>1010.0</ele><time>2026-04-18T17:46:39Z</time></trkpt><trkpt lat="47.685891157169934" lon="12.05467889282943"><ele>1010.0</ele><time>2026-04-18T17:46:40Z</time></trkpt><trkpt lat="47.68600950035637" lon="12.054734938069943"><ele>1010.0</ele><time>2026-04-18T17:46:41Z</time></trkpt><trkpt lat="47.686118960642936" lon="12.054820947084751"><ele>1010.0</ele><time>2026-04-18T17:46:42Z</time></trkpt><trkpt lat="47.6862167944382" lon="12.054925781398218"><ele>1010.0</ele><time>2026-04-18T17:46:43Z</time></trkpt><trkpt lat="47.686305748352495" lon="12.055042249286295"><ele>1008.5</ele><time>2026-04-18T17:46:44Z</time></trkpt><trkpt lat="47.6863769858205" lon="12.055180559342148"><ele>1007.0</ele><time>2026-04-18T17:46:45Z</time></trkpt><trkpt lat="47.68643666366117" lon="12.055326589032575"><ele>1005.5</ele><time>2026-04-18T17:46:46Z</time></trkpt><trkpt lat="47.68648360144944" lon="12.055475801816616"><ele>1004.0</ele><time>2026-04-18T17:46:47Z</time></trkpt><trkpt lat="47.686513605799355" lon="12.055639787697883"><ele>1002.0</ele><time>2026-04-18T17:46:48Z</time></trkpt><trkpt lat="47.686533738905595" lon="12.055822783599961"><ele>1000.0</ele><time>2026-04-18T17:46:49Z</time></trkpt><trkpt lat="47.68653657884689" lon="12.056017587234612"><ele>998.0</ele><time>2026-04-18T17:46:50Z</time></trkpt><trkpt lat="47.68651495649207" lon="12.056211204313719"><ele>996.0</ele><time>2026-04-18T17:46:51Z</time></trkpt><trkpt lat="47.68647366988157" lon="12.056391492202224"><ele>996.0</ele><time>2026-04-18T17:46:52Z</time></trkpt><trkpt lat="47.68641414001196" lon="12.056570274943692"><ele>996.0</ele><time>2026-04-18T17:46:53Z</time></trkpt><trkpt lat="47.686350217948124" lon="12.05672496869962"><ele>996.0</ele><time>2026-04-18T17:46:54Z</time></trkpt><trkpt lat="47.686280034885726" lon="12.05685605136113"><ele>996.0</ele><time>2026-04-18T17:46:55Z</time></trkpt><trkpt lat="47.68621114444226" lon="12.05698559708262"><ele>996.0</ele><time>2026-04-18T17:46:56Z</time></trkpt><trkpt lat="47.686119098797555" lon="12.057080441657545"><ele>996.0</ele><time>2026-04-18T17:46:57Z</time></trkpt><trkpt lat="47.686012621279595" lon="12.057163778879966"><ele>996.0</ele><time>2026-04-18T17:46:58Z</time></trkpt><trkpt lat="47.68589381059925" lon="12.057223839228271"><ele>996.0</ele><time>2026-04-18T17:46:59Z</time></trkpt><trkpt lat="47.68576133691895" lon="12.057255785322416"><ele>996.0</ele><time>2026-04-18T17:47:00Z</time></trkpt><trkpt lat="47.68561943990288" lon="12.057265019637303"><ele>996.0</ele><time>2026-04-18T17:47:01Z</time></trkpt><trkpt lat="47.68548961297794" lon="12.057276953553815"><ele>996.0</ele><time>2026-04-18T17:47:02Z</time></trkpt><trkpt lat="47.68536597732395" lon="12.057293009897743"><ele>996.0</ele><time>2026-04-18T17:47:03Z</time></trkpt><trkpt lat="47.68524126827947" lon="12.057310984422621"><ele>995.25</ele><time>2026-04-18T17:47:04Z</time></trkpt><trkpt lat="47.685112413533226" lon="12.057332233919457"><ele>994.5</ele><time>2026-04-18T17:47:05Z</time></trkpt><trkpt lat="47.68497996736915" lon="12.057355215440197"><ele>993.75</ele><time>2026-04-18T17:47:06Z</time></trkpt><trkpt lat="47.68484521877671" lon="12.057386272075382"><ele>993.0</ele><time>2026-04-18T17:47:07Z</time></trkpt><trkpt lat="47.6847082609233" lon="12.057437167812594"><ele>992.6666666666667</ele><time>2026-04-18T17:47:08Z</time></trkpt><trkpt lat="47.68455753223218" lon="12.057507951103824"><ele>992.3333333333334</ele><time>2026-04-18T17:47:09Z</time></trkpt><trkpt lat="47.68441682344638" lon="12.057586420833871"><ele>992.0</ele><time>2026-04-18T17:47:10Z</time></trkpt><trkpt lat="47.6842849861216" lon="12.057663588435762"><ele>992.0</ele><time>2026-04-18T17:47:11Z</time></trkpt><trkpt lat="47.684157979810166" lon="12.057734421323339"><ele>992.0</ele><time>2026-04-18T17:47:12Z</time></trkpt><trkpt lat="47.68403592131454" lon="12.057800058093717"><ele>992.0</ele><time>2026-04-18T17:47:13Z</time></trkpt><trkpt lat="47.68391523192144" lon="12.05785486733334"><ele>992.0</ele><time>2026-04-18T17:47:14Z</time></trkpt><trkpt lat="47.68378778888926" lon="12.057919508650436"><ele>992.0</ele><time>2026-04-18T17:47:15Z</time></trkpt><trkpt lat="47.68365525292322" lon="12.057992575428466"><ele>992.0</ele><time>2026-04-18T17:47:16Z</time></trkpt><trkpt lat="47.683517186385146" lon="12.05806682205362"><ele>992.0</ele><time>2026-04-18T17:47:17Z</time></trkpt><trkpt lat="47.68337816659943" lon="12.058138275563113"><ele>992.0</ele><time>2026-04-18T17:47:18Z</time></trkpt><trkpt lat="47.68323059963476" lon="12.058213208274308"><ele>991.6666666666667</ele><time>2026-04-18T17:47:19Z</time></trkpt><trkpt lat="47.68305245890047" lon="12.058303857675027"><ele>991.3333333333333</ele><time>2026-04-18T17:47:20Z</time></trkpt><trkpt lat="47.682847971359706" lon="12.058412155827792"><ele>991.0</ele><time>2026-04-18T17:47:21Z</time></trkpt><trkpt lat="47.68261982518498" lon="12.058540436824423"><ele>987.0</ele><time>2026-04-18T17:47:22Z</time></trkpt><trkpt lat="47.68237559616259" lon="12.058695356258673"><ele>983.0</ele><time>2026-04-18T17:47:23Z</time></trkpt><trkpt lat="47.68213307287107" lon="12.05886350420635"><ele>984.0</ele><time>2026-04-18T17:47:24Z</time></trkpt><trkpt lat="47.68192364900214" lon="12.05901441715531"><ele>985.0</ele><time>2026-04-18T17:47:25Z</time></trkpt><trkpt lat="47.68173211660213" lon="12.059157735368746"><ele>986.0</ele><time>2026-04-18T17:47:26Z</time></trkpt><trkpt lat="47.681556869428384" lon="12.059295187896751"><ele>986.0</ele><time>2026-04-18T17:47:27Z</time></trkpt><trkpt lat="47.6813993987092" lon="12.059425314973673"><ele>986.0</ele><time>2026-04-18T17:47:28Z</time></trkpt><trkpt lat="47.68123986991709" lon="12.05955798631045"><ele>986.0</ele><time>2026-04-18T17:47:29Z</time></trkpt><trkpt lat="47.68107779260227" lon="12.059688019675633"><ele>985.3333333333334</ele><time>2026-04-18T17:47:30Z</time></trkpt><trkpt lat="47.68092779294462" lon="12.05980801557832"><ele>984.6666666666667</ele><time>2026-04-18T17:47:31Z</time></trkpt><trkpt lat="47.68079023511126" lon="12.059917708349447"><ele>984.0</ele><time>2026-04-18T17:47:32Z</time></trkpt><trkpt lat="47.68066190905812" lon="12.060021040223909"><ele>984.5</ele><time>2026-04-18T17:47:33Z</time></trkpt><trkpt lat="47.68053611931613" lon="12.060122782682681"><ele>985.0</ele><time>2026-04-18T17:47:34Z</time></trkpt><trkpt lat="47.68042321200545" lon="12.060218565857781"><ele>985.5</ele><time>2026-04-18T17:47:35Z</time></trkpt><trkpt lat="47.680320340125824" lon="12.060299032869858"><ele>986.0</ele><time>2026-04-18T17:47:36Z</time></trkpt><trkpt lat="47.68021451303951" lon="12.060379072862744"><ele>986.0</ele><time>2026-04-18T17:47:37Z</time></trkpt><trkpt lat="47.68009589015187" lon="12.060474931859781"><ele>986.0</ele><time>2026-04-18T17:47:38Z</time></trkpt><trkpt lat="47.67996709280449" lon="12.060582100847812"><ele>986.0</ele><time>2026-04-18T17:47:39Z</time></trkpt><trkpt lat="47.67983000230713" lon="12.060691494549653"><ele>986.0</ele><time>2026-04-18T17:47:40Z</time></trkpt><trkpt lat="47.67968469151735" lon="12.06080029907286"><ele>989.0</ele><time>2026-04-18T17:47:41Z</time></trkpt><trkpt lat="47.679536030974546" lon="12.060921329448998"><ele>992.0</ele><time>2026-04-18T17:47:42Z</time></trkpt><trkpt lat="47.67939058760535" lon="12.061042588115493"><ele>995.0</ele><time>2026-04-18T17:47:43Z</time></trkpt><trkpt lat="47.67926417893421" lon="12.061151377189061"><ele>995.0</ele><time>2026-04-18T17:47:44Z</time></trkpt><trkpt lat="47.67914536936349" lon="12.061262095836819"><ele>995.0</ele><time>2026-04-18T17:47:45Z</time></trkpt><trkpt lat="47.67903904921829" lon="12.06139498132702"><ele>995.0</ele><time>2026-04-18T17:47:46Z</time></trkpt><trkpt lat="47.67894610495107" lon="12.061570291643314"><ele>995.0</ele><time>2026-04-18T17:47:47Z</time></trkpt><trkpt lat="47.67886181924035" lon="12.061786003224636"><ele>1001.6666666666667</ele><time>2026-04-18T17:47:48Z</time></trkpt><trkpt lat="47.678788699954985" lon="12.062034037647857"><ele>1008.3333333333333</ele><time>2026-04-18T17:47:49Z</time></trkpt><trkpt lat="47.67872144394779" lon="12.062283144009314"><ele>1015.0</ele><time>2026-04-18T17:47:50Z</time></trkpt><trkpt lat="47.67865401202067" lon="12.062493991448632"><ele>1009.6666666666666</ele><time>2026-04-18T17:47:51Z</time></trkpt><trkpt lat="47.67859182919467" lon="12.062700287663878"><ele>1004.3333333333333</ele><time>2026-04-18T17:47:52Z</time></trkpt><trkpt lat="47.67853082783502" lon="12.06290439922367"><ele>999.0</ele><time>2026-04-18T17:47:53Z</time></trkpt><trkpt lat="47.678437825711775" lon="12.06307944506491"><ele>999.0</ele><time>2026-04-18T17:47:54Z</time></trkpt><trkpt lat="47.67835280680804" lon="12.063275405526971"><ele>999.0</ele><time>2026-04-18T17:47:55Z</time></trkpt><trkpt lat="47.67824072721781" lon="12.063441849687683"><ele>999.0</ele><time>2026-04-18T17:47:56Z</time></trkpt><trkpt lat="47.67811646332648" lon="12.06359136373134"><ele>998.5</ele><time>2026-04-18T17:47:57Z</time></trkpt><trkpt lat="47.67798356863761" lon="12.063714512928485"><ele>998.0</ele><time>2026-04-18T17:47:58Z</time></trkpt><trkpt lat="47.677858163544286" lon="12.06382285875669"><ele>997.5</ele><time>2026-04-18T17:47:59Z</time></trkpt><trkpt lat="47.67774130324591" lon="12.063930121054765"><ele>997.0</ele><time>2026-04-18T17:48:00Z</time></trkpt><trkpt lat="47.67763539836717" lon="12.06403419220904"><ele>1001.5</ele><time>2026-04-18T17:48:01Z</time></trkpt><trkpt lat="47.67753544708487" lon="12.06414182290785"><ele>1006.0</ele><time>2026-04-18T17:48:02Z</time></trkpt><trkpt lat="47.67743290847705" lon="12.064242271773317"><ele>1010.5</ele><time>2026-04-18T17:48:03Z</time></trkpt><trkpt lat="47.67732914144236" lon="12.064339162961971"><ele>1015.0</ele><time>2026-04-18T17:48:04Z</time></trkpt><trkpt lat="47.6772295609664" lon="12.064436037287097"><ele>1015.0</ele><time>2026-04-18T17:48:05Z</time></trkpt><trkpt lat="47.677137076817125" lon="12.064529066208724"><ele>1015.0</ele><time>2026-04-18T17:48:06Z</time></trkpt><trkpt lat="47.67705355389728" lon="12.064614176722282"><ele>1015.0</ele><time>2026-04-18T17:48:07Z</time></trkpt><trkpt lat="47.676969505421134" lon="12.064699297473851"><ele>1015.0</ele><time>2026-04-18T17:48:08Z</time></trkpt><trkpt lat="47.6768807461699" lon="12.064786682897331"><ele>1015.0</ele><time>2026-04-18T17:48:09Z</time></trkpt><trkpt lat="47.67678843928901" lon="12.064877173206362"><ele>1014.25</ele><time>2026-04-18T17:48:10Z</time></trkpt><trkpt lat="47.6766913811768" lon="12.064975829199259"><ele>1013.5</ele><time>2026-04-18T17:48:11Z</time></trkpt><trkpt lat="47.67659194107274" lon="12.065069781375051"><ele>1012.75</ele><time>2026-04-18T17:48:12Z</time></trkpt><trkpt lat="47.67648013973155" lon="12.065161212630299"><ele>1012.0</ele><time>2026-04-18T17:48:13Z</time></trkpt><trkpt lat="47.676354873485906" lon="12.065248695113187"><ele>1012.0</ele><time>2026-04-18T17:48:14Z</time></trkpt><trkpt lat="47.67622129633734" lon="12.065322187075413"><ele>1012.0</ele><time>2026-04-18T17:48:15Z</time></trkpt><trkpt lat="47.676086003745844" lon="12.0653853148991"><ele>1012.0</ele><time>2026-04-18T17:48:16Z</time></trkpt><trkpt lat="47.67595430985098" lon="12.065424221933691"><ele>1012.0</ele><time>2026-04-18T17:48:17Z</time></trkpt><trkpt lat="47.67582486127074" lon="12.065453397248268"><ele>1010.0</ele><time>2026-04-18T17:48:18Z</time></trkpt><trkpt lat="47.67569555258544" lon="12.065480879756896"><ele>1008.0</ele><time>2026-04-18T17:48:19Z</time></trkpt><trkpt lat="47.675578966775355" lon="12.065506373661096"><ele>1006.0</ele><time>2026-04-18T17:48:20Z</time></trkpt><trkpt lat="47.675468199025296" lon="12.065538919572134"><ele>1004.0</ele><time>2026-04-18T17:48:21Z</time></trkpt><trkpt lat="47.67536287930713" lon="12.065586249944616"><ele>1005.0</ele><time>2026-04-18T17:48:22Z</time></trkpt><trkpt lat="47.675263967208274" lon="12.065659754085098"><ele>1006.0</ele><time>2026-04-18T17:48:23Z</time></trkpt><trkpt lat="47.67516383180212" lon="12.065773066101375"><ele>1007.0</ele><time>2026-04-18T17:48:24Z</time></trkpt><trkpt lat="47.675084969617714" lon="12.065924926762072"><ele>1008.0</ele><time>2026-04-18T17:48:25Z</time></trkpt><trkpt lat="47.67502700286915" lon="12.066105330096619"><ele>1008.0</ele><time>2026-04-18T17:48:26Z</time></trkpt><trkpt lat="47.67498954635576" lon="12.066311452085461"><ele>1008.0</ele><time>2026-04-18T17:48:27Z</time></trkpt><trkpt lat="47.67497123497369" lon="12.066527498263914"><ele>1008.0</ele><time>2026-04-18T17:48:28Z</time></trkpt><trkpt lat="47.674936165592136" lon="12.066722573144585"><ele>1008.0</ele><time>2026-04-18T17:48:29Z</time></trkpt><trkpt lat="47.674930278864316" lon="12.066918560560207"><ele>1009.75</ele><time>2026-04-18T17:48:30Z</time></trkpt><trkpt lat="47.674893108682234" lon="12.067100305510895"><ele>1011.5</ele><time>2026-04-18T17:48:31Z</time></trkpt><trkpt lat="47.674834566118435" lon="12.067274388727471"><ele>1013.25</ele><time>2026-04-18T17:48:32Z</time></trkpt><trkpt lat="47.67475212633864" lon="12.067450161285246"><ele>1015.0</ele><time>2026-04-18T17:48:33Z</time></trkpt><trkpt lat="47.67464489284237" lon="12.067617196678798"><ele>1016.3333333333333</ele><time>2026-04-18T17:48:34Z</time></trkpt><trkpt lat="47.67451869280731" lon="12.067759942327527"><ele>1017.6666666666667</ele><time>2026-04-18T17:48:35Z</time></trkpt><trkpt lat="47.67439166860068" lon="12.067877196160257"><ele>1019.0</ele><time>2026-04-18T17:48:36Z</time></trkpt><trkpt lat="47.674271215397845" lon="12.067994972267368"><ele>1015.0</ele><time>2026-04-18T17:48:37Z</time></trkpt><trkpt lat="47.674157433537694" lon="12.068113489565912"><ele>1011.0</ele><time>2026-04-18T17:48:38Z</time></trkpt><trkpt lat="47.67404915780823" lon="12.068235616095539"><ele>1007.0</ele><time>2026-04-18T17:48:39Z</time></trkpt><trkpt lat="47.6739482889317" lon="12.068370746017353"><ele>1003.0</ele><time>2026-04-18T17:48:40Z</time></trkpt><trkpt lat="47.67385923680445" lon="12.068531432312055"><ele>1003.0</ele><time>2026-04-18T17:48:41Z</time></trkpt><trkpt lat="47.673767487267206" lon="12.068700418883322"><ele>1003.0</ele><time>2026-04-18T17:48:42Z</time></trkpt><trkpt lat="47.6736860739131" lon="12.06888089035671"><ele>1003.0</ele><time>2026-04-18T17:48:43Z</time></trkpt><trkpt lat="47.673604247645684" lon="12.069083723439059"><ele>997.3333333333333</ele><time>2026-04-18T17:48:44Z</time></trkpt><trkpt lat="47.67353228375673" lon="12.069298644669455"><ele>991.6666666666667</ele><time>2026-04-18T17:48:45Z</time></trkpt><trkpt lat="47.67347443577151" lon="12.069506831167095"><ele>986.0</ele><time>2026-04-18T17:48:46Z</time></trkpt><trkpt lat="47.67343659913067" lon="12.06970478716975"><ele>986.0</ele><time>2026-04-18T17:48:47Z</time></trkpt><trkpt lat="47.67340042660403" lon="12.069887090009686"><ele>986.0</ele><time>2026-04-18T17:48:48Z</time></trkpt><trkpt lat="47.67336732392389" lon="12.070049789697345"><ele>986.0</ele><time>2026-04-18T17:48:49Z</time></trkpt><trkpt lat="47.67333276754314" lon="12.070200000539316"><ele>986.0</ele><time>2026-04-18T17:48:50Z</time></trkpt><trkpt lat="47.67329972608896" lon="12.070343581085439"><ele>985.8</ele><time>2026-04-18T17:48:51Z</time></trkpt><trkpt lat="47.67325553649699" lon="12.070498557611833"><ele>985.5999999999999</ele><time>2026-04-18T17:48:52Z</time></trkpt><trkpt lat="47.67322434899236" lon="12.070640067028291"><ele>985.4</ele><time>2026-04-18T17:48:53Z</time></trkpt><trkpt lat="47.67319442039902" lon="12.07078055208645"><ele>985.2</ele><time>2026-04-18T17:48:54Z</time></trkpt><trkpt lat="47.67316520257463" lon="12.070913046526758"><ele>985.0</ele><time>2026-04-18T17:48:55Z</time></trkpt><trkpt lat="47.67314221581493" lon="12.071020725786545"><ele>985.0</ele><time>2026-04-18T17:48:56Z</time></trkpt><trkpt lat="47.67311778285929" lon="12.071129135642805"><ele>985.0000000000001</ele><time>2026-04-18T17:48:57Z</time></trkpt><trkpt lat="47.67308807297164" lon="12.071232919004279"><ele>985.0</ele><time>2026-04-18T17:48:58Z</time></trkpt><trkpt lat="47.67305266511808" lon="12.071321176964208"><ele>985.0</ele><time>2026-04-18T17:48:59Z</time></trkpt><trkpt lat="47.67300484440403" lon="12.071392178779744"><ele>985.0000000000001</ele><time>2026-04-18T17:49:00Z</time></trkpt><trkpt lat="47.672944165183154" lon="12.071449592005367"><ele>985.0</ele><time>2026-04-18T17:49:01Z</time></trkpt><trkpt lat="47.67287110074248" lon="12.071474143537564"><ele>985.0</ele><time>2026-04-18T17:49:02Z</time></trkpt><trkpt lat="47.67279324848003" lon="12.071447170348456"><ele>980.2</ele><time>2026-04-18T17:49:03Z</time></trkpt><trkpt lat="47.672720080706114" lon="12.071364968590801"><ele>975.4</ele><time>2026-04-18T17:49:04Z</time></trkpt><trkpt lat="47.67266188117581" lon="12.071228400356631"><ele>970.5999999999999</ele><time>2026-04-18T17:49:05Z</time></trkpt><trkpt lat="47.672627446144475" lon="12.071060432221234"><ele>965.8</ele><time>2026-04-18T17:49:06Z</time></trkpt><trkpt lat="47.672622469063995" lon="12.070872062436202"><ele>961.0</ele><time>2026-04-18T17:49:07Z</time></trkpt><trkpt lat="47.67262537634495" lon="12.070690801981657"><ele>960.8</ele><time>2026-04-18T17:49:08Z</time></trkpt><trkpt lat="47.67261254672434" lon="12.070524371261804"><ele>960.5999999999999</ele><time>2026-04-18T17:49:09Z</time></trkpt><trkpt lat="47.67259987765294" lon="12.0703655670629"><ele>960.4</ele><time>2026-04-18T17:49:10Z</time></trkpt><trkpt lat="47.67258815989829" lon="12.070207965704405"><ele>960.2</ele><time>2026-04-18T17:49:11Z</time></trkpt><trkpt lat="47.67257615438816" lon="12.070055595406608"><ele>960.0</ele><time>2026-04-18T17:49:12Z</time></trkpt><trkpt lat="47.67256211900935" lon="12.069921869891745"><ele>960.0</ele><time>2026-04-18T17:49:13Z</time></trkpt><trkpt lat="47.672542394121734" lon="12.069791414043726"><ele>960.0</ele><time>2026-04-18T17:49:14Z</time></trkpt><trkpt lat="47.672509366603045" lon="12.069665428664342"><ele>960.0</ele><time>2026-04-18T17:49:15Z</time></trkpt><trkpt lat="47.67245858001464" lon="12.06954901076567"><ele>960.0</ele><time>2026-04-18T17:49:16Z</time></trkpt><trkpt lat="47.67239240471629" lon="12.069448025319492"><ele>960.0</ele><time>2026-04-18T17:49:17Z</time></trkpt><trkpt lat="47.67231653360817" lon="12.069359615087022"><ele>960.0</ele><time>2026-04-18T17:49:18Z</time></trkpt><trkpt lat="47.6722280132525" lon="12.06929380812785"><ele>960.0</ele><time>2026-04-18T17:49:19Z</time></trkpt><trkpt lat="47.6721290660461" lon="12.069253415070989"><ele>960.0</ele><time>2026-04-18T17:49:20Z</time></trkpt><trkpt lat="47.67202731350858" lon="12.069232885988027"><ele>960.0</ele><time>2026-04-18T17:49:21Z</time></trkpt><trkpt lat="47.67192714199878" lon="12.069241154727337"><ele>960.0</ele><time>2026-04-18T17:49:22Z</time></trkpt><trkpt lat="47.671829454898415" lon="12.069277689990823"><ele>955.6</ele><time>2026-04-18T17:49:23Z</time></trkpt><trkpt lat="47.67173535996629" lon="12.069345650398342"><ele>951.2</ele><time>2026-04-18T17:49:24Z</time></trkpt><trkpt lat="47.67164847109555" lon="12.069439758477086"><ele>946.8</ele><time>2026-04-18T17:49:25Z</time></trkpt><trkpt lat="47.67157457808127" lon="12.069555033693584"><ele>942.4</ele><time>2026-04-18T17:49:26Z</time></trkpt><trkpt lat="47.67151979421621" lon="12.069685341693907"><ele>938.0</ele><time>2026-04-18T17:49:27Z</time></trkpt><trkpt lat="47.67148091182029" lon="12.069824840164301"><ele>939.75</ele><time>2026-04-18T17:49:28Z</time></trkpt><trkpt lat="47.67144832494396" lon="12.069998888343164"><ele>941.5</ele><time>2026-04-18T17:49:29Z</time></trkpt><trkpt lat="47.6714260117661" lon="12.070213986516741"><ele>943.25</ele><time>2026-04-18T17:49:30Z</time></trkpt><trkpt lat="47.67141952380566" lon="12.070413074861781"><ele>945.0</ele><time>2026-04-18T17:49:31Z</time></trkpt><trkpt lat="47.67142115658661" lon="12.070598198857569"><ele>945.0</ele><time>2026-04-18T17:49:32Z</time></trkpt><trkpt lat="47.67142901321618" lon="12.070778738789603"><ele>945.0</ele><time>2026-04-18T17:49:33Z</time></trkpt><trkpt lat="47.6714461126628" lon="12.070969046538561"><ele>945.0</ele><time>2026-04-18T17:49:34Z</time></trkpt><trkpt lat="47.67147560128765" lon="12.071176895309813"><ele>945.0</ele><time>2026-04-18T17:49:35Z</time></trkpt><trkpt lat="47.671513617368866" lon="12.071382593435349"><ele>945.0</ele><time>2026-04-18T17:49:36Z</time></trkpt><trkpt lat="47.671552538858954" lon="12.071578334543057"><ele>945.0</ele><time>2026-04-18T17:49:37Z</time></trkpt><trkpt lat="47.67159031727548" lon="12.071764453470598"><ele>945.0</ele><time>2026-04-18T17:49:38Z</time></trkpt><trkpt lat="47.67161935061225" lon="12.071935395219947"><ele>945.0</ele><time>2026-04-18T17:49:39Z</time></trkpt><trkpt lat="47.67164116070407" lon="12.072108084792642"><ele>942.0</ele><time>2026-04-18T17:49:40Z</time></trkpt><trkpt lat="47.6716426801679" lon="12.072319734562297"><ele>939.0</ele><time>2026-04-18T17:49:41Z</time></trkpt><trkpt lat="47.67165500778506" lon="12.072556305751366"><ele>936.0</ele><time>2026-04-18T17:49:42Z</time></trkpt><trkpt lat="47.6716479304982" lon="12.07278316157202"><ele>934.75</ele><time>2026-04-18T17:49:43Z</time></trkpt><trkpt lat="47.67165192575222" lon="12.072996003838341"><ele>933.5</ele><time>2026-04-18T17:49:44Z</time></trkpt><trkpt lat="47.67165649558549" lon="12.073203379143724"><ele>932.25</ele><time>2026-04-18T17:49:45Z</time></trkpt><trkpt lat="47.67165950760343" lon="12.073402607087203"><ele>931.0</ele><time>2026-04-18T17:49:46Z</time></trkpt><trkpt lat="47.67166371292197" lon="12.07359336789509"><ele>929.5</ele><time>2026-04-18T17:49:47Z</time></trkpt><trkpt lat="47.67167170376497" lon="12.073778340757201"><ele>928.0</ele><time>2026-04-18T17:49:48Z</time></trkpt><trkpt lat="47.67169519391175" lon="12.073955938330029"><ele>926.5</ele><time>2026-04-18T17:49:49Z</time></trkpt><trkpt lat="47.67173280112376" lon="12.07413385775125"><ele>925.0</ele><time>2026-04-18T17:49:50Z</time></trkpt><trkpt lat="47.67179166464572" lon="12.074311113053609"><ele>928.0</ele><time>2026-04-18T17:49:51Z</time></trkpt><trkpt lat="47.67185144118842" lon="12.07449564362684"><ele>931.0</ele><time>2026-04-18T17:49:52Z</time></trkpt><trkpt lat="47.67192113823996" lon="12.074653062034418"><ele>934.0</ele><time>2026-04-18T17:49:53Z</time></trkpt><trkpt lat="47.67198968864507" lon="12.074805822866152"><ele>937.0</ele><time>2026-04-18T17:49:54Z</time></trkpt><trkpt lat="47.672060727470615" lon="12.074963814384475"><ele>937.0</ele><time>2026-04-18T17:49:55Z</time></trkpt><trkpt lat="47.67213252728193" lon="12.07511358561499"><ele>937.0</ele><time>2026-04-18T17:49:56Z</time></trkpt><trkpt lat="47.672187131242524" lon="12.075270142765264"><ele>937.0</ele><time>2026-04-18T17:49:57Z</time></trkpt><trkpt lat="47.67224031780959" lon="12.075436141431933"><ele>937.0</ele><time>2026-04-18T17:49:58Z</time></trkpt><trkpt lat="47.672272176993694" lon="12.075623666104212"><ele>930.5</ele><time>2026-04-18T17:49:59Z</time></trkpt><trkpt lat="47.67230131598765" lon="12.0758020807821"><ele>924.0</ele><time>2026-04-18T17:50:00Z</time></trkpt><trkpt lat="47.67235513872113" lon="12.075968874484033"><ele>917.5</ele><time>2026-04-18T17:50:01Z</time></trkpt><trkpt lat="47.67242426300495" lon="12.076139153819602"><ele>911.0</ele><time>2026-04-18T17:50:02Z</time></trkpt><trkpt lat="47.67249151056611" lon="12.076298159394609"><ele>911.0</ele><time>2026-04-18T17:50:03Z</time></trkpt><trkpt lat="47.67255428654883" lon="12.076448560989695"><ele>910.9999999999999</ele><time>2026-04-18T17:50:04Z</time></trkpt><trkpt lat="47.67260747793889" lon="12.07658051937507"><ele>910.9999999999999</ele><time>2026-04-18T17:50:05Z</time></trkpt><trkpt lat="47.67265495956266" lon="12.07669515357618"><ele>911.0</ele><time>2026-04-18T17:50:06Z</time></trkpt><trkpt lat="47.6727005744315" lon="12.0768052808636"><ele>911.0</ele><time>2026-04-18T17:50:07Z</time></trkpt><trkpt lat="47.67274918338925" lon="12.076923203558165"><ele>911.6666666666667</ele><time>2026-04-18T17:50:08Z</time></trkpt><trkpt lat="47.67278937327091" lon="12.077039046745753"><ele>912.3333333333334</ele><time>2026-04-18T17:50:09Z</time></trkpt><trkpt lat="47.67281977909868" lon="12.077157946501679"><ele>913.0</ele><time>2026-04-18T17:50:10Z</time></trkpt><trkpt lat="47.672831528738136" lon="12.077276267556929"><ele>913.6666666666667</ele><time>2026-04-18T17:50:11Z</time></trkpt><trkpt lat="47.67281594309162" lon="12.077394308246337"><ele>914.3333333333334</ele><time>2026-04-18T17:50:12Z</time></trkpt><trkpt lat="47.67278885588773" lon="12.077510123680252"><ele>915.0</ele><time>2026-04-18T17:50:13Z</time></trkpt><trkpt lat="47.67274079699253" lon="12.077611432602367"><ele>910.6</ele><time>2026-04-18T17:50:14Z</time></trkpt><trkpt lat="47.67265876805949" lon="12.077701918802378"><ele>906.2</ele><time>2026-04-18T17:50:15Z</time></trkpt><trkpt lat="47.67257727310671" lon="12.077769327649559"><ele>901.8</ele><time>2026-04-18T17:50:16Z</time></trkpt><trkpt lat="47.672477393645295" lon="12.077783860592186"><ele>897.4</ele><time>2026-04-18T17:50:17Z</time></trkpt><trkpt lat="47.67237661450087" lon="12.077753732876259"><ele>893.0</ele><time>2026-04-18T17:50:18Z</time></trkpt><trkpt lat="47.67228068206769" lon="12.077681098779767"><ele>893.0</ele><time>2026-04-18T17:50:19Z</time></trkpt><trkpt lat="47.67219562392909" lon="12.077573984436112"><ele>893.0</ele><time>2026-04-18T17:50:20Z</time></trkpt><trkpt lat="47.672147562571496" lon="12.077437026959872"><ele>893.0</ele><time>2026-04-18T17:50:21Z</time></trkpt><trkpt lat="47.67213838516799" lon="12.077243635665406"><ele>893.0</ele><time>2026-04-18T17:50:22Z</time></trkpt><trkpt lat="47.67215632726078" lon="12.077060857682476"><ele>893.8</ele><time>2026-04-18T17:50:23Z</time></trkpt><trkpt lat="47.67218673554153" lon="12.07690674950046"><ele>894.5999999999999</ele><time>2026-04-18T17:50:24Z</time></trkpt><trkpt lat="47.672213332316836" lon="12.07676140004308"><ele>895.4000000000001</ele><time>2026-04-18T17:50:25Z</time></trkpt><trkpt lat="47.6722098045308" lon="12.076605822296655"><ele>896.2</ele><time>2026-04-18T17:50:26Z</time></trkpt><trkpt lat="47.67217844338896" lon="12.07644295483483"><ele>897.0</ele><time>2026-04-18T17:50:27Z</time></trkpt><trkpt lat="47.6721185103247" lon="12.076294460323162"><ele>899.8</ele><time>2026-04-18T17:50:28Z</time></trkpt><trkpt lat="47.672035684088975" lon="12.076161858841314"><ele>902.6</ele><time>2026-04-18T17:50:29Z</time></trkpt><trkpt lat="47.6719534380472" lon="12.07606257564631"><ele>905.3999999999999</ele><time>2026-04-18T17:50:30Z</time></trkpt><trkpt lat="47.671869405848604" lon="12.07597982403256"><ele>908.1999999999999</ele><time>2026-04-18T17:50:31Z</time></trkpt><trkpt lat="47.67178596787577" lon="12.075895837743174"><ele>911.0</ele><time>2026-04-18T17:50:32Z</time></trkpt><trkpt lat="47.67170195470602" lon="12.07580265885636"><ele>906.25</ele><time>2026-04-18T17:50:33Z</time></trkpt><trkpt lat="47.671620109807" lon="12.075696185687999"><ele>901.5</ele><time>2026-04-18T17:50:34Z</time></trkpt><trkpt lat="47.6715456257861" lon="12.075575877024116"><ele>896.75</ele><time>2026-04-18T17:50:35Z</time></trkpt><trkpt lat="47.67144436872508" lon="12.075455502481686"><ele>892.0</ele><time>2026-04-18T17:50:36Z</time></trkpt><trkpt lat="47.67135032798453" lon="12.075313567753954"><ele>892.0</ele><time>2026-04-18T17:50:37Z</time></trkpt><trkpt lat="47.67127125667533" lon="12.075174506466537"><ele>892.0</ele><time>2026-04-18T17:50:38Z</time></trkpt><trkpt lat="47.6711874788758" lon="12.075056165359268"><ele>892.0</ele><time>2026-04-18T17:50:39Z</time></trkpt><trkpt lat="47.67111500386207" lon="12.074923862002196"><ele>892.0</ele><time>2026-04-18T17:50:40Z</time></trkpt><trkpt lat="47.671037633291384" lon="12.074799624307346"><ele>888.2</ele><time>2026-04-18T17:50:41Z</time></trkpt><trkpt lat="47.67096371400949" lon="12.074681344949852"><ele>884.4000000000001</ele><time>2026-04-18T17:50:42Z</time></trkpt><trkpt lat="47.67089751765487" lon="12.074569385537382"><ele>880.5999999999999</ele><time>2026-04-18T17:50:43Z</time></trkpt><trkpt lat="47.670833835460876" lon="12.07445193029946"><ele>876.8</ele><time>2026-04-18T17:50:44Z</time></trkpt><trkpt lat="47.67077255386206" lon="12.074340913715556"><ele>873.0</ele><time>2026-04-18T17:50:45Z</time></trkpt><trkpt lat="47.67071570618292" lon="12.074239988443779"><ele>873.0</ele><time>2026-04-18T17:50:46Z</time></trkpt><trkpt lat="47.67066328474058" lon="12.07413887717247"><ele>873.0</ele><time>2026-04-18T17:50:47Z</time></trkpt><trkpt lat="47.67060724637912" lon="12.074044422780283"><ele>873.0</ele><time>2026-04-18T17:50:48Z</time></trkpt><trkpt lat="47.67055613247116" lon="12.073958367736513"><ele>873.0</ele><time>2026-04-18T17:50:49Z</time></trkpt><trkpt lat="47.67049996009508" lon="12.073871833346749"><ele>873.0</ele><time>2026-04-18T17:50:50Z</time></trkpt><trkpt lat="47.670439010008586" lon="12.073798482470728"><ele>873.0</ele><time>2026-04-18T17:50:51Z</time></trkpt><trkpt lat="47.67037006146642" lon="12.073744784181876"><ele>875.4</ele><time>2026-04-18T17:50:52Z</time></trkpt><trkpt lat="47.6702893819263" lon="12.073723349324917"><ele>877.8</ele><time>2026-04-18T17:50:53Z</time></trkpt><trkpt lat="47.67020038612671" lon="12.073738244566517"><ele>880.2</ele><time>2026-04-18T17:50:54Z</time></trkpt><trkpt lat="47.67010676096063" lon="12.073811637761304"><ele>882.6</ele><time>2026-04-18T17:50:55Z</time></trkpt><trkpt lat="47.67004100390503" lon="12.073912905832891"><ele>885.0</ele><time>2026-04-18T17:50:56Z</time></trkpt><trkpt lat="47.66999697547966" lon="12.074046382083099"><ele>877.0</ele><time>2026-04-18T17:50:57Z</time></trkpt><trkpt lat="47.66999859862174" lon="12.074218765295013"><ele>869.0</ele><time>2026-04-18T17:50:58Z</time></trkpt><trkpt lat="47.670041046310224" lon="12.07438041375468"><ele>861.0</ele><time>2026-04-18T17:50:59Z</time></trkpt><trkpt lat="47.670122883349265" lon="12.074548525295542"><ele>853.0</ele><time>2026-04-18T17:51:00Z</time></trkpt><trkpt lat="47.67023168464593" lon="12.074739479058165"><ele>853.0</ele><time>2026-04-18T17:51:01Z</time></trkpt><trkpt lat="47.67016828830317" lon="12.074588824013109"><ele>853.0</ele><time>2026-04-18T17:51:02Z</time></trkpt><trkpt lat="47.67035508181778" lon="12.074881682097416"><ele>853.0</ele><time>2026-04-18T17:51:03Z</time></trkpt><trkpt lat="47.6705217704984" lon="12.075136286030597"><ele>856.3333333333333</ele><time>2026-04-18T17:51:04Z</time></trkpt><trkpt lat="47.67067884437441" lon="12.07537534684549"><ele>859.6666666666667</ele><time>2026-04-18T17:51:05Z</time></trkpt><trkpt lat="47.67080754312635" lon="12.075574953068864"><ele>863.0</ele><time>2026-04-18T17:51:06Z</time></trkpt><trkpt lat="47.670919902490965" lon="12.075750606927638"><ele>860.8</ele><time>2026-04-18T17:51:07Z</time></trkpt><trkpt lat="47.67100662272636" lon="12.075883839468359"><ele>858.5999999999999</ele><time>2026-04-18T17:51:08Z</time></trkpt><trkpt lat="47.67109357714458" lon="12.076013587062537"><ele>856.4000000000001</ele><time>2026-04-18T17:51:09Z</time></trkpt><trkpt lat="47.67116306430313" lon="12.076103118053384"><ele>854.2</ele><time>2026-04-18T17:51:10Z</time></trkpt><trkpt lat="47.67122759084808" lon="12.076214934552059"><ele>852.0</ele><time>2026-04-18T17:51:11Z</time></trkpt><trkpt lat="47.67129026663967" lon="12.076329474670528"><ele>854.8333333333334</ele><time>2026-04-18T17:51:12Z</time></trkpt><trkpt lat="47.671348759416475" lon="12.07643060459963"><ele>857.6666666666667</ele><time>2026-04-18T17:51:13Z</time></trkpt><trkpt lat="47.67137240740744" lon="12.076535362177207"><ele>860.5</ele><time>2026-04-18T17:51:14Z</time></trkpt><trkpt lat="47.67136579964349" lon="12.076646748230598"><ele>863.3333333333334</ele><time>2026-04-18T17:51:15Z</time></trkpt><trkpt lat="47.67138018990039" lon="12.07676480021413"><ele>866.1666666666667</ele><time>2026-04-18T17:51:16Z</time></trkpt><trkpt lat="47.67135021612443" lon="12.076860883257083"><ele>869.0</ele><time>2026-04-18T17:51:18Z</time></trkpt><trkpt lat="47.67130335864137" lon="12.076973469742615"><ele>869.0</ele><time>2026-04-18T17:51:21Z</time></trkpt><trkpt lat="47.67116896229797" lon="12.077244529042087"><ele>869.0</ele><time>2026-04-18T17:51:22Z</time></trkpt><trkpt lat="47.67106591852413" lon="12.077521464685681"><ele>869.0</ele><time>2026-04-18T17:51:23Z</time></trkpt><trkpt lat="47.67107983128662" lon="12.078048092903558"><ele>867.3333333333334</ele><time>2026-04-18T17:51:24Z</time></trkpt><trkpt lat="47.67115835302384" lon="12.07829555882393"><ele>865.6666666666667</ele><time>2026-04-18T17:51:25Z</time></trkpt><trkpt lat="47.67121873029858" lon="12.07848002018929"><ele>864.0</ele><time>2026-04-18T17:51:26Z</time></trkpt><trkpt lat="47.67130197186606" lon="12.078730760972482"><ele>864.0</ele><time>2026-04-18T17:51:27Z</time></trkpt><trkpt lat="47.67136572125317" lon="12.078920229316298"><ele>864.0</ele><time>2026-04-18T17:51:28Z</time></trkpt><trkpt lat="47.67142037055846" lon="12.079082366186363"><ele>864.0</ele><time>2026-04-18T17:51:29Z</time></trkpt><trkpt lat="47.671470801392914" lon="12.079241728890368"><ele>864.0</ele><time>2026-04-18T17:51:30Z</time></trkpt><trkpt lat="47.67152342121598" lon="12.079421883402148"><ele>861.75</ele><time>2026-04-18T17:51:31Z</time></trkpt><trkpt lat="47.671556797974596" lon="12.079582774200015"><ele>859.5</ele><time>2026-04-18T17:51:32Z</time></trkpt><trkpt lat="47.67156311144167" lon="12.079754186052037"><ele>857.25</ele><time>2026-04-18T17:51:33Z</time></trkpt><trkpt lat="47.67156709614987" lon="12.079935304479003"><ele>855.0</ele><time>2026-04-18T17:51:34Z</time></trkpt><trkpt lat="47.67157145037464" lon="12.080128725041702"><ele>851.5</ele><time>2026-04-18T17:51:35Z</time></trkpt><trkpt lat="47.67160046749025" lon="12.080318875702122"><ele>848.0</ele><time>2026-04-18T17:51:36Z</time></trkpt><trkpt lat="47.67161648642961" lon="12.080523422674473"><ele>844.5</ele><time>2026-04-18T17:51:37Z</time></trkpt><trkpt lat="47.67164245225695" lon="12.080711019579104"><ele>841.0</ele><time>2026-04-18T17:51:38Z</time></trkpt><trkpt lat="47.671671334590506" lon="12.080873072122841"><ele>839.0</ele><time>2026-04-18T17:51:39Z</time></trkpt><trkpt lat="47.67169702126846" lon="12.081013201093318"><ele>837.0</ele><time>2026-04-18T17:51:40Z</time></trkpt><trkpt lat="47.67171857236592" lon="12.081155719356392"><ele>835.0</ele><time>2026-04-18T17:51:41Z</time></trkpt><trkpt lat="47.6717568387949" lon="12.081279919009592"><ele>833.0</ele><time>2026-04-18T17:51:42Z</time></trkpt><trkpt lat="47.67177797161345" lon="12.081436076342234"><ele>831.0</ele><time>2026-04-18T17:51:43Z</time></trkpt><trkpt lat="47.67184065602664" lon="12.08156912010292"><ele>829.4</ele><time>2026-04-18T17:51:44Z</time></trkpt><trkpt lat="47.67192559787259" lon="12.081687213598775"><ele>827.8</ele><time>2026-04-18T17:51:45Z</time></trkpt><trkpt lat="47.672028682177654" lon="12.081746196266963"><ele>826.1999999999999</ele><time>2026-04-18T17:51:46Z</time></trkpt><trkpt lat="47.67211421054787" lon="12.0817928017169"><ele>824.5999999999999</ele><time>2026-04-18T17:51:47Z</time></trkpt><trkpt lat="47.672191234046366" lon="12.081834315810093"><ele>823.0</ele><time>2026-04-18T17:51:48Z</time></trkpt><trkpt lat="47.672311595004295" lon="12.08191733561243"><ele>823.0</ele><time>2026-04-18T17:51:49Z</time></trkpt><trkpt lat="47.67241797393724" lon="12.082037556522884"><ele>823.0</ele><time>2026-04-18T17:51:50Z</time></trkpt><trkpt lat="47.67252284630819" lon="12.082182574212641"><ele>823.0</ele><time>2026-04-18T17:51:51Z</time></trkpt><trkpt lat="47.67262197253063" lon="12.082320953436021"><ele>823.0</ele><time>2026-04-18T17:51:52Z</time></trkpt><trkpt lat="47.67273012045372" lon="12.082482349638914"><ele>822.75</ele><time>2026-04-18T17:51:53Z</time></trkpt><trkpt lat="47.672840730841465" lon="12.082611089978684"><ele>822.5</ele><time>2026-04-18T17:51:54Z</time></trkpt><trkpt lat="47.67294452386872" lon="12.082740581866537"><ele>822.25</ele><time>2026-04-18T17:51:55Z</time></trkpt><trkpt lat="47.67305198189336" lon="12.082868582161185"><ele>822.0</ele><time>2026-04-18T17:51:56Z</time></trkpt><trkpt lat="47.673169052176796" lon="12.082977074794115"><ele>822.0</ele><time>2026-04-18T17:51:57Z</time></trkpt><trkpt lat="47.673300987640104" lon="12.083062333391371"><ele>822.0</ele><time>2026-04-18T17:51:58Z</time></trkpt><trkpt lat="47.673426897021486" lon="12.083144288564196"><ele>822.0</ele><time>2026-04-18T17:51:59Z</time></trkpt><trkpt lat="47.6735407422448" lon="12.083168978231498"><ele>822.0</ele><time>2026-04-18T17:52:00Z</time></trkpt><trkpt lat="47.67364558447637" lon="12.083223688437064"><ele>820.5</ele><time>2026-04-18T17:52:01Z</time></trkpt><trkpt lat="47.673762437118164" lon="12.083274983846307"><ele>819.0</ele><time>2026-04-18T17:52:02Z</time></trkpt><trkpt lat="47.673863461586635" lon="12.08336057459782"><ele>817.5</ele><time>2026-04-18T17:52:03Z</time></trkpt><trkpt lat="47.67393450996071" lon="12.083480347193577"><ele>816.0</ele><time>2026-04-18T17:52:04Z</time></trkpt><trkpt lat="47.674008564287085" lon="12.083607134947167"><ele>816.0</ele><time>2026-04-18T17:52:05Z</time></trkpt><trkpt lat="47.674089995357754" lon="12.083703513391699"><ele>816.0</ele><time>2026-04-18T17:52:06Z</time></trkpt><trkpt lat="47.67418361284595" lon="12.083774089802878"><ele>816.0</ele><time>2026-04-18T17:52:07Z</time></trkpt><trkpt lat="47.6742791702677" lon="12.0838347441894"><ele>816.0</ele><time>2026-04-18T17:52:08Z</time></trkpt><trkpt lat="47.674379035749595" lon="12.083856466193657"><ele>816.0</ele><time>2026-04-18T17:52:09Z</time></trkpt><trkpt lat="47.67448053497519" lon="12.083829078720479"><ele>815.0</ele><time>2026-04-18T17:52:10Z</time></trkpt><trkpt lat="47.674575309742444" lon="12.083792242721827"><ele>814.0</ele><time>2026-04-18T17:52:11Z</time></trkpt><trkpt lat="47.67467214877097" lon="12.083743523397862"><ele>813.0</ele><time>2026-04-18T17:52:12Z</time></trkpt><trkpt lat="47.67475171232438" lon="12.083709836640827"><ele>812.0</ele><time>2026-04-18T17:52:13Z</time></trkpt><trkpt lat="47.67482241117238" lon="12.083687721749186"><ele>811.0</ele><time>2026-04-18T17:52:14Z</time></trkpt><trkpt lat="47.67492922418041" lon="12.08367478755679"><ele>810.9999999999999</ele><time>2026-04-18T17:52:16Z</time></trkpt><trkpt lat="47.67502948985315" lon="12.083694227162232"><ele>811.0</ele><time>2026-04-18T17:52:18Z</time></trkpt><trkpt lat="47.67509915069185" lon="12.083715839603615"><ele>811.0</ele><time>2026-04-18T17:52:20Z</time></trkpt><trkpt lat="47.67516952025596" lon="12.083692170507796"><ele>811.0</ele><time>2026-04-18T17:52:23Z</time></trkpt><trkpt lat="47.675235012866146" lon="12.083670424914803"><ele>810.9999999999999</ele><time>2026-04-18T17:52:25Z</time></trkpt><trkpt lat="47.67529838920259" lon="12.08364825567142"><ele>811.0</ele><time>2026-04-18T17:52:29Z</time></trkpt><trkpt lat="47.67535216202377" lon="12.08350471000872"><ele>809.1999999999999</ele><time>2026-04-18T17:53:30Z</time></trkpt><trkpt lat="47.675423891385044" lon="12.083455262953997"><ele>807.4</ele><time>2026-04-18T17:53:31Z</time></trkpt><trkpt lat="47.675504066005296" lon="12.08342925541276"><ele>805.6</ele><time>2026-04-18T17:53:32Z</time></trkpt><trkpt lat="47.67559868368076" lon="12.083451103525608"><ele>803.8</ele><time>2026-04-18T17:53:33Z</time></trkpt><trkpt lat="47.675703491310095" lon="12.083434260927618"><ele>802.0</ele><time>2026-04-18T17:53:34Z</time></trkpt><trkpt lat="47.67580698630892" lon="12.083420882957812"><ele>802.0</ele><time>2026-04-18T17:53:35Z</time></trkpt><trkpt lat="47.67590511630276" lon="12.083418537515817"><ele>802.0</ele><time>2026-04-18T17:53:36Z</time></trkpt><trkpt lat="47.67599188767088" lon="12.083425392105957"><ele>802.0</ele><time>2026-04-18T17:53:37Z</time></trkpt><trkpt lat="47.676101895297315" lon="12.083441251340547"><ele>802.0</ele><time>2026-04-18T17:53:38Z</time></trkpt><trkpt lat="47.67618793565623" lon="12.083461362370087"><ele>802.0</ele><time>2026-04-18T17:53:39Z</time></trkpt><trkpt lat="47.676269761971376" lon="12.083492035112226"><ele>802.1666666666666</ele><time>2026-04-18T17:53:40Z</time></trkpt><trkpt lat="47.67634795561735" lon="12.083534806497008"><ele>802.3333333333333</ele><time>2026-04-18T17:53:41Z</time></trkpt><trkpt lat="47.676425051197604" lon="12.083565044247747"><ele>802.5</ele><time>2026-04-18T17:53:42Z</time></trkpt><trkpt lat="47.676503309337015" lon="12.083589941204869"><ele>802.6666666666667</ele><time>2026-04-18T17:53:43Z</time></trkpt><trkpt lat="47.67659111594368" lon="12.083586633819793"><ele>802.8333333333334</ele><time>2026-04-18T17:53:44Z</time></trkpt><trkpt lat="47.6766784459256" lon="12.083532853318165"><ele>803.0</ele><time>2026-04-18T17:53:45Z</time></trkpt><trkpt lat="47.67677544984522" lon="12.083511653798459"><ele>803.0</ele><time>2026-04-18T17:53:46Z</time></trkpt><trkpt lat="47.67686288377754" lon="12.083469856107271"><ele>803.0</ele><time>2026-04-18T17:53:47Z</time></trkpt><trkpt lat="47.67694508521104" lon="12.083429298273035"><ele>803.0</ele><time>2026-04-18T17:53:48Z</time></trkpt><trkpt lat="47.67702746578141" lon="12.083388651985478"><ele>803.0</ele><time>2026-04-18T17:53:49Z</time></trkpt><trkpt lat="47.677118012700866" lon="12.083343976631843"><ele>803.0</ele><time>2026-04-18T17:53:50Z</time></trkpt><trkpt lat="47.67721202942143" lon="12.083297589138862"><ele>804.8</ele><time>2026-04-18T17:53:51Z</time></trkpt><trkpt lat="47.677304409390786" lon="12.083252334204083"><ele>806.5999999999999</ele><time>2026-04-18T17:53:52Z</time></trkpt><trkpt lat="47.67739825642602" lon="12.083209139326012"><ele>808.4000000000001</ele><time>2026-04-18T17:53:53Z</time></trkpt><trkpt lat="47.67749253307056" lon="12.083165746674325"><ele>810.2</ele><time>2026-04-18T17:53:54Z</time></trkpt><trkpt lat="47.67758059976224" lon="12.08309864470944"><ele>812.0</ele><time>2026-04-18T17:53:55Z</time></trkpt><trkpt lat="47.67767617170482" lon="12.083051754757063"><ele>808.8</ele><time>2026-04-18T17:53:56Z</time></trkpt><trkpt lat="47.677770269167446" lon="12.08300157233069"><ele>805.6</ele><time>2026-04-18T17:53:57Z</time></trkpt><trkpt lat="47.67785955094028" lon="12.082946904164805"><ele>802.4</ele><time>2026-04-18T17:53:58Z</time></trkpt><trkpt lat="47.67795572765276" lon="12.082877167732711"><ele>799.1999999999999</ele><time>2026-04-18T17:53:59Z</time></trkpt><trkpt lat="47.678047173879115" lon="12.082808953603191"><ele>796.0</ele><time>2026-04-18T17:54:00Z</time></trkpt><trkpt lat="47.678134817472184" lon="12.082732866021502"><ele>796.0</ele><time>2026-04-18T17:54:01Z</time></trkpt><trkpt lat="47.67822205910291" lon="12.082662684648426"><ele>796.0</ele><time>2026-04-18T17:54:02Z</time></trkpt><trkpt lat="47.67831371814334" lon="12.082586141682771"><ele>796.0</ele><time>2026-04-18T17:54:03Z</time></trkpt><trkpt lat="47.67840628345561" lon="12.082510665081697"><ele>796.0</ele><time>2026-04-18T17:54:04Z</time></trkpt><trkpt lat="47.678492147912394" lon="12.082452689176398"><ele>796.0</ele><time>2026-04-18T17:54:05Z</time></trkpt><trkpt lat="47.6785743847666" lon="12.082397114530389"><ele>800.8333333333333</ele><time>2026-04-18T17:54:06Z</time></trkpt><trkpt lat="47.678657326426034" lon="12.082348893725458"><ele>805.6666666666666</ele><time>2026-04-18T17:54:07Z</time></trkpt><trkpt lat="47.678740423613384" lon="12.082303176097131"><ele>810.5</ele><time>2026-04-18T17:54:08Z</time></trkpt><trkpt lat="47.67882818200156" lon="12.082290276349767"><ele>815.3333333333333</ele><time>2026-04-18T17:54:09Z</time></trkpt><trkpt lat="47.67891797117464" lon="12.082289697977997"><ele>820.1666666666666</ele><time>2026-04-18T17:54:10Z</time></trkpt><trkpt lat="47.67900860905071" lon="12.082292397022568"><ele>825.0</ele><time>2026-04-18T17:54:11Z</time></trkpt><trkpt lat="47.67910158227047" lon="12.082298400077127"><ele>825.0</ele><time>2026-04-18T17:54:12Z</time></trkpt><trkpt lat="47.67919824103126" lon="12.082306429742253"><ele>825.0</ele><time>2026-04-18T17:54:13Z</time></trkpt><trkpt lat="47.67927370111488" lon="12.082314366760915"><ele>825.0</ele><time>2026-04-18T17:54:14Z</time></trkpt><trkpt lat="47.67936530128223" lon="12.082312985438096"><ele>825.0</ele><time>2026-04-18T17:54:15Z</time></trkpt><trkpt lat="47.67946916326514" lon="12.08230239084043"><ele>825.0</ele><time>2026-04-18T17:54:16Z</time></trkpt><trkpt lat="47.67958009748086" lon="12.082285230470157"><ele>822.0</ele><time>2026-04-18T17:54:17Z</time></trkpt><trkpt lat="47.679696376199196" lon="12.082273548490877"><ele>819.0</ele><time>2026-04-18T17:54:18Z</time></trkpt><trkpt lat="47.67981544514856" lon="12.082260338420802"><ele>816.0</ele><time>2026-04-18T17:54:19Z</time></trkpt><trkpt lat="47.67994429557553" lon="12.082245043617352"><ele>813.0</ele><time>2026-04-18T17:54:20Z</time></trkpt><trkpt lat="47.6800949759773" lon="12.082257975395647"><ele>812.6666666666667</ele><time>2026-04-18T17:54:21Z</time></trkpt><trkpt lat="47.68028789418849" lon="12.082291991676438"><ele>812.3333333333334</ele><time>2026-04-18T17:54:22Z</time></trkpt><trkpt lat="47.68047982763998" lon="12.082348047551145"><ele>812.0</ele><time>2026-04-18T17:54:23Z</time></trkpt><trkpt lat="47.68065928201499" lon="12.082383786078598"><ele>812.0</ele><time>2026-04-18T17:54:24Z</time></trkpt><trkpt lat="47.680840617716164" lon="12.08242198807134"><ele>812.0</ele><time>2026-04-18T17:54:25Z</time></trkpt><trkpt lat="47.681011212907116" lon="12.082462075425019"><ele>812.0</ele><time>2026-04-18T17:54:26Z</time></trkpt><trkpt lat="47.68118093239212" lon="12.082490286188017"><ele>803.3333333333334</ele><time>2026-04-18T17:54:27Z</time></trkpt><trkpt lat="47.681334560496744" lon="12.082518577237144"><ele>794.6666666666667</ele><time>2026-04-18T17:54:28Z</time></trkpt><trkpt lat="47.68149078685752" lon="12.082570359647418"><ele>786.0</ele><time>2026-04-18T17:54:29Z</time></trkpt><trkpt lat="47.68164903223453" lon="12.082597090940135"><ele>786.0</ele><time>2026-04-18T17:54:30Z</time></trkpt><trkpt lat="47.68180276092119" lon="12.08259468751589"><ele>786.0</ele><time>2026-04-18T17:54:31Z</time></trkpt><trkpt lat="47.68194960057391" lon="12.082573280087923"><ele>786.0</ele><time>2026-04-18T17:54:32Z</time></trkpt><trkpt lat="47.68210473038314" lon="12.082553414728386"><ele>784.3333333333333</ele><time>2026-04-18T17:54:33Z</time></trkpt><trkpt lat="47.68225131815262" lon="12.082611119351165"><ele>782.6666666666666</ele><time>2026-04-18T17:54:34Z</time></trkpt><trkpt lat="47.682393628585544" lon="12.082686531092353"><ele>781.0</ele><time>2026-04-18T17:54:35Z</time></trkpt><trkpt lat="47.68254235891925" lon="12.082797197303027"><ele>781.0</ele><time>2026-04-18T17:54:36Z</time></trkpt><trkpt lat="47.68268687476611" lon="12.082936550805728"><ele>781.0</ele><time>2026-04-18T17:54:37Z</time></trkpt><trkpt lat="47.68283267880039" lon="12.083087086499372"><ele>781.0</ele><time>2026-04-18T17:54:38Z</time></trkpt><trkpt lat="47.682985014577405" lon="12.08324441970816"><ele>775.6666666666666</ele><time>2026-04-18T17:54:39Z</time></trkpt><trkpt lat="47.683134655376406" lon="12.083405183361169"><ele>770.3333333333333</ele><time>2026-04-18T17:54:40Z</time></trkpt><trkpt lat="47.68328501533305" lon="12.083570784974007"><ele>765.0</ele><time>2026-04-18T17:54:41Z</time></trkpt><trkpt lat="47.68343119233424" lon="12.083742649986826"><ele>765.0</ele><time>2026-04-18T17:54:42Z</time></trkpt><trkpt lat="47.683574929650355" lon="12.08391741353752"><ele>765.0</ele><time>2026-04-18T17:54:43Z</time></trkpt><trkpt lat="47.68371483557187" lon="12.084097867678416"><ele>765.0</ele><time>2026-04-18T17:54:44Z</time></trkpt><trkpt lat="47.68385429484979" lon="12.08427328775018"><ele>765.6666666666666</ele><time>2026-04-18T17:54:45Z</time></trkpt><trkpt lat="47.683988338486806" lon="12.08444130571978"><ele>766.3333333333333</ele><time>2026-04-18T17:54:46Z</time></trkpt><trkpt lat="47.68411711448077" lon="12.084595828759493"><ele>767.0</ele><time>2026-04-18T17:54:47Z</time></trkpt><trkpt lat="47.68424205524991" lon="12.084740379360166"><ele>767.0</ele><time>2026-04-18T17:54:48Z</time></trkpt><trkpt lat="47.68437026321296" lon="12.08486636464677"><ele>767.0</ele><time>2026-04-18T17:54:49Z</time></trkpt><trkpt lat="47.684515899973555" lon="12.084963934453945"><ele>767.0</ele><time>2026-04-18T17:54:50Z</time></trkpt><trkpt lat="47.684669273766595" lon="12.085045492761854"><ele>764.75</ele><time>2026-04-18T17:54:51Z</time></trkpt><trkpt lat="47.68482087928595" lon="12.08512027326968"><ele>762.5</ele><time>2026-04-18T17:54:52Z</time></trkpt><trkpt lat="47.6849697659457" lon="12.085175000793429"><ele>760.25</ele><time>2026-04-18T17:54:53Z</time></trkpt><trkpt lat="47.685097194585005" lon="12.085242685199885"><ele>758.0</ele><time>2026-04-18T17:54:54Z</time></trkpt><trkpt lat="47.68522302028473" lon="12.085313224288589"><ele>756.3333333333333</ele><time>2026-04-18T17:54:55Z</time></trkpt><trkpt lat="47.68535905902312" lon="12.085295112620148"><ele>754.6666666666666</ele><time>2026-04-18T17:54:56Z</time></trkpt><trkpt lat="47.685509455900764" lon="12.085269131124546"><ele>753.0</ele><time>2026-04-18T17:54:57Z</time></trkpt><trkpt lat="47.685680886234245" lon="12.085216233527253"><ele>753.0</ele><time>2026-04-18T17:54:58Z</time></trkpt><trkpt lat="47.685871922741725" lon="12.08514894006185"><ele>753.0</ele><time>2026-04-18T17:54:59Z</time></trkpt><trkpt lat="47.68606187248497" lon="12.08509449244809"><ele>753.0</ele><time>2026-04-18T17:55:00Z</time></trkpt><trkpt lat="47.68622494866709" lon="12.085040526005324"><ele>754.6666666666666</ele><time>2026-04-18T17:55:01Z</time></trkpt><trkpt lat="47.68638742010742" lon="12.084986868369018"><ele>756.3333333333333</ele><time>2026-04-18T17:55:02Z</time></trkpt><trkpt lat="47.68655137076463" lon="12.084961001346016"><ele>758.0</ele><time>2026-04-18T17:55:03Z</time></trkpt><trkpt lat="47.68670961980067" lon="12.08495265156365"><ele>758.0</ele><time>2026-04-18T17:55:04Z</time></trkpt><trkpt lat="47.68685003515456" lon="12.08495958234689"><ele>758.0</ele><time>2026-04-18T17:55:05Z</time></trkpt><trkpt lat="47.68697620280303" lon="12.084988141158014"><ele>758.0</ele><time>2026-04-18T17:55:06Z</time></trkpt><trkpt lat="47.68710344031428" lon="12.085051423687"><ele>758.0</ele><time>2026-04-18T17:55:07Z</time></trkpt><trkpt lat="47.68722149648398" lon="12.085147566147576"><ele>760.75</ele><time>2026-04-18T17:55:08Z</time></trkpt><trkpt lat="47.68732907170152" lon="12.08529574052355"><ele>763.5</ele><time>2026-04-18T17:55:09Z</time></trkpt><trkpt lat="47.6874027004905" lon="12.085469768519705"><ele>766.25</ele><time>2026-04-18T17:55:10Z</time></trkpt><trkpt lat="47.6874769666132" lon="12.085615954461776"><ele>769.0</ele><time>2026-04-18T17:55:11Z</time></trkpt><trkpt lat="47.687507158053265" lon="12.085783273926271"><ele>766.75</ele><time>2026-04-18T17:55:12Z</time></trkpt><trkpt lat="47.68756452235451" lon="12.085911591091792"><ele>764.5</ele><time>2026-04-18T17:55:13Z</time></trkpt><trkpt lat="47.687648534440655" lon="12.086031981906613"><ele>762.25</ele><time>2026-04-18T17:55:14Z</time></trkpt><trkpt lat="47.687740951952016" lon="12.086168798177885"><ele>760.0</ele><time>2026-04-18T17:55:15Z</time></trkpt><trkpt lat="47.687945275359354" lon="12.08617513074533"><ele>760.0</ele><time>2026-04-18T17:55:16Z</time></trkpt><trkpt lat="47.68812410911162" lon="12.08627160017568"><ele>760.0</ele><time>2026-04-18T17:55:17Z</time></trkpt><trkpt lat="47.68830522818973" lon="12.086386715436436"><ele>760.0</ele><time>2026-04-18T17:55:18Z</time></trkpt><trkpt lat="47.688507244210925" lon="12.08649312992055"><ele>756.3333333333334</ele><time>2026-04-18T17:55:19Z</time></trkpt><trkpt lat="47.68867994822131" lon="12.086604073209196"><ele>752.6666666666666</ele><time>2026-04-18T17:55:20Z</time></trkpt><trkpt lat="47.68884705577894" lon="12.086733846902852"><ele>749.0</ele><time>2026-04-18T17:55:21Z</time></trkpt><trkpt lat="47.6890049330769" lon="12.086876893018061"><ele>749.0</ele><time>2026-04-18T17:55:22Z</time></trkpt><trkpt lat="47.68915863486947" lon="12.087017138965367"><ele>749.0</ele><time>2026-04-18T17:55:23Z</time></trkpt><trkpt lat="47.68930306796803" lon="12.087144929530613"><ele>749.0</ele><time>2026-04-18T17:55:24Z</time></trkpt><trkpt lat="47.689455450506536" lon="12.087257556913944"><ele>748.3333333333333</ele><time>2026-04-18T17:55:25Z</time></trkpt><trkpt lat="47.6896148812084" lon="12.087363088437304"><ele>747.6666666666666</ele><time>2026-04-18T17:55:26Z</time></trkpt><trkpt lat="47.68977438227739" lon="12.087471966810723"><ele>747.0</ele><time>2026-04-18T17:55:27Z</time></trkpt><trkpt lat="47.68993668841733" lon="12.087591917994274"><ele>747.0</ele><time>2026-04-18T17:55:28Z</time></trkpt><trkpt lat="47.69009326110532" lon="12.08773679527621"><ele>747.0</ele><time>2026-04-18T17:55:29Z</time></trkpt><trkpt lat="47.690243551581176" lon="12.087902991669335"><ele>747.0</ele><time>2026-04-18T17:55:30Z</time></trkpt><trkpt lat="47.69039264008803" lon="12.088077588419594"><ele>747.6666666666666</ele><time>2026-04-18T17:55:31Z</time></trkpt><trkpt lat="47.690531954508856" lon="12.088253400463813"><ele>748.3333333333333</ele><time>2026-04-18T17:55:32Z</time></trkpt><trkpt lat="47.69065373795314" lon="12.08842636138186"><ele>749.0</ele><time>2026-04-18T17:55:33Z</time></trkpt><trkpt lat="47.690743597461974" lon="12.088610371116852"><ele>749.0</ele><time>2026-04-18T17:55:34Z</time></trkpt><trkpt lat="47.69082401412517" lon="12.088789569512365"><ele>749.0</ele><time>2026-04-18T17:55:35Z</time></trkpt><trkpt lat="47.690893310301014" lon="12.088957168319451"><ele>749.0</ele><time>2026-04-18T17:55:36Z</time></trkpt><trkpt lat="47.69096049299964" lon="12.08911165267335"><ele>749.0</ele><time>2026-04-18T17:55:37Z</time></trkpt><trkpt lat="47.691030295731245" lon="12.089247097881511"><ele>748.0</ele><time>2026-04-18T17:55:38Z</time></trkpt><trkpt lat="47.691112375806874" lon="12.089357928888404"><ele>747.0</ele><time>2026-04-18T17:55:39Z</time></trkpt><trkpt lat="47.69120884967399" lon="12.089438935402526"><ele>746.0</ele><time>2026-04-18T17:55:40Z</time></trkpt><trkpt lat="47.69131023784221" lon="12.089491932414642"><ele>745.0</ele><time>2026-04-18T17:55:41Z</time></trkpt><trkpt lat="47.691447918766656" lon="12.0894880771908"><ele>745.0</ele><time>2026-04-18T17:55:42Z</time></trkpt><trkpt lat="47.691584812396655" lon="12.089442234680655"><ele>745.0</ele><time>2026-04-18T17:55:43Z</time></trkpt><trkpt lat="47.69170997512229" lon="12.089387632094136"><ele>745.0</ele><time>2026-04-18T17:55:44Z</time></trkpt><trkpt lat="47.691835780248205" lon="12.089361063353406"><ele>745.0</ele><time>2026-04-18T17:55:45Z</time></trkpt><trkpt lat="47.691966958929896" lon="12.08939287523152"><ele>746.0</ele><time>2026-04-18T17:55:46Z</time></trkpt><trkpt lat="47.69210612183642" lon="12.089469985394546"><ele>747.0</ele><time>2026-04-18T17:55:47Z</time></trkpt><trkpt lat="47.69224704843399" lon="12.089532579516222"><ele>748.0</ele><time>2026-04-18T17:55:48Z</time></trkpt><trkpt lat="47.692386999986724" lon="12.089562631196715"><ele>749.0</ele><time>2026-04-18T17:55:49Z</time></trkpt><trkpt lat="47.692508654399916" lon="12.089567804675026"><ele>749.0</ele><time>2026-04-18T17:55:50Z</time></trkpt><trkpt lat="47.69262273473361" lon="12.089610963936705"><ele>749.0</ele><time>2026-04-18T17:55:51Z</time></trkpt><trkpt lat="47.692724986331605" lon="12.089692128874246"><ele>749.0</ele><time>2026-04-18T17:55:52Z</time></trkpt><trkpt lat="47.692827137541165" lon="12.089769627316574"><ele>749.0</ele><time>2026-04-18T17:55:53Z</time></trkpt><trkpt lat="47.692942992960006" lon="12.08980478985619"><ele>745.5</ele><time>2026-04-18T17:55:54Z</time></trkpt><trkpt lat="47.69307365955543" lon="12.089794983097313"><ele>742.0</ele><time>2026-04-18T17:55:55Z</time></trkpt><trkpt lat="47.693203639278735" lon="12.089734405086283"><ele>738.5</ele><time>2026-04-18T17:55:56Z</time></trkpt><trkpt lat="47.69330663510641" lon="12.089645882277184"><ele>735.0</ele><time>2026-04-18T17:55:57Z</time></trkpt><trkpt lat="47.69341464581076" lon="12.089575284379046"><ele>735.0</ele><time>2026-04-18T17:55:58Z</time></trkpt><trkpt lat="47.69352142809514" lon="12.089504186194501"><ele>735.0</ele><time>2026-04-18T17:55:59Z</time></trkpt><trkpt lat="47.69363486286352" lon="12.08948546318202"><ele>735.0</ele><time>2026-04-18T17:56:00Z</time></trkpt><trkpt lat="47.69373676596423" lon="12.089489378853663"><ele>735.0</ele><time>2026-04-18T17:56:01Z</time></trkpt><trkpt lat="47.69383199994758" lon="12.089515969795112"><ele>735.0</ele><time>2026-04-18T17:56:02Z</time></trkpt><trkpt lat="47.69393234096208" lon="12.089566971276746"><ele>733.75</ele><time>2026-04-18T17:56:03Z</time></trkpt><trkpt lat="47.69404822182894" lon="12.089654778951525"><ele>732.5</ele><time>2026-04-18T17:56:04Z</time></trkpt><trkpt lat="47.69416248758116" lon="12.089741740729751"><ele>731.25</ele><time>2026-04-18T17:56:05Z</time></trkpt><trkpt lat="47.69427175741575" lon="12.08980084839097"><ele>730.0</ele><time>2026-04-18T17:56:06Z</time></trkpt><trkpt lat="47.69438306023831" lon="12.089855762504044"><ele>727.25</ele><time>2026-04-18T17:56:07Z</time></trkpt><trkpt lat="47.694474509780065" lon="12.089925514015507"><ele>724.5</ele><time>2026-04-18T17:56:08Z</time></trkpt><trkpt lat="47.69459418227594" lon="12.090083549734812"><ele>721.75</ele><time>2026-04-18T17:56:09Z</time></trkpt><trkpt lat="47.69470363856646" lon="12.090248253242162"><ele>719.0</ele><time>2026-04-18T17:56:10Z</time></trkpt><trkpt lat="47.69479690727077" lon="12.090401764063255"><ele>719.0</ele><time>2026-04-18T17:56:11Z</time></trkpt><trkpt lat="47.69488029582806" lon="12.090536109391312"><ele>719.0</ele><time>2026-04-18T17:56:12Z</time></trkpt><trkpt lat="47.69499507946537" lon="12.090670282926641"><ele>719.0</ele><time>2026-04-18T17:56:13Z</time></trkpt><trkpt lat="47.69509865836096" lon="12.090823827535331"><ele>719.0</ele><time>2026-04-18T17:56:14Z</time></trkpt><trkpt lat="47.6952041860569" lon="12.090935451496618"><ele>717.0</ele><time>2026-04-18T17:56:15Z</time></trkpt><trkpt lat="47.69530784567368" lon="12.091034902811511"><ele>715.0</ele><time>2026-04-18T17:56:16Z</time></trkpt><trkpt lat="47.69543187718251" lon="12.091122310245026"><ele>713.0</ele><time>2026-04-18T17:56:17Z</time></trkpt><trkpt lat="47.69554661812898" lon="12.091189313522044"><ele>711.0</ele><time>2026-04-18T17:56:18Z</time></trkpt><trkpt lat="47.69567775981214" lon="12.09123373908716"><ele>711.0</ele><time>2026-04-18T17:56:19Z</time></trkpt><trkpt lat="47.69582685700321" lon="12.091234420235883"><ele>711.0</ele><time>2026-04-18T17:56:20Z</time></trkpt><trkpt lat="47.69597668628536" lon="12.091221708564461"><ele>711.0</ele><time>2026-04-18T17:56:21Z</time></trkpt><trkpt lat="47.69611009992312" lon="12.091212142121789"><ele>711.0</ele><time>2026-04-18T17:56:22Z</time></trkpt><trkpt lat="47.696274704223946" lon="12.09119667902544"><ele>710.75</ele><time>2026-04-18T17:56:23Z</time></trkpt><trkpt lat="47.69638874302887" lon="12.091109302210457"><ele>710.5</ele><time>2026-04-18T17:56:24Z</time></trkpt><trkpt lat="47.69649461288094" lon="12.091066274227721"><ele>710.25</ele><time>2026-04-18T17:56:25Z</time></trkpt><trkpt lat="47.69662278466366" lon="12.09099368705393"><ele>710.0</ele><time>2026-04-18T17:56:26Z</time></trkpt><trkpt lat="47.69675623018991" lon="12.090929122497297"><ele>710.0</ele><time>2026-04-18T17:56:27Z</time></trkpt><trkpt lat="47.69688746406672" lon="12.09082385708336"><ele>710.0</ele><time>2026-04-18T17:56:28Z</time></trkpt><trkpt lat="47.696999357111736" lon="12.090669960837541"><ele>710.0</ele><time>2026-04-18T17:56:29Z</time></trkpt><trkpt lat="47.69712617013075" lon="12.090506049092426"><ele>709.6666666666666</ele><time>2026-04-18T17:56:30Z</time></trkpt><trkpt lat="47.6972469170026" lon="12.090342629439933"><ele>709.3333333333334</ele><time>2026-04-18T17:56:31Z</time></trkpt><trkpt lat="47.697357288173315" lon="12.090162392651365"><ele>709.0</ele><time>2026-04-18T17:56:32Z</time></trkpt><trkpt lat="47.697453899793366" lon="12.089967599035207"><ele>710.0</ele><time>2026-04-18T17:56:33Z</time></trkpt><trkpt lat="47.69753937697967" lon="12.089777620360518"><ele>711.0</ele><time>2026-04-18T17:56:34Z</time></trkpt><trkpt lat="47.69764912251302" lon="12.089601057239983"><ele>712.0</ele><time>2026-04-18T17:56:35Z</time></trkpt><trkpt lat="47.69776852221555" lon="12.089439132121676"><ele>713.0</ele><time>2026-04-18T17:56:36Z</time></trkpt><trkpt lat="47.69789964677137" lon="12.089273101374712"><ele>714.0</ele><time>2026-04-18T17:56:37Z</time></trkpt><trkpt lat="47.698038662495854" lon="12.08909854453939"><ele>715.0</ele><time>2026-04-18T17:56:38Z</time></trkpt><trkpt lat="47.69815823903081" lon="12.088950094072516"><ele>711.3333333333334</ele><time>2026-04-18T17:56:39Z</time></trkpt><trkpt lat="47.698273678077186" lon="12.08877445020028"><ele>707.6666666666666</ele><time>2026-04-18T17:56:40Z</time></trkpt><trkpt lat="47.69837801259899" lon="12.088577677179948"><ele>704.0</ele><time>2026-04-18T17:56:41Z</time></trkpt><trkpt lat="47.69847694884422" lon="12.088361331606205"><ele>704.75</ele><time>2026-04-18T17:56:42Z</time></trkpt><trkpt lat="47.69855927979258" lon="12.088157668752462"><ele>705.5</ele><time>2026-04-18T17:56:43Z</time></trkpt><trkpt lat="47.6986457352235" lon="12.087981001473537"><ele>706.25</ele><time>2026-04-18T17:56:44Z</time></trkpt><trkpt lat="47.6987426094714" lon="12.087839397266462"><ele>707.0</ele><time>2026-04-18T17:56:45Z</time></trkpt><trkpt lat="47.69887117072717" lon="12.087718249954431"><ele>704.6666666666666</ele><time>2026-04-18T17:56:46Z</time></trkpt><trkpt lat="47.69901301554988" lon="12.087587449621465"><ele>702.3333333333334</ele><time>2026-04-18T17:56:47Z</time></trkpt><trkpt lat="47.69914632838036" lon="12.087422573314571"><ele>700.0</ele><time>2026-04-18T17:56:48Z</time></trkpt><trkpt lat="47.69927474258584" lon="12.087245242531953"><ele>700.0</ele><time>2026-04-18T17:56:49Z</time></trkpt><trkpt lat="47.699391757925106" lon="12.08708006584865"><ele>700.0</ele><time>2026-04-18T17:56:50Z</time></trkpt><trkpt lat="47.69951766121854" lon="12.086924788939807"><ele>700.0</ele><time>2026-04-18T17:56:51Z</time></trkpt><trkpt lat="47.699647843508245" lon="12.086756519162424"><ele>702.0</ele><time>2026-04-18T17:56:52Z</time></trkpt><trkpt lat="47.6997884753882" lon="12.086593270398085"><ele>704.0</ele><time>2026-04-18T17:56:53Z</time></trkpt><trkpt lat="47.69992497117517" lon="12.08645125503893"><ele>706.0</ele><time>2026-04-18T17:56:54Z</time></trkpt><trkpt lat="47.70006526842234" lon="12.086338959215428"><ele>706.0</ele><time>2026-04-18T17:56:55Z</time></trkpt><trkpt lat="47.70019031775124" lon="12.086202354107506"><ele>706.0</ele><time>2026-04-18T17:56:56Z</time></trkpt><trkpt lat="47.700313548370815" lon="12.086055298487137"><ele>706.0</ele><time>2026-04-18T17:56:57Z</time></trkpt><trkpt lat="47.70043086751947" lon="12.085879290719138"><ele>704.3333333333334</ele><time>2026-04-18T17:56:58Z</time></trkpt><trkpt lat="47.70054509368468" lon="12.085682177106989"><ele>702.6666666666666</ele><time>2026-04-18T17:56:59Z</time></trkpt><trkpt lat="47.70066401763921" lon="12.085506499036446"><ele>701.0</ele><time>2026-04-18T17:57:00Z</time></trkpt><trkpt lat="47.70078997204611" lon="12.085321584330813"><ele>701.0</ele><time>2026-04-18T17:57:01Z</time></trkpt><trkpt lat="47.700918892955094" lon="12.08515117953284"><ele>701.0</ele><time>2026-04-18T17:57:02Z</time></trkpt><trkpt lat="47.70105399401613" lon="12.084998762081945"><ele>701.0</ele><time>2026-04-18T17:57:03Z</time></trkpt><trkpt lat="47.70119811504052" lon="12.084852793125103"><ele>696.6666666666666</ele><time>2026-04-18T17:57:04Z</time></trkpt><trkpt lat="47.70134730994389" lon="12.084730687607351"><ele>692.3333333333334</ele><time>2026-04-18T17:57:05Z</time></trkpt><trkpt lat="47.70149683842914" lon="12.084615909472742"><ele>688.0</ele><time>2026-04-18T17:57:06Z</time></trkpt><trkpt lat="47.701675027923315" lon="12.084531875795978"><ele>688.0</ele><time>2026-04-18T17:57:07Z</time></trkpt><trkpt lat="47.7018125452765" lon="12.084449297494164"><ele>688.0</ele><time>2026-04-18T17:57:08Z</time></trkpt><trkpt lat="47.701959465455836" lon="12.084381055733896"><ele>688.0</ele><time>2026-04-18T17:57:09Z</time></trkpt><trkpt lat="47.70210329150938" lon="12.084313882373129"><ele>682.6666666666667</ele><time>2026-04-18T17:57:10Z</time></trkpt><trkpt lat="47.702253846512804" lon="12.084254600130885"><ele>677.3333333333334</ele><time>2026-04-18T17:57:11Z</time></trkpt><trkpt lat="47.7023948086076" lon="12.084210527383965"><ele>672.0</ele><time>2026-04-18T17:57:12Z</time></trkpt><trkpt lat="47.70254685479956" lon="12.084163919836625"><ele>671.6666666666666</ele><time>2026-04-18T17:57:13Z</time></trkpt><trkpt lat="47.70270938582664" lon="12.08409297473745"><ele>671.3333333333333</ele><time>2026-04-18T17:57:14Z</time></trkpt><trkpt lat="47.70287650035376" lon="12.08401606005901"><ele>671.0</ele><time>2026-04-18T17:57:15Z</time></trkpt><trkpt lat="47.7030358917985" lon="12.083935715152622"><ele>671.0</ele><time>2026-04-18T17:57:16Z</time></trkpt><trkpt lat="47.70319038561979" lon="12.083846320293693"><ele>671.0</ele><time>2026-04-18T17:57:17Z</time></trkpt><trkpt lat="47.70333794975711" lon="12.083735173947378"><ele>671.0</ele><time>2026-04-18T17:57:18Z</time></trkpt><trkpt lat="47.70348756081165" lon="12.083602858788636"><ele>669.3333333333333</ele><time>2026-04-18T17:57:19Z</time></trkpt><trkpt lat="47.703632865080095" lon="12.083453939927757"><ele>667.6666666666666</ele><time>2026-04-18T17:57:20Z</time></trkpt><trkpt lat="47.7037671934311" lon="12.083285349592732"><ele>666.0</ele><time>2026-04-18T17:57:21Z</time></trkpt><trkpt lat="47.70389875402637" lon="12.083108048531432"><ele>666.0</ele><time>2026-04-18T17:57:22Z</time></trkpt><trkpt lat="47.70402694937731" lon="12.08293642722762"><ele>666.0</ele><time>2026-04-18T17:57:23Z</time></trkpt><trkpt lat="47.704142984356196" lon="12.08277615861972"><ele>666.0</ele><time>2026-04-18T17:57:24Z</time></trkpt><trkpt lat="47.704241743211384" lon="12.082606638521206"><ele>666.6666666666666</ele><time>2026-04-18T17:57:25Z</time></trkpt><trkpt lat="47.70433713623901" lon="12.082427387064616"><ele>667.3333333333333</ele><time>2026-04-18T17:57:26Z</time></trkpt><trkpt lat="47.70443242354836" lon="12.082240577471762"><ele>668.0</ele><time>2026-04-18T17:57:27Z</time></trkpt><trkpt lat="47.70453943621605" lon="12.082057265514676"><ele>668.0</ele><time>2026-04-18T17:57:28Z</time></trkpt><trkpt lat="47.70465700540245" lon="12.081872157132985"><ele>668.0</ele><time>2026-04-18T17:57:29Z</time></trkpt><trkpt lat="47.70478400034306" lon="12.081696805233204"><ele>668.0</ele><time>2026-04-18T17:57:30Z</time></trkpt><trkpt lat="47.70491294407719" lon="12.08152043085707"><ele>670.0</ele><time>2026-04-18T17:57:31Z</time></trkpt><trkpt lat="47.705031688948544" lon="12.08135063698962"><ele>672.0</ele><time>2026-04-18T17:57:32Z</time></trkpt><trkpt lat="47.705145080428366" lon="12.081175519796536"><ele>674.0</ele><time>2026-04-18T17:57:33Z</time></trkpt><trkpt lat="47.705252157956295" lon="12.080999351654317"><ele>674.0</ele><time>2026-04-18T17:57:34Z</time></trkpt><trkpt lat="47.70535347603657" lon="12.080833230605283"><ele>674.0</ele><time>2026-04-18T17:57:35Z</time></trkpt><trkpt lat="47.70544994130658" lon="12.080662943924173"><ele>674.0</ele><time>2026-04-18T17:57:36Z</time></trkpt><trkpt lat="47.7055416555712" lon="12.080481921442692"><ele>669.75</ele><time>2026-04-18T17:57:37Z</time></trkpt><trkpt lat="47.70562297308026" lon="12.080293646838404"><ele>665.5</ele><time>2026-04-18T17:57:38Z</time></trkpt><trkpt lat="47.705697648759305" lon="12.080120101617256"><ele>661.25</ele><time>2026-04-18T17:57:39Z</time></trkpt><trkpt lat="47.70577126057329" lon="12.079961168394355"><ele>657.0</ele><time>2026-04-18T17:57:40Z</time></trkpt><trkpt lat="47.70584800577537" lon="12.079817116721902"><ele>656.25</ele><time>2026-04-18T17:57:41Z</time></trkpt><trkpt lat="47.705933601897506" lon="12.079702981233408"><ele>655.5</ele><time>2026-04-18T17:57:42Z</time></trkpt><trkpt lat="47.70603172216024" lon="12.07960493215952"><ele>654.75</ele><time>2026-04-18T17:57:43Z</time></trkpt><trkpt lat="47.706147098681065" lon="12.079544064389438"><ele>654.0</ele><time>2026-04-18T17:57:44Z</time></trkpt><trkpt lat="47.70628529284695" lon="12.079531885150915"><ele>652.0</ele><time>2026-04-18T17:57:45Z</time></trkpt><trkpt lat="47.70643333494064" lon="12.079550939253465"><ele>650.0</ele><time>2026-04-18T17:57:46Z</time></trkpt><trkpt lat="47.706584705172176" lon="12.079586722226926"><ele>648.0</ele><time>2026-04-18T17:57:47Z</time></trkpt><trkpt lat="47.70672556473521" lon="12.079605108606993"><ele>646.0</ele><time>2026-04-18T17:57:48Z</time></trkpt><trkpt lat="47.70686599786354" lon="12.079599326452849"><ele>645.5</ele><time>2026-04-18T17:57:49Z</time></trkpt><trkpt lat="47.707003526542266" lon="12.079583887892701"><ele>645.0</ele><time>2026-04-18T17:57:50Z</time></trkpt><trkpt lat="47.707134019417076" lon="12.079581882008938"><ele>644.5</ele><time>2026-04-18T17:57:51Z</time></trkpt><trkpt lat="47.707248954883084" lon="12.079649066843748"><ele>644.0</ele><time>2026-04-18T17:57:52Z</time></trkpt><trkpt lat="47.70734822763424" lon="12.07972275105576"><ele>644.0</ele><time>2026-04-18T17:57:53Z</time></trkpt><trkpt lat="47.70745936193761" lon="12.079825024151965"><ele>644.0</ele><time>2026-04-18T17:57:54Z</time></trkpt><trkpt lat="47.70757259751417" lon="12.07995707769805"><ele>644.0</ele><time>2026-04-18T17:57:55Z</time></trkpt><trkpt lat="47.70768300425417" lon="12.080099630156163"><ele>644.0</ele><time>2026-04-18T17:57:56Z</time></trkpt><trkpt lat="47.707782365699295" lon="12.080230145607201"><ele>644.0</ele><time>2026-04-18T17:57:57Z</time></trkpt><trkpt lat="47.7078627960733" lon="12.080333046514285"><ele>644.0</ele><time>2026-04-18T17:57:58Z</time></trkpt><trkpt lat="47.70795354822098" lon="12.08043495703656"><ele>644.0</ele><time>2026-04-18T17:57:59Z</time></trkpt><trkpt lat="47.708089632003635" lon="12.080510896816882"><ele>644.0</ele><time>2026-04-18T17:58:00Z</time></trkpt><trkpt lat="47.708255309011626" lon="12.08053755178418"><ele>644.0</ele><time>2026-04-18T17:58:01Z</time></trkpt><trkpt lat="47.70841683423089" lon="12.080557168349925"><ele>644.0</ele><time>2026-04-18T17:58:02Z</time></trkpt><trkpt lat="47.70856663038821" lon="12.080556821785077"><ele>644.0</ele><time>2026-04-18T17:58:03Z</time></trkpt><trkpt lat="47.70870726061334" lon="12.080532078416132"><ele>644.25</ele><time>2026-04-18T17:58:04Z</time></trkpt><trkpt lat="47.7088391242077" lon="12.0804850648669"><ele>644.5</ele><time>2026-04-18T17:58:05Z</time></trkpt><trkpt lat="47.708963064909426" lon="12.080401987014223"><ele>644.75</ele><time>2026-04-18T17:58:06Z</time></trkpt><trkpt lat="47.70910883794554" lon="12.080369798840357"><ele>645.0</ele><time>2026-04-18T17:58:07Z</time></trkpt><trkpt lat="47.70926134586361" lon="12.08040645971975"><ele>643.3333333333334</ele><time>2026-04-18T17:58:08Z</time></trkpt><trkpt lat="47.70942789877974" lon="12.080416382105524"><ele>641.6666666666667</ele><time>2026-04-18T17:58:09Z</time></trkpt><trkpt lat="47.70959036599215" lon="12.080503160014624"><ele>640.0</ele><time>2026-04-18T17:58:10Z</time></trkpt><trkpt lat="47.70974262560534" lon="12.08055083143989"><ele>640.0</ele><time>2026-04-18T17:58:11Z</time></trkpt><trkpt lat="47.70989712518774" lon="12.0806011169387"><ele>640.0</ele><time>2026-04-18T17:58:12Z</time></trkpt><trkpt lat="47.71006239609659" lon="12.080632995824374"><ele>640.0</ele><time>2026-04-18T17:58:13Z</time></trkpt><trkpt lat="47.71021315014755" lon="12.08064355288651"><ele>640.6</ele><time>2026-04-18T17:58:14Z</time></trkpt><trkpt lat="47.71035161997132" lon="12.080650021947045"><ele>641.2</ele><time>2026-04-18T17:58:15Z</time></trkpt><trkpt lat="47.71047199161953" lon="12.08067694363296"><ele>641.8</ele><time>2026-04-18T17:58:16Z</time></trkpt><trkpt lat="47.710564876130306" lon="12.08072063890275"><ele>642.4</ele><time>2026-04-18T17:58:17Z</time></trkpt><trkpt lat="47.71063437217658" lon="12.08076887756799"><ele>643.0</ele><time>2026-04-18T17:58:18Z</time></trkpt><trkpt lat="47.710725624984654" lon="12.080857848112935"><ele>643.0</ele><time>2026-04-18T17:58:20Z</time></trkpt><trkpt lat="47.710820061798515" lon="12.080968365653213"><ele>643.0</ele><time>2026-04-18T17:58:22Z</time></trkpt><trkpt lat="47.710878727276885" lon="12.081042691853296"><ele>643.0</ele><time>2026-04-18T17:58:23Z</time></trkpt><trkpt lat="47.71094372996597" lon="12.081125244321942"><ele>643.0</ele><time>2026-04-18T17:58:24Z</time></trkpt><trkpt lat="47.7110133638671" lon="12.0812153672935"><ele>643.0</ele><time>2026-04-18T17:58:25Z</time></trkpt><trkpt lat="47.71107984835318" lon="12.081304399366454"><ele>643.6666666666667</ele><time>2026-04-18T17:58:26Z</time></trkpt><trkpt lat="47.71114879942662" lon="12.081394774227997"><ele>644.3333333333334</ele><time>2026-04-18T17:58:27Z</time></trkpt><trkpt lat="47.71121346356405" lon="12.08147953005695"><ele>645.0</ele><time>2026-04-18T17:58:28Z</time></trkpt><trkpt lat="47.71127295912624" lon="12.081557511559177"><ele>645.6666666666666</ele><time>2026-04-18T17:58:29Z</time></trkpt><trkpt lat="47.71133985951062" lon="12.081615550694332"><ele>646.3333333333333</ele><time>2026-04-18T17:58:30Z</time></trkpt><trkpt lat="47.711385136797915" lon="12.08170219626265"><ele>647.0</ele><time>2026-04-18T17:58:31Z</time></trkpt><trkpt lat="47.71143415863776" lon="12.081785564394387"><ele>647.0</ele><time>2026-04-18T17:58:32Z</time></trkpt><trkpt lat="47.711481816988226" lon="12.081861650286545"><ele>647.0</ele><time>2026-04-18T17:58:33Z</time></trkpt><trkpt lat="47.711533694217984" lon="12.08193963513926"><ele>647.0</ele><time>2026-04-18T17:58:34.052Z</time></trkpt><trkpt lat="47.71158987313001" lon="12.082017892889883"><ele>647.0</ele><time>2026-04-18T17:58:35.051Z</time></trkpt><trkpt lat="47.71164463524229" lon="12.08209091383808"><ele>647.0</ele><time>2026-04-18T17:58:36.049Z</time></trkpt><trkpt lat="47.71171575921965" lon="12.082104527246413"><ele>647.0</ele><time>2026-04-18T17:58:38Z</time></trkpt><trkpt lat="47.71177398859873" lon="12.082188027993386"><ele>647.0</ele><time>2026-04-18T17:58:42Z</time></trkpt><trkpt lat="47.71177250413864" lon="12.082086442662137"><ele>647.0</ele><time>2026-04-18T17:59:45Z</time></trkpt><trkpt lat="47.71170323990171" lon="12.082063232411814"><ele>647.0</ele><time>2026-04-18T17:59:55Z</time></trkpt><trkpt lat="47.71167479657802" lon="12.081964583602597"><ele>647.0</ele><time>2026-04-18T18:00:05Z</time></trkpt><trkpt lat="47.71172924345442" lon="12.081894358761245"><ele>647.0</ele><time>2026-04-18T18:00:12Z</time></trkpt><trkpt lat="47.711818646862234" lon="12.081976849857243"><ele>647.0</ele><time>2026-04-18T18:00:15Z</time></trkpt><trkpt lat="47.71187546673647" lon="12.082048650155112"><ele>647.0</ele><time>2026-04-18T18:00:23Z</time></trkpt><trkpt lat="47.71193623483619" lon="12.08210240334474"><ele>647.0</ele><time>2026-04-18T18:00:27Z</time></trkpt><trkpt lat="47.711759246605695" lon="12.081897194441634"><ele>647.0</ele><time>2026-04-18T18:00:29Z</time></trkpt><trkpt lat="47.71181854853789" lon="12.081942144000818"><ele>647.0</ele><time>2026-04-18T18:00:33Z</time></trkpt><trkpt lat="47.71201452793633" lon="12.082208147329474"><ele>647.0</ele><time>2026-04-18T18:00:35Z</time></trkpt><trkpt lat="47.71192588453379" lon="12.082088514923827"><ele>647.0</ele><time>2026-04-18T18:00:41Z</time></trkpt><trkpt lat="47.71198154181504" lon="12.082040087296503"><ele>647.0</ele><time>2026-04-18T18:00:45Z</time></trkpt><trkpt lat="47.71190824126291" lon="12.082022124821037"><ele>647.0</ele><time>2026-04-18T18:00:54Z</time></trkpt><trkpt lat="47.71183850075518" lon="12.082180488099505"><ele>647.0</ele><time>2026-04-18T18:00:55Z</time></trkpt><trkpt lat="47.71187411408209" lon="12.082267512403215"><ele>639.5</ele><time>2026-04-18T18:00:58Z</time></trkpt><trkpt lat="47.711926505193595" lon="12.082321172401736"><ele>632.0</ele><time>2026-04-18T18:00:59Z</time></trkpt><trkpt lat="47.71206557204789" lon="12.082322133005455"><ele>624.5</ele><time>2026-04-18T18:01:01Z</time></trkpt><trkpt lat="47.71214337005395" lon="12.082354910700383"><ele>617.0</ele><time>2026-04-18T18:01:03Z</time></trkpt><trkpt lat="47.71230072161967" lon="12.08225995052236"><ele>617.0</ele><time>2026-04-18T18:01:08Z</time></trkpt><trkpt lat="47.71241885395475" lon="12.082243778358063"><ele>617.0</ele><time>2026-04-18T18:01:10Z</time></trkpt><trkpt lat="47.712484659335296" lon="12.08222634760922"><ele>617.0</ele><time>2026-04-18T18:01:11Z</time></trkpt><trkpt lat="47.71242117503458" lon="12.082203643127503"><ele>617.0</ele><time>2026-04-18T18:01:27Z</time></trkpt><trkpt lat="47.71239420805639" lon="12.082097831753131"><ele>617.0</ele><time>2026-04-18T18:01:28Z</time></trkpt><trkpt lat="47.71226956481681" lon="12.082006563684956"><ele>617.0</ele><time>2026-04-18T18:01:34Z</time></trkpt><trkpt lat="47.71205065559502" lon="12.081986979013996"><ele>617.0</ele><time>2026-04-18T18:01:38.999Z</time></trkpt><trkpt lat="47.71230215822923" lon="12.082045118127464"><ele>617.0</ele><time>2026-04-18T18:01:40.999Z</time></trkpt><trkpt lat="47.71206960158155" lon="12.081985625327112"><ele>617.0</ele><time>2026-04-18T18:01:42.999Z</time></trkpt><trkpt lat="47.711982514494586" lon="12.082008223509755"><ele>617.0</ele><time>2026-04-18T18:01:48.999Z</time></trkpt><trkpt lat="47.71191576924207" lon="12.0818861102729"><ele>617.0</ele><time>2026-04-18T18:01:50.999Z</time></trkpt><trkpt lat="47.71185658569733" lon="12.081955062852998"><ele>617.0</ele><time>2026-04-18T18:01:53.999Z</time></trkpt><trkpt lat="47.71174280028276" lon="12.082017423439117"><ele>617.0</ele><time>2026-04-18T18:01:54.999Z</time></trkpt><trkpt lat="47.71180192599321" lon="12.08210016428344"><ele>617.0</ele><time>2026-04-18T18:02:02.999Z</time></trkpt><trkpt lat="47.71186590287989" lon="12.082129542878018"><ele>617.0</ele><time>2026-04-18T18:02:09.999Z</time></trkpt><trkpt lat="47.711900239425326" lon="12.08225784431246"><ele>617.0</ele><time>2026-04-18T18:02:32.999Z</time></trkpt><trkpt lat="47.71198773646324" lon="12.082399380722016"><ele>614.0</ele><time>2026-04-18T18:02:34.999Z</time></trkpt><trkpt lat="47.71203898632236" lon="12.082469223939864"><ele>611.0</ele><time>2026-04-18T18:02:35.999Z</time></trkpt><trkpt lat="47.712007130408736" lon="12.08259101179202"><ele>608.0</ele><time>2026-04-18T18:02:36.999Z</time></trkpt><trkpt lat="47.712060879354524" lon="12.082714893939979"><ele>605.0</ele><time>2026-04-18T18:02:37.999Z</time></trkpt><trkpt lat="47.71212885678015" lon="12.082863563869706"><ele>602.0</ele><time>2026-04-18T18:02:38.999Z</time></trkpt><trkpt lat="47.712204817117744" lon="12.083010212195088"><ele>602.0</ele><time>2026-04-18T18:02:39.999Z</time></trkpt><trkpt lat="47.712281490930245" lon="12.083127827402182"><ele>602.0</ele><time>2026-04-18T18:02:40.999Z</time></trkpt><trkpt lat="47.71235902870081" lon="12.083223692181928"><ele>602.0</ele><time>2026-04-18T18:02:41.999Z</time></trkpt><trkpt lat="47.71240461670531" lon="12.083396257872247"><ele>602.0</ele><time>2026-04-18T18:02:42.999Z</time></trkpt><trkpt lat="47.712496443847584" lon="12.083492327128385"><ele>602.0</ele><time>2026-04-18T18:02:43.999Z</time></trkpt><trkpt lat="47.71257805407815" lon="12.083562410594977"><ele>600.5</ele><time>2026-04-18T18:02:44.999Z</time></trkpt><trkpt lat="47.71265826566429" lon="12.083601689818103"><ele>599.0</ele><time>2026-04-18T18:02:45.999Z</time></trkpt><trkpt lat="47.71274038829958" lon="12.083636203790808"><ele>597.5</ele><time>2026-04-18T18:02:46.999Z</time></trkpt><trkpt lat="47.712877297307514" lon="12.083697214704669"><ele>596.0</ele><time>2026-04-18T18:02:48.999Z</time></trkpt><trkpt lat="47.71312752181917" lon="12.08377546041079"><ele>582.0</ele><time>2026-04-18T18:02:50.999Z</time></trkpt><trkpt lat="47.713599082727654" lon="12.083843277701773"><ele>582.0</ele><time>2026-04-18T18:02:53.999Z</time></trkpt><trkpt lat="47.71370731795915" lon="12.084090095206054"><ele>582.0</ele><time>2026-04-18T18:02:55.999Z</time></trkpt><trkpt lat="47.71377292293963" lon="12.084268027279448"><ele>582.0</ele><time>2026-04-18T18:02:56.999Z</time></trkpt><trkpt lat="47.713825742189" lon="12.084429628590556"><ele>582.2</ele><time>2026-04-18T18:02:57.999Z</time></trkpt><trkpt lat="47.71388118639226" lon="12.084589986364971"><ele>582.4000000000001</ele><time>2026-04-18T18:02:58.999Z</time></trkpt><trkpt lat="47.713941979684165" lon="12.084733869862372"><ele>582.5999999999999</ele><time>2026-04-18T18:02:59.999Z</time></trkpt><trkpt lat="47.71400440352772" lon="12.084843982356892"><ele>582.8</ele><time>2026-04-18T18:03:00.999Z</time></trkpt><trkpt lat="47.71408089089888" lon="12.084955180659794"><ele>583.0</ele><time>2026-04-18T18:03:01.999Z</time></trkpt><trkpt lat="47.71414435557106" lon="12.085034897905519"><ele>586.25</ele><time>2026-04-18T18:03:02.999Z</time></trkpt><trkpt lat="47.71421331268224" lon="12.08509868597949"><ele>589.5</ele><time>2026-04-18T18:03:03.999Z</time></trkpt><trkpt lat="47.714347933193565" lon="12.085140561385458"><ele>592.75</ele><time>2026-04-18T18:03:04.999Z</time></trkpt><trkpt lat="47.714492272177104" lon="12.085137258034798"><ele>596.0</ele><time>2026-04-18T18:03:05.999Z</time></trkpt><trkpt lat="47.71461979618253" lon="12.085091602992687"><ele>589.25</ele><time>2026-04-18T18:03:06.999Z</time></trkpt><trkpt lat="47.71478065345531" lon="12.08502046357631"><ele>582.5</ele><time>2026-04-18T18:03:07.999Z</time></trkpt><trkpt lat="47.714896486615004" lon="12.085026616216137"><ele>575.75</ele><time>2026-04-18T18:03:08.999Z</time></trkpt><trkpt lat="47.71502447721972" lon="12.085054033696888"><ele>569.0</ele><time>2026-04-18T18:03:09.999Z</time></trkpt><trkpt lat="47.71516066209553" lon="12.085126075944387"><ele>569.6666666666666</ele><time>2026-04-18T18:03:10.999Z</time></trkpt><trkpt lat="47.715311099071656" lon="12.085280098407924"><ele>570.3333333333334</ele><time>2026-04-18T18:03:11.999Z</time></trkpt><trkpt lat="47.71541670212956" lon="12.085419735694162"><ele>571.0</ele><time>2026-04-18T18:03:12.999Z</time></trkpt><trkpt lat="47.715531714546145" lon="12.085576858125755"><ele>571.0</ele><time>2026-04-18T18:03:13.999Z</time></trkpt><trkpt lat="47.715613037439425" lon="12.085683210968337"><ele>571.0</ele><time>2026-04-18T18:03:14.999Z</time></trkpt><trkpt lat="47.715710934398615" lon="12.08579272986447"><ele>571.0</ele><time>2026-04-18T18:03:15.999Z</time></trkpt><trkpt lat="47.71582773254764" lon="12.085904439562698"><ele>571.0</ele><time>2026-04-18T18:03:16.999Z</time></trkpt><trkpt lat="47.7159647941546" lon="12.085933167809744"><ele>571.5</ele><time>2026-04-18T18:03:17.999Z</time></trkpt><trkpt lat="47.71611411837924" lon="12.085960466333141"><ele>572.0</ele><time>2026-04-18T18:03:18.999Z</time></trkpt><trkpt lat="47.71624140994613" lon="12.08599476514867"><ele>572.5</ele><time>2026-04-18T18:03:19.999Z</time></trkpt><trkpt lat="47.71637593117048" lon="12.086058564845386"><ele>573.0</ele><time>2026-04-18T18:03:20.999Z</time></trkpt><trkpt lat="47.71650197453375" lon="12.086218984595266"><ele>573.0</ele><time>2026-04-18T18:03:21.999Z</time></trkpt><trkpt lat="47.71660672099492" lon="12.086394661610196"><ele>573.0</ele><time>2026-04-18T18:03:22.999Z</time></trkpt><trkpt lat="47.716697462142264" lon="12.086557889878373"><ele>573.0</ele><time>2026-04-18T18:03:23.999Z</time></trkpt><trkpt lat="47.716786339281775" lon="12.086717619697088"><ele>573.0</ele><time>2026-04-18T18:03:24.999Z</time></trkpt><trkpt lat="47.71687258934887" lon="12.086900344546125"><ele>570.25</ele><time>2026-04-18T18:03:25.999Z</time></trkpt><trkpt lat="47.71694616335393" lon="12.087054414551076"><ele>567.5</ele><time>2026-04-18T18:03:26.999Z</time></trkpt><trkpt lat="47.71704070088577" lon="12.0871790076208"><ele>564.75</ele><time>2026-04-18T18:03:27.999Z</time></trkpt><trkpt lat="47.71710924910231" lon="12.087317714709135"><ele>562.0</ele><time>2026-04-18T18:03:28.999Z</time></trkpt><trkpt lat="47.71717362971155" lon="12.087461972849848"><ele>556.25</ele><time>2026-04-18T18:03:29.999Z</time></trkpt><trkpt lat="47.71724733246258" lon="12.087615091274493"><ele>550.5</ele><time>2026-04-18T18:03:30.999Z</time></trkpt><trkpt lat="47.71732543697402" lon="12.087784721402567"><ele>544.75</ele><time>2026-04-18T18:03:31.999Z</time></trkpt><trkpt lat="47.717403234235" lon="12.087926163756919"><ele>539.0</ele><time>2026-04-18T18:03:32.999Z</time></trkpt><trkpt lat="47.71748388033815" lon="12.088045085331355"><ele>539.0</ele><time>2026-04-18T18:03:33.999Z</time></trkpt><trkpt lat="47.71756275079629" lon="12.088146956124833"><ele>539.0</ele><time>2026-04-18T18:03:34.999Z</time></trkpt><trkpt lat="47.717637752349944" lon="12.088250898947335"><ele>539.0</ele><time>2026-04-18T18:03:35.999Z</time></trkpt><trkpt lat="47.71772533702249" lon="12.088346227198866"><ele>539.0</ele><time>2026-04-18T18:03:36.999Z</time></trkpt><trkpt lat="47.7178193554981" lon="12.088436874907414"><ele>539.0</ele><time>2026-04-18T18:03:37.999Z</time></trkpt><trkpt lat="47.71791541512032" lon="12.088524286030237"><ele>538.25</ele><time>2026-04-18T18:03:38.999Z</time></trkpt><trkpt lat="47.71801338752235" lon="12.088603244648462"><ele>537.5</ele><time>2026-04-18T18:03:39.999Z</time></trkpt><trkpt lat="47.71812750995152" lon="12.088676202245438"><ele>536.75</ele><time>2026-04-18T18:03:40.999Z</time></trkpt><trkpt lat="47.718257349080865" lon="12.088743241406076"><ele>536.0</ele><time>2026-04-18T18:03:41.999Z</time></trkpt><trkpt lat="47.71839723271688" lon="12.088796020857217"><ele>536.0</ele><time>2026-04-18T18:03:42.999Z</time></trkpt><trkpt lat="47.718532461575826" lon="12.088821032097739"><ele>536.0</ele><time>2026-04-18T18:03:43.999Z</time></trkpt><trkpt lat="47.718660476273634" lon="12.088837964784764"><ele>536.0</ele><time>2026-04-18T18:03:44.999Z</time></trkpt><trkpt lat="47.71878823579091" lon="12.088854547945827"><ele>536.0</ele><time>2026-04-18T18:03:45.999Z</time></trkpt><trkpt lat="47.718912183080235" lon="12.088870033228247"><ele>538.25</ele><time>2026-04-18T18:03:46.999Z</time></trkpt><trkpt lat="47.719031381906184" lon="12.088912298741262"><ele>540.5</ele><time>2026-04-18T18:03:47.999Z</time></trkpt><trkpt lat="47.71914387638577" lon="12.088974107854549"><ele>542.75</ele><time>2026-04-18T18:03:48.999Z</time></trkpt><trkpt lat="47.719247682219354" lon="12.089052626555242"><ele>545.0</ele><time>2026-04-18T18:03:49.999Z</time></trkpt><trkpt lat="47.719344154002854" lon="12.089149265073548"><ele>543.75</ele><time>2026-04-18T18:03:50.999Z</time></trkpt><trkpt lat="47.7194268301285" lon="12.089268239798132"><ele>542.5</ele><time>2026-04-18T18:03:51.999Z</time></trkpt><trkpt lat="47.71949868600762" lon="12.089412322846956"><ele>541.25</ele><time>2026-04-18T18:03:52.999Z</time></trkpt><trkpt lat="47.719565103758015" lon="12.089568066556232"><ele>540.0</ele><time>2026-04-18T18:03:53.999Z</time></trkpt><trkpt lat="47.71963478839556" lon="12.089729295922352"><ele>540.0</ele><time>2026-04-18T18:03:54.999Z</time></trkpt><trkpt lat="47.71970932447307" lon="12.089880789833426"><ele>540.0</ele><time>2026-04-18T18:03:55.999Z</time></trkpt><trkpt lat="47.71979184644845" lon="12.090013732823055"><ele>540.0</ele><time>2026-04-18T18:03:56.999Z</time></trkpt><trkpt lat="47.719887848069924" lon="12.090119720495062"><ele>540.0</ele><time>2026-04-18T18:03:57.999Z</time></trkpt><trkpt lat="47.72000682479783" lon="12.090190195690091"><ele>539.0</ele><time>2026-04-18T18:03:58.999Z</time></trkpt><trkpt lat="47.720137297657786" lon="12.090242969712312"><ele>538.0</ele><time>2026-04-18T18:03:59.999Z</time></trkpt><trkpt lat="47.72027243735935" lon="12.090280980906916"><ele>537.0</ele><time>2026-04-18T18:04:00.999Z</time></trkpt><trkpt lat="47.720412987239484" lon="12.090319500420016"><ele>536.0</ele><time>2026-04-18T18:04:01.999Z</time></trkpt><trkpt lat="47.720551637227594" lon="12.090362601864054"><ele>533.5</ele><time>2026-04-18T18:04:02.999Z</time></trkpt><trkpt lat="47.72067892379527" lon="12.090406703041925"><ele>531.0</ele><time>2026-04-18T18:04:03.999Z</time></trkpt><trkpt lat="47.72079890899053" lon="12.090456046432003"><ele>528.5</ele><time>2026-04-18T18:04:04.999Z</time></trkpt><trkpt lat="47.720912840518096" lon="12.090513502584152"><ele>526.0</ele><time>2026-04-18T18:04:05.999Z</time></trkpt><trkpt lat="47.72102708949693" lon="12.090585697541714"><ele>527.25</ele><time>2026-04-18T18:04:06.999Z</time></trkpt><trkpt lat="47.721135194689126" lon="12.09067457708221"><ele>528.5</ele><time>2026-04-18T18:04:07.999Z</time></trkpt><trkpt lat="47.72123522025781" lon="12.090774728446327"><ele>529.75</ele><time>2026-04-18T18:04:08.999Z</time></trkpt><trkpt lat="47.721328590408575" lon="12.090884154637205"><ele>531.0</ele><time>2026-04-18T18:04:09.999Z</time></trkpt><trkpt lat="47.721423265114986" lon="12.090990007010152"><ele>527.75</ele><time>2026-04-18T18:04:10.999Z</time></trkpt><trkpt lat="47.72152181036953" lon="12.091081348317516"><ele>524.5</ele><time>2026-04-18T18:04:11.999Z</time></trkpt><trkpt lat="47.72162289944032" lon="12.091160999989027"><ele>521.25</ele><time>2026-04-18T18:04:12.999Z</time></trkpt><trkpt lat="47.72172760532648" lon="12.091231090235468"><ele>518.0</ele><time>2026-04-18T18:04:13.999Z</time></trkpt><trkpt lat="47.72183057619179" lon="12.091302667639814"><ele>519.0</ele><time>2026-04-18T18:04:14.999Z</time></trkpt><trkpt lat="47.721934888744265" lon="12.091374562265237"><ele>520.0</ele><time>2026-04-18T18:04:15.999Z</time></trkpt><trkpt lat="47.72203837532853" lon="12.091446577625407"><ele>521.0</ele><time>2026-04-18T18:04:16.999Z</time></trkpt><trkpt lat="47.72214033516116" lon="12.091519393414856"><ele>522.0</ele><time>2026-04-18T18:04:17.999Z</time></trkpt><trkpt lat="47.72224304108328" lon="12.0915898852349"><ele>521.0</ele><time>2026-04-18T18:04:18.999Z</time></trkpt><trkpt lat="47.722346722387535" lon="12.091663488215577"><ele>520.0</ele><time>2026-04-18T18:04:19.999Z</time></trkpt><trkpt lat="47.722449643027105" lon="12.091746603435109"><ele>519.0</ele><time>2026-04-18T18:04:20.999Z</time></trkpt><trkpt lat="47.722551967704746" lon="12.091831391511784"><ele>518.0</ele><time>2026-04-18T18:04:21.999Z</time></trkpt><trkpt lat="47.72265248636276" lon="12.091918530158415"><ele>517.5</ele><time>2026-04-18T18:04:22.999Z</time></trkpt><trkpt lat="47.72274737663183" lon="12.092024090424225"><ele>517.0</ele><time>2026-04-18T18:04:23.999Z</time></trkpt><trkpt lat="47.72283201722168" lon="12.092163434993513"><ele>516.5</ele><time>2026-04-18T18:04:24.999Z</time></trkpt><trkpt lat="47.72290805787972" lon="12.092327778455047"><ele>516.0</ele><time>2026-04-18T18:04:25.999Z</time></trkpt><trkpt lat="47.72298277978157" lon="12.092509488185572"><ele>516.0</ele><time>2026-04-18T18:04:26.999Z</time></trkpt><trkpt lat="47.72306645743546" lon="12.092685862553786"><ele>516.0</ele><time>2026-04-18T18:04:27.999Z</time></trkpt><trkpt lat="47.72317698329766" lon="12.092859672243785"><ele>516.0</ele><time>2026-04-18T18:04:28.999Z</time></trkpt><trkpt lat="47.72331821027566" lon="12.093045477009841"><ele>516.0</ele><time>2026-04-18T18:04:29.999Z</time></trkpt><trkpt lat="47.72349492698128" lon="12.093225136143687"><ele>516.0</ele><time>2026-04-18T18:04:30.999Z</time></trkpt><trkpt lat="47.72364912891032" lon="12.093388374090777"><ele>516.0</ele><time>2026-04-18T18:04:31.999Z</time></trkpt><trkpt lat="47.72379571406381" lon="12.093556590569177"><ele>516.0</ele><time>2026-04-18T18:04:32.999Z</time></trkpt><trkpt lat="47.72392182759818" lon="12.09371524456878"><ele>516.0</ele><time>2026-04-18T18:04:33.999Z</time></trkpt><trkpt lat="47.724014373909945" lon="12.093855783005148"><ele>516.0</ele><time>2026-04-18T18:04:34.999Z</time></trkpt><trkpt lat="47.72409675930557" lon="12.093982651695214"><ele>516.0</ele><time>2026-04-18T18:04:35.999Z</time></trkpt><trkpt lat="47.72416541653368" lon="12.094096743711026"><ele>516.0</ele><time>2026-04-18T18:04:36.999Z</time></trkpt><trkpt lat="47.72422555308795" lon="12.094193932095362"><ele>516.0</ele><time>2026-04-18T18:04:37.999Z</time></trkpt><trkpt lat="47.72428235038672" lon="12.094292415944047"><ele>516.0</ele><time>2026-04-18T18:04:38.999Z</time></trkpt><trkpt lat="47.72433347446499" lon="12.094379969249925"><ele>516.0</ele><time>2026-04-18T18:04:39.999Z</time></trkpt><trkpt lat="47.72440104605559" lon="12.094497074175418"><ele>516.0</ele><time>2026-04-18T18:04:41.999Z</time></trkpt><trkpt lat="47.724460929445684" lon="12.09460328224285"><ele>513.8333333333334</ele><time>2026-04-18T18:04:43.999Z</time></trkpt><trkpt lat="47.724526446651105" lon="12.094676715971636"><ele>511.66666666666663</ele><time>2026-04-18T18:04:45.999Z</time></trkpt><trkpt lat="47.724648288008105" lon="12.094645310740729"><ele>509.5</ele><time>2026-04-18T18:04:47.999Z</time></trkpt><trkpt lat="47.72471012436439" lon="12.094582148323143"><ele>507.3333333333333</ele><time>2026-04-18T18:04:48.999Z</time></trkpt><trkpt lat="47.72476160521729" lon="12.094510423928389"><ele>505.16666666666663</ele><time>2026-04-18T18:04:49.999Z</time></trkpt><trkpt lat="47.72481545036507" lon="12.094435930650214"><ele>503.0</ele><time>2026-04-18T18:04:50.999Z</time></trkpt><trkpt lat="47.72487286300096" lon="12.094359263105376"><ele>503.0</ele><time>2026-04-18T18:04:51.999Z</time></trkpt><trkpt lat="47.724938032537516" lon="12.094297374396294"><ele>503.00000000000006</ele><time>2026-04-18T18:04:52.999Z</time></trkpt><trkpt lat="47.725004399427974" lon="12.094256288388832"><ele>503.0</ele><time>2026-04-18T18:04:53.999Z</time></trkpt><trkpt lat="47.725072247771195" lon="12.0942297214722"><ele>503.0</ele><time>2026-04-18T18:04:54.999Z</time></trkpt><trkpt lat="47.72514470816756" lon="12.094222472063137"><ele>503.00000000000006</ele><time>2026-04-18T18:04:55.999Z</time></trkpt><trkpt lat="47.725217669514365" lon="12.094224978138502"><ele>503.0</ele><time>2026-04-18T18:04:56.999Z</time></trkpt><trkpt lat="47.725286005849085" lon="12.094229777842951"><ele>503.0</ele><time>2026-04-18T18:04:57.999Z</time></trkpt><trkpt lat="47.725352976477545" lon="12.094245162721354"><ele>503.16666666666663</ele><time>2026-04-18T18:04:58.999Z</time></trkpt><trkpt lat="47.72542092274169" lon="12.094261921569318"><ele>503.3333333333333</ele><time>2026-04-18T18:04:59.999Z</time></trkpt><trkpt lat="47.72549555022252" lon="12.094280706354505"><ele>503.5</ele><time>2026-04-18T18:05:00.999Z</time></trkpt><trkpt lat="47.72557511538218" lon="12.09429759730518"><ele>503.66666666666663</ele><time>2026-04-18T18:05:01.999Z</time></trkpt><trkpt lat="47.725659731276984" lon="12.094307837333"><ele>503.8333333333333</ele><time>2026-04-18T18:05:02.999Z</time></trkpt><trkpt lat="47.725747637603114" lon="12.094316328323687"><ele>504.0</ele><time>2026-04-18T18:05:03.999Z</time></trkpt><trkpt lat="47.72584067309636" lon="12.094321108381886"><ele>504.0</ele><time>2026-04-18T18:05:04.999Z</time></trkpt><trkpt lat="47.72594560426647" lon="12.094320475589186"><ele>504.0</ele><time>2026-04-18T18:05:05.999Z</time></trkpt><trkpt lat="47.72605761724038" lon="12.094347436490027"><ele>504.0</ele><time>2026-04-18T18:05:06.999Z</time></trkpt><trkpt lat="47.72617154855784" lon="12.094412801028614"><ele>504.0</ele><time>2026-04-18T18:05:07.999Z</time></trkpt><trkpt lat="47.72627342857602" lon="12.094488176008541"><ele>504.5</ele><time>2026-04-18T18:05:08.999Z</time></trkpt><trkpt lat="47.72636642603952" lon="12.094562863104597"><ele>505.0</ele><time>2026-04-18T18:05:10Z</time></trkpt><trkpt lat="47.7264763617505" lon="12.094655876757287"><ele>505.5</ele><time>2026-04-18T18:05:11Z</time></trkpt><trkpt lat="47.726581925291036" lon="12.094743194085654"><ele>506.0</ele><time>2026-04-18T18:05:12Z</time></trkpt><trkpt lat="47.72668392780805" lon="12.094828332826319"><ele>506.0</ele><time>2026-04-18T18:05:13Z</time></trkpt><trkpt lat="47.72677963864887" lon="12.094910339368603"><ele>506.0</ele><time>2026-04-18T18:05:14Z</time></trkpt><trkpt lat="47.72686989645661" lon="12.094992763159517"><ele>506.0</ele><time>2026-04-18T18:05:15Z</time></trkpt><trkpt lat="47.726954646244664" lon="12.095081655073171"><ele>506.0</ele><time>2026-04-18T18:05:16Z</time></trkpt><trkpt lat="47.72703169649367" lon="12.095181201392043"><ele>506.0</ele><time>2026-04-18T18:05:17Z</time></trkpt><trkpt lat="47.727109035183055" lon="12.0952921080063"><ele>503.75</ele><time>2026-04-18T18:05:18Z</time></trkpt><trkpt lat="47.72718698375252" lon="12.09541270899166"><ele>501.5</ele><time>2026-04-18T18:05:19Z</time></trkpt><trkpt lat="47.72725428628831" lon="12.095556227685579"><ele>499.25</ele><time>2026-04-18T18:05:20Z</time></trkpt><trkpt lat="47.72731536576011" lon="12.095705484154852"><ele>497.0</ele><time>2026-04-18T18:05:21Z</time></trkpt><trkpt lat="47.72737370596866" lon="12.09585031284364"><ele>496.8</ele><time>2026-04-18T18:05:22Z</time></trkpt><trkpt lat="47.7274319760075" lon="12.095991909347008"><ele>496.6</ele><time>2026-04-18T18:05:23Z</time></trkpt><trkpt lat="47.72749130787515" lon="12.096126998169005"><ele>496.40000000000003</ele><time>2026-04-18T18:05:24Z</time></trkpt><trkpt lat="47.72755360024803" lon="12.096264355412949"><ele>496.20000000000005</ele><time>2026-04-18T18:05:25Z</time></trkpt><trkpt lat="47.72761365642167" lon="12.096409717002942"><ele>496.0</ele><time>2026-04-18T18:05:26Z</time></trkpt><trkpt lat="47.72767666717869" lon="12.0965498289692"><ele>496.0</ele><time>2026-04-18T18:05:27Z</time></trkpt><trkpt lat="47.727736043534456" lon="12.096677375785571"><ele>496.0</ele><time>2026-04-18T18:05:28Z</time></trkpt><trkpt lat="47.72780813724082" lon="12.096799217516084"><ele>496.0</ele><time>2026-04-18T18:05:29Z</time></trkpt><trkpt lat="47.72789422605639" lon="12.096911590761916"><ele>496.0</ele><time>2026-04-18T18:05:30Z</time></trkpt><trkpt lat="47.72799137775586" lon="12.09700498305412"><ele>496.0</ele><time>2026-04-18T18:05:31Z</time></trkpt><trkpt lat="47.728099993359834" lon="12.09707802031997"><ele>496.0</ele><time>2026-04-18T18:05:32Z</time></trkpt><trkpt lat="47.728206600424535" lon="12.097141049587425"><ele>496.0</ele><time>2026-04-18T18:05:33Z</time></trkpt><trkpt lat="47.72830058196505" lon="12.09719387068002"><ele>496.0</ele><time>2026-04-18T18:05:34Z</time></trkpt><trkpt lat="47.72838974394101" lon="12.097235232893114"><ele>496.0</ele><time>2026-04-18T18:05:35Z</time></trkpt><trkpt lat="47.72848619693375" lon="12.097267065258665"><ele>496.0</ele><time>2026-04-18T18:05:36Z</time></trkpt><trkpt lat="47.728593384919364" lon="12.097289709624556"><ele>496.0</ele><time>2026-04-18T18:05:37Z</time></trkpt><trkpt lat="47.728702988814774" lon="12.097310525804447"><ele>496.0</ele><time>2026-04-18T18:05:38Z</time></trkpt><trkpt lat="47.72881009812794" lon="12.097346485052098"><ele>496.0</ele><time>2026-04-18T18:05:39Z</time></trkpt><trkpt lat="47.72891346312194" lon="12.097369272612399"><ele>496.0</ele><time>2026-04-18T18:05:40Z</time></trkpt><trkpt lat="47.72901593323919" lon="12.097394126981262"><ele>496.0</ele><time>2026-04-18T18:05:41Z</time></trkpt><trkpt lat="47.72911224724655" lon="12.097432908582284"><ele>496.0</ele><time>2026-04-18T18:05:42Z</time></trkpt><trkpt lat="47.72920765423905" lon="12.09746110747077"><ele>496.0</ele><time>2026-04-18T18:05:43Z</time></trkpt><trkpt lat="47.729310390354186" lon="12.097476377541826"><ele>496.0</ele><time>2026-04-18T18:05:44Z</time></trkpt><trkpt lat="47.729404899972984" lon="12.097502776848843"><ele>496.0</ele><time>2026-04-18T18:05:45Z</time></trkpt><trkpt lat="47.72949911358207" lon="12.097527871996082"><ele>496.0</ele><time>2026-04-18T18:05:46Z</time></trkpt><trkpt lat="47.729590074900344" lon="12.097558728708174"><ele>496.0</ele><time>2026-04-18T18:05:47Z</time></trkpt><trkpt lat="47.72968595684541" lon="12.097595174111214"><ele>496.0</ele><time>2026-04-18T18:05:48Z</time></trkpt><trkpt lat="47.729785846869994" lon="12.097637106735485"><ele>496.0</ele><time>2026-04-18T18:05:49Z</time></trkpt><trkpt lat="47.729882161717946" lon="12.097683689308207"><ele>496.0</ele><time>2026-04-18T18:05:49.999Z</time></trkpt><trkpt lat="47.729979449940096" lon="12.097736708908512"><ele>496.0</ele><time>2026-04-18T18:05:50.999Z</time></trkpt><trkpt lat="47.730078262956816" lon="12.097795641024648"><ele>496.0</ele><time>2026-04-18T18:05:51.999Z</time></trkpt><trkpt lat="47.73017437747837" lon="12.097862826851037"><ele>496.0</ele><time>2026-04-18T18:05:52.999Z</time></trkpt><trkpt lat="47.730267427814866" lon="12.097937719892574"><ele>496.0</ele><time>2026-04-18T18:05:53.999Z</time></trkpt><trkpt lat="47.73035800660076" lon="12.098023467011872"><ele>496.0</ele><time>2026-04-18T18:05:54.999Z</time></trkpt><trkpt lat="47.730444750752916" lon="12.098117063212145"><ele>496.0</ele><time>2026-04-18T18:05:55.999Z</time></trkpt><trkpt lat="47.73053400625402" lon="12.098208388243332"><ele>496.0</ele><time>2026-04-18T18:05:56.999Z</time></trkpt><trkpt lat="47.730622017410205" lon="12.09829533964509"><ele>496.0</ele><time>2026-04-18T18:05:57.999Z</time></trkpt><trkpt lat="47.73071472263738" lon="12.09838802193946"><ele>496.0</ele><time>2026-04-18T18:05:58.999Z</time></trkpt><trkpt lat="47.73080973278894" lon="12.098481676615089"><ele>496.0</ele><time>2026-04-18T18:05:59.999Z</time></trkpt><trkpt lat="47.730910064689205" lon="12.098575049985746"><ele>496.0</ele><time>2026-04-18T18:06:00.999Z</time></trkpt><trkpt lat="47.73100570300872" lon="12.098672222862474"><ele>496.0</ele><time>2026-04-18T18:06:01.999Z</time></trkpt><trkpt lat="47.731097865920646" lon="12.098770878117007"><ele>496.0</ele><time>2026-04-18T18:06:02.999Z</time></trkpt><trkpt lat="47.731186574537695" lon="12.098869541463564"><ele>496.0</ele><time>2026-04-18T18:06:03.999Z</time></trkpt><trkpt lat="47.73127019754316" lon="12.09897752419998"><ele>495.0</ele><time>2026-04-18T18:06:04.999Z</time></trkpt><trkpt lat="47.73135851533872" lon="12.099095936544877"><ele>494.0</ele><time>2026-04-18T18:06:05.999Z</time></trkpt><trkpt lat="47.73144059425719" lon="12.09920902600632"><ele>493.0</ele><time>2026-04-18T18:06:06.999Z</time></trkpt><trkpt lat="47.731520234763565" lon="12.099326167930826"><ele>492.0</ele><time>2026-04-18T18:06:07.999Z</time></trkpt><trkpt lat="47.73160218510117" lon="12.09945451876895"><ele>492.0</ele><time>2026-04-18T18:06:08.999Z</time></trkpt><trkpt lat="47.73167491297973" lon="12.099579268786922"><ele>492.00000000000006</ele><time>2026-04-18T18:06:09.999Z</time></trkpt><trkpt lat="47.731743557402446" lon="12.099702420870731"><ele>492.00000000000006</ele><time>2026-04-18T18:06:10.999Z</time></trkpt><trkpt lat="47.73181244710849" lon="12.099829522414797"><ele>492.0</ele><time>2026-04-18T18:06:11.999Z</time></trkpt><trkpt lat="47.731879877697814" lon="12.09996306470263"><ele>492.0</ele><time>2026-04-18T18:06:12.999Z</time></trkpt><trkpt lat="47.73194939611762" lon="12.100095995737043"><ele>491.8</ele><time>2026-04-18T18:06:13.999Z</time></trkpt><trkpt lat="47.7320155655628" lon="12.100231395321888"><ele>491.6</ele><time>2026-04-18T18:06:14.999Z</time></trkpt><trkpt lat="47.73207513213587" lon="12.100365875922424"><ele>491.40000000000003</ele><time>2026-04-18T18:06:15.999Z</time></trkpt><trkpt lat="47.732131286573825" lon="12.10049330887998"><ele>491.20000000000005</ele><time>2026-04-18T18:06:16.999Z</time></trkpt><trkpt lat="47.732187144359465" lon="12.100621744661389"><ele>491.0</ele><time>2026-04-18T18:06:17.999Z</time></trkpt><trkpt lat="47.7322517754229" lon="12.10076181408758"><ele>491.0</ele><time>2026-04-18T18:06:18.999Z</time></trkpt><trkpt lat="47.73231888559095" lon="12.100912690307984"><ele>491.0</ele><time>2026-04-18T18:06:19.999Z</time></trkpt><trkpt lat="47.732386149572875" lon="12.101058275163943"><ele>491.0</ele><time>2026-04-18T18:06:20.999Z</time></trkpt><trkpt lat="47.732447413877175" lon="12.101197675166105"><ele>491.0</ele><time>2026-04-18T18:06:21.999Z</time></trkpt><trkpt lat="47.73250532101765" lon="12.101337176278093"><ele>491.0</ele><time>2026-04-18T18:06:22.999Z</time></trkpt><trkpt lat="47.732559861546484" lon="12.101469198221055"><ele>491.0</ele><time>2026-04-18T18:06:23.999Z</time></trkpt><trkpt lat="47.73261129855072" lon="12.101606625391693"><ele>491.0</ele><time>2026-04-18T18:06:24.999Z</time></trkpt><trkpt lat="47.73265739161463" lon="12.101757011459817"><ele>491.0</ele><time>2026-04-18T18:06:25.999Z</time></trkpt><trkpt lat="47.732691985365726" lon="12.101932511350313"><ele>491.0</ele><time>2026-04-18T18:06:26.999Z</time></trkpt><trkpt lat="47.73272160412493" lon="12.102133575112038"><ele>490.75</ele><time>2026-04-18T18:06:27.999Z</time></trkpt><trkpt lat="47.73274995196495" lon="12.102316464047714"><ele>490.5</ele><time>2026-04-18T18:06:28.999Z</time></trkpt><trkpt lat="47.73277565946601" lon="12.102484859737674"><ele>490.25</ele><time>2026-04-18T18:06:29.999Z</time></trkpt><trkpt lat="47.73279540730425" lon="12.102642313442331"><ele>490.0</ele><time>2026-04-18T18:06:31Z</time></trkpt><trkpt lat="47.73282500446599" lon="12.102790252388209"><ele>489.4</ele><time>2026-04-18T18:06:32Z</time></trkpt><trkpt lat="47.73285259888132" lon="12.102948578197909"><ele>488.8</ele><time>2026-04-18T18:06:33Z</time></trkpt><trkpt lat="47.732853955927695" lon="12.103105253224582"><ele>488.20000000000005</ele><time>2026-04-18T18:06:34Z</time></trkpt><trkpt lat="47.73288078331954" lon="12.103254074906538"><ele>487.6</ele><time>2026-04-18T18:06:35Z</time></trkpt><trkpt lat="47.732885975243" lon="12.103404336091751"><ele>487.0</ele><time>2026-04-18T18:06:36Z</time></trkpt><trkpt lat="47.73289530689834" lon="12.103553396067698"><ele>486.8</ele><time>2026-04-18T18:06:37Z</time></trkpt><trkpt lat="47.732916794409995" lon="12.103702489862213"><ele>486.6</ele><time>2026-04-18T18:06:38Z</time></trkpt><trkpt lat="47.73294827137407" lon="12.103848988435473"><ele>486.40000000000003</ele><time>2026-04-18T18:06:39Z</time></trkpt><trkpt lat="47.732984610411016" lon="12.103990067287503"><ele>486.20000000000005</ele><time>2026-04-18T18:06:40Z</time></trkpt><trkpt lat="47.73302800154971" lon="12.104126898845408"><ele>486.0</ele><time>2026-04-18T18:06:41Z</time></trkpt><trkpt lat="47.73307777848746" lon="12.104255906863377"><ele>485.5</ele><time>2026-04-18T18:06:42Z</time></trkpt><trkpt lat="47.73313191564008" lon="12.104379112770074"><ele>485.0</ele><time>2026-04-18T18:06:43Z</time></trkpt><trkpt lat="47.733185376439145" lon="12.104493225891414"><ele>484.5</ele><time>2026-04-18T18:06:44Z</time></trkpt><trkpt lat="47.733236098619024" lon="12.10459790037145"><ele>484.0</ele><time>2026-04-18T18:06:45Z</time></trkpt><trkpt lat="47.73328669806673" lon="12.104694297046404"><ele>483.5</ele><time>2026-04-18T18:06:46Z</time></trkpt><trkpt lat="47.73333254867674" lon="12.104780646806399"><ele>483.0</ele><time>2026-04-18T18:06:47Z</time></trkpt><trkpt lat="47.733376061155006" lon="12.104863635417331"><ele>482.8333333333333</ele><time>2026-04-18T18:06:48Z</time></trkpt><trkpt lat="47.733416662999524" lon="12.104941688586809"><ele>482.66666666666663</ele><time>2026-04-18T18:06:49Z</time></trkpt><trkpt lat="47.73345781480403" lon="12.10501922423208"><ele>482.5</ele><time>2026-04-18T18:06:50Z</time></trkpt><trkpt lat="47.73349962550559" lon="12.10510781073736"><ele>482.3333333333333</ele><time>2026-04-18T18:06:51Z</time></trkpt><trkpt lat="47.733550010665695" lon="12.10520727800071"><ele>482.16666666666663</ele><time>2026-04-18T18:06:52Z</time></trkpt><trkpt lat="47.733608556818645" lon="12.10531468450391"><ele>482.0</ele><time>2026-04-18T18:06:53Z</time></trkpt><trkpt lat="47.73365995657338" lon="12.105418475052968"><ele>482.3333333333333</ele><time>2026-04-18T18:06:54Z</time></trkpt><trkpt lat="47.73371360982675" lon="12.105530643520162"><ele>482.66666666666663</ele><time>2026-04-18T18:06:55Z</time></trkpt><trkpt lat="47.73376839816793" lon="12.105647882799488"><ele>483.0</ele><time>2026-04-18T18:06:56Z</time></trkpt><trkpt lat="47.73381659802932" lon="12.105753220695078"><ele>483.33333333333337</ele><time>2026-04-18T18:06:57Z</time></trkpt><trkpt lat="47.73385799203239" lon="12.105849901916816"><ele>483.6666666666667</ele><time>2026-04-18T18:06:58Z</time></trkpt><trkpt lat="47.73390183330713" lon="12.105942484500517"><ele>484.0</ele><time>2026-04-18T18:06:59Z</time></trkpt><trkpt lat="47.73394285947303" lon="12.106035878827914"><ele>484.00000000000006</ele><time>2026-04-18T18:07:00Z</time></trkpt><trkpt lat="47.73398989045793" lon="12.106138364204728"><ele>484.0</ele><time>2026-04-18T18:07:01Z</time></trkpt><trkpt lat="47.734038699787554" lon="12.106247693172607"><ele>484.0</ele><time>2026-04-18T18:07:02Z</time></trkpt><trkpt lat="47.73408874913381" lon="12.10636238769266"><ele>484.0</ele><time>2026-04-18T18:07:03Z</time></trkpt><trkpt lat="47.73413467708367" lon="12.106470269921182"><ele>484.00000000000006</ele><time>2026-04-18T18:07:04Z</time></trkpt><trkpt lat="47.73418365391187" lon="12.10657845171915"><ele>484.0</ele><time>2026-04-18T18:07:05Z</time></trkpt><trkpt lat="47.73423322938132" lon="12.106687027784746"><ele>483.6666666666667</ele><time>2026-04-18T18:07:06Z</time></trkpt><trkpt lat="47.734280264640375" lon="12.106781387692264"><ele>483.33333333333337</ele><time>2026-04-18T18:07:07Z</time></trkpt><trkpt lat="47.734325614707444" lon="12.106872236788016"><ele>483.0</ele><time>2026-04-18T18:07:08Z</time></trkpt><trkpt lat="47.73437064527699" lon="12.106960371929416"><ele>482.66666666666663</ele><time>2026-04-18T18:07:09Z</time></trkpt><trkpt lat="47.73441170911493" lon="12.107040502595108"><ele>482.3333333333333</ele><time>2026-04-18T18:07:10Z</time></trkpt><trkpt lat="47.73444900470587" lon="12.107121592415073"><ele>482.0</ele><time>2026-04-18T18:07:11Z</time></trkpt><trkpt lat="47.73451124803059" lon="12.107257500594141"><ele>481.99999999999994</ele><time>2026-04-18T18:07:13Z</time></trkpt><trkpt lat="47.73455454041104" lon="12.107340444878645"><ele>482.0</ele><time>2026-04-18T18:07:15Z</time></trkpt><trkpt lat="47.73460155402294" lon="12.107421885243133"><ele>482.0</ele><time>2026-04-18T18:07:21Z</time></trkpt><trkpt lat="47.73465734501728" lon="12.107540675433626"><ele>482.0</ele><time>2026-04-18T18:07:40Z</time></trkpt><trkpt lat="47.73469224899865" lon="12.107620605900024"><ele>481.99999999999994</ele><time>2026-04-18T18:07:41Z</time></trkpt><trkpt lat="47.73473605062264" lon="12.107729349283717"><ele>482.0</ele><time>2026-04-18T18:07:42Z</time></trkpt><trkpt lat="47.73478197106762" lon="12.107826660453581"><ele>481.6</ele><time>2026-04-18T18:07:43Z</time></trkpt><trkpt lat="47.73481729674299" lon="12.10793454276826"><ele>481.20000000000005</ele><time>2026-04-18T18:07:44Z</time></trkpt><trkpt lat="47.734862866396284" lon="12.108050413428629"><ele>480.8</ele><time>2026-04-18T18:07:45Z</time></trkpt><trkpt lat="47.7349050549948" lon="12.108179079528115"><ele>480.4</ele><time>2026-04-18T18:07:46Z</time></trkpt><trkpt lat="47.734941702943495" lon="12.108308606712797"><ele>480.0</ele><time>2026-04-18T18:07:47Z</time></trkpt><trkpt lat="47.73498166084565" lon="12.108425731523011"><ele>479.8</ele><time>2026-04-18T18:07:48Z</time></trkpt><trkpt lat="47.735028738697004" lon="12.108552414011754"><ele>479.6</ele><time>2026-04-18T18:07:49Z</time></trkpt><trkpt lat="47.735067393264735" lon="12.108699127185677"><ele>479.4</ele><time>2026-04-18T18:07:50Z</time></trkpt><trkpt lat="47.73510636343681" lon="12.10884767302452"><ele>479.2</ele><time>2026-04-18T18:07:51Z</time></trkpt><trkpt lat="47.7351369249323" lon="12.108995733280883"><ele>479.0</ele><time>2026-04-18T18:07:52Z</time></trkpt><trkpt lat="47.735170147805846" lon="12.109127254927461"><ele>479.0</ele><time>2026-04-18T18:07:53Z</time></trkpt><trkpt lat="47.73520233429381" lon="12.109246233809671"><ele>479.0</ele><time>2026-04-18T18:07:54Z</time></trkpt><trkpt lat="47.73524342584392" lon="12.10940437743373"><ele>479.0</ele><time>2026-04-18T18:07:55Z</time></trkpt><trkpt lat="47.73526909048257" lon="12.109573966730604"><ele>479.0</ele><time>2026-04-18T18:07:55.999Z</time></trkpt><trkpt lat="47.73528362653303" lon="12.109753533177601"><ele>479.0</ele><time>2026-04-18T18:07:56.999Z</time></trkpt><trkpt lat="47.73530054645186" lon="12.109921231016502"><ele>479.2</ele><time>2026-04-18T18:07:57.999Z</time></trkpt><trkpt lat="47.73532532840974" lon="12.110097014823955"><ele>479.4</ele><time>2026-04-18T18:07:58.999Z</time></trkpt><trkpt lat="47.73535295990184" lon="12.110256782632987"><ele>479.6</ele><time>2026-04-18T18:07:59.999Z</time></trkpt><trkpt lat="47.73536011908785" lon="12.110404678500322"><ele>479.8</ele><time>2026-04-18T18:08:00.999Z</time></trkpt><trkpt lat="47.735350129322384" lon="12.1105631337217"><ele>480.0</ele><time>2026-04-18T18:08:01.999Z</time></trkpt><trkpt lat="47.73534223760807" lon="12.110698048819646"><ele>479.8</ele><time>2026-04-18T18:08:02.999Z</time></trkpt><trkpt lat="47.73534013555692" lon="12.110826732561845"><ele>479.6</ele><time>2026-04-18T18:08:03.999Z</time></trkpt><trkpt lat="47.73533342328728" lon="12.110973666098264"><ele>479.4</ele><time>2026-04-18T18:08:04.999Z</time></trkpt><trkpt lat="47.7353317040802" lon="12.111122092842947"><ele>479.2</ele><time>2026-04-18T18:08:05.999Z</time></trkpt><trkpt lat="47.735329128676916" lon="12.111286843839181"><ele>479.0</ele><time>2026-04-18T18:08:06.999Z</time></trkpt><trkpt lat="47.735336703317564" lon="12.111466145284364"><ele>478.25</ele><time>2026-04-18T18:08:07.999Z</time></trkpt><trkpt lat="47.735327445261184" lon="12.111654968815754"><ele>477.5</ele><time>2026-04-18T18:08:08.999Z</time></trkpt><trkpt lat="47.73530401574213" lon="12.111828240993141"><ele>476.75</ele><time>2026-04-18T18:08:09.999Z</time></trkpt><trkpt lat="47.73528418796627" lon="12.112007674079429"><ele>476.0</ele><time>2026-04-18T18:08:10.999Z</time></trkpt><trkpt lat="47.73526405434409" lon="12.112179541708642"><ele>476.0</ele><time>2026-04-18T18:08:11.999Z</time></trkpt><trkpt lat="47.73525832467301" lon="12.112357973746736"><ele>476.0</ele><time>2026-04-18T18:08:12.999Z</time></trkpt><trkpt lat="47.73524953341221" lon="12.112546887873162"><ele>476.0</ele><time>2026-04-18T18:08:13.999Z</time></trkpt><trkpt lat="47.735234930414386" lon="12.112748632978048"><ele>476.0</ele><time>2026-04-18T18:08:14.999Z</time></trkpt><trkpt lat="47.73521217901812" lon="12.1129758339295"><ele>476.0</ele><time>2026-04-18T18:08:15.999Z</time></trkpt><trkpt lat="47.735189440723516" lon="12.113190325115967"><ele>476.0</ele><time>2026-04-18T18:08:16.999Z</time></trkpt><trkpt lat="47.73518205139261" lon="12.113387388032129"><ele>476.0</ele><time>2026-04-18T18:08:17.999Z</time></trkpt><trkpt lat="47.73517451996918" lon="12.113555089446315"><ele>476.0</ele><time>2026-04-18T18:08:18.999Z</time></trkpt><trkpt lat="47.73516470696241" lon="12.11374182717031"><ele>476.0</ele><time>2026-04-18T18:08:20Z</time></trkpt><trkpt lat="47.73514761687192" lon="12.11394100363704"><ele>476.0</ele><time>2026-04-18T18:08:21Z</time></trkpt><trkpt lat="47.73514339642849" lon="12.11415098066689"><ele>476.0</ele><time>2026-04-18T18:08:22Z</time></trkpt><trkpt lat="47.735139287706374" lon="12.114360553876221"><ele>476.0</ele><time>2026-04-18T18:08:23Z</time></trkpt><trkpt lat="47.73513968254206" lon="12.11454560579667"><ele>476.0</ele><time>2026-04-18T18:08:24Z</time></trkpt><trkpt lat="47.73514271264983" lon="12.11474261483376"><ele>476.0</ele><time>2026-04-18T18:08:25Z</time></trkpt><trkpt lat="47.73514194189447" lon="12.114956108846956"><ele>476.0</ele><time>2026-04-18T18:08:26Z</time></trkpt><trkpt lat="47.73514669902417" lon="12.115177537309888"><ele>476.0</ele><time>2026-04-18T18:08:27Z</time></trkpt><trkpt lat="47.73515480027117" lon="12.115390145564294"><ele>475.5</ele><time>2026-04-18T18:08:28Z</time></trkpt><trkpt lat="47.735164727577626" lon="12.115608445004327"><ele>475.0</ele><time>2026-04-18T18:08:29Z</time></trkpt><trkpt lat="47.73517626629646" lon="12.11581205041734"><ele>474.5</ele><time>2026-04-18T18:08:30Z</time></trkpt><trkpt lat="47.735192599943765" lon="12.11601548865587"><ele>474.0</ele><time>2026-04-18T18:08:31Z</time></trkpt><trkpt lat="47.73521170301238" lon="12.116217815382344"><ele>472.0</ele><time>2026-04-18T18:08:32Z</time></trkpt><trkpt lat="47.73523121558016" lon="12.116433631369425"><ele>470.0</ele><time>2026-04-18T18:08:33Z</time></trkpt><trkpt lat="47.73525851640587" lon="12.116652495278315"><ele>468.0</ele><time>2026-04-18T18:08:34Z</time></trkpt><trkpt lat="47.735290128329574" lon="12.116878425995736"><ele>468.0</ele><time>2026-04-18T18:08:35Z</time></trkpt><trkpt lat="47.73532327093049" lon="12.11710748957826"><ele>468.0</ele><time>2026-04-18T18:08:36Z</time></trkpt><trkpt lat="47.73535997175538" lon="12.117362053731876"><ele>468.0</ele><time>2026-04-18T18:08:37Z</time></trkpt><trkpt lat="47.735404797486375" lon="12.117633850389517"><ele>468.0</ele><time>2026-04-18T18:08:38Z</time></trkpt><trkpt lat="47.735457266760925" lon="12.117917050187371"><ele>468.0</ele><time>2026-04-18T18:08:39Z</time></trkpt><trkpt lat="47.7355182515116" lon="12.118205953050566"><ele>468.0</ele><time>2026-04-18T18:08:40Z</time></trkpt><trkpt lat="47.73557898633153" lon="12.118473473084665"><ele>468.0</ele><time>2026-04-18T18:08:41.001Z</time></trkpt><trkpt lat="47.73563634538509" lon="12.11872211441524"><ele>468.0</ele><time>2026-04-18T18:08:42.001Z</time></trkpt><trkpt lat="47.73569068224674" lon="12.118956733658145"><ele>468.0</ele><time>2026-04-18T18:08:43.001Z</time></trkpt><trkpt lat="47.73575033986039" lon="12.11917926933428"><ele>467.33333333333337</ele><time>2026-04-18T18:08:44.001Z</time></trkpt><trkpt lat="47.73581465442524" lon="12.119400580671098"><ele>466.6666666666667</ele><time>2026-04-18T18:08:45.001Z</time></trkpt><trkpt lat="47.735885925389184" lon="12.119620029411927"><ele>466.0</ele><time>2026-04-18T18:08:46.001Z</time></trkpt><trkpt lat="47.73595704548248" lon="12.119828465682605"><ele>465.75</ele><time>2026-04-18T18:08:47.001Z</time></trkpt><trkpt lat="47.73602638660652" lon="12.120028676453376"><ele>465.5</ele><time>2026-04-18T18:08:48.001Z</time></trkpt><trkpt lat="47.73609415893965" lon="12.120223526693119"><ele>465.25</ele><time>2026-04-18T18:08:49.001Z</time></trkpt><trkpt lat="47.73616229780275" lon="12.12040737912124"><ele>465.0</ele><time>2026-04-18T18:08:50.001Z</time></trkpt><trkpt lat="47.73623006661295" lon="12.120576921415147"><ele>464.25</ele><time>2026-04-18T18:08:51.001Z</time></trkpt><trkpt lat="47.7362972423354" lon="12.120740636426804"><ele>463.5</ele><time>2026-04-18T18:08:52.001Z</time></trkpt><trkpt lat="47.73637080495805" lon="12.120913896829283"><ele>462.75</ele><time>2026-04-18T18:08:53.001Z</time></trkpt><trkpt lat="47.736448806995895" lon="12.12110217620792"><ele>462.0</ele><time>2026-04-18T18:08:54.001Z</time></trkpt><trkpt lat="47.73653408496188" lon="12.121296581814038"><ele>462.0</ele><time>2026-04-18T18:08:55.001Z</time></trkpt><trkpt lat="47.73662125163857" lon="12.121485065034115"><ele>462.0</ele><time>2026-04-18T18:08:56.001Z</time></trkpt><trkpt lat="47.7367107555965" lon="12.121688575470895"><ele>462.0</ele><time>2026-04-18T18:08:57.001Z</time></trkpt><trkpt lat="47.73679574369555" lon="12.12189350473954"><ele>461.25</ele><time>2026-04-18T18:08:58.001Z</time></trkpt><trkpt lat="47.73687758676183" lon="12.122092647573831"><ele>460.5</ele><time>2026-04-18T18:08:59.001Z</time></trkpt><trkpt lat="47.736952427459826" lon="12.12227562852572"><ele>459.75</ele><time>2026-04-18T18:09:00.001Z</time></trkpt><trkpt lat="47.737021338065304" lon="12.12245479230612"><ele>459.0</ele><time>2026-04-18T18:09:01.001Z</time></trkpt><trkpt lat="47.73709195917107" lon="12.122631594425245"><ele>459.0</ele><time>2026-04-18T18:09:02.001Z</time></trkpt><trkpt lat="47.7371517991252" lon="12.122802219178821"><ele>459.0</ele><time>2026-04-18T18:09:03.001Z</time></trkpt><trkpt lat="47.73720397627508" lon="12.1229595799698"><ele>459.0</ele><time>2026-04-18T18:09:04.001Z</time></trkpt><trkpt lat="47.73725388974441" lon="12.123110967409382"><ele>459.0</ele><time>2026-04-18T18:09:05.001Z</time></trkpt><trkpt lat="47.73730467371726" lon="12.123283632593745"><ele>459.25</ele><time>2026-04-18T18:09:06.001Z</time></trkpt><trkpt lat="47.737354880961945" lon="12.123466191745988"><ele>459.5</ele><time>2026-04-18T18:09:07.001Z</time></trkpt><trkpt lat="47.737397434611985" lon="12.12363059121271"><ele>459.75</ele><time>2026-04-18T18:09:08.001Z</time></trkpt><trkpt lat="47.73743514937091" lon="12.123787704142634"><ele>460.0</ele><time>2026-04-18T18:09:09.001Z</time></trkpt><trkpt lat="47.737471505034875" lon="12.123944006429518"><ele>460.0</ele><time>2026-04-18T18:09:10.001Z</time></trkpt><trkpt lat="47.737501158629755" lon="12.124099178218716"><ele>460.0</ele><time>2026-04-18T18:09:11.001Z</time></trkpt><trkpt lat="47.73752864103758" lon="12.124270838069346"><ele>460.0</ele><time>2026-04-18T18:09:12.001Z</time></trkpt><trkpt lat="47.7375533314492" lon="12.124448751864808"><ele>460.0</ele><time>2026-04-18T18:09:13.001Z</time></trkpt><trkpt lat="47.737574506892734" lon="12.124628551488787"><ele>460.0</ele><time>2026-04-18T18:09:14.001Z</time></trkpt><trkpt lat="47.73758806705919" lon="12.124791176969891"><ele>460.0</ele><time>2026-04-18T18:09:15.001Z</time></trkpt><trkpt lat="47.737590659399395" lon="12.124955044095929"><ele>460.0</ele><time>2026-04-18T18:09:16.001Z</time></trkpt><trkpt lat="47.737585661522324" lon="12.125115715590448"><ele>460.0</ele><time>2026-04-18T18:09:17.001Z</time></trkpt><trkpt lat="47.737573906781705" lon="12.125282933014983"><ele>460.0</ele><time>2026-04-18T18:09:18.001Z</time></trkpt><trkpt lat="47.737559302463126" lon="12.12545139166515"><ele>460.25</ele><time>2026-04-18T18:09:19.001Z</time></trkpt><trkpt lat="47.73755328859554" lon="12.125620189334438"><ele>460.5</ele><time>2026-04-18T18:09:20.001Z</time></trkpt><trkpt lat="47.737542065204245" lon="12.125791017140378"><ele>460.75</ele><time>2026-04-18T18:09:21.001Z</time></trkpt><trkpt lat="47.737534564020855" lon="12.125964248317857"><ele>461.0</ele><time>2026-04-18T18:09:22.001Z</time></trkpt><trkpt lat="47.73753096445086" lon="12.12614329921039"><ele>461.25</ele><time>2026-04-18T18:09:23.001Z</time></trkpt><trkpt lat="47.73753427344469" lon="12.12632800992855"><ele>461.5</ele><time>2026-04-18T18:09:24.001Z</time></trkpt><trkpt lat="47.7375446353128" lon="12.126538911218791"><ele>461.75</ele><time>2026-04-18T18:09:25.001Z</time></trkpt><trkpt lat="47.73756759402541" lon="12.126765553117815"><ele>462.0</ele><time>2026-04-18T18:09:26.001Z</time></trkpt><trkpt lat="47.73761585097756" lon="12.127016694951445"><ele>462.0</ele><time>2026-04-18T18:09:27.001Z</time></trkpt><trkpt lat="47.73767778822762" lon="12.12726974942664"><ele>462.0</ele><time>2026-04-18T18:09:28.001Z</time></trkpt><trkpt lat="47.737747109132314" lon="12.127526592691611"><ele>462.0</ele><time>2026-04-18T18:09:29.001Z</time></trkpt><trkpt lat="47.73781174162831" lon="12.127758842309948"><ele>462.0</ele><time>2026-04-18T18:09:30.001Z</time></trkpt><trkpt lat="47.73787122708795" lon="12.127971057210818"><ele>462.0</ele><time>2026-04-18T18:09:31.001Z</time></trkpt><trkpt lat="47.73792789605289" lon="12.128171229971349"><ele>462.0</ele><time>2026-04-18T18:09:32.001Z</time></trkpt><trkpt lat="47.73797931300901" lon="12.1283585536813"><ele>462.0</ele><time>2026-04-18T18:09:33.001Z</time></trkpt><trkpt lat="47.73802308711207" lon="12.128525805663225"><ele>462.0</ele><time>2026-04-18T18:09:34.001Z</time></trkpt><trkpt lat="47.73806210519473" lon="12.12866723833429"><ele>462.00000000000006</ele><time>2026-04-18T18:09:35.001Z</time></trkpt><trkpt lat="47.73809697975162" lon="12.128800674842385"><ele>462.00000000000006</ele><time>2026-04-18T18:09:36.001Z</time></trkpt><trkpt lat="47.73812761989863" lon="12.12892623079159"><ele>462.0</ele><time>2026-04-18T18:09:37.001Z</time></trkpt><trkpt lat="47.73815729136119" lon="12.129052610565397"><ele>462.0</ele><time>2026-04-18T18:09:38.001Z</time></trkpt><trkpt lat="47.73818701703488" lon="12.129184073696624"><ele>462.0</ele><time>2026-04-18T18:09:39.001Z</time></trkpt><trkpt lat="47.738214169526024" lon="12.12930728323858"><ele>462.0</ele><time>2026-04-18T18:09:40.001Z</time></trkpt><trkpt lat="47.73823444130525" lon="12.129422039883428"><ele>462.0</ele><time>2026-04-18T18:09:41.001Z</time></trkpt><trkpt lat="47.738254218773456" lon="12.129525939789394"><ele>462.0</ele><time>2026-04-18T18:09:42.001Z</time></trkpt><trkpt lat="47.73827455828663" lon="12.129619332011599"><ele>462.0</ele><time>2026-04-18T18:09:43.001Z</time></trkpt><trkpt lat="47.73831079219274" lon="12.129792965371129"><ele>462.0</ele><time>2026-04-18T18:09:45.001Z</time></trkpt><trkpt lat="47.73832912923021" lon="12.129961604872953"><ele>461.6</ele><time>2026-04-18T18:09:47.001Z</time></trkpt><trkpt lat="47.738243245102915" lon="12.130117148931694"><ele>461.20000000000005</ele><time>2026-04-18T18:09:49.001Z</time></trkpt><trkpt lat="47.738167021783724" lon="12.130148926993856"><ele>460.8</ele><time>2026-04-18T18:09:50.001Z</time></trkpt><trkpt lat="47.73808594812091" lon="12.130142594416757"><ele>460.4</ele><time>2026-04-18T18:09:51.001Z</time></trkpt><trkpt lat="47.73800904915744" lon="12.130108360267776"><ele>460.0</ele><time>2026-04-18T18:09:52.001Z</time></trkpt><trkpt lat="47.737935234454056" lon="12.13006188430144"><ele>460.00000000000006</ele><time>2026-04-18T18:09:53.001Z</time></trkpt><trkpt lat="47.73785791522243" lon="12.130001384669553"><ele>460.0</ele><time>2026-04-18T18:09:54.001Z</time></trkpt><trkpt lat="47.73778370668514" lon="12.129922563457415"><ele>460.0</ele><time>2026-04-18T18:09:55.001Z</time></trkpt><trkpt lat="47.73771892253596" lon="12.129828485447126"><ele>460.0</ele><time>2026-04-18T18:09:56.001Z</time></trkpt><trkpt lat="47.737669299451255" lon="12.129731655073794"><ele>460.00000000000006</ele><time>2026-04-18T18:09:57.001Z</time></trkpt><trkpt lat="47.73762881048684" lon="12.12962658856809"><ele>460.0</ele><time>2026-04-18T18:09:58.001Z</time></trkpt><trkpt lat="47.73759271242568" lon="12.12951645703581"><ele>459.83333333333337</ele><time>2026-04-18T18:09:59.001Z</time></trkpt><trkpt lat="47.73755429750992" lon="12.129404559376596"><ele>459.6666666666667</ele><time>2026-04-18T18:10:00.001Z</time></trkpt><trkpt lat="47.73752112894673" lon="12.129295841114988"><ele>459.5</ele><time>2026-04-18T18:10:01.001Z</time></trkpt><trkpt lat="47.73749414359762" lon="12.129172042062967"><ele>459.33333333333337</ele><time>2026-04-18T18:10:02.001Z</time></trkpt><trkpt lat="47.737484935222966" lon="12.129033260489699"><ele>459.1666666666667</ele><time>2026-04-18T18:10:03.001Z</time></trkpt><trkpt lat="47.737499510338715" lon="12.128881558040847"><ele>459.0</ele><time>2026-04-18T18:10:04.001Z</time></trkpt><trkpt lat="47.73753504249042" lon="12.128718745755986"><ele>459.75</ele><time>2026-04-18T18:10:05.001Z</time></trkpt><trkpt lat="47.73759836303924" lon="12.128553863651828"><ele>460.5</ele><time>2026-04-18T18:10:06.001Z</time></trkpt><trkpt lat="47.7376895176939" lon="12.12840710746584"><ele>461.25</ele><time>2026-04-18T18:10:07.001Z</time></trkpt><trkpt lat="47.7378141445132" lon="12.128278421049421"><ele>462.0</ele><time>2026-04-18T18:10:08.001Z</time></trkpt><trkpt lat="47.73797366594814" lon="12.128151334975582"><ele>462.0</ele><time>2026-04-18T18:10:09.001Z</time></trkpt><trkpt lat="47.73815190810088" lon="12.128026616938692"><ele>462.0</ele><time>2026-04-18T18:10:10.001Z</time></trkpt><trkpt lat="47.73834907898474" lon="12.127883494544772"><ele>462.0</ele><time>2026-04-18T18:10:11.001Z</time></trkpt><trkpt lat="47.7385542874701" lon="12.127725818590305"><ele>460.5</ele><time>2026-04-18T18:10:12.001Z</time></trkpt><trkpt lat="47.73878191733482" lon="12.12754404599725"><ele>459.0</ele><time>2026-04-18T18:10:13.001Z</time></trkpt><trkpt lat="47.73902331521207" lon="12.127350042936026"><ele>459.0</ele><time>2026-04-18T18:10:14.001Z</time></trkpt><trkpt lat="47.73927498684463" lon="12.127148032496557"><ele>459.0</ele><time>2026-04-18T18:10:15.001Z</time></trkpt><trkpt lat="47.739507287157146" lon="12.126963859933106"><ele>457.0</ele><time>2026-04-18T18:10:16.001Z</time></trkpt><trkpt lat="47.73972790359211" lon="12.126786133517014"><ele>455.0</ele><time>2026-04-18T18:10:17.001Z</time></trkpt><trkpt lat="47.73994906581468" lon="12.126605615479525"><ele>455.5</ele><time>2026-04-18T18:10:18.001Z</time></trkpt><trkpt lat="47.74017261697689" lon="12.126420647499558"><ele>456.0</ele><time>2026-04-18T18:10:19.001Z</time></trkpt><trkpt lat="47.74039508955289" lon="12.126240969915305"><ele>456.0</ele><time>2026-04-18T18:10:20.001Z</time></trkpt><trkpt lat="47.7406141374969" lon="12.126060675662364"><ele>456.0</ele><time>2026-04-18T18:10:21.001Z</time></trkpt><trkpt lat="47.74082586486579" lon="12.125884984242292"><ele>456.5</ele><time>2026-04-18T18:10:22.001Z</time></trkpt><trkpt lat="47.74103425116407" lon="12.125714427420638"><ele>457.0</ele><time>2026-04-18T18:10:23.001Z</time></trkpt><trkpt lat="47.74124895039255" lon="12.125540178188134"><ele>457.0</ele><time>2026-04-18T18:10:24.001Z</time></trkpt><trkpt lat="47.74147297635081" lon="12.125359517782027"><ele>457.0</ele><time>2026-04-18T18:10:25.001Z</time></trkpt><trkpt lat="47.741703647198605" lon="12.125175000789286"><ele>457.5</ele><time>2026-04-18T18:10:26.001Z</time></trkpt><trkpt lat="47.74194258318677" lon="12.124982730988537"><ele>458.0</ele><time>2026-04-18T18:10:27.001Z</time></trkpt><trkpt lat="47.74218438223351" lon="12.124788254953353"><ele>458.0</ele><time>2026-04-18T18:10:28.001Z</time></trkpt><trkpt lat="47.74242181932283" lon="12.124598422509708"><ele>458.0</ele><time>2026-04-18T18:10:29.001Z</time></trkpt><trkpt lat="47.74264442121967" lon="12.12442107520005"><ele>458.5</ele><time>2026-04-18T18:10:30.001Z</time></trkpt><trkpt lat="47.74286637690858" lon="12.124237234232181"><ele>459.0</ele><time>2026-04-18T18:10:31.001Z</time></trkpt><trkpt lat="47.743086655836784" lon="12.124055734015242"><ele>457.5</ele><time>2026-04-18T18:10:32.001Z</time></trkpt><trkpt lat="47.743303419431484" lon="12.12387675506866"><ele>456.0</ele><time>2026-04-18T18:10:33.001Z</time></trkpt><trkpt lat="47.743514177359934" lon="12.123701355887539"><ele>456.5</ele><time>2026-04-18T18:10:34.001Z</time></trkpt><trkpt lat="47.743727289595036" lon="12.123521615433102"><ele>457.0</ele><time>2026-04-18T18:10:35.001Z</time></trkpt><trkpt lat="47.743942821446026" lon="12.123333620206486"><ele>457.5</ele><time>2026-04-18T18:10:36.001Z</time></trkpt><trkpt lat="47.74415087769951" lon="12.123153266627444"><ele>458.0</ele><time>2026-04-18T18:10:37.001Z</time></trkpt><trkpt lat="47.74434899905513" lon="12.122986192841905"><ele>457.0</ele><time>2026-04-18T18:10:38.001Z</time></trkpt><trkpt lat="47.74455202177579" lon="12.122818298281734"><ele>456.0</ele><time>2026-04-18T18:10:39.001Z</time></trkpt><trkpt lat="47.74475251591437" lon="12.122644326242757"><ele>456.0</ele><time>2026-04-18T18:10:40.001Z</time></trkpt><trkpt lat="47.744952140695105" lon="12.122468420201278"><ele>456.0</ele><time>2026-04-18T18:10:41.001Z</time></trkpt><trkpt lat="47.74515466026098" lon="12.122286844086323"><ele>457.0</ele><time>2026-04-18T18:10:42.001Z</time></trkpt><trkpt lat="47.74536021823782" lon="12.122109566170572"><ele>458.0</ele><time>2026-04-18T18:10:43.001Z</time></trkpt><trkpt lat="47.74556862277229" lon="12.121928946575505"><ele>458.0</ele><time>2026-04-18T18:10:44.001Z</time></trkpt><trkpt lat="47.74577930455485" lon="12.121743706258577"><ele>458.0</ele><time>2026-04-18T18:10:45.001Z</time></trkpt><trkpt lat="47.74598939398257" lon="12.121558158005397"><ele>457.0</ele><time>2026-04-18T18:10:46.001Z</time></trkpt><trkpt lat="47.746194450645184" lon="12.121376675089172"><ele>456.0</ele><time>2026-04-18T18:10:47.001Z</time></trkpt><trkpt lat="47.74639880327989" lon="12.121192752975109"><ele>456.0</ele><time>2026-04-18T18:10:48.001Z</time></trkpt><trkpt lat="47.746609674630214" lon="12.121004955634419"><ele>456.0</ele><time>2026-04-18T18:10:49.001Z</time></trkpt><trkpt lat="47.74682472913365" lon="12.120814894658844"><ele>456.0</ele><time>2026-04-18T18:10:50.001Z</time></trkpt><trkpt lat="47.74704050068946" lon="12.120619080681426"><ele>456.0</ele><time>2026-04-18T18:10:51.001Z</time></trkpt><trkpt lat="47.747257147415745" lon="12.120424629750046"><ele>456.0</ele><time>2026-04-18T18:10:52.001Z</time></trkpt><trkpt lat="47.74747491606028" lon="12.120229226702614"><ele>456.0</ele><time>2026-04-18T18:10:53.001Z</time></trkpt><trkpt lat="47.74768696122398" lon="12.120038013637895"><ele>456.5</ele><time>2026-04-18T18:10:54.001Z</time></trkpt><trkpt lat="47.747897961942485" lon="12.119845017501556"><ele>457.0</ele><time>2026-04-18T18:10:55.001Z</time></trkpt><trkpt lat="47.74810676131998" lon="12.119654353229045"><ele>457.0</ele><time>2026-04-18T18:10:56.001Z</time></trkpt><trkpt lat="47.748312928421775" lon="12.119466576828454"><ele>457.0</ele><time>2026-04-18T18:10:57.001Z</time></trkpt><trkpt lat="47.74851870020685" lon="12.119278419702816"><ele>456.5</ele><time>2026-04-18T18:10:58.001Z</time></trkpt><trkpt lat="47.74872467896054" lon="12.119090271239008"><ele>456.0</ele><time>2026-04-18T18:10:59.001Z</time></trkpt><trkpt lat="47.74893209641718" lon="12.118898677181186"><ele>456.0</ele><time>2026-04-18T18:11:00.001Z</time></trkpt><trkpt lat="47.749142240682524" lon="12.118700142498444"><ele>456.0</ele><time>2026-04-18T18:11:01.001Z</time></trkpt><trkpt lat="47.74935401877674" lon="12.118498668414176"><ele>457.5</ele><time>2026-04-18T18:11:02.001Z</time></trkpt><trkpt lat="47.74956626671806" lon="12.118299579728038"><ele>459.0</ele><time>2026-04-18T18:11:03.001Z</time></trkpt><trkpt lat="47.749778273967564" lon="12.118100780013885"><ele>459.5</ele><time>2026-04-18T18:11:04.001Z</time></trkpt><trkpt lat="47.749987475846204" lon="12.117903710158915"><ele>460.0</ele><time>2026-04-18T18:11:05.001Z</time></trkpt><trkpt lat="47.75018755703651" lon="12.117713322385631"><ele>459.5</ele><time>2026-04-18T18:11:06.001Z</time></trkpt><trkpt lat="47.75038468646804" lon="12.117522932328464"><ele>459.0</ele><time>2026-04-18T18:11:07.001Z</time></trkpt><trkpt lat="47.750576725643256" lon="12.117337008664748"><ele>458.33333333333337</ele><time>2026-04-18T18:11:08.001Z</time></trkpt><trkpt lat="47.75076389698572" lon="12.11715990302258"><ele>457.6666666666667</ele><time>2026-04-18T18:11:09.001Z</time></trkpt><trkpt lat="47.75095106778322" lon="12.116982139040456"><ele>457.0</ele><time>2026-04-18T18:11:10.001Z</time></trkpt><trkpt lat="47.751134848513836" lon="12.116801879867275"><ele>457.6666666666667</ele><time>2026-04-18T18:11:11.001Z</time></trkpt><trkpt lat="47.751318402813595" lon="12.116621383476323"><ele>458.33333333333337</ele><time>2026-04-18T18:11:12.001Z</time></trkpt><trkpt lat="47.75150236845618" lon="12.116441874811493"><ele>459.0</ele><time>2026-04-18T18:11:13.001Z</time></trkpt><trkpt lat="47.75168538823481" lon="12.116264884018873"><ele>459.0</ele><time>2026-04-18T18:11:14.001Z</time></trkpt><trkpt lat="47.75185695246291" lon="12.116098151088492"><ele>459.0</ele><time>2026-04-18T18:11:15.001Z</time></trkpt><trkpt lat="47.75202389693878" lon="12.115932211575348"><ele>459.0</ele><time>2026-04-18T18:11:16.001Z</time></trkpt><trkpt lat="47.7521900443827" lon="12.115763010622848"><ele>458.66666666666663</ele><time>2026-04-18T18:11:17.001Z</time></trkpt><trkpt lat="47.752364196618785" lon="12.115587219551836"><ele>458.3333333333333</ele><time>2026-04-18T18:11:18.001Z</time></trkpt><trkpt lat="47.75253784023405" lon="12.115412382551341"><ele>458.0</ele><time>2026-04-18T18:11:19.001Z</time></trkpt><trkpt lat="47.75270995002379" lon="12.115247200242326"><ele>459.0</ele><time>2026-04-18T18:11:20.001Z</time></trkpt><trkpt lat="47.752878053233964" lon="12.115079560715087"><ele>460.0</ele><time>2026-04-18T18:11:21.001Z</time></trkpt><trkpt lat="47.75304493293012" lon="12.114909912042027"><ele>461.0</ele><time>2026-04-18T18:11:22.001Z</time></trkpt><trkpt lat="47.75321359204218" lon="12.114737764856217"><ele>461.3333333333333</ele><time>2026-04-18T18:11:23.001Z</time></trkpt><trkpt lat="47.75338331497104" lon="12.114564802996659"><ele>461.66666666666663</ele><time>2026-04-18T18:11:24.001Z</time></trkpt><trkpt lat="47.753554095218995" lon="12.114388845821603"><ele>462.0</ele><time>2026-04-18T18:11:25.001Z</time></trkpt><trkpt lat="47.75372500727602" lon="12.114212608710885"><ele>461.66666666666663</ele><time>2026-04-18T18:11:26.001Z</time></trkpt><trkpt lat="47.753894899823486" lon="12.114036270128974"><ele>461.3333333333333</ele><time>2026-04-18T18:11:27.001Z</time></trkpt><trkpt lat="47.75406309956511" lon="12.11386380064766"><ele>461.0</ele><time>2026-04-18T18:11:28.001Z</time></trkpt><trkpt lat="47.75422773469085" lon="12.113692469267752"><ele>461.66666666666663</ele><time>2026-04-18T18:11:29.001Z</time></trkpt><trkpt lat="47.75439301261765" lon="12.113519770128526"><ele>462.33333333333337</ele><time>2026-04-18T18:11:30.001Z</time></trkpt><trkpt lat="47.75455830136083" lon="12.113349984989593"><ele>463.0</ele><time>2026-04-18T18:11:31.001Z</time></trkpt><trkpt lat="47.75472213371181" lon="12.113180356063397"><ele>463.0</ele><time>2026-04-18T18:11:32.001Z</time></trkpt><trkpt lat="47.75488253097229" lon="12.113019384693558"><ele>463.0</ele><time>2026-04-18T18:11:33.001Z</time></trkpt><trkpt lat="47.755037515390576" lon="12.11285810085005"><ele>463.0</ele><time>2026-04-18T18:11:34.001Z</time></trkpt><trkpt lat="47.75519345768545" lon="12.11269592989956"><ele>462.33333333333337</ele><time>2026-04-18T18:11:35.001Z</time></trkpt><trkpt lat="47.755349229458204" lon="12.112531159326014"><ele>461.66666666666663</ele><time>2026-04-18T18:11:36.001Z</time></trkpt><trkpt lat="47.75550668473477" lon="12.11236938784102"><ele>461.0</ele><time>2026-04-18T18:11:37.001Z</time></trkpt><trkpt lat="47.75566320389529" lon="12.112205016475766"><ele>461.0</ele><time>2026-04-18T18:11:38.001Z</time></trkpt><trkpt lat="47.75581713566127" lon="12.112040566057345"><ele>461.0</ele><time>2026-04-18T18:11:39.001Z</time></trkpt><trkpt lat="47.75597438077612" lon="12.111878392194717"><ele>461.0</ele><time>2026-04-18T18:11:40.001Z</time></trkpt><trkpt lat="47.75612398295688" lon="12.11172373663269"><ele>460.66666666666663</ele><time>2026-04-18T18:11:41.001Z</time></trkpt><trkpt lat="47.756270922727985" lon="12.111567169069549"><ele>460.33333333333337</ele><time>2026-04-18T18:11:42.001Z</time></trkpt><trkpt lat="47.75641644994153" lon="12.111411609637651"><ele>460.0</ele><time>2026-04-18T18:11:43.001Z</time></trkpt><trkpt lat="47.75655851402391" lon="12.111257112433833"><ele>460.0</ele><time>2026-04-18T18:11:44.001Z</time></trkpt><trkpt lat="47.75670083901256" lon="12.111104092149406"><ele>460.0</ele><time>2026-04-18T18:11:45.001Z</time></trkpt><trkpt lat="47.75684313447041" lon="12.110950214490204"><ele>460.0</ele><time>2026-04-18T18:11:46.001Z</time></trkpt><trkpt lat="47.756982580211584" lon="12.110799228782145"><ele>458.6666666666667</ele><time>2026-04-18T18:11:47.001Z</time></trkpt><trkpt lat="47.75711402654607" lon="12.110654774520354"><ele>457.33333333333337</ele><time>2026-04-18T18:11:48.001Z</time></trkpt><trkpt lat="47.75724512444445" lon="12.110514869707004"><ele>456.0</ele><time>2026-04-18T18:11:49.001Z</time></trkpt><trkpt lat="47.757375021963206" lon="12.110371429999406"><ele>456.0</ele><time>2026-04-18T18:11:50.001Z</time></trkpt><trkpt lat="47.7575098661762" lon="12.11022419525559"><ele>456.0</ele><time>2026-04-18T18:11:51.001Z</time></trkpt><trkpt lat="47.75765119710295" lon="12.110072583747087"><ele>456.0</ele><time>2026-04-18T18:11:52.001Z</time></trkpt><trkpt lat="47.75779668732808" lon="12.109919274787302"><ele>457.0</ele><time>2026-04-18T18:11:53.001Z</time></trkpt><trkpt lat="47.757945302085886" lon="12.109760557485565"><ele>458.0</ele><time>2026-04-18T18:11:54.001Z</time></trkpt><trkpt lat="47.75809654744336" lon="12.109597268994943"><ele>459.0</ele><time>2026-04-18T18:11:55.001Z</time></trkpt><trkpt lat="47.7582481572558" lon="12.109434530767103"><ele>459.0</ele><time>2026-04-18T18:11:56.001Z</time></trkpt><trkpt lat="47.75839788738405" lon="12.109270076090047"><ele>459.0</ele><time>2026-04-18T18:11:57.001Z</time></trkpt><trkpt lat="47.75854738373786" lon="12.109106863985708"><ele>459.0</ele><time>2026-04-18T18:11:58.001Z</time></trkpt><trkpt lat="47.75869161721013" lon="12.10894997072389"><ele>458.66666666666663</ele><time>2026-04-18T18:11:59.001Z</time></trkpt><trkpt lat="47.758833991361705" lon="12.108800124447065"><ele>458.3333333333333</ele><time>2026-04-18T18:12:00.001Z</time></trkpt><trkpt lat="47.758974740544026" lon="12.108649094142029"><ele>458.0</ele><time>2026-04-18T18:12:01.001Z</time></trkpt><trkpt lat="47.759117441862635" lon="12.108495977904338"><ele>458.0</ele><time>2026-04-18T18:12:02.001Z</time></trkpt><trkpt lat="47.75925798810039" lon="12.108344314917813"><ele>458.0</ele><time>2026-04-18T18:12:03.001Z</time></trkpt><trkpt lat="47.75939054395108" lon="12.10820133103206"><ele>458.0</ele><time>2026-04-18T18:12:04.001Z</time></trkpt><trkpt lat="47.7595148855611" lon="12.10807108363312"><ele>458.5</ele><time>2026-04-18T18:12:05.001Z</time></trkpt><trkpt lat="47.75963286174899" lon="12.107949263745608"><ele>459.0</ele><time>2026-04-18T18:12:06.001Z</time></trkpt><trkpt lat="47.75974467225902" lon="12.10783180600376"><ele>459.5</ele><time>2026-04-18T18:12:07.001Z</time></trkpt><trkpt lat="47.759860176239805" lon="12.107709387265936"><ele>460.0</ele><time>2026-04-18T18:12:08.001Z</time></trkpt><trkpt lat="47.75997490504828" lon="12.107586205520214"><ele>460.0</ele><time>2026-04-18T18:12:09.001Z</time></trkpt><trkpt lat="47.760094884703" lon="12.107458333932756"><ele>460.0</ele><time>2026-04-18T18:12:10.001Z</time></trkpt><trkpt lat="47.760215439552056" lon="12.10733189197776"><ele>460.0</ele><time>2026-04-18T18:12:11.001Z</time></trkpt><trkpt lat="47.76032735366989" lon="12.107213631203933"><ele>460.0</ele><time>2026-04-18T18:12:12.001Z</time></trkpt><trkpt lat="47.76044283360821" lon="12.107092047425507"><ele>460.75</ele><time>2026-04-18T18:12:13.001Z</time></trkpt><trkpt lat="47.76056402636634" lon="12.106962929432083"><ele>461.5</ele><time>2026-04-18T18:12:14.001Z</time></trkpt><trkpt lat="47.760685497361074" lon="12.106835324022894"><ele>462.25</ele><time>2026-04-18T18:12:15.001Z</time></trkpt><trkpt lat="47.760807021182025" lon="12.106709875879748"><ele>463.0</ele><time>2026-04-18T18:12:16.001Z</time></trkpt><trkpt lat="47.76092228089743" lon="12.106591031090506"><ele>463.25</ele><time>2026-04-18T18:12:17.001Z</time></trkpt><trkpt lat="47.76103251781229" lon="12.106476508322114"><ele>463.5</ele><time>2026-04-18T18:12:18.001Z</time></trkpt><trkpt lat="47.76114269767576" lon="12.1063588795844"><ele>463.75</ele><time>2026-04-18T18:12:19.001Z</time></trkpt><trkpt lat="47.76125620983801" lon="12.106241130406094"><ele>464.0</ele><time>2026-04-18T18:12:20.001Z</time></trkpt><trkpt lat="47.7613741956657" lon="12.10611824771309"><ele>464.0</ele><time>2026-04-18T18:12:21.001Z</time></trkpt><trkpt lat="47.76149225231765" lon="12.105995940948109"><ele>464.0</ele><time>2026-04-18T18:12:22.001Z</time></trkpt><trkpt lat="47.76160783668895" lon="12.105874467099769"><ele>464.0</ele><time>2026-04-18T18:12:23.001Z</time></trkpt><trkpt lat="47.76171900098535" lon="12.105751671844047"><ele>464.0</ele><time>2026-04-18T18:12:24.001Z</time></trkpt><trkpt lat="47.761832265828794" lon="12.105633482697469"><ele>464.5</ele><time>2026-04-18T18:12:25.001Z</time></trkpt><trkpt lat="47.76194627845457" lon="12.105519659277913"><ele>465.0</ele><time>2026-04-18T18:12:26.001Z</time></trkpt><trkpt lat="47.76206661653771" lon="12.105399002774098"><ele>465.5</ele><time>2026-04-18T18:12:27.001Z</time></trkpt><trkpt lat="47.76218504834752" lon="12.105265687926456"><ele>466.0</ele><time>2026-04-18T18:12:28.001Z</time></trkpt><trkpt lat="47.762301796331165" lon="12.105117509136837"><ele>466.0</ele><time>2026-04-18T18:12:29.001Z</time></trkpt><trkpt lat="47.76241418055717" lon="12.104966883088416"><ele>466.0</ele><time>2026-04-18T18:12:30.001Z</time></trkpt><trkpt lat="47.76252766308391" lon="12.10481863344482"><ele>466.0</ele><time>2026-04-18T18:12:31.001Z</time></trkpt><trkpt lat="47.762644192016815" lon="12.104669507470387"><ele>464.6666666666667</ele><time>2026-04-18T18:12:32.001Z</time></trkpt><trkpt lat="47.76276416850548" lon="12.104531809790759"><ele>463.33333333333337</ele><time>2026-04-18T18:12:33.001Z</time></trkpt><trkpt lat="47.762890346266516" lon="12.104401365710691"><ele>462.0</ele><time>2026-04-18T18:12:34.001Z</time></trkpt><trkpt lat="47.76302276702686" lon="12.104272898748603"><ele>462.0</ele><time>2026-04-18T18:12:35.001Z</time></trkpt><trkpt lat="47.76315835440027" lon="12.10413983761802"><ele>462.0</ele><time>2026-04-18T18:12:36.001Z</time></trkpt><trkpt lat="47.763294809708384" lon="12.104004499863953"><ele>462.0</ele><time>2026-04-18T18:12:37.001Z</time></trkpt><trkpt lat="47.76343417967363" lon="12.103882070500491"><ele>462.66666666666663</ele><time>2026-04-18T18:12:38.001Z</time></trkpt><trkpt lat="47.76356561875333" lon="12.103760038446925"><ele>463.3333333333333</ele><time>2026-04-18T18:12:39.001Z</time></trkpt><trkpt lat="47.763691562215634" lon="12.103638327480235"><ele>464.0</ele><time>2026-04-18T18:12:40.001Z</time></trkpt><trkpt lat="47.76381605140136" lon="12.10351076977453"><ele>464.0</ele><time>2026-04-18T18:12:41.001Z</time></trkpt><trkpt lat="47.763940534032486" lon="12.103396818044232"><ele>464.0</ele><time>2026-04-18T18:12:42.001Z</time></trkpt><trkpt lat="47.76406306131841" lon="12.103286055560595"><ele>464.0</ele><time>2026-04-18T18:12:43.001Z</time></trkpt><trkpt lat="47.76418570643846" lon="12.103175272804457"><ele>464.0</ele><time>2026-04-18T18:12:44.001Z</time></trkpt><trkpt lat="47.76430807194125" lon="12.103058999462636"><ele>464.75</ele><time>2026-04-18T18:12:45.001Z</time></trkpt><trkpt lat="47.76442998873542" lon="12.102944488055543"><ele>465.5</ele><time>2026-04-18T18:12:46.001Z</time></trkpt><trkpt lat="47.764559175178796" lon="12.102823962656569"><ele>466.25</ele><time>2026-04-18T18:12:47.001Z</time></trkpt><trkpt lat="47.76468933118897" lon="12.102706182821045"><ele>467.0</ele><time>2026-04-18T18:12:48.001Z</time></trkpt><trkpt lat="47.764820488243096" lon="12.102590905391258"><ele>467.0</ele><time>2026-04-18T18:12:49.001Z</time></trkpt><trkpt lat="47.764942823871934" lon="12.102471723070156"><ele>467.0</ele><time>2026-04-18T18:12:50.001Z</time></trkpt><trkpt lat="47.765070468632395" lon="12.102355229843049"><ele>467.0</ele><time>2026-04-18T18:12:51.001Z</time></trkpt><trkpt lat="47.76520002188185" lon="12.102239476373615"><ele>467.0</ele><time>2026-04-18T18:12:52.001Z</time></trkpt><trkpt lat="47.76533412196785" lon="12.1021242459094"><ele>468.0</ele><time>2026-04-18T18:12:53.001Z</time></trkpt><trkpt lat="47.76546542111864" lon="12.102012302556158"><ele>469.0</ele><time>2026-04-18T18:12:54.001Z</time></trkpt><trkpt lat="47.76559175418267" lon="12.10190240360534"><ele>470.0</ele><time>2026-04-18T18:12:55.001Z</time></trkpt><trkpt lat="47.765715486812525" lon="12.101797454328318"><ele>471.0</ele><time>2026-04-18T18:12:56.001Z</time></trkpt><trkpt lat="47.76583680839588" lon="12.101693018076896"><ele>471.0</ele><time>2026-04-18T18:12:57.001Z</time></trkpt><trkpt lat="47.765959680899286" lon="12.10159059128276"><ele>471.0</ele><time>2026-04-18T18:12:58.001Z</time></trkpt><trkpt lat="47.76608971215187" lon="12.101479273390238"><ele>471.0</ele><time>2026-04-18T18:12:59.001Z</time></trkpt><trkpt lat="47.7662245327172" lon="12.101369483243463"><ele>471.0</ele><time>2026-04-18T18:13:00.001Z</time></trkpt><trkpt lat="47.7663583493728" lon="12.101253981155173"><ele>472.33333333333337</ele><time>2026-04-18T18:13:01.001Z</time></trkpt><trkpt lat="47.766489574859335" lon="12.101146718526207"><ele>473.6666666666667</ele><time>2026-04-18T18:13:02.001Z</time></trkpt><trkpt lat="47.76662215539284" lon="12.101043911920744"><ele>475.0</ele><time>2026-04-18T18:13:03.001Z</time></trkpt><trkpt lat="47.766769543488415" lon="12.100945861611576"><ele>474.33333333333337</ele><time>2026-04-18T18:13:04.001Z</time></trkpt><trkpt lat="47.766928481607174" lon="12.100846401205896"><ele>473.66666666666663</ele><time>2026-04-18T18:13:05.001Z</time></trkpt><trkpt lat="47.767085176361135" lon="12.100751046188117"><ele>473.0</ele><time>2026-04-18T18:13:06.001Z</time></trkpt><trkpt lat="47.76722665981275" lon="12.100662055293823"><ele>473.0</ele><time>2026-04-18T18:13:07.001Z</time></trkpt><trkpt lat="47.767373514793974" lon="12.100570250887847"><ele>473.0</ele><time>2026-04-18T18:13:08.001Z</time></trkpt><trkpt lat="47.76751657383618" lon="12.10047573363583"><ele>473.0</ele><time>2026-04-18T18:13:09.001Z</time></trkpt><trkpt lat="47.76765813096311" lon="12.100376749191623"><ele>473.66666666666663</ele><time>2026-04-18T18:13:10.001Z</time></trkpt><trkpt lat="47.767801346608074" lon="12.100266488056079"><ele>474.33333333333337</ele><time>2026-04-18T18:13:11.001Z</time></trkpt><trkpt lat="47.76795248135418" lon="12.100144803525234"><ele>475.0</ele><time>2026-04-18T18:13:12.001Z</time></trkpt><trkpt lat="47.7681121606784" lon="12.100018368296478"><ele>474.6666666666667</ele><time>2026-04-18T18:13:13.001Z</time></trkpt><trkpt lat="47.768271862250785" lon="12.099896090575466"><ele>474.33333333333337</ele><time>2026-04-18T18:13:14.001Z</time></trkpt><trkpt lat="47.76842878570882" lon="12.099778562804644"><ele>474.0</ele><time>2026-04-18T18:13:15.001Z</time></trkpt><trkpt lat="47.76858612672499" lon="12.099661523600512"><ele>473.33333333333337</ele><time>2026-04-18T18:13:16.001Z</time></trkpt><trkpt lat="47.76874828699524" lon="12.099544537001972"><ele>472.6666666666667</ele><time>2026-04-18T18:13:17.001Z</time></trkpt><trkpt lat="47.768915132384834" lon="12.099422717497607"><ele>472.0</ele><time>2026-04-18T18:13:18.001Z</time></trkpt><trkpt lat="47.7690967724544" lon="12.09928511070194"><ele>472.0</ele><time>2026-04-18T18:13:19.001Z</time></trkpt><trkpt lat="47.76929726347483" lon="12.099139318411726"><ele>472.0</ele><time>2026-04-18T18:13:20.001Z</time></trkpt><trkpt lat="47.769514736402165" lon="12.098983117676328"><ele>469.0</ele><time>2026-04-18T18:13:21.001Z</time></trkpt><trkpt lat="47.76974589513793" lon="12.098818651645518"><ele>466.0</ele><time>2026-04-18T18:13:22.001Z</time></trkpt><trkpt lat="47.76998763535052" lon="12.098645816148505"><ele>464.5</ele><time>2026-04-18T18:13:23.001Z</time></trkpt><trkpt lat="47.770240096524944" lon="12.098466053435004"><ele>463.0</ele><time>2026-04-18T18:13:24.001Z</time></trkpt><trkpt lat="47.77050402553786" lon="12.098281199181516"><ele>463.0</ele><time>2026-04-18T18:13:25.001Z</time></trkpt><trkpt lat="47.770772502449404" lon="12.098093613839731"><ele>463.0</ele><time>2026-04-18T18:13:26.001Z</time></trkpt><trkpt lat="47.7710461380778" lon="12.097908297022203"><ele>463.0</ele><time>2026-04-18T18:13:27.001Z</time></trkpt><trkpt lat="47.77132534730745" lon="12.097723682936188"><ele>463.0</ele><time>2026-04-18T18:13:28.001Z</time></trkpt><trkpt lat="47.77160987551634" lon="12.097528957919263"><ele>462.5</ele><time>2026-04-18T18:13:29.001Z</time></trkpt><trkpt lat="47.771902774700436" lon="12.097330892177256"><ele>462.0</ele><time>2026-04-18T18:13:30.001Z</time></trkpt><trkpt lat="47.77220273117982" lon="12.097138028053282"><ele>462.0</ele><time>2026-04-18T18:13:31.001Z</time></trkpt><trkpt lat="47.7725092590681" lon="12.096949613244067"><ele>462.0</ele><time>2026-04-18T18:13:32.001Z</time></trkpt><trkpt lat="47.77281640126975" lon="12.096765021881199"><ele>463.5</ele><time>2026-04-18T18:13:33.001Z</time></trkpt><trkpt lat="47.77311835209496" lon="12.096581154770734"><ele>465.0</ele><time>2026-04-18T18:13:34.001Z</time></trkpt><trkpt lat="47.77341499714589" lon="12.096403943307742"><ele>464.0</ele><time>2026-04-18T18:13:35.001Z</time></trkpt><trkpt lat="47.77370898920234" lon="12.096229094834184"><ele>463.0</ele><time>2026-04-18T18:13:36.001Z</time></trkpt><trkpt lat="47.773999731537245" lon="12.09606115936278"><ele>463.0</ele><time>2026-04-18T18:13:37.001Z</time></trkpt><trkpt lat="47.774288177164884" lon="12.095897068561056"><ele>463.0</ele><time>2026-04-18T18:13:38.001Z</time></trkpt><trkpt lat="47.774572905940175" lon="12.095736913703975"><ele>463.5</ele><time>2026-04-18T18:13:39.001Z</time></trkpt><trkpt lat="47.7748553201414" lon="12.095580449150688"><ele>464.0</ele><time>2026-04-18T18:13:40.001Z</time></trkpt><trkpt lat="47.77514219290007" lon="12.095421782231009"><ele>463.0</ele><time>2026-04-18T18:13:41.001Z</time></trkpt><trkpt lat="47.775441259158505" lon="12.095260620000186"><ele>462.0</ele><time>2026-04-18T18:13:42.001Z</time></trkpt><trkpt lat="47.77574395325983" lon="12.095104703773655"><ele>462.5</ele><time>2026-04-18T18:13:43.001Z</time></trkpt><trkpt lat="47.77604924113708" lon="12.094950441284912"><ele>463.0</ele><time>2026-04-18T18:13:44.001Z</time></trkpt><trkpt lat="47.77635441259744" lon="12.094794488315259"><ele>464.0</ele><time>2026-04-18T18:13:45.001Z</time></trkpt><trkpt lat="47.77666101136945" lon="12.094639195366598"><ele>465.0</ele><time>2026-04-18T18:13:46.001Z</time></trkpt><trkpt lat="47.776966415138205" lon="12.094490031978603"><ele>467.0</ele><time>2026-04-18T18:13:47.001Z</time></trkpt><trkpt lat="47.777270219469926" lon="12.094347514762273"><ele>469.0</ele><time>2026-04-18T18:13:48.001Z</time></trkpt><trkpt lat="47.77757239741529" lon="12.094206468060522"><ele>470.0</ele><time>2026-04-18T18:13:49.001Z</time></trkpt><trkpt lat="47.77786953969734" lon="12.0940696488143"><ele>471.0</ele><time>2026-04-18T18:13:50.001Z</time></trkpt><trkpt lat="47.7781446985081" lon="12.09394602788817"><ele>471.0</ele><time>2026-04-18T18:13:51.001Z</time></trkpt><trkpt lat="47.77840283299203" lon="12.09383148862636"><ele>471.0</ele><time>2026-04-18T18:13:52.001Z</time></trkpt><trkpt lat="47.7786552937212" lon="12.09371856544103"><ele>471.0</ele><time>2026-04-18T18:13:53.001Z</time></trkpt><trkpt lat="47.77889853689717" lon="12.093609071298847"><ele>471.0</ele><time>2026-04-18T18:13:54.001Z</time></trkpt><trkpt lat="47.77914377200933" lon="12.093499463139977"><ele>470.5</ele><time>2026-04-18T18:13:55.001Z</time></trkpt><trkpt lat="47.77938442407082" lon="12.093395455810104"><ele>470.0</ele><time>2026-04-18T18:13:56.001Z</time></trkpt><trkpt lat="47.77962970696727" lon="12.093294883494021"><ele>471.0</ele><time>2026-04-18T18:13:57.001Z</time></trkpt><trkpt lat="47.77988977434085" lon="12.093194835057702"><ele>472.0</ele><time>2026-04-18T18:13:58.001Z</time></trkpt><trkpt lat="47.78015169647956" lon="12.093093739686402"><ele>472.5</ele><time>2026-04-18T18:13:59.001Z</time></trkpt><trkpt lat="47.78041847875455" lon="12.092993121459244"><ele>473.0</ele><time>2026-04-18T18:14:00.001Z</time></trkpt><trkpt lat="47.78068420081759" lon="12.092888142619534"><ele>473.0</ele><time>2026-04-18T18:14:01.001Z</time></trkpt><trkpt lat="47.78095375777527" lon="12.092784829220811"><ele>473.0</ele><time>2026-04-18T18:14:02.001Z</time></trkpt><trkpt lat="47.78122936959547" lon="12.092682817342375"><ele>472.0</ele><time>2026-04-18T18:14:03.001Z</time></trkpt><trkpt lat="47.78150782956684" lon="12.092583611683063"><ele>471.0</ele><time>2026-04-18T18:14:04.001Z</time></trkpt><trkpt lat="47.7817902407883" lon="12.092486580144703"><ele>470.0</ele><time>2026-04-18T18:14:05.001Z</time></trkpt><trkpt lat="47.78207813576987" lon="12.092391535584433"><ele>469.0</ele><time>2026-04-18T18:14:06.001Z</time></trkpt><trkpt lat="47.78236773416954" lon="12.092293094131403"><ele>469.0</ele><time>2026-04-18T18:14:07.001Z</time></trkpt><trkpt lat="47.78265953566211" lon="12.092195274766597"><ele>469.0</ele><time>2026-04-18T18:14:08.001Z</time></trkpt><trkpt lat="47.78295258605572" lon="12.092096809987257"><ele>469.0</ele><time>2026-04-18T18:14:09.001Z</time></trkpt><trkpt lat="47.78324675335884" lon="12.092005209896149"><ele>469.0</ele><time>2026-04-18T18:14:10.001Z</time></trkpt><trkpt lat="47.78353979071448" lon="12.091914630290443"><ele>469.0</ele><time>2026-04-18T18:14:11.001Z</time></trkpt><trkpt lat="47.78383288619841" lon="12.091824088135278"><ele>469.0</ele><time>2026-04-18T18:14:12.001Z</time></trkpt><trkpt lat="47.784127346565796" lon="12.091737182729018"><ele>469.5</ele><time>2026-04-18T18:14:13.001Z</time></trkpt><trkpt lat="47.784420158305" lon="12.09165229121071"><ele>470.0</ele><time>2026-04-18T18:14:14.001Z</time></trkpt><trkpt lat="47.784710855667235" lon="12.091571543166971"><ele>470.0</ele><time>2026-04-18T18:14:15.001Z</time></trkpt><trkpt lat="47.78500013967107" lon="12.091499530670474"><ele>470.0</ele><time>2026-04-18T18:14:16.001Z</time></trkpt><trkpt lat="47.78528483572663" lon="12.091432915759064"><ele>469.5</ele><time>2026-04-18T18:14:17.001Z</time></trkpt><trkpt lat="47.785562726971484" lon="12.091365569940187"><ele>469.0</ele><time>2026-04-18T18:14:18.001Z</time></trkpt><trkpt lat="47.78584100211666" lon="12.091298949896402"><ele>469.5</ele><time>2026-04-18T18:14:19.001Z</time></trkpt><trkpt lat="47.78611762744998" lon="12.09123492097702"><ele>470.0</ele><time>2026-04-18T18:14:20.001Z</time></trkpt><trkpt lat="47.786392476959115" lon="12.091170538031305"><ele>470.0</ele><time>2026-04-18T18:14:21.001Z</time></trkpt><trkpt lat="47.78666479159266" lon="12.091106131196275"><ele>470.0</ele><time>2026-04-18T18:14:22.001Z</time></trkpt><trkpt lat="47.78693395387491" lon="12.09104180533177"><ele>470.0</ele><time>2026-04-18T18:14:23.001Z</time></trkpt><trkpt lat="47.787203733055975" lon="12.090983704670379"><ele>470.0</ele><time>2026-04-18T18:14:24.001Z</time></trkpt><trkpt lat="47.78747385758242" lon="12.090929465056137"><ele>467.5</ele><time>2026-04-18T18:14:25.001Z</time></trkpt><trkpt lat="47.787739326101324" lon="12.09087912059493"><ele>465.0</ele><time>2026-04-18T18:14:26.001Z</time></trkpt><trkpt lat="47.788020328649765" lon="12.090831248659528"><ele>465.0</ele><time>2026-04-18T18:14:27.001Z</time></trkpt><trkpt lat="47.78830925725265" lon="12.090783636025378"><ele>465.0</ele><time>2026-04-18T18:14:28.001Z</time></trkpt><trkpt lat="47.78861833754885" lon="12.090730978851767"><ele>469.0</ele><time>2026-04-18T18:14:29.001Z</time></trkpt><trkpt lat="47.78893312634807" lon="12.090680835266626"><ele>473.0</ele><time>2026-04-18T18:14:30Z</time></trkpt><trkpt lat="47.789249862267916" lon="12.090636491334632"><ele>472.0</ele><time>2026-04-18T18:14:31Z</time></trkpt><trkpt lat="47.78957646605708" lon="12.090591615827266"><ele>471.0</ele><time>2026-04-18T18:14:32Z</time></trkpt><trkpt lat="47.78990593536917" lon="12.090548091324"><ele>471.5</ele><time>2026-04-18T18:14:33Z</time></trkpt><trkpt lat="47.7902399385546" lon="12.0905072976796"><ele>472.0</ele><time>2026-04-18T18:14:34Z</time></trkpt><trkpt lat="47.79058062654131" lon="12.090465840820217"><ele>472.0</ele><time>2026-04-18T18:14:35Z</time></trkpt><trkpt lat="47.79092556087306" lon="12.090429903863571"><ele>472.0</ele><time>2026-04-18T18:14:36Z</time></trkpt><trkpt lat="47.79126455092135" lon="12.090402586341773"><ele>471.0</ele><time>2026-04-18T18:14:37Z</time></trkpt><trkpt lat="47.791596023821754" lon="12.090371694627159"><ele>470.0</ele><time>2026-04-18T18:14:38Z</time></trkpt><trkpt lat="47.7919308142042" lon="12.090341161648428"><ele>469.0</ele><time>2026-04-18T18:14:39Z</time></trkpt><trkpt lat="47.79223818335003" lon="12.090318675864387"><ele>468.0</ele><time>2026-04-18T18:14:40Z</time></trkpt><trkpt lat="47.79253880537412" lon="12.090291639232252"><ele>466.5</ele><time>2026-04-18T18:14:41Z</time></trkpt><trkpt lat="47.792836027744215" lon="12.090267932815847"><ele>465.0</ele><time>2026-04-18T18:14:42Z</time></trkpt><trkpt lat="47.79313665576712" lon="12.090243999937492"><ele>465.0</ele><time>2026-04-18T18:14:43Z</time></trkpt><trkpt lat="47.7934350042597" lon="12.090218887862664"><ele>465.0</ele><time>2026-04-18T18:14:44Z</time></trkpt><trkpt lat="47.79372503051343" lon="12.090193319056416"><ele>466.0</ele><time>2026-04-18T18:14:45Z</time></trkpt><trkpt lat="47.794003353750334" lon="12.090177612773646"><ele>467.0</ele><time>2026-04-18T18:14:46Z</time></trkpt><trkpt lat="47.79429486064361" lon="12.090159765970782"><ele>466.0</ele><time>2026-04-18T18:14:47Z</time></trkpt><trkpt lat="47.7945925912236" lon="12.090138145259651"><ele>465.0</ele><time>2026-04-18T18:14:48Z</time></trkpt><trkpt lat="47.79489089925062" lon="12.090116716735347"><ele>466.0</ele><time>2026-04-18T18:14:49Z</time></trkpt><trkpt lat="47.795189451456096" lon="12.090100107466915"><ele>467.0</ele><time>2026-04-18T18:14:50Z</time></trkpt><trkpt lat="47.79549039856047" lon="12.090088729649125"><ele>467.0</ele><time>2026-04-18T18:14:51Z</time></trkpt><trkpt lat="47.79578955814112" lon="12.090077092992612"><ele>467.0</ele><time>2026-04-18T18:14:52Z</time></trkpt><trkpt lat="47.79608919555015" lon="12.090062402060358"><ele>467.0</ele><time>2026-04-18T18:14:53Z</time></trkpt><trkpt lat="47.79638499003153" lon="12.090045035366678"><ele>467.0</ele><time>2026-04-18T18:14:54Z</time></trkpt><trkpt lat="47.796678738511126" lon="12.090027405565952"><ele>467.5</ele><time>2026-04-18T18:14:55Z</time></trkpt><trkpt lat="47.79697205305212" lon="12.090010808612897"><ele>468.0</ele><time>2026-04-18T18:14:56Z</time></trkpt><trkpt lat="47.79726600698958" lon="12.089994708466893"><ele>468.0</ele><time>2026-04-18T18:14:57Z</time></trkpt><trkpt lat="47.79756117896571" lon="12.089984859384668"><ele>468.0</ele><time>2026-04-18T18:14:58Z</time></trkpt><trkpt lat="47.79785409908011" lon="12.089978865721047"><ele>467.5</ele><time>2026-04-18T18:14:59Z</time></trkpt><trkpt lat="47.798148673343256" lon="12.08998316707256"><ele>467.0</ele><time>2026-04-18T18:15:00Z</time></trkpt><trkpt lat="47.79844896077047" lon="12.090002932550496"><ele>465.5</ele><time>2026-04-18T18:15:01Z</time></trkpt><trkpt lat="47.798747891002435" lon="12.090032295469838"><ele>464.0</ele><time>2026-04-18T18:15:02Z</time></trkpt><trkpt lat="47.799047399593846" lon="12.090074156450973"><ele>465.5</ele><time>2026-04-18T18:15:03Z</time></trkpt><trkpt lat="47.79934488380881" lon="12.090122695669677"><ele>467.0</ele><time>2026-04-18T18:15:04Z</time></trkpt><trkpt lat="47.799638458894464" lon="12.090176739850449"><ele>467.0</ele><time>2026-04-18T18:15:05Z</time></trkpt><trkpt lat="47.79991130777482" lon="12.090236427613734"><ele>467.0</ele><time>2026-04-18T18:15:06Z</time></trkpt><trkpt lat="47.80016171722675" lon="12.090299829785566"><ele>465.0</ele><time>2026-04-18T18:15:07Z</time></trkpt><trkpt lat="47.800395084274946" lon="12.090363770943622"><ele>463.0</ele><time>2026-04-18T18:15:08Z</time></trkpt><trkpt lat="47.80062151192964" lon="12.09043372584743"><ele>463.0</ele><time>2026-04-18T18:15:09Z</time></trkpt><trkpt lat="47.800838728935865" lon="12.090504503442599"><ele>463.0</ele><time>2026-04-18T18:15:10Z</time></trkpt><trkpt lat="47.80105494604951" lon="12.090579107530086"><ele>463.0</ele><time>2026-04-18T18:15:11Z</time></trkpt><trkpt lat="47.80127222163874" lon="12.09066140510025"><ele>462.5</ele><time>2026-04-18T18:15:12Z</time></trkpt><trkpt lat="47.80149661780361" lon="12.09075186924923"><ele>462.0</ele><time>2026-04-18T18:15:13Z</time></trkpt><trkpt lat="47.80172692924506" lon="12.090853945537107"><ele>463.0</ele><time>2026-04-18T18:15:14Z</time></trkpt><trkpt lat="47.80196171444944" lon="12.090964994787091"><ele>464.0</ele><time>2026-04-18T18:15:15Z</time></trkpt><trkpt lat="47.802188548572616" lon="12.091077007290247"><ele>464.0</ele><time>2026-04-18T18:15:16Z</time></trkpt><trkpt lat="47.80240661795762" lon="12.091189529333874"><ele>464.0</ele><time>2026-04-18T18:15:17Z</time></trkpt><trkpt lat="47.80263043932036" lon="12.091312271989953"><ele>464.5</ele><time>2026-04-18T18:15:18Z</time></trkpt><trkpt lat="47.80285672672174" lon="12.091441907451255"><ele>465.0</ele><time>2026-04-18T18:15:19Z</time></trkpt><trkpt lat="47.80307752088476" lon="12.091581106209684"><ele>464.5</ele><time>2026-04-18T18:15:20Z</time></trkpt><trkpt lat="47.80329611845153" lon="12.091725518336425"><ele>464.0</ele><time>2026-04-18T18:15:21Z</time></trkpt><trkpt lat="47.80351324504521" lon="12.091875676221974"><ele>463.5</ele><time>2026-04-18T18:15:22Z</time></trkpt><trkpt lat="47.80372540604556" lon="12.092032286608562"><ele>463.0</ele><time>2026-04-18T18:15:23Z</time></trkpt><trkpt lat="47.80392802661343" lon="12.092185216302806"><ele>463.0</ele><time>2026-04-18T18:15:24Z</time></trkpt><trkpt lat="47.80411959706539" lon="12.092336306261448"><ele>463.0</ele><time>2026-04-18T18:15:25Z</time></trkpt><trkpt lat="47.80431737298692" lon="12.092488818959163"><ele>463.0</ele><time>2026-04-18T18:15:26Z</time></trkpt><trkpt lat="47.80451193429923" lon="12.092648545293633"><ele>464.0</ele><time>2026-04-18T18:15:27Z</time></trkpt><trkpt lat="47.80470409841131" lon="12.092813649836671"><ele>465.0</ele><time>2026-04-18T18:15:28Z</time></trkpt><trkpt lat="47.804888408696335" lon="12.092981844460096"><ele>466.0</ele><time>2026-04-18T18:15:29Z</time></trkpt><trkpt lat="47.80505246750818" lon="12.093137854870541"><ele>466.0</ele><time>2026-04-18T18:15:30Z</time></trkpt><trkpt lat="47.805206685953905" lon="12.093286438952855"><ele>466.0</ele><time>2026-04-18T18:15:31Z</time></trkpt><trkpt lat="47.805346823228554" lon="12.093428466751158"><ele>466.0</ele><time>2026-04-18T18:15:32Z</time></trkpt><trkpt lat="47.80549536987882" lon="12.09355254906862"><ele>466.0</ele><time>2026-04-18T18:15:33Z</time></trkpt><trkpt lat="47.80563891504062" lon="12.093692490477935"><ele>466.0</ele><time>2026-04-18T18:15:34Z</time></trkpt><trkpt lat="47.80578228582548" lon="12.093834840670365"><ele>466.0</ele><time>2026-04-18T18:15:35Z</time></trkpt><trkpt lat="47.80593053606604" lon="12.093982497100887"><ele>465.33333333333337</ele><time>2026-04-18T18:15:36Z</time></trkpt><trkpt lat="47.80606943142504" lon="12.094121262892338"><ele>464.66666666666663</ele><time>2026-04-18T18:15:37Z</time></trkpt><trkpt lat="47.80620298170188" lon="12.094252490374927"><ele>464.0</ele><time>2026-04-18T18:15:38Z</time></trkpt><trkpt lat="47.80633589729361" lon="12.094380860016575"><ele>464.0</ele><time>2026-04-18T18:15:39Z</time></trkpt><trkpt lat="47.806471303307646" lon="12.09450831463241"><ele>464.0</ele><time>2026-04-18T18:15:40Z</time></trkpt><trkpt lat="47.806615614099954" lon="12.094643237918753"><ele>464.0</ele><time>2026-04-18T18:15:41Z</time></trkpt><trkpt lat="47.8067631370984" lon="12.094779835414295"><ele>464.66666666666663</ele><time>2026-04-18T18:15:42Z</time></trkpt><trkpt lat="47.806909872168156" lon="12.094919775974036"><ele>465.33333333333337</ele><time>2026-04-18T18:15:43Z</time></trkpt><trkpt lat="47.80704662485075" lon="12.095049068997781"><ele>466.0</ele><time>2026-04-18T18:15:44Z</time></trkpt><trkpt lat="47.807177331772564" lon="12.095176352968254"><ele>466.0</ele><time>2026-04-18T18:15:45Z</time></trkpt><trkpt lat="47.80730607210333" lon="12.095297619455623"><ele>466.0</ele><time>2026-04-18T18:15:46Z</time></trkpt><trkpt lat="47.807430625962304" lon="12.095420797743401"><ele>466.0</ele><time>2026-04-18T18:15:47Z</time></trkpt><trkpt lat="47.807551760129606" lon="12.095539335188185"><ele>466.0</ele><time>2026-04-18T18:15:48Z</time></trkpt><trkpt lat="47.807669261639546" lon="12.095650793779917"><ele>466.0</ele><time>2026-04-18T18:15:49Z</time></trkpt><trkpt lat="47.80778214796548" lon="12.095756601174992"><ele>466.0</ele><time>2026-04-18T18:15:50Z</time></trkpt><trkpt lat="47.80790705759184" lon="12.09587319035926"><ele>466.0</ele><time>2026-04-18T18:15:51Z</time></trkpt><trkpt lat="47.80803706483879" lon="12.095995434401587"><ele>466.0</ele><time>2026-04-18T18:15:52Z</time></trkpt><trkpt lat="47.80815929221879" lon="12.096112748304272"><ele>466.0</ele><time>2026-04-18T18:15:53Z</time></trkpt><trkpt lat="47.80828397480721" lon="12.096227833345273"><ele>466.0</ele><time>2026-04-18T18:15:54Z</time></trkpt><trkpt lat="47.80841355898131" lon="12.09633876224012"><ele>466.0</ele><time>2026-04-18T18:15:55Z</time></trkpt><trkpt lat="47.80854002069684" lon="12.096438818464458"><ele>466.0</ele><time>2026-04-18T18:15:56Z</time></trkpt><trkpt lat="47.808663095806" lon="12.09652907194032"><ele>466.0</ele><time>2026-04-18T18:15:57Z</time></trkpt><trkpt lat="47.80878396497347" lon="12.096613213323554"><ele>466.0</ele><time>2026-04-18T18:15:58Z</time></trkpt><trkpt lat="47.808906088298706" lon="12.096688760579658"><ele>466.0</ele><time>2026-04-18T18:15:59Z</time></trkpt><trkpt lat="47.809030107694866" lon="12.09675501534009"><ele>466.0</ele><time>2026-04-18T18:16:00Z</time></trkpt><trkpt lat="47.80915668045265" lon="12.096815455650042"><ele>466.0</ele><time>2026-04-18T18:16:01Z</time></trkpt><trkpt lat="47.80928550370585" lon="12.096868285087549"><ele>466.0</ele><time>2026-04-18T18:16:02Z</time></trkpt><trkpt lat="47.80942125832936" lon="12.096909282612346"><ele>466.0</ele><time>2026-04-18T18:16:03Z</time></trkpt><trkpt lat="47.80955801021594" lon="12.096941551248024"><ele>466.0</ele><time>2026-04-18T18:16:04Z</time></trkpt><trkpt lat="47.80970017879519" lon="12.096955840638689"><ele>466.0</ele><time>2026-04-18T18:16:05Z</time></trkpt><trkpt lat="47.80983131311245" lon="12.096949322786186"><ele>466.0</ele><time>2026-04-18T18:16:06Z</time></trkpt><trkpt lat="47.80996232950566" lon="12.096935305421646"><ele>466.0</ele><time>2026-04-18T18:16:07Z</time></trkpt><trkpt lat="47.81010036654007" lon="12.096904480542763"><ele>466.0</ele><time>2026-04-18T18:16:08Z</time></trkpt><trkpt lat="47.81024188634486" lon="12.09685676299651"><ele>465.75</ele><time>2026-04-18T18:16:09Z</time></trkpt><trkpt lat="47.81037178461855" lon="12.096801269536378"><ele>465.5</ele><time>2026-04-18T18:16:10Z</time></trkpt><trkpt lat="47.81050030069741" lon="12.096736992336949"><ele>465.25</ele><time>2026-04-18T18:16:11Z</time></trkpt><trkpt lat="47.81062602756174" lon="12.096650623997162"><ele>465.0</ele><time>2026-04-18T18:16:12Z</time></trkpt><trkpt lat="47.81075193175852" lon="12.09653926516921"><ele>465.0</ele><time>2026-04-18T18:16:13Z</time></trkpt><trkpt lat="47.81087448173672" lon="12.096420892548739"><ele>465.0</ele><time>2026-04-18T18:16:14Z</time></trkpt><trkpt lat="47.81098860276612" lon="12.096294376285776"><ele>465.0</ele><time>2026-04-18T18:16:15Z</time></trkpt><trkpt lat="47.811095071298965" lon="12.09615321510886"><ele>465.0</ele><time>2026-04-18T18:16:16Z</time></trkpt><trkpt lat="47.81119561855414" lon="12.095997501173251"><ele>465.0</ele><time>2026-04-18T18:16:17Z</time></trkpt><trkpt lat="47.811288377528065" lon="12.095833673505858"><ele>465.0</ele><time>2026-04-18T18:16:18Z</time></trkpt><trkpt lat="47.81137601778227" lon="12.095656948454335"><ele>465.0</ele><time>2026-04-18T18:16:19Z</time></trkpt><trkpt lat="47.81145315913842" lon="12.095461678135862"><ele>465.0</ele><time>2026-04-18T18:16:20Z</time></trkpt><trkpt lat="47.81152157409186" lon="12.095261255275751"><ele>465.5</ele><time>2026-04-18T18:16:21Z</time></trkpt><trkpt lat="47.81158005861525" lon="12.095055199352384"><ele>466.0</ele><time>2026-04-18T18:16:22Z</time></trkpt><trkpt lat="47.81162501335116" lon="12.094845252812647"><ele>466.5</ele><time>2026-04-18T18:16:23Z</time></trkpt><trkpt lat="47.81165774148866" lon="12.094631257880302"><ele>467.0</ele><time>2026-04-18T18:16:24Z</time></trkpt><trkpt lat="47.81167969953279" lon="12.09441349116151"><ele>468.0</ele><time>2026-04-18T18:16:25Z</time></trkpt><trkpt lat="47.81168988795393" lon="12.094188099025404"><ele>469.0</ele><time>2026-04-18T18:16:26Z</time></trkpt><trkpt lat="47.81169219130458" lon="12.0939568022514"><ele>470.0</ele><time>2026-04-18T18:16:27Z</time></trkpt><trkpt lat="47.811679908546644" lon="12.093720515357772"><ele>470.0</ele><time>2026-04-18T18:16:28Z</time></trkpt><trkpt lat="47.81165651334635" lon="12.093491123112784"><ele>470.0</ele><time>2026-04-18T18:16:29Z</time></trkpt><trkpt lat="47.81162292833194" lon="12.093268164319293"><ele>470.0</ele><time>2026-04-18T18:16:30Z</time></trkpt><trkpt lat="47.81158541851858" lon="12.09305209230124"><ele>468.66666666666663</ele><time>2026-04-18T18:16:31Z</time></trkpt><trkpt lat="47.811536720417685" lon="12.092849163816206"><ele>467.33333333333337</ele><time>2026-04-18T18:16:32Z</time></trkpt><trkpt lat="47.81147885277583" lon="12.092642165016436"><ele>466.0</ele><time>2026-04-18T18:16:33Z</time></trkpt><trkpt lat="47.811419543655184" lon="12.09242877318916"><ele>466.0</ele><time>2026-04-18T18:16:34Z</time></trkpt><trkpt lat="47.81136318518445" lon="12.092211599083686"><ele>466.0</ele><time>2026-04-18T18:16:35Z</time></trkpt><trkpt lat="47.81131040890729" lon="12.092003190518536"><ele>466.0</ele><time>2026-04-18T18:16:36Z</time></trkpt><trkpt lat="47.81126352445018" lon="12.091801024853849"><ele>466.33333333333337</ele><time>2026-04-18T18:16:37Z</time></trkpt><trkpt lat="47.81121661519801" lon="12.091574867134012"><ele>466.66666666666663</ele><time>2026-04-18T18:16:38Z</time></trkpt><trkpt lat="47.81117915142471" lon="12.091330128987082"><ele>467.0</ele><time>2026-04-18T18:16:39Z</time></trkpt><trkpt lat="47.81115154780202" lon="12.09107714131608"><ele>467.0</ele><time>2026-04-18T18:16:40Z</time></trkpt><trkpt lat="47.81113738564241" lon="12.090815952532964"><ele>467.0</ele><time>2026-04-18T18:16:41Z</time></trkpt><trkpt lat="47.81113461415718" lon="12.090558343796545"><ele>467.0</ele><time>2026-04-18T18:16:42Z</time></trkpt><trkpt lat="47.8111366995897" lon="12.090302456514637"><ele>467.0</ele><time>2026-04-18T18:16:43Z</time></trkpt><trkpt lat="47.81114784930895" lon="12.090027526056193"><ele>467.0</ele><time>2026-04-18T18:16:44Z</time></trkpt><trkpt lat="47.811167451897575" lon="12.089746726402993"><ele>467.0</ele><time>2026-04-18T18:16:45Z</time></trkpt><trkpt lat="47.81119412540663" lon="12.089459133695975"><ele>467.0</ele><time>2026-04-18T18:16:46Z</time></trkpt><trkpt lat="47.81122898040642" lon="12.089168211296329"><ele>467.0</ele><time>2026-04-18T18:16:47Z</time></trkpt><trkpt lat="47.811266869281226" lon="12.088876975849418"><ele>467.0</ele><time>2026-04-18T18:16:48Z</time></trkpt><trkpt lat="47.81129006036974" lon="12.08856097449217"><ele>467.0</ele><time>2026-04-18T18:16:49Z</time></trkpt><trkpt lat="47.811362832853106" lon="12.088226641514488"><ele>467.0</ele><time>2026-04-18T18:16:50Z</time></trkpt><trkpt lat="47.811416888325425" lon="12.087858856672188"><ele>467.0</ele><time>2026-04-18T18:16:51Z</time></trkpt><trkpt lat="47.81147169192435" lon="12.087471093350258"><ele>467.0</ele><time>2026-04-18T18:16:52Z</time></trkpt><trkpt lat="47.81152685688787" lon="12.087075039177625"><ele>467.0</ele><time>2026-04-18T18:16:53Z</time></trkpt><trkpt lat="47.81158518964133" lon="12.086663287395243"><ele>467.0</ele><time>2026-04-18T18:16:54Z</time></trkpt><trkpt lat="47.811644128861474" lon="12.086245865384203"><ele>467.0</ele><time>2026-04-18T18:16:55Z</time></trkpt><trkpt lat="47.8117051567732" lon="12.085825586602837"><ele>467.0</ele><time>2026-04-18T18:16:56Z</time></trkpt><trkpt lat="47.811765453983504" lon="12.085413599464918"><ele>467.0</ele><time>2026-04-18T18:16:57Z</time></trkpt><trkpt lat="47.81182318040889" lon="12.085005707289557"><ele>467.0</ele><time>2026-04-18T18:16:58Z</time></trkpt><trkpt lat="47.811876863505084" lon="12.084594992087187"><ele>467.0</ele><time>2026-04-18T18:16:59Z</time></trkpt><trkpt lat="47.81192894532239" lon="12.08418193354315"><ele>467.0</ele><time>2026-04-18T18:17:00Z</time></trkpt><trkpt lat="47.81198579369644" lon="12.083771831578039"><ele>467.0</ele><time>2026-04-18T18:17:01Z</time></trkpt><trkpt lat="47.81204365282823" lon="12.083373488144915"><ele>467.0</ele><time>2026-04-18T18:17:02Z</time></trkpt><trkpt lat="47.81209952894408" lon="12.08300586730863"><ele>467.0</ele><time>2026-04-18T18:17:03Z</time></trkpt><trkpt lat="47.81215134082615" lon="12.082659258116827"><ele>467.0</ele><time>2026-04-18T18:17:04Z</time></trkpt><trkpt lat="47.81220051506324" lon="12.082321836426773"><ele>467.0</ele><time>2026-04-18T18:17:05Z</time></trkpt><trkpt lat="47.81224967024302" lon="12.081978930911637"><ele>467.0</ele><time>2026-04-18T18:17:06Z</time></trkpt><trkpt lat="47.812300444931346" lon="12.081634125271119"><ele>467.0</ele><time>2026-04-18T18:17:07Z</time></trkpt><trkpt lat="47.81235249429828" lon="12.081281856540217"><ele>467.0</ele><time>2026-04-18T18:17:08Z</time></trkpt><trkpt lat="47.812406003260335" lon="12.080907351130287"><ele>466.5</ele><time>2026-04-18T18:17:09Z</time></trkpt><trkpt lat="47.812461715271816" lon="12.080514994537959"><ele>466.0</ele><time>2026-04-18T18:17:10Z</time></trkpt><trkpt lat="47.812521317518744" lon="12.080109933799324"><ele>467.0</ele><time>2026-04-18T18:17:11Z</time></trkpt><trkpt lat="47.81258030517152" lon="12.079698096522163"><ele>468.0</ele><time>2026-04-18T18:17:12Z</time></trkpt><trkpt lat="47.8126383523382" lon="12.07927777128237"><ele>467.0</ele><time>2026-04-18T18:17:13Z</time></trkpt><trkpt lat="47.81269155256545" lon="12.078841286752303"><ele>466.0</ele><time>2026-04-18T18:17:14Z</time></trkpt><trkpt lat="47.81274656903001" lon="12.07838211727448"><ele>466.0</ele><time>2026-04-18T18:17:15Z</time></trkpt><trkpt lat="47.812807210650284" lon="12.07791195235216"><ele>466.0</ele><time>2026-04-18T18:17:16Z</time></trkpt><trkpt lat="47.81287587751509" lon="12.077426997504329"><ele>467.5</ele><time>2026-04-18T18:17:17Z</time></trkpt><trkpt lat="47.81294823767578" lon="12.076936047333716"><ele>469.0</ele><time>2026-04-18T18:17:18Z</time></trkpt><trkpt lat="47.813012225330844" lon="12.076466849926287"><ele>469.5</ele><time>2026-04-18T18:17:19Z</time></trkpt><trkpt lat="47.81307757768715" lon="12.076021424113517"><ele>470.0</ele><time>2026-04-18T18:17:20Z</time></trkpt><trkpt lat="47.81314324240147" lon="12.075572330944238"><ele>469.5</ele><time>2026-04-18T18:17:21Z</time></trkpt><trkpt lat="47.81320517232266" lon="12.07513204650723"><ele>469.0</ele><time>2026-04-18T18:17:22Z</time></trkpt><trkpt lat="47.813266365598565" lon="12.074693301381053"><ele>469.0</ele><time>2026-04-18T18:17:23Z</time></trkpt><trkpt lat="47.81333224281883" lon="12.074235923190342"><ele>469.0</ele><time>2026-04-18T18:17:24Z</time></trkpt><trkpt lat="47.813402281245345" lon="12.073768392181597"><ele>469.5</ele><time>2026-04-18T18:17:25Z</time></trkpt><trkpt lat="47.81347119796712" lon="12.073305038530945"><ele>470.0</ele><time>2026-04-18T18:17:26Z</time></trkpt><trkpt lat="47.813537160846366" lon="12.072856976105344"><ele>472.5</ele><time>2026-04-18T18:17:27Z</time></trkpt><trkpt lat="47.8136069077224" lon="12.072416940255913"><ele>475.0</ele><time>2026-04-18T18:17:28Z</time></trkpt><trkpt lat="47.81368202863794" lon="12.07197880231725"><ele>474.0</ele><time>2026-04-18T18:17:29Z</time></trkpt><trkpt lat="47.813759545962185" lon="12.071538406576718"><ele>473.0</ele><time>2026-04-18T18:17:30Z</time></trkpt><trkpt lat="47.81383055560119" lon="12.071107461415508"><ele>474.0</ele><time>2026-04-18T18:17:31Z</time></trkpt><trkpt lat="47.81389817890333" lon="12.070697039005964"><ele>475.0</ele><time>2026-04-18T18:17:32Z</time></trkpt><trkpt lat="47.81396284101632" lon="12.070299084391243"><ele>475.0</ele><time>2026-04-18T18:17:33Z</time></trkpt><trkpt lat="47.81401849691385" lon="12.069907101664802"><ele>475.0</ele><time>2026-04-18T18:17:34Z</time></trkpt><trkpt lat="47.81407490212271" lon="12.069513093818864"><ele>475.0</ele><time>2026-04-18T18:17:35Z</time></trkpt><trkpt lat="47.81413190922253" lon="12.0691194157442"><ele>475.0</ele><time>2026-04-18T18:17:36Z</time></trkpt><trkpt lat="47.81419020534898" lon="12.068726022300492"><ele>474.5</ele><time>2026-04-18T18:17:37Z</time></trkpt><trkpt lat="47.814248405425715" lon="12.068329320016607"><ele>474.0</ele><time>2026-04-18T18:17:38Z</time></trkpt><trkpt lat="47.814304037657145" lon="12.067953898327879"><ele>474.0</ele><time>2026-04-18T18:17:39Z</time></trkpt><trkpt lat="47.81435923502804" lon="12.067564372285238"><ele>474.0</ele><time>2026-04-18T18:17:40Z</time></trkpt><trkpt lat="47.81441367399334" lon="12.067174942978896"><ele>473.5</ele><time>2026-04-18T18:17:41Z</time></trkpt><trkpt lat="47.814470836009285" lon="12.066784219821795"><ele>473.0</ele><time>2026-04-18T18:17:42Z</time></trkpt><trkpt lat="47.8145285133419" lon="12.06639039037685"><ele>474.0</ele><time>2026-04-18T18:17:43Z</time></trkpt><trkpt lat="47.814584238298885" lon="12.065991690309055"><ele>475.0</ele><time>2026-04-18T18:17:44Z</time></trkpt><trkpt lat="47.814641108987736" lon="12.065593221992001"><ele>475.5</ele><time>2026-04-18T18:17:45Z</time></trkpt><trkpt lat="47.81469968742881" lon="12.065192721890568"><ele>476.0</ele><time>2026-04-18T18:17:46Z</time></trkpt><trkpt lat="47.81475898058549" lon="12.064789914292382"><ele>476.0</ele><time>2026-04-18T18:17:47Z</time></trkpt><trkpt lat="47.814817046977765" lon="12.06438551694518"><ele>476.0</ele><time>2026-04-18T18:17:48Z</time></trkpt><trkpt lat="47.814875726508504" lon="12.06398654246646"><ele>476.0</ele><time>2026-04-18T18:17:49Z</time></trkpt><trkpt lat="47.81493043412568" lon="12.063595865758774"><ele>476.0</ele><time>2026-04-18T18:17:50Z</time></trkpt><trkpt lat="47.814977961087" lon="12.063232558091297"><ele>476.0</ele><time>2026-04-18T18:17:51Z</time></trkpt><trkpt lat="47.81502087901189" lon="12.062900280774285"><ele>476.0</ele><time>2026-04-18T18:17:52Z</time></trkpt><trkpt lat="47.815062346608286" lon="12.062575057875373"><ele>475.0</ele><time>2026-04-18T18:17:53Z</time></trkpt><trkpt lat="47.81510218173766" lon="12.062243908184342"><ele>474.0</ele><time>2026-04-18T18:17:54Z</time></trkpt><trkpt lat="47.815141155656946" lon="12.061905621039367"><ele>476.0</ele><time>2026-04-18T18:17:55Z</time></trkpt><trkpt lat="47.815184806793944" lon="12.061551212398832"><ele>478.0</ele><time>2026-04-18T18:17:56Z</time></trkpt><trkpt lat="47.815228736232854" lon="12.061180574675378"><ele>478.0</ele><time>2026-04-18T18:17:57Z</time></trkpt><trkpt lat="47.81527444777668" lon="12.060786411117464"><ele>478.0</ele><time>2026-04-18T18:17:58Z</time></trkpt><trkpt lat="47.81532354104951" lon="12.060379913549404"><ele>477.5</ele><time>2026-04-18T18:17:59Z</time></trkpt><trkpt lat="47.81537383513619" lon="12.059965830946243"><ele>477.0</ele><time>2026-04-18T18:18:00Z</time></trkpt><trkpt lat="47.81542460942944" lon="12.059546062631206"><ele>477.0</ele><time>2026-04-18T18:18:01Z</time></trkpt><trkpt lat="47.81547551417262" lon="12.059123358378315"><ele>477.0</ele><time>2026-04-18T18:18:02Z</time></trkpt><trkpt lat="47.81552862130656" lon="12.05868898234647"><ele>473.0</ele><time>2026-04-18T18:18:03Z</time></trkpt><trkpt lat="47.815585806949" lon="12.058242404443321"><ele>469.0</ele><time>2026-04-18T18:18:04Z</time></trkpt><trkpt lat="47.81564259744891" lon="12.057788879013806"><ele>468.5</ele><time>2026-04-18T18:18:05Z</time></trkpt><trkpt lat="47.81569936780585" lon="12.057332664623296"><ele>468.0</ele><time>2026-04-18T18:18:06Z</time></trkpt><trkpt lat="47.81575491715372" lon="12.05687698403139"><ele>466.5</ele><time>2026-04-18T18:18:07Z</time></trkpt><trkpt lat="47.81581057132247" lon="12.056424703776946"><ele>465.0</ele><time>2026-04-18T18:18:08Z</time></trkpt><trkpt lat="47.81586657344509" lon="12.055974022422"><ele>464.0</ele><time>2026-04-18T18:18:09Z</time></trkpt><trkpt lat="47.815921521823206" lon="12.05552146362698"><ele>463.0</ele><time>2026-04-18T18:18:10Z</time></trkpt><trkpt lat="47.81597785741297" lon="12.055046412205435"><ele>462.5</ele><time>2026-04-18T18:18:11Z</time></trkpt><trkpt lat="47.8160377893805" lon="12.054553667124322"><ele>462.0</ele><time>2026-04-18T18:18:12Z</time></trkpt><trkpt lat="47.81609924323758" lon="12.054046009628017"><ele>461.5</ele><time>2026-04-18T18:18:13Z</time></trkpt><trkpt lat="47.816160545436546" lon="12.053528024063104"><ele>461.0</ele><time>2026-04-18T18:18:14Z</time></trkpt><trkpt lat="47.816223564077916" lon="12.053047633802807"><ele>460.5</ele><time>2026-04-18T18:18:15Z</time></trkpt><trkpt lat="47.816278125777266" lon="12.052600089128031"><ele>460.0</ele><time>2026-04-18T18:18:16Z</time></trkpt><trkpt lat="47.81632784463443" lon="12.052180912305937"><ele>460.0</ele><time>2026-04-18T18:18:17Z</time></trkpt><trkpt lat="47.81638112276831" lon="12.051767884232264"><ele>460.0</ele><time>2026-04-18T18:18:18Z</time></trkpt><trkpt lat="47.81642906462221" lon="12.051363022082601"><ele>461.0</ele><time>2026-04-18T18:18:19Z</time></trkpt><trkpt lat="47.81647661085999" lon="12.050971592368946"><ele>462.0</ele><time>2026-04-18T18:18:20Z</time></trkpt><trkpt lat="47.81652547633583" lon="12.050569198023592"><ele>463.0</ele><time>2026-04-18T18:18:21Z</time></trkpt><trkpt lat="47.816574419437714" lon="12.050161106554913"><ele>464.0</ele><time>2026-04-18T18:18:22Z</time></trkpt><trkpt lat="47.816625531113154" lon="12.049752430956374"><ele>464.5</ele><time>2026-04-18T18:18:23Z</time></trkpt><trkpt lat="47.81667575692425" lon="12.04934854080314"><ele>465.0</ele><time>2026-04-18T18:18:24Z</time></trkpt><trkpt lat="47.81672734531116" lon="12.048944018602844"><ele>465.0</ele><time>2026-04-18T18:18:25Z</time></trkpt><trkpt lat="47.81677670117307" lon="12.048532695835009"><ele>465.0</ele><time>2026-04-18T18:18:26Z</time></trkpt><trkpt lat="47.81682484011395" lon="12.048117533186048"><ele>464.5</ele><time>2026-04-18T18:18:27Z</time></trkpt><trkpt lat="47.816872121519495" lon="12.047698269077621"><ele>464.0</ele><time>2026-04-18T18:18:28Z</time></trkpt><trkpt lat="47.81691944838185" lon="12.047274555028366"><ele>464.0</ele><time>2026-04-18T18:18:29Z</time></trkpt><trkpt lat="47.8169639554961" lon="12.046848047432626"><ele>464.0</ele><time>2026-04-18T18:18:30Z</time></trkpt><trkpt lat="47.817008432705684" lon="12.046419578842862"><ele>464.5</ele><time>2026-04-18T18:18:31Z</time></trkpt><trkpt lat="47.81705310273858" lon="12.045989564951084"><ele>465.0</ele><time>2026-04-18T18:18:32Z</time></trkpt><trkpt lat="47.817096005165894" lon="12.045556187443081"><ele>466.0</ele><time>2026-04-18T18:18:33Z</time></trkpt><trkpt lat="47.81713347943899" lon="12.045117779536094"><ele>467.0</ele><time>2026-04-18T18:18:34Z</time></trkpt><trkpt lat="47.81716802979656" lon="12.04468126058127"><ele>468.0</ele><time>2026-04-18T18:18:35Z</time></trkpt><trkpt lat="47.81720155084934" lon="12.044252266693512"><ele>469.0</ele><time>2026-04-18T18:18:36Z</time></trkpt><trkpt lat="47.817233074133824" lon="12.043827972714311"><ele>469.0</ele><time>2026-04-18T18:18:37Z</time></trkpt><trkpt lat="47.81726330157572" lon="12.043403817312162"><ele>469.0</ele><time>2026-04-18T18:18:38Z</time></trkpt><trkpt lat="47.81729269195869" lon="12.042976628128775"><ele>471.0</ele><time>2026-04-18T18:18:39Z</time></trkpt><trkpt lat="47.81731998407857" lon="12.042550844966861"><ele>473.0</ele><time>2026-04-18T18:18:40Z</time></trkpt><trkpt lat="47.81734138153614" lon="12.042119802414375"><ele>473.0</ele><time>2026-04-18T18:18:41Z</time></trkpt><trkpt lat="47.81736137733118" lon="12.041686863286712"><ele>473.0</ele><time>2026-04-18T18:18:42Z</time></trkpt><trkpt lat="47.81738273996409" lon="12.041250970486587"><ele>473.0</ele><time>2026-04-18T18:18:43Z</time></trkpt><trkpt lat="47.81740506195301" lon="12.04081162985564"><ele>473.0</ele><time>2026-04-18T18:18:44Z</time></trkpt><trkpt lat="47.81742727831921" lon="12.040362425714578"><ele>471.0</ele><time>2026-04-18T18:18:45Z</time></trkpt><trkpt lat="47.81744817928508" lon="12.039912004328075"><ele>469.0</ele><time>2026-04-18T18:18:46Z</time></trkpt><trkpt lat="47.81746550860624" lon="12.03945910337273"><ele>468.0</ele><time>2026-04-18T18:18:47Z</time></trkpt><trkpt lat="47.81748544085377" lon="12.039006037255156"><ele>467.0</ele><time>2026-04-18T18:18:48Z</time></trkpt><trkpt lat="47.817507746406" lon="12.03855388290317"><ele>467.5</ele><time>2026-04-18T18:18:49Z</time></trkpt><trkpt lat="47.817530290990625" lon="12.038105186813642"><ele>468.0</ele><time>2026-04-18T18:18:50Z</time></trkpt><trkpt lat="47.81755194819748" lon="12.03765282269099"><ele>468.5</ele><time>2026-04-18T18:18:51Z</time></trkpt><trkpt lat="47.81757370182841" lon="12.037198918015667"><ele>469.0</ele><time>2026-04-18T18:18:52Z</time></trkpt><trkpt lat="47.81759564423974" lon="12.036745984354441"><ele>469.0</ele><time>2026-04-18T18:18:53Z</time></trkpt><trkpt lat="47.81761841785695" lon="12.036292598409892"><ele>469.0</ele><time>2026-04-18T18:18:54Z</time></trkpt><trkpt lat="47.8176392939531" lon="12.035839281341433"><ele>471.5</ele><time>2026-04-18T18:18:55Z</time></trkpt><trkpt lat="47.81765960181406" lon="12.035388270858164"><ele>474.0</ele><time>2026-04-18T18:18:56Z</time></trkpt><trkpt lat="47.81767893189925" lon="12.034940840476576"><ele>474.0</ele><time>2026-04-18T18:18:57Z</time></trkpt><trkpt lat="47.81769971686039" lon="12.034506044097617"><ele>474.0</ele><time>2026-04-18T18:18:58Z</time></trkpt><trkpt lat="47.81772083798143" lon="12.034074138370542"><ele>474.0</ele><time>2026-04-18T18:18:59Z</time></trkpt><trkpt lat="47.81774071537629" lon="12.033637196962045"><ele>474.0</ele><time>2026-04-18T18:19:00Z</time></trkpt><trkpt lat="47.81776191593534" lon="12.033193366648632"><ele>473.5</ele><time>2026-04-18T18:19:01Z</time></trkpt><trkpt lat="47.81778365640481" lon="12.032750107681215"><ele>473.0</ele><time>2026-04-18T18:19:02Z</time></trkpt><trkpt lat="47.81780618919232" lon="12.032309868981224"><ele>474.0</ele><time>2026-04-18T18:19:03Z</time></trkpt><trkpt lat="47.81782829186493" lon="12.03187223767196"><ele>475.0</ele><time>2026-04-18T18:19:04Z</time></trkpt><trkpt lat="47.817852369667335" lon="12.031438363153715"><ele>475.5</ele><time>2026-04-18T18:19:05Z</time></trkpt><trkpt lat="47.81788025849597" lon="12.031008943788056"><ele>476.0</ele><time>2026-04-18T18:19:06Z</time></trkpt><trkpt lat="47.81791479485741" lon="12.030577189521594"><ele>476.5</ele><time>2026-04-18T18:19:07Z</time></trkpt><trkpt lat="47.81795510591452" lon="12.030151395753615"><ele>477.0</ele><time>2026-04-18T18:19:08Z</time></trkpt><trkpt lat="47.818001535582255" lon="12.029731535342737"><ele>476.0</ele><time>2026-04-18T18:19:09Z</time></trkpt><trkpt lat="47.818052339925764" lon="12.029314347387"><ele>475.0</ele><time>2026-04-18T18:19:10Z</time></trkpt><trkpt lat="47.81810461427377" lon="12.028909502698067"><ele>474.0</ele><time>2026-04-18T18:19:11Z</time></trkpt><trkpt lat="47.818160942537126" lon="12.028511148510683"><ele>473.0</ele><time>2026-04-18T18:19:12Z</time></trkpt><trkpt lat="47.81822122112632" lon="12.028108910054089"><ele>471.5</ele><time>2026-04-18T18:19:13Z</time></trkpt><trkpt lat="47.81828711166683" lon="12.027695377028396"><ele>470.0</ele><time>2026-04-18T18:19:14Z</time></trkpt><trkpt lat="47.818360627253114" lon="12.027275777702984"><ele>469.5</ele><time>2026-04-18T18:19:15Z</time></trkpt><trkpt lat="47.81843974748435" lon="12.026850789003387"><ele>469.0</ele><time>2026-04-18T18:19:16Z</time></trkpt><trkpt lat="47.818524123742165" lon="12.0264240351809"><ele>468.5</ele><time>2026-04-18T18:19:17Z</time></trkpt><trkpt lat="47.81861249130109" lon="12.025994162085615"><ele>468.0</ele><time>2026-04-18T18:19:18Z</time></trkpt><trkpt lat="47.81870315690135" lon="12.025566382163793"><ele>468.0</ele><time>2026-04-18T18:19:19Z</time></trkpt><trkpt lat="47.818788882391836" lon="12.025150357579816"><ele>468.0</ele><time>2026-04-18T18:19:20Z</time></trkpt><trkpt lat="47.818870029351594" lon="12.024753531690129"><ele>468.0</ele><time>2026-04-18T18:19:21Z</time></trkpt><trkpt lat="47.818948136451475" lon="12.024367665940192"><ele>468.0</ele><time>2026-04-18T18:19:22Z</time></trkpt><trkpt lat="47.8190265132472" lon="12.023989196826005"><ele>468.5</ele><time>2026-04-18T18:19:23Z</time></trkpt><trkpt lat="47.819104004786915" lon="12.023612391693092"><ele>469.0</ele><time>2026-04-18T18:19:24Z</time></trkpt><trkpt lat="47.81918123045833" lon="12.023232547999514"><ele>469.0</ele><time>2026-04-18T18:19:25Z</time></trkpt><trkpt lat="47.81926209849936" lon="12.02285079431205"><ele>469.0</ele><time>2026-04-18T18:19:26Z</time></trkpt><trkpt lat="47.81934194215321" lon="12.022464430919396"><ele>470.5</ele><time>2026-04-18T18:19:27Z</time></trkpt><trkpt lat="47.81942232002649" lon="12.022075711449983"><ele>472.0</ele><time>2026-04-18T18:19:28Z</time></trkpt><trkpt lat="47.81950320476146" lon="12.021685543185788"><ele>470.5</ele><time>2026-04-18T18:19:29Z</time></trkpt><trkpt lat="47.81958397009718" lon="12.021296239278673"><ele>469.0</ele><time>2026-04-18T18:19:30Z</time></trkpt><trkpt lat="47.81966459029613" lon="12.020911353935269"><ele>469.0</ele><time>2026-04-18T18:19:31Z</time></trkpt><trkpt lat="47.81974286680178" lon="12.0205285905138"><ele>469.0</ele><time>2026-04-18T18:19:32Z</time></trkpt><trkpt lat="47.81982038092469" lon="12.020155229708609"><ele>468.5</ele><time>2026-04-18T18:19:33Z</time></trkpt><trkpt lat="47.819896154572554" lon="12.019782865686393"><ele>468.0</ele><time>2026-04-18T18:19:34Z</time></trkpt><trkpt lat="47.81996559825145" lon="12.019408571305883"><ele>468.0</ele><time>2026-04-18T18:19:35Z</time></trkpt><trkpt lat="47.820031274449946" lon="12.019033141496704"><ele>468.0</ele><time>2026-04-18T18:19:36Z</time></trkpt><trkpt lat="47.820093550391746" lon="12.018651890048146"><ele>469.0</ele><time>2026-04-18T18:19:37Z</time></trkpt><trkpt lat="47.82015273578325" lon="12.018267020840025"><ele>470.0</ele><time>2026-04-18T18:19:38Z</time></trkpt><trkpt lat="47.820208254654105" lon="12.017878407205169"><ele>470.0</ele><time>2026-04-18T18:19:39Z</time></trkpt><trkpt lat="47.820261059396586" lon="12.017486760377562"><ele>470.0</ele><time>2026-04-18T18:19:40Z</time></trkpt><trkpt lat="47.82031043931308" lon="12.017090314908698"><ele>470.0</ele><time>2026-04-18T18:19:41Z</time></trkpt><trkpt lat="47.82035796106045" lon="12.01669107438117"><ele>470.0</ele><time>2026-04-18T18:19:42Z</time></trkpt><trkpt lat="47.82039881440474" lon="12.016290392112815"><ele>470.0</ele><time>2026-04-18T18:19:43Z</time></trkpt><trkpt lat="47.8204339886442" lon="12.015888899144917"><ele>470.0</ele><time>2026-04-18T18:19:44Z</time></trkpt><trkpt lat="47.820469576329806" lon="12.015482696915406"><ele>470.0</ele><time>2026-04-18T18:19:45Z</time></trkpt><trkpt lat="47.82050202814221" lon="12.015064023303264"><ele>470.0</ele><time>2026-04-18T18:19:46Z</time></trkpt><trkpt lat="47.82052964617569" lon="12.014636198272786"><ele>470.5</ele><time>2026-04-18T18:19:47Z</time></trkpt><trkpt lat="47.82055671589715" lon="12.014203205124742"><ele>471.0</ele><time>2026-04-18T18:19:48Z</time></trkpt><trkpt lat="47.82058368304244" lon="12.013776947796913"><ele>471.0</ele><time>2026-04-18T18:19:49Z</time></trkpt><trkpt lat="47.82061195850106" lon="12.01335070975364"><ele>471.0</ele><time>2026-04-18T18:19:50Z</time></trkpt><trkpt lat="47.8206379990203" lon="12.012934162087667"><ele>470.5</ele><time>2026-04-18T18:19:51Z</time></trkpt><trkpt lat="47.82066390079592" lon="12.012527616543663"><ele>470.0</ele><time>2026-04-18T18:19:52Z</time></trkpt><trkpt lat="47.82068690336437" lon="12.012126738745854"><ele>470.0</ele><time>2026-04-18T18:19:53Z</time></trkpt><trkpt lat="47.82070692215853" lon="12.011728684836493"><ele>470.0</ele><time>2026-04-18T18:19:54Z</time></trkpt><trkpt lat="47.82072870235523" lon="12.011332987276107"><ele>470.5</ele><time>2026-04-18T18:19:55Z</time></trkpt><trkpt lat="47.82075212596945" lon="12.010938895872872"><ele>471.0</ele><time>2026-04-18T18:19:56Z</time></trkpt><trkpt lat="47.820777553911064" lon="12.010538812028464"><ele>471.0</ele><time>2026-04-18T18:19:57Z</time></trkpt><trkpt lat="47.820802961088624" lon="12.010133328750666"><ele>471.0</ele><time>2026-04-18T18:19:58Z</time></trkpt><trkpt lat="47.82082578380198" lon="12.009728664361484"><ele>471.0</ele><time>2026-04-18T18:19:59Z</time></trkpt><trkpt lat="47.82084558199239" lon="12.009320218742918"><ele>471.0</ele><time>2026-04-18T18:20:00Z</time></trkpt><trkpt lat="47.82086953491963" lon="12.00890780889947"><ele>472.5</ele><time>2026-04-18T18:20:01Z</time></trkpt><trkpt lat="47.82089897532676" lon="12.008488130519568"><ele>474.0</ele><time>2026-04-18T18:20:02Z</time></trkpt><trkpt lat="47.820925376117316" lon="12.008066525544285"><ele>474.0</ele><time>2026-04-18T18:20:03Z</time></trkpt><trkpt lat="47.820951620754975" lon="12.00763597646374"><ele>474.0</ele><time>2026-04-18T18:20:04Z</time></trkpt><trkpt lat="47.82097748849859" lon="12.007194760817866"><ele>473.0</ele><time>2026-04-18T18:20:05Z</time></trkpt><trkpt lat="47.82100400790603" lon="12.006745880640409"><ele>472.0</ele><time>2026-04-18T18:20:06Z</time></trkpt><trkpt lat="47.82103289916677" lon="12.006287544405872"><ele>472.5</ele><time>2026-04-18T18:20:07Z</time></trkpt><trkpt lat="47.82106536646508" lon="12.005811860932997"><ele>473.0</ele><time>2026-04-18T18:20:08Z</time></trkpt><trkpt lat="47.82109672278304" lon="12.00532732252575"><ele>473.0</ele><time>2026-04-18T18:20:09Z</time></trkpt><trkpt lat="47.82112836043003" lon="12.004840497908345"><ele>473.0</ele><time>2026-04-18T18:20:10Z</time></trkpt><trkpt lat="47.821160122002865" lon="12.004362687487044"><ele>473.5</ele><time>2026-04-18T18:20:11Z</time></trkpt><trkpt lat="47.821189371064555" lon="12.003894991249696"><ele>474.0</ele><time>2026-04-18T18:20:12Z</time></trkpt><trkpt lat="47.82121920989924" lon="12.003436791734439"><ele>474.0</ele><time>2026-04-18T18:20:13Z</time></trkpt><trkpt lat="47.821248873655314" lon="12.002988282605296"><ele>474.0</ele><time>2026-04-18T18:20:14Z</time></trkpt><trkpt lat="47.8212754676574" lon="12.002552411642432"><ele>473.5</ele><time>2026-04-18T18:20:15Z</time></trkpt><trkpt lat="47.821304316076606" lon="12.002121090964343"><ele>473.0</ele><time>2026-04-18T18:20:16Z</time></trkpt><trkpt lat="47.8213329171345" lon="12.001694062059581"><ele>473.5</ele><time>2026-04-18T18:20:17Z</time></trkpt><trkpt lat="47.82135955188187" lon="12.001269024554052"><ele>474.0</ele><time>2026-04-18T18:20:18Z</time></trkpt><trkpt lat="47.821385366156676" lon="12.00084702112711"><ele>474.0</ele><time>2026-04-18T18:20:19Z</time></trkpt><trkpt lat="47.82141320301287" lon="12.000427645955096"><ele>474.0</ele><time>2026-04-18T18:20:20Z</time></trkpt><trkpt lat="47.82144062054507" lon="12.000013085447424"><ele>474.0</ele><time>2026-04-18T18:20:21Z</time></trkpt><trkpt lat="47.821467706591925" lon="11.999615125317737"><ele>474.0</ele><time>2026-04-18T18:20:22Z</time></trkpt><trkpt lat="47.82149402031448" lon="11.999227076598448"><ele>473.5</ele><time>2026-04-18T18:20:23Z</time></trkpt><trkpt lat="47.82152034771473" lon="11.998820414366259"><ele>473.0</ele><time>2026-04-18T18:20:24Z</time></trkpt><trkpt lat="47.8215432826544" lon="11.998406444992412"><ele>473.5</ele><time>2026-04-18T18:20:25Z</time></trkpt><trkpt lat="47.821560727747546" lon="11.997977395987515"><ele>474.0</ele><time>2026-04-18T18:20:26Z</time></trkpt><trkpt lat="47.82157842080386" lon="11.9975314447596"><ele>474.5</ele><time>2026-04-18T18:20:27Z</time></trkpt><trkpt lat="47.82160681073411" lon="11.997060478713786"><ele>475.0</ele><time>2026-04-18T18:20:28Z</time></trkpt><trkpt lat="47.8216394814609" lon="11.996571785607697"><ele>475.0</ele><time>2026-04-18T18:20:29Z</time></trkpt><trkpt lat="47.82167209521521" lon="11.996072129300266"><ele>475.0</ele><time>2026-04-18T18:20:30Z</time></trkpt><trkpt lat="47.82170276111617" lon="11.99557485665"><ele>475.5</ele><time>2026-04-18T18:20:31Z</time></trkpt><trkpt lat="47.82173711175035" lon="11.995079229236875"><ele>476.0</ele><time>2026-04-18T18:20:32Z</time></trkpt><trkpt lat="47.8217691519635" lon="11.99457779766383"><ele>476.5</ele><time>2026-04-18T18:20:33Z</time></trkpt><trkpt lat="47.8218034366288" lon="11.994070163419025"><ele>477.0</ele><time>2026-04-18T18:20:34Z</time></trkpt><trkpt lat="47.82183780301512" lon="11.993553799715635"><ele>477.5</ele><time>2026-04-18T18:20:35Z</time></trkpt><trkpt lat="47.821870379854374" lon="11.993036216205931"><ele>478.0</ele><time>2026-04-18T18:20:36Z</time></trkpt><trkpt lat="47.82190244668061" lon="11.992523902526287"><ele>478.5</ele><time>2026-04-18T18:20:37Z</time></trkpt><trkpt lat="47.8219376157048" lon="11.9920104780581"><ele>479.0</ele><time>2026-04-18T18:20:38Z</time></trkpt><trkpt lat="47.82197475791346" lon="11.991487575031595"><ele>479.5</ele><time>2026-04-18T18:20:39Z</time></trkpt><trkpt lat="47.82200796467902" lon="11.990960096299908"><ele>480.0</ele><time>2026-04-18T18:20:40Z</time></trkpt><trkpt lat="47.822031165369786" lon="11.9904437083706"><ele>480.0</ele><time>2026-04-18T18:20:41Z</time></trkpt><trkpt lat="47.822047734974525" lon="11.989927831694635"><ele>480.0</ele><time>2026-04-18T18:20:42Z</time></trkpt><trkpt lat="47.822056435901054" lon="11.98941042216342"><ele>480.0</ele><time>2026-04-18T18:20:43Z</time></trkpt><trkpt lat="47.822060597391534" lon="11.988894629854665"><ele>480.0</ele><time>2026-04-18T18:20:44Z</time></trkpt><trkpt lat="47.82206410163314" lon="11.98837395728305"><ele>481.0</ele><time>2026-04-18T18:20:45Z</time></trkpt><trkpt lat="47.82206142803081" lon="11.987842534692886"><ele>482.0</ele><time>2026-04-18T18:20:46Z</time></trkpt><trkpt lat="47.82205215559471" lon="11.987300584311631"><ele>483.5</ele><time>2026-04-18T18:20:47Z</time></trkpt><trkpt lat="47.82204485547904" lon="11.986770137879853"><ele>485.0</ele><time>2026-04-18T18:20:48Z</time></trkpt><trkpt lat="47.8220383123892" lon="11.986253245116753"><ele>486.0</ele><time>2026-04-18T18:20:49Z</time></trkpt><trkpt lat="47.82203015607503" lon="11.985725266420074"><ele>487.0</ele><time>2026-04-18T18:20:50Z</time></trkpt><trkpt lat="47.822021846037536" lon="11.985186804289889"><ele>487.0</ele><time>2026-04-18T18:20:51Z</time></trkpt><trkpt lat="47.822010300852604" lon="11.984640704856359"><ele>487.0</ele><time>2026-04-18T18:20:52Z</time></trkpt><trkpt lat="47.82199566381653" lon="11.984086503357174"><ele>487.0</ele><time>2026-04-18T18:20:53Z</time></trkpt><trkpt lat="47.82197862630675" lon="11.983530741901385"><ele>487.0</ele><time>2026-04-18T18:20:54Z</time></trkpt><trkpt lat="47.82196712794515" lon="11.982969662714027"><ele>488.0</ele><time>2026-04-18T18:20:55Z</time></trkpt><trkpt lat="47.8219532523766" lon="11.982400270206956"><ele>489.0</ele><time>2026-04-18T18:20:56Z</time></trkpt><trkpt lat="47.8219388029499" lon="11.981826271711423"><ele>489.5</ele><time>2026-04-18T18:20:57Z</time></trkpt><trkpt lat="47.82192587771114" lon="11.981249260469209"><ele>490.0</ele><time>2026-04-18T18:20:58Z</time></trkpt><trkpt lat="47.82191332629015" lon="11.980668642419722"><ele>491.0</ele><time>2026-04-18T18:20:59Z</time></trkpt><trkpt lat="47.82190027195458" lon="11.980085541231489"><ele>492.0</ele><time>2026-04-18T18:21:00Z</time></trkpt><trkpt lat="47.82188510735405" lon="11.979500780056794"><ele>493.0</ele><time>2026-04-18T18:21:01Z</time></trkpt><trkpt lat="47.82187185271739" lon="11.978913904095938"><ele>494.0</ele><time>2026-04-18T18:21:02Z</time></trkpt><trkpt lat="47.8218576746428" lon="11.978329841424197"><ele>494.0</ele><time>2026-04-18T18:21:03Z</time></trkpt><trkpt lat="47.821845473067356" lon="11.977782256367343"><ele>494.0</ele><time>2026-04-18T18:21:04Z</time></trkpt><trkpt lat="47.82183422510437" lon="11.977267802258387"><ele>496.0</ele><time>2026-04-18T18:21:05Z</time></trkpt><trkpt lat="47.82182020537119" lon="11.976760870409153"><ele>498.0</ele><time>2026-04-18T18:21:06Z</time></trkpt><trkpt lat="47.821810501141336" lon="11.9762621927596"><ele>501.0</ele><time>2026-04-18T18:21:07Z</time></trkpt><trkpt lat="47.82179775987232" lon="11.975769991319092"><ele>504.0</ele><time>2026-04-18T18:21:08Z</time></trkpt><trkpt lat="47.82178726797975" lon="11.975289300003922"><ele>504.5</ele><time>2026-04-18T18:21:09Z</time></trkpt><trkpt lat="47.821776336465135" lon="11.974804873903752"><ele>505.0</ele><time>2026-04-18T18:21:10Z</time></trkpt><trkpt lat="47.821767941051" lon="11.974327880872623"><ele>503.5</ele><time>2026-04-18T18:21:11Z</time></trkpt><trkpt lat="47.82176296866129" lon="11.97386082274878"><ele>502.0</ele><time>2026-04-18T18:21:12Z</time></trkpt><trkpt lat="47.82176842418527" lon="11.973397139468876"><ele>502.0</ele><time>2026-04-18T18:21:13Z</time></trkpt><trkpt lat="47.82178265651332" lon="11.97293491126209"><ele>502.0</ele><time>2026-04-18T18:21:14Z</time></trkpt><trkpt lat="47.82180876963825" lon="11.972475902536809"><ele>502.0</ele><time>2026-04-18T18:21:15Z</time></trkpt><trkpt lat="47.821843503454375" lon="11.972012513543818"><ele>502.0</ele><time>2026-04-18T18:21:16Z</time></trkpt><trkpt lat="47.82188396172832" lon="11.9715479023884"><ele>502.0</ele><time>2026-04-18T18:21:17Z</time></trkpt><trkpt lat="47.82193715801284" lon="11.971088004163635"><ele>502.0</ele><time>2026-04-18T18:21:18Z</time></trkpt><trkpt lat="47.82199436112556" lon="11.970637706044466"><ele>503.0</ele><time>2026-04-18T18:21:19Z</time></trkpt><trkpt lat="47.82205829696441" lon="11.970197791946491"><ele>504.0</ele><time>2026-04-18T18:21:20Z</time></trkpt><trkpt lat="47.82212675833826" lon="11.969766314920786"><ele>505.0</ele><time>2026-04-18T18:21:21Z</time></trkpt><trkpt lat="47.82220072911892" lon="11.969340541725165"><ele>506.0</ele><time>2026-04-18T18:21:22Z</time></trkpt><trkpt lat="47.82228326496078" lon="11.96892328806477"><ele>507.0</ele><time>2026-04-18T18:21:23Z</time></trkpt><trkpt lat="47.822372987304526" lon="11.968508550522545"><ele>508.0</ele><time>2026-04-18T18:21:24Z</time></trkpt><trkpt lat="47.8224733093832" lon="11.968101724715911"><ele>509.0</ele><time>2026-04-18T18:21:25Z</time></trkpt><trkpt lat="47.8225842263127" lon="11.967697185489346"><ele>510.0</ele><time>2026-04-18T18:21:26Z</time></trkpt><trkpt lat="47.822702577532965" lon="11.967291226859038"><ele>513.5</ele><time>2026-04-18T18:21:27Z</time></trkpt><trkpt lat="47.8228276429931" lon="11.96688941986463"><ele>517.0</ele><time>2026-04-18T18:21:28Z</time></trkpt><trkpt lat="47.82296061493123" lon="11.966490397917859"><ele>517.0</ele><time>2026-04-18T18:21:29Z</time></trkpt><trkpt lat="47.823100994393144" lon="11.96609838094926"><ele>517.0</ele><time>2026-04-18T18:21:30Z</time></trkpt><trkpt lat="47.82324878910449" lon="11.965715446147852"><ele>517.0</ele><time>2026-04-18T18:21:31Z</time></trkpt><trkpt lat="47.82340955121566" lon="11.965343109568337"><ele>517.0</ele><time>2026-04-18T18:21:32Z</time></trkpt><trkpt lat="47.823578435437994" lon="11.964977491334057"><ele>518.5</ele><time>2026-04-18T18:21:33Z</time></trkpt><trkpt lat="47.82375066668639" lon="11.964621276948089"><ele>520.0</ele><time>2026-04-18T18:21:34Z</time></trkpt><trkpt lat="47.82391622041956" lon="11.96426850889063"><ele>519.0</ele><time>2026-04-18T18:21:35Z</time></trkpt><trkpt lat="47.82407695786702" lon="11.96391660312306"><ele>518.0</ele><time>2026-04-18T18:21:36Z</time></trkpt><trkpt lat="47.82423527229602" lon="11.963566570119983"><ele>520.0</ele><time>2026-04-18T18:21:37Z</time></trkpt><trkpt lat="47.824395324713805" lon="11.963222542301057"><ele>522.0</ele><time>2026-04-18T18:21:38Z</time></trkpt><trkpt lat="47.82455500250861" lon="11.962881291842201"><ele>522.0</ele><time>2026-04-18T18:21:39Z</time></trkpt><trkpt lat="47.824711852362825" lon="11.962542595249554"><ele>522.0</ele><time>2026-04-18T18:21:40Z</time></trkpt><trkpt lat="47.82486454323783" lon="11.962209418312433"><ele>520.5</ele><time>2026-04-18T18:21:41Z</time></trkpt><trkpt lat="47.82501666559481" lon="11.961885777609323"><ele>519.0</ele><time>2026-04-18T18:21:42Z</time></trkpt><trkpt lat="47.825164067377855" lon="11.961567638713023"><ele>518.0</ele><time>2026-04-18T18:21:43Z</time></trkpt><trkpt lat="47.82530278490834" lon="11.961246924779473"><ele>517.0</ele><time>2026-04-18T18:21:44Z</time></trkpt><trkpt lat="47.825438086549944" lon="11.960919374369759"><ele>518.5</ele><time>2026-04-18T18:21:45Z</time></trkpt><trkpt lat="47.825563518405666" lon="11.960577844344423"><ele>520.0</ele><time>2026-04-18T18:21:46Z</time></trkpt><trkpt lat="47.825676892611355" lon="11.960230671767622"><ele>524.5</ele><time>2026-04-18T18:21:47Z</time></trkpt><trkpt lat="47.82578008369079" lon="11.959876883502178"><ele>529.0</ele><time>2026-04-18T18:21:48Z</time></trkpt><trkpt lat="47.82587560852007" lon="11.959524157289419"><ele>532.5</ele><time>2026-04-18T18:21:49Z</time></trkpt><trkpt lat="47.82596328601933" lon="11.959169873932492"><ele>536.0</ele><time>2026-04-18T18:21:50Z</time></trkpt><trkpt lat="47.82604478507402" lon="11.958816668942255"><ele>536.0</ele><time>2026-04-18T18:21:51Z</time></trkpt><trkpt lat="47.8261192442027" lon="11.958466061110917"><ele>536.0</ele><time>2026-04-18T18:21:52Z</time></trkpt><trkpt lat="47.826183481268934" lon="11.958111641469571"><ele>537.5</ele><time>2026-04-18T18:21:53Z</time></trkpt><trkpt lat="47.826237399793825" lon="11.957754061940914"><ele>539.0</ele><time>2026-04-18T18:21:54Z</time></trkpt><trkpt lat="47.82628390747052" lon="11.957386878460678"><ele>540.5</ele><time>2026-04-18T18:21:55Z</time></trkpt><trkpt lat="47.82632696107836" lon="11.957014256406195"><ele>542.0</ele><time>2026-04-18T18:21:56Z</time></trkpt><trkpt lat="47.82637159999898" lon="11.956640395599187"><ele>543.5</ele><time>2026-04-18T18:21:57Z</time></trkpt><trkpt lat="47.826421699038725" lon="11.956267711082246"><ele>545.0</ele><time>2026-04-18T18:21:58Z</time></trkpt><trkpt lat="47.826471398785706" lon="11.955897586680743"><ele>546.0</ele><time>2026-04-18T18:21:59Z</time></trkpt><trkpt lat="47.82652159299216" lon="11.955528519743638"><ele>547.0</ele><time>2026-04-18T18:22:00Z</time></trkpt><trkpt lat="47.82657008420117" lon="11.955159965558503"><ele>547.5</ele><time>2026-04-18T18:22:01Z</time></trkpt><trkpt lat="47.826617627844065" lon="11.954797114179526"><ele>548.0</ele><time>2026-04-18T18:22:02Z</time></trkpt><trkpt lat="47.826663528820774" lon="11.954435150190394"><ele>548.5</ele><time>2026-04-18T18:22:03Z</time></trkpt><trkpt lat="47.82670689602031" lon="11.95407581124539"><ele>549.0</ele><time>2026-04-18T18:22:04Z</time></trkpt><trkpt lat="47.82674863742827" lon="11.953716573943343"><ele>549.5</ele><time>2026-04-18T18:22:05Z</time></trkpt><trkpt lat="47.82679092434985" lon="11.95335624719498"><ele>550.0</ele><time>2026-04-18T18:22:06Z</time></trkpt><trkpt lat="47.82683570237878" lon="11.952996054301044"><ele>550.0</ele><time>2026-04-18T18:22:07Z</time></trkpt><trkpt lat="47.82688246677962" lon="11.95263522081213"><ele>550.0</ele><time>2026-04-18T18:22:08Z</time></trkpt><trkpt lat="47.826926945272625" lon="11.952273389150923"><ele>551.5</ele><time>2026-04-18T18:22:09Z</time></trkpt><trkpt lat="47.82697076722802" lon="11.951914144737286"><ele>553.0</ele><time>2026-04-18T18:22:10Z</time></trkpt><trkpt lat="47.827016862724136" lon="11.951557147191927"><ele>554.0</ele><time>2026-04-18T18:22:11Z</time></trkpt><trkpt lat="47.82706236470544" lon="11.951203635532632"><ele>555.0</ele><time>2026-04-18T18:22:12Z</time></trkpt><trkpt lat="47.82710745164787" lon="11.950855416552413"><ele>555.5</ele><time>2026-04-18T18:22:13Z</time></trkpt><trkpt lat="47.82715353664375" lon="11.950509619727113"><ele>556.0</ele><time>2026-04-18T18:22:14Z</time></trkpt><trkpt lat="47.82719740768828" lon="11.950165172916035"><ele>556.0</ele><time>2026-04-18T18:22:15Z</time></trkpt><trkpt lat="47.82723904055186" lon="11.949821826568854"><ele>556.0</ele><time>2026-04-18T18:22:16Z</time></trkpt><trkpt lat="47.82727851907518" lon="11.94948239371261"><ele>555.5</ele><time>2026-04-18T18:22:17Z</time></trkpt><trkpt lat="47.82731517443087" lon="11.949147131196007"><ele>555.0</ele><time>2026-04-18T18:22:18Z</time></trkpt><trkpt lat="47.82734492028418" lon="11.948813883924949"><ele>555.0</ele><time>2026-04-18T18:22:19Z</time></trkpt><trkpt lat="47.82736850079509" lon="11.94848285956193"><ele>555.0</ele><time>2026-04-18T18:22:20Z</time></trkpt><trkpt lat="47.82738272676666" lon="11.948149539827467"><ele>555.0</ele><time>2026-04-18T18:22:21Z</time></trkpt><trkpt lat="47.82738925327316" lon="11.947815447354358"><ele>560.0</ele><time>2026-04-18T18:22:22Z</time></trkpt><trkpt lat="47.8273904879317" lon="11.947477927811246"><ele>565.0</ele><time>2026-04-18T18:22:23Z</time></trkpt><trkpt lat="47.82738628621037" lon="11.947127582848351"><ele>565.0</ele><time>2026-04-18T18:22:24Z</time></trkpt><trkpt lat="47.827371429785416" lon="11.946786309701476"><ele>565.0</ele><time>2026-04-18T18:22:25Z</time></trkpt><trkpt lat="47.827350179714266" lon="11.946445107258514"><ele>567.5</ele><time>2026-04-18T18:22:26Z</time></trkpt><trkpt lat="47.82731967391583" lon="11.94610367980808"><ele>570.0</ele><time>2026-04-18T18:22:27Z</time></trkpt><trkpt lat="47.827281372109795" lon="11.945764965184052"><ele>571.0</ele><time>2026-04-18T18:22:28Z</time></trkpt><trkpt lat="47.8272345444167" lon="11.945429946247769"><ele>572.0</ele><time>2026-04-18T18:22:29Z</time></trkpt><trkpt lat="47.82718169121377" lon="11.94509421297802"><ele>571.0</ele><time>2026-04-18T18:22:30Z</time></trkpt><trkpt lat="47.82712256842889" lon="11.944760464332106"><ele>570.0</ele><time>2026-04-18T18:22:31Z</time></trkpt><trkpt lat="47.827061673911395" lon="11.944431601202742"><ele>569.5</ele><time>2026-04-18T18:22:32Z</time></trkpt><trkpt lat="47.82699356727148" lon="11.94410935139618"><ele>569.0</ele><time>2026-04-18T18:22:33Z</time></trkpt><trkpt lat="47.82691440920652" lon="11.943788559843993"><ele>569.0</ele><time>2026-04-18T18:22:34Z</time></trkpt><trkpt lat="47.82682917682801" lon="11.943473542407762"><ele>569.0</ele><time>2026-04-18T18:22:35Z</time></trkpt><trkpt lat="47.826737784682045" lon="11.943162480052345"><ele>570.5</ele><time>2026-04-18T18:22:36Z</time></trkpt><trkpt lat="47.82663967427113" lon="11.942855532953734"><ele>572.0</ele><time>2026-04-18T18:22:37Z</time></trkpt><trkpt lat="47.82653587029775" lon="11.942550574833627"><ele>572.5</ele><time>2026-04-18T18:22:38Z</time></trkpt><trkpt lat="47.82642606472855" lon="11.94224980848439"><ele>573.0</ele><time>2026-04-18T18:22:39Z</time></trkpt><trkpt lat="47.82630710417532" lon="11.941957122499208"><ele>574.0</ele><time>2026-04-18T18:22:40Z</time></trkpt><trkpt lat="47.82618227439669" lon="11.94166753063545"><ele>575.0</ele><time>2026-04-18T18:22:41Z</time></trkpt><trkpt lat="47.82605063571866" lon="11.941383628151142"><ele>577.5</ele><time>2026-04-18T18:22:42Z</time></trkpt><trkpt lat="47.82591222541058" lon="11.941110911125891"><ele>580.0</ele><time>2026-04-18T18:22:43Z</time></trkpt><trkpt lat="47.825765174272895" lon="11.940845474414829"><ele>581.0</ele><time>2026-04-18T18:22:44Z</time></trkpt><trkpt lat="47.825612256615415" lon="11.94058481443209"><ele>582.0</ele><time>2026-04-18T18:22:45Z</time></trkpt><trkpt lat="47.82545085499237" lon="11.940316821483181"><ele>587.0</ele><time>2026-04-18T18:22:46Z</time></trkpt><trkpt lat="47.82527636495216" lon="11.940038179122414"><ele>592.0</ele><time>2026-04-18T18:22:47Z</time></trkpt><trkpt lat="47.825096798131334" lon="11.939749721121977"><ele>592.0</ele><time>2026-04-18T18:22:48Z</time></trkpt><trkpt lat="47.824918811947725" lon="11.939466204444882"><ele>592.0</ele><time>2026-04-18T18:22:49Z</time></trkpt><trkpt lat="47.82473898958026" lon="11.939183006633517"><ele>601.5</ele><time>2026-04-18T18:22:50Z</time></trkpt><trkpt lat="47.824564076482936" lon="11.938903185536955"><ele>611.0</ele><time>2026-04-18T18:22:51Z</time></trkpt><trkpt lat="47.82439071060161" lon="11.938613989985889"><ele>605.0</ele><time>2026-04-18T18:22:52Z</time></trkpt><trkpt lat="47.82421930012545" lon="11.938328555270644"><ele>599.0</ele><time>2026-04-18T18:22:53Z</time></trkpt><trkpt lat="47.82404833322159" lon="11.938053858255623"><ele>599.0</ele><time>2026-04-18T18:22:54Z</time></trkpt><trkpt lat="47.82388355385745" lon="11.937785014337367"><ele>599.0</ele><time>2026-04-18T18:22:55Z</time></trkpt><trkpt lat="47.823725268424084" lon="11.937515612448207"><ele>602.0</ele><time>2026-04-18T18:22:56Z</time></trkpt><trkpt lat="47.8235761432532" lon="11.937244366252509"><ele>605.0</ele><time>2026-04-18T18:22:57Z</time></trkpt><trkpt lat="47.8234384528459" lon="11.936971855065307"><ele>608.5</ele><time>2026-04-18T18:22:58Z</time></trkpt><trkpt lat="47.82331048281373" lon="11.93669151056557"><ele>612.0</ele><time>2026-04-18T18:22:59Z</time></trkpt><trkpt lat="47.82318793829893" lon="11.936403388185848"><ele>612.0</ele><time>2026-04-18T18:23:00Z</time></trkpt><trkpt lat="47.823071109248275" lon="11.936108786584423"><ele>612.0</ele><time>2026-04-18T18:23:01Z</time></trkpt><trkpt lat="47.8229587002083" lon="11.935807127317334"><ele>617.5</ele><time>2026-04-18T18:23:02Z</time></trkpt><trkpt lat="47.82285283967597" lon="11.935498871784509"><ele>623.0</ele><time>2026-04-18T18:23:03Z</time></trkpt><trkpt lat="47.82275260667879" lon="11.935185284939047"><ele>624.0</ele><time>2026-04-18T18:23:04Z</time></trkpt><trkpt lat="47.82265714197909" lon="11.934866436994554"><ele>625.0</ele><time>2026-04-18T18:23:05Z</time></trkpt><trkpt lat="47.822569040239" lon="11.93454598607896"><ele>625.0</ele><time>2026-04-18T18:23:06Z</time></trkpt><trkpt lat="47.82248765748012" lon="11.934224242093409"><ele>625.0</ele><time>2026-04-18T18:23:07Z</time></trkpt><trkpt lat="47.82241410582267" lon="11.93389888305252"><ele>628.5</ele><time>2026-04-18T18:23:08Z</time></trkpt><trkpt lat="47.822348502781594" lon="11.933572885592529"><ele>632.0</ele><time>2026-04-18T18:23:09Z</time></trkpt><trkpt lat="47.82228814563864" lon="11.933246683159044"><ele>633.5</ele><time>2026-04-18T18:23:10Z</time></trkpt><trkpt lat="47.82223789972267" lon="11.932912141854388"><ele>635.0</ele><time>2026-04-18T18:23:11Z</time></trkpt><trkpt lat="47.82219414718123" lon="11.932571569191335"><ele>636.5</ele><time>2026-04-18T18:23:12Z</time></trkpt><trkpt lat="47.822156760829245" lon="11.932223570063552"><ele>638.0</ele><time>2026-04-18T18:23:13Z</time></trkpt><trkpt lat="47.82212943021176" lon="11.931877791585523"><ele>639.3333333333333</ele><time>2026-04-18T18:23:14Z</time></trkpt><trkpt lat="47.82210685840833" lon="11.931552309838098"><ele>640.6666666666666</ele><time>2026-04-18T18:23:15Z</time></trkpt><trkpt lat="47.8220890205587" lon="11.931228287336372"><ele>642.0</ele><time>2026-04-18T18:23:16Z</time></trkpt><trkpt lat="47.822066706096955" lon="11.93088372699372"><ele>645.0</ele><time>2026-04-18T18:23:17Z</time></trkpt><trkpt lat="47.82208616417007" lon="11.93055531256356"><ele>648.0</ele><time>2026-04-18T18:23:18Z</time></trkpt><trkpt lat="47.82209089898504" lon="11.930213855712182"><ele>649.0</ele><time>2026-04-18T18:23:19Z</time></trkpt><trkpt lat="47.82209386360112" lon="11.9298720589396"><ele>650.0</ele><time>2026-04-18T18:23:20Z</time></trkpt><trkpt lat="47.82211028162473" lon="11.929535557388588"><ele>651.0</ele><time>2026-04-18T18:23:21Z</time></trkpt><trkpt lat="47.82213310066008" lon="11.92920704564209"><ele>652.0</ele><time>2026-04-18T18:23:22Z</time></trkpt><trkpt lat="47.82216329774511" lon="11.928874408893616"><ele>653.0</ele><time>2026-04-18T18:23:23Z</time></trkpt><trkpt lat="47.822200416823954" lon="11.928538241062128"><ele>654.0</ele><time>2026-04-18T18:23:24Z</time></trkpt><trkpt lat="47.82224907803919" lon="11.928210469614655"><ele>655.0</ele><time>2026-04-18T18:23:25Z</time></trkpt><trkpt lat="47.82230470939623" lon="11.92787345641104"><ele>656.5</ele><time>2026-04-18T18:23:26Z</time></trkpt><trkpt lat="47.822373445053344" lon="11.927555642517019"><ele>658.0</ele><time>2026-04-18T18:23:27Z</time></trkpt><trkpt lat="47.82244833722617" lon="11.927228058075398"><ele>658.0</ele><time>2026-04-18T18:23:28Z</time></trkpt><trkpt lat="47.82253759047255" lon="11.92691385138925"><ele>658.0</ele><time>2026-04-18T18:23:29Z</time></trkpt><trkpt lat="47.82262869591646" lon="11.926601608185097"><ele>665.5</ele><time>2026-04-18T18:23:30Z</time></trkpt><trkpt lat="47.822727366028026" lon="11.926305158775296"><ele>673.0</ele><time>2026-04-18T18:23:31Z</time></trkpt><trkpt lat="47.82283757941417" lon="11.925998600753918"><ele>672.0</ele><time>2026-04-18T18:23:32Z</time></trkpt><trkpt lat="47.8229565812094" lon="11.925691978767697"><ele>671.0</ele><time>2026-04-18T18:23:33Z</time></trkpt><trkpt lat="47.82308136304918" lon="11.925389602283657"><ele>671.0</ele><time>2026-04-18T18:23:34Z</time></trkpt><trkpt lat="47.823208812455384" lon="11.925092319849401"><ele>671.0</ele><time>2026-04-18T18:23:35Z</time></trkpt><trkpt lat="47.82334146463832" lon="11.924803131321354"><ele>671.0</ele><time>2026-04-18T18:23:36Z</time></trkpt><trkpt lat="47.82347909616115" lon="11.92452105796654"><ele>671.0</ele><time>2026-04-18T18:23:37Z</time></trkpt><trkpt lat="47.823625111270815" lon="11.924241257271389"><ele>677.0</ele><time>2026-04-18T18:23:38Z</time></trkpt><trkpt lat="47.823777507830386" lon="11.923963967964426"><ele>683.0</ele><time>2026-04-18T18:23:39Z</time></trkpt><trkpt lat="47.823927523525484" lon="11.923682668389715"><ele>683.0</ele><time>2026-04-18T18:23:40Z</time></trkpt><trkpt lat="47.82407854461733" lon="11.923402348266238"><ele>683.0</ele><time>2026-04-18T18:23:41Z</time></trkpt><trkpt lat="47.82422968554612" lon="11.923122257659946"><ele>684.5</ele><time>2026-04-18T18:23:42Z</time></trkpt><trkpt lat="47.82438110760041" lon="11.922846268968918"><ele>686.0</ele><time>2026-04-18T18:23:43Z</time></trkpt><trkpt lat="47.82453260825658" lon="11.922571308725827"><ele>687.5</ele><time>2026-04-18T18:23:44Z</time></trkpt><trkpt lat="47.82468531925886" lon="11.922297298077288"><ele>689.0</ele><time>2026-04-18T18:23:45Z</time></trkpt><trkpt lat="47.824837001943294" lon="11.922021001898658"><ele>689.0</ele><time>2026-04-18T18:23:46Z</time></trkpt><trkpt lat="47.82498888605614" lon="11.92174324606677"><ele>689.0</ele><time>2026-04-18T18:23:47Z</time></trkpt><trkpt lat="47.82514128670054" lon="11.92146157704476"><ele>693.5</ele><time>2026-04-18T18:23:48Z</time></trkpt><trkpt lat="47.825291372276745" lon="11.921179971734599"><ele>698.0</ele><time>2026-04-18T18:23:49Z</time></trkpt><trkpt lat="47.82544329888723" lon="11.920902529293718"><ele>697.0</ele><time>2026-04-18T18:23:50Z</time></trkpt><trkpt lat="47.82559443010715" lon="11.920625086433745"><ele>696.0</ele><time>2026-04-18T18:23:51Z</time></trkpt><trkpt lat="47.82574309852371" lon="11.920348407913286"><ele>696.0</ele><time>2026-04-18T18:23:52Z</time></trkpt><trkpt lat="47.82589036572179" lon="11.920080586923282"><ele>696.0</ele><time>2026-04-18T18:23:53Z</time></trkpt><trkpt lat="47.82603187302843" lon="11.919820202925784"><ele>698.0</ele><time>2026-04-18T18:23:54Z</time></trkpt><trkpt lat="47.82617476644209" lon="11.919558811106276"><ele>700.0</ele><time>2026-04-18T18:23:55Z</time></trkpt><trkpt lat="47.826319484574995" lon="11.919292022089959"><ele>699.0</ele><time>2026-04-18T18:23:56Z</time></trkpt><trkpt lat="47.8264677729484" lon="11.919018203798064"><ele>698.0</ele><time>2026-04-18T18:23:57Z</time></trkpt><trkpt lat="47.82661864311962" lon="11.918740597044732"><ele>698.0</ele><time>2026-04-18T18:23:58Z</time></trkpt><trkpt lat="47.82676998470444" lon="11.918460365620659"><ele>698.0</ele><time>2026-04-18T18:23:59Z</time></trkpt><trkpt lat="47.826922543018505" lon="11.918177084578453"><ele>704.0</ele><time>2026-04-18T18:24:00Z</time></trkpt><trkpt lat="47.82707541430343" lon="11.91789479020781"><ele>710.0</ele><time>2026-04-18T18:24:01Z</time></trkpt><trkpt lat="47.82722712628606" lon="11.917616016948905"><ele>708.0</ele><time>2026-04-18T18:24:02Z</time></trkpt><trkpt lat="47.8273771218504" lon="11.917340848865006"><ele>706.0</ele><time>2026-04-18T18:24:03Z</time></trkpt><trkpt lat="47.827525893887874" lon="11.917062891223054"><ele>710.0</ele><time>2026-04-18T18:24:04Z</time></trkpt><trkpt lat="47.82767435667011" lon="11.916781786748922"><ele>714.0</ele><time>2026-04-18T18:24:05Z</time></trkpt><trkpt lat="47.82782598841661" lon="11.916498267157353"><ele>714.0</ele><time>2026-04-18T18:24:06Z</time></trkpt><trkpt lat="47.827975891468405" lon="11.916217141461063"><ele>714.0</ele><time>2026-04-18T18:24:07Z</time></trkpt><trkpt lat="47.82812448296217" lon="11.91593935532328"><ele>711.0</ele><time>2026-04-18T18:24:08Z</time></trkpt><trkpt lat="47.82827182651525" lon="11.91566582642525"><ele>708.0</ele><time>2026-04-18T18:24:09Z</time></trkpt><trkpt lat="47.82841668288199" lon="11.9153951434683"><ele>711.5</ele><time>2026-04-18T18:24:10Z</time></trkpt><trkpt lat="47.828562719733085" lon="11.915124546929103"><ele>715.0</ele><time>2026-04-18T18:24:11Z</time></trkpt><trkpt lat="47.828710426300546" lon="11.914850491648133"><ele>715.0</ele><time>2026-04-18T18:24:12Z</time></trkpt><trkpt lat="47.82885735278174" lon="11.914577617938068"><ele>715.0</ele><time>2026-04-18T18:24:13Z</time></trkpt><trkpt lat="47.82900270353854" lon="11.91430455066576"><ele>714.0</ele><time>2026-04-18T18:24:14Z</time></trkpt><trkpt lat="47.829150083371424" lon="11.914026082218605"><ele>713.0</ele><time>2026-04-18T18:24:15Z</time></trkpt><trkpt lat="47.82929419843067" lon="11.913744208105351"><ele>717.0</ele><time>2026-04-18T18:24:16Z</time></trkpt><trkpt lat="47.82943177484949" lon="11.913454655706962"><ele>721.0</ele><time>2026-04-18T18:24:17Z</time></trkpt><trkpt lat="47.829561275046146" lon="11.913150311716697"><ele>721.0</ele><time>2026-04-18T18:24:18Z</time></trkpt><trkpt lat="47.82968894020242" lon="11.912837397352261"><ele>721.0</ele><time>2026-04-18T18:24:19Z</time></trkpt><trkpt lat="47.82981115023542" lon="11.912512826948864"><ele>721.0</ele><time>2026-04-18T18:24:20Z</time></trkpt><trkpt lat="47.82992566553666" lon="11.912177167376981"><ele>721.0</ele><time>2026-04-18T18:24:21Z</time></trkpt><trkpt lat="47.83003398096412" lon="11.911833481222613"><ele>720.5</ele><time>2026-04-18T18:24:22Z</time></trkpt><trkpt lat="47.83013572175473" lon="11.91147975259808"><ele>720.0</ele><time>2026-04-18T18:24:23Z</time></trkpt><trkpt lat="47.83022947721736" lon="11.911116175924727"><ele>719.5</ele><time>2026-04-18T18:24:24Z</time></trkpt><trkpt lat="47.8303161860702" lon="11.91074724857542"><ele>719.0</ele><time>2026-04-18T18:24:25Z</time></trkpt><trkpt lat="47.83039241811816" lon="11.910377215184724"><ele>718.5</ele><time>2026-04-18T18:24:26Z</time></trkpt><trkpt lat="47.830457736397314" lon="11.910015016804767"><ele>718.0</ele><time>2026-04-18T18:24:27Z</time></trkpt><trkpt lat="47.83051399047879" lon="11.909652724445404"><ele>718.0</ele><time>2026-04-18T18:24:28Z</time></trkpt><trkpt lat="47.830561925888894" lon="11.909291987816486"><ele>718.0</ele><time>2026-04-18T18:24:29Z</time></trkpt><trkpt lat="47.83059898264613" lon="11.90892423721138"><ele>718.0</ele><time>2026-04-18T18:24:30Z</time></trkpt><trkpt lat="47.83062639035064" lon="11.90855052404334"><ele>718.0</ele><time>2026-04-18T18:24:31Z</time></trkpt><trkpt lat="47.83064917710347" lon="11.908172982664139"><ele>717.5</ele><time>2026-04-18T18:24:32Z</time></trkpt><trkpt lat="47.83066164483771" lon="11.907808941634002"><ele>717.0</ele><time>2026-04-18T18:24:33Z</time></trkpt><trkpt lat="47.830666186687644" lon="11.907456127008157"><ele>717.0</ele><time>2026-04-18T18:24:34Z</time></trkpt><trkpt lat="47.83066283240669" lon="11.907113071358301"><ele>717.0</ele><time>2026-04-18T18:24:35Z</time></trkpt><trkpt lat="47.8306576388992" lon="11.906753963782048"><ele>717.0</ele><time>2026-04-18T18:24:36Z</time></trkpt><trkpt lat="47.830642017243434" lon="11.906392051632896"><ele>717.0</ele><time>2026-04-18T18:24:37Z</time></trkpt><trkpt lat="47.83061500397491" lon="11.906022960046569"><ele>715.5</ele><time>2026-04-18T18:24:38Z</time></trkpt><trkpt lat="47.830576168209326" lon="11.905645086646167"><ele>714.0</ele><time>2026-04-18T18:24:39Z</time></trkpt><trkpt lat="47.8305236730637" lon="11.90527367635668"><ele>711.5</ele><time>2026-04-18T18:24:40Z</time></trkpt><trkpt lat="47.830467949979564" lon="11.904926581232168"><ele>709.0</ele><time>2026-04-18T18:24:41Z</time></trkpt><trkpt lat="47.830410129328634" lon="11.904585880964413"><ele>709.0</ele><time>2026-04-18T18:24:42Z</time></trkpt><trkpt lat="47.83034362958586" lon="11.904250617895766"><ele>709.0</ele><time>2026-04-18T18:24:43Z</time></trkpt><trkpt lat="47.830275878645395" lon="11.903911078751724"><ele>709.0</ele><time>2026-04-18T18:24:44Z</time></trkpt><trkpt lat="47.830195287023145" lon="11.903578847277847"><ele>709.0</ele><time>2026-04-18T18:24:45Z</time></trkpt><trkpt lat="47.830103893040935" lon="11.903256844739708"><ele>707.5</ele><time>2026-04-18T18:24:46Z</time></trkpt><trkpt lat="47.83001082443411" lon="11.90294464512842"><ele>706.0</ele><time>2026-04-18T18:24:47Z</time></trkpt><trkpt lat="47.829913456571894" lon="11.902637026744127"><ele>704.5</ele><time>2026-04-18T18:24:48Z</time></trkpt><trkpt lat="47.82980527720385" lon="11.902318555206723"><ele>703.0</ele><time>2026-04-18T18:24:49Z</time></trkpt><trkpt lat="47.82969417874353" lon="11.901991604383856"><ele>699.5</ele><time>2026-04-18T18:24:50Z</time></trkpt><trkpt lat="47.829581840298616" lon="11.901657086025171"><ele>696.0</ele><time>2026-04-18T18:24:51Z</time></trkpt><trkpt lat="47.829472807512396" lon="11.90132429389864"><ele>696.0</ele><time>2026-04-18T18:24:52Z</time></trkpt><trkpt lat="47.82936517796889" lon="11.901000304492548"><ele>696.0</ele><time>2026-04-18T18:24:53Z</time></trkpt><trkpt lat="47.82926043538241" lon="11.900681486105086"><ele>695.5</ele><time>2026-04-18T18:24:54Z</time></trkpt><trkpt lat="47.829155700603486" lon="11.90035882344493"><ele>695.0</ele><time>2026-04-18T18:24:55Z</time></trkpt><trkpt lat="47.829053143271146" lon="11.900040236983347"><ele>694.0</ele><time>2026-04-18T18:24:56Z</time></trkpt><trkpt lat="47.8289491280329" lon="11.899725490731464"><ele>693.0</ele><time>2026-04-18T18:24:57Z</time></trkpt><trkpt lat="47.82884143460538" lon="11.899412886257007"><ele>692.0</ele><time>2026-04-18T18:24:58Z</time></trkpt><trkpt lat="47.828731052275735" lon="11.899097167177095"><ele>691.0</ele><time>2026-04-18T18:24:59Z</time></trkpt><trkpt lat="47.828622605876525" lon="11.898774888456016"><ele>691.0</ele><time>2026-04-18T18:25:00Z</time></trkpt><trkpt lat="47.828519322323366" lon="11.898451379954176"><ele>691.0</ele><time>2026-04-18T18:25:01Z</time></trkpt><trkpt lat="47.82842479918165" lon="11.898134082692854"><ele>686.5</ele><time>2026-04-18T18:25:02Z</time></trkpt><trkpt lat="47.82834103479008" lon="11.8978054893861"><ele>682.0</ele><time>2026-04-18T18:25:03Z</time></trkpt><trkpt lat="47.82827427101065" lon="11.897466159772922"><ele>681.0</ele><time>2026-04-18T18:25:04Z</time></trkpt><trkpt lat="47.828217210348924" lon="11.897118983694293"><ele>680.0</ele><time>2026-04-18T18:25:05Z</time></trkpt><trkpt lat="47.82816671999648" lon="11.896763627351836"><ele>680.0</ele><time>2026-04-18T18:25:06Z</time></trkpt><trkpt lat="47.828123893544955" lon="11.89640350444194"><ele>680.0</ele><time>2026-04-18T18:25:07Z</time></trkpt><trkpt lat="47.82808923187797" lon="11.896039163010977"><ele>679.0</ele><time>2026-04-18T18:25:08Z</time></trkpt><trkpt lat="47.828061928013895" lon="11.89567627910402"><ele>678.0</ele><time>2026-04-18T18:25:09Z</time></trkpt><trkpt lat="47.82804108663681" lon="11.895313602357609"><ele>675.5</ele><time>2026-04-18T18:25:10Z</time></trkpt><trkpt lat="47.82803523497881" lon="11.89494827816296"><ele>673.0</ele><time>2026-04-18T18:25:11Z</time></trkpt><trkpt lat="47.82804843703786" lon="11.894579315570729"><ele>672.5</ele><time>2026-04-18T18:25:12Z</time></trkpt><trkpt lat="47.82807477073582" lon="11.894203683394895"><ele>672.0</ele><time>2026-04-18T18:25:13Z</time></trkpt><trkpt lat="47.828113780740075" lon="11.893819073643792"><ele>672.0</ele><time>2026-04-18T18:25:14Z</time></trkpt><trkpt lat="47.828168039501335" lon="11.893434810710495"><ele>672.0</ele><time>2026-04-18T18:25:15Z</time></trkpt><trkpt lat="47.82823585714748" lon="11.89306192349081"><ele>671.5</ele><time>2026-04-18T18:25:16Z</time></trkpt><trkpt lat="47.828309856851895" lon="11.892687563955779"><ele>671.0</ele><time>2026-04-18T18:25:17Z</time></trkpt><trkpt lat="47.82839487003525" lon="11.89232405894383"><ele>671.0</ele><time>2026-04-18T18:25:18Z</time></trkpt><trkpt lat="47.82849158249349" lon="11.891969916282664"><ele>671.0</ele><time>2026-04-18T18:25:19Z</time></trkpt><trkpt lat="47.8286033359944" lon="11.891627140414714"><ele>667.0</ele><time>2026-04-18T18:25:20Z</time></trkpt><trkpt lat="47.8287288184753" lon="11.891298760555667"><ele>663.0</ele><time>2026-04-18T18:25:21Z</time></trkpt><trkpt lat="47.8288630229475" lon="11.890977814495141"><ele>661.0</ele><time>2026-04-18T18:25:22Z</time></trkpt><trkpt lat="47.829005891435266" lon="11.89065723101461"><ele>659.0</ele><time>2026-04-18T18:25:23Z</time></trkpt><trkpt lat="47.82915531618587" lon="11.890344865075777"><ele>660.5</ele><time>2026-04-18T18:25:24Z</time></trkpt><trkpt lat="47.829316956657046" lon="11.890042973440872"><ele>662.0</ele><time>2026-04-18T18:25:25Z</time></trkpt><trkpt lat="47.829478945662224" lon="11.889745782213339"><ele>662.0</ele><time>2026-04-18T18:25:26Z</time></trkpt><trkpt lat="47.82963792795079" lon="11.889449472936901"><ele>662.0</ele><time>2026-04-18T18:25:27Z</time></trkpt><trkpt lat="47.82979907736359" lon="11.88915806410194"><ele>656.5</ele><time>2026-04-18T18:25:28Z</time></trkpt><trkpt lat="47.829962830447975" lon="11.888861261471279"><ele>651.0</ele><time>2026-04-18T18:25:29Z</time></trkpt><trkpt lat="47.830125669944145" lon="11.888563552714405"><ele>642.0</ele><time>2026-04-18T18:25:30Z</time></trkpt><trkpt lat="47.83028727199509" lon="11.888263085396686"><ele>633.0</ele><time>2026-04-18T18:25:31Z</time></trkpt><trkpt lat="47.830446716710775" lon="11.88797135768241"><ele>633.0</ele><time>2026-04-18T18:25:32Z</time></trkpt><trkpt lat="47.83060776073373" lon="11.887680281579208"><ele>633.0</ele><time>2026-04-18T18:25:33Z</time></trkpt><trkpt lat="47.83076809095239" lon="11.887389181362453"><ele>631.0</ele><time>2026-04-18T18:25:34Z</time></trkpt><trkpt lat="47.830927199214855" lon="11.887101785205072"><ele>629.0</ele><time>2026-04-18T18:25:35Z</time></trkpt><trkpt lat="47.83108906055411" lon="11.886813427760302"><ele>625.0</ele><time>2026-04-18T18:25:36Z</time></trkpt><trkpt lat="47.83125400715242" lon="11.886523575555104"><ele>621.0</ele><time>2026-04-18T18:25:37Z</time></trkpt><trkpt lat="47.83142077343434" lon="11.886237430038435"><ele>621.0</ele><time>2026-04-18T18:25:38Z</time></trkpt><trkpt lat="47.83158593096237" lon="11.885956051271426"><ele>621.0</ele><time>2026-04-18T18:25:39Z</time></trkpt><trkpt lat="47.83174517855388" lon="11.885674417964765"><ele>618.5</ele><time>2026-04-18T18:25:40Z</time></trkpt><trkpt lat="47.831898467523686" lon="11.885392098606049"><ele>616.0</ele><time>2026-04-18T18:25:41Z</time></trkpt><trkpt lat="47.832051710813325" lon="11.88510599816618"><ele>616.0</ele><time>2026-04-18T18:25:42Z</time></trkpt><trkpt lat="47.832207982488676" lon="11.884820395548228"><ele>616.0</ele><time>2026-04-18T18:25:43Z</time></trkpt><trkpt lat="47.832364422669805" lon="11.884538390978745"><ele>615.0</ele><time>2026-04-18T18:25:44Z</time></trkpt><trkpt lat="47.83251887620365" lon="11.884257900221938"><ele>614.0</ele><time>2026-04-18T18:25:45Z</time></trkpt><trkpt lat="47.832670193025216" lon="11.88397839871771"><ele>613.5</ele><time>2026-04-18T18:25:46Z</time></trkpt><trkpt lat="47.83281900355661" lon="11.883706766016052"><ele>613.0</ele><time>2026-04-18T18:25:47Z</time></trkpt><trkpt lat="47.832960520152454" lon="11.883439244789468"><ele>612.5</ele><time>2026-04-18T18:25:48Z</time></trkpt><trkpt lat="47.83310595448043" lon="11.883169818449431"><ele>612.0</ele><time>2026-04-18T18:25:49Z</time></trkpt><trkpt lat="47.833256693899976" lon="11.882901456546426"><ele>612.0</ele><time>2026-04-18T18:25:50Z</time></trkpt><trkpt lat="47.83340778689689" lon="11.882629915449664"><ele>612.0</ele><time>2026-04-18T18:25:51Z</time></trkpt><trkpt lat="47.83355690938085" lon="11.882359477310107"><ele>611.5</ele><time>2026-04-18T18:25:52Z</time></trkpt><trkpt lat="47.83370839338144" lon="11.88208944537976"><ele>611.0</ele><time>2026-04-18T18:25:53Z</time></trkpt><trkpt lat="47.833854077980355" lon="11.881819348117457"><ele>612.0</ele><time>2026-04-18T18:25:54Z</time></trkpt><trkpt lat="47.83400077978395" lon="11.881553206753546"><ele>613.0</ele><time>2026-04-18T18:25:55Z</time></trkpt><trkpt lat="47.83414857313794" lon="11.88128677548227"><ele>613.0</ele><time>2026-04-18T18:25:56Z</time></trkpt><trkpt lat="47.834287273041596" lon="11.881025118550806"><ele>613.0</ele><time>2026-04-18T18:25:57Z</time></trkpt><trkpt lat="47.83443112811455" lon="11.880764625635909"><ele>611.0</ele><time>2026-04-18T18:25:58Z</time></trkpt><trkpt lat="47.83457713384126" lon="11.880502295380515"><ele>609.0</ele><time>2026-04-18T18:25:59Z</time></trkpt><trkpt lat="47.83472893233906" lon="11.880229444260427"><ele>608.5</ele><time>2026-04-18T18:26:00Z</time></trkpt><trkpt lat="47.83487933995243" lon="11.879956430782995"><ele>608.0</ele><time>2026-04-18T18:26:01Z</time></trkpt><trkpt lat="47.83502644473344" lon="11.879681875299603"><ele>609.0</ele><time>2026-04-18T18:26:02Z</time></trkpt><trkpt lat="47.835171024659324" lon="11.879410489811736"><ele>610.0</ele><time>2026-04-18T18:26:03Z</time></trkpt><trkpt lat="47.83531570687781" lon="11.879143684717397"><ele>610.0</ele><time>2026-04-18T18:26:04Z</time></trkpt><trkpt lat="47.8354697855651" lon="11.878857424692633"><ele>610.0</ele><time>2026-04-18T18:26:05Z</time></trkpt><trkpt lat="47.835635058923195" lon="11.878556831153512"><ele>610.5</ele><time>2026-04-18T18:26:06Z</time></trkpt><trkpt lat="47.835806589886545" lon="11.878239574359782"><ele>611.0</ele><time>2026-04-18T18:26:07Z</time></trkpt><trkpt lat="47.83599205181599" lon="11.877892361975908"><ele>610.0</ele><time>2026-04-18T18:26:08Z</time></trkpt><trkpt lat="47.83617553578483" lon="11.877541008890203"><ele>609.0</ele><time>2026-04-18T18:26:09Z</time></trkpt><trkpt lat="47.83635891887215" lon="11.877176227886105"><ele>609.0</ele><time>2026-04-18T18:26:10Z</time></trkpt><trkpt lat="47.83656151420581" lon="11.876802664867988"><ele>609.0</ele><time>2026-04-18T18:26:11Z</time></trkpt><trkpt lat="47.83676536239304" lon="11.876413050455438"><ele>608.5</ele><time>2026-04-18T18:26:12Z</time></trkpt><trkpt lat="47.83698015363407" lon="11.876033751320834"><ele>608.0</ele><time>2026-04-18T18:26:13Z</time></trkpt><trkpt lat="47.837171573700765" lon="11.875687966866497"><ele>611.0</ele><time>2026-04-18T18:26:14Z</time></trkpt><trkpt lat="47.83735813836057" lon="11.875345203691934"><ele>614.0</ele><time>2026-04-18T18:26:15Z</time></trkpt><trkpt lat="47.837544385527174" lon="11.875004750103761"><ele>615.0</ele><time>2026-04-18T18:26:16Z</time></trkpt><trkpt lat="47.83772858157343" lon="11.87466533311775"><ele>616.0</ele><time>2026-04-18T18:26:17Z</time></trkpt><trkpt lat="47.83791453340161" lon="11.874328720162442"><ele>620.5</ele><time>2026-04-18T18:26:18Z</time></trkpt><trkpt lat="47.838105910880344" lon="11.873998547293697"><ele>625.0</ele><time>2026-04-18T18:26:19Z</time></trkpt><trkpt lat="47.83830405752469" lon="11.87367695964839"><ele>628.0</ele><time>2026-04-18T18:26:20Z</time></trkpt><trkpt lat="47.83851076012297" lon="11.873371795858606"><ele>631.0</ele><time>2026-04-18T18:26:21Z</time></trkpt><trkpt lat="47.83872527205156" lon="11.873083161513184"><ele>631.0</ele><time>2026-04-18T18:26:22Z</time></trkpt><trkpt lat="47.838945700904034" lon="11.87280765255526"><ele>631.0</ele><time>2026-04-18T18:26:23Z</time></trkpt><trkpt lat="47.83917174710778" lon="11.87254897658901"><ele>632.5</ele><time>2026-04-18T18:26:24Z</time></trkpt><trkpt lat="47.83939598567274" lon="11.872314547061888"><ele>634.0</ele><time>2026-04-18T18:26:25Z</time></trkpt><trkpt lat="47.8396154697546" lon="11.872096850500048"><ele>634.0</ele><time>2026-04-18T18:26:26Z</time></trkpt><trkpt lat="47.83984352245675" lon="11.871870732342014"><ele>634.0</ele><time>2026-04-18T18:26:27Z</time></trkpt><trkpt lat="47.84008161638039" lon="11.871638727689273"><ele>633.5</ele><time>2026-04-18T18:26:28Z</time></trkpt><trkpt lat="47.84032417747935" lon="11.871400522572573"><ele>633.0</ele><time>2026-04-18T18:26:29Z</time></trkpt><trkpt lat="47.84056786972032" lon="11.871160225039697"><ele>636.5</ele><time>2026-04-18T18:26:30Z</time></trkpt><trkpt lat="47.84081466788734" lon="11.87091844674266"><ele>640.0</ele><time>2026-04-18T18:26:31Z</time></trkpt><trkpt lat="47.84106304697136" lon="11.870675704813673"><ele>640.0</ele><time>2026-04-18T18:26:32Z</time></trkpt><trkpt lat="47.84131704186607" lon="11.870424360753578"><ele>640.0</ele><time>2026-04-18T18:26:33Z</time></trkpt><trkpt lat="47.84157187795749" lon="11.87017092685003"><ele>641.5</ele><time>2026-04-18T18:26:34Z</time></trkpt><trkpt lat="47.84182452527112" lon="11.869919954557453"><ele>643.0</ele><time>2026-04-18T18:26:35Z</time></trkpt><trkpt lat="47.84207580463007" lon="11.869674784789686"><ele>643.0</ele><time>2026-04-18T18:26:36Z</time></trkpt><trkpt lat="47.84232937165057" lon="11.86944049868728"><ele>643.0</ele><time>2026-04-18T18:26:37Z</time></trkpt><trkpt lat="47.84258713582961" lon="11.869220762781262"><ele>648.0</ele><time>2026-04-18T18:26:38Z</time></trkpt><trkpt lat="47.84284583669836" lon="11.86901777563223"><ele>653.0</ele><time>2026-04-18T18:26:39Z</time></trkpt><trkpt lat="47.84310665451964" lon="11.868826254780661"><ele>653.0</ele><time>2026-04-18T18:26:40Z</time></trkpt><trkpt lat="47.84336924749189" lon="11.86864135588058"><ele>653.0</ele><time>2026-04-18T18:26:41Z</time></trkpt><trkpt lat="47.84364550169151" lon="11.868454723072917"><ele>651.0</ele><time>2026-04-18T18:26:42Z</time></trkpt><trkpt lat="47.843933555060595" lon="11.868274087512976"><ele>649.0</ele><time>2026-04-18T18:26:43Z</time></trkpt><trkpt lat="47.84421843633306" lon="11.868111736029496"><ele>656.0</ele><time>2026-04-18T18:26:44Z</time></trkpt><trkpt lat="47.84450008789868" lon="11.867959039882258"><ele>663.0</ele><time>2026-04-18T18:26:45Z</time></trkpt><trkpt lat="47.84478609235423" lon="11.867809394080448"><ele>663.0</ele><time>2026-04-18T18:26:46Z</time></trkpt><trkpt lat="47.84507725671906" lon="11.867667306594523"><ele>663.0</ele><time>2026-04-18T18:26:47Z</time></trkpt><trkpt lat="47.84537230861566" lon="11.867539184068036"><ele>664.5</ele><time>2026-04-18T18:26:48Z</time></trkpt><trkpt lat="47.8456671466591" lon="11.867427626294475"><ele>666.0</ele><time>2026-04-18T18:26:49Z</time></trkpt><trkpt lat="47.84596188045182" lon="11.867318382020896"><ele>670.0</ele><time>2026-04-18T18:26:50Z</time></trkpt><trkpt lat="47.84625383048556" lon="11.867212330367705"><ele>674.0</ele><time>2026-04-18T18:26:51Z</time></trkpt><trkpt lat="47.846544754407795" lon="11.867108191632976"><ele>671.0</ele><time>2026-04-18T18:26:52Z</time></trkpt><trkpt lat="47.846835682545695" lon="11.867000252544496"><ele>668.0</ele><time>2026-04-18T18:26:53Z</time></trkpt><trkpt lat="47.84713202206191" lon="11.866881528075947"><ele>665.5</ele><time>2026-04-18T18:26:54Z</time></trkpt><trkpt lat="47.847429769706594" lon="11.866755986602154"><ele>663.0</ele><time>2026-04-18T18:26:55Z</time></trkpt><trkpt lat="47.84771908389866" lon="11.86662294998898"><ele>663.0</ele><time>2026-04-18T18:26:56Z</time></trkpt><trkpt lat="47.84800979769205" lon="11.866492437761563"><ele>663.0</ele><time>2026-04-18T18:26:57Z</time></trkpt><trkpt lat="47.84829980941381" lon="11.866343638606509"><ele>665.0</ele><time>2026-04-18T18:26:58Z</time></trkpt><trkpt lat="47.848588529442594" lon="11.866184061108411"><ele>667.0</ele><time>2026-04-18T18:26:59Z</time></trkpt><trkpt lat="47.8488733347334" lon="11.866014925583384"><ele>666.0</ele><time>2026-04-18T18:27:00Z</time></trkpt><trkpt lat="47.849153963535066" lon="11.86583570658039"><ele>665.0</ele><time>2026-04-18T18:27:01Z</time></trkpt><trkpt lat="47.84943201206036" lon="11.865649741791607"><ele>665.0</ele><time>2026-04-18T18:27:02Z</time></trkpt><trkpt lat="47.84970490588185" lon="11.865455207444006"><ele>665.0</ele><time>2026-04-18T18:27:03Z</time></trkpt><trkpt lat="47.84997861887946" lon="11.865252349967676"><ele>663.5</ele><time>2026-04-18T18:27:04Z</time></trkpt><trkpt lat="47.85024842486436" lon="11.865039267062627"><ele>662.0</ele><time>2026-04-18T18:27:05Z</time></trkpt><trkpt lat="47.85051475907679" lon="11.864818675522118"><ele>662.0</ele><time>2026-04-18T18:27:06Z</time></trkpt><trkpt lat="47.85077352021657" lon="11.864585814090749"><ele>662.0</ele><time>2026-04-18T18:27:07Z</time></trkpt><trkpt lat="47.8510364862648" lon="11.864346924952311"><ele>659.5</ele><time>2026-04-18T18:27:08Z</time></trkpt><trkpt lat="47.85128788634578" lon="11.86410243249339"><ele>657.0</ele><time>2026-04-18T18:27:09Z</time></trkpt><trkpt lat="47.85153457992469" lon="11.863851000771936"><ele>657.0</ele><time>2026-04-18T18:27:10Z</time></trkpt><trkpt lat="47.85177782726836" lon="11.863590452451401"><ele>657.0</ele><time>2026-04-18T18:27:11Z</time></trkpt><trkpt lat="47.85201781410384" lon="11.86332734414895"><ele>657.0</ele><time>2026-04-18T18:27:12Z</time></trkpt><trkpt lat="47.852250037407465" lon="11.863066748047023"><ele>657.0</ele><time>2026-04-18T18:27:13Z</time></trkpt><trkpt lat="47.85248665548945" lon="11.862807399419097"><ele>659.5</ele><time>2026-04-18T18:27:14Z</time></trkpt><trkpt lat="47.85272432831382" lon="11.862551731347025"><ele>662.0</ele><time>2026-04-18T18:27:15Z</time></trkpt><trkpt lat="47.85295858257657" lon="11.862297483744646"><ele>662.0</ele><time>2026-04-18T18:27:16Z</time></trkpt><trkpt lat="47.853198701926495" lon="11.862038258690385"><ele>662.0</ele><time>2026-04-18T18:27:17Z</time></trkpt><trkpt lat="47.85343672108539" lon="11.86177677908487"><ele>664.0</ele><time>2026-04-18T18:27:18Z</time></trkpt><trkpt lat="47.853677650953166" lon="11.861520567217491"><ele>666.0</ele><time>2026-04-18T18:27:19Z</time></trkpt><trkpt lat="47.85391896592401" lon="11.861266557509861"><ele>666.0</ele><time>2026-04-18T18:27:20Z</time></trkpt><trkpt lat="47.854161959200006" lon="11.861008349622667"><ele>666.0</ele><time>2026-04-18T18:27:21Z</time></trkpt><trkpt lat="47.854402397499356" lon="11.860750159599412"><ele>666.0</ele><time>2026-04-18T18:27:22Z</time></trkpt><trkpt lat="47.854644269446645" lon="11.860487914490204"><ele>666.0</ele><time>2026-04-18T18:27:23Z</time></trkpt><trkpt lat="47.8548749096655" lon="11.860226155215761"><ele>664.0</ele><time>2026-04-18T18:27:24Z</time></trkpt><trkpt lat="47.85510041653571" lon="11.859962827250982"><ele>662.0</ele><time>2026-04-18T18:27:25Z</time></trkpt><trkpt lat="47.85531884732756" lon="11.859689657371243"><ele>661.5</ele><time>2026-04-18T18:27:26Z</time></trkpt><trkpt lat="47.855525163566426" lon="11.859409235198655"><ele>661.0</ele><time>2026-04-18T18:27:27Z</time></trkpt><trkpt lat="47.85572755779758" lon="11.859125278167125"><ele>661.0</ele><time>2026-04-18T18:27:28Z</time></trkpt><trkpt lat="47.85593038818046" lon="11.858829518290854"><ele>661.0</ele><time>2026-04-18T18:27:29Z</time></trkpt><trkpt lat="47.85612971646616" lon="11.858521080926002"><ele>662.5</ele><time>2026-04-18T18:27:30Z</time></trkpt><trkpt lat="47.8563226020074" lon="11.858207506696061"><ele>664.0</ele><time>2026-04-18T18:27:31Z</time></trkpt><trkpt lat="47.85651256734982" lon="11.857881684531808"><ele>664.0</ele><time>2026-04-18T18:27:32Z</time></trkpt><trkpt lat="47.856695466659616" lon="11.857547530728791"><ele>664.0</ele><time>2026-04-18T18:27:33Z</time></trkpt><trkpt lat="47.856866709503215" lon="11.8572191885771"><ele>664.0</ele><time>2026-04-18T18:27:34Z</time></trkpt><trkpt lat="47.85703100915582" lon="11.856885096566113"><ele>664.0</ele><time>2026-04-18T18:27:35Z</time></trkpt><trkpt lat="47.85718862082699" lon="11.856550202862561"><ele>663.5</ele><time>2026-04-18T18:27:36Z</time></trkpt><trkpt lat="47.85734266901645" lon="11.856203822135516"><ele>663.0</ele><time>2026-04-18T18:27:37Z</time></trkpt><trkpt lat="47.8574943140781" lon="11.855847890960634"><ele>661.5</ele><time>2026-04-18T18:27:38Z</time></trkpt><trkpt lat="47.857644132276114" lon="11.855482753341466"><ele>660.0</ele><time>2026-04-18T18:27:39Z</time></trkpt><trkpt lat="47.8577966211987" lon="11.85511136499803"><ele>660.0</ele><time>2026-04-18T18:27:40Z</time></trkpt><trkpt lat="47.857952622644014" lon="11.854740903932337"><ele>660.0</ele><time>2026-04-18T18:27:41Z</time></trkpt><trkpt lat="47.85810786275402" lon="11.854371569681481"><ele>659.5</ele><time>2026-04-18T18:27:42Z</time></trkpt><trkpt lat="47.85826195760076" lon="11.85400312662971"><ele>659.0</ele><time>2026-04-18T18:27:43Z</time></trkpt><trkpt lat="47.85841864108651" lon="11.853637121286335"><ele>658.5</ele><time>2026-04-18T18:27:44Z</time></trkpt><trkpt lat="47.85858367297334" lon="11.85326819954971"><ele>658.0</ele><time>2026-04-18T18:27:45Z</time></trkpt><trkpt lat="47.858754284997495" lon="11.852889967330244"><ele>657.5</ele><time>2026-04-18T18:27:46Z</time></trkpt><trkpt lat="47.8589187244371" lon="11.852513921453253"><ele>657.0</ele><time>2026-04-18T18:27:47Z</time></trkpt><trkpt lat="47.859077367848926" lon="11.852134697136679"><ele>656.5</ele><time>2026-04-18T18:27:48Z</time></trkpt><trkpt lat="47.85923362537018" lon="11.851758616467329"><ele>656.0</ele><time>2026-04-18T18:27:49Z</time></trkpt><trkpt lat="47.859388544658515" lon="11.851384324516884"><ele>654.0</ele><time>2026-04-18T18:27:50Z</time></trkpt><trkpt lat="47.8595423820599" lon="11.851013864890188"><ele>652.0</ele><time>2026-04-18T18:27:51Z</time></trkpt><trkpt lat="47.859697914148505" lon="11.850642902155439"><ele>652.0</ele><time>2026-04-18T18:27:52Z</time></trkpt><trkpt lat="47.85985513794366" lon="11.85026801031915"><ele>652.0</ele><time>2026-04-18T18:27:53Z</time></trkpt><trkpt lat="47.86001100248572" lon="11.849892580047543"><ele>653.5</ele><time>2026-04-18T18:27:54Z</time></trkpt><trkpt lat="47.86016571446349" lon="11.849522916093127"><ele>655.0</ele><time>2026-04-18T18:27:55Z</time></trkpt><trkpt lat="47.86031965747323" lon="11.849157612267655"><ele>655.0</ele><time>2026-04-18T18:27:56Z</time></trkpt><trkpt lat="47.8604744475562" lon="11.848791902703814"><ele>655.0</ele><time>2026-04-18T18:27:57Z</time></trkpt><trkpt lat="47.86063010237748" lon="11.848427503622318"><ele>655.0</ele><time>2026-04-18T18:27:58Z</time></trkpt><trkpt lat="47.86078445604097" lon="11.848059436200193"><ele>655.0</ele><time>2026-04-18T18:27:59Z</time></trkpt><trkpt lat="47.86093351796017" lon="11.847691842153734"><ele>656.0</ele><time>2026-04-18T18:28:00Z</time></trkpt><trkpt lat="47.86108016146091" lon="11.847330227867706"><ele>657.0</ele><time>2026-04-18T18:28:01Z</time></trkpt><trkpt lat="47.86122016462215" lon="11.84696374533153"><ele>660.0</ele><time>2026-04-18T18:28:02Z</time></trkpt><trkpt lat="47.86134978233765" lon="11.846578389574708"><ele>663.0</ele><time>2026-04-18T18:28:03Z</time></trkpt><trkpt lat="47.861465598183834" lon="11.846180393576615"><ele>664.0</ele><time>2026-04-18T18:28:04Z</time></trkpt><trkpt lat="47.861569454644766" lon="11.8457715276498"><ele>665.0</ele><time>2026-04-18T18:28:05Z</time></trkpt><trkpt lat="47.86166453122815" lon="11.845349337994199"><ele>665.0</ele><time>2026-04-18T18:28:06Z</time></trkpt><trkpt lat="47.861752856444305" lon="11.844919348885663"><ele>665.0</ele><time>2026-04-18T18:28:07Z</time></trkpt><trkpt lat="47.86183130280727" lon="11.844480773480319"><ele>668.5</ele><time>2026-04-18T18:28:08Z</time></trkpt><trkpt lat="47.86189649300085" lon="11.84404679562924"><ele>672.0</ele><time>2026-04-18T18:28:09Z</time></trkpt><trkpt lat="47.86194894106939" lon="11.843631206798403"><ele>673.5</ele><time>2026-04-18T18:28:10Z</time></trkpt><trkpt lat="47.86199339467991" lon="11.843213719988473"><ele>675.0</ele><time>2026-04-18T18:28:11Z</time></trkpt><trkpt lat="47.86202743231555" lon="11.842795810746054"><ele>677.5</ele><time>2026-04-18T18:28:12Z</time></trkpt><trkpt lat="47.862050175352394" lon="11.842375109125502"><ele>680.0</ele><time>2026-04-18T18:28:13Z</time></trkpt><trkpt lat="47.862077569444935" lon="11.841951279552443"><ele>682.0</ele><time>2026-04-18T18:28:14Z</time></trkpt><trkpt lat="47.86211139598089" lon="11.841521386812927"><ele>684.0</ele><time>2026-04-18T18:28:15Z</time></trkpt><trkpt lat="47.86214110220794" lon="11.841069982741434"><ele>683.5</ele><time>2026-04-18T18:28:16Z</time></trkpt><trkpt lat="47.86216855498941" lon="11.84061176612428"><ele>683.0</ele><time>2026-04-18T18:28:17Z</time></trkpt><trkpt lat="47.86219222292973" lon="11.840151271683132"><ele>682.5</ele><time>2026-04-18T18:28:18Z</time></trkpt><trkpt lat="47.862224089694905" lon="11.839693739505806"><ele>682.0</ele><time>2026-04-18T18:28:19Z</time></trkpt><trkpt lat="47.862273333895146" lon="11.839242709497103"><ele>679.5</ele><time>2026-04-18T18:28:20Z</time></trkpt><trkpt lat="47.86234599460657" lon="11.83879351831886"><ele>677.0</ele><time>2026-04-18T18:28:21Z</time></trkpt><trkpt lat="47.862428128927554" lon="11.838363704498933"><ele>674.0</ele><time>2026-04-18T18:28:22Z</time></trkpt><trkpt lat="47.86252051143459" lon="11.837940282977968"><ele>671.0</ele><time>2026-04-18T18:28:23Z</time></trkpt><trkpt lat="47.862621912196744" lon="11.837518508892892"><ele>671.0</ele><time>2026-04-18T18:28:24Z</time></trkpt><trkpt lat="47.862727059340216" lon="11.83709920707183"><ele>671.0</ele><time>2026-04-18T18:28:25Z</time></trkpt><trkpt lat="47.86283194998453" lon="11.836683215755782"><ele>671.5</ele><time>2026-04-18T18:28:26Z</time></trkpt><trkpt lat="47.86293528440261" lon="11.836267763701503"><ele>672.0</ele><time>2026-04-18T18:28:27Z</time></trkpt><trkpt lat="47.8630374231213" lon="11.835853366879771"><ele>672.0</ele><time>2026-04-18T18:28:28Z</time></trkpt><trkpt lat="47.863141583436615" lon="11.835433773984056"><ele>672.0</ele><time>2026-04-18T18:28:29Z</time></trkpt><trkpt lat="47.863248551992235" lon="11.83500957481006"><ele>672.0</ele><time>2026-04-18T18:28:30Z</time></trkpt><trkpt lat="47.86335785862071" lon="11.834587490010371"><ele>672.0</ele><time>2026-04-18T18:28:31Z</time></trkpt><trkpt lat="47.863465822790545" lon="11.83416209061186"><ele>672.5</ele><time>2026-04-18T18:28:32Z</time></trkpt><trkpt lat="47.86357364086554" lon="11.833730746716997"><ele>673.0</ele><time>2026-04-18T18:28:33Z</time></trkpt><trkpt lat="47.86368181107942" lon="11.833299195000881"><ele>669.5</ele><time>2026-04-18T18:28:34Z</time></trkpt><trkpt lat="47.86378911698505" lon="11.832870663544217"><ele>666.0</ele><time>2026-04-18T18:28:35Z</time></trkpt><trkpt lat="47.86389716958103" lon="11.832441407782772"><ele>663.5</ele><time>2026-04-18T18:28:36Z</time></trkpt><trkpt lat="47.86400064910892" lon="11.832013275281696"><ele>661.0</ele><time>2026-04-18T18:28:37Z</time></trkpt><trkpt lat="47.8641022188896" lon="11.831582448930721"><ele>660.0</ele><time>2026-04-18T18:28:38Z</time></trkpt><trkpt lat="47.8642024074978" lon="11.83115124798852"><ele>659.0</ele><time>2026-04-18T18:28:39Z</time></trkpt><trkpt lat="47.864297224045195" lon="11.830722198536202"><ele>658.0</ele><time>2026-04-18T18:28:40Z</time></trkpt><trkpt lat="47.864385476683246" lon="11.830299028079182"><ele>657.0</ele><time>2026-04-18T18:28:41Z</time></trkpt><trkpt lat="47.864469362922925" lon="11.829877829021154"><ele>656.5</ele><time>2026-04-18T18:28:42Z</time></trkpt><trkpt lat="47.86454487047413" lon="11.829460415102227"><ele>656.0</ele><time>2026-04-18T18:28:43Z</time></trkpt><trkpt lat="47.86461756373964" lon="11.82904935137855"><ele>655.5</ele><time>2026-04-18T18:28:44Z</time></trkpt><trkpt lat="47.86468739749288" lon="11.828639148268822"><ele>655.0</ele><time>2026-04-18T18:28:45Z</time></trkpt><trkpt lat="47.86474909379504" lon="11.828219465627708"><ele>657.0</ele><time>2026-04-18T18:28:46Z</time></trkpt><trkpt lat="47.864807831558906" lon="11.827797616585514"><ele>659.0</ele><time>2026-04-18T18:28:47Z</time></trkpt><trkpt lat="47.86486530684451" lon="11.827375204552068"><ele>659.0</ele><time>2026-04-18T18:28:48Z</time></trkpt><trkpt lat="47.86492066378409" lon="11.826948797872296"><ele>659.0</ele><time>2026-04-18T18:28:49Z</time></trkpt><trkpt lat="47.86497696175425" lon="11.82652006210259"><ele>660.5</ele><time>2026-04-18T18:28:50Z</time></trkpt><trkpt lat="47.865034887986205" lon="11.826081011766867"><ele>662.0</ele><time>2026-04-18T18:28:51Z</time></trkpt><trkpt lat="47.865094345902676" lon="11.825633596075384"><ele>666.0</ele><time>2026-04-18T18:28:52Z</time></trkpt><trkpt lat="47.86515520264359" lon="11.82518996256809"><ele>670.0</ele><time>2026-04-18T18:28:53Z</time></trkpt><trkpt lat="47.865213894987704" lon="11.824746848848978"><ele>666.5</ele><time>2026-04-18T18:28:54Z</time></trkpt><trkpt lat="47.86527394602424" lon="11.824303414629975"><ele>663.0</ele><time>2026-04-18T18:28:55Z</time></trkpt><trkpt lat="47.86533330656" lon="11.823858220866578"><ele>661.0</ele><time>2026-04-18T18:28:56Z</time></trkpt><trkpt lat="47.86539497221735" lon="11.823414272483108"><ele>659.0</ele><time>2026-04-18T18:28:57Z</time></trkpt><trkpt lat="47.865457078897904" lon="11.822970790131269"><ele>660.5</ele><time>2026-04-18T18:28:58Z</time></trkpt><trkpt lat="47.86552201898855" lon="11.822526552923561"><ele>662.0</ele><time>2026-04-18T18:28:59Z</time></trkpt><trkpt lat="47.865583894197435" lon="11.822082757808094"><ele>663.0</ele><time>2026-04-18T18:29:00Z</time></trkpt><trkpt lat="47.865637128058154" lon="11.82163964600407"><ele>664.0</ele><time>2026-04-18T18:29:01Z</time></trkpt><trkpt lat="47.865679749447246" lon="11.821196826496188"><ele>662.5</ele><time>2026-04-18T18:29:02Z</time></trkpt><trkpt lat="47.86571398741943" lon="11.820757843683442"><ele>661.0</ele><time>2026-04-18T18:29:03Z</time></trkpt><trkpt lat="47.86574443493319" lon="11.820315118149818"><ele>661.0</ele><time>2026-04-18T18:29:04Z</time></trkpt><trkpt lat="47.8657695488041" lon="11.819871931408043"><ele>661.0</ele><time>2026-04-18T18:29:05Z</time></trkpt><trkpt lat="47.865787707227646" lon="11.81945771849797"><ele>660.0</ele><time>2026-04-18T18:29:06Z</time></trkpt><trkpt lat="47.86580179894572" lon="11.819048782303469"><ele>659.0</ele><time>2026-04-18T18:29:07Z</time></trkpt><trkpt lat="47.86581412099511" lon="11.81862513669755"><ele>660.5</ele><time>2026-04-18T18:29:08Z</time></trkpt><trkpt lat="47.865821987252545" lon="11.818197165191165"><ele>662.0</ele><time>2026-04-18T18:29:09Z</time></trkpt><trkpt lat="47.86582525452057" lon="11.817763391240739"><ele>663.5</ele><time>2026-04-18T18:29:10Z</time></trkpt><trkpt lat="47.86582270654327" lon="11.817334625156871"><ele>665.0</ele><time>2026-04-18T18:29:11Z</time></trkpt><trkpt lat="47.86581372870467" lon="11.816904891522938"><ele>664.5</ele><time>2026-04-18T18:29:12Z</time></trkpt><trkpt lat="47.86579918988659" lon="11.816476001216731"><ele>664.0</ele><time>2026-04-18T18:29:13Z</time></trkpt><trkpt lat="47.86578088665237" lon="11.816048586923726"><ele>663.0</ele><time>2026-04-18T18:29:14Z</time></trkpt><trkpt lat="47.865757964853216" lon="11.81562045226952"><ele>662.0</ele><time>2026-04-18T18:29:15Z</time></trkpt><trkpt lat="47.8657317437294" lon="11.815189806351851"><ele>660.5</ele><time>2026-04-18T18:29:16Z</time></trkpt><trkpt lat="47.86570055034944" lon="11.814754019891364"><ele>659.0</ele><time>2026-04-18T18:29:17Z</time></trkpt><trkpt lat="47.865666489342004" lon="11.814317132153393"><ele>658.5</ele><time>2026-04-18T18:29:18Z</time></trkpt><trkpt lat="47.86562564105564" lon="11.813878540017745"><ele>658.0</ele><time>2026-04-18T18:29:19Z</time></trkpt><trkpt lat="47.865578287318215" lon="11.81344064635872"><ele>656.5</ele><time>2026-04-18T18:29:20Z</time></trkpt><trkpt lat="47.86552750116663" lon="11.813006430047091"><ele>655.0</ele><time>2026-04-18T18:29:21Z</time></trkpt><trkpt lat="47.865479832552715" lon="11.81257168078089"><ele>654.0</ele><time>2026-04-18T18:29:22Z</time></trkpt><trkpt lat="47.86543607808046" lon="11.812138464631092"><ele>653.0</ele><time>2026-04-18T18:29:23Z</time></trkpt><trkpt lat="47.865392453895744" lon="11.811703686464593"><ele>653.0</ele><time>2026-04-18T18:29:24Z</time></trkpt><trkpt lat="47.86534728338133" lon="11.811269698997503"><ele>653.0</ele><time>2026-04-18T18:29:25Z</time></trkpt><trkpt lat="47.86530140640363" lon="11.81083403823545"><ele>656.5</ele><time>2026-04-18T18:29:26Z</time></trkpt><trkpt lat="47.86525517455878" lon="11.810404563087078"><ele>660.0</ele><time>2026-04-18T18:29:27Z</time></trkpt><trkpt lat="47.865206442082844" lon="11.809968536033287"><ele>659.5</ele><time>2026-04-18T18:29:28Z</time></trkpt><trkpt lat="47.86515839927224" lon="11.809528976541804"><ele>659.0</ele><time>2026-04-18T18:29:29Z</time></trkpt><trkpt lat="47.86510960835981" lon="11.809085623736314"><ele>659.0</ele><time>2026-04-18T18:29:30Z</time></trkpt><trkpt lat="47.86506254144357" lon="11.808640135052833"><ele>659.0</ele><time>2026-04-18T18:29:31Z</time></trkpt><trkpt lat="47.86501388823631" lon="11.808192622468217"><ele>660.0</ele><time>2026-04-18T18:29:32Z</time></trkpt><trkpt lat="47.864965731540984" lon="11.807744033931591"><ele>661.0</ele><time>2026-04-18T18:29:33Z</time></trkpt><trkpt lat="47.864923946759795" lon="11.807295030635862"><ele>661.5</ele><time>2026-04-18T18:29:34Z</time></trkpt><trkpt lat="47.864891708948704" lon="11.806843693919653"><ele>662.0</ele><time>2026-04-18T18:29:35Z</time></trkpt><trkpt lat="47.86486561938815" lon="11.806394667598568"><ele>662.0</ele><time>2026-04-18T18:29:36Z</time></trkpt><trkpt lat="47.8648436190794" lon="11.805947736398773"><ele>662.0</ele><time>2026-04-18T18:29:37Z</time></trkpt><trkpt lat="47.86482755166897" lon="11.80549797393627"><ele>659.5</ele><time>2026-04-18T18:29:38Z</time></trkpt><trkpt lat="47.864815289501294" lon="11.805041249999597"><ele>657.0</ele><time>2026-04-18T18:29:39Z</time></trkpt><trkpt lat="47.864808597567546" lon="11.804588903757546"><ele>657.5</ele><time>2026-04-18T18:29:40Z</time></trkpt><trkpt lat="47.864806984289196" lon="11.804135730830414"><ele>658.0</ele><time>2026-04-18T18:29:41Z</time></trkpt><trkpt lat="47.864810149494595" lon="11.80367869436938"><ele>658.5</ele><time>2026-04-18T18:29:42Z</time></trkpt><trkpt lat="47.864820251662564" lon="11.803224622119355"><ele>659.0</ele><time>2026-04-18T18:29:43Z</time></trkpt><trkpt lat="47.8648347405465" lon="11.802768055816294"><ele>660.0</ele><time>2026-04-18T18:29:44Z</time></trkpt><trkpt lat="47.864853896865455" lon="11.802312403054797"><ele>661.0</ele><time>2026-04-18T18:29:45Z</time></trkpt><trkpt lat="47.86487787754579" lon="11.801855468291711"><ele>661.5</ele><time>2026-04-18T18:29:46Z</time></trkpt><trkpt lat="47.86490462265863" lon="11.801408302693929"><ele>662.0</ele><time>2026-04-18T18:29:47Z</time></trkpt><trkpt lat="47.86493737215672" lon="11.800966520363195"><ele>664.0</ele><time>2026-04-18T18:29:48Z</time></trkpt><trkpt lat="47.864976295213026" lon="11.800531787509774"><ele>666.0</ele><time>2026-04-18T18:29:49Z</time></trkpt><trkpt lat="47.86502047265233" lon="11.800099515420163"><ele>667.0</ele><time>2026-04-18T18:29:50Z</time></trkpt><trkpt lat="47.86506907299555" lon="11.799659912431162"><ele>668.0</ele><time>2026-04-18T18:29:51Z</time></trkpt><trkpt lat="47.865123446921" lon="11.799206270938226"><ele>669.0</ele><time>2026-04-18T18:29:52Z</time></trkpt><trkpt lat="47.86518551618351" lon="11.798763302441827"><ele>670.0</ele><time>2026-04-18T18:29:53Z</time></trkpt><trkpt lat="47.865249993297176" lon="11.798328012489616"><ele>670.5</ele><time>2026-04-18T18:29:54Z</time></trkpt><trkpt lat="47.86531681179953" lon="11.797904046125598"><ele>671.0</ele><time>2026-04-18T18:29:55Z</time></trkpt><trkpt lat="47.86538802241603" lon="11.797480938755449"><ele>670.0</ele><time>2026-04-18T18:29:56Z</time></trkpt><trkpt lat="47.865466020405755" lon="11.797049337452844"><ele>669.0</ele><time>2026-04-18T18:29:57Z</time></trkpt><trkpt lat="47.865550980504814" lon="11.796607409284482"><ele>668.5</ele><time>2026-04-18T18:29:58Z</time></trkpt><trkpt lat="47.86564302749933" lon="11.79615707305992"><ele>668.0</ele><time>2026-04-18T18:29:59Z</time></trkpt><trkpt lat="47.86574905418464" lon="11.79569721794034"><ele>669.0</ele><time>2026-04-18T18:30:00Z</time></trkpt><trkpt lat="47.8658612037247" lon="11.795229765298258"><ele>670.0</ele><time>2026-04-18T18:30:01Z</time></trkpt><trkpt lat="47.865976912863445" lon="11.79477801219169"><ele>672.5</ele><time>2026-04-18T18:30:02Z</time></trkpt><trkpt lat="47.866092649775574" lon="11.794331769655056"><ele>675.0</ele><time>2026-04-18T18:30:03Z</time></trkpt><trkpt lat="47.86621164503595" lon="11.79389317691527"><ele>677.5</ele><time>2026-04-18T18:30:04Z</time></trkpt><trkpt lat="47.866333952414415" lon="11.793460189366565"><ele>680.0</ele><time>2026-04-18T18:30:05Z</time></trkpt><trkpt lat="47.86645617497134" lon="11.793034781975292"><ele>680.5</ele><time>2026-04-18T18:30:06Z</time></trkpt><trkpt lat="47.86658044102685" lon="11.792608750138502"><ele>681.0</ele><time>2026-04-18T18:30:07Z</time></trkpt><trkpt lat="47.86671232319798" lon="11.792183956946365"><ele>681.5</ele><time>2026-04-18T18:30:08Z</time></trkpt><trkpt lat="47.86685435030246" lon="11.791763594405369"><ele>682.0</ele><time>2026-04-18T18:30:09Z</time></trkpt><trkpt lat="47.86700422391757" lon="11.791347430590335"><ele>680.5</ele><time>2026-04-18T18:30:10Z</time></trkpt><trkpt lat="47.86716646723249" lon="11.790934715649477"><ele>679.0</ele><time>2026-04-18T18:30:11Z</time></trkpt><trkpt lat="47.867328618171285" lon="11.790529357246061"><ele>678.5</ele><time>2026-04-18T18:30:12Z</time></trkpt><trkpt lat="47.867491900172126" lon="11.79012871300643"><ele>678.0</ele><time>2026-04-18T18:30:13Z</time></trkpt><trkpt lat="47.86765813310782" lon="11.78972786875084"><ele>675.0</ele><time>2026-04-18T18:30:14Z</time></trkpt><trkpt lat="47.86782294775828" lon="11.789326720735517"><ele>672.0</ele><time>2026-04-18T18:30:15Z</time></trkpt><trkpt lat="47.86798676618729" lon="11.788917691131436"><ele>667.5</ele><time>2026-04-18T18:30:16Z</time></trkpt><trkpt lat="47.86815264171803" lon="11.788503760242365"><ele>663.0</ele><time>2026-04-18T18:30:17Z</time></trkpt><trkpt lat="47.86832428710763" lon="11.788090325980617"><ele>652.5</ele><time>2026-04-18T18:30:18Z</time></trkpt><trkpt lat="47.8684991759114" lon="11.78768019494224"><ele>642.0</ele><time>2026-04-18T18:30:19Z</time></trkpt><trkpt lat="47.868673071637275" lon="11.787284979711588"><ele>634.0</ele><time>2026-04-18T18:30:20Z</time></trkpt><trkpt lat="47.86883685854935" lon="11.786906710960645"><ele>626.0</ele><time>2026-04-18T18:30:21Z</time></trkpt><trkpt lat="47.868995560046564" lon="11.786531811412559"><ele>622.5</ele><time>2026-04-18T18:30:22Z</time></trkpt><trkpt lat="47.86915182565209" lon="11.78615108811427"><ele>619.0</ele><time>2026-04-18T18:30:23Z</time></trkpt><trkpt lat="47.86930956594455" lon="11.785760561674566"><ele>632.0</ele><time>2026-04-18T18:30:24Z</time></trkpt><trkpt lat="47.86946847351282" lon="11.785367451757494"><ele>645.0</ele><time>2026-04-18T18:30:25Z</time></trkpt><trkpt lat="47.86962982675701" lon="11.78497076468549"><ele>653.0</ele><time>2026-04-18T18:30:26Z</time></trkpt><trkpt lat="47.869791749683074" lon="11.784571039636823"><ele>661.0</ele><time>2026-04-18T18:30:27Z</time></trkpt><trkpt lat="47.86995577843345" lon="11.784168723024226"><ele>660.0</ele><time>2026-04-18T18:30:28Z</time></trkpt><trkpt lat="47.87012148001522" lon="11.783767560043673"><ele>659.0</ele><time>2026-04-18T18:30:29Z</time></trkpt><trkpt lat="47.87028667575034" lon="11.783365950013772"><ele>659.0</ele><time>2026-04-18T18:30:30Z</time></trkpt><trkpt lat="47.870449207957854" lon="11.78296810282796"><ele>659.0</ele><time>2026-04-18T18:30:31Z</time></trkpt><trkpt lat="47.870611796693694" lon="11.782573361864012"><ele>659.5</ele><time>2026-04-18T18:30:32Z</time></trkpt><trkpt lat="47.87077281363875" lon="11.782179675562709"><ele>660.0</ele><time>2026-04-18T18:30:33Z</time></trkpt><trkpt lat="47.87093096605915" lon="11.78178764551402"><ele>660.5</ele><time>2026-04-18T18:30:34Z</time></trkpt><trkpt lat="47.871083036180096" lon="11.781399767247343"><ele>661.0</ele><time>2026-04-18T18:30:35Z</time></trkpt><trkpt lat="47.87123408085187" lon="11.781012413638935"><ele>661.5</ele><time>2026-04-18T18:30:36Z</time></trkpt><trkpt lat="47.871382237685665" lon="11.780623207229857"><ele>662.0</ele><time>2026-04-18T18:30:37Z</time></trkpt><trkpt lat="47.87153163153484" lon="11.780230562122734"><ele>662.0</ele><time>2026-04-18T18:30:38Z</time></trkpt><trkpt lat="47.87168431916706" lon="11.779839636279052"><ele>662.0</ele><time>2026-04-18T18:30:39Z</time></trkpt><trkpt lat="47.87184689093371" lon="11.77944271552523"><ele>662.0</ele><time>2026-04-18T18:30:40Z</time></trkpt><trkpt lat="47.872011343395194" lon="11.779037460230821"><ele>662.0</ele><time>2026-04-18T18:30:41Z</time></trkpt><trkpt lat="47.87217253211846" lon="11.778632550176358"><ele>661.5</ele><time>2026-04-18T18:30:42Z</time></trkpt><trkpt lat="47.87233228485687" lon="11.778232061310703"><ele>661.0</ele><time>2026-04-18T18:30:43Z</time></trkpt><trkpt lat="47.87249279184652" lon="11.777836802288844"><ele>661.0</ele><time>2026-04-18T18:30:44Z</time></trkpt><trkpt lat="47.87265425437022" lon="11.777444392597348"><ele>661.0</ele><time>2026-04-18T18:30:45Z</time></trkpt><trkpt lat="47.87281856841471" lon="11.777045781873104"><ele>662.0</ele><time>2026-04-18T18:30:46Z</time></trkpt><trkpt lat="47.872982430176044" lon="11.77664556073019"><ele>663.0</ele><time>2026-04-18T18:30:47Z</time></trkpt><trkpt lat="47.87314016718031" lon="11.77625569571694"><ele>663.0</ele><time>2026-04-18T18:30:48Z</time></trkpt><trkpt lat="47.873296172818996" lon="11.77587209341627"><ele>663.0</ele><time>2026-04-18T18:30:49Z</time></trkpt><trkpt lat="47.87345052601386" lon="11.775489531830285"><ele>661.5</ele><time>2026-04-18T18:30:50Z</time></trkpt><trkpt lat="47.87360600535527" lon="11.775105130637952"><ele>660.0</ele><time>2026-04-18T18:30:51Z</time></trkpt><trkpt lat="47.87376372147239" lon="11.774716023236234"><ele>660.0</ele><time>2026-04-18T18:30:52Z</time></trkpt><trkpt lat="47.87392273585356" lon="11.774326927425617"><ele>660.0</ele><time>2026-04-18T18:30:53Z</time></trkpt><trkpt lat="47.874081166660616" lon="11.773936075194072"><ele>660.0</ele><time>2026-04-18T18:30:54Z</time></trkpt><trkpt lat="47.87423836756363" lon="11.773548948050966"><ele>660.0</ele><time>2026-04-18T18:30:55Z</time></trkpt><trkpt lat="47.87439519162193" lon="11.773164152889954"><ele>660.5</ele><time>2026-04-18T18:30:56Z</time></trkpt><trkpt lat="47.874552356320365" lon="11.772781053390474"><ele>661.0</ele><time>2026-04-18T18:30:57Z</time></trkpt><trkpt lat="47.874711441320166" lon="11.772396181376065"><ele>661.0</ele><time>2026-04-18T18:30:58Z</time></trkpt><trkpt lat="47.87487525630033" lon="11.772008073419766"><ele>661.0</ele><time>2026-04-18T18:30:59Z</time></trkpt><trkpt lat="47.87504734495303" lon="11.771610047590316"><ele>660.5</ele><time>2026-04-18T18:31:00Z</time></trkpt><trkpt lat="47.8752223658497" lon="11.771209179520778"><ele>660.0</ele><time>2026-04-18T18:31:01Z</time></trkpt><trkpt lat="47.87539937634424" lon="11.770807010327287"><ele>659.5</ele><time>2026-04-18T18:31:02Z</time></trkpt><trkpt lat="47.875572586600725" lon="11.770406463309612"><ele>659.0</ele><time>2026-04-18T18:31:03Z</time></trkpt><trkpt lat="47.87573704395406" lon="11.77000984329083"><ele>658.5</ele><time>2026-04-18T18:31:04Z</time></trkpt><trkpt lat="47.87589331644806" lon="11.769611441655956"><ele>658.0</ele><time>2026-04-18T18:31:05Z</time></trkpt><trkpt lat="47.876047649625356" lon="11.76921447320302"><ele>658.0</ele><time>2026-04-18T18:31:06Z</time></trkpt><trkpt lat="47.87620424240842" lon="11.768824231579417"><ele>658.0</ele><time>2026-04-18T18:31:07Z</time></trkpt><trkpt lat="47.8763610821453" lon="11.768444446693639"><ele>658.0</ele><time>2026-04-18T18:31:08Z</time></trkpt><trkpt lat="47.8765135039236" lon="11.768070765522697"><ele>658.0</ele><time>2026-04-18T18:31:09Z</time></trkpt><trkpt lat="47.87666409395968" lon="11.76769506709656"><ele>659.0</ele><time>2026-04-18T18:31:10Z</time></trkpt><trkpt lat="47.87681230433025" lon="11.76732398671591"><ele>660.0</ele><time>2026-04-18T18:31:11Z</time></trkpt><trkpt lat="47.87696171824526" lon="11.76695547736253"><ele>661.0</ele><time>2026-04-18T18:31:12Z</time></trkpt><trkpt lat="47.87710964852634" lon="11.766586425508947"><ele>662.0</ele><time>2026-04-18T18:31:13Z</time></trkpt><trkpt lat="47.87725620615647" lon="11.766221385941169"><ele>661.0</ele><time>2026-04-18T18:31:14Z</time></trkpt><trkpt lat="47.87740616987978" lon="11.765850342937128"><ele>660.0</ele><time>2026-04-18T18:31:15Z</time></trkpt><trkpt lat="47.87755807872548" lon="11.765481906209601"><ele>659.5</ele><time>2026-04-18T18:31:16Z</time></trkpt><trkpt lat="47.87770817986175" lon="11.765111174807492"><ele>659.0</ele><time>2026-04-18T18:31:17Z</time></trkpt><trkpt lat="47.87785812573331" lon="11.764739253001567"><ele>659.0</ele><time>2026-04-18T18:31:18Z</time></trkpt><trkpt lat="47.8780081031221" lon="11.764364791879757"><ele>659.0</ele><time>2026-04-18T18:31:19Z</time></trkpt><trkpt lat="47.878161236572794" lon="11.763986454614878"><ele>659.5</ele><time>2026-04-18T18:31:20Z</time></trkpt><trkpt lat="47.878314185279805" lon="11.763610250094834"><ele>660.0</ele><time>2026-04-18T18:31:21Z</time></trkpt><trkpt lat="47.87846710932208" lon="11.763233774875387"><ele>660.0</ele><time>2026-04-18T18:31:22Z</time></trkpt><trkpt lat="47.878619295593005" lon="11.762858983042326"><ele>660.0</ele><time>2026-04-18T18:31:23Z</time></trkpt><trkpt lat="47.878772762817604" lon="11.762481914072165"><ele>659.5</ele><time>2026-04-18T18:31:24Z</time></trkpt><trkpt lat="47.87892702977918" lon="11.76210476587486"><ele>659.0</ele><time>2026-04-18T18:31:25Z</time></trkpt><trkpt lat="47.879081527872394" lon="11.761727452755903"><ele>660.5</ele><time>2026-04-18T18:31:26Z</time></trkpt><trkpt lat="47.87923499725929" lon="11.761347909113907"><ele>662.0</ele><time>2026-04-18T18:31:27Z</time></trkpt><trkpt lat="47.879388652434045" lon="11.760965329846412"><ele>662.0</ele><time>2026-04-18T18:31:28Z</time></trkpt><trkpt lat="47.87954525828202" lon="11.760582084118642"><ele>662.0</ele><time>2026-04-18T18:31:29Z</time></trkpt><trkpt lat="47.879705723432494" lon="11.760193132167961"><ele>663.0</ele><time>2026-04-18T18:31:30Z</time></trkpt><trkpt lat="47.879871158458805" lon="11.759792246666946"><ele>664.0</ele><time>2026-04-18T18:31:31Z</time></trkpt><trkpt lat="47.88003710448947" lon="11.759382917252367"><ele>663.5</ele><time>2026-04-18T18:31:32Z</time></trkpt><trkpt lat="47.88020265965171" lon="11.758967531509862"><ele>663.0</ele><time>2026-04-18T18:31:33Z</time></trkpt><trkpt lat="47.880369900430104" lon="11.758548265101716"><ele>664.5</ele><time>2026-04-18T18:31:34Z</time></trkpt><trkpt lat="47.88053856501382" lon="11.758130835390354"><ele>666.0</ele><time>2026-04-18T18:31:35Z</time></trkpt><trkpt lat="47.88070894297269" lon="11.757713705755016"><ele>666.0</ele><time>2026-04-18T18:31:36Z</time></trkpt><trkpt lat="47.88087876716775" lon="11.75729723004489"><ele>666.0</ele><time>2026-04-18T18:31:37Z</time></trkpt><trkpt lat="47.881047288564666" lon="11.756884535112262"><ele>666.0</ele><time>2026-04-18T18:31:38Z</time></trkpt><trkpt lat="47.88121395827787" lon="11.756472373491741"><ele>666.0</ele><time>2026-04-18T18:31:39Z</time></trkpt><trkpt lat="47.88137914592692" lon="11.756067332345436"><ele>666.5</ele><time>2026-04-18T18:31:40Z</time></trkpt><trkpt lat="47.88153853461284" lon="11.755664547520848"><ele>667.0</ele><time>2026-04-18T18:31:41Z</time></trkpt><trkpt lat="47.88169246231877" lon="11.7552592971905"><ele>665.5</ele><time>2026-04-18T18:31:42Z</time></trkpt><trkpt lat="47.881843660452994" lon="11.754856220202958"><ele>664.0</ele><time>2026-04-18T18:31:43Z</time></trkpt><trkpt lat="47.882000202695615" lon="11.754452333694875"><ele>663.5</ele><time>2026-04-18T18:31:44Z</time></trkpt><trkpt lat="47.88216094546058" lon="11.754054764752336"><ele>663.0</ele><time>2026-04-18T18:31:45Z</time></trkpt><trkpt lat="47.88232098358063" lon="11.753662761448902"><ele>663.5</ele><time>2026-04-18T18:31:46Z</time></trkpt><trkpt lat="47.88247627027106" lon="11.753273219400619"><ele>664.0</ele><time>2026-04-18T18:31:47Z</time></trkpt><trkpt lat="47.88263128473598" lon="11.752889732507656"><ele>663.0</ele><time>2026-04-18T18:31:48Z</time></trkpt><trkpt lat="47.88278784648503" lon="11.752514893091677"><ele>662.0</ele><time>2026-04-18T18:31:49Z</time></trkpt><trkpt lat="47.88294065465895" lon="11.752142553129291"><ele>663.0</ele><time>2026-04-18T18:31:50Z</time></trkpt><trkpt lat="47.883093731741766" lon="11.751765827927372"><ele>664.0</ele><time>2026-04-18T18:31:51Z</time></trkpt><trkpt lat="47.88324474640462" lon="11.751390178153056"><ele>664.0</ele><time>2026-04-18T18:31:52Z</time></trkpt><trkpt lat="47.88339752256579" lon="11.751012161948227"><ele>664.0</ele><time>2026-04-18T18:31:53Z</time></trkpt><trkpt lat="47.8835518724959" lon="11.750637345186439"><ele>664.0</ele><time>2026-04-18T18:31:54Z</time></trkpt><trkpt lat="47.883702966089004" lon="11.750261681344265"><ele>664.0</ele><time>2026-04-18T18:31:55Z</time></trkpt><trkpt lat="47.88385336666402" lon="11.74988643766643"><ele>664.0</ele><time>2026-04-18T18:31:56Z</time></trkpt><trkpt lat="47.88400530443319" lon="11.749512030501554"><ele>664.0</ele><time>2026-04-18T18:31:57Z</time></trkpt><trkpt lat="47.884157878952244" lon="11.749133861052282"><ele>664.0</ele><time>2026-04-18T18:31:58Z</time></trkpt><trkpt lat="47.88431193252493" lon="11.748756723062318"><ele>664.0</ele><time>2026-04-18T18:31:59Z</time></trkpt><trkpt lat="47.884466738785356" lon="11.74838123242613"><ele>664.0</ele><time>2026-04-18T18:32:00Z</time></trkpt><trkpt lat="47.8846211271887" lon="11.74800327734377"><ele>664.0</ele><time>2026-04-18T18:32:01Z</time></trkpt><trkpt lat="47.88477553629333" lon="11.747618173931281"><ele>665.0</ele><time>2026-04-18T18:32:02Z</time></trkpt><trkpt lat="47.88493233027971" lon="11.747227886820339"><ele>666.0</ele><time>2026-04-18T18:32:03Z</time></trkpt><trkpt lat="47.885089978164466" lon="11.746841007322999"><ele>667.0</ele><time>2026-04-18T18:32:04Z</time></trkpt><trkpt lat="47.88524771770799" lon="11.746455731816585"><ele>668.0</ele><time>2026-04-18T18:32:05Z</time></trkpt><trkpt lat="47.885405077775076" lon="11.746070261838307"><ele>669.0</ele><time>2026-04-18T18:32:06Z</time></trkpt><trkpt lat="47.88556154650768" lon="11.745686384337612"><ele>670.0</ele><time>2026-04-18T18:32:07Z</time></trkpt><trkpt lat="47.88571877603838" lon="11.745301288437044"><ele>670.0</ele><time>2026-04-18T18:32:08Z</time></trkpt><trkpt lat="47.885876835686645" lon="11.744909515521725"><ele>670.0</ele><time>2026-04-18T18:32:09Z</time></trkpt><trkpt lat="47.886036051926666" lon="11.744513425959576"><ele>673.5</ele><time>2026-04-18T18:32:10Z</time></trkpt><trkpt lat="47.88619730330732" lon="11.744115998670168"><ele>677.0</ele><time>2026-04-18T18:32:11Z</time></trkpt><trkpt lat="47.88635911770986" lon="11.743718924731944"><ele>675.0</ele><time>2026-04-18T18:32:12Z</time></trkpt><trkpt lat="47.886520107497894" lon="11.743319988682119"><ele>673.0</ele><time>2026-04-18T18:32:13Z</time></trkpt><trkpt lat="47.88667917890612" lon="11.74292243652837"><ele>676.5</ele><time>2026-04-18T18:32:14Z</time></trkpt><trkpt lat="47.88683841935393" lon="11.742536580628752"><ele>680.0</ele><time>2026-04-18T18:32:15Z</time></trkpt><trkpt lat="47.88699757164761" lon="11.742139784033302"><ele>677.5</ele><time>2026-04-18T18:32:16Z</time></trkpt><trkpt lat="47.88715824359502" lon="11.741749468288509"><ele>675.0</ele><time>2026-04-18T18:32:17Z</time></trkpt><trkpt lat="47.88731781300458" lon="11.741361111315134"><ele>673.5</ele><time>2026-04-18T18:32:18Z</time></trkpt><trkpt lat="47.887475134978374" lon="11.740978384741405"><ele>672.0</ele><time>2026-04-18T18:32:19Z</time></trkpt><trkpt lat="47.887628292944584" lon="11.740600297206914"><ele>676.0</ele><time>2026-04-18T18:32:20Z</time></trkpt><trkpt lat="47.88778261620949" lon="11.740218466210107"><ele>680.0</ele><time>2026-04-18T18:32:21Z</time></trkpt><trkpt lat="47.88794046022905" lon="11.739826552648436"><ele>680.5</ele><time>2026-04-18T18:32:22Z</time></trkpt><trkpt lat="47.88809926468626" lon="11.739437941025814"><ele>681.0</ele><time>2026-04-18T18:32:23Z</time></trkpt><trkpt lat="47.888267739890736" lon="11.739056535208709"><ele>680.0</ele><time>2026-04-18T18:32:24Z</time></trkpt><trkpt lat="47.88843507218488" lon="11.738689941293721"><ele>679.0</ele><time>2026-04-18T18:32:25Z</time></trkpt><trkpt lat="47.888594921132416" lon="11.738331486679296"><ele>679.0</ele><time>2026-04-18T18:32:26Z</time></trkpt><trkpt lat="47.88875315108077" lon="11.737985597349446"><ele>679.0</ele><time>2026-04-18T18:32:27Z</time></trkpt><trkpt lat="47.88890488512692" lon="11.737618495716054"><ele>676.0</ele><time>2026-04-18T18:32:28Z</time></trkpt><trkpt lat="47.88905470186868" lon="11.737256143842915"><ele>673.0</ele><time>2026-04-18T18:32:29Z</time></trkpt><trkpt lat="47.889197754247384" lon="11.736880934808184"><ele>677.5</ele><time>2026-04-18T18:32:30Z</time></trkpt><trkpt lat="47.88934165998766" lon="11.736503714795182"><ele>682.0</ele><time>2026-04-18T18:32:31Z</time></trkpt><trkpt lat="47.88948178097922" lon="11.736122697319924"><ele>681.0</ele><time>2026-04-18T18:32:32Z</time></trkpt><trkpt lat="47.88962312154502" lon="11.73574107076416"><ele>680.0</ele><time>2026-04-18T18:32:33Z</time></trkpt><trkpt lat="47.8897646977422" lon="11.735361540035099"><ele>679.5</ele><time>2026-04-18T18:32:34Z</time></trkpt><trkpt lat="47.889904555521134" lon="11.734979415053674"><ele>679.0</ele><time>2026-04-18T18:32:35Z</time></trkpt><trkpt lat="47.890044739759475" lon="11.734596969777135"><ele>681.0</ele><time>2026-04-18T18:32:36Z</time></trkpt><trkpt lat="47.890184413976215" lon="11.734216905963258"><ele>683.0</ele><time>2026-04-18T18:32:37Z</time></trkpt><trkpt lat="47.89032748727875" lon="11.733839948006535"><ele>678.0</ele><time>2026-04-18T18:32:38Z</time></trkpt><trkpt lat="47.89047536300886" lon="11.733465181594884"><ele>673.0</ele><time>2026-04-18T18:32:39Z</time></trkpt><trkpt lat="47.89062519268735" lon="11.733089914869867"><ele>672.0</ele><time>2026-04-18T18:32:40Z</time></trkpt><trkpt lat="47.89077475031549" lon="11.73271687555137"><ele>671.0</ele><time>2026-04-18T18:32:41Z</time></trkpt><trkpt lat="47.89092205777281" lon="11.732346256142373"><ele>671.5</ele><time>2026-04-18T18:32:42Z</time></trkpt><trkpt lat="47.891073915559076" lon="11.73197889011195"><ele>672.0</ele><time>2026-04-18T18:32:43Z</time></trkpt><trkpt lat="47.89123038457005" lon="11.731612307902795"><ele>671.0</ele><time>2026-04-18T18:32:44Z</time></trkpt><trkpt lat="47.8913945675767" lon="11.731247743744053"><ele>670.0</ele><time>2026-04-18T18:32:45Z</time></trkpt><trkpt lat="47.89156469958168" lon="11.730888783652665"><ele>670.0</ele><time>2026-04-18T18:32:46Z</time></trkpt><trkpt lat="47.89173802231934" lon="11.730534184577216"><ele>670.0</ele><time>2026-04-18T18:32:47Z</time></trkpt><trkpt lat="47.89191362321826" lon="11.730183992665982"><ele>668.5</ele><time>2026-04-18T18:32:48Z</time></trkpt><trkpt lat="47.8920875542597" lon="11.729834043412803"><ele>667.0</ele><time>2026-04-18T18:32:49Z</time></trkpt><trkpt lat="47.89226100157911" lon="11.729503183610017"><ele>667.5</ele><time>2026-04-18T18:32:50Z</time></trkpt><trkpt lat="47.89244172929773" lon="11.72916595149083"><ele>668.0</ele><time>2026-04-18T18:32:51Z</time></trkpt><trkpt lat="47.89263657206301" lon="11.728820179721351"><ele>668.0</ele><time>2026-04-18T18:32:52Z</time></trkpt><trkpt lat="47.89284020021584" lon="11.72847578842339"><ele>668.0</ele><time>2026-04-18T18:32:53Z</time></trkpt><trkpt lat="47.893049426408474" lon="11.728134689000814"><ele>668.0</ele><time>2026-04-18T18:32:54Z</time></trkpt><trkpt lat="47.893261971675436" lon="11.72779658237965"><ele>668.0</ele><time>2026-04-18T18:32:55Z</time></trkpt><trkpt lat="47.89347798562162" lon="11.727461890775745"><ele>668.0</ele><time>2026-04-18T18:32:56Z</time></trkpt><trkpt lat="47.893698175084864" lon="11.727132039256743"><ele>668.0</ele><time>2026-04-18T18:32:57Z</time></trkpt><trkpt lat="47.89392544837524" lon="11.726803256888571"><ele>667.0</ele><time>2026-04-18T18:32:58Z</time></trkpt><trkpt lat="47.89415375429142" lon="11.726482307835184"><ele>666.0</ele><time>2026-04-18T18:32:59Z</time></trkpt><trkpt lat="47.89438868334537" lon="11.726168764847268"><ele>665.0</ele><time>2026-04-18T18:33:00Z</time></trkpt><trkpt lat="47.89462879928091" lon="11.725866828031162"><ele>664.0</ele><time>2026-04-18T18:33:01Z</time></trkpt><trkpt lat="47.894872169703" lon="11.7255728085756"><ele>664.0</ele><time>2026-04-18T18:33:02Z</time></trkpt><trkpt lat="47.895116768914974" lon="11.725285852881568"><ele>664.0</ele><time>2026-04-18T18:33:03Z</time></trkpt><trkpt lat="47.89536111433668" lon="11.725001860881445"><ele>664.0</ele><time>2026-04-18T18:33:04Z</time></trkpt><trkpt lat="47.89560934289592" lon="11.7247230739424"><ele>664.0</ele><time>2026-04-18T18:33:05Z</time></trkpt><trkpt lat="47.89586095337966" lon="11.72444905777809"><ele>662.0</ele><time>2026-04-18T18:33:06Z</time></trkpt><trkpt lat="47.89611859269999" lon="11.724185347140432"><ele>660.0</ele><time>2026-04-18T18:33:07Z</time></trkpt><trkpt lat="47.89637208914466" lon="11.723935152433716"><ele>660.0</ele><time>2026-04-18T18:33:08Z</time></trkpt><trkpt lat="47.89662054825938" lon="11.72369337904965"><ele>660.0</ele><time>2026-04-18T18:33:09Z</time></trkpt><trkpt lat="47.89687454711203" lon="11.723456012341627"><ele>660.0</ele><time>2026-04-18T18:33:10Z</time></trkpt><trkpt lat="47.89713750756356" lon="11.72322452470403"><ele>660.0</ele><time>2026-04-18T18:33:11Z</time></trkpt><trkpt lat="47.89740997024678" lon="11.722994877672798"><ele>661.0</ele><time>2026-04-18T18:33:12Z</time></trkpt><trkpt lat="47.89768548853474" lon="11.722766893263215"><ele>662.0</ele><time>2026-04-18T18:33:13Z</time></trkpt><trkpt lat="47.89796653549397" lon="11.72254778785678"><ele>662.5</ele><time>2026-04-18T18:33:14Z</time></trkpt><trkpt lat="47.89825033545921" lon="11.722339746214365"><ele>663.0</ele><time>2026-04-18T18:33:15Z</time></trkpt><trkpt lat="47.89853480744669" lon="11.72213630976077"><ele>663.0</ele><time>2026-04-18T18:33:16Z</time></trkpt><trkpt lat="47.89881996086567" lon="11.72193746033445"><ele>663.0</ele><time>2026-04-18T18:33:17Z</time></trkpt><trkpt lat="47.89910574933535" lon="11.72174965541669"><ele>663.5</ele><time>2026-04-18T18:33:18Z</time></trkpt><trkpt lat="47.899383583379134" lon="11.721573869006377"><ele>664.0</ele><time>2026-04-18T18:33:19Z</time></trkpt><trkpt lat="47.899661897003604" lon="11.721401410979116"><ele>664.0</ele><time>2026-04-18T18:33:20Z</time></trkpt><trkpt lat="47.89994150646168" lon="11.721245169293239"><ele>664.0</ele><time>2026-04-18T18:33:21Z</time></trkpt><trkpt lat="47.900219573369036" lon="11.721096205179924"><ele>663.0</ele><time>2026-04-18T18:33:22Z</time></trkpt><trkpt lat="47.90050202918427" lon="11.720948879578833"><ele>662.0</ele><time>2026-04-18T18:33:23Z</time></trkpt><trkpt lat="47.90078958916446" lon="11.720808066519417"><ele>662.0</ele><time>2026-04-18T18:33:24Z</time></trkpt><trkpt lat="47.90108342330567" lon="11.720672033131839"><ele>662.0</ele><time>2026-04-18T18:33:25Z</time></trkpt><trkpt lat="47.90137920047722" lon="11.720541552251694"><ele>662.0</ele><time>2026-04-18T18:33:26Z</time></trkpt><trkpt lat="47.90167719197055" lon="11.720418733863314"><ele>662.0</ele><time>2026-04-18T18:33:27Z</time></trkpt><trkpt lat="47.901977461693285" lon="11.720299642032222"><ele>662.5</ele><time>2026-04-18T18:33:28Z</time></trkpt><trkpt lat="47.90227690850429" lon="11.720183486573491"><ele>663.0</ele><time>2026-04-18T18:33:29Z</time></trkpt><trkpt lat="47.902576319597514" lon="11.720063958497503"><ele>662.5</ele><time>2026-04-18T18:33:30Z</time></trkpt><trkpt lat="47.902874322235625" lon="11.719944841465919"><ele>662.0</ele><time>2026-04-18T18:33:31Z</time></trkpt><trkpt lat="47.903170950497326" lon="11.71982700902995"><ele>659.5</ele><time>2026-04-18T18:33:32Z</time></trkpt><trkpt lat="47.90346535178421" lon="11.719711384943704"><ele>657.0</ele><time>2026-04-18T18:33:33Z</time></trkpt><trkpt lat="47.90375193916568" lon="11.719597263711885"><ele>657.0</ele><time>2026-04-18T18:33:34Z</time></trkpt><trkpt lat="47.90403662078091" lon="11.719484840964892"><ele>657.0</ele><time>2026-04-18T18:33:35Z</time></trkpt><trkpt lat="47.90431891069159" lon="11.71937275273587"><ele>655.5</ele><time>2026-04-18T18:33:36Z</time></trkpt><trkpt lat="47.90459976358048" lon="11.719261916502386"><ele>654.0</ele><time>2026-04-18T18:33:37Z</time></trkpt><trkpt lat="47.9048806779966" lon="11.719145781977337"><ele>653.5</ele><time>2026-04-18T18:33:38Z</time></trkpt><trkpt lat="47.90516346252207" lon="11.719029287039955"><ele>653.0</ele><time>2026-04-18T18:33:39Z</time></trkpt><trkpt lat="47.905447616942105" lon="11.718914600687265"><ele>653.0</ele><time>2026-04-18T18:33:40Z</time></trkpt><trkpt lat="47.905732202537386" lon="11.71880064781916"><ele>653.0</ele><time>2026-04-18T18:33:41Z</time></trkpt><trkpt lat="47.906016036521734" lon="11.718687176155616"><ele>653.0</ele><time>2026-04-18T18:33:42Z</time></trkpt><trkpt lat="47.906300146266624" lon="11.71857298745015"><ele>653.0</ele><time>2026-04-18T18:33:43Z</time></trkpt><trkpt lat="47.90658479614771" lon="11.718457228237511"><ele>654.0</ele><time>2026-04-18T18:33:44Z</time></trkpt><trkpt lat="47.90686979378364" lon="11.718341337004647"><ele>655.0</ele><time>2026-04-18T18:33:45Z</time></trkpt><trkpt lat="47.90715189736229" lon="11.718227585935033"><ele>655.0</ele><time>2026-04-18T18:33:46Z</time></trkpt><trkpt lat="47.90743143615308" lon="11.718116406085443"><ele>655.0</ele><time>2026-04-18T18:33:47Z</time></trkpt><trkpt lat="47.907712213673165" lon="11.71800339019856"><ele>653.5</ele><time>2026-04-18T18:33:48Z</time></trkpt><trkpt lat="47.907994787244" lon="11.717889330841453"><ele>652.0</ele><time>2026-04-18T18:33:49Z</time></trkpt><trkpt lat="47.90827714162653" lon="11.717775876934216"><ele>651.0</ele><time>2026-04-18T18:33:50Z</time></trkpt><trkpt lat="47.90855956686076" lon="11.71766271233018"><ele>650.0</ele><time>2026-04-18T18:33:51Z</time></trkpt><trkpt lat="47.908845813164774" lon="11.717548053013685"><ele>650.0</ele><time>2026-04-18T18:33:52Z</time></trkpt><trkpt lat="47.90913525196535" lon="11.717433741059573"><ele>650.0</ele><time>2026-04-18T18:33:53Z</time></trkpt><trkpt lat="47.90942535033604" lon="11.717319096310113"><ele>650.0</ele><time>2026-04-18T18:33:54Z</time></trkpt><trkpt lat="47.90971578462718" lon="11.717203289589081"><ele>650.0</ele><time>2026-04-18T18:33:55Z</time></trkpt><trkpt lat="47.910004301736905" lon="11.71708611022746"><ele>649.5</ele><time>2026-04-18T18:33:56Z</time></trkpt><trkpt lat="47.91029063744353" lon="11.716968151655689"><ele>649.0</ele><time>2026-04-18T18:33:57Z</time></trkpt><trkpt lat="47.91057896411281" lon="11.716853057070821"><ele>649.0</ele><time>2026-04-18T18:33:58Z</time></trkpt><trkpt lat="47.910871195722365" lon="11.716739318562905"><ele>649.0</ele><time>2026-04-18T18:33:59Z</time></trkpt><trkpt lat="47.911163556244816" lon="11.716626234678067"><ele>651.0</ele><time>2026-04-18T18:34:00Z</time></trkpt><trkpt lat="47.911456543110965" lon="11.716508418900778"><ele>653.0</ele><time>2026-04-18T18:34:01Z</time></trkpt><trkpt lat="47.91175135778406" lon="11.716388793755518"><ele>654.5</ele><time>2026-04-18T18:34:02Z</time></trkpt><trkpt lat="47.912047510388106" lon="11.71626869130303"><ele>656.0</ele><time>2026-04-18T18:34:03Z</time></trkpt><trkpt lat="47.912343217781114" lon="11.716147119146404"><ele>657.5</ele><time>2026-04-18T18:34:04Z</time></trkpt><trkpt lat="47.912637581845466" lon="11.716031253853782"><ele>659.0</ele><time>2026-04-18T18:34:05Z</time></trkpt><trkpt lat="47.912933602831764" lon="11.715914234679532"><ele>659.0</ele><time>2026-04-18T18:34:06Z</time></trkpt><trkpt lat="47.913229254562644" lon="11.715795644635536"><ele>659.0</ele><time>2026-04-18T18:34:07Z</time></trkpt><trkpt lat="47.91353005229738" lon="11.7156767577994"><ele>661.0</ele><time>2026-04-18T18:34:08Z</time></trkpt><trkpt lat="47.913831175152296" lon="11.715558812698735"><ele>663.0</ele><time>2026-04-18T18:34:09Z</time></trkpt><trkpt lat="47.91413277559495" lon="11.715438441388962"><ele>662.5</ele><time>2026-04-18T18:34:10Z</time></trkpt><trkpt lat="47.91443740856331" lon="11.715319065807792"><ele>662.0</ele><time>2026-04-18T18:34:11Z</time></trkpt><trkpt lat="47.914742486844716" lon="11.715199738366723"><ele>662.0</ele><time>2026-04-18T18:34:12Z</time></trkpt><trkpt lat="47.91504413884349" lon="11.71507808313379"><ele>662.0</ele><time>2026-04-18T18:34:13Z</time></trkpt><trkpt lat="47.915336964271106" lon="11.71496078947605"><ele>663.5</ele><time>2026-04-18T18:34:14Z</time></trkpt><trkpt lat="47.915612983052064" lon="11.714847931900453"><ele>665.0</ele><time>2026-04-18T18:34:15Z</time></trkpt><trkpt lat="47.91588242390963" lon="11.714739776328363"><ele>664.5</ele><time>2026-04-18T18:34:16Z</time></trkpt><trkpt lat="47.9161505262602" lon="11.714632419024275"><ele>664.0</ele><time>2026-04-18T18:34:17Z</time></trkpt><trkpt lat="47.91641653390941" lon="11.714528456662016"><ele>664.0</ele><time>2026-04-18T18:34:18Z</time></trkpt><trkpt lat="47.916684319900945" lon="11.714422920627717"><ele>664.0</ele><time>2026-04-18T18:34:19Z</time></trkpt><trkpt lat="47.91695551656748" lon="11.714310169231274"><ele>663.0</ele><time>2026-04-18T18:34:20Z</time></trkpt><trkpt lat="47.91722732482293" lon="11.71419178745756"><ele>662.0</ele><time>2026-04-18T18:34:21Z</time></trkpt><trkpt lat="47.91750423685482" lon="11.714069054329634"><ele>663.5</ele><time>2026-04-18T18:34:22Z</time></trkpt><trkpt lat="47.91778774587177" lon="11.713943740177701"><ele>665.0</ele><time>2026-04-18T18:34:23Z</time></trkpt><trkpt lat="47.91805954392143" lon="11.71382949766229"><ele>665.0</ele><time>2026-04-18T18:34:24Z</time></trkpt><trkpt lat="47.91833073036108" lon="11.713715636713898"><ele>665.0</ele><time>2026-04-18T18:34:25Z</time></trkpt><trkpt lat="47.91860404477663" lon="11.71360150533799"><ele>662.5</ele><time>2026-04-18T18:34:26Z</time></trkpt><trkpt lat="47.918876796774256" lon="11.713492315975763"><ele>660.0</ele><time>2026-04-18T18:34:27Z</time></trkpt><trkpt lat="47.919148674588726" lon="11.713385229384409"><ele>661.0</ele><time>2026-04-18T18:34:28Z</time></trkpt><trkpt lat="47.91942334647552" lon="11.713278451143747"><ele>662.0</ele><time>2026-04-18T18:34:29Z</time></trkpt><trkpt lat="47.91970319646805" lon="11.713169425467377"><ele>662.0</ele><time>2026-04-18T18:34:30Z</time></trkpt><trkpt lat="47.919989598550835" lon="11.713053145897883"><ele>662.0</ele><time>2026-04-18T18:34:31Z</time></trkpt><trkpt lat="47.92028238243003" lon="11.7129349601486"><ele>661.5</ele><time>2026-04-18T18:34:32Z</time></trkpt><trkpt lat="47.920581686978835" lon="11.712816134864392"><ele>661.0</ele><time>2026-04-18T18:34:33Z</time></trkpt><trkpt lat="47.920884052177186" lon="11.712697578481297"><ele>660.0</ele><time>2026-04-18T18:34:34Z</time></trkpt><trkpt lat="47.92118685380801" lon="11.712573792813863"><ele>659.0</ele><time>2026-04-18T18:34:35Z</time></trkpt><trkpt lat="47.921494797115336" lon="11.71245275656667"><ele>657.5</ele><time>2026-04-18T18:34:36Z</time></trkpt><trkpt lat="47.921802273136194" lon="11.712332131271765"><ele>656.0</ele><time>2026-04-18T18:34:37Z</time></trkpt><trkpt lat="47.92211219322827" lon="11.712205924734969"><ele>656.0</ele><time>2026-04-18T18:34:38Z</time></trkpt><trkpt lat="47.92242144235717" lon="11.712081994111584"><ele>656.0</ele><time>2026-04-18T18:34:39Z</time></trkpt><trkpt lat="47.92273118833759" lon="11.711955774065633"><ele>657.0</ele><time>2026-04-18T18:34:40Z</time></trkpt><trkpt lat="47.9230389955821" lon="11.711831228847597"><ele>658.0</ele><time>2026-04-18T18:34:41Z</time></trkpt><trkpt lat="47.92334898098383" lon="11.71170697625672"><ele>659.0</ele><time>2026-04-18T18:34:42Z</time></trkpt><trkpt lat="47.9236566310463" lon="11.711585727718024"><ele>660.0</ele><time>2026-04-18T18:34:43Z</time></trkpt><trkpt lat="47.92396509049369" lon="11.711460894535374"><ele>662.5</ele><time>2026-04-18T18:34:44Z</time></trkpt><trkpt lat="47.92427266008009" lon="11.711338887312477"><ele>665.0</ele><time>2026-04-18T18:34:45Z</time></trkpt><trkpt lat="47.924583516815524" lon="11.711218005862243"><ele>665.0</ele><time>2026-04-18T18:34:46Z</time></trkpt><trkpt lat="47.92489311980762" lon="11.711096899806908"><ele>665.0</ele><time>2026-04-18T18:34:47Z</time></trkpt><trkpt lat="47.92520077088047" lon="11.710974249760973"><ele>662.0</ele><time>2026-04-18T18:34:48Z</time></trkpt><trkpt lat="47.92550065879987" lon="11.71085250139463"><ele>659.0</ele><time>2026-04-18T18:34:49Z</time></trkpt><trkpt lat="47.92580408830919" lon="11.710737697854878"><ele>659.0</ele><time>2026-04-18T18:34:50Z</time></trkpt><trkpt lat="47.926107453190504" lon="11.710622599092805"><ele>659.0</ele><time>2026-04-18T18:34:51Z</time></trkpt><trkpt lat="47.92640308196525" lon="11.710509670935165"><ele>659.0</ele><time>2026-04-18T18:34:52Z</time></trkpt><trkpt lat="47.92669943522196" lon="11.710395258608933"><ele>659.0</ele><time>2026-04-18T18:34:53Z</time></trkpt><trkpt lat="47.92700478256841" lon="11.71027634530452"><ele>659.0</ele><time>2026-04-18T18:34:54Z</time></trkpt><trkpt lat="47.92731263524082" lon="11.710170112187942"><ele>659.0</ele><time>2026-04-18T18:34:55Z</time></trkpt><trkpt lat="47.92762370106735" lon="11.71006200611124"><ele>659.0</ele><time>2026-04-18T18:34:56Z</time></trkpt><trkpt lat="47.92793498135153" lon="11.709927182626945"><ele>659.0</ele><time>2026-04-18T18:34:57Z</time></trkpt><trkpt lat="47.92823903824542" lon="11.709779611846264"><ele>660.0</ele><time>2026-04-18T18:34:58Z</time></trkpt><trkpt lat="47.928542065961274" lon="11.709631393101862"><ele>661.0</ele><time>2026-04-18T18:34:59Z</time></trkpt><trkpt lat="47.92884049852438" lon="11.709479530612708"><ele>659.5</ele><time>2026-04-18T18:35:00Z</time></trkpt><trkpt lat="47.92913861863133" lon="11.709326849808962"><ele>658.0</ele><time>2026-04-18T18:35:01Z</time></trkpt><trkpt lat="47.92943655459339" lon="11.709169176546515"><ele>658.0</ele><time>2026-04-18T18:35:02Z</time></trkpt><trkpt lat="47.92973471862336" lon="11.709006770022985"><ele>658.0</ele><time>2026-04-18T18:35:03Z</time></trkpt><trkpt lat="47.930036138417435" lon="11.708842136705057"><ele>658.0</ele><time>2026-04-18T18:35:04Z</time></trkpt><trkpt lat="47.93033794705677" lon="11.708668530013133"><ele>658.0</ele><time>2026-04-18T18:35:05Z</time></trkpt><trkpt lat="47.93063819706373" lon="11.708485595840077"><ele>658.0</ele><time>2026-04-18T18:35:06Z</time></trkpt><trkpt lat="47.93093703261263" lon="11.708298928537191"><ele>658.0</ele><time>2026-04-18T18:35:07Z</time></trkpt><trkpt lat="47.931236058048555" lon="11.708107632891265"><ele>658.0</ele><time>2026-04-18T18:35:08Z</time></trkpt><trkpt lat="47.931533146853596" lon="11.707910416694768"><ele>658.0</ele><time>2026-04-18T18:35:09Z</time></trkpt><trkpt lat="47.93182974265175" lon="11.707714899660346"><ele>658.0</ele><time>2026-04-18T18:35:10Z</time></trkpt><trkpt lat="47.93212743033536" lon="11.707527677273486"><ele>658.0</ele><time>2026-04-18T18:35:11Z</time></trkpt><trkpt lat="47.93242326970696" lon="11.707335539462452"><ele>659.5</ele><time>2026-04-18T18:35:12Z</time></trkpt><trkpt lat="47.932720772095365" lon="11.707145148615414"><ele>661.0</ele><time>2026-04-18T18:35:13Z</time></trkpt><trkpt lat="47.93301726078533" lon="11.706957404070035"><ele>658.5</ele><time>2026-04-18T18:35:14Z</time></trkpt><trkpt lat="47.933313346098274" lon="11.706766204088616"><ele>656.0</ele><time>2026-04-18T18:35:15Z</time></trkpt><trkpt lat="47.9336082469787" lon="11.706574985445112"><ele>656.0</ele><time>2026-04-18T18:35:16Z</time></trkpt><trkpt lat="47.93390198235478" lon="11.706385034346292"><ele>656.0</ele><time>2026-04-18T18:35:17Z</time></trkpt><trkpt lat="47.934194234026734" lon="11.70619716649515"><ele>656.5</ele><time>2026-04-18T18:35:18Z</time></trkpt><trkpt lat="47.934486648393886" lon="11.706009344044885"><ele>657.0</ele><time>2026-04-18T18:35:19Z</time></trkpt><trkpt lat="47.93478205236277" lon="11.70582363750699"><ele>657.0</ele><time>2026-04-18T18:35:20Z</time></trkpt><trkpt lat="47.935079987075184" lon="11.705638577320904"><ele>657.0</ele><time>2026-04-18T18:35:21Z</time></trkpt><trkpt lat="47.93537916985851" lon="11.705454289094249"><ele>657.0</ele><time>2026-04-18T18:35:22Z</time></trkpt><trkpt lat="47.93567746036291" lon="11.705275933961547"><ele>657.0</ele><time>2026-04-18T18:35:23Z</time></trkpt><trkpt lat="47.935971535568605" lon="11.705102616298115"><ele>656.0</ele><time>2026-04-18T18:35:24Z</time></trkpt><trkpt lat="47.93625777612391" lon="11.704924991803978"><ele>655.0</ele><time>2026-04-18T18:35:25Z</time></trkpt><trkpt lat="47.936545306692324" lon="11.704739951205154"><ele>654.5</ele><time>2026-04-18T18:35:26Z</time></trkpt><trkpt lat="47.93683196563553" lon="11.704547588214467"><ele>654.0</ele><time>2026-04-18T18:35:27Z</time></trkpt><trkpt lat="47.9371232550877" lon="11.704352588360416"><ele>652.5</ele><time>2026-04-18T18:35:28Z</time></trkpt><trkpt lat="47.93741774762859" lon="11.70415529930219"><ele>651.0</ele><time>2026-04-18T18:35:29Z</time></trkpt><trkpt lat="47.937713142634" lon="11.70395998235507"><ele>651.0</ele><time>2026-04-18T18:35:30Z</time></trkpt><trkpt lat="47.93798886814574" lon="11.703769398640349"><ele>651.0</ele><time>2026-04-18T18:35:31Z</time></trkpt><trkpt lat="47.93827054676244" lon="11.703584530067607"><ele>649.5</ele><time>2026-04-18T18:35:32Z</time></trkpt><trkpt lat="47.93855028514984" lon="11.70340560053695"><ele>648.0</ele><time>2026-04-18T18:35:33Z</time></trkpt><trkpt lat="47.93883104088547" lon="11.70322840792831"><ele>648.0</ele><time>2026-04-18T18:35:34Z</time></trkpt><trkpt lat="47.93910417887698" lon="11.703048827705773"><ele>648.0</ele><time>2026-04-18T18:35:35Z</time></trkpt><trkpt lat="47.93938167521441" lon="11.7028676142114"><ele>650.5</ele><time>2026-04-18T18:35:36Z</time></trkpt><trkpt lat="47.93966487145605" lon="11.702685166926912"><ele>653.0</ele><time>2026-04-18T18:35:37Z</time></trkpt><trkpt lat="47.939956512310594" lon="11.702499038494645"><ele>653.0</ele><time>2026-04-18T18:35:38Z</time></trkpt><trkpt lat="47.940245245258076" lon="11.702303971768147"><ele>653.0</ele><time>2026-04-18T18:35:39Z</time></trkpt><trkpt lat="47.94053134159972" lon="11.702102233321964"><ele>652.5</ele><time>2026-04-18T18:35:40Z</time></trkpt><trkpt lat="47.94081727951044" lon="11.701896000141472"><ele>652.0</ele><time>2026-04-18T18:35:41Z</time></trkpt><trkpt lat="47.9411033908162" lon="11.701702313681283"><ele>651.0</ele><time>2026-04-18T18:35:42Z</time></trkpt><trkpt lat="47.94138938713719" lon="11.701522025966185"><ele>650.0</ele><time>2026-04-18T18:35:43Z</time></trkpt><trkpt lat="47.94167578753532" lon="11.701340026259661"><ele>648.0</ele><time>2026-04-18T18:35:44Z</time></trkpt><trkpt lat="47.94196292722563" lon="11.701154043343944"><ele>646.0</ele><time>2026-04-18T18:35:45Z</time></trkpt><trkpt lat="47.9422498476518" lon="11.700968012515602"><ele>646.0</ele><time>2026-04-18T18:35:46Z</time></trkpt><trkpt lat="47.942534784126735" lon="11.70078251557798"><ele>646.0</ele><time>2026-04-18T18:35:47Z</time></trkpt><trkpt lat="47.94282368209848" lon="11.700595287292858"><ele>647.0</ele><time>2026-04-18T18:35:48Z</time></trkpt><trkpt lat="47.9431155073191" lon="11.700410555061344"><ele>648.0</ele><time>2026-04-18T18:35:49Z</time></trkpt><trkpt lat="47.94341019997175" lon="11.700221571591547"><ele>648.0</ele><time>2026-04-18T18:35:50Z</time></trkpt><trkpt lat="47.94371283088219" lon="11.700020651057644"><ele>648.0</ele><time>2026-04-18T18:35:51Z</time></trkpt><trkpt lat="47.94402054041189" lon="11.69982025665867"><ele>646.5</ele><time>2026-04-18T18:35:52Z</time></trkpt><trkpt lat="47.94433035063045" lon="11.699624318842035"><ele>645.0</ele><time>2026-04-18T18:35:53Z</time></trkpt><trkpt lat="47.94464015443566" lon="11.699425486566353"><ele>645.5</ele><time>2026-04-18T18:35:54Z</time></trkpt><trkpt lat="47.94494843545535" lon="11.69922503343591"><ele>646.0</ele><time>2026-04-18T18:35:55Z</time></trkpt><trkpt lat="47.94525804376718" lon="11.69902432010673"><ele>648.0</ele><time>2026-04-18T18:35:56Z</time></trkpt><trkpt lat="47.94556429965435" lon="11.698823286284313"><ele>650.0</ele><time>2026-04-18T18:35:57Z</time></trkpt><trkpt lat="47.94586947215522" lon="11.698624064823747"><ele>647.5</ele><time>2026-04-18T18:35:58Z</time></trkpt><trkpt lat="47.94617278359484" lon="11.698433985703602"><ele>645.0</ele><time>2026-04-18T18:35:59Z</time></trkpt><trkpt lat="47.94647594945506" lon="11.698248430458538"><ele>644.5</ele><time>2026-04-18T18:36:00Z</time></trkpt><trkpt lat="47.94677756498387" lon="11.698069419802547"><ele>644.0</ele><time>2026-04-18T18:36:01Z</time></trkpt><trkpt lat="47.94707578245119" lon="11.697888385320416"><ele>644.0</ele><time>2026-04-18T18:36:02Z</time></trkpt><trkpt lat="47.94737144222656" lon="11.697700048821718"><ele>644.0</ele><time>2026-04-18T18:36:03Z</time></trkpt><trkpt lat="47.94766364641921" lon="11.697508994331272"><ele>644.0</ele><time>2026-04-18T18:36:04Z</time></trkpt><trkpt lat="47.947956032217135" lon="11.69732273344362"><ele>644.0</ele><time>2026-04-18T18:36:05Z</time></trkpt><trkpt lat="47.948241278122346" lon="11.697137775119156"><ele>641.0</ele><time>2026-04-18T18:36:06Z</time></trkpt><trkpt lat="47.9485177240594" lon="11.696959927985901"><ele>638.0</ele><time>2026-04-18T18:36:07Z</time></trkpt><trkpt lat="47.94878652434556" lon="11.696783253564927"><ele>638.0</ele><time>2026-04-18T18:36:08Z</time></trkpt><trkpt lat="47.949049116487615" lon="11.696608374309683"><ele>638.0</ele><time>2026-04-18T18:36:09Z</time></trkpt><trkpt lat="47.94931180455066" lon="11.696438717777161"><ele>638.0</ele><time>2026-04-18T18:36:10Z</time></trkpt><trkpt lat="47.94957698748448" lon="11.696270313624355"><ele>638.0</ele><time>2026-04-18T18:36:11Z</time></trkpt><trkpt lat="47.949843760605376" lon="11.696097654706847"><ele>636.5</ele><time>2026-04-18T18:36:12Z</time></trkpt><trkpt lat="47.9501111394681" lon="11.69592063503769"><ele>635.0</ele><time>2026-04-18T18:36:13Z</time></trkpt><trkpt lat="47.95037771254784" lon="11.695746278209198"><ele>635.0</ele><time>2026-04-18T18:36:14Z</time></trkpt><trkpt lat="47.9506474201615" lon="11.695572696369247"><ele>635.0</ele><time>2026-04-18T18:36:15Z</time></trkpt><trkpt lat="47.95091692804406" lon="11.695401349303172"><ele>635.5</ele><time>2026-04-18T18:36:16Z</time></trkpt><trkpt lat="47.951185427307834" lon="11.695227573658782"><ele>636.0</ele><time>2026-04-18T18:36:17Z</time></trkpt><trkpt lat="47.951455375712875" lon="11.695050259406656"><ele>637.5</ele><time>2026-04-18T18:36:18Z</time></trkpt><trkpt lat="47.95172994246297" lon="11.694876007617095"><ele>639.0</ele><time>2026-04-18T18:36:19Z</time></trkpt><trkpt lat="47.952006084686985" lon="11.694697445280298"><ele>639.0</ele><time>2026-04-18T18:36:20Z</time></trkpt><trkpt lat="47.95228252721342" lon="11.694513244392782"><ele>639.0</ele><time>2026-04-18T18:36:21Z</time></trkpt><trkpt lat="47.95255977505705" lon="11.694332877579898"><ele>637.0</ele><time>2026-04-18T18:36:22Z</time></trkpt><trkpt lat="47.95283719268251" lon="11.694153253648986"><ele>635.0</ele><time>2026-04-18T18:36:23Z</time></trkpt><trkpt lat="47.9531164343876" lon="11.693973008555277"><ele>633.5</ele><time>2026-04-18T18:36:24Z</time></trkpt><trkpt lat="47.953396441360184" lon="11.693792312366257"><ele>632.0</ele><time>2026-04-18T18:36:25Z</time></trkpt><trkpt lat="47.953680827834866" lon="11.693609860181237"><ele>632.0</ele><time>2026-04-18T18:36:26Z</time></trkpt><trkpt lat="47.95396668336572" lon="11.693425013260422"><ele>632.0</ele><time>2026-04-18T18:36:27Z</time></trkpt><trkpt lat="47.95425543292401" lon="11.693237234515895"><ele>632.5</ele><time>2026-04-18T18:36:28Z</time></trkpt><trkpt lat="47.95454872519929" lon="11.69304750264447"><ele>633.0</ele><time>2026-04-18T18:36:29Z</time></trkpt><trkpt lat="47.954844316411595" lon="11.692858265232559"><ele>633.0</ele><time>2026-04-18T18:36:30Z</time></trkpt><trkpt lat="47.955141045088396" lon="11.692668797445423"><ele>633.0</ele><time>2026-04-18T18:36:31Z</time></trkpt><trkpt lat="47.95543780617251" lon="11.692481496572674"><ele>633.0</ele><time>2026-04-18T18:36:32Z</time></trkpt><trkpt lat="47.95573519545571" lon="11.692299055796282"><ele>633.0</ele><time>2026-04-18T18:36:33Z</time></trkpt><trkpt lat="47.956032812939654" lon="11.69211530921151"><ele>633.0</ele><time>2026-04-18T18:36:33.999Z</time></trkpt><trkpt lat="47.956331672091046" lon="11.691934436908857"><ele>633.0</ele><time>2026-04-18T18:36:34.999Z</time></trkpt><trkpt lat="47.956630451669604" lon="11.69176275020886"><ele>633.5</ele><time>2026-04-18T18:36:35.999Z</time></trkpt><trkpt lat="47.95692343499279" lon="11.691595537597044"><ele>634.0</ele><time>2026-04-18T18:36:36.999Z</time></trkpt><trkpt lat="47.95721415164841" lon="11.691433778512563"><ele>634.0</ele><time>2026-04-18T18:36:37.999Z</time></trkpt><trkpt lat="47.957505463439084" lon="11.691274226007764"><ele>634.0</ele><time>2026-04-18T18:36:38.999Z</time></trkpt><trkpt lat="47.95779721889225" lon="11.691118529020006"><ele>633.5</ele><time>2026-04-18T18:36:39.999Z</time></trkpt><trkpt lat="47.95808990713504" lon="11.690964294017826"><ele>633.0</ele><time>2026-04-18T18:36:40.999Z</time></trkpt><trkpt lat="47.95837946183565" lon="11.690816546781823"><ele>633.0</ele><time>2026-04-18T18:36:41.999Z</time></trkpt><trkpt lat="47.95866556076399" lon="11.690673405224791"><ele>633.0</ele><time>2026-04-18T18:36:42.999Z</time></trkpt><trkpt lat="47.958950452007805" lon="11.690534288023844"><ele>635.0</ele><time>2026-04-18T18:36:43.999Z</time></trkpt><trkpt lat="47.959231143154035" lon="11.690398224896404"><ele>637.0</ele><time>2026-04-18T18:36:44.999Z</time></trkpt><trkpt lat="47.95951470789034" lon="11.690262397488196"><ele>636.0</ele><time>2026-04-18T18:36:45.999Z</time></trkpt><trkpt lat="47.959802630098636" lon="11.690119393475351"><ele>635.0</ele><time>2026-04-18T18:36:46.999Z</time></trkpt><trkpt lat="47.96009797909674" lon="11.689976885476057"><ele>635.0</ele><time>2026-04-18T18:36:47.999Z</time></trkpt><trkpt lat="47.96039934217473" lon="11.68983646869805"><ele>635.0</ele><time>2026-04-18T18:36:48.999Z</time></trkpt><trkpt lat="47.96071144854574" lon="11.68969719283424"><ele>632.5</ele><time>2026-04-18T18:36:49.999Z</time></trkpt><trkpt lat="47.96102829490176" lon="11.689558559634575"><ele>630.0</ele><time>2026-04-18T18:36:50.999Z</time></trkpt><trkpt lat="47.96134629363169" lon="11.68942858180485"><ele>630.0</ele><time>2026-04-18T18:36:51.999Z</time></trkpt><trkpt lat="47.96166649866513" lon="11.68930334425024"><ele>630.0</ele><time>2026-04-18T18:36:52.999Z</time></trkpt><trkpt lat="47.96198622292968" lon="11.689183683804936"><ele>630.0</ele><time>2026-04-18T18:36:53.999Z</time></trkpt><trkpt lat="47.962304552601594" lon="11.689064559712254"><ele>630.0</ele><time>2026-04-18T18:36:54.999Z</time></trkpt><trkpt lat="47.96262696346204" lon="11.688952366793638"><ele>629.0</ele><time>2026-04-18T18:36:55.999Z</time></trkpt><trkpt lat="47.962949157307726" lon="11.688842564872099"><ele>628.0</ele><time>2026-04-18T18:36:56.999Z</time></trkpt><trkpt lat="47.963282670484176" lon="11.688735493027718"><ele>629.0</ele><time>2026-04-18T18:36:57.999Z</time></trkpt><trkpt lat="47.96362213488453" lon="11.688624691510373"><ele>630.0</ele><time>2026-04-18T18:36:58.999Z</time></trkpt><trkpt lat="47.96396110720731" lon="11.68851861694555"><ele>630.5</ele><time>2026-04-18T18:36:59.999Z</time></trkpt><trkpt lat="47.964306126567884" lon="11.688427051150438"><ele>631.0</ele><time>2026-04-18T18:37:00.999Z</time></trkpt><trkpt lat="47.96464697437453" lon="11.688344625629055"><ele>631.0</ele><time>2026-04-18T18:37:01.999Z</time></trkpt><trkpt lat="47.964980822232334" lon="11.688270891655476"><ele>631.0</ele><time>2026-04-18T18:37:02.999Z</time></trkpt><trkpt lat="47.965306976642054" lon="11.688191718211206"><ele>630.5</ele><time>2026-04-18T18:37:03.999Z</time></trkpt><trkpt lat="47.96562926517667" lon="11.688100740732628"><ele>630.0</ele><time>2026-04-18T18:37:04.999Z</time></trkpt><trkpt lat="47.96594836468844" lon="11.688004986110029"><ele>628.5</ele><time>2026-04-18T18:37:05.999Z</time></trkpt><trkpt lat="47.96626338128748" lon="11.687912413548238"><ele>627.0</ele><time>2026-04-18T18:37:06.999Z</time></trkpt><trkpt lat="47.966575316574634" lon="11.687824512644175"><ele>626.5</ele><time>2026-04-18T18:37:07.999Z</time></trkpt><trkpt lat="47.96687893866995" lon="11.687736030878703"><ele>626.0</ele><time>2026-04-18T18:37:08.999Z</time></trkpt><trkpt lat="47.96717932458223" lon="11.687648598544696"><ele>626.0</ele><time>2026-04-18T18:37:09.999Z</time></trkpt><trkpt lat="47.96747711412107" lon="11.687565109342996"><ele>626.0</ele><time>2026-04-18T18:37:10.999Z</time></trkpt><trkpt lat="47.96777386999945" lon="11.687484083354187"><ele>626.0</ele><time>2026-04-18T18:37:11.999Z</time></trkpt><trkpt lat="47.96807203359427" lon="11.687402861703974"><ele>626.0</ele><time>2026-04-18T18:37:12.999Z</time></trkpt><trkpt lat="47.968367853249134" lon="11.6873183700861"><ele>626.0</ele><time>2026-04-18T18:37:13.999Z</time></trkpt><trkpt lat="47.968659465884954" lon="11.687239374292254"><ele>626.0</ele><time>2026-04-18T18:37:14.999Z</time></trkpt><trkpt lat="47.968948030312006" lon="11.687161506506198"><ele>626.0</ele><time>2026-04-18T18:37:15.999Z</time></trkpt><trkpt lat="47.96924077006601" lon="11.687081437889727"><ele>626.0</ele><time>2026-04-18T18:37:17Z</time></trkpt><trkpt lat="47.96953050006582" lon="11.686997988878046"><ele>624.5</ele><time>2026-04-18T18:37:18Z</time></trkpt><trkpt lat="47.969824594198975" lon="11.68691365653352"><ele>623.0</ele><time>2026-04-18T18:37:19Z</time></trkpt><trkpt lat="47.9701204775426" lon="11.686828594302678"><ele>623.0</ele><time>2026-04-18T18:37:20Z</time></trkpt><trkpt lat="47.97041627734308" lon="11.68674518812291"><ele>623.0</ele><time>2026-04-18T18:37:21Z</time></trkpt><trkpt lat="47.97072231554105" lon="11.686660877479053"><ele>625.0</ele><time>2026-04-18T18:37:22Z</time></trkpt><trkpt lat="47.971034114360876" lon="11.686577628090115"><ele>627.0</ele><time>2026-04-18T18:37:23Z</time></trkpt><trkpt lat="47.971350763694936" lon="11.686492497825734"><ele>627.0</ele><time>2026-04-18T18:37:24Z</time></trkpt><trkpt lat="47.97165871253172" lon="11.68640099941889"><ele>627.0</ele><time>2026-04-18T18:37:25Z</time></trkpt><trkpt lat="47.97195079719364" lon="11.68630876750052"><ele>628.5</ele><time>2026-04-18T18:37:26Z</time></trkpt><trkpt lat="47.97224735637662" lon="11.686220178934748"><ele>630.0</ele><time>2026-04-18T18:37:27Z</time></trkpt><trkpt lat="47.97253920608466" lon="11.686139570841632"><ele>626.0</ele><time>2026-04-18T18:37:28Z</time></trkpt><trkpt lat="47.972824772627256" lon="11.686063662699132"><ele>622.0</ele><time>2026-04-18T18:37:29Z</time></trkpt><trkpt lat="47.97311771290282" lon="11.685984107723689"><ele>625.5</ele><time>2026-04-18T18:37:30Z</time></trkpt><trkpt lat="47.973419938390506" lon="11.685894928030143"><ele>629.0</ele><time>2026-04-18T18:37:31Z</time></trkpt><trkpt lat="47.97372710332325" lon="11.685808732042242"><ele>629.0</ele><time>2026-04-18T18:37:32Z</time></trkpt><trkpt lat="47.97403634074706" lon="11.685722349431154"><ele>629.0</ele><time>2026-04-18T18:37:33Z</time></trkpt><trkpt lat="47.97434615148461" lon="11.685635603383432"><ele>629.0</ele><time>2026-04-18T18:37:34Z</time></trkpt><trkpt lat="47.974656195604496" lon="11.685547540887518"><ele>629.0</ele><time>2026-04-18T18:37:35Z</time></trkpt><trkpt lat="47.97496748869306" lon="11.685459767296681"><ele>625.5</ele><time>2026-04-18T18:37:36Z</time></trkpt><trkpt lat="47.97527812486474" lon="11.685371971455645"><ele>622.0</ele><time>2026-04-18T18:37:37.001Z</time></trkpt><trkpt lat="47.975591231023934" lon="11.685284622894732"><ele>620.5</ele><time>2026-04-18T18:37:38.001Z</time></trkpt><trkpt lat="47.975900131315846" lon="11.685197539474997"><ele>619.0</ele><time>2026-04-18T18:37:39.001Z</time></trkpt><trkpt lat="47.97618804993683" lon="11.6851163184932"><ele>619.0</ele><time>2026-04-18T18:37:40.001Z</time></trkpt><trkpt lat="47.976477587382334" lon="11.685038836102832"><ele>619.0</ele><time>2026-04-18T18:37:41.001Z</time></trkpt><trkpt lat="47.97676459774525" lon="11.684958528086153"><ele>618.5</ele><time>2026-04-18T18:37:42.001Z</time></trkpt><trkpt lat="47.97705051446603" lon="11.684874703730808"><ele>618.0</ele><time>2026-04-18T18:37:43.001Z</time></trkpt><trkpt lat="47.97733454824878" lon="11.684792404454623"><ele>617.5</ele><time>2026-04-18T18:37:44.001Z</time></trkpt><trkpt lat="47.97761783864029" lon="11.684712937516291"><ele>617.0</ele><time>2026-04-18T18:37:45.001Z</time></trkpt><trkpt lat="47.97789704017069" lon="11.68463495400212"><ele>617.0</ele><time>2026-04-18T18:37:46.001Z</time></trkpt><trkpt lat="47.97818184616885" lon="11.684554379611681"><ele>617.0</ele><time>2026-04-18T18:37:47.001Z</time></trkpt><trkpt lat="47.97846917557914" lon="11.68447186243052"><ele>616.0</ele><time>2026-04-18T18:37:48.001Z</time></trkpt><trkpt lat="47.97875757163563" lon="11.684388728972879"><ele>615.0</ele><time>2026-04-18T18:37:49.001Z</time></trkpt><trkpt lat="47.9790471849906" lon="11.684305657501465"><ele>614.0</ele><time>2026-04-18T18:37:50.001Z</time></trkpt><trkpt lat="47.97933881314323" lon="11.684224836957164"><ele>613.0</ele><time>2026-04-18T18:37:51.001Z</time></trkpt><trkpt lat="47.97963054360219" lon="11.68414297478252"><ele>613.0</ele><time>2026-04-18T18:37:52.001Z</time></trkpt><trkpt lat="47.979922631591506" lon="11.68405719329495"><ele>613.0</ele><time>2026-04-18T18:37:53.001Z</time></trkpt><trkpt lat="47.98021366922105" lon="11.683974076471253"><ele>614.0</ele><time>2026-04-18T18:37:54.001Z</time></trkpt><trkpt lat="47.98050463181917" lon="11.683891017001898"><ele>615.0</ele><time>2026-04-18T18:37:55Z</time></trkpt><trkpt lat="47.98079290872583" lon="11.683809464041566"><ele>615.5</ele><time>2026-04-18T18:37:56Z</time></trkpt><trkpt lat="47.98108119392763" lon="11.683731458508733"><ele>616.0</ele><time>2026-04-18T18:37:57Z</time></trkpt><trkpt lat="47.98137134404024" lon="11.683650990004"><ele>616.0</ele><time>2026-04-18T18:37:58Z</time></trkpt><trkpt lat="47.98166183941487" lon="11.683569677253013"><ele>616.0</ele><time>2026-04-18T18:37:59Z</time></trkpt><trkpt lat="47.981952276115564" lon="11.683488671217164"><ele>616.0</ele><time>2026-04-18T18:38:00Z</time></trkpt><trkpt lat="47.98224366548672" lon="11.68340752945668"><ele>616.0</ele><time>2026-04-18T18:38:01Z</time></trkpt><trkpt lat="47.98253388044983" lon="11.683326230896895"><ele>615.5</ele><time>2026-04-18T18:38:02Z</time></trkpt><trkpt lat="47.98282233249349" lon="11.68325084197178"><ele>615.0</ele><time>2026-04-18T18:38:03Z</time></trkpt><trkpt lat="47.9831128169962" lon="11.68317113553712"><ele>614.0</ele><time>2026-04-18T18:38:04Z</time></trkpt><trkpt lat="47.98340697532602" lon="11.683083708131925"><ele>613.0</ele><time>2026-04-18T18:38:05Z</time></trkpt><trkpt lat="47.98370661509715" lon="11.682996499648356"><ele>613.0</ele><time>2026-04-18T18:38:06Z</time></trkpt><trkpt lat="47.98400681300691" lon="11.682911947371494"><ele>613.0</ele><time>2026-04-18T18:38:07Z</time></trkpt><trkpt lat="47.98430359922149" lon="11.682825741933824"><ele>612.5</ele><time>2026-04-18T18:38:08Z</time></trkpt><trkpt lat="47.98459812298588" lon="11.682740784683496"><ele>612.0</ele><time>2026-04-18T18:38:09Z</time></trkpt><trkpt lat="47.984890350981196" lon="11.682654047092019"><ele>612.0</ele><time>2026-04-18T18:38:10Z</time></trkpt><trkpt lat="47.985178310754144" lon="11.682574529762457"><ele>612.0</ele><time>2026-04-18T18:38:11Z</time></trkpt><trkpt lat="47.98546344222271" lon="11.682497363499435"><ele>612.0</ele><time>2026-04-18T18:38:12Z</time></trkpt><trkpt lat="47.985747117993576" lon="11.682417302158967"><ele>612.0</ele><time>2026-04-18T18:38:13Z</time></trkpt><trkpt lat="47.98603370184848" lon="11.682340168506792"><ele>612.0</ele><time>2026-04-18T18:38:14Z</time></trkpt><trkpt lat="47.98632462117174" lon="11.6822635026024"><ele>612.0</ele><time>2026-04-18T18:38:15Z</time></trkpt><trkpt lat="47.986616417833964" lon="11.682185484758941"><ele>613.5</ele><time>2026-04-18T18:38:16Z</time></trkpt><trkpt lat="47.986910044990125" lon="11.682106718322895"><ele>615.0</ele><time>2026-04-18T18:38:17Z</time></trkpt><trkpt lat="47.987205617989865" lon="11.682026996199589"><ele>615.0</ele><time>2026-04-18T18:38:18Z</time></trkpt><trkpt lat="47.98749978346191" lon="11.681946108033156"><ele>615.0</ele><time>2026-04-18T18:38:19Z</time></trkpt><trkpt lat="47.98779273684297" lon="11.681863908677949"><ele>614.0</ele><time>2026-04-18T18:38:20Z</time></trkpt><trkpt lat="47.98808442090171" lon="11.681780580681627"><ele>613.0</ele><time>2026-04-18T18:38:21Z</time></trkpt><trkpt lat="47.9883800123997" lon="11.68169479766408"><ele>613.0</ele><time>2026-04-18T18:38:22Z</time></trkpt><trkpt lat="47.98867519589295" lon="11.681607076918501"><ele>613.0</ele><time>2026-04-18T18:38:23Z</time></trkpt><trkpt lat="47.98896987321156" lon="11.68150964014109"><ele>614.5</ele><time>2026-04-18T18:38:24Z</time></trkpt><trkpt lat="47.98926381684322" lon="11.681401929825943"><ele>616.0</ele><time>2026-04-18T18:38:25Z</time></trkpt><trkpt lat="47.989557232174384" lon="11.681289689030788"><ele>616.0</ele><time>2026-04-18T18:38:26Z</time></trkpt><trkpt lat="47.98984893015121" lon="11.68117710934405"><ele>616.0</ele><time>2026-04-18T18:38:27Z</time></trkpt><trkpt lat="47.99013934652577" lon="11.6810635991999"><ele>611.5</ele><time>2026-04-18T18:38:28Z</time></trkpt><trkpt lat="47.990427013370436" lon="11.680950211330774"><ele>607.0</ele><time>2026-04-18T18:38:29Z</time></trkpt><trkpt lat="47.9907161177137" lon="11.680832708786927"><ele>609.5</ele><time>2026-04-18T18:38:30Z</time></trkpt><trkpt lat="47.991004037099934" lon="11.680705668612474"><ele>612.0</ele><time>2026-04-18T18:38:31Z</time></trkpt><trkpt lat="47.99129363645686" lon="11.68056773527491"><ele>612.0</ele><time>2026-04-18T18:38:32Z</time></trkpt><trkpt lat="47.99158552528339" lon="11.680427346663741"><ele>612.0</ele><time>2026-04-18T18:38:33Z</time></trkpt><trkpt lat="47.991873535840384" lon="11.680285855910771"><ele>610.0</ele><time>2026-04-18T18:38:34Z</time></trkpt><trkpt lat="47.99215819122477" lon="11.680136862696173"><ele>608.0</ele><time>2026-04-18T18:38:35Z</time></trkpt><trkpt lat="47.992440941275625" lon="11.679978297393735"><ele>608.5</ele><time>2026-04-18T18:38:36Z</time></trkpt><trkpt lat="47.992723593217676" lon="11.679817701084511"><ele>609.0</ele><time>2026-04-18T18:38:37Z</time></trkpt><trkpt lat="47.99300373040337" lon="11.679658402290046"><ele>609.0</ele><time>2026-04-18T18:38:38Z</time></trkpt><trkpt lat="47.99328286238481" lon="11.679498999680078"><ele>609.0</ele><time>2026-04-18T18:38:39Z</time></trkpt><trkpt lat="47.993558685501526" lon="11.679330734403928"><ele>608.0</ele><time>2026-04-18T18:38:40Z</time></trkpt><trkpt lat="47.99382784285083" lon="11.67915379826601"><ele>607.0</ele><time>2026-04-18T18:38:41Z</time></trkpt><trkpt lat="47.99409388892951" lon="11.678978050729636"><ele>606.0</ele><time>2026-04-18T18:38:42Z</time></trkpt><trkpt lat="47.99435084596326" lon="11.67880659211851"><ele>605.0</ele><time>2026-04-18T18:38:43Z</time></trkpt><trkpt lat="47.9946077261071" lon="11.678635108107258"><ele>603.5</ele><time>2026-04-18T18:38:44Z</time></trkpt><trkpt lat="47.994864527650016" lon="11.678459101299646"><ele>602.0</ele><time>2026-04-18T18:38:45Z</time></trkpt><trkpt lat="47.99512032285632" lon="11.67828682468268"><ele>600.5</ele><time>2026-04-18T18:38:46Z</time></trkpt><trkpt lat="47.99537520724826" lon="11.678115616850866"><ele>599.0</ele><time>2026-04-18T18:38:47Z</time></trkpt><trkpt lat="47.9956294167997" lon="11.677941207622482"><ele>600.0</ele><time>2026-04-18T18:38:48Z</time></trkpt><trkpt lat="47.99588255650268" lon="11.677766035355576"><ele>601.0</ele><time>2026-04-18T18:38:49Z</time></trkpt><trkpt lat="47.99613577627443" lon="11.677590898287132"><ele>601.0</ele><time>2026-04-18T18:38:50Z</time></trkpt><trkpt lat="47.99639106076214" lon="11.677417152255558"><ele>601.0</ele><time>2026-04-18T18:38:51Z</time></trkpt><trkpt lat="47.99664780953586" lon="11.677243118534973"><ele>600.0</ele><time>2026-04-18T18:38:52Z</time></trkpt><trkpt lat="47.99691052150315" lon="11.677063988629772"><ele>599.0</ele><time>2026-04-18T18:38:53Z</time></trkpt><trkpt lat="47.99717563727435" lon="11.676882374083995"><ele>598.5</ele><time>2026-04-18T18:38:54Z</time></trkpt><trkpt lat="47.9974429322761" lon="11.676698328744395"><ele>598.0</ele><time>2026-04-18T18:38:55Z</time></trkpt><trkpt lat="47.997711155983296" lon="11.676512944602543"><ele>597.5</ele><time>2026-04-18T18:38:56Z</time></trkpt><trkpt lat="47.99798065528014" lon="11.67632654188826"><ele>597.0</ele><time>2026-04-18T18:38:57Z</time></trkpt><trkpt lat="47.99824997351778" lon="11.676140274507906"><ele>596.5</ele><time>2026-04-18T18:38:58Z</time></trkpt><trkpt lat="47.998518723525066" lon="11.675954588249272"><ele>596.0</ele><time>2026-04-18T18:38:59Z</time></trkpt><trkpt lat="47.998783631608774" lon="11.67576850526656"><ele>596.0</ele><time>2026-04-18T18:39:00Z</time></trkpt><trkpt lat="47.99904485969489" lon="11.675587674822697"><ele>596.0</ele><time>2026-04-18T18:39:01Z</time></trkpt><trkpt lat="47.99930377513044" lon="11.675411963571651"><ele>595.5</ele><time>2026-04-18T18:39:02Z</time></trkpt><trkpt lat="47.99955845879713" lon="11.675236934524404"><ele>595.0</ele><time>2026-04-18T18:39:03Z</time></trkpt><trkpt lat="47.99981190417082" lon="11.675058301320593"><ele>595.0</ele><time>2026-04-18T18:39:04Z</time></trkpt><trkpt lat="48.00006448113265" lon="11.67488181287723"><ele>595.0</ele><time>2026-04-18T18:39:05Z</time></trkpt><trkpt lat="48.000319675140915" lon="11.674709095395116"><ele>595.0</ele><time>2026-04-18T18:39:06Z</time></trkpt><trkpt lat="48.000577386809304" lon="11.674535002093586"><ele>595.0</ele><time>2026-04-18T18:39:07Z</time></trkpt><trkpt lat="48.0008391866492" lon="11.674355022757783"><ele>595.5</ele><time>2026-04-18T18:39:08Z</time></trkpt><trkpt lat="48.00110504763127" lon="11.674172773652638"><ele>596.0</ele><time>2026-04-18T18:39:09Z</time></trkpt><trkpt lat="48.001372049301835" lon="11.673991743068282"><ele>596.0</ele><time>2026-04-18T18:39:10Z</time></trkpt><trkpt lat="48.00162026072961" lon="11.673819089805745"><ele>596.0</ele><time>2026-04-18T18:39:11Z</time></trkpt><trkpt lat="48.0018680433291" lon="11.673645009150375"><ele>595.0</ele><time>2026-04-18T18:39:12Z</time></trkpt><trkpt lat="48.00212101704409" lon="11.673472640104915"><ele>594.0</ele><time>2026-04-18T18:39:13Z</time></trkpt><trkpt lat="48.00237594797672" lon="11.673301304232675"><ele>593.0</ele><time>2026-04-18T18:39:14Z</time></trkpt><trkpt lat="48.00262779129422" lon="11.673131861309479"><ele>592.0</ele><time>2026-04-18T18:39:15Z</time></trkpt><trkpt lat="48.002873647469144" lon="11.672963767574839"><ele>592.0</ele><time>2026-04-18T18:39:16Z</time></trkpt><trkpt lat="48.00312395115143" lon="11.67279329471948"><ele>592.0</ele><time>2026-04-18T18:39:17Z</time></trkpt><trkpt lat="48.00337689425853" lon="11.67262144533792"><ele>592.0</ele><time>2026-04-18T18:39:18Z</time></trkpt><trkpt lat="48.003629350011174" lon="11.67244680455507"><ele>592.0</ele><time>2026-04-18T18:39:19Z</time></trkpt><trkpt lat="48.00388164079286" lon="11.672271106037092"><ele>592.0</ele><time>2026-04-18T18:39:20Z</time></trkpt><trkpt lat="48.00413307920917" lon="11.672096280607038"><ele>592.0</ele><time>2026-04-18T18:39:21Z</time></trkpt><trkpt lat="48.00438150068318" lon="11.671924574847916"><ele>592.5</ele><time>2026-04-18T18:39:22Z</time></trkpt><trkpt lat="48.004627658726605" lon="11.671755249533556"><ele>593.0</ele><time>2026-04-18T18:39:23Z</time></trkpt><trkpt lat="48.00487660520759" lon="11.671588540629646"><ele>593.0</ele><time>2026-04-18T18:39:24Z</time></trkpt><trkpt lat="48.005124509573314" lon="11.671421037058611"><ele>593.0</ele><time>2026-04-18T18:39:25Z</time></trkpt><trkpt lat="48.00537235281749" lon="11.671252395058334"><ele>593.5</ele><time>2026-04-18T18:39:26Z</time></trkpt><trkpt lat="48.005623436646104" lon="11.671080933527845"><ele>594.0</ele><time>2026-04-18T18:39:27Z</time></trkpt><trkpt lat="48.005878045433704" lon="11.670905669434244"><ele>594.0</ele><time>2026-04-18T18:39:28Z</time></trkpt><trkpt lat="48.00613634502456" lon="11.670730731660159"><ele>594.0</ele><time>2026-04-18T18:39:29Z</time></trkpt><trkpt lat="48.00639436946429" lon="11.670551227901461"><ele>594.0</ele><time>2026-04-18T18:39:30Z</time></trkpt><trkpt lat="48.00665120339749" lon="11.67036560088674"><ele>594.0</ele><time>2026-04-18T18:39:31Z</time></trkpt><trkpt lat="48.00690794879422" lon="11.670177022223697"><ele>593.5</ele><time>2026-04-18T18:39:32Z</time></trkpt><trkpt lat="48.00716542272203" lon="11.669985082201904"><ele>593.0</ele><time>2026-04-18T18:39:33Z</time></trkpt><trkpt lat="48.00742078833714" lon="11.669793412071114"><ele>594.5</ele><time>2026-04-18T18:39:34Z</time></trkpt><trkpt lat="48.0076747281323" lon="11.669612365698683"><ele>596.0</ele><time>2026-04-18T18:39:35Z</time></trkpt><trkpt lat="48.00792253705637" lon="11.669447341590287"><ele>597.0</ele><time>2026-04-18T18:39:36Z</time></trkpt><trkpt lat="48.00817195602911" lon="11.66928103318443"><ele>598.0</ele><time>2026-04-18T18:39:37Z</time></trkpt><trkpt lat="48.00841999255058" lon="11.66911305985833"><ele>595.5</ele><time>2026-04-18T18:39:38Z</time></trkpt><trkpt lat="48.008663465403394" lon="11.66894292769049"><ele>593.0</ele><time>2026-04-18T18:39:39Z</time></trkpt><trkpt lat="48.008909320247554" lon="11.668774070550523"><ele>594.0</ele><time>2026-04-18T18:39:40Z</time></trkpt><trkpt lat="48.00915664868718" lon="11.668606666542091"><ele>595.0</ele><time>2026-04-18T18:39:41Z</time></trkpt><trkpt lat="48.00940226532816" lon="11.66844036878666"><ele>595.0</ele><time>2026-04-18T18:39:42Z</time></trkpt><trkpt lat="48.009646932991586" lon="11.668269340619139"><ele>595.0</ele><time>2026-04-18T18:39:43Z</time></trkpt><trkpt lat="48.009893151863075" lon="11.668099890218803"><ele>594.5</ele><time>2026-04-18T18:39:44Z</time></trkpt><trkpt lat="48.010139084939865" lon="11.667929928961376"><ele>594.0</ele><time>2026-04-18T18:39:45Z</time></trkpt><trkpt lat="48.010377526680344" lon="11.667765222006429"><ele>594.0</ele><time>2026-04-18T18:39:46Z</time></trkpt><trkpt lat="48.01060848858206" lon="11.667606796661438"><ele>594.0</ele><time>2026-04-18T18:39:47Z</time></trkpt><trkpt lat="48.01084485705626" lon="11.667445684742553"><ele>592.0</ele><time>2026-04-18T18:39:48Z</time></trkpt><trkpt lat="48.011088239432844" lon="11.66728144822215"><ele>590.0</ele><time>2026-04-18T18:39:49Z</time></trkpt><trkpt lat="48.01133689785305" lon="11.667111346002507"><ele>590.0</ele><time>2026-04-18T18:39:50Z</time></trkpt><trkpt lat="48.01158464759156" lon="11.66694090802754"><ele>590.0</ele><time>2026-04-18T18:39:51Z</time></trkpt><trkpt lat="48.011832132944875" lon="11.666772378533949"><ele>590.0</ele><time>2026-04-18T18:39:52Z</time></trkpt><trkpt lat="48.01208394219254" lon="11.666602842312678"><ele>590.0</ele><time>2026-04-18T18:39:53Z</time></trkpt><trkpt lat="48.01234131177621" lon="11.666427125159254"><ele>589.5</ele><time>2026-04-18T18:39:54Z</time></trkpt><trkpt lat="48.012600276944205" lon="11.666249825864467"><ele>589.0</ele><time>2026-04-18T18:39:55Z</time></trkpt><trkpt lat="48.012861618747436" lon="11.666071398151093"><ele>590.5</ele><time>2026-04-18T18:39:56Z</time></trkpt><trkpt lat="48.01312536288788" lon="11.66589149877888"><ele>592.0</ele><time>2026-04-18T18:39:57Z</time></trkpt><trkpt lat="48.013388829623715" lon="11.66571089512847"><ele>589.0</ele><time>2026-04-18T18:39:58Z</time></trkpt><trkpt lat="48.013651315778304" lon="11.665531014579907"><ele>586.0</ele><time>2026-04-18T18:39:59Z</time></trkpt><trkpt lat="48.0139124253754" lon="11.66535317221875"><ele>587.0</ele><time>2026-04-18T18:40:00Z</time></trkpt><trkpt lat="48.01417240781373" lon="11.665176656625"><ele>588.0</ele><time>2026-04-18T18:40:01Z</time></trkpt><trkpt lat="48.01443137809462" lon="11.665002853327497"><ele>588.0</ele><time>2026-04-18T18:40:02Z</time></trkpt><trkpt lat="48.014688928657726" lon="11.66482938885086"><ele>588.0</ele><time>2026-04-18T18:40:03Z</time></trkpt><trkpt lat="48.01494545009026" lon="11.664652109282327"><ele>587.5</ele><time>2026-04-18T18:40:04Z</time></trkpt><trkpt lat="48.01520251543323" lon="11.664475311523258"><ele>587.0</ele><time>2026-04-18T18:40:05Z</time></trkpt><trkpt lat="48.01546150780143" lon="11.664297437693104"><ele>587.0</ele><time>2026-04-18T18:40:06Z</time></trkpt><trkpt lat="48.01571791644087" lon="11.66411819123857"><ele>587.0</ele><time>2026-04-18T18:40:07Z</time></trkpt><trkpt lat="48.01597300711473" lon="11.663940248937633"><ele>587.5</ele><time>2026-04-18T18:40:08Z</time></trkpt><trkpt lat="48.01624184063545" lon="11.66375569166125"><ele>588.0</ele><time>2026-04-18T18:40:09Z</time></trkpt><trkpt lat="48.01651548460103" lon="11.663570944751614"><ele>586.5</ele><time>2026-04-18T18:40:10Z</time></trkpt><trkpt lat="48.01679077298127" lon="11.663383085313516"><ele>585.0</ele><time>2026-04-18T18:40:11Z</time></trkpt><trkpt lat="48.017069153105574" lon="11.663193800435545"><ele>585.0</ele><time>2026-04-18T18:40:12Z</time></trkpt><trkpt lat="48.01734896039781" lon="11.663004484466354"><ele>585.0</ele><time>2026-04-18T18:40:13Z</time></trkpt><trkpt lat="48.01762115216575" lon="11.662823362085017"><ele>585.0</ele><time>2026-04-18T18:40:14Z</time></trkpt><trkpt lat="48.0178849051362" lon="11.662643529803603"><ele>585.0</ele><time>2026-04-18T18:40:15Z</time></trkpt><trkpt lat="48.01814334614212" lon="11.662468889858289"><ele>583.5</ele><time>2026-04-18T18:40:16Z</time></trkpt><trkpt lat="48.01838752669826" lon="11.662305574734004"><ele>582.0</ele><time>2026-04-18T18:40:17Z</time></trkpt><trkpt lat="48.01863645013205" lon="11.662151615740425"><ele>582.0</ele><time>2026-04-18T18:40:18Z</time></trkpt><trkpt lat="48.018895173470675" lon="11.661994721811475"><ele>582.0</ele><time>2026-04-18T18:40:19Z</time></trkpt><trkpt lat="48.019158977147285" lon="11.661828883391822"><ele>583.0</ele><time>2026-04-18T18:40:20Z</time></trkpt><trkpt lat="48.01943450713348" lon="11.661655756229175"><ele>584.0</ele><time>2026-04-18T18:40:21Z</time></trkpt><trkpt lat="48.01971748385343" lon="11.661482726052531"><ele>582.5</ele><time>2026-04-18T18:40:22Z</time></trkpt><trkpt lat="48.02000718586711" lon="11.661314803291912"><ele>581.0</ele><time>2026-04-18T18:40:23Z</time></trkpt><trkpt lat="48.02030109598934" lon="11.661149771980796"><ele>582.0</ele><time>2026-04-18T18:40:24Z</time></trkpt><trkpt lat="48.020598401841326" lon="11.660983783359073"><ele>583.0</ele><time>2026-04-18T18:40:25Z</time></trkpt><trkpt lat="48.02089810344174" lon="11.66081851319353"><ele>581.0</ele><time>2026-04-18T18:40:26Z</time></trkpt><trkpt lat="48.02119737397364" lon="11.660656210874938"><ele>579.0</ele><time>2026-04-18T18:40:27Z</time></trkpt><trkpt lat="48.021499172797846" lon="11.660493567251512"><ele>579.5</ele><time>2026-04-18T18:40:28Z</time></trkpt><trkpt lat="48.02180039826202" lon="11.660340024224592"><ele>580.0</ele><time>2026-04-18T18:40:29Z</time></trkpt><trkpt lat="48.02210202500513" lon="11.660189620533329"><ele>580.0</ele><time>2026-04-18T18:40:30Z</time></trkpt><trkpt lat="48.0224034374274" lon="11.66004126468022"><ele>580.0</ele><time>2026-04-18T18:40:31Z</time></trkpt><trkpt lat="48.0227050303375" lon="11.659890459885098"><ele>580.0</ele><time>2026-04-18T18:40:32Z</time></trkpt><trkpt lat="48.023004371862875" lon="11.659741517009673"><ele>580.0</ele><time>2026-04-18T18:40:33Z</time></trkpt><trkpt lat="48.023297848898885" lon="11.659593932256591"><ele>580.5</ele><time>2026-04-18T18:40:34Z</time></trkpt><trkpt lat="48.023589820838765" lon="11.659445297182058"><ele>581.0</ele><time>2026-04-18T18:40:35Z</time></trkpt><trkpt lat="48.02388211962408" lon="11.659298419378626"><ele>580.0</ele><time>2026-04-18T18:40:36Z</time></trkpt><trkpt lat="48.0241725859811" lon="11.659156180119604"><ele>579.0</ele><time>2026-04-18T18:40:37Z</time></trkpt><trkpt lat="48.02445755923459" lon="11.659009710008625"><ele>579.0</ele><time>2026-04-18T18:40:38Z</time></trkpt><trkpt lat="48.02474518118534" lon="11.658862509547822"><ele>579.0</ele><time>2026-04-18T18:40:39Z</time></trkpt><trkpt lat="48.0250353003533" lon="11.65871615050607"><ele>578.5</ele><time>2026-04-18T18:40:40Z</time></trkpt><trkpt lat="48.025327397981044" lon="11.658570723081914"><ele>578.0</ele><time>2026-04-18T18:40:41Z</time></trkpt><trkpt lat="48.02562088317695" lon="11.65842475960376"><ele>578.0</ele><time>2026-04-18T18:40:42Z</time></trkpt><trkpt lat="48.025913301881" lon="11.65827904804637"><ele>578.0</ele><time>2026-04-18T18:40:43Z</time></trkpt><trkpt lat="48.02620587426532" lon="11.658131448399637"><ele>578.0</ele><time>2026-04-18T18:40:44Z</time></trkpt><trkpt lat="48.02649709285861" lon="11.657986002057886"><ele>578.0</ele><time>2026-04-18T18:40:45Z</time></trkpt><trkpt lat="48.02678729134595" lon="11.657839584107661"><ele>578.5</ele><time>2026-04-18T18:40:46Z</time></trkpt><trkpt lat="48.02707542114878" lon="11.657690717434356"><ele>579.0</ele><time>2026-04-18T18:40:47Z</time></trkpt><trkpt lat="48.027362933868815" lon="11.657547626575823"><ele>579.5</ele><time>2026-04-18T18:40:48Z</time></trkpt><trkpt lat="48.02764588714792" lon="11.657409145777388"><ele>580.0</ele><time>2026-04-18T18:40:49Z</time></trkpt><trkpt lat="48.027928961750895" lon="11.657274170619049"><ele>580.0</ele><time>2026-04-18T18:40:50Z</time></trkpt><trkpt lat="48.028209399948096" lon="11.657145202731815"><ele>580.0</ele><time>2026-04-18T18:40:51Z</time></trkpt><trkpt lat="48.0284917142954" lon="11.657000621832845"><ele>579.0</ele><time>2026-04-18T18:40:52Z</time></trkpt><trkpt lat="48.02877024383096" lon="11.656843750259727"><ele>578.0</ele><time>2026-04-18T18:40:53Z</time></trkpt><trkpt lat="48.02905576576974" lon="11.656702131352281"><ele>578.0</ele><time>2026-04-18T18:40:54Z</time></trkpt><trkpt lat="48.02934545668541" lon="11.656561519005194"><ele>578.0</ele><time>2026-04-18T18:40:55Z</time></trkpt><trkpt lat="48.029633123781" lon="11.656417469041488"><ele>578.0</ele><time>2026-04-18T18:40:56Z</time></trkpt><trkpt lat="48.02992155777935" lon="11.656275105008241"><ele>578.0</ele><time>2026-04-18T18:40:57Z</time></trkpt><trkpt lat="48.0302092591976" lon="11.65613340183342"><ele>580.5</ele><time>2026-04-18T18:40:58Z</time></trkpt><trkpt lat="48.03049420111737" lon="11.65599365981928"><ele>583.0</ele><time>2026-04-18T18:40:59Z</time></trkpt><trkpt lat="48.030776117722056" lon="11.65585190688253"><ele>579.5</ele><time>2026-04-18T18:41:00Z</time></trkpt><trkpt lat="48.031065532034326" lon="11.655706934636145"><ele>576.0</ele><time>2026-04-18T18:41:01Z</time></trkpt><trkpt lat="48.03135986753135" lon="11.655555785928954"><ele>577.0</ele><time>2026-04-18T18:41:02Z</time></trkpt><trkpt lat="48.031658782479134" lon="11.6554032115775"><ele>578.0</ele><time>2026-04-18T18:41:03Z</time></trkpt><trkpt lat="48.0319602031288" lon="11.655251726194425"><ele>578.0</ele><time>2026-04-18T18:41:04Z</time></trkpt><trkpt lat="48.03226227658784" lon="11.655100905064431"><ele>578.0</ele><time>2026-04-18T18:41:05Z</time></trkpt><trkpt lat="48.03256398570155" lon="11.65495230251137"><ele>577.5</ele><time>2026-04-18T18:41:06Z</time></trkpt><trkpt lat="48.03285781288463" lon="11.65480704783383"><ele>577.0</ele><time>2026-04-18T18:41:07Z</time></trkpt><trkpt lat="48.03314120919787" lon="11.654672265911165"><ele>576.0</ele><time>2026-04-18T18:41:08Z</time></trkpt><trkpt lat="48.03342659821719" lon="11.654531309792848"><ele>575.0</ele><time>2026-04-18T18:41:09Z</time></trkpt><trkpt lat="48.03371170939116" lon="11.654384461688297"><ele>575.0</ele><time>2026-04-18T18:41:10Z</time></trkpt><trkpt lat="48.03399614613266" lon="11.65423730875447"><ele>575.0</ele><time>2026-04-18T18:41:11Z</time></trkpt><trkpt lat="48.03427915860671" lon="11.6540919988645"><ele>574.0</ele><time>2026-04-18T18:41:12Z</time></trkpt><trkpt lat="48.034560144925436" lon="11.653942704370142"><ele>573.0</ele><time>2026-04-18T18:41:13Z</time></trkpt><trkpt lat="48.03483931407817" lon="11.653800947441587"><ele>572.5</ele><time>2026-04-18T18:41:14Z</time></trkpt><trkpt lat="48.03511757945278" lon="11.6536663365151"><ele>572.0</ele><time>2026-04-18T18:41:15Z</time></trkpt><trkpt lat="48.035391133344234" lon="11.653532557207301"><ele>571.5</ele><time>2026-04-18T18:41:16Z</time></trkpt><trkpt lat="48.03566242982695" lon="11.653394880124143"><ele>571.0</ele><time>2026-04-18T18:41:17Z</time></trkpt><trkpt lat="48.03593134470648" lon="11.653257614960085"><ele>573.0</ele><time>2026-04-18T18:41:18Z</time></trkpt><trkpt lat="48.03620151623644" lon="11.653124435456444"><ele>575.0</ele><time>2026-04-18T18:41:19Z</time></trkpt><trkpt lat="48.03647359539706" lon="11.652991172508795"><ele>576.0</ele><time>2026-04-18T18:41:20Z</time></trkpt><trkpt lat="48.03674617123441" lon="11.652858679003518"><ele>577.0</ele><time>2026-04-18T18:41:21Z</time></trkpt><trkpt lat="48.03701925263705" lon="11.652723720874716"><ele>577.0</ele><time>2026-04-18T18:41:22Z</time></trkpt><trkpt lat="48.03728963536497" lon="11.652589961038002"><ele>577.0</ele><time>2026-04-18T18:41:23Z</time></trkpt><trkpt lat="48.037559561662576" lon="11.652454870322961"><ele>575.5</ele><time>2026-04-18T18:41:24Z</time></trkpt><trkpt lat="48.037828877158084" lon="11.652320075715078"><ele>574.0</ele><time>2026-04-18T18:41:25Z</time></trkpt><trkpt lat="48.03810316779085" lon="11.652183975762695"><ele>574.0</ele><time>2026-04-18T18:41:26Z</time></trkpt><trkpt lat="48.03838119710132" lon="11.652044738391684"><ele>574.0</ele><time>2026-04-18T18:41:27Z</time></trkpt><trkpt lat="48.03866481762772" lon="11.65190293988116"><ele>574.5</ele><time>2026-04-18T18:41:28Z</time></trkpt><trkpt lat="48.03895028738825" lon="11.651760479592037"><ele>575.0</ele><time>2026-04-18T18:41:29Z</time></trkpt><trkpt lat="48.039238684086875" lon="11.651616838320745"><ele>574.0</ele><time>2026-04-18T18:41:30Z</time></trkpt><trkpt lat="48.039528470716505" lon="11.651473202051879"><ele>573.0</ele><time>2026-04-18T18:41:31Z</time></trkpt><trkpt lat="48.039816323883755" lon="11.651327816631863"><ele>572.0</ele><time>2026-04-18T18:41:32Z</time></trkpt><trkpt lat="48.04009190260424" lon="11.651190874464241"><ele>571.0</ele><time>2026-04-18T18:41:33Z</time></trkpt><trkpt lat="48.040368078308106" lon="11.651056080571914"><ele>570.5</ele><time>2026-04-18T18:41:34Z</time></trkpt><trkpt lat="48.04065081424947" lon="11.65091992560734"><ele>570.0</ele><time>2026-04-18T18:41:35Z</time></trkpt><trkpt lat="48.04092815711334" lon="11.650787192607707"><ele>568.0</ele><time>2026-04-18T18:41:36Z</time></trkpt><trkpt lat="48.041201327195935" lon="11.650653173470001"><ele>566.0</ele><time>2026-04-18T18:41:37Z</time></trkpt><trkpt lat="48.04147382371814" lon="11.650515443777428"><ele>566.0</ele><time>2026-04-18T18:41:38Z</time></trkpt><trkpt lat="48.041744132387095" lon="11.650382690508609"><ele>566.0</ele><time>2026-04-18T18:41:39Z</time></trkpt><trkpt lat="48.04201288151837" lon="11.650250198720911"><ele>566.0</ele><time>2026-04-18T18:41:40Z</time></trkpt><trkpt lat="48.04228039403736" lon="11.650114484012539"><ele>566.0</ele><time>2026-04-18T18:41:41Z</time></trkpt><trkpt lat="48.04254925287215" lon="11.649976956258032"><ele>565.5</ele><time>2026-04-18T18:41:42Z</time></trkpt><trkpt lat="48.04281920638073" lon="11.649839622246214"><ele>565.0</ele><time>2026-04-18T18:41:43Z</time></trkpt><trkpt lat="48.04309491383919" lon="11.649700786066733"><ele>564.5</ele><time>2026-04-18T18:41:44Z</time></trkpt><trkpt lat="48.04337376122079" lon="11.649563440038678"><ele>564.0</ele><time>2026-04-18T18:41:45Z</time></trkpt><trkpt lat="48.04365457229335" lon="11.649423983354346"><ele>564.0</ele><time>2026-04-18T18:41:46Z</time></trkpt><trkpt lat="48.04393679817845" lon="11.649283256490966"><ele>564.0</ele><time>2026-04-18T18:41:47Z</time></trkpt><trkpt lat="48.04422107462207" lon="11.649142428832432"><ele>564.0</ele><time>2026-04-18T18:41:48Z</time></trkpt><trkpt lat="48.04451075084288" lon="11.64899973202054"><ele>564.0</ele><time>2026-04-18T18:41:49Z</time></trkpt><trkpt lat="48.044804641651794" lon="11.648853685751524"><ele>563.0</ele><time>2026-04-18T18:41:50Z</time></trkpt><trkpt lat="48.04509601971619" lon="11.648708207776812"><ele>562.0</ele><time>2026-04-18T18:41:51Z</time></trkpt><trkpt lat="48.04538592277361" lon="11.648562406508482"><ele>562.0</ele><time>2026-04-18T18:41:52Z</time></trkpt><trkpt lat="48.04566642069692" lon="11.648421873335057"><ele>562.0</ele><time>2026-04-18T18:41:53Z</time></trkpt><trkpt lat="48.045946511569056" lon="11.648279506240716"><ele>562.5</ele><time>2026-04-18T18:41:54Z</time></trkpt><trkpt lat="48.04622669780934" lon="11.648135890159644"><ele>563.0</ele><time>2026-04-18T18:41:55Z</time></trkpt><trkpt lat="48.04650886212361" lon="11.64799206100071"><ele>563.0</ele><time>2026-04-18T18:41:56Z</time></trkpt><trkpt lat="48.04679004140138" lon="11.647845753468324"><ele>563.0</ele><time>2026-04-18T18:41:57Z</time></trkpt><trkpt lat="48.047075106207814" lon="11.647699506492266"><ele>563.0</ele><time>2026-04-18T18:41:58Z</time></trkpt><trkpt lat="48.047360768154455" lon="11.64755469345568"><ele>563.0</ele><time>2026-04-18T18:41:59Z</time></trkpt><trkpt lat="48.047650368009975" lon="11.647407388159591"><ele>561.5</ele><time>2026-04-18T18:42:00Z</time></trkpt><trkpt lat="48.04794162124258" lon="11.647251836668746"><ele>560.0</ele><time>2026-04-18T18:42:01Z</time></trkpt><trkpt lat="48.04823615259387" lon="11.64709245066214"><ele>560.0</ele><time>2026-04-18T18:42:02Z</time></trkpt><trkpt lat="48.048535847748184" lon="11.646942388900511"><ele>560.0</ele><time>2026-04-18T18:42:03Z</time></trkpt><trkpt lat="48.04884237314031" lon="11.646793613232772"><ele>560.0</ele><time>2026-04-18T18:42:04Z</time></trkpt><trkpt lat="48.049150563298284" lon="11.64664033542245"><ele>560.0</ele><time>2026-04-18T18:42:05Z</time></trkpt><trkpt lat="48.049459464835834" lon="11.646486323261824"><ele>560.0</ele><time>2026-04-18T18:42:06Z</time></trkpt><trkpt lat="48.04977061918699" lon="11.646330770177329"><ele>560.0</ele><time>2026-04-18T18:42:07Z</time></trkpt><trkpt lat="48.050086300859476" lon="11.646172501176347"><ele>560.5</ele><time>2026-04-18T18:42:08Z</time></trkpt><trkpt lat="48.05040082155307" lon="11.646016610649108"><ele>561.0</ele><time>2026-04-18T18:42:09Z</time></trkpt><trkpt lat="48.050715138226316" lon="11.645870773670534"><ele>559.5</ele><time>2026-04-18T18:42:10Z</time></trkpt><trkpt lat="48.05102911454504" lon="11.645731381438626"><ele>558.0</ele><time>2026-04-18T18:42:11Z</time></trkpt><trkpt lat="48.05134222910925" lon="11.645591391528407"><ele>558.0</ele><time>2026-04-18T18:42:12Z</time></trkpt><trkpt lat="48.05165203111723" lon="11.645443157869051"><ele>558.0</ele><time>2026-04-18T18:42:13Z</time></trkpt><trkpt lat="48.05196244003233" lon="11.64528820987495"><ele>557.5</ele><time>2026-04-18T18:42:14Z</time></trkpt><trkpt lat="48.052268464768204" lon="11.645129344459967"><ele>557.0</ele><time>2026-04-18T18:42:15Z</time></trkpt><trkpt lat="48.0525725836214" lon="11.644975644709499"><ele>558.0</ele><time>2026-04-18T18:42:16Z</time></trkpt><trkpt lat="48.05287252774772" lon="11.64481844983985"><ele>559.0</ele><time>2026-04-18T18:42:17Z</time></trkpt><trkpt lat="48.053167572115484" lon="11.64465072679428"><ele>559.0</ele><time>2026-04-18T18:42:18Z</time></trkpt><trkpt lat="48.053457226151934" lon="11.644473932047989"><ele>559.0</ele><time>2026-04-18T18:42:19Z</time></trkpt><trkpt lat="48.053743297309424" lon="11.64429225759914"><ele>559.0</ele><time>2026-04-18T18:42:20Z</time></trkpt><trkpt lat="48.05402412965719" lon="11.64410580048795"><ele>559.0</ele><time>2026-04-18T18:42:21Z</time></trkpt><trkpt lat="48.05430250929867" lon="11.643914428489238"><ele>559.0</ele><time>2026-04-18T18:42:22Z</time></trkpt><trkpt lat="48.05457831822578" lon="11.643714289970106"><ele>559.0</ele><time>2026-04-18T18:42:23Z</time></trkpt><trkpt lat="48.05484883920656" lon="11.643507700886039"><ele>557.5</ele><time>2026-04-18T18:42:24Z</time></trkpt><trkpt lat="48.05511694753207" lon="11.643296142754386"><ele>556.0</ele><time>2026-04-18T18:42:25Z</time></trkpt><trkpt lat="48.05538106636685" lon="11.643078818377532"><ele>556.0</ele><time>2026-04-18T18:42:26Z</time></trkpt><trkpt lat="48.055643261256094" lon="11.642857027986782"><ele>556.0</ele><time>2026-04-18T18:42:27Z</time></trkpt><trkpt lat="48.05590101299455" lon="11.642626838550006"><ele>556.5</ele><time>2026-04-18T18:42:28Z</time></trkpt><trkpt lat="48.05615665223777" lon="11.642389827139938"><ele>557.0</ele><time>2026-04-18T18:42:29Z</time></trkpt><trkpt lat="48.05640924567498" lon="11.64215035672854"><ele>557.0</ele><time>2026-04-18T18:42:30Z</time></trkpt><trkpt lat="48.05665567473407" lon="11.64190879940237"><ele>557.0</ele><time>2026-04-18T18:42:31Z</time></trkpt><trkpt lat="48.05689114608641" lon="11.641677710552255"><ele>557.0</ele><time>2026-04-18T18:42:32Z</time></trkpt><trkpt lat="48.057128278065406" lon="11.641448987717071"><ele>557.0</ele><time>2026-04-18T18:42:33Z</time></trkpt><trkpt lat="48.05736258510794" lon="11.641226983223888"><ele>556.0</ele><time>2026-04-18T18:42:34Z</time></trkpt><trkpt lat="48.05759397965816" lon="11.641004692160527"><ele>555.0</ele><time>2026-04-18T18:42:35Z</time></trkpt><trkpt lat="48.05782680149465" lon="11.64077946489886"><ele>555.0</ele><time>2026-04-18T18:42:36Z</time></trkpt><trkpt lat="48.05806024469684" lon="11.64055448549428"><ele>555.0</ele><time>2026-04-18T18:42:37Z</time></trkpt><trkpt lat="48.05829633770322" lon="11.640327115917069"><ele>555.0</ele><time>2026-04-18T18:42:38Z</time></trkpt><trkpt lat="48.05853739599184" lon="11.640096046937016"><ele>555.0</ele><time>2026-04-18T18:42:39Z</time></trkpt><trkpt lat="48.05878083490604" lon="11.63986406000054"><ele>555.0</ele><time>2026-04-18T18:42:40Z</time></trkpt><trkpt lat="48.05902287265021" lon="11.63963260759782"><ele>555.0</ele><time>2026-04-18T18:42:41Z</time></trkpt><trkpt lat="48.059264686199896" lon="11.639398124896694"><ele>555.5</ele><time>2026-04-18T18:42:42Z</time></trkpt><trkpt lat="48.059506354578026" lon="11.63916350981469"><ele>556.0</ele><time>2026-04-18T18:42:43Z</time></trkpt><trkpt lat="48.05974860879702" lon="11.638927902311362"><ele>555.5</ele><time>2026-04-18T18:42:44Z</time></trkpt><trkpt lat="48.05999157179602" lon="11.638693504339443"><ele>555.0</ele><time>2026-04-18T18:42:45Z</time></trkpt><trkpt lat="48.06023578763473" lon="11.638460048981441"><ele>555.0</ele><time>2026-04-18T18:42:46Z</time></trkpt><trkpt lat="48.06047752981733" lon="11.638229488169753"><ele>555.0</ele><time>2026-04-18T18:42:47Z</time></trkpt><trkpt lat="48.06070013262894" lon="11.638016007689885"><ele>555.0</ele><time>2026-04-18T18:42:48Z</time></trkpt><trkpt lat="48.0609094367186" lon="11.637814166073499"><ele>555.0</ele><time>2026-04-18T18:42:49Z</time></trkpt><trkpt lat="48.061115313596744" lon="11.637615713182937"><ele>555.5</ele><time>2026-04-18T18:42:50Z</time></trkpt><trkpt lat="48.06131917822312" lon="11.637420173691277"><ele>556.0</ele><time>2026-04-18T18:42:51Z</time></trkpt><trkpt lat="48.06152334155612" lon="11.637223827082265"><ele>556.5</ele><time>2026-04-18T18:42:52Z</time></trkpt><trkpt lat="48.06172581194803" lon="11.637029694415752"><ele>557.0</ele><time>2026-04-18T18:42:53Z</time></trkpt><trkpt lat="48.061919605445574" lon="11.6368417468616"><ele>556.0</ele><time>2026-04-18T18:42:54Z</time></trkpt><trkpt lat="48.06211582880256" lon="11.636648311117204"><ele>555.0</ele><time>2026-04-18T18:42:55Z</time></trkpt><trkpt lat="48.06232076420588" lon="11.636448134541933"><ele>555.0</ele><time>2026-04-18T18:42:56Z</time></trkpt><trkpt lat="48.062527744231204" lon="11.636240725174668"><ele>555.0</ele><time>2026-04-18T18:42:57Z</time></trkpt><trkpt lat="48.06273965124835" lon="11.636026677792769"><ele>555.0</ele><time>2026-04-18T18:42:58Z</time></trkpt><trkpt lat="48.06295576700983" lon="11.635808329317504"><ele>555.0</ele><time>2026-04-18T18:42:59Z</time></trkpt><trkpt lat="48.063176350926256" lon="11.635596004321584"><ele>555.5</ele><time>2026-04-18T18:43:00Z</time></trkpt><trkpt lat="48.063400513819616" lon="11.635386362123182"><ele>556.0</ele><time>2026-04-18T18:43:01Z</time></trkpt><trkpt lat="48.06362712722892" lon="11.63517372071079"><ele>556.0</ele><time>2026-04-18T18:43:02Z</time></trkpt><trkpt lat="48.06385196095366" lon="11.634960450224542"><ele>556.0</ele><time>2026-04-18T18:43:03Z</time></trkpt><trkpt lat="48.06406595617547" lon="11.634763027036641"><ele>555.0</ele><time>2026-04-18T18:43:04Z</time></trkpt><trkpt lat="48.0642793967158" lon="11.634557489764594"><ele>554.0</ele><time>2026-04-18T18:43:05Z</time></trkpt><trkpt lat="48.064491672514514" lon="11.634346710942852"><ele>554.0</ele><time>2026-04-18T18:43:06Z</time></trkpt><trkpt lat="48.06469313034885" lon="11.634160198508669"><ele>554.0</ele><time>2026-04-18T18:43:07Z</time></trkpt><trkpt lat="48.06488535928284" lon="11.633984919086842"><ele>554.3333333333333</ele><time>2026-04-18T18:43:08Z</time></trkpt><trkpt lat="48.065070177354535" lon="11.633816717651012"><ele>554.6666666666666</ele><time>2026-04-18T18:43:09Z</time></trkpt><trkpt lat="48.06525332607947" lon="11.63364833863027"><ele>555.0</ele><time>2026-04-18T18:43:10Z</time></trkpt><trkpt lat="48.0654421523104" lon="11.633472778381268"><ele>554.5</ele><time>2026-04-18T18:43:11Z</time></trkpt><trkpt lat="48.065634271686875" lon="11.63329044081744"><ele>554.0</ele><time>2026-04-18T18:43:12Z</time></trkpt><trkpt lat="48.065828295813276" lon="11.63310395115137"><ele>554.0</ele><time>2026-04-18T18:43:13Z</time></trkpt><trkpt lat="48.06602204855097" lon="11.632915991518919"><ele>554.0</ele><time>2026-04-18T18:43:14Z</time></trkpt><trkpt lat="48.06620928613646" lon="11.632729757189605"><ele>554.0</ele><time>2026-04-18T18:43:15Z</time></trkpt><trkpt lat="48.066390929687934" lon="11.632550183201534"><ele>554.0</ele><time>2026-04-18T18:43:16Z</time></trkpt><trkpt lat="48.06656835557283" lon="11.63237438433975"><ele>554.0</ele><time>2026-04-18T18:43:17Z</time></trkpt><trkpt lat="48.06674857790105" lon="11.63219852269492"><ele>553.6666666666666</ele><time>2026-04-18T18:43:18Z</time></trkpt><trkpt lat="48.066928358497435" lon="11.632029168604623"><ele>553.3333333333334</ele><time>2026-04-18T18:43:19Z</time></trkpt><trkpt lat="48.06711217410275" lon="11.631855969133582"><ele>553.0</ele><time>2026-04-18T18:43:20Z</time></trkpt><trkpt lat="48.06729404055037" lon="11.63167915108501"><ele>553.3333333333334</ele><time>2026-04-18T18:43:21Z</time></trkpt><trkpt lat="48.067475839073" lon="11.631502027004887"><ele>553.6666666666666</ele><time>2026-04-18T18:43:22Z</time></trkpt><trkpt lat="48.06766151081328" lon="11.631327809477941"><ele>554.0</ele><time>2026-04-18T18:43:23Z</time></trkpt><trkpt lat="48.067848299054795" lon="11.631155460630499"><ele>553.6666666666666</ele><time>2026-04-18T18:43:24Z</time></trkpt><trkpt lat="48.06802825565547" lon="11.630987388925112"><ele>553.3333333333334</ele><time>2026-04-18T18:43:25Z</time></trkpt><trkpt lat="48.068206296048494" lon="11.630816582256676"><ele>553.0</ele><time>2026-04-18T18:43:26Z</time></trkpt><trkpt lat="48.06838633750849" lon="11.630644304340494"><ele>553.0</ele><time>2026-04-18T18:43:27Z</time></trkpt><trkpt lat="48.068571033632395" lon="11.63046747637836"><ele>553.0</ele><time>2026-04-18T18:43:28Z</time></trkpt><trkpt lat="48.06875036816894" lon="11.630296741164242"><ele>553.0</ele><time>2026-04-18T18:43:29Z</time></trkpt><trkpt lat="48.06892224225533" lon="11.630134232746025"><ele>553.0</ele><time>2026-04-18T18:43:30Z</time></trkpt><trkpt lat="48.06908644216876" lon="11.629976330416625"><ele>553.0</ele><time>2026-04-18T18:43:31Z</time></trkpt><trkpt lat="48.069243678842355" lon="11.62982520790789"><ele>553.0</ele><time>2026-04-18T18:43:32Z</time></trkpt><trkpt lat="48.0693955871138" lon="11.629679512949155"><ele>552.0</ele><time>2026-04-18T18:43:33Z</time></trkpt><trkpt lat="48.06955391837322" lon="11.629528161468198"><ele>551.0</ele><time>2026-04-18T18:43:34Z</time></trkpt><trkpt lat="48.06971575414285" lon="11.62937357998155"><ele>550.0</ele><time>2026-04-18T18:43:35Z</time></trkpt><trkpt lat="48.06987014075858" lon="11.62922614950785"><ele>550.3333333333334</ele><time>2026-04-18T18:43:36Z</time></trkpt><trkpt lat="48.07001745985969" lon="11.629086649741387"><ele>550.6666666666666</ele><time>2026-04-18T18:43:37Z</time></trkpt><trkpt lat="48.07016569729718" lon="11.628939664897255"><ele>551.0</ele><time>2026-04-18T18:43:38Z</time></trkpt><trkpt lat="48.0703175271415" lon="11.628790799670364"><ele>550.6666666666666</ele><time>2026-04-18T18:43:39Z</time></trkpt><trkpt lat="48.07047451986824" lon="11.62864258492974"><ele>550.3333333333334</ele><time>2026-04-18T18:43:40Z</time></trkpt><trkpt lat="48.07063312698972" lon="11.628497666159046"><ele>550.0</ele><time>2026-04-18T18:43:41Z</time></trkpt><trkpt lat="48.070795111795945" lon="11.628344001259343"><ele>549.6666666666667</ele><time>2026-04-18T18:43:42Z</time></trkpt><trkpt lat="48.07096331259668" lon="11.628170561597832"><ele>549.3333333333334</ele><time>2026-04-18T18:43:43Z</time></trkpt><trkpt lat="48.071137212495834" lon="11.62801117266226"><ele>549.0</ele><time>2026-04-18T18:43:44Z</time></trkpt><trkpt lat="48.07131767869529" lon="11.627839958065586"><ele>549.0</ele><time>2026-04-18T18:43:45.067Z</time></trkpt><trkpt lat="48.071480795253045" lon="11.627677984110687"><ele>549.0</ele><time>2026-04-18T18:43:46.059Z</time></trkpt><trkpt lat="48.07164210055864" lon="11.627535978540596"><ele>549.0</ele><time>2026-04-18T18:43:47.053Z</time></trkpt><trkpt lat="48.07180943978224" lon="11.62737811767037"><ele>549.0</ele><time>2026-04-18T18:43:48.051Z</time></trkpt><trkpt lat="48.071969478070244" lon="11.627231197366317"><ele>549.0</ele><time>2026-04-18T18:43:49.047Z</time></trkpt><trkpt lat="48.07211783167947" lon="11.627096857821304"><ele>549.0</ele><time>2026-04-18T18:43:50.035Z</time></trkpt><trkpt lat="48.072268185308495" lon="11.626959914475714"><ele>548.0</ele><time>2026-04-18T18:43:51.029Z</time></trkpt><trkpt lat="48.07291979223063" lon="11.626271942823161"><ele>548.0</ele><time>2026-04-18T18:43:55Z</time></trkpt><trkpt lat="48.07309399390398" lon="11.626089690601638"><ele>548.0</ele><time>2026-04-18T18:43:56Z</time></trkpt><trkpt lat="48.07327534664727" lon="11.625882224400803"><ele>548.0</ele><time>2026-04-18T18:43:57Z</time></trkpt><trkpt lat="48.0734621363268" lon="11.625746424324213"><ele>548.0</ele><time>2026-04-18T18:43:58Z</time></trkpt><trkpt lat="48.07365206569808" lon="11.625588057669702"><ele>548.0</ele><time>2026-04-18T18:43:59Z</time></trkpt><trkpt lat="48.073821957965734" lon="11.625416554614565"><ele>548.0</ele><time>2026-04-18T18:44:00Z</time></trkpt><trkpt lat="48.073999060644965" lon="11.625245655877212"><ele>549.0</ele><time>2026-04-18T18:44:01Z</time></trkpt><trkpt lat="48.074177705384656" lon="11.625072789229835"><ele>550.0</ele><time>2026-04-18T18:44:02Z</time></trkpt><trkpt lat="48.07435644587164" lon="11.624903649946019"><ele>551.0</ele><time>2026-04-18T18:44:03Z</time></trkpt><trkpt lat="48.0745330439575" lon="11.624734519957384"><ele>551.0</ele><time>2026-04-18T18:44:04Z</time></trkpt><trkpt lat="48.07470940613018" lon="11.624564026656582"><ele>551.0</ele><time>2026-04-18T18:44:05Z</time></trkpt><trkpt lat="48.07488686630739" lon="11.624392938549398"><ele>551.0</ele><time>2026-04-18T18:44:06Z</time></trkpt><trkpt lat="48.07506678032088" lon="11.624221675933809"><ele>550.6666666666666</ele><time>2026-04-18T18:44:07Z</time></trkpt><trkpt lat="48.075247093562965" lon="11.624048703537587"><ele>550.3333333333334</ele><time>2026-04-18T18:44:08Z</time></trkpt><trkpt lat="48.075428922909694" lon="11.62387184919611"><ele>550.0</ele><time>2026-04-18T18:44:09Z</time></trkpt><trkpt lat="48.075604337438016" lon="11.623700985303847"><ele>549.6666666666667</ele><time>2026-04-18T18:44:10Z</time></trkpt><trkpt lat="48.07577475897048" lon="11.623536824008026"><ele>549.3333333333334</ele><time>2026-04-18T18:44:11Z</time></trkpt><trkpt lat="48.075947838034736" lon="11.623365634338306"><ele>549.0</ele><time>2026-04-18T18:44:12Z</time></trkpt><trkpt lat="48.07612134606578" lon="11.623195797713782"><ele>549.0</ele><time>2026-04-18T18:44:13Z</time></trkpt><trkpt lat="48.076296593150666" lon="11.623029222297024"><ele>549.0</ele><time>2026-04-18T18:44:14Z</time></trkpt><trkpt lat="48.07647042290973" lon="11.622867201395957"><ele>549.0</ele><time>2026-04-18T18:44:15Z</time></trkpt><trkpt lat="48.07663997458286" lon="11.622702171584878"><ele>549.6666666666666</ele><time>2026-04-18T18:44:16Z</time></trkpt><trkpt lat="48.07681802007912" lon="11.62252817044955"><ele>550.3333333333333</ele><time>2026-04-18T18:44:17Z</time></trkpt><trkpt lat="48.07700858390446" lon="11.622352335471419"><ele>551.0</ele><time>2026-04-18T18:44:18Z</time></trkpt><trkpt lat="48.07719974182789" lon="11.622166988942013"><ele>550.5</ele><time>2026-04-18T18:44:19Z</time></trkpt><trkpt lat="48.07739962128603" lon="11.621976500881969"><ele>550.0</ele><time>2026-04-18T18:44:20Z</time></trkpt><trkpt lat="48.07760645734741" lon="11.621772859184556"><ele>550.0</ele><time>2026-04-18T18:44:21Z</time></trkpt><trkpt lat="48.07781959573526" lon="11.621570465597905"><ele>550.0</ele><time>2026-04-18T18:44:22Z</time></trkpt><trkpt lat="48.078036842098356" lon="11.621364012613979"><ele>550.0</ele><time>2026-04-18T18:44:23Z</time></trkpt><trkpt lat="48.07825628175018" lon="11.621160746046964"><ele>550.0</ele><time>2026-04-18T18:44:24Z</time></trkpt><trkpt lat="48.078479730266466" lon="11.620959180050235"><ele>547.5</ele><time>2026-04-18T18:44:25Z</time></trkpt><trkpt lat="48.07870264142295" lon="11.620763101723176"><ele>545.0</ele><time>2026-04-18T18:44:26Z</time></trkpt><trkpt lat="48.078917345593716" lon="11.620580667604226"><ele>545.5</ele><time>2026-04-18T18:44:27Z</time></trkpt><trkpt lat="48.07913061176138" lon="11.620401878032835"><ele>546.0</ele><time>2026-04-18T18:44:28Z</time></trkpt><trkpt lat="48.07933964227924" lon="11.620231285490487"><ele>546.3333333333334</ele><time>2026-04-18T18:44:29Z</time></trkpt><trkpt lat="48.07954149182911" lon="11.620075120701625"><ele>546.6666666666667</ele><time>2026-04-18T18:44:30Z</time></trkpt><trkpt lat="48.079732783526865" lon="11.619932637514962"><ele>547.0</ele><time>2026-04-18T18:44:31Z</time></trkpt><trkpt lat="48.07992837536189" lon="11.619792877078417"><ele>547.0</ele><time>2026-04-18T18:44:32Z</time></trkpt><trkpt lat="48.080128244055" lon="11.619656799197093"><ele>547.0</ele><time>2026-04-18T18:44:33Z</time></trkpt><trkpt lat="48.08033223662332" lon="11.619523630692747"><ele>547.0</ele><time>2026-04-18T18:44:34Z</time></trkpt><trkpt lat="48.080550374620955" lon="11.619382724342815"><ele>547.0</ele><time>2026-04-18T18:44:35Z</time></trkpt><trkpt lat="48.08078341835819" lon="11.619233372828484"><ele>547.0</ele><time>2026-04-18T18:44:36Z</time></trkpt><trkpt lat="48.08102692277959" lon="11.619081329698204"><ele>547.0</ele><time>2026-04-18T18:44:37Z</time></trkpt><trkpt lat="48.081262830641094" lon="11.618944044006712"><ele>547.0</ele><time>2026-04-18T18:44:38Z</time></trkpt><trkpt lat="48.08150077673052" lon="11.61881495383346"><ele>547.5</ele><time>2026-04-18T18:44:39Z</time></trkpt><trkpt lat="48.08174472144865" lon="11.618690660780295"><ele>548.0</ele><time>2026-04-18T18:44:40Z</time></trkpt><trkpt lat="48.08199464881933" lon="11.61856709336347"><ele>548.0</ele><time>2026-04-18T18:44:41Z</time></trkpt><trkpt lat="48.082250357312326" lon="11.618446026018432"><ele>548.0</ele><time>2026-04-18T18:44:42Z</time></trkpt><trkpt lat="48.082508831806955" lon="11.61832646963045"><ele>547.0</ele><time>2026-04-18T18:44:43Z</time></trkpt><trkpt lat="48.08277032461421" lon="11.618209932480228"><ele>546.0</ele><time>2026-04-18T18:44:44Z</time></trkpt><trkpt lat="48.083034273703625" lon="11.618098875696587"><ele>545.5</ele><time>2026-04-18T18:44:45Z</time></trkpt><trkpt lat="48.08330025805839" lon="11.617998978271727"><ele>545.0</ele><time>2026-04-18T18:44:46Z</time></trkpt><trkpt lat="48.0835691269724" lon="11.617905828463114"><ele>545.0</ele><time>2026-04-18T18:44:47Z</time></trkpt><trkpt lat="48.08383102979738" lon="11.617820119657658"><ele>545.0</ele><time>2026-04-18T18:44:48Z</time></trkpt><trkpt lat="48.084086825377604" lon="11.617740168121854"><ele>545.0</ele><time>2026-04-18T18:44:49Z</time></trkpt><trkpt lat="48.084334778587305" lon="11.617667791890398"><ele>545.0</ele><time>2026-04-18T18:44:50Z</time></trkpt><trkpt lat="48.084578734193485" lon="11.617599272821414"><ele>545.0</ele><time>2026-04-18T18:44:51Z</time></trkpt><trkpt lat="48.0848232631587" lon="11.61753433895121"><ele>545.0</ele><time>2026-04-18T18:44:52Z</time></trkpt><trkpt lat="48.08506927531109" lon="11.617474079801806"><ele>545.5</ele><time>2026-04-18T18:44:53Z</time></trkpt><trkpt lat="48.08531518952682" lon="11.617410708865135"><ele>546.0</ele><time>2026-04-18T18:44:54Z</time></trkpt><trkpt lat="48.0855588655623" lon="11.6173459202176"><ele>545.0</ele><time>2026-04-18T18:44:55Z</time></trkpt><trkpt lat="48.08579965353793" lon="11.61728213015739"><ele>544.0</ele><time>2026-04-18T18:44:56Z</time></trkpt><trkpt lat="48.08602918974451" lon="11.61722134099182"><ele>544.0</ele><time>2026-04-18T18:44:57Z</time></trkpt><trkpt lat="48.08625019820161" lon="11.617163451243478"><ele>544.0</ele><time>2026-04-18T18:44:58Z</time></trkpt><trkpt lat="48.08647191050048" lon="11.617106795153868"><ele>544.0</ele><time>2026-04-18T18:44:59Z</time></trkpt><trkpt lat="48.086695359840704" lon="11.617051993878224"><ele>543.5</ele><time>2026-04-18T18:45:00Z</time></trkpt><trkpt lat="48.086920888907386" lon="11.61699736064565"><ele>543.0</ele><time>2026-04-18T18:45:01Z</time></trkpt><trkpt lat="48.08714973851275" lon="11.616939767467358"><ele>542.0</ele><time>2026-04-18T18:45:02Z</time></trkpt><trkpt lat="48.08738210440804" lon="11.616880379328668"><ele>541.0</ele><time>2026-04-18T18:45:03Z</time></trkpt><trkpt lat="48.08761839417867" lon="11.616819098539937"><ele>543.5</ele><time>2026-04-18T18:45:04Z</time></trkpt><trkpt lat="48.08785525276622" lon="11.616756980841812"><ele>546.0</ele><time>2026-04-18T18:45:05Z</time></trkpt><trkpt lat="48.08808846279735" lon="11.616696316527586"><ele>545.5</ele><time>2026-04-18T18:45:06Z</time></trkpt><trkpt lat="48.08831914691546" lon="11.61663794533052"><ele>545.0</ele><time>2026-04-18T18:45:07Z</time></trkpt><trkpt lat="48.08854490041508" lon="11.616580857917723"><ele>545.0</ele><time>2026-04-18T18:45:08Z</time></trkpt><trkpt lat="48.08877046938866" lon="11.616522679488522"><ele>545.0</ele><time>2026-04-18T18:45:09Z</time></trkpt><trkpt lat="48.088998611199194" lon="11.616462446816724"><ele>545.0</ele><time>2026-04-18T18:45:10Z</time></trkpt><trkpt lat="48.0892202401681" lon="11.616405426523725"><ele>545.0</ele><time>2026-04-18T18:45:11Z</time></trkpt><trkpt lat="48.08944195857192" lon="11.616350466141824"><ele>545.0</ele><time>2026-04-18T18:45:12Z</time></trkpt><trkpt lat="48.089663512503996" lon="11.61629597730003"><ele>545.0</ele><time>2026-04-18T18:45:13Z</time></trkpt><trkpt lat="48.08988837291019" lon="11.616237879364084"><ele>544.6666666666666</ele><time>2026-04-18T18:45:14Z</time></trkpt><trkpt lat="48.090108262474615" lon="11.616184391518434"><ele>544.3333333333334</ele><time>2026-04-18T18:45:15Z</time></trkpt><trkpt lat="48.09032868642524" lon="11.616128779630756"><ele>544.0</ele><time>2026-04-18T18:45:16Z</time></trkpt><trkpt lat="48.0905484275001" lon="11.616072782602266"><ele>544.0</ele><time>2026-04-18T18:45:17Z</time></trkpt><trkpt lat="48.090775374016886" lon="11.616014075602305"><ele>544.0</ele><time>2026-04-18T18:45:18Z</time></trkpt><trkpt lat="48.09100307498078" lon="11.615953086557308"><ele>544.0</ele><time>2026-04-18T18:45:19Z</time></trkpt><trkpt lat="48.09122929952131" lon="11.615894028437681"><ele>544.0</ele><time>2026-04-18T18:45:20Z</time></trkpt><trkpt lat="48.091455477841" lon="11.615835888121495"><ele>544.5</ele><time>2026-04-18T18:45:21Z</time></trkpt><trkpt lat="48.09168356135973" lon="11.615779344879403"><ele>545.0</ele><time>2026-04-18T18:45:22Z</time></trkpt><trkpt lat="48.09191168009134" lon="11.615720697638313"><ele>545.0</ele><time>2026-04-18T18:45:23Z</time></trkpt><trkpt lat="48.09212970310727" lon="11.615666442483445"><ele>545.0</ele><time>2026-04-18T18:45:24Z</time></trkpt><trkpt lat="48.092346208733716" lon="11.615612483014713"><ele>545.0</ele><time>2026-04-18T18:45:25Z</time></trkpt><trkpt lat="48.09256944855723" lon="11.615555070110041"><ele>543.5</ele><time>2026-04-18T18:45:26Z</time></trkpt><trkpt lat="48.092796753715874" lon="11.615494282357583"><ele>542.0</ele><time>2026-04-18T18:45:27Z</time></trkpt><trkpt lat="48.09302715327337" lon="11.615434994867435"><ele>540.5</ele><time>2026-04-18T18:45:28Z</time></trkpt><trkpt lat="48.09326027958264" lon="11.615376435328592"><ele>539.0</ele><time>2026-04-18T18:45:29Z</time></trkpt><trkpt lat="48.09349649228296" lon="11.615316652716118"><ele>539.0</ele><time>2026-04-18T18:45:30Z</time></trkpt><trkpt lat="48.09373386245562" lon="11.615258439343325"><ele>539.0</ele><time>2026-04-18T18:45:31Z</time></trkpt><trkpt lat="48.09397513879064" lon="11.615202739743225"><ele>541.0</ele><time>2026-04-18T18:45:32Z</time></trkpt><trkpt lat="48.094213666879675" lon="11.615147424700673"><ele>543.0</ele><time>2026-04-18T18:45:33Z</time></trkpt><trkpt lat="48.09444092619197" lon="11.615093821231174"><ele>543.0</ele><time>2026-04-18T18:45:34Z</time></trkpt><trkpt lat="48.09466860120606" lon="11.61503848445176"><ele>543.0</ele><time>2026-04-18T18:45:35Z</time></trkpt><trkpt lat="48.09489784090348" lon="11.614981287189906"><ele>542.6666666666666</ele><time>2026-04-18T18:45:36Z</time></trkpt><trkpt lat="48.09512283568636" lon="11.614925457891507"><ele>542.3333333333333</ele><time>2026-04-18T18:45:37Z</time></trkpt><trkpt lat="48.09534095788979" lon="11.614870815747539"><ele>542.0</ele><time>2026-04-18T18:45:38Z</time></trkpt><trkpt lat="48.09555552461673" lon="11.614811524354018"><ele>541.0</ele><time>2026-04-18T18:45:39Z</time></trkpt><trkpt lat="48.09576645378954" lon="11.614758816915533"><ele>540.0</ele><time>2026-04-18T18:45:40Z</time></trkpt><trkpt lat="48.095980377450225" lon="11.614705670190371"><ele>539.0</ele><time>2026-04-18T18:45:41Z</time></trkpt><trkpt lat="48.096192265301575" lon="11.614656721902847"><ele>539.0</ele><time>2026-04-18T18:45:42Z</time></trkpt><trkpt lat="48.09640067515635" lon="11.614613630514281"><ele>539.0</ele><time>2026-04-18T18:45:43Z</time></trkpt><trkpt lat="48.09661041934085" lon="11.614578629683939"><ele>539.0</ele><time>2026-04-18T18:45:44Z</time></trkpt><trkpt lat="48.09682430648582" lon="11.614538640091716"><ele>539.6666666666666</ele><time>2026-04-18T18:45:45Z</time></trkpt><trkpt lat="48.09703851371959" lon="11.614491233689938"><ele>540.3333333333334</ele><time>2026-04-18T18:45:46Z</time></trkpt><trkpt lat="48.097258756045704" lon="11.614438469924107"><ele>541.0</ele><time>2026-04-18T18:45:47Z</time></trkpt><trkpt lat="48.09747828601065" lon="11.614386783389383"><ele>541.3333333333334</ele><time>2026-04-18T18:45:48Z</time></trkpt><trkpt lat="48.0976892814099" lon="11.614341721362502"><ele>541.6666666666666</ele><time>2026-04-18T18:45:49Z</time></trkpt><trkpt lat="48.09789746207047" lon="11.614293075636013"><ele>542.0</ele><time>2026-04-18T18:45:50Z</time></trkpt><trkpt lat="48.098106074518704" lon="11.614240004464692"><ele>541.3333333333333</ele><time>2026-04-18T18:45:51Z</time></trkpt><trkpt lat="48.098312205085875" lon="11.61418722087152"><ele>540.6666666666666</ele><time>2026-04-18T18:45:52Z</time></trkpt><trkpt lat="48.09851670211796" lon="11.614138338640247"><ele>540.0</ele><time>2026-04-18T18:45:53Z</time></trkpt><trkpt lat="48.09872063879166" lon="11.614090823710582"><ele>540.0</ele><time>2026-04-18T18:45:54Z</time></trkpt><trkpt lat="48.09892595704388" lon="11.614035783946827"><ele>540.0</ele><time>2026-04-18T18:45:55Z</time></trkpt><trkpt lat="48.09913076305653" lon="11.61398459247782"><ele>540.0</ele><time>2026-04-18T18:45:56Z</time></trkpt><trkpt lat="48.09933529553418" lon="11.613936013078122"><ele>541.0</ele><time>2026-04-18T18:45:57Z</time></trkpt><trkpt lat="48.09954473003814" lon="11.613891549190797"><ele>542.0</ele><time>2026-04-18T18:45:58Z</time></trkpt><trkpt lat="48.099761382774666" lon="11.613849970808632"><ele>543.0</ele><time>2026-04-18T18:45:59Z</time></trkpt><trkpt lat="48.099972181230754" lon="11.613821699901367"><ele>543.6666666666666</ele><time>2026-04-18T18:46:00Z</time></trkpt><trkpt lat="48.100187726951276" lon="11.613792078161952"><ele>544.3333333333333</ele><time>2026-04-18T18:46:01Z</time></trkpt><trkpt lat="48.10040460190331" lon="11.61376440772461"><ele>545.0</ele><time>2026-04-18T18:46:02Z</time></trkpt><trkpt lat="48.1006210522633" lon="11.61373794718102"><ele>545.0</ele><time>2026-04-18T18:46:03Z</time></trkpt><trkpt lat="48.10083753848229" lon="11.613717426855898"><ele>545.0</ele><time>2026-04-18T18:46:04Z</time></trkpt><trkpt lat="48.10105245798009" lon="11.613698612178144"><ele>545.0</ele><time>2026-04-18T18:46:05Z</time></trkpt><trkpt lat="48.101255513556794" lon="11.61368451037364"><ele>545.0</ele><time>2026-04-18T18:46:06Z</time></trkpt><trkpt lat="48.1014600626399" lon="11.61367498916862"><ele>545.0</ele><time>2026-04-18T18:46:07Z</time></trkpt><trkpt lat="48.101667562844334" lon="11.613667022662337"><ele>545.0</ele><time>2026-04-18T18:46:08Z</time></trkpt><trkpt lat="48.10187440759367" lon="11.61366584364012"><ele>543.6666666666666</ele><time>2026-04-18T18:46:09Z</time></trkpt><trkpt lat="48.10207674947533" lon="11.613667391106997"><ele>542.3333333333334</ele><time>2026-04-18T18:46:10Z</time></trkpt><trkpt lat="48.10227024843252" lon="11.61367347778594"><ele>541.0</ele><time>2026-04-18T18:46:11Z</time></trkpt><trkpt lat="48.102453190180896" lon="11.613680289188201"><ele>540.3333333333334</ele><time>2026-04-18T18:46:12Z</time></trkpt><trkpt lat="48.10263303946062" lon="11.61369022895225"><ele>539.6666666666666</ele><time>2026-04-18T18:46:13Z</time></trkpt><trkpt lat="48.10281895993108" lon="11.613705433312367"><ele>539.0</ele><time>2026-04-18T18:46:14Z</time></trkpt><trkpt lat="48.10300802109116" lon="11.61372143337578"><ele>539.0</ele><time>2026-04-18T18:46:15Z</time></trkpt><trkpt lat="48.103195081554" lon="11.613741497471766"><ele>539.0</ele><time>2026-04-18T18:46:16Z</time></trkpt><trkpt lat="48.10338181183613" lon="11.61375962621883"><ele>539.0</ele><time>2026-04-18T18:46:17Z</time></trkpt><trkpt lat="48.103572636816985" lon="11.613781724878846"><ele>538.3333333333333</ele><time>2026-04-18T18:46:18Z</time></trkpt><trkpt lat="48.10376212418697" lon="11.613816034705556"><ele>537.6666666666666</ele><time>2026-04-18T18:46:19Z</time></trkpt><trkpt lat="48.10395257257954" lon="11.613845211415219"><ele>537.0</ele><time>2026-04-18T18:46:20Z</time></trkpt><trkpt lat="48.10413141212741" lon="11.613877362931266"><ele>536.6666666666666</ele><time>2026-04-18T18:46:21Z</time></trkpt><trkpt lat="48.10430361329277" lon="11.613911924542931"><ele>536.3333333333333</ele><time>2026-04-18T18:46:22Z</time></trkpt><trkpt lat="48.10448387639632" lon="11.613947127469647"><ele>536.0</ele><time>2026-04-18T18:46:23Z</time></trkpt><trkpt lat="48.10466295093049" lon="11.613984970811881"><ele>536.0</ele><time>2026-04-18T18:46:24Z</time></trkpt><trkpt lat="48.10484207041483" lon="11.614024885070084"><ele>536.0</ele><time>2026-04-18T18:46:25Z</time></trkpt><trkpt lat="48.105023236062024" lon="11.614067352090567"><ele>536.0</ele><time>2026-04-18T18:46:26Z</time></trkpt><trkpt lat="48.10520477552305" lon="11.614111990485958"><ele>536.3333333333333</ele><time>2026-04-18T18:46:27Z</time></trkpt><trkpt lat="48.10538821972127" lon="11.614157259758032"><ele>536.6666666666666</ele><time>2026-04-18T18:46:28Z</time></trkpt><trkpt lat="48.10556347463748" lon="11.614196952715032"><ele>537.0</ele><time>2026-04-18T18:46:29Z</time></trkpt><trkpt lat="48.10573505423489" lon="11.614239719965786"><ele>538.0</ele><time>2026-04-18T18:46:30Z</time></trkpt><trkpt lat="48.10590910294592" lon="11.614281443906513"><ele>539.0</ele><time>2026-04-18T18:46:31Z</time></trkpt><trkpt lat="48.10608338140444" lon="11.614323152507433"><ele>540.0</ele><time>2026-04-18T18:46:32Z</time></trkpt><trkpt lat="48.106258613116694" lon="11.61436222036654"><ele>540.0</ele><time>2026-04-18T18:46:33Z</time></trkpt><trkpt lat="48.106430057635194" lon="11.614406981053335"><ele>540.0</ele><time>2026-04-18T18:46:34Z</time></trkpt><trkpt lat="48.10659441661825" lon="11.614453565921874"><ele>540.0</ele><time>2026-04-18T18:46:35Z</time></trkpt><trkpt lat="48.10675734947008" lon="11.614484641392574"><ele>539.0</ele><time>2026-04-18T18:46:36Z</time></trkpt><trkpt lat="48.1069177566841" lon="11.614523657259577"><ele>538.0</ele><time>2026-04-18T18:46:37Z</time></trkpt><trkpt lat="48.10708165907962" lon="11.614561113670469"><ele>537.0</ele><time>2026-04-18T18:46:38Z</time></trkpt><trkpt lat="48.1072485395148" lon="11.61460381446521"><ele>536.6666666666666</ele><time>2026-04-18T18:46:39Z</time></trkpt><trkpt lat="48.10742020619766" lon="11.614646248329827"><ele>536.3333333333333</ele><time>2026-04-18T18:46:40Z</time></trkpt><trkpt lat="48.10758763226289" lon="11.614686225325235"><ele>536.0</ele><time>2026-04-18T18:46:41Z</time></trkpt><trkpt lat="48.10775191831827" lon="11.61472085629186"><ele>536.0</ele><time>2026-04-18T18:46:42Z</time></trkpt><trkpt lat="48.10791546954485" lon="11.61475871465098"><ele>536.0</ele><time>2026-04-18T18:46:43Z</time></trkpt><trkpt lat="48.108073955390566" lon="11.614798880825479"><ele>536.0</ele><time>2026-04-18T18:46:44Z</time></trkpt><trkpt lat="48.10823261165096" lon="11.614835978641638"><ele>536.6666666666666</ele><time>2026-04-18T18:46:45Z</time></trkpt><trkpt lat="48.108388577925695" lon="11.614873944977084"><ele>537.3333333333334</ele><time>2026-04-18T18:46:46Z</time></trkpt><trkpt lat="48.10855062092101" lon="11.614909759822085"><ele>538.0</ele><time>2026-04-18T18:46:47Z</time></trkpt><trkpt lat="48.10871161140825" lon="11.614947488198165"><ele>538.0</ele><time>2026-04-18T18:46:48Z</time></trkpt><trkpt lat="48.108873435915974" lon="11.614988069288064"><ele>538.0</ele><time>2026-04-18T18:46:49Z</time></trkpt><trkpt lat="48.109035170561995" lon="11.615041071176831"><ele>538.0</ele><time>2026-04-18T18:46:50Z</time></trkpt><trkpt lat="48.10919987039267" lon="11.615091285141325"><ele>538.0</ele><time>2026-04-18T18:46:51Z</time></trkpt><trkpt lat="48.10937196546781" lon="11.615142144488647"><ele>538.0</ele><time>2026-04-18T18:46:52Z</time></trkpt><trkpt lat="48.1095531215266" lon="11.615193408019389"><ele>538.0</ele><time>2026-04-18T18:46:53Z</time></trkpt><trkpt lat="48.10971517264171" lon="11.615236490831034"><ele>538.0</ele><time>2026-04-18T18:46:54Z</time></trkpt><trkpt lat="48.10986998100816" lon="11.615275949563916"><ele>538.0</ele><time>2026-04-18T18:46:55Z</time></trkpt><trkpt lat="48.11001682933646" lon="11.615309422446254"><ele>538.0</ele><time>2026-04-18T18:46:56Z</time></trkpt><trkpt lat="48.11015524292547" lon="11.615342475171671"><ele>538.0</ele><time>2026-04-18T18:46:57Z</time></trkpt><trkpt lat="48.11028357542552" lon="11.61537574884293"><ele>537.5</ele><time>2026-04-18T18:46:58Z</time></trkpt><trkpt lat="48.11040285447317" lon="11.61540854680274"><ele>537.0</ele><time>2026-04-18T18:46:59Z</time></trkpt><trkpt lat="48.11051765493487" lon="11.615440227250847"><ele>536.5</ele><time>2026-04-18T18:47:00Z</time></trkpt><trkpt lat="48.1106326364779" lon="11.615464369780074"><ele>536.0</ele><time>2026-04-18T18:47:01Z</time></trkpt><trkpt lat="48.110740667422725" lon="11.615487476462045"><ele>536.2</ele><time>2026-04-18T18:47:02Z</time></trkpt><trkpt lat="48.110847403422234" lon="11.615507199617076"><ele>536.4000000000001</ele><time>2026-04-18T18:47:03Z</time></trkpt><trkpt lat="48.110954479395524" lon="11.615521344317058"><ele>536.6</ele><time>2026-04-18T18:47:04Z</time></trkpt><trkpt lat="48.11106350118705" lon="11.615530991471324"><ele>536.8000000000001</ele><time>2026-04-18T18:47:05Z</time></trkpt><trkpt lat="48.11116285668206" lon="11.61553727937209"><ele>537.0</ele><time>2026-04-18T18:47:06Z</time></trkpt><trkpt lat="48.11125308626103" lon="11.615537740264994"><ele>537.0</ele><time>2026-04-18T18:47:07Z</time></trkpt><trkpt lat="48.11134130089128" lon="11.615536863622813"><ele>537.0</ele><time>2026-04-18T18:47:08Z</time></trkpt><trkpt lat="48.11141546808365" lon="11.615537634313721"><ele>537.0</ele><time>2026-04-18T18:47:09Z</time></trkpt><trkpt lat="48.11148297474168" lon="11.615539299999652"><ele>537.0</ele><time>2026-04-18T18:47:10Z</time></trkpt><trkpt lat="48.1115518325102" lon="11.615542070132996"><ele>537.0</ele><time>2026-04-18T18:47:11Z</time></trkpt><trkpt lat="48.11161503521236" lon="11.61554286830834"><ele>537.0</ele><time>2026-04-18T18:47:12Z</time></trkpt><trkpt lat="48.111718295579045" lon="11.615549707482604"><ele>537.0</ele><time>2026-04-18T18:47:14Z</time></trkpt><trkpt lat="48.11179901948757" lon="11.615556356422347"><ele>537.0</ele><time>2026-04-18T18:47:16Z</time></trkpt><trkpt lat="48.11188111515315" lon="11.615566026665922"><ele>537.0</ele><time>2026-04-18T18:47:19Z</time></trkpt><trkpt lat="48.11195013232716" lon="11.615569758268599"><ele>537.0</ele><time>2026-04-18T18:47:22Z</time></trkpt><trkpt lat="48.112027214133164" lon="11.615576664650305"><ele>537.0</ele><time>2026-04-18T18:47:25Z</time></trkpt><trkpt lat="48.11215723336961" lon="11.615601980296471"><ele>537.0</ele><time>2026-04-18T18:47:27Z</time></trkpt><trkpt lat="48.11224201395765" lon="11.615628216896814"><ele>537.0</ele><time>2026-04-18T18:47:28Z</time></trkpt><trkpt lat="48.112319882562836" lon="11.615661195434377"><ele>537.0</ele><time>2026-04-18T18:47:29Z</time></trkpt><trkpt lat="48.11239796961419" lon="11.61570711203107"><ele>537.0</ele><time>2026-04-18T18:47:30Z</time></trkpt><trkpt lat="48.112467436742804" lon="11.615756668628372"><ele>537.0</ele><time>2026-04-18T18:47:31Z</time></trkpt><trkpt lat="48.11257004382356" lon="11.615841043127677"><ele>537.0</ele><time>2026-04-18T18:47:33Z</time></trkpt><trkpt lat="48.11266003840518" lon="11.615929562014857"><ele>536.8333333333334</ele><time>2026-04-18T18:47:35Z</time></trkpt><trkpt lat="48.11273578944589" lon="11.61601003992489"><ele>536.6666666666666</ele><time>2026-04-18T18:47:37Z</time></trkpt><trkpt lat="48.11278837826094" lon="11.616064623286086"><ele>536.5</ele><time>2026-04-18T18:47:39Z</time></trkpt><trkpt lat="48.112843887316714" lon="11.616116855469372"><ele>536.3333333333333</ele><time>2026-04-18T18:47:42Z</time></trkpt><trkpt lat="48.11293197487291" lon="11.616188581867574"><ele>536.1666666666666</ele><time>2026-04-18T18:48:02Z</time></trkpt><trkpt lat="48.112995287716956" lon="11.61624497963712"><ele>536.0</ele><time>2026-04-18T18:48:03Z</time></trkpt><trkpt lat="48.11307539571394" lon="11.61631865896807"><ele>536.0</ele><time>2026-04-18T18:48:04Z</time></trkpt><trkpt lat="48.1131679607742" lon="11.616389711735227"><ele>536.0</ele><time>2026-04-18T18:48:05Z</time></trkpt><trkpt lat="48.11323945665096" lon="11.616454188803191"><ele>536.0</ele><time>2026-04-18T18:48:06Z</time></trkpt><trkpt lat="48.11331036945784" lon="11.616512453640796"><ele>536.0</ele><time>2026-04-18T18:48:07Z</time></trkpt><trkpt lat="48.11337746177754" lon="11.6165651338125"><ele>536.0</ele><time>2026-04-18T18:48:08Z</time></trkpt><trkpt lat="48.11345468341749" lon="11.616629709999543"><ele>536.0</ele><time>2026-04-18T18:48:09Z</time></trkpt><trkpt lat="48.11353578799302" lon="11.616700245201514"><ele>536.2</ele><time>2026-04-18T18:48:10Z</time></trkpt><trkpt lat="48.11363145918566" lon="11.61677204332868"><ele>536.4000000000001</ele><time>2026-04-18T18:48:11Z</time></trkpt><trkpt lat="48.11372746854189" lon="11.616854077205222"><ele>536.6</ele><time>2026-04-18T18:48:12Z</time></trkpt><trkpt lat="48.1138254204306" lon="11.61693108368998"><ele>536.8000000000001</ele><time>2026-04-18T18:48:13Z</time></trkpt><trkpt lat="48.11392714276398" lon="11.617004766933237"><ele>537.0</ele><time>2026-04-18T18:48:14Z</time></trkpt><trkpt lat="48.11403027845188" lon="11.617081327458308"><ele>536.2</ele><time>2026-04-18T18:48:15Z</time></trkpt><trkpt lat="48.1141335316793" lon="11.617149481423692"><ele>535.4000000000001</ele><time>2026-04-18T18:48:16Z</time></trkpt><trkpt lat="48.11423417740475" lon="11.61721024264728"><ele>534.5999999999999</ele><time>2026-04-18T18:48:17Z</time></trkpt><trkpt lat="48.114335060180586" lon="11.617274188087876"><ele>533.8</ele><time>2026-04-18T18:48:18Z</time></trkpt><trkpt lat="48.11443865250801" lon="11.617335427569426"><ele>533.0</ele><time>2026-04-18T18:48:19Z</time></trkpt><trkpt lat="48.114542016568706" lon="11.617397542689327"><ele>533.0</ele><time>2026-04-18T18:48:20Z</time></trkpt><trkpt lat="48.1146371660028" lon="11.61745776873803"><ele>533.0</ele><time>2026-04-18T18:48:21Z</time></trkpt><trkpt lat="48.114740733309404" lon="11.617510737251594"><ele>533.0</ele><time>2026-04-18T18:48:22Z</time></trkpt><trkpt lat="48.114850851708496" lon="11.617570568571896"><ele>533.0</ele><time>2026-04-18T18:48:23Z</time></trkpt><trkpt lat="48.114959319022766" lon="11.617630226506401"><ele>533.0</ele><time>2026-04-18T18:48:24Z</time></trkpt><trkpt lat="48.11506166028248" lon="11.617686590001064"><ele>533.0</ele><time>2026-04-18T18:48:25Z</time></trkpt><trkpt lat="48.115165285896495" lon="11.617740481672355"><ele>533.0</ele><time>2026-04-18T18:48:26Z</time></trkpt><trkpt lat="48.115261202656896" lon="11.617792389315873"><ele>533.0</ele><time>2026-04-18T18:48:27Z</time></trkpt><trkpt lat="48.11535896514465" lon="11.617843461497971"><ele>533.0</ele><time>2026-04-18T18:48:28Z</time></trkpt><trkpt lat="48.115463870100804" lon="11.617897822586375"><ele>533.0</ele><time>2026-04-18T18:48:29Z</time></trkpt><trkpt lat="48.115576931044465" lon="11.61795166313302"><ele>532.5</ele><time>2026-04-18T18:48:30Z</time></trkpt><trkpt lat="48.11569434204004" lon="11.618005974326435"><ele>532.0</ele><time>2026-04-18T18:48:31Z</time></trkpt><trkpt lat="48.115809647391174" lon="11.61805747043213"><ele>531.5</ele><time>2026-04-18T18:48:32Z</time></trkpt><trkpt lat="48.11592188952807" lon="11.618108012726447"><ele>531.0</ele><time>2026-04-18T18:48:33Z</time></trkpt><trkpt lat="48.11603469739699" lon="11.618154783450317"><ele>532.0</ele><time>2026-04-18T18:48:34Z</time></trkpt><trkpt lat="48.11614656977811" lon="11.618203858056988"><ele>533.0</ele><time>2026-04-18T18:48:35Z</time></trkpt><trkpt lat="48.116259676999626" lon="11.6182514252924"><ele>534.0</ele><time>2026-04-18T18:48:36Z</time></trkpt><trkpt lat="48.11637310714181" lon="11.618298969374973"><ele>535.0</ele><time>2026-04-18T18:48:37Z</time></trkpt><trkpt lat="48.11648924146285" lon="11.61835191973365"><ele>534.0</ele><time>2026-04-18T18:48:38Z</time></trkpt><trkpt lat="48.1166277824983" lon="11.618410236506824"><ele>533.0</ele><time>2026-04-18T18:48:39Z</time></trkpt><trkpt lat="48.116761231077874" lon="11.618473630746985"><ele>532.0</ele><time>2026-04-18T18:48:40Z</time></trkpt><trkpt lat="48.11688207372147" lon="11.618527695806472"><ele>531.0</ele><time>2026-04-18T18:48:41Z</time></trkpt><trkpt lat="48.11700485361365" lon="11.618582254644146"><ele>531.0</ele><time>2026-04-18T18:48:42Z</time></trkpt><trkpt lat="48.117130425484504" lon="11.61863519589733"><ele>531.0</ele><time>2026-04-18T18:48:43Z</time></trkpt><trkpt lat="48.11725544164374" lon="11.618687058776997"><ele>531.0</ele><time>2026-04-18T18:48:44Z</time></trkpt><trkpt lat="48.117378762162105" lon="11.61874012111316"><ele>531.0</ele><time>2026-04-18T18:48:45Z</time></trkpt><trkpt lat="48.117494789956346" lon="11.618787599656708"><ele>531.25</ele><time>2026-04-18T18:48:46Z</time></trkpt><trkpt lat="48.117610774079274" lon="11.618839007007175"><ele>531.5</ele><time>2026-04-18T18:48:47Z</time></trkpt><trkpt lat="48.1177312808972" lon="11.61889389439413"><ele>531.75</ele><time>2026-04-18T18:48:48Z</time></trkpt><trkpt lat="48.11785421756395" lon="11.618947203809698"><ele>532.0</ele><time>2026-04-18T18:48:49Z</time></trkpt><trkpt lat="48.11797219937473" lon="11.618997540073412"><ele>532.0</ele><time>2026-04-18T18:48:50Z</time></trkpt><trkpt lat="48.11809071898033" lon="11.619049902174211"><ele>532.0</ele><time>2026-04-18T18:48:51Z</time></trkpt><trkpt lat="48.11822095451976" lon="11.619108106436347"><ele>532.0</ele><time>2026-04-18T18:48:52Z</time></trkpt><trkpt lat="48.11837630039268" lon="11.619180957958843"><ele>532.0</ele><time>2026-04-18T18:48:53Z</time></trkpt><trkpt lat="48.11851065661918" lon="11.619252769538141"><ele>532.25</ele><time>2026-04-18T18:48:54Z</time></trkpt><trkpt lat="48.11864044131394" lon="11.619316815444735"><ele>532.5</ele><time>2026-04-18T18:48:55Z</time></trkpt><trkpt lat="48.11876420044986" lon="11.619377849987936"><ele>532.75</ele><time>2026-04-18T18:48:56Z</time></trkpt><trkpt lat="48.11888137128368" lon="11.619451049552028"><ele>533.0</ele><time>2026-04-18T18:48:57Z</time></trkpt><trkpt lat="48.11899375842013" lon="11.6195238009206"><ele>533.0</ele><time>2026-04-18T18:48:58Z</time></trkpt><trkpt lat="48.11910598648078" lon="11.619576863153155"><ele>533.0</ele><time>2026-04-18T18:48:59Z</time></trkpt><trkpt lat="48.119222157373656" lon="11.619645333047835"><ele>533.0</ele><time>2026-04-18T18:49:00Z</time></trkpt><trkpt lat="48.1193415121927" lon="11.619719983900039"><ele>533.0</ele><time>2026-04-18T18:49:01Z</time></trkpt><trkpt lat="48.119470642658975" lon="11.619795476121551"><ele>533.0</ele><time>2026-04-18T18:49:02Z</time></trkpt><trkpt lat="48.119598221602395" lon="11.61987116408201"><ele>533.0</ele><time>2026-04-18T18:49:03Z</time></trkpt><trkpt lat="48.119728130357" lon="11.619947166321484"><ele>533.0</ele><time>2026-04-18T18:49:04Z</time></trkpt><trkpt lat="48.11985644552785" lon="11.620028086956344"><ele>533.0</ele><time>2026-04-18T18:49:05Z</time></trkpt><trkpt lat="48.119983877204426" lon="11.620106367919153"><ele>532.5</ele><time>2026-04-18T18:49:06Z</time></trkpt><trkpt lat="48.1201163231881" lon="11.620185248326175"><ele>532.0</ele><time>2026-04-18T18:49:07Z</time></trkpt><trkpt lat="48.12025385617278" lon="11.620258978913897"><ele>531.5</ele><time>2026-04-18T18:49:08Z</time></trkpt><trkpt lat="48.120401259740795" lon="11.620308531460063"><ele>531.0</ele><time>2026-04-18T18:49:09Z</time></trkpt><trkpt lat="48.12054244308142" lon="11.620363920730467"><ele>531.0</ele><time>2026-04-18T18:49:10Z</time></trkpt><trkpt lat="48.120679717620334" lon="11.620406301655168"><ele>531.0</ele><time>2026-04-18T18:49:11Z</time></trkpt><trkpt lat="48.12082274009261" lon="11.620443193247716"><ele>531.0</ele><time>2026-04-18T18:49:12Z</time></trkpt><trkpt lat="48.12095381512436" lon="11.620473456025792"><ele>531.0</ele><time>2026-04-18T18:49:13Z</time></trkpt><trkpt lat="48.121074827705435" lon="11.620500762679104"><ele>531.5</ele><time>2026-04-18T18:49:14Z</time></trkpt><trkpt lat="48.121195029994695" lon="11.620527231645914"><ele>532.0</ele><time>2026-04-18T18:49:15Z</time></trkpt><trkpt lat="48.12131727876331" lon="11.620549035979828"><ele>532.5</ele><time>2026-04-18T18:49:16Z</time></trkpt><trkpt lat="48.12144577817599" lon="11.620569871163138"><ele>533.0</ele><time>2026-04-18T18:49:17Z</time></trkpt><trkpt lat="48.12157679243448" lon="11.620597030098569"><ele>534.0</ele><time>2026-04-18T18:49:18Z</time></trkpt><trkpt lat="48.12171421422468" lon="11.620625158537758"><ele>535.0</ele><time>2026-04-18T18:49:19Z</time></trkpt><trkpt lat="48.12184054238827" lon="11.62065581632985"><ele>536.0</ele><time>2026-04-18T18:49:20Z</time></trkpt><trkpt lat="48.121967230744325" lon="11.620682263998575"><ele>537.0</ele><time>2026-04-18T18:49:21Z</time></trkpt><trkpt lat="48.1220988107144" lon="11.620706784500605"><ele>537.0</ele><time>2026-04-18T18:49:22Z</time></trkpt><trkpt lat="48.12222234834016" lon="11.620726070766247"><ele>537.0</ele><time>2026-04-18T18:49:23Z</time></trkpt><trkpt lat="48.12234372936803" lon="11.620742667269868"><ele>537.0</ele><time>2026-04-18T18:49:24Z</time></trkpt><trkpt lat="48.12246677081497" lon="11.620760257277281"><ele>537.0</ele><time>2026-04-18T18:49:25Z</time></trkpt><trkpt lat="48.12258806205011" lon="11.62077343870062"><ele>537.5</ele><time>2026-04-18T18:49:26Z</time></trkpt><trkpt lat="48.1227059641627" lon="11.620781054959384"><ele>538.0</ele><time>2026-04-18T18:49:27Z</time></trkpt><trkpt lat="48.12282336304831" lon="11.62079115195935"><ele>538.5</ele><time>2026-04-18T18:49:28Z</time></trkpt><trkpt lat="48.122937197058235" lon="11.620800636457382"><ele>539.0</ele><time>2026-04-18T18:49:29Z</time></trkpt><trkpt lat="48.12305074031604" lon="11.620809726540292"><ele>539.0</ele><time>2026-04-18T18:49:30Z</time></trkpt><trkpt lat="48.123162915875795" lon="11.620816924052013"><ele>539.0</ele><time>2026-04-18T18:49:31Z</time></trkpt><trkpt lat="48.123267439414114" lon="11.6208253377112"><ele>539.0</ele><time>2026-04-18T18:49:32Z</time></trkpt><trkpt lat="48.12336460041614" lon="11.620830250713372"><ele>539.0</ele><time>2026-04-18T18:49:33Z</time></trkpt><trkpt lat="48.12345120378656" lon="11.620834707503592"><ele>539.0</ele><time>2026-04-18T18:49:34Z</time></trkpt><trkpt lat="48.123539827465876" lon="11.62084262475549"><ele>538.5</ele><time>2026-04-18T18:49:35Z</time></trkpt><trkpt lat="48.12362373102563" lon="11.620847251048547"><ele>538.0</ele><time>2026-04-18T18:49:36Z</time></trkpt><trkpt lat="48.1236987461753" lon="11.620849721885309"><ele>537.5</ele><time>2026-04-18T18:49:37Z</time></trkpt><trkpt lat="48.123768042333474" lon="11.620851777672707"><ele>537.0</ele><time>2026-04-18T18:49:38Z</time></trkpt><trkpt lat="48.12387905744144" lon="11.620852046777019"><ele>536.5</ele><time>2026-04-18T18:49:40Z</time></trkpt><trkpt lat="48.123980016236786" lon="11.62085071307914"><ele>536.0</ele><time>2026-04-18T18:49:42Z</time></trkpt><trkpt lat="48.124061566018284" lon="11.620854620533494"><ele>535.0</ele><time>2026-04-18T18:49:44Z</time></trkpt><trkpt lat="48.12412821463699" lon="11.620851330217919"><ele>534.0</ele><time>2026-04-18T18:49:47Z</time></trkpt><trkpt lat="48.124201030002354" lon="11.620838421323617"><ele>533.0</ele><time>2026-04-18T18:49:57Z</time></trkpt><trkpt lat="48.124265403289925" lon="11.620833719952872"><ele>532.0</ele><time>2026-04-18T18:49:58Z</time></trkpt><trkpt lat="48.12433827133448" lon="11.620822785756896"><ele>531.0</ele><time>2026-04-18T18:49:59Z</time></trkpt><trkpt lat="48.124412365412" lon="11.620807078030994"><ele>530.0</ele><time>2026-04-18T18:50:00Z</time></trkpt><trkpt lat="48.12449144567436" lon="11.620784465780861"><ele>529.0</ele><time>2026-04-18T18:50:01Z</time></trkpt><trkpt lat="48.124575361137616" lon="11.620758680743151"><ele>529.0</ele><time>2026-04-18T18:50:02Z</time></trkpt><trkpt lat="48.12466425746639" lon="11.620728804073423"><ele>529.0</ele><time>2026-04-18T18:50:03Z</time></trkpt><trkpt lat="48.12475291863554" lon="11.62069777305916"><ele>529.0</ele><time>2026-04-18T18:50:04Z</time></trkpt><trkpt lat="48.124837848524834" lon="11.62066199267416"><ele>529.0</ele><time>2026-04-18T18:50:05Z</time></trkpt><trkpt lat="48.124915329459284" lon="11.620625972895638"><ele>529.0</ele><time>2026-04-18T18:50:06Z</time></trkpt><trkpt lat="48.12499436971368" lon="11.620576793290715"><ele>529.0</ele><time>2026-04-18T18:50:07Z</time></trkpt><trkpt lat="48.125066344172595" lon="11.620522784374886"><ele>529.8333333333334</ele><time>2026-04-18T18:50:08Z</time></trkpt><trkpt lat="48.12513658929854" lon="11.62045847702414"><ele>530.6666666666667</ele><time>2026-04-18T18:50:09Z</time></trkpt><trkpt lat="48.12520335170958" lon="11.620390297379867"><ele>531.5</ele><time>2026-04-18T18:50:10Z</time></trkpt><trkpt lat="48.12527047349536" lon="11.620317878108683"><ele>532.3333333333334</ele><time>2026-04-18T18:50:11Z</time></trkpt><trkpt lat="48.12534453510821" lon="11.620226250086645"><ele>533.1666666666666</ele><time>2026-04-18T18:50:12Z</time></trkpt><trkpt lat="48.12542151501663" lon="11.620129507317179"><ele>534.0</ele><time>2026-04-18T18:50:13Z</time></trkpt><trkpt lat="48.12549169677147" lon="11.620035569621079"><ele>534.0</ele><time>2026-04-18T18:50:14Z</time></trkpt><trkpt lat="48.12556231044719" lon="11.619927114361495"><ele>534.0</ele><time>2026-04-18T18:50:15Z</time></trkpt><trkpt lat="48.12563215099372" lon="11.619818926789508"><ele>534.0</ele><time>2026-04-18T18:50:16Z</time></trkpt><trkpt lat="48.12570875762751" lon="11.619693258247754"><ele>534.0</ele><time>2026-04-18T18:50:17Z</time></trkpt><trkpt lat="48.125779648155934" lon="11.619569992806486"><ele>534.0</ele><time>2026-04-18T18:50:18Z</time></trkpt><trkpt lat="48.12584489955455" lon="11.619453824249963"><ele>534.0</ele><time>2026-04-18T18:50:19Z</time></trkpt><trkpt lat="48.12591054651627" lon="11.619333925740772"><ele>534.0</ele><time>2026-04-18T18:50:20Z</time></trkpt><trkpt lat="48.125969432290056" lon="11.619221885339154"><ele>534.0</ele><time>2026-04-18T18:50:21Z</time></trkpt><trkpt lat="48.126026100792345" lon="11.61911726147241"><ele>534.0</ele><time>2026-04-18T18:50:22Z</time></trkpt><trkpt lat="48.12608180145805" lon="11.619013307489475"><ele>534.0</ele><time>2026-04-18T18:50:23Z</time></trkpt><trkpt lat="48.1261428080093" lon="11.618905177352195"><ele>534.0</ele><time>2026-04-18T18:50:24Z</time></trkpt><trkpt lat="48.12620889885009" lon="11.61877352721616"><ele>534.0</ele><time>2026-04-18T18:50:25Z</time></trkpt><trkpt lat="48.12628164764875" lon="11.618629904724513"><ele>534.0</ele><time>2026-04-18T18:50:26Z</time></trkpt><trkpt lat="48.12637138136468" lon="11.61845985045206"><ele>534.0</ele><time>2026-04-18T18:50:27Z</time></trkpt><trkpt lat="48.12646453836603" lon="11.618268374854042"><ele>533.0</ele><time>2026-04-18T18:50:28Z</time></trkpt><trkpt lat="48.12657264072437" lon="11.61806196292281"><ele>532.0</ele><time>2026-04-18T18:50:29Z</time></trkpt><trkpt lat="48.126682420961856" lon="11.617880123061347"><ele>531.0</ele><time>2026-04-18T18:50:30Z</time></trkpt><trkpt lat="48.12678362924599" lon="11.617716275742012"><ele>530.75</ele><time>2026-04-18T18:50:31Z</time></trkpt><trkpt lat="48.12687786258121" lon="11.617567131401518"><ele>530.5</ele><time>2026-04-18T18:50:32Z</time></trkpt><trkpt lat="48.1269689589762" lon="11.61743208902925"><ele>530.25</ele><time>2026-04-18T18:50:33Z</time></trkpt><trkpt lat="48.1270586291607" lon="11.617302947136341"><ele>530.0</ele><time>2026-04-18T18:50:34Z</time></trkpt><trkpt lat="48.12714889071019" lon="11.617176633161854"><ele>530.0</ele><time>2026-04-18T18:50:35Z</time></trkpt><trkpt lat="48.1272497381583" lon="11.617044786764623"><ele>530.0</ele><time>2026-04-18T18:50:36Z</time></trkpt><trkpt lat="48.1273518853986" lon="11.616910552570435"><ele>530.0</ele><time>2026-04-18T18:50:37Z</time></trkpt><trkpt lat="48.12745558292201" lon="11.61677934901785"><ele>530.0</ele><time>2026-04-18T18:50:38Z</time></trkpt><trkpt lat="48.12756432970126" lon="11.61664277254334"><ele>530.75</ele><time>2026-04-18T18:50:39Z</time></trkpt><trkpt lat="48.12768301253065" lon="11.61650527952097"><ele>531.5</ele><time>2026-04-18T18:50:40Z</time></trkpt><trkpt lat="48.127801078962804" lon="11.616371492361196"><ele>532.25</ele><time>2026-04-18T18:50:41Z</time></trkpt><trkpt lat="48.12791824847505" lon="11.616250054461801"><ele>533.0</ele><time>2026-04-18T18:50:42Z</time></trkpt><trkpt lat="48.128036655118066" lon="11.616130185215694"><ele>533.0</ele><time>2026-04-18T18:50:43Z</time></trkpt><trkpt lat="48.128161238673826" lon="11.61601043435125"><ele>533.0</ele><time>2026-04-18T18:50:44Z</time></trkpt><trkpt lat="48.12828847066431" lon="11.615894953935204"><ele>533.0</ele><time>2026-04-18T18:50:45Z</time></trkpt><trkpt lat="48.12841919713556" lon="11.61578660524761"><ele>533.0</ele><time>2026-04-18T18:50:46Z</time></trkpt><trkpt lat="48.12855462901071" lon="11.61569239110496"><ele>533.0</ele><time>2026-04-18T18:50:47Z</time></trkpt><trkpt lat="48.1286941114901" lon="11.615610823583536"><ele>533.0</ele><time>2026-04-18T18:50:48Z</time></trkpt><trkpt lat="48.12883620169186" lon="11.615542598484872"><ele>533.0</ele><time>2026-04-18T18:50:49Z</time></trkpt><trkpt lat="48.12898481186048" lon="11.615485954217686"><ele>533.0</ele><time>2026-04-18T18:50:50Z</time></trkpt><trkpt lat="48.12913683648757" lon="11.615439531296957"><ele>533.0</ele><time>2026-04-18T18:50:51Z</time></trkpt><trkpt lat="48.129285112888084" lon="11.61540813373704"><ele>533.0</ele><time>2026-04-18T18:50:52Z</time></trkpt><trkpt lat="48.12943745693919" lon="11.615385525077803"><ele>533.0</ele><time>2026-04-18T18:50:53Z</time></trkpt><trkpt lat="48.129592761803735" lon="11.61536969705044"><ele>533.0</ele><time>2026-04-18T18:50:54Z</time></trkpt><trkpt lat="48.12974652663082" lon="11.615372855103464"><ele>533.0</ele><time>2026-04-18T18:50:55Z</time></trkpt><trkpt lat="48.129898451320315" lon="11.615389463370917"><ele>533.3333333333333</ele><time>2026-04-18T18:50:56Z</time></trkpt><trkpt lat="48.13004802566856" lon="11.615415531607855"><ele>533.6666666666666</ele><time>2026-04-18T18:50:57Z</time></trkpt><trkpt lat="48.130194742448346" lon="11.615451630197"><ele>534.0</ele><time>2026-04-18T18:50:58Z</time></trkpt><trkpt lat="48.13034208328385" lon="11.615499688735984"><ele>534.0</ele><time>2026-04-18T18:50:59Z</time></trkpt><trkpt lat="48.130489717570704" lon="11.61555034833891"><ele>534.0</ele><time>2026-04-18T18:51:00Z</time></trkpt><trkpt lat="48.13063665958962" lon="11.615595837034535"><ele>534.0</ele><time>2026-04-18T18:51:01Z</time></trkpt><trkpt lat="48.1307916651657" lon="11.615643226388597"><ele>534.0</ele><time>2026-04-18T18:51:02.061Z</time></trkpt><trkpt lat="48.130936676409554" lon="11.61568671248174"><ele>534.0</ele><time>2026-04-18T18:51:03.058Z</time></trkpt><trkpt lat="48.13098968590213" lon="11.614741319900672"><ele>535.0</ele><time>2026-04-18T18:51:04.046Z</time></trkpt><trkpt lat="48.13180574327887" lon="11.616001389697955"><ele>535.0</ele><time>2026-04-18T18:51:09Z</time></trkpt><trkpt lat="48.13196156540552" lon="11.616074442886433"><ele>535.0</ele><time>2026-04-18T18:51:10Z</time></trkpt><trkpt lat="48.13209564644073" lon="11.616127031632013"><ele>535.0</ele><time>2026-04-18T18:51:11Z</time></trkpt><trkpt lat="48.13223236564077" lon="11.61618059198866"><ele>535.0</ele><time>2026-04-18T18:51:12Z</time></trkpt><trkpt lat="48.13237778366113" lon="11.61622045048408"><ele>534.0</ele><time>2026-04-18T18:51:13Z</time></trkpt><trkpt lat="48.13252818697514" lon="11.616289091620878"><ele>533.0</ele><time>2026-04-18T18:51:14Z</time></trkpt><trkpt lat="48.13264784827121" lon="11.616305009674003"><ele>532.0</ele><time>2026-04-18T18:51:15Z</time></trkpt><trkpt lat="48.13276517214657" lon="11.61635839863634"><ele>531.0</ele><time>2026-04-18T18:51:16Z</time></trkpt><trkpt lat="48.13291135910874" lon="11.616379700845656"><ele>531.0</ele><time>2026-04-18T18:51:17Z</time></trkpt><trkpt lat="48.13305245221902" lon="11.61641729781969"><ele>531.0</ele><time>2026-04-18T18:51:18Z</time></trkpt><trkpt lat="48.13319832527341" lon="11.616433472300695"><ele>531.0</ele><time>2026-04-18T18:51:19Z</time></trkpt><trkpt lat="48.13333877297833" lon="11.616420349485992"><ele>531.0</ele><time>2026-04-18T18:51:20Z</time></trkpt><trkpt lat="48.133489187878475" lon="11.61638569159654"><ele>530.25</ele><time>2026-04-18T18:51:21Z</time></trkpt><trkpt lat="48.1336237607333" lon="11.616339350023475"><ele>529.5</ele><time>2026-04-18T18:51:22Z</time></trkpt><trkpt lat="48.133752974673776" lon="11.616292215464258"><ele>528.75</ele><time>2026-04-18T18:51:23Z</time></trkpt><trkpt lat="48.13389235892405" lon="11.616230627748354"><ele>528.0</ele><time>2026-04-18T18:51:24Z</time></trkpt><trkpt lat="48.13403020401398" lon="11.61616043767226"><ele>528.25</ele><time>2026-04-18T18:51:25Z</time></trkpt><trkpt lat="48.134161293031866" lon="11.616094790989747"><ele>528.5</ele><time>2026-04-18T18:51:26Z</time></trkpt><trkpt lat="48.13429810603742" lon="11.61602384058369"><ele>528.75</ele><time>2026-04-18T18:51:27Z</time></trkpt><trkpt lat="48.13443550865279" lon="11.615948905522373"><ele>529.0</ele><time>2026-04-18T18:51:28Z</time></trkpt><trkpt lat="48.1345739699234" lon="11.615874913476366"><ele>529.0</ele><time>2026-04-18T18:51:29Z</time></trkpt><trkpt lat="48.13471210394154" lon="11.615801792400518"><ele>529.0</ele><time>2026-04-18T18:51:30Z</time></trkpt><trkpt lat="48.13485992451224" lon="11.615725111757465"><ele>529.0</ele><time>2026-04-18T18:51:31.053Z</time></trkpt><trkpt lat="48.135001310876945" lon="11.615652238937924"><ele>532.0</ele><time>2026-04-18T18:51:32.052Z</time></trkpt><trkpt lat="48.13677215630969" lon="11.614862442238064"><ele>531.0</ele><time>2026-04-18T18:51:33.654Z</time></trkpt><trkpt lat="48.135459809983125" lon="11.615455835961667"><ele>531.0</ele><time>2026-04-18T18:51:35Z</time></trkpt><trkpt lat="48.135586774238334" lon="11.615379531509857"><ele>531.0</ele><time>2026-04-18T18:51:36Z</time></trkpt><trkpt lat="48.1357141848697" lon="11.615323199686166"><ele>531.0</ele><time>2026-04-18T18:51:37Z</time></trkpt><trkpt lat="48.13585006172271" lon="11.615266039694209"><ele>531.0</ele><time>2026-04-18T18:51:38Z</time></trkpt><trkpt lat="48.13598277242036" lon="11.615204944969985"><ele>531.25</ele><time>2026-04-18T18:51:39Z</time></trkpt><trkpt lat="48.13611705337156" lon="11.615157201500224"><ele>531.5</ele><time>2026-04-18T18:51:40Z</time></trkpt><trkpt lat="48.13624243027969" lon="11.615117216197433"><ele>531.75</ele><time>2026-04-18T18:51:41Z</time></trkpt><trkpt lat="48.136371074803954" lon="11.615075969209776"><ele>532.0</ele><time>2026-04-18T18:51:42Z</time></trkpt><trkpt lat="48.13650447062158" lon="11.615034888266514"><ele>532.0</ele><time>2026-04-18T18:51:43Z</time></trkpt><trkpt lat="48.13664452642016" lon="11.614996038129638"><ele>532.0</ele><time>2026-04-18T18:51:44Z</time></trkpt><trkpt lat="48.136788230597055" lon="11.614961594460915"><ele>532.0</ele><time>2026-04-18T18:51:45Z</time></trkpt><trkpt lat="48.13693116330691" lon="11.614930965668437"><ele>532.0</ele><time>2026-04-18T18:51:46Z</time></trkpt><trkpt lat="48.13707636651918" lon="11.614902320127252"><ele>532.0</ele><time>2026-04-18T18:51:47Z</time></trkpt><trkpt lat="48.1372231519315" lon="11.61487350188983"><ele>532.0</ele><time>2026-04-18T18:51:48Z</time></trkpt><trkpt lat="48.13737205742795" lon="11.61484491061898"><ele>532.0</ele><time>2026-04-18T18:51:49Z</time></trkpt><trkpt lat="48.1375311405169" lon="11.614815056306897"><ele>533.0</ele><time>2026-04-18T18:51:50.06Z</time></trkpt><trkpt lat="48.13768041960302" lon="11.614784902096847"><ele>534.0</ele><time>2026-04-18T18:51:51.055Z</time></trkpt><trkpt lat="48.13782982360427" lon="11.614752640370703"><ele>535.0</ele><time>2026-04-18T18:51:52.053Z</time></trkpt><trkpt lat="48.13797864457952" lon="11.614721971209237"><ele>535.0</ele><time>2026-04-18T18:51:53.051Z</time></trkpt><trkpt lat="48.13812506959988" lon="11.614694786583195"><ele>535.0</ele><time>2026-04-18T18:51:54.051Z</time></trkpt><trkpt lat="48.13827080443259" lon="11.614669915412422"><ele>535.0</ele><time>2026-04-18T18:51:55.041Z</time></trkpt><trkpt lat="48.139948906216425" lon="11.614816349650509"><ele>530.0</ele><time>2026-04-18T18:52:08.417Z</time></trkpt><trkpt lat="48.15035647648415" lon="11.616503034090774"><ele>530.0</ele><time>2026-04-18T18:53:19Z</time></trkpt><trkpt lat="48.15053654578062" lon="11.616311453847013"><ele>530.0</ele><time>2026-04-18T18:53:21Z</time></trkpt><trkpt lat="48.15080134763295" lon="11.61619923683068"><ele>528.75</ele><time>2026-04-18T18:53:22Z</time></trkpt><trkpt lat="48.15093512206531" lon="11.616099167718062"><ele>527.5</ele><time>2026-04-18T18:53:23Z</time></trkpt><trkpt lat="48.151074366167855" lon="11.6160196687309"><ele>526.25</ele><time>2026-04-18T18:53:24Z</time></trkpt><trkpt lat="48.15120336555625" lon="11.615906638816153"><ele>525.0</ele><time>2026-04-18T18:53:25Z</time></trkpt><trkpt lat="48.15133390199273" lon="11.615819125356495"><ele>525.0</ele><time>2026-04-18T18:53:26Z</time></trkpt><trkpt lat="48.15146409914376" lon="11.615726443619689"><ele>525.0</ele><time>2026-04-18T18:53:27Z</time></trkpt><trkpt lat="48.15159185218056" lon="11.615631537180624"><ele>525.0</ele><time>2026-04-18T18:53:28Z</time></trkpt><trkpt lat="48.15171434071431" lon="11.615528669378822"><ele>525.0</ele><time>2026-04-18T18:53:29Z</time></trkpt><trkpt lat="48.15183837132636" lon="11.615417609457884"><ele>524.0</ele><time>2026-04-18T18:53:30Z</time></trkpt><trkpt lat="48.151962880982644" lon="11.615298460575948"><ele>523.0</ele><time>2026-04-18T18:53:31Z</time></trkpt><trkpt lat="48.15207289375151" lon="11.615178401740243"><ele>522.0</ele><time>2026-04-18T18:53:32Z</time></trkpt><trkpt lat="48.15217902267713" lon="11.615046017188405"><ele>521.0</ele><time>2026-04-18T18:53:33Z</time></trkpt><trkpt lat="48.152288288051864" lon="11.614904053483158"><ele>521.0</ele><time>2026-04-18T18:53:34Z</time></trkpt><trkpt lat="48.15239449863104" lon="11.614757347584034"><ele>521.0</ele><time>2026-04-18T18:53:35Z</time></trkpt><trkpt lat="48.15250443742672" lon="11.614600086891958"><ele>521.0</ele><time>2026-04-18T18:53:36Z</time></trkpt><trkpt lat="48.152619985499115" lon="11.614427085796695"><ele>521.0</ele><time>2026-04-18T18:53:37Z</time></trkpt><trkpt lat="48.15273564299937" lon="11.614252575615746"><ele>521.0</ele><time>2026-04-18T18:53:38Z</time></trkpt><trkpt lat="48.15284052036637" lon="11.614088870014989"><ele>521.0</ele><time>2026-04-18T18:53:39Z</time></trkpt><trkpt lat="48.152945445460176" lon="11.613922641638222"><ele>521.0</ele><time>2026-04-18T18:53:40Z</time></trkpt><trkpt lat="48.15305337616336" lon="11.613754656384947"><ele>521.0</ele><time>2026-04-18T18:53:41Z</time></trkpt><trkpt lat="48.15318632512029" lon="11.613617326007029"><ele>521.0</ele><time>2026-04-18T18:53:42Z</time></trkpt><trkpt lat="48.15329408352499" lon="11.613463705515708"><ele>521.6666666666666</ele><time>2026-04-18T18:53:43Z</time></trkpt><trkpt lat="48.153410425948536" lon="11.61324056888211"><ele>522.3333333333334</ele><time>2026-04-18T18:53:44Z</time></trkpt><trkpt lat="48.15351806905956" lon="11.613064718304095"><ele>523.0</ele><time>2026-04-18T18:53:45Z</time></trkpt><trkpt lat="48.15361835013719" lon="11.612885505484064"><ele>523.0</ele><time>2026-04-18T18:53:46Z</time></trkpt><trkpt lat="48.15371550398596" lon="11.612702280890696"><ele>523.0</ele><time>2026-04-18T18:53:47Z</time></trkpt><trkpt lat="48.15381608091822" lon="11.61251884653932"><ele>523.0</ele><time>2026-04-18T18:53:48Z</time></trkpt><trkpt lat="48.1539149744584" lon="11.612327890829071"><ele>523.0</ele><time>2026-04-18T18:53:49Z</time></trkpt><trkpt lat="48.15401348025495" lon="11.612137178931274"><ele>523.0</ele><time>2026-04-18T18:53:50Z</time></trkpt><trkpt lat="48.15410679159029" lon="11.61194443798302"><ele>523.0</ele><time>2026-04-18T18:53:51Z</time></trkpt><trkpt lat="48.154203380301155" lon="11.611749276977099"><ele>522.0</ele><time>2026-04-18T18:53:52Z</time></trkpt><trkpt lat="48.15430049247602" lon="11.611546562556423"><ele>521.0</ele><time>2026-04-18T18:53:53Z</time></trkpt><trkpt lat="48.154397583248524" lon="11.61134621013011"><ele>520.0</ele><time>2026-04-18T18:53:54Z</time></trkpt><trkpt lat="48.154494606619934" lon="11.611136168526178"><ele>518.3333333333334</ele><time>2026-04-18T18:53:55Z</time></trkpt><trkpt lat="48.15458883378398" lon="11.610932939020154"><ele>516.6666666666666</ele><time>2026-04-18T18:53:56Z</time></trkpt><trkpt lat="48.154679944990484" lon="11.610725980936111"><ele>515.0</ele><time>2026-04-18T18:53:57Z</time></trkpt><trkpt lat="48.15477336565409" lon="11.610517229342287"><ele>513.6666666666666</ele><time>2026-04-18T18:53:58Z</time></trkpt><trkpt lat="48.15486449241672" lon="11.610309223173557"><ele>512.3333333333334</ele><time>2026-04-18T18:53:59Z</time></trkpt><trkpt lat="48.15494783738766" lon="11.610112493301726"><ele>511.0</ele><time>2026-04-18T18:54:00Z</time></trkpt><trkpt lat="48.15503378084926" lon="11.60990974932194"><ele>511.0</ele><time>2026-04-18T18:54:01Z</time></trkpt><trkpt lat="48.15512331980444" lon="11.609700161045488"><ele>511.0</ele><time>2026-04-18T18:54:02Z</time></trkpt><trkpt lat="48.15521154118225" lon="11.609484523228312"><ele>511.0</ele><time>2026-04-18T18:54:03Z</time></trkpt><trkpt lat="48.155297276181194" lon="11.609274020010329"><ele>510.33333333333337</ele><time>2026-04-18T18:54:04Z</time></trkpt><trkpt lat="48.155380496539756" lon="11.609061381121636"><ele>509.66666666666663</ele><time>2026-04-18T18:54:05Z</time></trkpt><trkpt lat="48.155461754928965" lon="11.608836176866985"><ele>509.0</ele><time>2026-04-18T18:54:06Z</time></trkpt><trkpt lat="48.15554681114097" lon="11.608627987217218"><ele>508.66666666666663</ele><time>2026-04-18T18:54:07Z</time></trkpt><trkpt lat="48.15563247967836" lon="11.608425571977984"><ele>508.33333333333337</ele><time>2026-04-18T18:54:08Z</time></trkpt><trkpt lat="48.1557150857166" lon="11.608214867016727"><ele>508.0</ele><time>2026-04-18T18:54:09Z</time></trkpt><trkpt lat="48.15579710250856" lon="11.608001354813235"><ele>508.33333333333337</ele><time>2026-04-18T18:54:10Z</time></trkpt><trkpt lat="48.155877560948895" lon="11.607803883449701"><ele>508.66666666666663</ele><time>2026-04-18T18:54:11Z</time></trkpt><trkpt lat="48.155964657183304" lon="11.607595482603669"><ele>509.0</ele><time>2026-04-18T18:54:12Z</time></trkpt><trkpt lat="48.15604936292593" lon="11.60739361219252"><ele>509.0</ele><time>2026-04-18T18:54:13Z</time></trkpt><trkpt lat="48.156135224831246" lon="11.607191882040688"><ele>509.0</ele><time>2026-04-18T18:54:14Z</time></trkpt><trkpt lat="48.15621862034691" lon="11.60699439092992"><ele>509.0</ele><time>2026-04-18T18:54:15Z</time></trkpt><trkpt lat="48.156302179324825" lon="11.60679584539544"><ele>509.3333333333333</ele><time>2026-04-18T18:54:16Z</time></trkpt><trkpt lat="48.15638926455567" lon="11.606598938534548"><ele>509.66666666666663</ele><time>2026-04-18T18:54:17Z</time></trkpt><trkpt lat="48.156482459202934" lon="11.606393263879351"><ele>510.0</ele><time>2026-04-18T18:54:18Z</time></trkpt><trkpt lat="48.156561561349456" lon="11.606184262480264"><ele>510.0</ele><time>2026-04-18T18:54:19Z</time></trkpt><trkpt lat="48.15664577725651" lon="11.605982715404666"><ele>510.0</ele><time>2026-04-18T18:54:20Z</time></trkpt><trkpt lat="48.15672803360636" lon="11.605775034258912"><ele>510.0</ele><time>2026-04-18T18:54:21Z</time></trkpt><trkpt lat="48.15680540252701" lon="11.605560083107568"><ele>510.0</ele><time>2026-04-18T18:54:22Z</time></trkpt><trkpt lat="48.15688105503093" lon="11.6053668120734"><ele>510.0</ele><time>2026-04-18T18:54:23Z</time></trkpt><trkpt lat="48.15696292781979" lon="11.605156340172393"><ele>510.0</ele><time>2026-04-18T18:54:24Z</time></trkpt><trkpt lat="48.15704032498689" lon="11.604952775014146"><ele>508.66666666666663</ele><time>2026-04-18T18:54:25Z</time></trkpt><trkpt lat="48.15712363798333" lon="11.60475080394397"><ele>507.3333333333333</ele><time>2026-04-18T18:54:26Z</time></trkpt><trkpt lat="48.1572060861701" lon="11.60454908570434"><ele>506.0</ele><time>2026-04-18T18:54:27Z</time></trkpt><trkpt lat="48.15728598389587" lon="11.604348312463788"><ele>506.0</ele><time>2026-04-18T18:54:28Z</time></trkpt><trkpt lat="48.157367899458954" lon="11.604147349688683"><ele>506.0</ele><time>2026-04-18T18:54:29Z</time></trkpt><trkpt lat="48.15745809019326" lon="11.603952012363385"><ele>506.0</ele><time>2026-04-18T18:54:30Z</time></trkpt><trkpt lat="48.157551095731264" lon="11.60376577625361"><ele>506.3333333333333</ele><time>2026-04-18T18:54:31Z</time></trkpt><trkpt lat="48.1576514003524" lon="11.603584972017488"><ele>506.66666666666663</ele><time>2026-04-18T18:54:32Z</time></trkpt><trkpt lat="48.15775930753255" lon="11.603410907249986"><ele>507.0</ele><time>2026-04-18T18:54:33Z</time></trkpt><trkpt lat="48.15787321842415" lon="11.603238085605392"><ele>507.0</ele><time>2026-04-18T18:54:34Z</time></trkpt><trkpt lat="48.157997129090255" lon="11.603070630857996"><ele>507.0</ele><time>2026-04-18T18:54:35Z</time></trkpt><trkpt lat="48.15812889745929" lon="11.602910663039781"><ele>507.0</ele><time>2026-04-18T18:54:36Z</time></trkpt><trkpt lat="48.158261984925076" lon="11.602761483610635"><ele>507.66666666666663</ele><time>2026-04-18T18:54:37Z</time></trkpt><trkpt lat="48.15839456752586" lon="11.602628167497038"><ele>508.3333333333333</ele><time>2026-04-18T18:54:38Z</time></trkpt><trkpt lat="48.158531982053695" lon="11.602500275890161"><ele>509.0</ele><time>2026-04-18T18:54:39Z</time></trkpt><trkpt lat="48.15867614187374" lon="11.602372929868636"><ele>509.0</ele><time>2026-04-18T18:54:40Z</time></trkpt><trkpt lat="48.15881856264665" lon="11.602249355819998"><ele>509.0</ele><time>2026-04-18T18:54:41Z</time></trkpt><trkpt lat="48.15896486473937" lon="11.60213814092776"><ele>509.0</ele><time>2026-04-18T18:54:42Z</time></trkpt><trkpt lat="48.15911132405522" lon="11.602025214282467"><ele>509.0</ele><time>2026-04-18T18:54:43Z</time></trkpt><trkpt lat="48.15926359290196" lon="11.601910785376734"><ele>509.0</ele><time>2026-04-18T18:54:44Z</time></trkpt><trkpt lat="48.15941462728275" lon="11.601798543176033"><ele>509.0</ele><time>2026-04-18T18:54:45Z</time></trkpt><trkpt lat="48.159564472016655" lon="11.601684098550393"><ele>509.0</ele><time>2026-04-18T18:54:46Z</time></trkpt><trkpt lat="48.15971460325974" lon="11.60156528678039"><ele>509.0</ele><time>2026-04-18T18:54:47Z</time></trkpt><trkpt lat="48.15986722799746" lon="11.601439682154691"><ele>509.0</ele><time>2026-04-18T18:54:48Z</time></trkpt><trkpt lat="48.16001847687401" lon="11.601304416691233"><ele>508.66666666666663</ele><time>2026-04-18T18:54:49Z</time></trkpt><trkpt lat="48.16016461115825" lon="11.601162230931747"><ele>508.33333333333337</ele><time>2026-04-18T18:54:50Z</time></trkpt><trkpt lat="48.16030246170322" lon="11.601014550433844"><ele>508.0</ele><time>2026-04-18T18:54:51Z</time></trkpt><trkpt lat="48.160434166898796" lon="11.600860011381215"><ele>508.0</ele><time>2026-04-18T18:54:52Z</time></trkpt><trkpt lat="48.1605592354444" lon="11.600703217748592"><ele>508.0</ele><time>2026-04-18T18:54:53Z</time></trkpt><trkpt lat="48.16068537956841" lon="11.600541829259539"><ele>508.0</ele><time>2026-04-18T18:54:54Z</time></trkpt><trkpt lat="48.16081264601012" lon="11.600366493728592"><ele>508.33333333333337</ele><time>2026-04-18T18:54:55Z</time></trkpt><trkpt lat="48.16094054263813" lon="11.600177894117623"><ele>508.66666666666663</ele><time>2026-04-18T18:54:56Z</time></trkpt><trkpt lat="48.16107100048338" lon="11.599976227225698"><ele>509.0</ele><time>2026-04-18T18:54:57Z</time></trkpt><trkpt lat="48.16119026440474" lon="11.599783950577809"><ele>509.0</ele><time>2026-04-18T18:54:58Z</time></trkpt><trkpt lat="48.161301210460024" lon="11.599596798441238"><ele>509.0</ele><time>2026-04-18T18:54:59Z</time></trkpt><trkpt lat="48.16141063167599" lon="11.599412898066396"><ele>509.0</ele><time>2026-04-18T18:55:00Z</time></trkpt><trkpt lat="48.161513999721535" lon="11.599228976337185"><ele>508.66666666666663</ele><time>2026-04-18T18:55:01Z</time></trkpt><trkpt lat="48.16162120642859" lon="11.599035704941098"><ele>508.33333333333337</ele><time>2026-04-18T18:55:02Z</time></trkpt><trkpt lat="48.161729023559566" lon="11.598842899333548"><ele>508.0</ele><time>2026-04-18T18:55:03Z</time></trkpt><trkpt lat="48.161834397306286" lon="11.598651843750844"><ele>507.6666666666667</ele><time>2026-04-18T18:55:04Z</time></trkpt><trkpt lat="48.1619378870371" lon="11.598462509246861"><ele>507.33333333333337</ele><time>2026-04-18T18:55:05Z</time></trkpt><trkpt lat="48.16204054019481" lon="11.598273012424682"><ele>507.0</ele><time>2026-04-18T18:55:06Z</time></trkpt><trkpt lat="48.16214403440902" lon="11.59808328631831"><ele>507.0</ele><time>2026-04-18T18:55:07Z</time></trkpt><trkpt lat="48.16225076003994" lon="11.597895216324407"><ele>507.0</ele><time>2026-04-18T18:55:08Z</time></trkpt><trkpt lat="48.16235751019628" lon="11.597704036975928"><ele>507.0</ele><time>2026-04-18T18:55:09Z</time></trkpt><trkpt lat="48.1624654254465" lon="11.597511926992551"><ele>506.66666666666663</ele><time>2026-04-18T18:55:10Z</time></trkpt><trkpt lat="48.16257819956413" lon="11.597325325071077"><ele>506.3333333333333</ele><time>2026-04-18T18:55:11Z</time></trkpt><trkpt lat="48.16269612578755" lon="11.597151049794205"><ele>506.0</ele><time>2026-04-18T18:55:12Z</time></trkpt><trkpt lat="48.16282145675287" lon="11.59698762289981"><ele>506.0</ele><time>2026-04-18T18:55:13Z</time></trkpt><trkpt lat="48.16294736089133" lon="11.596841245563734"><ele>506.0</ele><time>2026-04-18T18:55:14Z</time></trkpt><trkpt lat="48.16307661839224" lon="11.596700198659786"><ele>506.0</ele><time>2026-04-18T18:55:15Z</time></trkpt><trkpt lat="48.163217066708754" lon="11.596569979419108"><ele>505.3333333333333</ele><time>2026-04-18T18:55:16Z</time></trkpt><trkpt lat="48.163367537641115" lon="11.596458779295908"><ele>504.66666666666663</ele><time>2026-04-18T18:55:17Z</time></trkpt><trkpt lat="48.16352350103141" lon="11.596361305090431"><ele>504.0</ele><time>2026-04-18T18:55:18Z</time></trkpt><trkpt lat="48.16367743705387" lon="11.596272097812447"><ele>504.0</ele><time>2026-04-18T18:55:19Z</time></trkpt><trkpt lat="48.16383278463013" lon="11.59620004481354"><ele>504.0</ele><time>2026-04-18T18:55:20Z</time></trkpt><trkpt lat="48.163998221532985" lon="11.596142206440437"><ele>504.0</ele><time>2026-04-18T18:55:21Z</time></trkpt><trkpt lat="48.16416667765139" lon="11.596094668457917"><ele>505.0</ele><time>2026-04-18T18:55:22Z</time></trkpt><trkpt lat="48.16433712553492" lon="11.596062606682203"><ele>506.0</ele><time>2026-04-18T18:55:23Z</time></trkpt><trkpt lat="48.16450525324642" lon="11.596049300587051"><ele>507.0</ele><time>2026-04-18T18:55:24Z</time></trkpt><trkpt lat="48.16467681743258" lon="11.596050829333931"><ele>507.0</ele><time>2026-04-18T18:55:25Z</time></trkpt><trkpt lat="48.164846679726836" lon="11.596064624749925"><ele>507.0</ele><time>2026-04-18T18:55:26Z</time></trkpt><trkpt lat="48.16501210754903" lon="11.59609928986175"><ele>507.0</ele><time>2026-04-18T18:55:27Z</time></trkpt><trkpt lat="48.165175385785915" lon="11.596145227993217"><ele>508.0</ele><time>2026-04-18T18:55:28Z</time></trkpt><trkpt lat="48.16534519851592" lon="11.596211467793477"><ele>509.0</ele><time>2026-04-18T18:55:29.059Z</time></trkpt><trkpt lat="48.16550497528031" lon="11.596288929985528"><ele>510.0</ele><time>2026-04-18T18:55:30.06Z</time></trkpt><trkpt lat="48.165660719722176" lon="11.596376884312004"><ele>510.0</ele><time>2026-04-18T18:55:31.054Z</time></trkpt><trkpt lat="48.16581259810344" lon="11.596475366757051"><ele>510.0</ele><time>2026-04-18T18:55:32.053Z</time></trkpt><trkpt lat="48.16595764974137" lon="11.596562467027287"><ele>510.0</ele><time>2026-04-18T18:55:33.035Z</time></trkpt><trkpt lat="48.16792335727359" lon="11.598380552773628"><ele>506.0</ele><time>2026-04-18T18:55:46.386Z</time></trkpt><trkpt lat="48.169066270369704" lon="11.598724703433993"><ele>506.0</ele><time>2026-04-18T18:55:52.398Z</time></trkpt><trkpt lat="48.16924867124412" lon="11.598757604427261"><ele>506.0</ele><time>2026-04-18T18:55:55Z</time></trkpt><trkpt lat="48.16936110568195" lon="11.598907653516926"><ele>506.0</ele><time>2026-04-18T18:55:56Z</time></trkpt><trkpt lat="48.16951815248188" lon="11.598992700125763"><ele>506.0</ele><time>2026-04-18T18:55:57Z</time></trkpt><trkpt lat="48.16963712955159" lon="11.599125604999754"><ele>506.0</ele><time>2026-04-18T18:55:58Z</time></trkpt><trkpt lat="48.169774147077995" lon="11.599220976036584"><ele>506.0</ele><time>2026-04-18T18:55:59Z</time></trkpt><trkpt lat="48.169935924390444" lon="11.599326637999583"><ele>506.0</ele><time>2026-04-18T18:56:00Z</time></trkpt><trkpt lat="48.170082983671364" lon="11.599424344600216"><ele>506.0</ele><time>2026-04-18T18:56:01Z</time></trkpt><trkpt lat="48.17019948583455" lon="11.599515904932051"><ele>506.0</ele><time>2026-04-18T18:56:02Z</time></trkpt><trkpt lat="48.17034575668378" lon="11.599609899818216"><ele>506.25</ele><time>2026-04-18T18:56:03Z</time></trkpt><trkpt lat="48.17040647684974" lon="11.599752034189782"><ele>506.5</ele><time>2026-04-18T18:56:04Z</time></trkpt><trkpt lat="48.170557954427316" lon="11.599850240672788"><ele>506.75</ele><time>2026-04-18T18:56:05Z</time></trkpt><trkpt lat="48.170714095273034" lon="11.59992872781222"><ele>507.0</ele><time>2026-04-18T18:56:06Z</time></trkpt><trkpt lat="48.17087366169047" lon="11.59998986774427"><ele>506.0</ele><time>2026-04-18T18:56:07Z</time></trkpt><trkpt lat="48.171027919731785" lon="11.60004115461809"><ele>505.0</ele><time>2026-04-18T18:56:08Z</time></trkpt><trkpt lat="48.171189517495336" lon="11.600070492476423"><ele>504.0</ele><time>2026-04-18T18:56:09Z</time></trkpt><trkpt lat="48.17135042956152" lon="11.600071848051323"><ele>504.0</ele><time>2026-04-18T18:56:10Z</time></trkpt><trkpt lat="48.17151595178117" lon="11.60005201299334"><ele>504.0</ele><time>2026-04-18T18:56:11Z</time></trkpt><trkpt lat="48.171680653692704" lon="11.600005576546202"><ele>504.0</ele><time>2026-04-18T18:56:12Z</time></trkpt><trkpt lat="48.17184787862114" lon="11.599918138810729"><ele>504.0</ele><time>2026-04-18T18:56:13Z</time></trkpt><trkpt lat="48.17200746182707" lon="11.59980904203187"><ele>504.0</ele><time>2026-04-18T18:56:14Z</time></trkpt><trkpt lat="48.17216540274258" lon="11.59967648058786"><ele>504.0</ele><time>2026-04-18T18:56:15Z</time></trkpt><trkpt lat="48.17230056490603" lon="11.59952057216514"><ele>503.66666666666663</ele><time>2026-04-18T18:56:16Z</time></trkpt><trkpt lat="48.17242591657294" lon="11.599333831439615"><ele>503.3333333333333</ele><time>2026-04-18T18:56:17Z</time></trkpt><trkpt lat="48.172533337037805" lon="11.599142219343234"><ele>503.0</ele><time>2026-04-18T18:56:18Z</time></trkpt><trkpt lat="48.17264208694765" lon="11.598948049156993"><ele>503.0</ele><time>2026-04-18T18:56:19Z</time></trkpt><trkpt lat="48.17274683053784" lon="11.598767075349732"><ele>503.0</ele><time>2026-04-18T18:56:20Z</time></trkpt><trkpt lat="48.172841822355245" lon="11.598584570066256"><ele>503.0</ele><time>2026-04-18T18:56:21Z</time></trkpt><trkpt lat="48.1729388026384" lon="11.598395808806696"><ele>503.0</ele><time>2026-04-18T18:56:22Z</time></trkpt><trkpt lat="48.17303593915603" lon="11.59820355768778"><ele>503.0</ele><time>2026-04-18T18:56:23Z</time></trkpt><trkpt lat="48.17313274453249" lon="11.598011771133061"><ele>503.0</ele><time>2026-04-18T18:56:24Z</time></trkpt><trkpt lat="48.17323068364957" lon="11.597818781563603"><ele>504.3333333333333</ele><time>2026-04-18T18:56:25Z</time></trkpt><trkpt lat="48.173328138011335" lon="11.597622569685194"><ele>505.66666666666663</ele><time>2026-04-18T18:56:26Z</time></trkpt><trkpt lat="48.17343193285394" lon="11.597421087389833"><ele>507.0</ele><time>2026-04-18T18:56:27Z</time></trkpt><trkpt lat="48.173535617781496" lon="11.597218384651468"><ele>507.0</ele><time>2026-04-18T18:56:28Z</time></trkpt><trkpt lat="48.17363929843573" lon="11.597017202820611"><ele>507.0</ele><time>2026-04-18T18:56:29Z</time></trkpt><trkpt lat="48.17374238464519" lon="11.596821423682654"><ele>507.0</ele><time>2026-04-18T18:56:30Z</time></trkpt><trkpt lat="48.1738442146731" lon="11.59662986018161"><ele>506.66666666666663</ele><time>2026-04-18T18:56:31Z</time></trkpt><trkpt lat="48.17394419741677" lon="11.596438666992512"><ele>506.3333333333333</ele><time>2026-04-18T18:56:32Z</time></trkpt><trkpt lat="48.17404548008884" lon="11.596255353052097"><ele>506.0</ele><time>2026-04-18T18:56:33Z</time></trkpt><trkpt lat="48.174146108219375" lon="11.596052116928867"><ele>506.0</ele><time>2026-04-18T18:56:34Z</time></trkpt><trkpt lat="48.174236641981985" lon="11.595844219949223"><ele>506.0</ele><time>2026-04-18T18:56:35Z</time></trkpt><trkpt lat="48.17433593411044" lon="11.595642882004137"><ele>506.0</ele><time>2026-04-18T18:56:36Z</time></trkpt><trkpt lat="48.17443709583794" lon="11.595447530355191"><ele>506.3333333333333</ele><time>2026-04-18T18:56:37Z</time></trkpt><trkpt lat="48.174534447108876" lon="11.595258933550179"><ele>506.66666666666663</ele><time>2026-04-18T18:56:38Z</time></trkpt><trkpt lat="48.174629705603756" lon="11.595069779033883"><ele>507.0</ele><time>2026-04-18T18:56:39Z</time></trkpt><trkpt lat="48.174720250460354" lon="11.59488573683341"><ele>507.0</ele><time>2026-04-18T18:56:40Z</time></trkpt><trkpt lat="48.17480985355142" lon="11.594703922953988"><ele>507.0</ele><time>2026-04-18T18:56:41Z</time></trkpt><trkpt lat="48.17490046594439" lon="11.594523809589177"><ele>507.0</ele><time>2026-04-18T18:56:42Z</time></trkpt><trkpt lat="48.174987012476386" lon="11.59433629764943"><ele>505.66666666666663</ele><time>2026-04-18T18:56:43Z</time></trkpt><trkpt lat="48.17507288213511" lon="11.594147469125593"><ele>504.3333333333333</ele><time>2026-04-18T18:56:44Z</time></trkpt><trkpt lat="48.17516274129156" lon="11.593942099229505"><ele>503.0</ele><time>2026-04-18T18:56:45Z</time></trkpt><trkpt lat="48.17524908558518" lon="11.59374517175979"><ele>503.3333333333333</ele><time>2026-04-18T18:56:46Z</time></trkpt><trkpt lat="48.17533484986485" lon="11.593540735114352"><ele>503.66666666666663</ele><time>2026-04-18T18:56:47Z</time></trkpt><trkpt lat="48.175415949110096" lon="11.593339375662362"><ele>504.0</ele><time>2026-04-18T18:56:48Z</time></trkpt><trkpt lat="48.175500149893715" lon="11.593146279075574"><ele>504.0</ele><time>2026-04-18T18:56:49Z</time></trkpt><trkpt lat="48.17558536623314" lon="11.59294674670073"><ele>504.0</ele><time>2026-04-18T18:56:50Z</time></trkpt><trkpt lat="48.175671227418" lon="11.592743178392874"><ele>504.0</ele><time>2026-04-18T18:56:51Z</time></trkpt><trkpt lat="48.17575782285485" lon="11.592541362123578"><ele>504.0</ele><time>2026-04-18T18:56:52Z</time></trkpt><trkpt lat="48.175839573588576" lon="11.592341488707312"><ele>504.0</ele><time>2026-04-18T18:56:53Z</time></trkpt><trkpt lat="48.17592187140899" lon="11.592127417765765"><ele>504.0</ele><time>2026-04-18T18:56:54Z</time></trkpt><trkpt lat="48.17601218815363" lon="11.59191319082499"><ele>503.0</ele><time>2026-04-18T18:56:55Z</time></trkpt><trkpt lat="48.176101255205346" lon="11.591703718089295"><ele>502.0</ele><time>2026-04-18T18:56:56Z</time></trkpt><trkpt lat="48.17619004390341" lon="11.59150276066654"><ele>501.0</ele><time>2026-04-18T18:56:57Z</time></trkpt><trkpt lat="48.17627611151655" lon="11.591302030897777"><ele>501.0</ele><time>2026-04-18T18:56:58Z</time></trkpt><trkpt lat="48.176365213625886" lon="11.59108890224944"><ele>501.0</ele><time>2026-04-18T18:56:59Z</time></trkpt><trkpt lat="48.1764538001839" lon="11.590877062948994"><ele>501.0</ele><time>2026-04-18T18:57:00Z</time></trkpt><trkpt lat="48.17654282690039" lon="11.590661542645767"><ele>502.0</ele><time>2026-04-18T18:57:01Z</time></trkpt><trkpt lat="48.17663119097434" lon="11.590449764527138"><ele>503.0</ele><time>2026-04-18T18:57:02Z</time></trkpt><trkpt lat="48.17671091623523" lon="11.590243584588427"><ele>504.0</ele><time>2026-04-18T18:57:03Z</time></trkpt><trkpt lat="48.17678938185786" lon="11.590039496586085"><ele>504.33333333333337</ele><time>2026-04-18T18:57:04Z</time></trkpt><trkpt lat="48.17686654191309" lon="11.589827496353374"><ele>504.6666666666667</ele><time>2026-04-18T18:57:05Z</time></trkpt><trkpt lat="48.17694321950389" lon="11.589617562934809"><ele>505.0</ele><time>2026-04-18T18:57:06Z</time></trkpt><trkpt lat="48.177019814252375" lon="11.589412062595677"><ele>505.0</ele><time>2026-04-18T18:57:07Z</time></trkpt><trkpt lat="48.177091717750876" lon="11.589209292507968"><ele>505.0</ele><time>2026-04-18T18:57:08Z</time></trkpt><trkpt lat="48.17715882176773" lon="11.589006937029993"><ele>505.0</ele><time>2026-04-18T18:57:09Z</time></trkpt><trkpt lat="48.17722245132316" lon="11.588803449448909"><ele>505.0</ele><time>2026-04-18T18:57:10Z</time></trkpt><trkpt lat="48.17728323831082" lon="11.588588569255622"><ele>505.0</ele><time>2026-04-18T18:57:11Z</time></trkpt><trkpt lat="48.177341968327134" lon="11.588370719709154"><ele>505.0</ele><time>2026-04-18T18:57:12Z</time></trkpt><trkpt lat="48.177393349962465" lon="11.588150450820617"><ele>505.0</ele><time>2026-04-18T18:57:13Z</time></trkpt><trkpt lat="48.17743456026192" lon="11.587936026776777"><ele>505.0</ele><time>2026-04-18T18:57:14Z</time></trkpt><trkpt lat="48.17747495544976" lon="11.587725513353117"><ele>505.0</ele><time>2026-04-18T18:57:15Z</time></trkpt><trkpt lat="48.17751230492828" lon="11.587502221442106"><ele>505.0</ele><time>2026-04-18T18:57:16Z</time></trkpt><trkpt lat="48.17754316829793" lon="11.587269862979303"><ele>505.0</ele><time>2026-04-18T18:57:17Z</time></trkpt><trkpt lat="48.17757090909794" lon="11.58702700469577"><ele>505.0</ele><time>2026-04-18T18:57:18Z</time></trkpt><trkpt lat="48.177595357057996" lon="11.586778071020092"><ele>505.0</ele><time>2026-04-18T18:57:19Z</time></trkpt><trkpt lat="48.177615414817545" lon="11.58652228460476"><ele>505.6666666666667</ele><time>2026-04-18T18:57:20Z</time></trkpt><trkpt lat="48.17763177747929" lon="11.586265198647958"><ele>506.33333333333337</ele><time>2026-04-18T18:57:21Z</time></trkpt><trkpt lat="48.177644099113415" lon="11.586009947020928"><ele>507.0</ele><time>2026-04-18T18:57:22Z</time></trkpt><trkpt lat="48.177649517389675" lon="11.58576509434455"><ele>507.0</ele><time>2026-04-18T18:57:23Z</time></trkpt><trkpt lat="48.17764879778877" lon="11.585530053352272"><ele>507.0</ele><time>2026-04-18T18:57:24Z</time></trkpt><trkpt lat="48.17765270162539" lon="11.585310254266357"><ele>507.0</ele><time>2026-04-18T18:57:25Z</time></trkpt><trkpt lat="48.17765201589797" lon="11.585106477182741"><ele>507.0</ele><time>2026-04-18T18:57:26Z</time></trkpt><trkpt lat="48.17764876054831" lon="11.584892175171094"><ele>506.66666666666663</ele><time>2026-04-18T18:57:27.059Z</time></trkpt><trkpt lat="48.17764390357274" lon="11.58468079398204"><ele>506.3333333333333</ele><time>2026-04-18T18:57:28.051Z</time></trkpt><trkpt lat="48.17762924587847" lon="11.58447916943343"><ele>506.0</ele><time>2026-04-18T18:57:29.049Z</time></trkpt><trkpt lat="48.17755351260023" lon="11.582049776262693"><ele>506.5</ele><time>2026-04-18T18:57:32.664Z</time></trkpt><trkpt lat="48.177565405853784" lon="11.581378281467522"><ele>507.0</ele><time>2026-04-18T18:57:33.663Z</time></trkpt><trkpt lat="48.177609658199" lon="11.580708944988807"><ele>506.5</ele><time>2026-04-18T18:57:34.664Z</time></trkpt><trkpt lat="48.17766166403468" lon="11.580042143258417"><ele>506.0</ele><time>2026-04-18T18:57:35.662Z</time></trkpt><trkpt lat="48.17771765461019" lon="11.57937354474505"><ele>506.5</ele><time>2026-04-18T18:57:36.665Z</time></trkpt><trkpt lat="48.177774883359675" lon="11.578708134354649"><ele>507.0</ele><time>2026-04-18T18:57:37.662Z</time></trkpt><trkpt lat="48.17783187039731" lon="11.578040529348986"><ele>506.5</ele><time>2026-04-18T18:57:38.663Z</time></trkpt><trkpt lat="48.17788873309429" lon="11.577373138236835"><ele>506.0</ele><time>2026-04-18T18:57:39.664Z</time></trkpt><trkpt lat="48.178135445036574" lon="11.574733588978155"><ele>507.0</ele><time>2026-04-18T18:58:12.485Z</time></trkpt><trkpt lat="48.178156990138326" lon="11.574155392874857"><ele>508.0</ele><time>2026-04-18T18:58:17Z</time></trkpt><trkpt lat="48.17814921366898" lon="11.573987616243214"><ele>508.00000000000006</ele><time>2026-04-18T18:58:19Z</time></trkpt><trkpt lat="48.17814983000688" lon="11.573870068108022"><ele>508.0</ele><time>2026-04-18T18:58:21Z</time></trkpt><trkpt lat="48.178130476304325" lon="11.573748347267465"><ele>508.0</ele><time>2026-04-18T18:58:23Z</time></trkpt><trkpt lat="48.17815842882075" lon="11.57364690682806"><ele>508.0</ele><time>2026-04-18T18:58:25Z</time></trkpt><trkpt lat="48.17817205906137" lon="11.573547079902776"><ele>508.00000000000006</ele><time>2026-04-18T18:58:28Z</time></trkpt><trkpt lat="48.17816811935113" lon="11.57341106093589"><ele>508.0</ele><time>2026-04-18T18:59:15Z</time></trkpt><trkpt lat="48.17815152661253" lon="11.573196208697821"><ele>507.79999999999995</ele><time>2026-04-18T18:59:17Z</time></trkpt><trkpt lat="48.17813133386127" lon="11.573068114663004"><ele>507.59999999999997</ele><time>2026-04-18T18:59:18Z</time></trkpt><trkpt lat="48.178108740393576" lon="11.572930497621078"><ele>507.40000000000003</ele><time>2026-04-18T18:59:19Z</time></trkpt><trkpt lat="48.178084417540475" lon="11.572771587780943"><ele>507.20000000000005</ele><time>2026-04-18T18:59:20Z</time></trkpt><trkpt lat="48.17805976768576" lon="11.572602238004453"><ele>507.0</ele><time>2026-04-18T18:59:21Z</time></trkpt><trkpt lat="48.17803812244033" lon="11.57245574072482"><ele>507.0</ele><time>2026-04-18T18:59:22Z</time></trkpt><trkpt lat="48.17800881717328" lon="11.57231227355479"><ele>507.00000000000006</ele><time>2026-04-18T18:59:23Z</time></trkpt><trkpt lat="48.1779858674717" lon="11.572156644785201"><ele>507.00000000000006</ele><time>2026-04-18T18:59:24Z</time></trkpt><trkpt lat="48.177958715323996" lon="11.572007811725726"><ele>507.0</ele><time>2026-04-18T18:59:25Z</time></trkpt><trkpt lat="48.17792613728834" lon="11.571861172540892"><ele>507.0</ele><time>2026-04-18T18:59:26Z</time></trkpt><trkpt lat="48.177896033341334" lon="11.571733134407364"><ele>506.8333333333333</ele><time>2026-04-18T18:59:27Z</time></trkpt><trkpt lat="48.1778653422619" lon="11.571608875763538"><ele>506.66666666666663</ele><time>2026-04-18T18:59:28Z</time></trkpt><trkpt lat="48.177832932349865" lon="11.571501599449595"><ele>506.5</ele><time>2026-04-18T18:59:29Z</time></trkpt><trkpt lat="48.1778033480167" lon="11.571390505158652"><ele>506.3333333333333</ele><time>2026-04-18T18:59:30Z</time></trkpt><trkpt lat="48.17777119299976" lon="11.571283037105577"><ele>506.16666666666663</ele><time>2026-04-18T18:59:31Z</time></trkpt><trkpt lat="48.177741748416004" lon="11.571180315180914"><ele>506.0</ele><time>2026-04-18T18:59:32Z</time></trkpt><trkpt lat="48.1777015132791" lon="11.571052891420333"><ele>506.0</ele><time>2026-04-18T18:59:33Z</time></trkpt><trkpt lat="48.177645555567324" lon="11.570906053890532"><ele>506.0</ele><time>2026-04-18T18:59:34Z</time></trkpt><trkpt lat="48.1776029474751" lon="11.570741067004715"><ele>506.0</ele><time>2026-04-18T18:59:35Z</time></trkpt><trkpt lat="48.17756933931522" lon="11.570590803288058"><ele>506.0</ele><time>2026-04-18T18:59:36Z</time></trkpt><trkpt lat="48.177529950959915" lon="11.570445675991293"><ele>506.0</ele><time>2026-04-18T18:59:37Z</time></trkpt><trkpt lat="48.17748564876791" lon="11.570287644712112"><ele>506.6</ele><time>2026-04-18T18:59:38Z</time></trkpt><trkpt lat="48.177440917167374" lon="11.570141001941781"><ele>507.20000000000005</ele><time>2026-04-18T18:59:39Z</time></trkpt><trkpt lat="48.17740091513163" lon="11.569981213361038"><ele>507.79999999999995</ele><time>2026-04-18T18:59:40Z</time></trkpt><trkpt lat="48.17735640610601" lon="11.569825677649172"><ele>508.4</ele><time>2026-04-18T18:59:41Z</time></trkpt><trkpt lat="48.177310649260065" lon="11.56967764812549"><ele>509.0</ele><time>2026-04-18T18:59:42Z</time></trkpt><trkpt lat="48.17726513875811" lon="11.569522895481905"><ele>509.0</ele><time>2026-04-18T18:59:43Z</time></trkpt><trkpt lat="48.17722140532803" lon="11.569359611099676"><ele>509.0</ele><time>2026-04-18T18:59:44Z</time></trkpt><trkpt lat="48.177170247261294" lon="11.56917000217904"><ele>509.0</ele><time>2026-04-18T18:59:45Z</time></trkpt><trkpt lat="48.17712394694875" lon="11.569001544272014"><ele>509.0</ele><time>2026-04-18T18:59:46Z</time></trkpt><trkpt lat="48.17707249656472" lon="11.5688352405395"><ele>509.16666666666663</ele><time>2026-04-18T18:59:47Z</time></trkpt><trkpt lat="48.17702776911146" lon="11.568683087967237"><ele>509.3333333333333</ele><time>2026-04-18T18:59:48Z</time></trkpt><trkpt lat="48.17699310092781" lon="11.568546349351736"><ele>509.5</ele><time>2026-04-18T18:59:49Z</time></trkpt><trkpt lat="48.17697056692921" lon="11.568430676854708"><ele>509.66666666666663</ele><time>2026-04-18T18:59:50Z</time></trkpt><trkpt lat="48.17694515528654" lon="11.568323218578078"><ele>509.8333333333333</ele><time>2026-04-18T18:59:51Z</time></trkpt><trkpt lat="48.176924103485504" lon="11.568232928792064"><ele>510.0</ele><time>2026-04-18T18:59:52Z</time></trkpt><trkpt lat="48.17689288233423" lon="11.56811601285722"><ele>510.0</ele><time>2026-04-18T18:59:54Z</time></trkpt><trkpt lat="48.176870070702776" lon="11.56802376257006"><ele>510.0</ele><time>2026-04-18T18:59:56Z</time></trkpt><trkpt lat="48.17684574578964" lon="11.567924313368744"><ele>510.0</ele><time>2026-04-18T19:00:00Z</time></trkpt><trkpt lat="48.17681810660024" lon="11.567732805671945"><ele>510.0</ele><time>2026-04-18T19:02:21Z</time></trkpt><trkpt lat="48.17678632436429" lon="11.567598183028272"><ele>510.0</ele><time>2026-04-18T19:02:22Z</time></trkpt><trkpt lat="48.17675232783893" lon="11.567461933146106"><ele>509.75</ele><time>2026-04-18T19:02:23Z</time></trkpt><trkpt lat="48.17671878563953" lon="11.567343007708681"><ele>509.5</ele><time>2026-04-18T19:02:24Z</time></trkpt><trkpt lat="48.17667899970959" lon="11.567190028172899"><ele>509.25</ele><time>2026-04-18T19:02:25Z</time></trkpt><trkpt lat="48.17662785057626" lon="11.567003213891013"><ele>509.0</ele><time>2026-04-18T19:02:26Z</time></trkpt><trkpt lat="48.17656648390642" lon="11.566791877572657"><ele>509.25</ele><time>2026-04-18T19:02:27Z</time></trkpt><trkpt lat="48.17649758641851" lon="11.566554834901089"><ele>509.5</ele><time>2026-04-18T19:02:28Z</time></trkpt><trkpt lat="48.176441610968865" lon="11.566353589281507"><ele>509.75</ele><time>2026-04-18T19:02:29Z</time></trkpt><trkpt lat="48.1763934793393" lon="11.566177686688864"><ele>510.0</ele><time>2026-04-18T19:02:30Z</time></trkpt><trkpt lat="48.17635245865124" lon="11.566020665204649"><ele>510.5</ele><time>2026-04-18T19:02:31Z</time></trkpt><trkpt lat="48.17631958024452" lon="11.565877849844423"><ele>511.0</ele><time>2026-04-18T19:02:32Z</time></trkpt><trkpt lat="48.176299308464436" lon="11.565777174627877"><ele>511.5</ele><time>2026-04-18T19:02:33Z</time></trkpt><trkpt lat="48.17627670883487" lon="11.565683164825243"><ele>512.0</ele><time>2026-04-18T19:02:34Z</time></trkpt><trkpt lat="48.17625771568626" lon="11.565548129687343"><ele>512.5</ele><time>2026-04-18T19:02:36Z</time></trkpt><trkpt lat="48.176314998919025" lon="11.56539503457178"><ele>513.0</ele><time>2026-04-18T19:02:38Z</time></trkpt><trkpt lat="48.176383422935274" lon="11.565339950756728"><ele>512.6</ele><time>2026-04-18T19:02:39Z</time></trkpt><trkpt lat="48.17647040421093" lon="11.565301762943312"><ele>512.1999999999999</ele><time>2026-04-18T19:02:40Z</time></trkpt><trkpt lat="48.17656129864874" lon="11.565262802677516"><ele>511.8</ele><time>2026-04-18T19:02:41Z</time></trkpt><trkpt lat="48.176648360209896" lon="11.565222204704197"><ele>511.4</ele><time>2026-04-18T19:02:42Z</time></trkpt><trkpt lat="48.1767380104358" lon="11.565174482337879"><ele>511.0</ele><time>2026-04-18T19:02:43Z</time></trkpt><trkpt lat="48.17681916930698" lon="11.56513148857382"><ele>511.00000000000006</ele><time>2026-04-18T19:02:44Z</time></trkpt><trkpt lat="48.17689045507916" lon="11.565105480925524"><ele>511.0</ele><time>2026-04-18T19:02:45Z</time></trkpt><trkpt lat="48.176952054536265" lon="11.565081685611304"><ele>511.0</ele><time>2026-04-18T19:02:46Z</time></trkpt><trkpt lat="48.177013100561375" lon="11.565055629269935"><ele>511.0</ele><time>2026-04-18T19:02:47Z</time></trkpt><trkpt lat="48.177125153146946" lon="11.565001110696615"><ele>511.00000000000006</ele><time>2026-04-18T19:02:49Z</time></trkpt><trkpt lat="48.17720263479303" lon="11.564966023940144"><ele>511.0</ele><time>2026-04-18T19:02:51Z</time></trkpt><trkpt lat="48.1772781831927" lon="11.56492750881169"><ele>511.00000000000006</ele><time>2026-04-18T19:02:54Z</time></trkpt><trkpt lat="48.17735824541575" lon="11.564891546108145"><ele>511.0</ele><time>2026-04-18T19:03:00Z</time></trkpt><trkpt lat="48.177455034109656" lon="11.564846048764384"><ele>511.0</ele><time>2026-04-18T19:03:02Z</time></trkpt><trkpt lat="48.1775641655351" lon="11.564801546651166"><ele>511.0</ele><time>2026-04-18T19:03:04Z</time></trkpt><trkpt lat="48.17762570796069" lon="11.564776327256094"><ele>511.00000000000006</ele><time>2026-04-18T19:03:05Z</time></trkpt><trkpt lat="48.17768690673422" lon="11.564750482705998"><ele>511.0</ele><time>2026-04-18T19:03:06Z</time></trkpt><trkpt lat="48.17775648622488" lon="11.56472298909951"><ele>511.00000000000006</ele><time>2026-04-18T19:03:07Z</time></trkpt><trkpt lat="48.17782387960728" lon="11.564689901160987"><ele>511.0</ele><time>2026-04-18T19:03:08Z</time></trkpt><trkpt lat="48.177892852937994" lon="11.56465135253641"><ele>511.0</ele><time>2026-04-18T19:03:09Z</time></trkpt><trkpt lat="48.177955732381335" lon="11.56462082005495"><ele>511.0</ele><time>2026-04-18T19:03:10Z</time></trkpt><trkpt lat="48.178063352466125" lon="11.564572920845322"><ele>511.00000000000006</ele><time>2026-04-18T19:03:12Z</time></trkpt><trkpt lat="48.17814875616574" lon="11.56453076312024"><ele>511.0</ele><time>2026-04-18T19:03:14Z</time></trkpt><trkpt lat="48.17821960914602" lon="11.564503357549334"><ele>511.1666666666667</ele><time>2026-04-18T19:03:16Z</time></trkpt><trkpt lat="48.17830730257571" lon="11.564467604624944"><ele>511.33333333333337</ele><time>2026-04-18T19:03:18Z</time></trkpt><trkpt lat="48.17839449094902" lon="11.564420462850332"><ele>511.5</ele><time>2026-04-18T19:03:20Z</time></trkpt><trkpt lat="48.178471080553706" lon="11.564382136433542"><ele>511.66666666666663</ele><time>2026-04-18T19:03:22Z</time></trkpt><trkpt lat="48.17855691458401" lon="11.564349326330024"><ele>511.8333333333333</ele><time>2026-04-18T19:03:24Z</time></trkpt><trkpt lat="48.17862730810886" lon="11.564321175456113"><ele>512.0</ele><time>2026-04-18T19:03:27Z</time></trkpt><trkpt lat="48.178696155488055" lon="11.564292234463249"><ele>511.99999999999994</ele><time>2026-04-18T19:03:36Z</time></trkpt><trkpt lat="48.178760914926706" lon="11.564261215351072"><ele>512.0</ele><time>2026-04-18T19:03:38Z</time></trkpt><trkpt lat="48.17883998952674" lon="11.564223339403913"><ele>512.0</ele><time>2026-04-18T19:03:41Z</time></trkpt><trkpt lat="48.178903836537316" lon="11.56419275730508"><ele>512.0</ele><time>2026-04-18T19:03:45Z</time></trkpt><trkpt lat="48.17904110912574" lon="11.564182632121213"><ele>511.99999999999994</ele><time>2026-04-18T19:04:29.999Z</time></trkpt><trkpt lat="48.17898941891538" lon="11.5642825666432"><ele>512.0</ele><time>2026-04-18T19:07:04Z</time></trkpt><trkpt lat="48.17892642714833" lon="11.564289807163433"><ele>512.0</ele><time>2026-04-18T19:07:15Z</time></trkpt><trkpt lat="48.178919335580936" lon="11.564156274497531"><ele>512.0</ele><time>2026-04-18T19:10:22Z</time></trkpt><trkpt lat="48.17893249494799" lon="11.564052239862699"><ele>512.0</ele><time>2026-04-18T19:10:26Z</time></trkpt><trkpt lat="48.17895314126732" lon="11.563950404738366"><ele>512.0</ele><time>2026-04-18T19:10:29Z</time></trkpt><trkpt lat="48.178951626050036" lon="11.564137362953943"><ele>512.0</ele><time>2026-04-18T19:10:32Z</time></trkpt><trkpt lat="48.17895922701233" lon="11.564345119509632"><ele>512.0</ele><time>2026-04-18T19:10:52Z</time></trkpt></trkseg></trk></gpx>